<?xml version="1.0" encoding="UTF-8" standalone="no" ?>
<gpx xmlns="http://www.topografix.com/GPX/1/1" xmlns:xsi="http://www.w3.org/2001/XMLSchema-instance" xsi:schemaLocation="http://www.topografix.com/GPX/1/1 http://www.topografix.com/GPX/1/1/gpx.xsd" version="1.1" creator="VisuGPX - https://www.visugpx.com">
  <metadata>
    <name>Tete pelouse</name>
  </metadata>
  <trk>
    <name><![CDATA[Tete pelouse_1]]></name>
    <trkseg>
      <trkpt lat="45.92238" lon="6.4841">
        <ele>1441</ele>
        <time>2021-05-20T03:58:28Z</time>
      </trkpt>
      <trkpt lat="45.92237" lon="6.48411">
        <ele>1441</ele>
        <time>2021-05-20T03:58:29Z</time>
      </trkpt>
      <trkpt lat="45.92237" lon="6.48411">
        <ele>1441</ele>
        <time>2021-05-20T03:58:30Z</time>
      </trkpt>
      <trkpt lat="45.92237" lon="6.48411">
        <ele>1442</ele>
        <time>2021-05-20T03:58:31Z</time>
      </trkpt>
      <trkpt lat="45.92234" lon="6.48412">
        <ele>1442</ele>
        <time>2021-05-20T03:58:32Z</time>
      </trkpt>
      <trkpt lat="45.92234" lon="6.48412">
        <ele>1443</ele>
        <time>2021-05-20T03:58:33Z</time>
      </trkpt>
      <trkpt lat="45.92232" lon="6.48413">
        <ele>1443</ele>
        <time>2021-05-20T03:58:34Z</time>
      </trkpt>
      <trkpt lat="45.92231" lon="6.48414">
        <ele>1444</ele>
        <time>2021-05-20T03:58:35Z</time>
      </trkpt>
      <trkpt lat="45.9223" lon="6.48415">
        <ele>1444</ele>
        <time>2021-05-20T03:58:36Z</time>
      </trkpt>
      <trkpt lat="45.92229" lon="6.48416">
        <ele>1444</ele>
        <time>2021-05-20T03:58:37Z</time>
      </trkpt>
      <trkpt lat="45.92228" lon="6.48418">
        <ele>1445</ele>
        <time>2021-05-20T03:58:38Z</time>
      </trkpt>
      <trkpt lat="45.92227" lon="6.48419">
        <ele>1446</ele>
        <time>2021-05-20T03:58:39Z</time>
      </trkpt>
      <trkpt lat="45.92223" lon="6.48424">
        <ele>1446</ele>
        <time>2021-05-20T03:58:40Z</time>
      </trkpt>
      <trkpt lat="45.92223" lon="6.48424">
        <ele>1446</ele>
        <time>2021-05-20T03:58:41Z</time>
      </trkpt>
      <trkpt lat="45.92222" lon="6.48425">
        <ele>1447</ele>
        <time>2021-05-20T03:58:42Z</time>
      </trkpt>
      <trkpt lat="45.92221" lon="6.48426">
        <ele>1447</ele>
        <time>2021-05-20T03:58:43Z</time>
      </trkpt>
      <trkpt lat="45.9222" lon="6.48428">
        <ele>1448</ele>
        <time>2021-05-20T03:58:44Z</time>
      </trkpt>
      <trkpt lat="45.92219" lon="6.48429">
        <ele>1448</ele>
        <time>2021-05-20T03:58:45Z</time>
      </trkpt>
      <trkpt lat="45.92218" lon="6.4843">
        <ele>1448</ele>
        <time>2021-05-20T03:58:46Z</time>
      </trkpt>
      <trkpt lat="45.92217" lon="6.48431">
        <ele>1448</ele>
        <time>2021-05-20T03:58:47Z</time>
      </trkpt>
      <trkpt lat="45.92216" lon="6.48432">
        <ele>1450</ele>
        <time>2021-05-20T03:58:48Z</time>
      </trkpt>
      <trkpt lat="45.92215" lon="6.48432">
        <ele>1450</ele>
        <time>2021-05-20T03:58:49Z</time>
      </trkpt>
      <trkpt lat="45.92214" lon="6.48433">
        <ele>1450</ele>
        <time>2021-05-20T03:58:50Z</time>
      </trkpt>
      <trkpt lat="45.92213" lon="6.48434">
        <ele>1451</ele>
        <time>2021-05-20T03:58:51Z</time>
      </trkpt>
      <trkpt lat="45.92212" lon="6.48435">
        <ele>1452</ele>
        <time>2021-05-20T03:58:52Z</time>
      </trkpt>
      <trkpt lat="45.92211" lon="6.48436">
        <ele>1452</ele>
        <time>2021-05-20T03:58:53Z</time>
      </trkpt>
      <trkpt lat="45.9221" lon="6.48436">
        <ele>1452</ele>
        <time>2021-05-20T03:58:54Z</time>
      </trkpt>
      <trkpt lat="45.92209" lon="6.48437">
        <ele>1453</ele>
        <time>2021-05-20T03:58:55Z</time>
      </trkpt>
      <trkpt lat="45.92208" lon="6.48438">
        <ele>1453</ele>
        <time>2021-05-20T03:58:56Z</time>
      </trkpt>
      <trkpt lat="45.92206" lon="6.48439">
        <ele>1454</ele>
        <time>2021-05-20T03:58:57Z</time>
      </trkpt>
      <trkpt lat="45.92205" lon="6.4844">
        <ele>1454</ele>
        <time>2021-05-20T03:58:58Z</time>
      </trkpt>
      <trkpt lat="45.92204" lon="6.48441">
        <ele>1455</ele>
        <time>2021-05-20T03:58:59Z</time>
      </trkpt>
      <trkpt lat="45.92203" lon="6.48442">
        <ele>1456</ele>
        <time>2021-05-20T03:59:00Z</time>
      </trkpt>
      <trkpt lat="45.92202" lon="6.48443">
        <ele>1457</ele>
        <time>2021-05-20T03:59:01Z</time>
      </trkpt>
      <trkpt lat="45.92202" lon="6.48443">
        <ele>1457</ele>
        <time>2021-05-20T03:59:02Z</time>
      </trkpt>
      <trkpt lat="45.92199" lon="6.48447">
        <ele>1457</ele>
        <time>2021-05-20T03:59:03Z</time>
      </trkpt>
      <trkpt lat="45.92199" lon="6.48447">
        <ele>1457</ele>
        <time>2021-05-20T03:59:04Z</time>
      </trkpt>
      <trkpt lat="45.92199" lon="6.48447">
        <ele>1458</ele>
        <time>2021-05-20T03:59:05Z</time>
      </trkpt>
      <trkpt lat="45.92196" lon="6.4845">
        <ele>1458</ele>
        <time>2021-05-20T03:59:06Z</time>
      </trkpt>
      <trkpt lat="45.92196" lon="6.4845">
        <ele>1458</ele>
        <time>2021-05-20T03:59:07Z</time>
      </trkpt>
      <trkpt lat="45.92195" lon="6.48451">
        <ele>1459</ele>
        <time>2021-05-20T03:59:08Z</time>
      </trkpt>
      <trkpt lat="45.92194" lon="6.48452">
        <ele>1460</ele>
        <time>2021-05-20T03:59:09Z</time>
      </trkpt>
      <trkpt lat="45.92193" lon="6.48453">
        <ele>1460</ele>
        <time>2021-05-20T03:59:10Z</time>
      </trkpt>
      <trkpt lat="45.92191" lon="6.48454">
        <ele>1461</ele>
        <time>2021-05-20T03:59:11Z</time>
      </trkpt>
      <trkpt lat="45.9219" lon="6.48455">
        <ele>1461</ele>
        <time>2021-05-20T03:59:12Z</time>
      </trkpt>
      <trkpt lat="45.92189" lon="6.48456">
        <ele>1461</ele>
        <time>2021-05-20T03:59:13Z</time>
      </trkpt>
      <trkpt lat="45.92189" lon="6.48456">
        <ele>1462</ele>
        <time>2021-05-20T03:59:14Z</time>
      </trkpt>
      <trkpt lat="45.92186" lon="6.4846">
        <ele>1462</ele>
        <time>2021-05-20T03:59:15Z</time>
      </trkpt>
      <trkpt lat="45.92186" lon="6.4846">
        <ele>1462</ele>
        <time>2021-05-20T03:59:16Z</time>
      </trkpt>
      <trkpt lat="45.92185" lon="6.48461">
        <ele>1462</ele>
        <time>2021-05-20T03:59:17Z</time>
      </trkpt>
      <trkpt lat="45.92184" lon="6.48462">
        <ele>1463</ele>
        <time>2021-05-20T03:59:18Z</time>
      </trkpt>
      <trkpt lat="45.92183" lon="6.48464">
        <ele>1463</ele>
        <time>2021-05-20T03:59:19Z</time>
      </trkpt>
      <trkpt lat="45.92182" lon="6.48465">
        <ele>1463</ele>
        <time>2021-05-20T03:59:20Z</time>
      </trkpt>
      <trkpt lat="45.92181" lon="6.48467">
        <ele>1463</ele>
        <time>2021-05-20T03:59:21Z</time>
      </trkpt>
      <trkpt lat="45.9218" lon="6.48468">
        <ele>1463</ele>
        <time>2021-05-20T03:59:22Z</time>
      </trkpt>
      <trkpt lat="45.9218" lon="6.48468">
        <ele>1464</ele>
        <time>2021-05-20T03:59:23Z</time>
      </trkpt>
      <trkpt lat="45.92178" lon="6.48472">
        <ele>1464</ele>
        <time>2021-05-20T03:59:24Z</time>
      </trkpt>
      <trkpt lat="45.92178" lon="6.48472">
        <ele>1464</ele>
        <time>2021-05-20T03:59:25Z</time>
      </trkpt>
      <trkpt lat="45.92178" lon="6.48472">
        <ele>1464</ele>
        <time>2021-05-20T03:59:26Z</time>
      </trkpt>
      <trkpt lat="45.92175" lon="6.48475">
        <ele>1464</ele>
        <time>2021-05-20T03:59:27Z</time>
      </trkpt>
      <trkpt lat="45.92175" lon="6.48475">
        <ele>1464</ele>
        <time>2021-05-20T03:59:28Z</time>
      </trkpt>
      <trkpt lat="45.92174" lon="6.48477">
        <ele>1465</ele>
        <time>2021-05-20T03:59:29Z</time>
      </trkpt>
      <trkpt lat="45.92173" lon="6.48478">
        <ele>1466</ele>
        <time>2021-05-20T03:59:30Z</time>
      </trkpt>
      <trkpt lat="45.92172" lon="6.48479">
        <ele>1466</ele>
        <time>2021-05-20T03:59:31Z</time>
      </trkpt>
      <trkpt lat="45.92171" lon="6.48481">
        <ele>1466</ele>
        <time>2021-05-20T03:59:32Z</time>
      </trkpt>
      <trkpt lat="45.9217" lon="6.48483">
        <ele>1466</ele>
        <time>2021-05-20T03:59:33Z</time>
      </trkpt>
      <trkpt lat="45.92169" lon="6.48484">
        <ele>1466</ele>
        <time>2021-05-20T03:59:34Z</time>
      </trkpt>
      <trkpt lat="45.92168" lon="6.48486">
        <ele>1466</ele>
        <time>2021-05-20T03:59:35Z</time>
      </trkpt>
      <trkpt lat="45.92167" lon="6.48487">
        <ele>1466</ele>
        <time>2021-05-20T03:59:36Z</time>
      </trkpt>
      <trkpt lat="45.92166" lon="6.48489">
        <ele>1466</ele>
        <time>2021-05-20T03:59:37Z</time>
      </trkpt>
      <trkpt lat="45.92166" lon="6.48489">
        <ele>1466</ele>
        <time>2021-05-20T03:59:38Z</time>
      </trkpt>
      <trkpt lat="45.92163" lon="6.48493">
        <ele>1466</ele>
        <time>2021-05-20T03:59:39Z</time>
      </trkpt>
      <trkpt lat="45.92163" lon="6.48493">
        <ele>1466</ele>
        <time>2021-05-20T03:59:40Z</time>
      </trkpt>
      <trkpt lat="45.92163" lon="6.48494">
        <ele>1467</ele>
        <time>2021-05-20T03:59:41Z</time>
      </trkpt>
      <trkpt lat="45.92162" lon="6.48495">
        <ele>1467</ele>
        <time>2021-05-20T03:59:42Z</time>
      </trkpt>
      <trkpt lat="45.92161" lon="6.48497">
        <ele>1467</ele>
        <time>2021-05-20T03:59:43Z</time>
      </trkpt>
      <trkpt lat="45.92161" lon="6.48498">
        <ele>1468</ele>
        <time>2021-05-20T03:59:44Z</time>
      </trkpt>
      <trkpt lat="45.92158" lon="6.48502">
        <ele>1468</ele>
        <time>2021-05-20T03:59:45Z</time>
      </trkpt>
      <trkpt lat="45.92158" lon="6.48502">
        <ele>1468</ele>
        <time>2021-05-20T03:59:46Z</time>
      </trkpt>
      <trkpt lat="45.92157" lon="6.48504">
        <ele>1468</ele>
        <time>2021-05-20T03:59:47Z</time>
      </trkpt>
      <trkpt lat="45.92156" lon="6.48505">
        <ele>1468</ele>
        <time>2021-05-20T03:59:48Z</time>
      </trkpt>
      <trkpt lat="45.92155" lon="6.48506">
        <ele>1468</ele>
        <time>2021-05-20T03:59:49Z</time>
      </trkpt>
      <trkpt lat="45.92155" lon="6.48506">
        <ele>1468</ele>
        <time>2021-05-20T03:59:50Z</time>
      </trkpt>
      <trkpt lat="45.92151" lon="6.48511">
        <ele>1468</ele>
        <time>2021-05-20T03:59:51Z</time>
      </trkpt>
      <trkpt lat="45.92151" lon="6.48511">
        <ele>1468</ele>
        <time>2021-05-20T03:59:52Z</time>
      </trkpt>
      <trkpt lat="45.92151" lon="6.48512">
        <ele>1468</ele>
        <time>2021-05-20T03:59:53Z</time>
      </trkpt>
      <trkpt lat="45.9215" lon="6.48513">
        <ele>1469</ele>
        <time>2021-05-20T03:59:54Z</time>
      </trkpt>
      <trkpt lat="45.92149" lon="6.48515">
        <ele>1469</ele>
        <time>2021-05-20T03:59:55Z</time>
      </trkpt>
      <trkpt lat="45.92149" lon="6.48515">
        <ele>1469</ele>
        <time>2021-05-20T03:59:56Z</time>
      </trkpt>
      <trkpt lat="45.92148" lon="6.4852">
        <ele>1469</ele>
        <time>2021-05-20T03:59:57Z</time>
      </trkpt>
      <trkpt lat="45.92148" lon="6.4852">
        <ele>1469</ele>
        <time>2021-05-20T03:59:58Z</time>
      </trkpt>
      <trkpt lat="45.92148" lon="6.4852">
        <ele>1469</ele>
        <time>2021-05-20T03:59:59Z</time>
      </trkpt>
      <trkpt lat="45.92147" lon="6.48525">
        <ele>1469</ele>
        <time>2021-05-20T04:00:00Z</time>
      </trkpt>
      <trkpt lat="45.92147" lon="6.48525">
        <ele>1469</ele>
        <time>2021-05-20T04:00:01Z</time>
      </trkpt>
      <trkpt lat="45.92147" lon="6.48527">
        <ele>1469</ele>
        <time>2021-05-20T04:00:02Z</time>
      </trkpt>
      <trkpt lat="45.92146" lon="6.48529">
        <ele>1469</ele>
        <time>2021-05-20T04:00:03Z</time>
      </trkpt>
      <trkpt lat="45.92146" lon="6.48531">
        <ele>1470</ele>
        <time>2021-05-20T04:00:04Z</time>
      </trkpt>
      <trkpt lat="45.92146" lon="6.48531">
        <ele>1470</ele>
        <time>2021-05-20T04:00:05Z</time>
      </trkpt>
      <trkpt lat="45.92146" lon="6.48537">
        <ele>1470</ele>
        <time>2021-05-20T04:00:06Z</time>
      </trkpt>
      <trkpt lat="45.92146" lon="6.48537">
        <ele>1470</ele>
        <time>2021-05-20T04:00:07Z</time>
      </trkpt>
      <trkpt lat="45.92145" lon="6.4854">
        <ele>1470</ele>
        <time>2021-05-20T04:00:08Z</time>
      </trkpt>
      <trkpt lat="45.92145" lon="6.48542">
        <ele>1470</ele>
        <time>2021-05-20T04:00:09Z</time>
      </trkpt>
      <trkpt lat="45.92145" lon="6.48544">
        <ele>1470</ele>
        <time>2021-05-20T04:00:10Z</time>
      </trkpt>
      <trkpt lat="45.92145" lon="6.48546">
        <ele>1470</ele>
        <time>2021-05-20T04:00:11Z</time>
      </trkpt>
      <trkpt lat="45.92144" lon="6.48547">
        <ele>1471</ele>
        <time>2021-05-20T04:00:12Z</time>
      </trkpt>
      <trkpt lat="45.92144" lon="6.48549">
        <ele>1471</ele>
        <time>2021-05-20T04:00:13Z</time>
      </trkpt>
      <trkpt lat="45.92144" lon="6.48551">
        <ele>1471</ele>
        <time>2021-05-20T04:00:14Z</time>
      </trkpt>
      <trkpt lat="45.92143" lon="6.48553">
        <ele>1471</ele>
        <time>2021-05-20T04:00:15Z</time>
      </trkpt>
      <trkpt lat="45.92143" lon="6.48555">
        <ele>1471</ele>
        <time>2021-05-20T04:00:16Z</time>
      </trkpt>
      <trkpt lat="45.92143" lon="6.48557">
        <ele>1471</ele>
        <time>2021-05-20T04:00:17Z</time>
      </trkpt>
      <trkpt lat="45.92143" lon="6.48559">
        <ele>1471</ele>
        <time>2021-05-20T04:00:18Z</time>
      </trkpt>
      <trkpt lat="45.92142" lon="6.48561">
        <ele>1471</ele>
        <time>2021-05-20T04:00:19Z</time>
      </trkpt>
      <trkpt lat="45.92142" lon="6.48563">
        <ele>1471</ele>
        <time>2021-05-20T04:00:20Z</time>
      </trkpt>
      <trkpt lat="45.92141" lon="6.48565">
        <ele>1471</ele>
        <time>2021-05-20T04:00:21Z</time>
      </trkpt>
      <trkpt lat="45.92141" lon="6.48567">
        <ele>1471</ele>
        <time>2021-05-20T04:00:22Z</time>
      </trkpt>
      <trkpt lat="45.9214" lon="6.48569">
        <ele>1471</ele>
        <time>2021-05-20T04:00:23Z</time>
      </trkpt>
      <trkpt lat="45.9214" lon="6.48572">
        <ele>1472</ele>
        <time>2021-05-20T04:00:24Z</time>
      </trkpt>
      <trkpt lat="45.92139" lon="6.48574">
        <ele>1472</ele>
        <time>2021-05-20T04:00:25Z</time>
      </trkpt>
      <trkpt lat="45.92139" lon="6.48576">
        <ele>1472</ele>
        <time>2021-05-20T04:00:26Z</time>
      </trkpt>
      <trkpt lat="45.92138" lon="6.48578">
        <ele>1472</ele>
        <time>2021-05-20T04:00:27Z</time>
      </trkpt>
      <trkpt lat="45.92138" lon="6.4858">
        <ele>1472</ele>
        <time>2021-05-20T04:00:28Z</time>
      </trkpt>
      <trkpt lat="45.92137" lon="6.48582">
        <ele>1472</ele>
        <time>2021-05-20T04:00:29Z</time>
      </trkpt>
      <trkpt lat="45.92136" lon="6.48584">
        <ele>1472</ele>
        <time>2021-05-20T04:00:30Z</time>
      </trkpt>
      <trkpt lat="45.92135" lon="6.48586">
        <ele>1472</ele>
        <time>2021-05-20T04:00:31Z</time>
      </trkpt>
      <trkpt lat="45.92134" lon="6.48588">
        <ele>1472</ele>
        <time>2021-05-20T04:00:32Z</time>
      </trkpt>
      <trkpt lat="45.92133" lon="6.4859">
        <ele>1472</ele>
        <time>2021-05-20T04:00:33Z</time>
      </trkpt>
      <trkpt lat="45.92132" lon="6.48592">
        <ele>1472</ele>
        <time>2021-05-20T04:00:34Z</time>
      </trkpt>
      <trkpt lat="45.92132" lon="6.48592">
        <ele>1472</ele>
        <time>2021-05-20T04:00:35Z</time>
      </trkpt>
      <trkpt lat="45.92132" lon="6.48592">
        <ele>1472</ele>
        <time>2021-05-20T04:00:36Z</time>
      </trkpt>
      <trkpt lat="45.92132" lon="6.48592">
        <ele>1472</ele>
        <time>2021-05-20T04:00:37Z</time>
      </trkpt>
      <trkpt lat="45.92132" lon="6.48592">
        <ele>1472</ele>
        <time>2021-05-20T04:00:38Z</time>
      </trkpt>
      <trkpt lat="45.92132" lon="6.48592">
        <ele>1472</ele>
        <time>2021-05-20T04:00:39Z</time>
      </trkpt>
      <trkpt lat="45.92132" lon="6.48592">
        <ele>1472</ele>
        <time>2021-05-20T04:00:40Z</time>
      </trkpt>
      <trkpt lat="45.92132" lon="6.48592">
        <ele>1472</ele>
        <time>2021-05-20T04:00:41Z</time>
      </trkpt>
      <trkpt lat="45.92132" lon="6.48592">
        <ele>1472</ele>
        <time>2021-05-20T04:00:42Z</time>
      </trkpt>
      <trkpt lat="45.92132" lon="6.48592">
        <ele>1472</ele>
        <time>2021-05-20T04:00:43Z</time>
      </trkpt>
      <trkpt lat="45.92132" lon="6.48592">
        <ele>1471</ele>
        <time>2021-05-20T04:00:44Z</time>
      </trkpt>
      <trkpt lat="45.92132" lon="6.48592">
        <ele>1471</ele>
        <time>2021-05-20T04:00:45Z</time>
      </trkpt>
      <trkpt lat="45.92132" lon="6.48592">
        <ele>1471</ele>
        <time>2021-05-20T04:00:46Z</time>
      </trkpt>
      <trkpt lat="45.9213" lon="6.48598">
        <ele>1471</ele>
        <time>2021-05-20T04:00:47Z</time>
      </trkpt>
      <trkpt lat="45.9213" lon="6.48598">
        <ele>1471</ele>
        <time>2021-05-20T04:00:48Z</time>
      </trkpt>
      <trkpt lat="45.92127" lon="6.48607">
        <ele>1471</ele>
        <time>2021-05-20T04:00:49Z</time>
      </trkpt>
      <trkpt lat="45.92127" lon="6.48607">
        <ele>1471</ele>
        <time>2021-05-20T04:00:50Z</time>
      </trkpt>
      <trkpt lat="45.92125" lon="6.48616">
        <ele>1471</ele>
        <time>2021-05-20T04:00:51Z</time>
      </trkpt>
      <trkpt lat="45.92125" lon="6.48616">
        <ele>1471</ele>
        <time>2021-05-20T04:00:52Z</time>
      </trkpt>
      <trkpt lat="45.92124" lon="6.48622">
        <ele>1471</ele>
        <time>2021-05-20T04:00:53Z</time>
      </trkpt>
      <trkpt lat="45.92124" lon="6.48622">
        <ele>1471</ele>
        <time>2021-05-20T04:00:54Z</time>
      </trkpt>
      <trkpt lat="45.92122" lon="6.48628">
        <ele>1471</ele>
        <time>2021-05-20T04:00:55Z</time>
      </trkpt>
      <trkpt lat="45.92122" lon="6.48628">
        <ele>1470</ele>
        <time>2021-05-20T04:00:56Z</time>
      </trkpt>
      <trkpt lat="45.92121" lon="6.48633">
        <ele>1470</ele>
        <time>2021-05-20T04:00:57Z</time>
      </trkpt>
      <trkpt lat="45.92121" lon="6.48633">
        <ele>1470</ele>
        <time>2021-05-20T04:00:58Z</time>
      </trkpt>
      <trkpt lat="45.92119" lon="6.48639">
        <ele>1470</ele>
        <time>2021-05-20T04:00:59Z</time>
      </trkpt>
      <trkpt lat="45.92119" lon="6.48639">
        <ele>1470</ele>
        <time>2021-05-20T04:01:00Z</time>
      </trkpt>
      <trkpt lat="45.92118" lon="6.48644">
        <ele>1470</ele>
        <time>2021-05-20T04:01:01Z</time>
      </trkpt>
      <trkpt lat="45.92118" lon="6.48644">
        <ele>1470</ele>
        <time>2021-05-20T04:01:02Z</time>
      </trkpt>
      <trkpt lat="45.92118" lon="6.48647">
        <ele>1470</ele>
        <time>2021-05-20T04:01:03Z</time>
      </trkpt>
      <trkpt lat="45.92118" lon="6.48649">
        <ele>1470</ele>
        <time>2021-05-20T04:01:04Z</time>
      </trkpt>
      <trkpt lat="45.92119" lon="6.48651">
        <ele>1470</ele>
        <time>2021-05-20T04:01:05Z</time>
      </trkpt>
      <trkpt lat="45.92119" lon="6.48653">
        <ele>1469</ele>
        <time>2021-05-20T04:01:06Z</time>
      </trkpt>
      <trkpt lat="45.9212" lon="6.48656">
        <ele>1469</ele>
        <time>2021-05-20T04:01:07Z</time>
      </trkpt>
      <trkpt lat="45.92121" lon="6.48658">
        <ele>1469</ele>
        <time>2021-05-20T04:01:08Z</time>
      </trkpt>
      <trkpt lat="45.92122" lon="6.4866">
        <ele>1469</ele>
        <time>2021-05-20T04:01:09Z</time>
      </trkpt>
      <trkpt lat="45.92122" lon="6.48662">
        <ele>1469</ele>
        <time>2021-05-20T04:01:10Z</time>
      </trkpt>
      <trkpt lat="45.92123" lon="6.48664">
        <ele>1468</ele>
        <time>2021-05-20T04:01:11Z</time>
      </trkpt>
      <trkpt lat="45.92124" lon="6.48667">
        <ele>1468</ele>
        <time>2021-05-20T04:01:12Z</time>
      </trkpt>
      <trkpt lat="45.92125" lon="6.48669">
        <ele>1468</ele>
        <time>2021-05-20T04:01:13Z</time>
      </trkpt>
      <trkpt lat="45.92127" lon="6.48671">
        <ele>1468</ele>
        <time>2021-05-20T04:01:14Z</time>
      </trkpt>
      <trkpt lat="45.92128" lon="6.48673">
        <ele>1467</ele>
        <time>2021-05-20T04:01:15Z</time>
      </trkpt>
      <trkpt lat="45.92129" lon="6.48674">
        <ele>1467</ele>
        <time>2021-05-20T04:01:16Z</time>
      </trkpt>
      <trkpt lat="45.9213" lon="6.48676">
        <ele>1467</ele>
        <time>2021-05-20T04:01:17Z</time>
      </trkpt>
      <trkpt lat="45.92131" lon="6.48678">
        <ele>1467</ele>
        <time>2021-05-20T04:01:18Z</time>
      </trkpt>
      <trkpt lat="45.92132" lon="6.4868">
        <ele>1467</ele>
        <time>2021-05-20T04:01:19Z</time>
      </trkpt>
      <trkpt lat="45.92132" lon="6.48682">
        <ele>1467</ele>
        <time>2021-05-20T04:01:20Z</time>
      </trkpt>
      <trkpt lat="45.92133" lon="6.48684">
        <ele>1467</ele>
        <time>2021-05-20T04:01:21Z</time>
      </trkpt>
      <trkpt lat="45.92135" lon="6.48686">
        <ele>1467</ele>
        <time>2021-05-20T04:01:22Z</time>
      </trkpt>
      <trkpt lat="45.92136" lon="6.48688">
        <ele>1467</ele>
        <time>2021-05-20T04:01:23Z</time>
      </trkpt>
      <trkpt lat="45.92137" lon="6.48689">
        <ele>1467</ele>
        <time>2021-05-20T04:01:24Z</time>
      </trkpt>
      <trkpt lat="45.92138" lon="6.48691">
        <ele>1467</ele>
        <time>2021-05-20T04:01:25Z</time>
      </trkpt>
      <trkpt lat="45.9214" lon="6.48692">
        <ele>1467</ele>
        <time>2021-05-20T04:01:26Z</time>
      </trkpt>
      <trkpt lat="45.92141" lon="6.48693">
        <ele>1467</ele>
        <time>2021-05-20T04:01:27Z</time>
      </trkpt>
      <trkpt lat="45.92142" lon="6.48694">
        <ele>1467</ele>
        <time>2021-05-20T04:01:28Z</time>
      </trkpt>
      <trkpt lat="45.92144" lon="6.48696">
        <ele>1467</ele>
        <time>2021-05-20T04:01:29Z</time>
      </trkpt>
      <trkpt lat="45.92145" lon="6.48697">
        <ele>1467</ele>
        <time>2021-05-20T04:01:30Z</time>
      </trkpt>
      <trkpt lat="45.92146" lon="6.48699">
        <ele>1467</ele>
        <time>2021-05-20T04:01:31Z</time>
      </trkpt>
      <trkpt lat="45.92147" lon="6.48701">
        <ele>1466</ele>
        <time>2021-05-20T04:01:32Z</time>
      </trkpt>
      <trkpt lat="45.92148" lon="6.48702">
        <ele>1466</ele>
        <time>2021-05-20T04:01:33Z</time>
      </trkpt>
      <trkpt lat="45.9215" lon="6.48704">
        <ele>1466</ele>
        <time>2021-05-20T04:01:34Z</time>
      </trkpt>
      <trkpt lat="45.92151" lon="6.48705">
        <ele>1466</ele>
        <time>2021-05-20T04:01:35Z</time>
      </trkpt>
      <trkpt lat="45.92152" lon="6.48707">
        <ele>1466</ele>
        <time>2021-05-20T04:01:36Z</time>
      </trkpt>
      <trkpt lat="45.92153" lon="6.48709">
        <ele>1466</ele>
        <time>2021-05-20T04:01:37Z</time>
      </trkpt>
      <trkpt lat="45.92154" lon="6.4871">
        <ele>1466</ele>
        <time>2021-05-20T04:01:38Z</time>
      </trkpt>
      <trkpt lat="45.92155" lon="6.48712">
        <ele>1466</ele>
        <time>2021-05-20T04:01:39Z</time>
      </trkpt>
      <trkpt lat="45.92156" lon="6.48714">
        <ele>1466</ele>
        <time>2021-05-20T04:01:40Z</time>
      </trkpt>
      <trkpt lat="45.92157" lon="6.48716">
        <ele>1466</ele>
        <time>2021-05-20T04:01:41Z</time>
      </trkpt>
      <trkpt lat="45.92158" lon="6.48718">
        <ele>1466</ele>
        <time>2021-05-20T04:01:42Z</time>
      </trkpt>
      <trkpt lat="45.92159" lon="6.4872">
        <ele>1465</ele>
        <time>2021-05-20T04:01:43Z</time>
      </trkpt>
      <trkpt lat="45.92159" lon="6.48722">
        <ele>1465</ele>
        <time>2021-05-20T04:01:44Z</time>
      </trkpt>
      <trkpt lat="45.9216" lon="6.48724">
        <ele>1465</ele>
        <time>2021-05-20T04:01:45Z</time>
      </trkpt>
      <trkpt lat="45.92161" lon="6.48727">
        <ele>1464</ele>
        <time>2021-05-20T04:01:46Z</time>
      </trkpt>
      <trkpt lat="45.92162" lon="6.48729">
        <ele>1464</ele>
        <time>2021-05-20T04:01:47Z</time>
      </trkpt>
      <trkpt lat="45.92162" lon="6.48731">
        <ele>1464</ele>
        <time>2021-05-20T04:01:48Z</time>
      </trkpt>
      <trkpt lat="45.92163" lon="6.48733">
        <ele>1464</ele>
        <time>2021-05-20T04:01:49Z</time>
      </trkpt>
      <trkpt lat="45.92164" lon="6.48736">
        <ele>1463</ele>
        <time>2021-05-20T04:01:50Z</time>
      </trkpt>
      <trkpt lat="45.92164" lon="6.48738">
        <ele>1463</ele>
        <time>2021-05-20T04:01:51Z</time>
      </trkpt>
      <trkpt lat="45.92165" lon="6.4874">
        <ele>1463</ele>
        <time>2021-05-20T04:01:52Z</time>
      </trkpt>
      <trkpt lat="45.92165" lon="6.48743">
        <ele>1463</ele>
        <time>2021-05-20T04:01:53Z</time>
      </trkpt>
      <trkpt lat="45.92166" lon="6.48745">
        <ele>1463</ele>
        <time>2021-05-20T04:01:54Z</time>
      </trkpt>
      <trkpt lat="45.92166" lon="6.48747">
        <ele>1463</ele>
        <time>2021-05-20T04:01:55Z</time>
      </trkpt>
      <trkpt lat="45.92167" lon="6.4875">
        <ele>1463</ele>
        <time>2021-05-20T04:01:56Z</time>
      </trkpt>
      <trkpt lat="45.92167" lon="6.48752">
        <ele>1463</ele>
        <time>2021-05-20T04:01:57Z</time>
      </trkpt>
      <trkpt lat="45.92167" lon="6.48754">
        <ele>1463</ele>
        <time>2021-05-20T04:01:58Z</time>
      </trkpt>
      <trkpt lat="45.92168" lon="6.48756">
        <ele>1462</ele>
        <time>2021-05-20T04:01:59Z</time>
      </trkpt>
      <trkpt lat="45.92168" lon="6.48759">
        <ele>1462</ele>
        <time>2021-05-20T04:02:00Z</time>
      </trkpt>
      <trkpt lat="45.92169" lon="6.48761">
        <ele>1462</ele>
        <time>2021-05-20T04:02:01Z</time>
      </trkpt>
      <trkpt lat="45.9217" lon="6.48763">
        <ele>1462</ele>
        <time>2021-05-20T04:02:02Z</time>
      </trkpt>
      <trkpt lat="45.9217" lon="6.48765">
        <ele>1462</ele>
        <time>2021-05-20T04:02:03Z</time>
      </trkpt>
      <trkpt lat="45.92171" lon="6.48767">
        <ele>1461</ele>
        <time>2021-05-20T04:02:04Z</time>
      </trkpt>
      <trkpt lat="45.92171" lon="6.4877">
        <ele>1461</ele>
        <time>2021-05-20T04:02:05Z</time>
      </trkpt>
      <trkpt lat="45.92172" lon="6.48772">
        <ele>1461</ele>
        <time>2021-05-20T04:02:06Z</time>
      </trkpt>
      <trkpt lat="45.92172" lon="6.48774">
        <ele>1460</ele>
        <time>2021-05-20T04:02:07Z</time>
      </trkpt>
      <trkpt lat="45.92173" lon="6.48776">
        <ele>1460</ele>
        <time>2021-05-20T04:02:08Z</time>
      </trkpt>
      <trkpt lat="45.92173" lon="6.48778">
        <ele>1460</ele>
        <time>2021-05-20T04:02:09Z</time>
      </trkpt>
      <trkpt lat="45.92174" lon="6.4878">
        <ele>1459</ele>
        <time>2021-05-20T04:02:10Z</time>
      </trkpt>
      <trkpt lat="45.92175" lon="6.48782">
        <ele>1459</ele>
        <time>2021-05-20T04:02:11Z</time>
      </trkpt>
      <trkpt lat="45.92175" lon="6.48784">
        <ele>1459</ele>
        <time>2021-05-20T04:02:12Z</time>
      </trkpt>
      <trkpt lat="45.92176" lon="6.48786">
        <ele>1459</ele>
        <time>2021-05-20T04:02:13Z</time>
      </trkpt>
      <trkpt lat="45.92177" lon="6.48788">
        <ele>1459</ele>
        <time>2021-05-20T04:02:14Z</time>
      </trkpt>
      <trkpt lat="45.92178" lon="6.4879">
        <ele>1459</ele>
        <time>2021-05-20T04:02:15Z</time>
      </trkpt>
      <trkpt lat="45.92179" lon="6.48792">
        <ele>1459</ele>
        <time>2021-05-20T04:02:16Z</time>
      </trkpt>
      <trkpt lat="45.9218" lon="6.48794">
        <ele>1459</ele>
        <time>2021-05-20T04:02:17Z</time>
      </trkpt>
      <trkpt lat="45.92181" lon="6.48796">
        <ele>1459</ele>
        <time>2021-05-20T04:02:18Z</time>
      </trkpt>
      <trkpt lat="45.92181" lon="6.48798">
        <ele>1458</ele>
        <time>2021-05-20T04:02:19Z</time>
      </trkpt>
      <trkpt lat="45.92182" lon="6.488">
        <ele>1458</ele>
        <time>2021-05-20T04:02:20Z</time>
      </trkpt>
      <trkpt lat="45.92182" lon="6.48802">
        <ele>1458</ele>
        <time>2021-05-20T04:02:21Z</time>
      </trkpt>
      <trkpt lat="45.92183" lon="6.48804">
        <ele>1458</ele>
        <time>2021-05-20T04:02:22Z</time>
      </trkpt>
      <trkpt lat="45.92183" lon="6.48806">
        <ele>1458</ele>
        <time>2021-05-20T04:02:23Z</time>
      </trkpt>
      <trkpt lat="45.92183" lon="6.48808">
        <ele>1458</ele>
        <time>2021-05-20T04:02:24Z</time>
      </trkpt>
      <trkpt lat="45.92183" lon="6.48811">
        <ele>1458</ele>
        <time>2021-05-20T04:02:25Z</time>
      </trkpt>
      <trkpt lat="45.92183" lon="6.48813">
        <ele>1458</ele>
        <time>2021-05-20T04:02:26Z</time>
      </trkpt>
      <trkpt lat="45.92184" lon="6.48815">
        <ele>1458</ele>
        <time>2021-05-20T04:02:27Z</time>
      </trkpt>
      <trkpt lat="45.92183" lon="6.48817">
        <ele>1457</ele>
        <time>2021-05-20T04:02:28Z</time>
      </trkpt>
      <trkpt lat="45.92183" lon="6.48819">
        <ele>1457</ele>
        <time>2021-05-20T04:02:29Z</time>
      </trkpt>
      <trkpt lat="45.92183" lon="6.48821">
        <ele>1456</ele>
        <time>2021-05-20T04:02:30Z</time>
      </trkpt>
      <trkpt lat="45.92182" lon="6.48823">
        <ele>1456</ele>
        <time>2021-05-20T04:02:31Z</time>
      </trkpt>
      <trkpt lat="45.92181" lon="6.48825">
        <ele>1456</ele>
        <time>2021-05-20T04:02:32Z</time>
      </trkpt>
      <trkpt lat="45.92181" lon="6.48827">
        <ele>1456</ele>
        <time>2021-05-20T04:02:33Z</time>
      </trkpt>
      <trkpt lat="45.9218" lon="6.48828">
        <ele>1456</ele>
        <time>2021-05-20T04:02:34Z</time>
      </trkpt>
      <trkpt lat="45.92179" lon="6.4883">
        <ele>1456</ele>
        <time>2021-05-20T04:02:35Z</time>
      </trkpt>
      <trkpt lat="45.92178" lon="6.48831">
        <ele>1455</ele>
        <time>2021-05-20T04:02:36Z</time>
      </trkpt>
      <trkpt lat="45.92177" lon="6.48833">
        <ele>1455</ele>
        <time>2021-05-20T04:02:37Z</time>
      </trkpt>
      <trkpt lat="45.92175" lon="6.48834">
        <ele>1455</ele>
        <time>2021-05-20T04:02:38Z</time>
      </trkpt>
      <trkpt lat="45.92174" lon="6.48836">
        <ele>1454</ele>
        <time>2021-05-20T04:02:39Z</time>
      </trkpt>
      <trkpt lat="45.92173" lon="6.48837">
        <ele>1454</ele>
        <time>2021-05-20T04:02:40Z</time>
      </trkpt>
      <trkpt lat="45.92171" lon="6.48839">
        <ele>1454</ele>
        <time>2021-05-20T04:02:41Z</time>
      </trkpt>
      <trkpt lat="45.9217" lon="6.4884">
        <ele>1454</ele>
        <time>2021-05-20T04:02:42Z</time>
      </trkpt>
      <trkpt lat="45.92169" lon="6.48842">
        <ele>1454</ele>
        <time>2021-05-20T04:02:43Z</time>
      </trkpt>
      <trkpt lat="45.92168" lon="6.48844">
        <ele>1454</ele>
        <time>2021-05-20T04:02:44Z</time>
      </trkpt>
      <trkpt lat="45.92168" lon="6.48846">
        <ele>1453</ele>
        <time>2021-05-20T04:02:45Z</time>
      </trkpt>
      <trkpt lat="45.92167" lon="6.48848">
        <ele>1453</ele>
        <time>2021-05-20T04:02:46Z</time>
      </trkpt>
      <trkpt lat="45.92166" lon="6.4885">
        <ele>1453</ele>
        <time>2021-05-20T04:02:47Z</time>
      </trkpt>
      <trkpt lat="45.92166" lon="6.48852">
        <ele>1453</ele>
        <time>2021-05-20T04:02:48Z</time>
      </trkpt>
      <trkpt lat="45.92165" lon="6.48854">
        <ele>1452</ele>
        <time>2021-05-20T04:02:49Z</time>
      </trkpt>
      <trkpt lat="45.92164" lon="6.48856">
        <ele>1452</ele>
        <time>2021-05-20T04:02:50Z</time>
      </trkpt>
      <trkpt lat="45.92164" lon="6.48858">
        <ele>1452</ele>
        <time>2021-05-20T04:02:51Z</time>
      </trkpt>
      <trkpt lat="45.92163" lon="6.4886">
        <ele>1452</ele>
        <time>2021-05-20T04:02:52Z</time>
      </trkpt>
      <trkpt lat="45.92163" lon="6.48862">
        <ele>1452</ele>
        <time>2021-05-20T04:02:53Z</time>
      </trkpt>
      <trkpt lat="45.92163" lon="6.48864">
        <ele>1452</ele>
        <time>2021-05-20T04:02:54Z</time>
      </trkpt>
      <trkpt lat="45.92163" lon="6.48866">
        <ele>1451</ele>
        <time>2021-05-20T04:02:55Z</time>
      </trkpt>
      <trkpt lat="45.92162" lon="6.48869">
        <ele>1451</ele>
        <time>2021-05-20T04:02:56Z</time>
      </trkpt>
      <trkpt lat="45.92162" lon="6.48871">
        <ele>1451</ele>
        <time>2021-05-20T04:02:57Z</time>
      </trkpt>
      <trkpt lat="45.92162" lon="6.48873">
        <ele>1451</ele>
        <time>2021-05-20T04:02:58Z</time>
      </trkpt>
      <trkpt lat="45.92162" lon="6.48875">
        <ele>1451</ele>
        <time>2021-05-20T04:02:59Z</time>
      </trkpt>
      <trkpt lat="45.92163" lon="6.48878">
        <ele>1451</ele>
        <time>2021-05-20T04:03:00Z</time>
      </trkpt>
      <trkpt lat="45.92163" lon="6.48879">
        <ele>1451</ele>
        <time>2021-05-20T04:03:01Z</time>
      </trkpt>
      <trkpt lat="45.92164" lon="6.48881">
        <ele>1451</ele>
        <time>2021-05-20T04:03:02Z</time>
      </trkpt>
      <trkpt lat="45.92164" lon="6.48883">
        <ele>1451</ele>
        <time>2021-05-20T04:03:03Z</time>
      </trkpt>
      <trkpt lat="45.92164" lon="6.48885">
        <ele>1451</ele>
        <time>2021-05-20T04:03:04Z</time>
      </trkpt>
      <trkpt lat="45.92164" lon="6.48887">
        <ele>1452</ele>
        <time>2021-05-20T04:03:05Z</time>
      </trkpt>
      <trkpt lat="45.92163" lon="6.48889">
        <ele>1452</ele>
        <time>2021-05-20T04:03:06Z</time>
      </trkpt>
      <trkpt lat="45.92163" lon="6.48889">
        <ele>1452</ele>
        <time>2021-05-20T04:03:07Z</time>
      </trkpt>
      <trkpt lat="45.92162" lon="6.48894">
        <ele>1451</ele>
        <time>2021-05-20T04:03:08Z</time>
      </trkpt>
      <trkpt lat="45.92162" lon="6.48894">
        <ele>1452</ele>
        <time>2021-05-20T04:03:09Z</time>
      </trkpt>
      <trkpt lat="45.92161" lon="6.48896">
        <ele>1452</ele>
        <time>2021-05-20T04:03:10Z</time>
      </trkpt>
      <trkpt lat="45.92161" lon="6.48898">
        <ele>1452</ele>
        <time>2021-05-20T04:03:11Z</time>
      </trkpt>
      <trkpt lat="45.92161" lon="6.489">
        <ele>1452</ele>
        <time>2021-05-20T04:03:12Z</time>
      </trkpt>
      <trkpt lat="45.92161" lon="6.489">
        <ele>1452</ele>
        <time>2021-05-20T04:03:13Z</time>
      </trkpt>
      <trkpt lat="45.9216" lon="6.48906">
        <ele>1452</ele>
        <time>2021-05-20T04:03:14Z</time>
      </trkpt>
      <trkpt lat="45.9216" lon="6.48906">
        <ele>1453</ele>
        <time>2021-05-20T04:03:15Z</time>
      </trkpt>
      <trkpt lat="45.9216" lon="6.48908">
        <ele>1453</ele>
        <time>2021-05-20T04:03:16Z</time>
      </trkpt>
      <trkpt lat="45.9216" lon="6.4891">
        <ele>1453</ele>
        <time>2021-05-20T04:03:17Z</time>
      </trkpt>
      <trkpt lat="45.9216" lon="6.48912">
        <ele>1453</ele>
        <time>2021-05-20T04:03:18Z</time>
      </trkpt>
      <trkpt lat="45.9216" lon="6.48912">
        <ele>1453</ele>
        <time>2021-05-20T04:03:19Z</time>
      </trkpt>
      <trkpt lat="45.92159" lon="6.48917">
        <ele>1453</ele>
        <time>2021-05-20T04:03:20Z</time>
      </trkpt>
      <trkpt lat="45.92159" lon="6.48917">
        <ele>1453</ele>
        <time>2021-05-20T04:03:21Z</time>
      </trkpt>
      <trkpt lat="45.92159" lon="6.48917">
        <ele>1454</ele>
        <time>2021-05-20T04:03:22Z</time>
      </trkpt>
      <trkpt lat="45.92159" lon="6.48923">
        <ele>1454</ele>
        <time>2021-05-20T04:03:23Z</time>
      </trkpt>
      <trkpt lat="45.92159" lon="6.48923">
        <ele>1454</ele>
        <time>2021-05-20T04:03:24Z</time>
      </trkpt>
      <trkpt lat="45.92159" lon="6.48925">
        <ele>1454</ele>
        <time>2021-05-20T04:03:25Z</time>
      </trkpt>
      <trkpt lat="45.92159" lon="6.48927">
        <ele>1454</ele>
        <time>2021-05-20T04:03:26Z</time>
      </trkpt>
      <trkpt lat="45.9216" lon="6.48929">
        <ele>1454</ele>
        <time>2021-05-20T04:03:27Z</time>
      </trkpt>
      <trkpt lat="45.9216" lon="6.48929">
        <ele>1454</ele>
        <time>2021-05-20T04:03:28Z</time>
      </trkpt>
      <trkpt lat="45.9216" lon="6.48934">
        <ele>1454</ele>
        <time>2021-05-20T04:03:29Z</time>
      </trkpt>
      <trkpt lat="45.9216" lon="6.48934">
        <ele>1454</ele>
        <time>2021-05-20T04:03:30Z</time>
      </trkpt>
      <trkpt lat="45.9216" lon="6.48934">
        <ele>1454</ele>
        <time>2021-05-20T04:03:31Z</time>
      </trkpt>
      <trkpt lat="45.9216" lon="6.48939">
        <ele>1454</ele>
        <time>2021-05-20T04:03:32Z</time>
      </trkpt>
      <trkpt lat="45.9216" lon="6.48939">
        <ele>1455</ele>
        <time>2021-05-20T04:03:33Z</time>
      </trkpt>
      <trkpt lat="45.92159" lon="6.48941">
        <ele>1455</ele>
        <time>2021-05-20T04:03:34Z</time>
      </trkpt>
      <trkpt lat="45.92159" lon="6.48943">
        <ele>1455</ele>
        <time>2021-05-20T04:03:35Z</time>
      </trkpt>
      <trkpt lat="45.92159" lon="6.48945">
        <ele>1455</ele>
        <time>2021-05-20T04:03:36Z</time>
      </trkpt>
      <trkpt lat="45.92159" lon="6.48945">
        <ele>1455</ele>
        <time>2021-05-20T04:03:37Z</time>
      </trkpt>
      <trkpt lat="45.92159" lon="6.48951">
        <ele>1456</ele>
        <time>2021-05-20T04:03:38Z</time>
      </trkpt>
      <trkpt lat="45.92159" lon="6.48951">
        <ele>1456</ele>
        <time>2021-05-20T04:03:39Z</time>
      </trkpt>
      <trkpt lat="45.92159" lon="6.48952">
        <ele>1456</ele>
        <time>2021-05-20T04:03:40Z</time>
      </trkpt>
      <trkpt lat="45.92159" lon="6.48954">
        <ele>1456</ele>
        <time>2021-05-20T04:03:41Z</time>
      </trkpt>
      <trkpt lat="45.92159" lon="6.48956">
        <ele>1456</ele>
        <time>2021-05-20T04:03:42Z</time>
      </trkpt>
      <trkpt lat="45.92159" lon="6.48956">
        <ele>1456</ele>
        <time>2021-05-20T04:03:43Z</time>
      </trkpt>
      <trkpt lat="45.92159" lon="6.48962">
        <ele>1456</ele>
        <time>2021-05-20T04:03:44Z</time>
      </trkpt>
      <trkpt lat="45.92159" lon="6.48962">
        <ele>1456</ele>
        <time>2021-05-20T04:03:45Z</time>
      </trkpt>
      <trkpt lat="45.92159" lon="6.48962">
        <ele>1456</ele>
        <time>2021-05-20T04:03:46Z</time>
      </trkpt>
      <trkpt lat="45.92159" lon="6.48968">
        <ele>1456</ele>
        <time>2021-05-20T04:03:47Z</time>
      </trkpt>
      <trkpt lat="45.92159" lon="6.48968">
        <ele>1456</ele>
        <time>2021-05-20T04:03:48Z</time>
      </trkpt>
      <trkpt lat="45.92159" lon="6.4897">
        <ele>1456</ele>
        <time>2021-05-20T04:03:49Z</time>
      </trkpt>
      <trkpt lat="45.92159" lon="6.48971">
        <ele>1456</ele>
        <time>2021-05-20T04:03:50Z</time>
      </trkpt>
      <trkpt lat="45.92159" lon="6.48973">
        <ele>1456</ele>
        <time>2021-05-20T04:03:51Z</time>
      </trkpt>
      <trkpt lat="45.92159" lon="6.48973">
        <ele>1457</ele>
        <time>2021-05-20T04:03:52Z</time>
      </trkpt>
      <trkpt lat="45.92159" lon="6.48979">
        <ele>1457</ele>
        <time>2021-05-20T04:03:53Z</time>
      </trkpt>
      <trkpt lat="45.92159" lon="6.48979">
        <ele>1457</ele>
        <time>2021-05-20T04:03:54Z</time>
      </trkpt>
      <trkpt lat="45.92159" lon="6.48981">
        <ele>1457</ele>
        <time>2021-05-20T04:03:55Z</time>
      </trkpt>
      <trkpt lat="45.92159" lon="6.48983">
        <ele>1457</ele>
        <time>2021-05-20T04:03:56Z</time>
      </trkpt>
      <trkpt lat="45.92159" lon="6.48985">
        <ele>1457</ele>
        <time>2021-05-20T04:03:57Z</time>
      </trkpt>
      <trkpt lat="45.92159" lon="6.48985">
        <ele>1457</ele>
        <time>2021-05-20T04:03:58Z</time>
      </trkpt>
      <trkpt lat="45.92159" lon="6.4899">
        <ele>1457</ele>
        <time>2021-05-20T04:03:59Z</time>
      </trkpt>
      <trkpt lat="45.92159" lon="6.4899">
        <ele>1457</ele>
        <time>2021-05-20T04:04:00Z</time>
      </trkpt>
      <trkpt lat="45.92159" lon="6.4899">
        <ele>1458</ele>
        <time>2021-05-20T04:04:01Z</time>
      </trkpt>
      <trkpt lat="45.92158" lon="6.48996">
        <ele>1458</ele>
        <time>2021-05-20T04:04:02Z</time>
      </trkpt>
      <trkpt lat="45.92158" lon="6.48996">
        <ele>1458</ele>
        <time>2021-05-20T04:04:03Z</time>
      </trkpt>
      <trkpt lat="45.92158" lon="6.48997">
        <ele>1458</ele>
        <time>2021-05-20T04:04:04Z</time>
      </trkpt>
      <trkpt lat="45.92158" lon="6.48999">
        <ele>1459</ele>
        <time>2021-05-20T04:04:05Z</time>
      </trkpt>
      <trkpt lat="45.92157" lon="6.49001">
        <ele>1460</ele>
        <time>2021-05-20T04:04:06Z</time>
      </trkpt>
      <trkpt lat="45.92157" lon="6.49001">
        <ele>1460</ele>
        <time>2021-05-20T04:04:07Z</time>
      </trkpt>
      <trkpt lat="45.92157" lon="6.49001">
        <ele>1460</ele>
        <time>2021-05-20T04:04:08Z</time>
      </trkpt>
      <trkpt lat="45.92158" lon="6.49007">
        <ele>1460</ele>
        <time>2021-05-20T04:04:09Z</time>
      </trkpt>
      <trkpt lat="45.92158" lon="6.49007">
        <ele>1460</ele>
        <time>2021-05-20T04:04:10Z</time>
      </trkpt>
      <trkpt lat="45.92158" lon="6.49009">
        <ele>1460</ele>
        <time>2021-05-20T04:04:11Z</time>
      </trkpt>
      <trkpt lat="45.92158" lon="6.4901">
        <ele>1460</ele>
        <time>2021-05-20T04:04:12Z</time>
      </trkpt>
      <trkpt lat="45.92158" lon="6.49012">
        <ele>1460</ele>
        <time>2021-05-20T04:04:13Z</time>
      </trkpt>
      <trkpt lat="45.92158" lon="6.49014">
        <ele>1460</ele>
        <time>2021-05-20T04:04:14Z</time>
      </trkpt>
      <trkpt lat="45.92158" lon="6.49015">
        <ele>1460</ele>
        <time>2021-05-20T04:04:15Z</time>
      </trkpt>
      <trkpt lat="45.92158" lon="6.49017">
        <ele>1460</ele>
        <time>2021-05-20T04:04:16Z</time>
      </trkpt>
      <trkpt lat="45.92158" lon="6.49019">
        <ele>1461</ele>
        <time>2021-05-20T04:04:17Z</time>
      </trkpt>
      <trkpt lat="45.92158" lon="6.4902">
        <ele>1461</ele>
        <time>2021-05-20T04:04:18Z</time>
      </trkpt>
      <trkpt lat="45.92159" lon="6.49022">
        <ele>1461</ele>
        <time>2021-05-20T04:04:19Z</time>
      </trkpt>
      <trkpt lat="45.92159" lon="6.49023">
        <ele>1461</ele>
        <time>2021-05-20T04:04:20Z</time>
      </trkpt>
      <trkpt lat="45.9216" lon="6.49024">
        <ele>1462</ele>
        <time>2021-05-20T04:04:21Z</time>
      </trkpt>
      <trkpt lat="45.9216" lon="6.49026">
        <ele>1462</ele>
        <time>2021-05-20T04:04:22Z</time>
      </trkpt>
      <trkpt lat="45.9216" lon="6.49026">
        <ele>1462</ele>
        <time>2021-05-20T04:04:23Z</time>
      </trkpt>
      <trkpt lat="45.9216" lon="6.49026">
        <ele>1463</ele>
        <time>2021-05-20T04:04:24Z</time>
      </trkpt>
      <trkpt lat="45.92163" lon="6.49031">
        <ele>1463</ele>
        <time>2021-05-20T04:04:25Z</time>
      </trkpt>
      <trkpt lat="45.92163" lon="6.49031">
        <ele>1463</ele>
        <time>2021-05-20T04:04:26Z</time>
      </trkpt>
      <trkpt lat="45.92163" lon="6.49032">
        <ele>1463</ele>
        <time>2021-05-20T04:04:27Z</time>
      </trkpt>
      <trkpt lat="45.92164" lon="6.49034">
        <ele>1463</ele>
        <time>2021-05-20T04:04:28Z</time>
      </trkpt>
      <trkpt lat="45.92164" lon="6.49036">
        <ele>1463</ele>
        <time>2021-05-20T04:04:29Z</time>
      </trkpt>
      <trkpt lat="45.92164" lon="6.49036">
        <ele>1464</ele>
        <time>2021-05-20T04:04:30Z</time>
      </trkpt>
      <trkpt lat="45.92165" lon="6.4904">
        <ele>1464</ele>
        <time>2021-05-20T04:04:31Z</time>
      </trkpt>
      <trkpt lat="45.92165" lon="6.4904">
        <ele>1464</ele>
        <time>2021-05-20T04:04:32Z</time>
      </trkpt>
      <trkpt lat="45.92165" lon="6.4904">
        <ele>1464</ele>
        <time>2021-05-20T04:04:33Z</time>
      </trkpt>
      <trkpt lat="45.92167" lon="6.49045">
        <ele>1464</ele>
        <time>2021-05-20T04:04:34Z</time>
      </trkpt>
      <trkpt lat="45.92167" lon="6.49045">
        <ele>1464</ele>
        <time>2021-05-20T04:04:35Z</time>
      </trkpt>
      <trkpt lat="45.92168" lon="6.49047">
        <ele>1464</ele>
        <time>2021-05-20T04:04:36Z</time>
      </trkpt>
      <trkpt lat="45.92168" lon="6.49048">
        <ele>1464</ele>
        <time>2021-05-20T04:04:37Z</time>
      </trkpt>
      <trkpt lat="45.92169" lon="6.49049">
        <ele>1464</ele>
        <time>2021-05-20T04:04:38Z</time>
      </trkpt>
      <trkpt lat="45.92169" lon="6.49051">
        <ele>1465</ele>
        <time>2021-05-20T04:04:39Z</time>
      </trkpt>
      <trkpt lat="45.9217" lon="6.49052">
        <ele>1465</ele>
        <time>2021-05-20T04:04:40Z</time>
      </trkpt>
      <trkpt lat="45.9217" lon="6.49054">
        <ele>1465</ele>
        <time>2021-05-20T04:04:41Z</time>
      </trkpt>
      <trkpt lat="45.9217" lon="6.49055">
        <ele>1465</ele>
        <time>2021-05-20T04:04:42Z</time>
      </trkpt>
      <trkpt lat="45.9217" lon="6.49057">
        <ele>1465</ele>
        <time>2021-05-20T04:04:43Z</time>
      </trkpt>
      <trkpt lat="45.9217" lon="6.49057">
        <ele>1465</ele>
        <time>2021-05-20T04:04:44Z</time>
      </trkpt>
      <trkpt lat="45.92172" lon="6.49062">
        <ele>1466</ele>
        <time>2021-05-20T04:04:45Z</time>
      </trkpt>
      <trkpt lat="45.92172" lon="6.49062">
        <ele>1466</ele>
        <time>2021-05-20T04:04:46Z</time>
      </trkpt>
      <trkpt lat="45.92172" lon="6.49063">
        <ele>1466</ele>
        <time>2021-05-20T04:04:47Z</time>
      </trkpt>
      <trkpt lat="45.92173" lon="6.49065">
        <ele>1466</ele>
        <time>2021-05-20T04:04:48Z</time>
      </trkpt>
      <trkpt lat="45.92173" lon="6.49066">
        <ele>1466</ele>
        <time>2021-05-20T04:04:49Z</time>
      </trkpt>
      <trkpt lat="45.92174" lon="6.49068">
        <ele>1467</ele>
        <time>2021-05-20T04:04:50Z</time>
      </trkpt>
      <trkpt lat="45.92174" lon="6.49069">
        <ele>1467</ele>
        <time>2021-05-20T04:04:51Z</time>
      </trkpt>
      <trkpt lat="45.92175" lon="6.49071">
        <ele>1467</ele>
        <time>2021-05-20T04:04:52Z</time>
      </trkpt>
      <trkpt lat="45.92175" lon="6.49072">
        <ele>1467</ele>
        <time>2021-05-20T04:04:53Z</time>
      </trkpt>
      <trkpt lat="45.92176" lon="6.49074">
        <ele>1467</ele>
        <time>2021-05-20T04:04:54Z</time>
      </trkpt>
      <trkpt lat="45.92176" lon="6.49075">
        <ele>1468</ele>
        <time>2021-05-20T04:04:55Z</time>
      </trkpt>
      <trkpt lat="45.92177" lon="6.49077">
        <ele>1468</ele>
        <time>2021-05-20T04:04:56Z</time>
      </trkpt>
      <trkpt lat="45.92177" lon="6.49078">
        <ele>1468</ele>
        <time>2021-05-20T04:04:57Z</time>
      </trkpt>
      <trkpt lat="45.92177" lon="6.4908">
        <ele>1469</ele>
        <time>2021-05-20T04:04:58Z</time>
      </trkpt>
      <trkpt lat="45.92178" lon="6.49081">
        <ele>1469</ele>
        <time>2021-05-20T04:04:59Z</time>
      </trkpt>
      <trkpt lat="45.92178" lon="6.49082">
        <ele>1469</ele>
        <time>2021-05-20T04:05:00Z</time>
      </trkpt>
      <trkpt lat="45.92179" lon="6.49084">
        <ele>1469</ele>
        <time>2021-05-20T04:05:01Z</time>
      </trkpt>
      <trkpt lat="45.92179" lon="6.49085">
        <ele>1469</ele>
        <time>2021-05-20T04:05:02Z</time>
      </trkpt>
      <trkpt lat="45.9218" lon="6.49087">
        <ele>1469</ele>
        <time>2021-05-20T04:05:03Z</time>
      </trkpt>
      <trkpt lat="45.92181" lon="6.49088">
        <ele>1470</ele>
        <time>2021-05-20T04:05:04Z</time>
      </trkpt>
      <trkpt lat="45.92182" lon="6.4909">
        <ele>1470</ele>
        <time>2021-05-20T04:05:05Z</time>
      </trkpt>
      <trkpt lat="45.92182" lon="6.49091">
        <ele>1470</ele>
        <time>2021-05-20T04:05:06Z</time>
      </trkpt>
      <trkpt lat="45.92182" lon="6.49092">
        <ele>1470</ele>
        <time>2021-05-20T04:05:07Z</time>
      </trkpt>
      <trkpt lat="45.92182" lon="6.49093">
        <ele>1470</ele>
        <time>2021-05-20T04:05:08Z</time>
      </trkpt>
      <trkpt lat="45.92182" lon="6.49093">
        <ele>1472</ele>
        <time>2021-05-20T04:05:09Z</time>
      </trkpt>
      <trkpt lat="45.92183" lon="6.49094">
        <ele>1472</ele>
        <time>2021-05-20T04:05:10Z</time>
      </trkpt>
      <trkpt lat="45.92183" lon="6.49095">
        <ele>1472</ele>
        <time>2021-05-20T04:05:11Z</time>
      </trkpt>
      <trkpt lat="45.92183" lon="6.49096">
        <ele>1472</ele>
        <time>2021-05-20T04:05:12Z</time>
      </trkpt>
      <trkpt lat="45.92183" lon="6.49098">
        <ele>1472</ele>
        <time>2021-05-20T04:05:13Z</time>
      </trkpt>
      <trkpt lat="45.92183" lon="6.49099">
        <ele>1472</ele>
        <time>2021-05-20T04:05:14Z</time>
      </trkpt>
      <trkpt lat="45.92183" lon="6.49101">
        <ele>1472</ele>
        <time>2021-05-20T04:05:15Z</time>
      </trkpt>
      <trkpt lat="45.92183" lon="6.49102">
        <ele>1473</ele>
        <time>2021-05-20T04:05:16Z</time>
      </trkpt>
      <trkpt lat="45.92183" lon="6.49102">
        <ele>1474</ele>
        <time>2021-05-20T04:05:17Z</time>
      </trkpt>
      <trkpt lat="45.92183" lon="6.49107">
        <ele>1474</ele>
        <time>2021-05-20T04:05:18Z</time>
      </trkpt>
      <trkpt lat="45.92183" lon="6.49107">
        <ele>1474</ele>
        <time>2021-05-20T04:05:19Z</time>
      </trkpt>
      <trkpt lat="45.92183" lon="6.49108">
        <ele>1474</ele>
        <time>2021-05-20T04:05:20Z</time>
      </trkpt>
      <trkpt lat="45.92183" lon="6.4911">
        <ele>1475</ele>
        <time>2021-05-20T04:05:21Z</time>
      </trkpt>
      <trkpt lat="45.92183" lon="6.49112">
        <ele>1475</ele>
        <time>2021-05-20T04:05:22Z</time>
      </trkpt>
      <trkpt lat="45.92183" lon="6.49113">
        <ele>1474</ele>
        <time>2021-05-20T04:05:23Z</time>
      </trkpt>
      <trkpt lat="45.92184" lon="6.49115">
        <ele>1474</ele>
        <time>2021-05-20T04:05:24Z</time>
      </trkpt>
      <trkpt lat="45.92184" lon="6.49117">
        <ele>1475</ele>
        <time>2021-05-20T04:05:25Z</time>
      </trkpt>
      <trkpt lat="45.92184" lon="6.49118">
        <ele>1475</ele>
        <time>2021-05-20T04:05:26Z</time>
      </trkpt>
      <trkpt lat="45.92184" lon="6.4912">
        <ele>1475</ele>
        <time>2021-05-20T04:05:27Z</time>
      </trkpt>
      <trkpt lat="45.92184" lon="6.49121">
        <ele>1475</ele>
        <time>2021-05-20T04:05:28Z</time>
      </trkpt>
      <trkpt lat="45.92185" lon="6.49123">
        <ele>1476</ele>
        <time>2021-05-20T04:05:29Z</time>
      </trkpt>
      <trkpt lat="45.92185" lon="6.49125">
        <ele>1477</ele>
        <time>2021-05-20T04:05:30Z</time>
      </trkpt>
      <trkpt lat="45.92185" lon="6.49126">
        <ele>1477</ele>
        <time>2021-05-20T04:05:31Z</time>
      </trkpt>
      <trkpt lat="45.92185" lon="6.49128">
        <ele>1477</ele>
        <time>2021-05-20T04:05:32Z</time>
      </trkpt>
      <trkpt lat="45.92185" lon="6.49129">
        <ele>1477</ele>
        <time>2021-05-20T04:05:33Z</time>
      </trkpt>
      <trkpt lat="45.92185" lon="6.4913">
        <ele>1477</ele>
        <time>2021-05-20T04:05:34Z</time>
      </trkpt>
      <trkpt lat="45.92185" lon="6.49132">
        <ele>1477</ele>
        <time>2021-05-20T04:05:35Z</time>
      </trkpt>
      <trkpt lat="45.92185" lon="6.49133">
        <ele>1478</ele>
        <time>2021-05-20T04:05:36Z</time>
      </trkpt>
      <trkpt lat="45.92186" lon="6.49135">
        <ele>1478</ele>
        <time>2021-05-20T04:05:37Z</time>
      </trkpt>
      <trkpt lat="45.92186" lon="6.49137">
        <ele>1478</ele>
        <time>2021-05-20T04:05:38Z</time>
      </trkpt>
      <trkpt lat="45.92186" lon="6.49138">
        <ele>1479</ele>
        <time>2021-05-20T04:05:39Z</time>
      </trkpt>
      <trkpt lat="45.92186" lon="6.49138">
        <ele>1479</ele>
        <time>2021-05-20T04:05:40Z</time>
      </trkpt>
      <trkpt lat="45.92186" lon="6.49138">
        <ele>1479</ele>
        <time>2021-05-20T04:05:41Z</time>
      </trkpt>
      <trkpt lat="45.92185" lon="6.49143">
        <ele>1479</ele>
        <time>2021-05-20T04:05:42Z</time>
      </trkpt>
      <trkpt lat="45.92185" lon="6.49143">
        <ele>1479</ele>
        <time>2021-05-20T04:05:43Z</time>
      </trkpt>
      <trkpt lat="45.92185" lon="6.49145">
        <ele>1479</ele>
        <time>2021-05-20T04:05:44Z</time>
      </trkpt>
      <trkpt lat="45.92185" lon="6.49146">
        <ele>1480</ele>
        <time>2021-05-20T04:05:45Z</time>
      </trkpt>
      <trkpt lat="45.92185" lon="6.49148">
        <ele>1480</ele>
        <time>2021-05-20T04:05:46Z</time>
      </trkpt>
      <trkpt lat="45.92185" lon="6.4915">
        <ele>1481</ele>
        <time>2021-05-20T04:05:47Z</time>
      </trkpt>
      <trkpt lat="45.92185" lon="6.4915">
        <ele>1481</ele>
        <time>2021-05-20T04:05:48Z</time>
      </trkpt>
      <trkpt lat="45.92185" lon="6.4915">
        <ele>1481</ele>
        <time>2021-05-20T04:05:49Z</time>
      </trkpt>
      <trkpt lat="45.92185" lon="6.49155">
        <ele>1481</ele>
        <time>2021-05-20T04:05:50Z</time>
      </trkpt>
      <trkpt lat="45.92185" lon="6.49155">
        <ele>1481</ele>
        <time>2021-05-20T04:05:51Z</time>
      </trkpt>
      <trkpt lat="45.92185" lon="6.49156">
        <ele>1481</ele>
        <time>2021-05-20T04:05:52Z</time>
      </trkpt>
      <trkpt lat="45.92185" lon="6.49158">
        <ele>1481</ele>
        <time>2021-05-20T04:05:53Z</time>
      </trkpt>
      <trkpt lat="45.92185" lon="6.49159">
        <ele>1481</ele>
        <time>2021-05-20T04:05:54Z</time>
      </trkpt>
      <trkpt lat="45.92185" lon="6.49161">
        <ele>1481</ele>
        <time>2021-05-20T04:05:55Z</time>
      </trkpt>
      <trkpt lat="45.92185" lon="6.49162">
        <ele>1482</ele>
        <time>2021-05-20T04:05:56Z</time>
      </trkpt>
      <trkpt lat="45.92185" lon="6.49164">
        <ele>1483</ele>
        <time>2021-05-20T04:05:57Z</time>
      </trkpt>
      <trkpt lat="45.92185" lon="6.49165">
        <ele>1483</ele>
        <time>2021-05-20T04:05:58Z</time>
      </trkpt>
      <trkpt lat="45.92184" lon="6.49167">
        <ele>1483</ele>
        <time>2021-05-20T04:05:59Z</time>
      </trkpt>
      <trkpt lat="45.92185" lon="6.49168">
        <ele>1483</ele>
        <time>2021-05-20T04:06:00Z</time>
      </trkpt>
      <trkpt lat="45.92185" lon="6.4917">
        <ele>1483</ele>
        <time>2021-05-20T04:06:01Z</time>
      </trkpt>
      <trkpt lat="45.92185" lon="6.49171">
        <ele>1484</ele>
        <time>2021-05-20T04:06:02Z</time>
      </trkpt>
      <trkpt lat="45.92185" lon="6.49173">
        <ele>1484</ele>
        <time>2021-05-20T04:06:03Z</time>
      </trkpt>
      <trkpt lat="45.92185" lon="6.49174">
        <ele>1484</ele>
        <time>2021-05-20T04:06:04Z</time>
      </trkpt>
      <trkpt lat="45.92185" lon="6.49175">
        <ele>1484</ele>
        <time>2021-05-20T04:06:05Z</time>
      </trkpt>
      <trkpt lat="45.92185" lon="6.49177">
        <ele>1484</ele>
        <time>2021-05-20T04:06:06Z</time>
      </trkpt>
      <trkpt lat="45.92185" lon="6.49178">
        <ele>1485</ele>
        <time>2021-05-20T04:06:07Z</time>
      </trkpt>
      <trkpt lat="45.92185" lon="6.49179">
        <ele>1485</ele>
        <time>2021-05-20T04:06:08Z</time>
      </trkpt>
      <trkpt lat="45.92185" lon="6.49179">
        <ele>1486</ele>
        <time>2021-05-20T04:06:09Z</time>
      </trkpt>
      <trkpt lat="45.92185" lon="6.49179">
        <ele>1486</ele>
        <time>2021-05-20T04:06:10Z</time>
      </trkpt>
      <trkpt lat="45.92186" lon="6.49185">
        <ele>1486</ele>
        <time>2021-05-20T04:06:11Z</time>
      </trkpt>
      <trkpt lat="45.92186" lon="6.49185">
        <ele>1486</ele>
        <time>2021-05-20T04:06:12Z</time>
      </trkpt>
      <trkpt lat="45.92186" lon="6.49186">
        <ele>1487</ele>
        <time>2021-05-20T04:06:13Z</time>
      </trkpt>
      <trkpt lat="45.92186" lon="6.49187">
        <ele>1487</ele>
        <time>2021-05-20T04:06:14Z</time>
      </trkpt>
      <trkpt lat="45.92186" lon="6.49189">
        <ele>1487</ele>
        <time>2021-05-20T04:06:15Z</time>
      </trkpt>
      <trkpt lat="45.92187" lon="6.4919">
        <ele>1488</ele>
        <time>2021-05-20T04:06:16Z</time>
      </trkpt>
      <trkpt lat="45.92187" lon="6.4919">
        <ele>1488</ele>
        <time>2021-05-20T04:06:17Z</time>
      </trkpt>
      <trkpt lat="45.92187" lon="6.4919">
        <ele>1488</ele>
        <time>2021-05-20T04:06:18Z</time>
      </trkpt>
      <trkpt lat="45.92187" lon="6.49195">
        <ele>1489</ele>
        <time>2021-05-20T04:06:19Z</time>
      </trkpt>
      <trkpt lat="45.92187" lon="6.49195">
        <ele>1489</ele>
        <time>2021-05-20T04:06:20Z</time>
      </trkpt>
      <trkpt lat="45.92187" lon="6.49195">
        <ele>1490</ele>
        <time>2021-05-20T04:06:21Z</time>
      </trkpt>
      <trkpt lat="45.92187" lon="6.49195">
        <ele>1490</ele>
        <time>2021-05-20T04:06:22Z</time>
      </trkpt>
      <trkpt lat="45.92187" lon="6.49195">
        <ele>1490</ele>
        <time>2021-05-20T04:06:23Z</time>
      </trkpt>
      <trkpt lat="45.92188" lon="6.492">
        <ele>1490</ele>
        <time>2021-05-20T04:06:24Z</time>
      </trkpt>
      <trkpt lat="45.92188" lon="6.492">
        <ele>1490</ele>
        <time>2021-05-20T04:06:25Z</time>
      </trkpt>
      <trkpt lat="45.92188" lon="6.492">
        <ele>1490</ele>
        <time>2021-05-20T04:06:26Z</time>
      </trkpt>
      <trkpt lat="45.92188" lon="6.492">
        <ele>1491</ele>
        <time>2021-05-20T04:06:27Z</time>
      </trkpt>
      <trkpt lat="45.92189" lon="6.49205">
        <ele>1491</ele>
        <time>2021-05-20T04:06:28Z</time>
      </trkpt>
      <trkpt lat="45.92189" lon="6.49206">
        <ele>1491</ele>
        <time>2021-05-20T04:06:29Z</time>
      </trkpt>
      <trkpt lat="45.92189" lon="6.49207">
        <ele>1491</ele>
        <time>2021-05-20T04:06:30Z</time>
      </trkpt>
      <trkpt lat="45.92189" lon="6.49208">
        <ele>1492</ele>
        <time>2021-05-20T04:06:31Z</time>
      </trkpt>
      <trkpt lat="45.9219" lon="6.49209">
        <ele>1492</ele>
        <time>2021-05-20T04:06:32Z</time>
      </trkpt>
      <trkpt lat="45.9219" lon="6.4921">
        <ele>1492</ele>
        <time>2021-05-20T04:06:33Z</time>
      </trkpt>
      <trkpt lat="45.9219" lon="6.4921">
        <ele>1492</ele>
        <time>2021-05-20T04:06:34Z</time>
      </trkpt>
      <trkpt lat="45.9219" lon="6.4921">
        <ele>1493</ele>
        <time>2021-05-20T04:06:35Z</time>
      </trkpt>
      <trkpt lat="45.92191" lon="6.49215">
        <ele>1494</ele>
        <time>2021-05-20T04:06:36Z</time>
      </trkpt>
      <trkpt lat="45.92191" lon="6.49215">
        <ele>1494</ele>
        <time>2021-05-20T04:06:37Z</time>
      </trkpt>
      <trkpt lat="45.92192" lon="6.49216">
        <ele>1494</ele>
        <time>2021-05-20T04:06:38Z</time>
      </trkpt>
      <trkpt lat="45.92192" lon="6.49218">
        <ele>1494</ele>
        <time>2021-05-20T04:06:39Z</time>
      </trkpt>
      <trkpt lat="45.92193" lon="6.49219">
        <ele>1494</ele>
        <time>2021-05-20T04:06:40Z</time>
      </trkpt>
      <trkpt lat="45.92193" lon="6.49221">
        <ele>1495</ele>
        <time>2021-05-20T04:06:41Z</time>
      </trkpt>
      <trkpt lat="45.92193" lon="6.49222">
        <ele>1495</ele>
        <time>2021-05-20T04:06:42Z</time>
      </trkpt>
      <trkpt lat="45.92194" lon="6.49223">
        <ele>1495</ele>
        <time>2021-05-20T04:06:43Z</time>
      </trkpt>
      <trkpt lat="45.92194" lon="6.49224">
        <ele>1496</ele>
        <time>2021-05-20T04:06:44Z</time>
      </trkpt>
      <trkpt lat="45.92195" lon="6.49226">
        <ele>1496</ele>
        <time>2021-05-20T04:06:45Z</time>
      </trkpt>
      <trkpt lat="45.92195" lon="6.49226">
        <ele>1496</ele>
        <time>2021-05-20T04:06:46Z</time>
      </trkpt>
      <trkpt lat="45.92195" lon="6.49226">
        <ele>1496</ele>
        <time>2021-05-20T04:06:47Z</time>
      </trkpt>
      <trkpt lat="45.92196" lon="6.49231">
        <ele>1496</ele>
        <time>2021-05-20T04:06:48Z</time>
      </trkpt>
      <trkpt lat="45.92196" lon="6.49231">
        <ele>1497</ele>
        <time>2021-05-20T04:06:49Z</time>
      </trkpt>
      <trkpt lat="45.92196" lon="6.49231">
        <ele>1497</ele>
        <time>2021-05-20T04:06:50Z</time>
      </trkpt>
      <trkpt lat="45.92196" lon="6.49231">
        <ele>1497</ele>
        <time>2021-05-20T04:06:51Z</time>
      </trkpt>
      <trkpt lat="45.92197" lon="6.49236">
        <ele>1497</ele>
        <time>2021-05-20T04:06:52Z</time>
      </trkpt>
      <trkpt lat="45.92197" lon="6.49236">
        <ele>1497</ele>
        <time>2021-05-20T04:06:53Z</time>
      </trkpt>
      <trkpt lat="45.92198" lon="6.49237">
        <ele>1497</ele>
        <time>2021-05-20T04:06:54Z</time>
      </trkpt>
      <trkpt lat="45.92198" lon="6.49238">
        <ele>1498</ele>
        <time>2021-05-20T04:06:55Z</time>
      </trkpt>
      <trkpt lat="45.92198" lon="6.4924">
        <ele>1498</ele>
        <time>2021-05-20T04:06:56Z</time>
      </trkpt>
      <trkpt lat="45.92199" lon="6.49241">
        <ele>1498</ele>
        <time>2021-05-20T04:06:57Z</time>
      </trkpt>
      <trkpt lat="45.92199" lon="6.49241">
        <ele>1498</ele>
        <time>2021-05-20T04:06:58Z</time>
      </trkpt>
      <trkpt lat="45.92199" lon="6.49241">
        <ele>1499</ele>
        <time>2021-05-20T04:06:59Z</time>
      </trkpt>
      <trkpt lat="45.92199" lon="6.49246">
        <ele>1499</ele>
        <time>2021-05-20T04:07:00Z</time>
      </trkpt>
      <trkpt lat="45.92199" lon="6.49246">
        <ele>1500</ele>
        <time>2021-05-20T04:07:01Z</time>
      </trkpt>
      <trkpt lat="45.92199" lon="6.49246">
        <ele>1500</ele>
        <time>2021-05-20T04:07:02Z</time>
      </trkpt>
      <trkpt lat="45.92199" lon="6.49246">
        <ele>1500</ele>
        <time>2021-05-20T04:07:03Z</time>
      </trkpt>
      <trkpt lat="45.92199" lon="6.49246">
        <ele>1500</ele>
        <time>2021-05-20T04:07:04Z</time>
      </trkpt>
      <trkpt lat="45.92199" lon="6.49246">
        <ele>1500</ele>
        <time>2021-05-20T04:07:05Z</time>
      </trkpt>
      <trkpt lat="45.92199" lon="6.49251">
        <ele>1501</ele>
        <time>2021-05-20T04:07:06Z</time>
      </trkpt>
      <trkpt lat="45.92199" lon="6.49251">
        <ele>1501</ele>
        <time>2021-05-20T04:07:07Z</time>
      </trkpt>
      <trkpt lat="45.92199" lon="6.49252">
        <ele>1502</ele>
        <time>2021-05-20T04:07:08Z</time>
      </trkpt>
      <trkpt lat="45.92199" lon="6.49254">
        <ele>1502</ele>
        <time>2021-05-20T04:07:09Z</time>
      </trkpt>
      <trkpt lat="45.92199" lon="6.49256">
        <ele>1502</ele>
        <time>2021-05-20T04:07:10Z</time>
      </trkpt>
      <trkpt lat="45.92199" lon="6.49257">
        <ele>1502</ele>
        <time>2021-05-20T04:07:11Z</time>
      </trkpt>
      <trkpt lat="45.92199" lon="6.49259">
        <ele>1502</ele>
        <time>2021-05-20T04:07:12Z</time>
      </trkpt>
      <trkpt lat="45.92199" lon="6.4926">
        <ele>1502</ele>
        <time>2021-05-20T04:07:13Z</time>
      </trkpt>
      <trkpt lat="45.92199" lon="6.49262">
        <ele>1503</ele>
        <time>2021-05-20T04:07:14Z</time>
      </trkpt>
      <trkpt lat="45.92199" lon="6.49264">
        <ele>1503</ele>
        <time>2021-05-20T04:07:15Z</time>
      </trkpt>
      <trkpt lat="45.92199" lon="6.49265">
        <ele>1503</ele>
        <time>2021-05-20T04:07:16Z</time>
      </trkpt>
      <trkpt lat="45.92199" lon="6.49265">
        <ele>1504</ele>
        <time>2021-05-20T04:07:17Z</time>
      </trkpt>
      <trkpt lat="45.92199" lon="6.49266">
        <ele>1505</ele>
        <time>2021-05-20T04:07:18Z</time>
      </trkpt>
      <trkpt lat="45.92199" lon="6.49267">
        <ele>1505</ele>
        <time>2021-05-20T04:07:19Z</time>
      </trkpt>
      <trkpt lat="45.92199" lon="6.49268">
        <ele>1505</ele>
        <time>2021-05-20T04:07:20Z</time>
      </trkpt>
      <trkpt lat="45.92199" lon="6.49269">
        <ele>1505</ele>
        <time>2021-05-20T04:07:21Z</time>
      </trkpt>
      <trkpt lat="45.92199" lon="6.49269">
        <ele>1505</ele>
        <time>2021-05-20T04:07:22Z</time>
      </trkpt>
      <trkpt lat="45.92198" lon="6.49275">
        <ele>1506</ele>
        <time>2021-05-20T04:07:23Z</time>
      </trkpt>
      <trkpt lat="45.92198" lon="6.49275">
        <ele>1506</ele>
        <time>2021-05-20T04:07:24Z</time>
      </trkpt>
      <trkpt lat="45.92198" lon="6.49276">
        <ele>1506</ele>
        <time>2021-05-20T04:07:25Z</time>
      </trkpt>
      <trkpt lat="45.92198" lon="6.49278">
        <ele>1507</ele>
        <time>2021-05-20T04:07:26Z</time>
      </trkpt>
      <trkpt lat="45.92198" lon="6.49279">
        <ele>1507</ele>
        <time>2021-05-20T04:07:27Z</time>
      </trkpt>
      <trkpt lat="45.92197" lon="6.49281">
        <ele>1507</ele>
        <time>2021-05-20T04:07:28Z</time>
      </trkpt>
      <trkpt lat="45.92198" lon="6.49282">
        <ele>1507</ele>
        <time>2021-05-20T04:07:29Z</time>
      </trkpt>
      <trkpt lat="45.92198" lon="6.49284">
        <ele>1507</ele>
        <time>2021-05-20T04:07:30Z</time>
      </trkpt>
      <trkpt lat="45.92198" lon="6.49285">
        <ele>1508</ele>
        <time>2021-05-20T04:07:31Z</time>
      </trkpt>
      <trkpt lat="45.92198" lon="6.49287">
        <ele>1509</ele>
        <time>2021-05-20T04:07:32Z</time>
      </trkpt>
      <trkpt lat="45.92198" lon="6.49287">
        <ele>1509</ele>
        <time>2021-05-20T04:07:33Z</time>
      </trkpt>
      <trkpt lat="45.92198" lon="6.49287">
        <ele>1509</ele>
        <time>2021-05-20T04:07:34Z</time>
      </trkpt>
      <trkpt lat="45.922" lon="6.49292">
        <ele>1509</ele>
        <time>2021-05-20T04:07:35Z</time>
      </trkpt>
      <trkpt lat="45.922" lon="6.49292">
        <ele>1510</ele>
        <time>2021-05-20T04:07:36Z</time>
      </trkpt>
      <trkpt lat="45.92201" lon="6.49293">
        <ele>1510</ele>
        <time>2021-05-20T04:07:37Z</time>
      </trkpt>
      <trkpt lat="45.92201" lon="6.49294">
        <ele>1510</ele>
        <time>2021-05-20T04:07:38Z</time>
      </trkpt>
      <trkpt lat="45.92202" lon="6.49296">
        <ele>1510</ele>
        <time>2021-05-20T04:07:39Z</time>
      </trkpt>
      <trkpt lat="45.92203" lon="6.49297">
        <ele>1510</ele>
        <time>2021-05-20T04:07:40Z</time>
      </trkpt>
      <trkpt lat="45.92204" lon="6.49298">
        <ele>1510</ele>
        <time>2021-05-20T04:07:41Z</time>
      </trkpt>
      <trkpt lat="45.92205" lon="6.49299">
        <ele>1510</ele>
        <time>2021-05-20T04:07:42Z</time>
      </trkpt>
      <trkpt lat="45.92206" lon="6.493">
        <ele>1510</ele>
        <time>2021-05-20T04:07:43Z</time>
      </trkpt>
      <trkpt lat="45.92207" lon="6.49301">
        <ele>1511</ele>
        <time>2021-05-20T04:07:44Z</time>
      </trkpt>
      <trkpt lat="45.92208" lon="6.49302">
        <ele>1511</ele>
        <time>2021-05-20T04:07:45Z</time>
      </trkpt>
      <trkpt lat="45.92209" lon="6.49303">
        <ele>1511</ele>
        <time>2021-05-20T04:07:46Z</time>
      </trkpt>
      <trkpt lat="45.9221" lon="6.49304">
        <ele>1512</ele>
        <time>2021-05-20T04:07:47Z</time>
      </trkpt>
      <trkpt lat="45.9221" lon="6.49305">
        <ele>1512</ele>
        <time>2021-05-20T04:07:48Z</time>
      </trkpt>
      <trkpt lat="45.92211" lon="6.49306">
        <ele>1512</ele>
        <time>2021-05-20T04:07:49Z</time>
      </trkpt>
      <trkpt lat="45.92211" lon="6.49308">
        <ele>1513</ele>
        <time>2021-05-20T04:07:50Z</time>
      </trkpt>
      <trkpt lat="45.92212" lon="6.49309">
        <ele>1513</ele>
        <time>2021-05-20T04:07:51Z</time>
      </trkpt>
      <trkpt lat="45.92212" lon="6.49309">
        <ele>1514</ele>
        <time>2021-05-20T04:07:52Z</time>
      </trkpt>
      <trkpt lat="45.92212" lon="6.49309">
        <ele>1514</ele>
        <time>2021-05-20T04:07:53Z</time>
      </trkpt>
      <trkpt lat="45.92212" lon="6.49309">
        <ele>1514</ele>
        <time>2021-05-20T04:07:54Z</time>
      </trkpt>
      <trkpt lat="45.92214" lon="6.49314">
        <ele>1514</ele>
        <time>2021-05-20T04:07:55Z</time>
      </trkpt>
      <trkpt lat="45.92214" lon="6.49314">
        <ele>1514</ele>
        <time>2021-05-20T04:07:56Z</time>
      </trkpt>
      <trkpt lat="45.92214" lon="6.49316">
        <ele>1515</ele>
        <time>2021-05-20T04:07:57Z</time>
      </trkpt>
      <trkpt lat="45.92214" lon="6.49317">
        <ele>1515</ele>
        <time>2021-05-20T04:07:58Z</time>
      </trkpt>
      <trkpt lat="45.92215" lon="6.49318">
        <ele>1515</ele>
        <time>2021-05-20T04:07:59Z</time>
      </trkpt>
      <trkpt lat="45.92215" lon="6.49319">
        <ele>1515</ele>
        <time>2021-05-20T04:08:00Z</time>
      </trkpt>
      <trkpt lat="45.92215" lon="6.4932">
        <ele>1516</ele>
        <time>2021-05-20T04:08:01Z</time>
      </trkpt>
      <trkpt lat="45.92216" lon="6.49321">
        <ele>1516</ele>
        <time>2021-05-20T04:08:02Z</time>
      </trkpt>
      <trkpt lat="45.92217" lon="6.49323">
        <ele>1516</ele>
        <time>2021-05-20T04:08:03Z</time>
      </trkpt>
      <trkpt lat="45.92218" lon="6.49324">
        <ele>1516</ele>
        <time>2021-05-20T04:08:04Z</time>
      </trkpt>
      <trkpt lat="45.92219" lon="6.49325">
        <ele>1516</ele>
        <time>2021-05-20T04:08:05Z</time>
      </trkpt>
      <trkpt lat="45.92219" lon="6.49325">
        <ele>1516</ele>
        <time>2021-05-20T04:08:06Z</time>
      </trkpt>
      <trkpt lat="45.92219" lon="6.49325">
        <ele>1517</ele>
        <time>2021-05-20T04:08:07Z</time>
      </trkpt>
      <trkpt lat="45.92221" lon="6.49329">
        <ele>1518</ele>
        <time>2021-05-20T04:08:08Z</time>
      </trkpt>
      <trkpt lat="45.92221" lon="6.49329">
        <ele>1519</ele>
        <time>2021-05-20T04:08:09Z</time>
      </trkpt>
      <trkpt lat="45.92221" lon="6.49329">
        <ele>1519</ele>
        <time>2021-05-20T04:08:10Z</time>
      </trkpt>
      <trkpt lat="45.92221" lon="6.49329">
        <ele>1519</ele>
        <time>2021-05-20T04:08:11Z</time>
      </trkpt>
      <trkpt lat="45.92222" lon="6.49334">
        <ele>1519</ele>
        <time>2021-05-20T04:08:12Z</time>
      </trkpt>
      <trkpt lat="45.92222" lon="6.49334">
        <ele>1519</ele>
        <time>2021-05-20T04:08:13Z</time>
      </trkpt>
      <trkpt lat="45.92222" lon="6.49335">
        <ele>1519</ele>
        <time>2021-05-20T04:08:14Z</time>
      </trkpt>
      <trkpt lat="45.92223" lon="6.49336">
        <ele>1519</ele>
        <time>2021-05-20T04:08:15Z</time>
      </trkpt>
      <trkpt lat="45.92223" lon="6.49338">
        <ele>1519</ele>
        <time>2021-05-20T04:08:16Z</time>
      </trkpt>
      <trkpt lat="45.92223" lon="6.49339">
        <ele>1519</ele>
        <time>2021-05-20T04:08:17Z</time>
      </trkpt>
      <trkpt lat="45.92223" lon="6.4934">
        <ele>1519</ele>
        <time>2021-05-20T04:08:18Z</time>
      </trkpt>
      <trkpt lat="45.92223" lon="6.4934">
        <ele>1520</ele>
        <time>2021-05-20T04:08:19Z</time>
      </trkpt>
      <trkpt lat="45.92223" lon="6.49345">
        <ele>1521</ele>
        <time>2021-05-20T04:08:20Z</time>
      </trkpt>
      <trkpt lat="45.92223" lon="6.49345">
        <ele>1521</ele>
        <time>2021-05-20T04:08:21Z</time>
      </trkpt>
      <trkpt lat="45.92223" lon="6.49346">
        <ele>1521</ele>
        <time>2021-05-20T04:08:22Z</time>
      </trkpt>
      <trkpt lat="45.92223" lon="6.49348">
        <ele>1521</ele>
        <time>2021-05-20T04:08:23Z</time>
      </trkpt>
      <trkpt lat="45.92223" lon="6.4935">
        <ele>1521</ele>
        <time>2021-05-20T04:08:24Z</time>
      </trkpt>
      <trkpt lat="45.92223" lon="6.49351">
        <ele>1522</ele>
        <time>2021-05-20T04:08:25Z</time>
      </trkpt>
      <trkpt lat="45.92223" lon="6.49353">
        <ele>1523</ele>
        <time>2021-05-20T04:08:26Z</time>
      </trkpt>
      <trkpt lat="45.92223" lon="6.49354">
        <ele>1523</ele>
        <time>2021-05-20T04:08:27Z</time>
      </trkpt>
      <trkpt lat="45.92223" lon="6.49356">
        <ele>1523</ele>
        <time>2021-05-20T04:08:28Z</time>
      </trkpt>
      <trkpt lat="45.92223" lon="6.49357">
        <ele>1523</ele>
        <time>2021-05-20T04:08:29Z</time>
      </trkpt>
      <trkpt lat="45.92223" lon="6.49358">
        <ele>1524</ele>
        <time>2021-05-20T04:08:30Z</time>
      </trkpt>
      <trkpt lat="45.92223" lon="6.4936">
        <ele>1524</ele>
        <time>2021-05-20T04:08:31Z</time>
      </trkpt>
      <trkpt lat="45.92223" lon="6.49361">
        <ele>1524</ele>
        <time>2021-05-20T04:08:32Z</time>
      </trkpt>
      <trkpt lat="45.92223" lon="6.49362">
        <ele>1524</ele>
        <time>2021-05-20T04:08:33Z</time>
      </trkpt>
      <trkpt lat="45.92223" lon="6.49362">
        <ele>1525</ele>
        <time>2021-05-20T04:08:34Z</time>
      </trkpt>
      <trkpt lat="45.92223" lon="6.49362">
        <ele>1525</ele>
        <time>2021-05-20T04:08:35Z</time>
      </trkpt>
      <trkpt lat="45.92224" lon="6.49368">
        <ele>1526</ele>
        <time>2021-05-20T04:08:36Z</time>
      </trkpt>
      <trkpt lat="45.92224" lon="6.49368">
        <ele>1526</ele>
        <time>2021-05-20T04:08:37Z</time>
      </trkpt>
      <trkpt lat="45.92225" lon="6.49369">
        <ele>1526</ele>
        <time>2021-05-20T04:08:38Z</time>
      </trkpt>
      <trkpt lat="45.92226" lon="6.49371">
        <ele>1526</ele>
        <time>2021-05-20T04:08:39Z</time>
      </trkpt>
      <trkpt lat="45.92227" lon="6.49372">
        <ele>1526</ele>
        <time>2021-05-20T04:08:40Z</time>
      </trkpt>
      <trkpt lat="45.92227" lon="6.49373">
        <ele>1526</ele>
        <time>2021-05-20T04:08:41Z</time>
      </trkpt>
      <trkpt lat="45.92228" lon="6.49375">
        <ele>1526</ele>
        <time>2021-05-20T04:08:42Z</time>
      </trkpt>
      <trkpt lat="45.92228" lon="6.49376">
        <ele>1526</ele>
        <time>2021-05-20T04:08:43Z</time>
      </trkpt>
      <trkpt lat="45.92228" lon="6.49377">
        <ele>1527</ele>
        <time>2021-05-20T04:08:44Z</time>
      </trkpt>
      <trkpt lat="45.92229" lon="6.49379">
        <ele>1527</ele>
        <time>2021-05-20T04:08:45Z</time>
      </trkpt>
      <trkpt lat="45.92229" lon="6.49379">
        <ele>1527</ele>
        <time>2021-05-20T04:08:46Z</time>
      </trkpt>
      <trkpt lat="45.92229" lon="6.49379">
        <ele>1527</ele>
        <time>2021-05-20T04:08:47Z</time>
      </trkpt>
      <trkpt lat="45.92229" lon="6.49379">
        <ele>1527</ele>
        <time>2021-05-20T04:08:48Z</time>
      </trkpt>
      <trkpt lat="45.92228" lon="6.49385">
        <ele>1527</ele>
        <time>2021-05-20T04:08:49Z</time>
      </trkpt>
      <trkpt lat="45.92228" lon="6.49385">
        <ele>1528</ele>
        <time>2021-05-20T04:08:50Z</time>
      </trkpt>
      <trkpt lat="45.92228" lon="6.49386">
        <ele>1528</ele>
        <time>2021-05-20T04:08:51Z</time>
      </trkpt>
      <trkpt lat="45.92228" lon="6.49387">
        <ele>1529</ele>
        <time>2021-05-20T04:08:52Z</time>
      </trkpt>
      <trkpt lat="45.92227" lon="6.49388">
        <ele>1529</ele>
        <time>2021-05-20T04:08:53Z</time>
      </trkpt>
      <trkpt lat="45.92227" lon="6.4939">
        <ele>1529</ele>
        <time>2021-05-20T04:08:54Z</time>
      </trkpt>
      <trkpt lat="45.92227" lon="6.4939">
        <ele>1529</ele>
        <time>2021-05-20T04:08:55Z</time>
      </trkpt>
      <trkpt lat="45.92227" lon="6.4939">
        <ele>1529</ele>
        <time>2021-05-20T04:08:56Z</time>
      </trkpt>
      <trkpt lat="45.92227" lon="6.4939">
        <ele>1529</ele>
        <time>2021-05-20T04:08:57Z</time>
      </trkpt>
      <trkpt lat="45.92228" lon="6.49396">
        <ele>1530</ele>
        <time>2021-05-20T04:08:58Z</time>
      </trkpt>
      <trkpt lat="45.92228" lon="6.49396">
        <ele>1530</ele>
        <time>2021-05-20T04:08:59Z</time>
      </trkpt>
      <trkpt lat="45.92228" lon="6.49397">
        <ele>1531</ele>
        <time>2021-05-20T04:09:00Z</time>
      </trkpt>
      <trkpt lat="45.92228" lon="6.49398">
        <ele>1531</ele>
        <time>2021-05-20T04:09:01Z</time>
      </trkpt>
      <trkpt lat="45.92229" lon="6.49399">
        <ele>1531</ele>
        <time>2021-05-20T04:09:02Z</time>
      </trkpt>
      <trkpt lat="45.92229" lon="6.494">
        <ele>1532</ele>
        <time>2021-05-20T04:09:03Z</time>
      </trkpt>
      <trkpt lat="45.92229" lon="6.49402">
        <ele>1532</ele>
        <time>2021-05-20T04:09:04Z</time>
      </trkpt>
      <trkpt lat="45.92229" lon="6.49402">
        <ele>1532</ele>
        <time>2021-05-20T04:09:05Z</time>
      </trkpt>
      <trkpt lat="45.92229" lon="6.49402">
        <ele>1532</ele>
        <time>2021-05-20T04:09:06Z</time>
      </trkpt>
      <trkpt lat="45.92229" lon="6.49407">
        <ele>1532</ele>
        <time>2021-05-20T04:09:07Z</time>
      </trkpt>
      <trkpt lat="45.92229" lon="6.49407">
        <ele>1533</ele>
        <time>2021-05-20T04:09:08Z</time>
      </trkpt>
      <trkpt lat="45.92229" lon="6.49408">
        <ele>1534</ele>
        <time>2021-05-20T04:09:09Z</time>
      </trkpt>
      <trkpt lat="45.9223" lon="6.49409">
        <ele>1534</ele>
        <time>2021-05-20T04:09:10Z</time>
      </trkpt>
      <trkpt lat="45.9223" lon="6.49411">
        <ele>1534</ele>
        <time>2021-05-20T04:09:11Z</time>
      </trkpt>
      <trkpt lat="45.9223" lon="6.49412">
        <ele>1534</ele>
        <time>2021-05-20T04:09:12Z</time>
      </trkpt>
      <trkpt lat="45.9223" lon="6.49413">
        <ele>1535</ele>
        <time>2021-05-20T04:09:13Z</time>
      </trkpt>
      <trkpt lat="45.9223" lon="6.49413">
        <ele>1535</ele>
        <time>2021-05-20T04:09:14Z</time>
      </trkpt>
      <trkpt lat="45.9223" lon="6.49413">
        <ele>1535</ele>
        <time>2021-05-20T04:09:15Z</time>
      </trkpt>
      <trkpt lat="45.9223" lon="6.49418">
        <ele>1535</ele>
        <time>2021-05-20T04:09:16Z</time>
      </trkpt>
      <trkpt lat="45.9223" lon="6.49418">
        <ele>1536</ele>
        <time>2021-05-20T04:09:17Z</time>
      </trkpt>
      <trkpt lat="45.92231" lon="6.49419">
        <ele>1537</ele>
        <time>2021-05-20T04:09:18Z</time>
      </trkpt>
      <trkpt lat="45.92231" lon="6.4942">
        <ele>1537</ele>
        <time>2021-05-20T04:09:19Z</time>
      </trkpt>
      <trkpt lat="45.92231" lon="6.49421">
        <ele>1537</ele>
        <time>2021-05-20T04:09:20Z</time>
      </trkpt>
      <trkpt lat="45.92232" lon="6.49422">
        <ele>1537</ele>
        <time>2021-05-20T04:09:21Z</time>
      </trkpt>
      <trkpt lat="45.92232" lon="6.49423">
        <ele>1537</ele>
        <time>2021-05-20T04:09:22Z</time>
      </trkpt>
      <trkpt lat="45.92232" lon="6.49425">
        <ele>1538</ele>
        <time>2021-05-20T04:09:23Z</time>
      </trkpt>
      <trkpt lat="45.92233" lon="6.49426">
        <ele>1538</ele>
        <time>2021-05-20T04:09:24Z</time>
      </trkpt>
      <trkpt lat="45.92233" lon="6.49427">
        <ele>1538</ele>
        <time>2021-05-20T04:09:25Z</time>
      </trkpt>
      <trkpt lat="45.92233" lon="6.49429">
        <ele>1539</ele>
        <time>2021-05-20T04:09:26Z</time>
      </trkpt>
      <trkpt lat="45.92233" lon="6.49429">
        <ele>1539</ele>
        <time>2021-05-20T04:09:27Z</time>
      </trkpt>
      <trkpt lat="45.92233" lon="6.49429">
        <ele>1539</ele>
        <time>2021-05-20T04:09:28Z</time>
      </trkpt>
      <trkpt lat="45.92236" lon="6.49433">
        <ele>1539</ele>
        <time>2021-05-20T04:09:29Z</time>
      </trkpt>
      <trkpt lat="45.92236" lon="6.49433">
        <ele>1540</ele>
        <time>2021-05-20T04:09:30Z</time>
      </trkpt>
      <trkpt lat="45.92236" lon="6.49433">
        <ele>1540</ele>
        <time>2021-05-20T04:09:31Z</time>
      </trkpt>
      <trkpt lat="45.92236" lon="6.49433">
        <ele>1540</ele>
        <time>2021-05-20T04:09:32Z</time>
      </trkpt>
      <trkpt lat="45.92236" lon="6.49433">
        <ele>1540</ele>
        <time>2021-05-20T04:09:33Z</time>
      </trkpt>
      <trkpt lat="45.92238" lon="6.49438">
        <ele>1540</ele>
        <time>2021-05-20T04:09:34Z</time>
      </trkpt>
      <trkpt lat="45.92238" lon="6.49438">
        <ele>1541</ele>
        <time>2021-05-20T04:09:35Z</time>
      </trkpt>
      <trkpt lat="45.92238" lon="6.49439">
        <ele>1541</ele>
        <time>2021-05-20T04:09:36Z</time>
      </trkpt>
      <trkpt lat="45.92238" lon="6.4944">
        <ele>1542</ele>
        <time>2021-05-20T04:09:37Z</time>
      </trkpt>
      <trkpt lat="45.92238" lon="6.49441">
        <ele>1542</ele>
        <time>2021-05-20T04:09:38Z</time>
      </trkpt>
      <trkpt lat="45.92238" lon="6.49442">
        <ele>1543</ele>
        <time>2021-05-20T04:09:39Z</time>
      </trkpt>
      <trkpt lat="45.92238" lon="6.49443">
        <ele>1543</ele>
        <time>2021-05-20T04:09:40Z</time>
      </trkpt>
      <trkpt lat="45.92239" lon="6.49444">
        <ele>1543</ele>
        <time>2021-05-20T04:09:41Z</time>
      </trkpt>
      <trkpt lat="45.92239" lon="6.49444">
        <ele>1544</ele>
        <time>2021-05-20T04:09:42Z</time>
      </trkpt>
      <trkpt lat="45.9224" lon="6.49445">
        <ele>1544</ele>
        <time>2021-05-20T04:09:43Z</time>
      </trkpt>
      <trkpt lat="45.9224" lon="6.49446">
        <ele>1544</ele>
        <time>2021-05-20T04:09:44Z</time>
      </trkpt>
      <trkpt lat="45.92241" lon="6.49446">
        <ele>1544</ele>
        <time>2021-05-20T04:09:45Z</time>
      </trkpt>
      <trkpt lat="45.92241" lon="6.49447">
        <ele>1545</ele>
        <time>2021-05-20T04:09:46Z</time>
      </trkpt>
      <trkpt lat="45.92241" lon="6.49447">
        <ele>1545</ele>
        <time>2021-05-20T04:09:47Z</time>
      </trkpt>
      <trkpt lat="45.92241" lon="6.49447">
        <ele>1545</ele>
        <time>2021-05-20T04:09:48Z</time>
      </trkpt>
      <trkpt lat="45.92241" lon="6.49447">
        <ele>1545</ele>
        <time>2021-05-20T04:09:49Z</time>
      </trkpt>
      <trkpt lat="45.92243" lon="6.49452">
        <ele>1545</ele>
        <time>2021-05-20T04:09:50Z</time>
      </trkpt>
      <trkpt lat="45.92243" lon="6.49452">
        <ele>1546</ele>
        <time>2021-05-20T04:09:51Z</time>
      </trkpt>
      <trkpt lat="45.92243" lon="6.49452">
        <ele>1546</ele>
        <time>2021-05-20T04:09:52Z</time>
      </trkpt>
      <trkpt lat="45.92243" lon="6.49452">
        <ele>1546</ele>
        <time>2021-05-20T04:09:53Z</time>
      </trkpt>
      <trkpt lat="45.92244" lon="6.49457">
        <ele>1547</ele>
        <time>2021-05-20T04:09:54Z</time>
      </trkpt>
      <trkpt lat="45.92244" lon="6.49457">
        <ele>1547</ele>
        <time>2021-05-20T04:09:55Z</time>
      </trkpt>
      <trkpt lat="45.92244" lon="6.49457">
        <ele>1547</ele>
        <time>2021-05-20T04:09:56Z</time>
      </trkpt>
      <trkpt lat="45.92244" lon="6.49457">
        <ele>1548</ele>
        <time>2021-05-20T04:09:57Z</time>
      </trkpt>
      <trkpt lat="45.92244" lon="6.49457">
        <ele>1548</ele>
        <time>2021-05-20T04:09:58Z</time>
      </trkpt>
      <trkpt lat="45.92243" lon="6.49462">
        <ele>1549</ele>
        <time>2021-05-20T04:09:59Z</time>
      </trkpt>
      <trkpt lat="45.92243" lon="6.49462">
        <ele>1549</ele>
        <time>2021-05-20T04:10:00Z</time>
      </trkpt>
      <trkpt lat="45.92243" lon="6.49463">
        <ele>1549</ele>
        <time>2021-05-20T04:10:01Z</time>
      </trkpt>
      <trkpt lat="45.92243" lon="6.49464">
        <ele>1549</ele>
        <time>2021-05-20T04:10:02Z</time>
      </trkpt>
      <trkpt lat="45.92243" lon="6.49465">
        <ele>1549</ele>
        <time>2021-05-20T04:10:03Z</time>
      </trkpt>
      <trkpt lat="45.92243" lon="6.49466">
        <ele>1550</ele>
        <time>2021-05-20T04:10:04Z</time>
      </trkpt>
      <trkpt lat="45.92243" lon="6.49467">
        <ele>1550</ele>
        <time>2021-05-20T04:10:05Z</time>
      </trkpt>
      <trkpt lat="45.92243" lon="6.49467">
        <ele>1551</ele>
        <time>2021-05-20T04:10:06Z</time>
      </trkpt>
      <trkpt lat="45.92243" lon="6.49467">
        <ele>1551</ele>
        <time>2021-05-20T04:10:07Z</time>
      </trkpt>
      <trkpt lat="45.92243" lon="6.49467">
        <ele>1551</ele>
        <time>2021-05-20T04:10:08Z</time>
      </trkpt>
      <trkpt lat="45.92243" lon="6.49473">
        <ele>1552</ele>
        <time>2021-05-20T04:10:09Z</time>
      </trkpt>
      <trkpt lat="45.92243" lon="6.49473">
        <ele>1552</ele>
        <time>2021-05-20T04:10:10Z</time>
      </trkpt>
      <trkpt lat="45.92243" lon="6.49474">
        <ele>1552</ele>
        <time>2021-05-20T04:10:11Z</time>
      </trkpt>
      <trkpt lat="45.92243" lon="6.49475">
        <ele>1552</ele>
        <time>2021-05-20T04:10:12Z</time>
      </trkpt>
      <trkpt lat="45.92243" lon="6.49476">
        <ele>1552</ele>
        <time>2021-05-20T04:10:13Z</time>
      </trkpt>
      <trkpt lat="45.92243" lon="6.49477">
        <ele>1553</ele>
        <time>2021-05-20T04:10:14Z</time>
      </trkpt>
      <trkpt lat="45.92243" lon="6.49478">
        <ele>1554</ele>
        <time>2021-05-20T04:10:15Z</time>
      </trkpt>
      <trkpt lat="45.92243" lon="6.49478">
        <ele>1554</ele>
        <time>2021-05-20T04:10:16Z</time>
      </trkpt>
      <trkpt lat="45.92243" lon="6.49478">
        <ele>1554</ele>
        <time>2021-05-20T04:10:17Z</time>
      </trkpt>
      <trkpt lat="45.92243" lon="6.49478">
        <ele>1555</ele>
        <time>2021-05-20T04:10:18Z</time>
      </trkpt>
      <trkpt lat="45.92243" lon="6.49484">
        <ele>1555</ele>
        <time>2021-05-20T04:10:19Z</time>
      </trkpt>
      <trkpt lat="45.92243" lon="6.49484">
        <ele>1555</ele>
        <time>2021-05-20T04:10:20Z</time>
      </trkpt>
      <trkpt lat="45.92242" lon="6.49484">
        <ele>1555</ele>
        <time>2021-05-20T04:10:21Z</time>
      </trkpt>
      <trkpt lat="45.92242" lon="6.49485">
        <ele>1556</ele>
        <time>2021-05-20T04:10:22Z</time>
      </trkpt>
      <trkpt lat="45.92242" lon="6.49486">
        <ele>1556</ele>
        <time>2021-05-20T04:10:23Z</time>
      </trkpt>
      <trkpt lat="45.92242" lon="6.49487">
        <ele>1556</ele>
        <time>2021-05-20T04:10:24Z</time>
      </trkpt>
      <trkpt lat="45.92242" lon="6.49487">
        <ele>1557</ele>
        <time>2021-05-20T04:10:25Z</time>
      </trkpt>
      <trkpt lat="45.92241" lon="6.49488">
        <ele>1557</ele>
        <time>2021-05-20T04:10:26Z</time>
      </trkpt>
      <trkpt lat="45.92241" lon="6.49488">
        <ele>1558</ele>
        <time>2021-05-20T04:10:27Z</time>
      </trkpt>
      <trkpt lat="45.92241" lon="6.49488">
        <ele>1558</ele>
        <time>2021-05-20T04:10:28Z</time>
      </trkpt>
      <trkpt lat="45.92241" lon="6.49488">
        <ele>1558</ele>
        <time>2021-05-20T04:10:29Z</time>
      </trkpt>
      <trkpt lat="45.92241" lon="6.49488">
        <ele>1559</ele>
        <time>2021-05-20T04:10:30Z</time>
      </trkpt>
      <trkpt lat="45.92239" lon="6.49493">
        <ele>1559</ele>
        <time>2021-05-20T04:10:31Z</time>
      </trkpt>
      <trkpt lat="45.92239" lon="6.49493">
        <ele>1559</ele>
        <time>2021-05-20T04:10:32Z</time>
      </trkpt>
      <trkpt lat="45.92239" lon="6.49494">
        <ele>1559</ele>
        <time>2021-05-20T04:10:33Z</time>
      </trkpt>
      <trkpt lat="45.92239" lon="6.49494">
        <ele>1560</ele>
        <time>2021-05-20T04:10:34Z</time>
      </trkpt>
      <trkpt lat="45.92239" lon="6.49495">
        <ele>1560</ele>
        <time>2021-05-20T04:10:35Z</time>
      </trkpt>
      <trkpt lat="45.92239" lon="6.49496">
        <ele>1560</ele>
        <time>2021-05-20T04:10:36Z</time>
      </trkpt>
      <trkpt lat="45.92238" lon="6.49497">
        <ele>1560</ele>
        <time>2021-05-20T04:10:37Z</time>
      </trkpt>
      <trkpt lat="45.92238" lon="6.49498">
        <ele>1561</ele>
        <time>2021-05-20T04:10:38Z</time>
      </trkpt>
      <trkpt lat="45.92238" lon="6.49498">
        <ele>1561</ele>
        <time>2021-05-20T04:10:39Z</time>
      </trkpt>
      <trkpt lat="45.92238" lon="6.49498">
        <ele>1562</ele>
        <time>2021-05-20T04:10:40Z</time>
      </trkpt>
      <trkpt lat="45.92238" lon="6.49498">
        <ele>1562</ele>
        <time>2021-05-20T04:10:41Z</time>
      </trkpt>
      <trkpt lat="45.92238" lon="6.49502">
        <ele>1562</ele>
        <time>2021-05-20T04:10:42Z</time>
      </trkpt>
      <trkpt lat="45.92238" lon="6.49502">
        <ele>1563</ele>
        <time>2021-05-20T04:10:43Z</time>
      </trkpt>
      <trkpt lat="45.92238" lon="6.49502">
        <ele>1563</ele>
        <time>2021-05-20T04:10:44Z</time>
      </trkpt>
      <trkpt lat="45.92238" lon="6.49502">
        <ele>1563</ele>
        <time>2021-05-20T04:10:45Z</time>
      </trkpt>
      <trkpt lat="45.92238" lon="6.49502">
        <ele>1563</ele>
        <time>2021-05-20T04:10:46Z</time>
      </trkpt>
      <trkpt lat="45.92238" lon="6.49502">
        <ele>1563</ele>
        <time>2021-05-20T04:10:47Z</time>
      </trkpt>
      <trkpt lat="45.92238" lon="6.49502">
        <ele>1564</ele>
        <time>2021-05-20T04:10:48Z</time>
      </trkpt>
      <trkpt lat="45.92239" lon="6.49507">
        <ele>1564</ele>
        <time>2021-05-20T04:10:49Z</time>
      </trkpt>
      <trkpt lat="45.92239" lon="6.49507">
        <ele>1564</ele>
        <time>2021-05-20T04:10:50Z</time>
      </trkpt>
      <trkpt lat="45.92239" lon="6.49507">
        <ele>1564</ele>
        <time>2021-05-20T04:10:51Z</time>
      </trkpt>
      <trkpt lat="45.92239" lon="6.49507">
        <ele>1564</ele>
        <time>2021-05-20T04:10:52Z</time>
      </trkpt>
      <trkpt lat="45.92243" lon="6.49509">
        <ele>1565</ele>
        <time>2021-05-20T04:10:53Z</time>
      </trkpt>
      <trkpt lat="45.92243" lon="6.49509">
        <ele>1566</ele>
        <time>2021-05-20T04:10:54Z</time>
      </trkpt>
      <trkpt lat="45.92244" lon="6.4951">
        <ele>1566</ele>
        <time>2021-05-20T04:10:55Z</time>
      </trkpt>
      <trkpt lat="45.92245" lon="6.49511">
        <ele>1566</ele>
        <time>2021-05-20T04:10:56Z</time>
      </trkpt>
      <trkpt lat="45.92245" lon="6.49511">
        <ele>1566</ele>
        <time>2021-05-20T04:10:57Z</time>
      </trkpt>
      <trkpt lat="45.92246" lon="6.49512">
        <ele>1566</ele>
        <time>2021-05-20T04:10:58Z</time>
      </trkpt>
      <trkpt lat="45.92246" lon="6.49512">
        <ele>1567</ele>
        <time>2021-05-20T04:10:59Z</time>
      </trkpt>
      <trkpt lat="45.92246" lon="6.49512">
        <ele>1567</ele>
        <time>2021-05-20T04:11:00Z</time>
      </trkpt>
      <trkpt lat="45.92246" lon="6.49512">
        <ele>1568</ele>
        <time>2021-05-20T04:11:01Z</time>
      </trkpt>
      <trkpt lat="45.92247" lon="6.49518">
        <ele>1568</ele>
        <time>2021-05-20T04:11:02Z</time>
      </trkpt>
      <trkpt lat="45.92247" lon="6.49518">
        <ele>1569</ele>
        <time>2021-05-20T04:11:03Z</time>
      </trkpt>
      <trkpt lat="45.92247" lon="6.49519">
        <ele>1570</ele>
        <time>2021-05-20T04:11:04Z</time>
      </trkpt>
      <trkpt lat="45.92247" lon="6.4952">
        <ele>1570</ele>
        <time>2021-05-20T04:11:05Z</time>
      </trkpt>
      <trkpt lat="45.92247" lon="6.49521">
        <ele>1570</ele>
        <time>2021-05-20T04:11:06Z</time>
      </trkpt>
      <trkpt lat="45.92247" lon="6.49522">
        <ele>1570</ele>
        <time>2021-05-20T04:11:07Z</time>
      </trkpt>
      <trkpt lat="45.92246" lon="6.49523">
        <ele>1570</ele>
        <time>2021-05-20T04:11:08Z</time>
      </trkpt>
      <trkpt lat="45.92246" lon="6.49523">
        <ele>1570</ele>
        <time>2021-05-20T04:11:09Z</time>
      </trkpt>
      <trkpt lat="45.92246" lon="6.49523">
        <ele>1571</ele>
        <time>2021-05-20T04:11:10Z</time>
      </trkpt>
      <trkpt lat="45.92246" lon="6.49523">
        <ele>1571</ele>
        <time>2021-05-20T04:11:11Z</time>
      </trkpt>
      <trkpt lat="45.92246" lon="6.49528">
        <ele>1572</ele>
        <time>2021-05-20T04:11:12Z</time>
      </trkpt>
      <trkpt lat="45.92246" lon="6.49528">
        <ele>1572</ele>
        <time>2021-05-20T04:11:13Z</time>
      </trkpt>
      <trkpt lat="45.92246" lon="6.49528">
        <ele>1572</ele>
        <time>2021-05-20T04:11:14Z</time>
      </trkpt>
      <trkpt lat="45.92246" lon="6.49528">
        <ele>1573</ele>
        <time>2021-05-20T04:11:15Z</time>
      </trkpt>
      <trkpt lat="45.92246" lon="6.49528">
        <ele>1573</ele>
        <time>2021-05-20T04:11:16Z</time>
      </trkpt>
      <trkpt lat="45.92246" lon="6.49528">
        <ele>1573</ele>
        <time>2021-05-20T04:11:17Z</time>
      </trkpt>
      <trkpt lat="45.92246" lon="6.49533">
        <ele>1573</ele>
        <time>2021-05-20T04:11:18Z</time>
      </trkpt>
      <trkpt lat="45.92246" lon="6.49533">
        <ele>1573</ele>
        <time>2021-05-20T04:11:19Z</time>
      </trkpt>
      <trkpt lat="45.92247" lon="6.49533">
        <ele>1574</ele>
        <time>2021-05-20T04:11:20Z</time>
      </trkpt>
      <trkpt lat="45.92248" lon="6.49533">
        <ele>1574</ele>
        <time>2021-05-20T04:11:21Z</time>
      </trkpt>
      <trkpt lat="45.92249" lon="6.49534">
        <ele>1574</ele>
        <time>2021-05-20T04:11:22Z</time>
      </trkpt>
      <trkpt lat="45.9225" lon="6.49534">
        <ele>1574</ele>
        <time>2021-05-20T04:11:23Z</time>
      </trkpt>
      <trkpt lat="45.9225" lon="6.49534">
        <ele>1575</ele>
        <time>2021-05-20T04:11:24Z</time>
      </trkpt>
      <trkpt lat="45.9225" lon="6.49534">
        <ele>1575</ele>
        <time>2021-05-20T04:11:25Z</time>
      </trkpt>
      <trkpt lat="45.9225" lon="6.49534">
        <ele>1575</ele>
        <time>2021-05-20T04:11:26Z</time>
      </trkpt>
      <trkpt lat="45.9225" lon="6.49539">
        <ele>1575</ele>
        <time>2021-05-20T04:11:27Z</time>
      </trkpt>
      <trkpt lat="45.9225" lon="6.49539">
        <ele>1575</ele>
        <time>2021-05-20T04:11:28Z</time>
      </trkpt>
      <trkpt lat="45.9225" lon="6.49539">
        <ele>1576</ele>
        <time>2021-05-20T04:11:29Z</time>
      </trkpt>
      <trkpt lat="45.9225" lon="6.49539">
        <ele>1576</ele>
        <time>2021-05-20T04:11:30Z</time>
      </trkpt>
      <trkpt lat="45.9225" lon="6.49539">
        <ele>1576</ele>
        <time>2021-05-20T04:11:31Z</time>
      </trkpt>
      <trkpt lat="45.9225" lon="6.49539">
        <ele>1576</ele>
        <time>2021-05-20T04:11:32Z</time>
      </trkpt>
      <trkpt lat="45.92249" lon="6.49544">
        <ele>1577</ele>
        <time>2021-05-20T04:11:33Z</time>
      </trkpt>
      <trkpt lat="45.92249" lon="6.49544">
        <ele>1577</ele>
        <time>2021-05-20T04:11:34Z</time>
      </trkpt>
      <trkpt lat="45.92249" lon="6.49545">
        <ele>1578</ele>
        <time>2021-05-20T04:11:35Z</time>
      </trkpt>
      <trkpt lat="45.92249" lon="6.49545">
        <ele>1578</ele>
        <time>2021-05-20T04:11:36Z</time>
      </trkpt>
      <trkpt lat="45.9225" lon="6.49546">
        <ele>1578</ele>
        <time>2021-05-20T04:11:37Z</time>
      </trkpt>
      <trkpt lat="45.9225" lon="6.49547">
        <ele>1579</ele>
        <time>2021-05-20T04:11:38Z</time>
      </trkpt>
      <trkpt lat="45.9225" lon="6.49548">
        <ele>1579</ele>
        <time>2021-05-20T04:11:39Z</time>
      </trkpt>
      <trkpt lat="45.9225" lon="6.49549">
        <ele>1579</ele>
        <time>2021-05-20T04:11:40Z</time>
      </trkpt>
      <trkpt lat="45.9225" lon="6.49549">
        <ele>1579</ele>
        <time>2021-05-20T04:11:41Z</time>
      </trkpt>
      <trkpt lat="45.9225" lon="6.49549">
        <ele>1580</ele>
        <time>2021-05-20T04:11:42Z</time>
      </trkpt>
      <trkpt lat="45.92254" lon="6.49551">
        <ele>1580</ele>
        <time>2021-05-20T04:11:43Z</time>
      </trkpt>
      <trkpt lat="45.92254" lon="6.49551">
        <ele>1580</ele>
        <time>2021-05-20T04:11:44Z</time>
      </trkpt>
      <trkpt lat="45.92254" lon="6.49551">
        <ele>1580</ele>
        <time>2021-05-20T04:11:45Z</time>
      </trkpt>
      <trkpt lat="45.92254" lon="6.49551">
        <ele>1581</ele>
        <time>2021-05-20T04:11:46Z</time>
      </trkpt>
      <trkpt lat="45.92254" lon="6.49551">
        <ele>1581</ele>
        <time>2021-05-20T04:11:47Z</time>
      </trkpt>
      <trkpt lat="45.92256" lon="6.49555">
        <ele>1582</ele>
        <time>2021-05-20T04:11:48Z</time>
      </trkpt>
      <trkpt lat="45.92256" lon="6.49555">
        <ele>1582</ele>
        <time>2021-05-20T04:11:49Z</time>
      </trkpt>
      <trkpt lat="45.92256" lon="6.49556">
        <ele>1582</ele>
        <time>2021-05-20T04:11:50Z</time>
      </trkpt>
      <trkpt lat="45.92256" lon="6.49557">
        <ele>1582</ele>
        <time>2021-05-20T04:11:51Z</time>
      </trkpt>
      <trkpt lat="45.92256" lon="6.49558">
        <ele>1582</ele>
        <time>2021-05-20T04:11:52Z</time>
      </trkpt>
      <trkpt lat="45.92256" lon="6.49559">
        <ele>1583</ele>
        <time>2021-05-20T04:11:53Z</time>
      </trkpt>
      <trkpt lat="45.92256" lon="6.4956">
        <ele>1583</ele>
        <time>2021-05-20T04:11:54Z</time>
      </trkpt>
      <trkpt lat="45.92256" lon="6.4956">
        <ele>1583</ele>
        <time>2021-05-20T04:11:55Z</time>
      </trkpt>
      <trkpt lat="45.92256" lon="6.4956">
        <ele>1583</ele>
        <time>2021-05-20T04:11:56Z</time>
      </trkpt>
      <trkpt lat="45.92256" lon="6.4956">
        <ele>1583</ele>
        <time>2021-05-20T04:11:57Z</time>
      </trkpt>
      <trkpt lat="45.92253" lon="6.49564">
        <ele>1583</ele>
        <time>2021-05-20T04:11:58Z</time>
      </trkpt>
      <trkpt lat="45.92253" lon="6.49564">
        <ele>1583</ele>
        <time>2021-05-20T04:11:59Z</time>
      </trkpt>
      <trkpt lat="45.92253" lon="6.49564">
        <ele>1584</ele>
        <time>2021-05-20T04:12:00Z</time>
      </trkpt>
      <trkpt lat="45.92253" lon="6.49564">
        <ele>1584</ele>
        <time>2021-05-20T04:12:01Z</time>
      </trkpt>
      <trkpt lat="45.92253" lon="6.49564">
        <ele>1584</ele>
        <time>2021-05-20T04:12:02Z</time>
      </trkpt>
      <trkpt lat="45.92253" lon="6.49564">
        <ele>1585</ele>
        <time>2021-05-20T04:12:03Z</time>
      </trkpt>
      <trkpt lat="45.92253" lon="6.49564">
        <ele>1585</ele>
        <time>2021-05-20T04:12:04Z</time>
      </trkpt>
      <trkpt lat="45.92253" lon="6.49569">
        <ele>1585</ele>
        <time>2021-05-20T04:12:05Z</time>
      </trkpt>
      <trkpt lat="45.92253" lon="6.49569">
        <ele>1585</ele>
        <time>2021-05-20T04:12:06Z</time>
      </trkpt>
      <trkpt lat="45.92253" lon="6.4957">
        <ele>1585</ele>
        <time>2021-05-20T04:12:07Z</time>
      </trkpt>
      <trkpt lat="45.92254" lon="6.4957">
        <ele>1586</ele>
        <time>2021-05-20T04:12:08Z</time>
      </trkpt>
      <trkpt lat="45.92254" lon="6.49571">
        <ele>1586</ele>
        <time>2021-05-20T04:12:09Z</time>
      </trkpt>
      <trkpt lat="45.92255" lon="6.49572">
        <ele>1586</ele>
        <time>2021-05-20T04:12:10Z</time>
      </trkpt>
      <trkpt lat="45.92255" lon="6.49573">
        <ele>1587</ele>
        <time>2021-05-20T04:12:11Z</time>
      </trkpt>
      <trkpt lat="45.92255" lon="6.49574">
        <ele>1587</ele>
        <time>2021-05-20T04:12:12Z</time>
      </trkpt>
      <trkpt lat="45.92255" lon="6.49575">
        <ele>1587</ele>
        <time>2021-05-20T04:12:13Z</time>
      </trkpt>
      <trkpt lat="45.92255" lon="6.49576">
        <ele>1587</ele>
        <time>2021-05-20T04:12:14Z</time>
      </trkpt>
      <trkpt lat="45.92255" lon="6.49576">
        <ele>1587</ele>
        <time>2021-05-20T04:12:15Z</time>
      </trkpt>
      <trkpt lat="45.92255" lon="6.49577">
        <ele>1588</ele>
        <time>2021-05-20T04:12:16Z</time>
      </trkpt>
      <trkpt lat="45.92254" lon="6.49578">
        <ele>1588</ele>
        <time>2021-05-20T04:12:17Z</time>
      </trkpt>
      <trkpt lat="45.92254" lon="6.49578">
        <ele>1588</ele>
        <time>2021-05-20T04:12:18Z</time>
      </trkpt>
      <trkpt lat="45.92254" lon="6.49578">
        <ele>1588</ele>
        <time>2021-05-20T04:12:19Z</time>
      </trkpt>
      <trkpt lat="45.92254" lon="6.49578">
        <ele>1588</ele>
        <time>2021-05-20T04:12:20Z</time>
      </trkpt>
      <trkpt lat="45.92254" lon="6.49578">
        <ele>1589</ele>
        <time>2021-05-20T04:12:21Z</time>
      </trkpt>
      <trkpt lat="45.92254" lon="6.49578">
        <ele>1589</ele>
        <time>2021-05-20T04:12:22Z</time>
      </trkpt>
      <trkpt lat="45.92254" lon="6.49578">
        <ele>1589</ele>
        <time>2021-05-20T04:12:23Z</time>
      </trkpt>
      <trkpt lat="45.92254" lon="6.49578">
        <ele>1589</ele>
        <time>2021-05-20T04:12:24Z</time>
      </trkpt>
      <trkpt lat="45.92255" lon="6.49583">
        <ele>1589</ele>
        <time>2021-05-20T04:12:25Z</time>
      </trkpt>
      <trkpt lat="45.92255" lon="6.49583">
        <ele>1590</ele>
        <time>2021-05-20T04:12:26Z</time>
      </trkpt>
      <trkpt lat="45.92255" lon="6.49583">
        <ele>1591</ele>
        <time>2021-05-20T04:12:27Z</time>
      </trkpt>
      <trkpt lat="45.92255" lon="6.49583">
        <ele>1591</ele>
        <time>2021-05-20T04:12:28Z</time>
      </trkpt>
      <trkpt lat="45.92255" lon="6.49583">
        <ele>1590</ele>
        <time>2021-05-20T04:12:29Z</time>
      </trkpt>
      <trkpt lat="45.92256" lon="6.49588">
        <ele>1591</ele>
        <time>2021-05-20T04:12:30Z</time>
      </trkpt>
      <trkpt lat="45.92256" lon="6.49588">
        <ele>1591</ele>
        <time>2021-05-20T04:12:31Z</time>
      </trkpt>
      <trkpt lat="45.92256" lon="6.49588">
        <ele>1591</ele>
        <time>2021-05-20T04:12:32Z</time>
      </trkpt>
      <trkpt lat="45.92256" lon="6.49588">
        <ele>1591</ele>
        <time>2021-05-20T04:12:33Z</time>
      </trkpt>
      <trkpt lat="45.92256" lon="6.49588">
        <ele>1591</ele>
        <time>2021-05-20T04:12:34Z</time>
      </trkpt>
      <trkpt lat="45.92258" lon="6.49593">
        <ele>1591</ele>
        <time>2021-05-20T04:12:35Z</time>
      </trkpt>
      <trkpt lat="45.92258" lon="6.49593">
        <ele>1592</ele>
        <time>2021-05-20T04:12:36Z</time>
      </trkpt>
      <trkpt lat="45.92258" lon="6.49594">
        <ele>1592</ele>
        <time>2021-05-20T04:12:37Z</time>
      </trkpt>
      <trkpt lat="45.92258" lon="6.49595">
        <ele>1592</ele>
        <time>2021-05-20T04:12:38Z</time>
      </trkpt>
      <trkpt lat="45.92258" lon="6.49596">
        <ele>1592</ele>
        <time>2021-05-20T04:12:39Z</time>
      </trkpt>
      <trkpt lat="45.92258" lon="6.49596">
        <ele>1593</ele>
        <time>2021-05-20T04:12:40Z</time>
      </trkpt>
      <trkpt lat="45.92258" lon="6.49597">
        <ele>1593</ele>
        <time>2021-05-20T04:12:41Z</time>
      </trkpt>
      <trkpt lat="45.92258" lon="6.49598">
        <ele>1593</ele>
        <time>2021-05-20T04:12:42Z</time>
      </trkpt>
      <trkpt lat="45.92258" lon="6.49598">
        <ele>1593</ele>
        <time>2021-05-20T04:12:43Z</time>
      </trkpt>
      <trkpt lat="45.92258" lon="6.49598">
        <ele>1593</ele>
        <time>2021-05-20T04:12:44Z</time>
      </trkpt>
      <trkpt lat="45.92258" lon="6.49598">
        <ele>1594</ele>
        <time>2021-05-20T04:12:45Z</time>
      </trkpt>
      <trkpt lat="45.92257" lon="6.49603">
        <ele>1594</ele>
        <time>2021-05-20T04:12:46Z</time>
      </trkpt>
      <trkpt lat="45.92257" lon="6.49603">
        <ele>1594</ele>
        <time>2021-05-20T04:12:47Z</time>
      </trkpt>
      <trkpt lat="45.92257" lon="6.49603">
        <ele>1595</ele>
        <time>2021-05-20T04:12:48Z</time>
      </trkpt>
      <trkpt lat="45.92257" lon="6.49603">
        <ele>1595</ele>
        <time>2021-05-20T04:12:49Z</time>
      </trkpt>
      <trkpt lat="45.92257" lon="6.49603">
        <ele>1595</ele>
        <time>2021-05-20T04:12:50Z</time>
      </trkpt>
      <trkpt lat="45.92255" lon="6.49607">
        <ele>1595</ele>
        <time>2021-05-20T04:12:51Z</time>
      </trkpt>
      <trkpt lat="45.92255" lon="6.49607">
        <ele>1596</ele>
        <time>2021-05-20T04:12:52Z</time>
      </trkpt>
      <trkpt lat="45.92254" lon="6.49608">
        <ele>1596</ele>
        <time>2021-05-20T04:12:53Z</time>
      </trkpt>
      <trkpt lat="45.92253" lon="6.49608">
        <ele>1596</ele>
        <time>2021-05-20T04:12:54Z</time>
      </trkpt>
      <trkpt lat="45.92252" lon="6.49609">
        <ele>1596</ele>
        <time>2021-05-20T04:12:55Z</time>
      </trkpt>
      <trkpt lat="45.92251" lon="6.4961">
        <ele>1596</ele>
        <time>2021-05-20T04:12:56Z</time>
      </trkpt>
      <trkpt lat="45.9225" lon="6.4961">
        <ele>1597</ele>
        <time>2021-05-20T04:12:57Z</time>
      </trkpt>
      <trkpt lat="45.92249" lon="6.49611">
        <ele>1597</ele>
        <time>2021-05-20T04:12:58Z</time>
      </trkpt>
      <trkpt lat="45.92249" lon="6.49612">
        <ele>1597</ele>
        <time>2021-05-20T04:12:59Z</time>
      </trkpt>
      <trkpt lat="45.92248" lon="6.49612">
        <ele>1598</ele>
        <time>2021-05-20T04:13:00Z</time>
      </trkpt>
      <trkpt lat="45.92247" lon="6.49613">
        <ele>1598</ele>
        <time>2021-05-20T04:13:01Z</time>
      </trkpt>
      <trkpt lat="45.92247" lon="6.49613">
        <ele>1598</ele>
        <time>2021-05-20T04:13:02Z</time>
      </trkpt>
      <trkpt lat="45.92247" lon="6.49613">
        <ele>1598</ele>
        <time>2021-05-20T04:13:03Z</time>
      </trkpt>
      <trkpt lat="45.92247" lon="6.49613">
        <ele>1599</ele>
        <time>2021-05-20T04:13:04Z</time>
      </trkpt>
      <trkpt lat="45.92244" lon="6.49616">
        <ele>1599</ele>
        <time>2021-05-20T04:13:05Z</time>
      </trkpt>
      <trkpt lat="45.92244" lon="6.49616">
        <ele>1599</ele>
        <time>2021-05-20T04:13:06Z</time>
      </trkpt>
      <trkpt lat="45.92243" lon="6.49616">
        <ele>1599</ele>
        <time>2021-05-20T04:13:07Z</time>
      </trkpt>
      <trkpt lat="45.92242" lon="6.49616">
        <ele>1599</ele>
        <time>2021-05-20T04:13:08Z</time>
      </trkpt>
      <trkpt lat="45.92241" lon="6.49616">
        <ele>1599</ele>
        <time>2021-05-20T04:13:09Z</time>
      </trkpt>
      <trkpt lat="45.9224" lon="6.49616">
        <ele>1599</ele>
        <time>2021-05-20T04:13:10Z</time>
      </trkpt>
      <trkpt lat="45.92239" lon="6.49616">
        <ele>1599</ele>
        <time>2021-05-20T04:13:11Z</time>
      </trkpt>
      <trkpt lat="45.92238" lon="6.49616">
        <ele>1599</ele>
        <time>2021-05-20T04:13:12Z</time>
      </trkpt>
      <trkpt lat="45.92237" lon="6.49616">
        <ele>1600</ele>
        <time>2021-05-20T04:13:13Z</time>
      </trkpt>
      <trkpt lat="45.92236" lon="6.49616">
        <ele>1601</ele>
        <time>2021-05-20T04:13:14Z</time>
      </trkpt>
      <trkpt lat="45.92236" lon="6.49617">
        <ele>1601</ele>
        <time>2021-05-20T04:13:15Z</time>
      </trkpt>
      <trkpt lat="45.92236" lon="6.49618">
        <ele>1602</ele>
        <time>2021-05-20T04:13:16Z</time>
      </trkpt>
      <trkpt lat="45.92236" lon="6.49619">
        <ele>1602</ele>
        <time>2021-05-20T04:13:17Z</time>
      </trkpt>
      <trkpt lat="45.92236" lon="6.49619">
        <ele>1602</ele>
        <time>2021-05-20T04:13:18Z</time>
      </trkpt>
      <trkpt lat="45.92236" lon="6.4962">
        <ele>1602</ele>
        <time>2021-05-20T04:13:19Z</time>
      </trkpt>
      <trkpt lat="45.92236" lon="6.49621">
        <ele>1602</ele>
        <time>2021-05-20T04:13:20Z</time>
      </trkpt>
      <trkpt lat="45.92236" lon="6.49621">
        <ele>1602</ele>
        <time>2021-05-20T04:13:21Z</time>
      </trkpt>
      <trkpt lat="45.92236" lon="6.49622">
        <ele>1602</ele>
        <time>2021-05-20T04:13:22Z</time>
      </trkpt>
      <trkpt lat="45.92236" lon="6.49622">
        <ele>1602</ele>
        <time>2021-05-20T04:13:23Z</time>
      </trkpt>
      <trkpt lat="45.92236" lon="6.49622">
        <ele>1603</ele>
        <time>2021-05-20T04:13:24Z</time>
      </trkpt>
      <trkpt lat="45.92236" lon="6.49622">
        <ele>1603</ele>
        <time>2021-05-20T04:13:25Z</time>
      </trkpt>
      <trkpt lat="45.92239" lon="6.49626">
        <ele>1603</ele>
        <time>2021-05-20T04:13:26Z</time>
      </trkpt>
      <trkpt lat="45.92239" lon="6.49626">
        <ele>1603</ele>
        <time>2021-05-20T04:13:27Z</time>
      </trkpt>
      <trkpt lat="45.92239" lon="6.49627">
        <ele>1603</ele>
        <time>2021-05-20T04:13:28Z</time>
      </trkpt>
      <trkpt lat="45.92239" lon="6.49628">
        <ele>1603</ele>
        <time>2021-05-20T04:13:29Z</time>
      </trkpt>
      <trkpt lat="45.92238" lon="6.49629">
        <ele>1603</ele>
        <time>2021-05-20T04:13:30Z</time>
      </trkpt>
      <trkpt lat="45.92238" lon="6.4963">
        <ele>1604</ele>
        <time>2021-05-20T04:13:31Z</time>
      </trkpt>
      <trkpt lat="45.92238" lon="6.49631">
        <ele>1604</ele>
        <time>2021-05-20T04:13:32Z</time>
      </trkpt>
      <trkpt lat="45.92238" lon="6.49632">
        <ele>1604</ele>
        <time>2021-05-20T04:13:33Z</time>
      </trkpt>
      <trkpt lat="45.92238" lon="6.49632">
        <ele>1604</ele>
        <time>2021-05-20T04:13:34Z</time>
      </trkpt>
      <trkpt lat="45.92238" lon="6.49632">
        <ele>1605</ele>
        <time>2021-05-20T04:13:35Z</time>
      </trkpt>
      <trkpt lat="45.92238" lon="6.49632">
        <ele>1605</ele>
        <time>2021-05-20T04:13:36Z</time>
      </trkpt>
      <trkpt lat="45.92238" lon="6.49632">
        <ele>1605</ele>
        <time>2021-05-20T04:13:37Z</time>
      </trkpt>
      <trkpt lat="45.92235" lon="6.49635">
        <ele>1605</ele>
        <time>2021-05-20T04:13:38Z</time>
      </trkpt>
      <trkpt lat="45.92235" lon="6.49635">
        <ele>1606</ele>
        <time>2021-05-20T04:13:39Z</time>
      </trkpt>
      <trkpt lat="45.92235" lon="6.49636">
        <ele>1607</ele>
        <time>2021-05-20T04:13:40Z</time>
      </trkpt>
      <trkpt lat="45.92235" lon="6.49636">
        <ele>1607</ele>
        <time>2021-05-20T04:13:41Z</time>
      </trkpt>
      <trkpt lat="45.92235" lon="6.49637">
        <ele>1608</ele>
        <time>2021-05-20T04:13:42Z</time>
      </trkpt>
      <trkpt lat="45.92234" lon="6.49637">
        <ele>1608</ele>
        <time>2021-05-20T04:13:43Z</time>
      </trkpt>
      <trkpt lat="45.92234" lon="6.49637">
        <ele>1608</ele>
        <time>2021-05-20T04:13:44Z</time>
      </trkpt>
      <trkpt lat="45.92234" lon="6.49638">
        <ele>1608</ele>
        <time>2021-05-20T04:13:45Z</time>
      </trkpt>
      <trkpt lat="45.92234" lon="6.49638">
        <ele>1609</ele>
        <time>2021-05-20T04:13:46Z</time>
      </trkpt>
      <trkpt lat="45.92234" lon="6.49639">
        <ele>1609</ele>
        <time>2021-05-20T04:13:47Z</time>
      </trkpt>
      <trkpt lat="45.92234" lon="6.49639">
        <ele>1609</ele>
        <time>2021-05-20T04:13:48Z</time>
      </trkpt>
      <trkpt lat="45.92234" lon="6.49639">
        <ele>1609</ele>
        <time>2021-05-20T04:13:49Z</time>
      </trkpt>
      <trkpt lat="45.92234" lon="6.49639">
        <ele>1609</ele>
        <time>2021-05-20T04:13:50Z</time>
      </trkpt>
      <trkpt lat="45.92234" lon="6.49639">
        <ele>1609</ele>
        <time>2021-05-20T04:13:51Z</time>
      </trkpt>
      <trkpt lat="45.92234" lon="6.49639">
        <ele>1610</ele>
        <time>2021-05-20T04:13:52Z</time>
      </trkpt>
      <trkpt lat="45.92232" lon="6.49642">
        <ele>1611</ele>
        <time>2021-05-20T04:13:53Z</time>
      </trkpt>
      <trkpt lat="45.92232" lon="6.49642">
        <ele>1611</ele>
        <time>2021-05-20T04:13:54Z</time>
      </trkpt>
      <trkpt lat="45.92232" lon="6.49642">
        <ele>1611</ele>
        <time>2021-05-20T04:13:55Z</time>
      </trkpt>
      <trkpt lat="45.92232" lon="6.49642">
        <ele>1611</ele>
        <time>2021-05-20T04:13:56Z</time>
      </trkpt>
      <trkpt lat="45.92232" lon="6.49642">
        <ele>1612</ele>
        <time>2021-05-20T04:13:57Z</time>
      </trkpt>
      <trkpt lat="45.92232" lon="6.49642">
        <ele>1612</ele>
        <time>2021-05-20T04:13:58Z</time>
      </trkpt>
      <trkpt lat="45.92232" lon="6.49642">
        <ele>1612</ele>
        <time>2021-05-20T04:13:59Z</time>
      </trkpt>
      <trkpt lat="45.92232" lon="6.49642">
        <ele>1612</ele>
        <time>2021-05-20T04:14:00Z</time>
      </trkpt>
      <trkpt lat="45.92231" lon="6.49648">
        <ele>1612</ele>
        <time>2021-05-20T04:14:01Z</time>
      </trkpt>
      <trkpt lat="45.92231" lon="6.49648">
        <ele>1613</ele>
        <time>2021-05-20T04:14:02Z</time>
      </trkpt>
      <trkpt lat="45.92231" lon="6.49648">
        <ele>1613</ele>
        <time>2021-05-20T04:14:03Z</time>
      </trkpt>
      <trkpt lat="45.9223" lon="6.49649">
        <ele>1613</ele>
        <time>2021-05-20T04:14:04Z</time>
      </trkpt>
      <trkpt lat="45.92229" lon="6.49649">
        <ele>1613</ele>
        <time>2021-05-20T04:14:05Z</time>
      </trkpt>
      <trkpt lat="45.92229" lon="6.4965">
        <ele>1613</ele>
        <time>2021-05-20T04:14:06Z</time>
      </trkpt>
      <trkpt lat="45.92228" lon="6.4965">
        <ele>1614</ele>
        <time>2021-05-20T04:14:07Z</time>
      </trkpt>
      <trkpt lat="45.92228" lon="6.4965">
        <ele>1614</ele>
        <time>2021-05-20T04:14:08Z</time>
      </trkpt>
      <trkpt lat="45.92228" lon="6.4965">
        <ele>1614</ele>
        <time>2021-05-20T04:14:09Z</time>
      </trkpt>
      <trkpt lat="45.92228" lon="6.4965">
        <ele>1614</ele>
        <time>2021-05-20T04:14:10Z</time>
      </trkpt>
      <trkpt lat="45.92228" lon="6.4965">
        <ele>1615</ele>
        <time>2021-05-20T04:14:11Z</time>
      </trkpt>
      <trkpt lat="45.92224" lon="6.49651">
        <ele>1615</ele>
        <time>2021-05-20T04:14:12Z</time>
      </trkpt>
      <trkpt lat="45.92224" lon="6.49651">
        <ele>1615</ele>
        <time>2021-05-20T04:14:13Z</time>
      </trkpt>
      <trkpt lat="45.92224" lon="6.49651">
        <ele>1616</ele>
        <time>2021-05-20T04:14:14Z</time>
      </trkpt>
      <trkpt lat="45.92224" lon="6.49651">
        <ele>1616</ele>
        <time>2021-05-20T04:14:15Z</time>
      </trkpt>
      <trkpt lat="45.92224" lon="6.49651">
        <ele>1616</ele>
        <time>2021-05-20T04:14:16Z</time>
      </trkpt>
      <trkpt lat="45.9222" lon="6.49652">
        <ele>1617</ele>
        <time>2021-05-20T04:14:17Z</time>
      </trkpt>
      <trkpt lat="45.9222" lon="6.49652">
        <ele>1617</ele>
        <time>2021-05-20T04:14:18Z</time>
      </trkpt>
      <trkpt lat="45.9222" lon="6.49653">
        <ele>1617</ele>
        <time>2021-05-20T04:14:19Z</time>
      </trkpt>
      <trkpt lat="45.9222" lon="6.49654">
        <ele>1618</ele>
        <time>2021-05-20T04:14:20Z</time>
      </trkpt>
      <trkpt lat="45.9222" lon="6.49654">
        <ele>1618</ele>
        <time>2021-05-20T04:14:21Z</time>
      </trkpt>
      <trkpt lat="45.9222" lon="6.49655">
        <ele>1618</ele>
        <time>2021-05-20T04:14:22Z</time>
      </trkpt>
      <trkpt lat="45.9222" lon="6.49656">
        <ele>1618</ele>
        <time>2021-05-20T04:14:23Z</time>
      </trkpt>
      <trkpt lat="45.9222" lon="6.49656">
        <ele>1618</ele>
        <time>2021-05-20T04:14:24Z</time>
      </trkpt>
      <trkpt lat="45.9222" lon="6.49657">
        <ele>1618</ele>
        <time>2021-05-20T04:14:25Z</time>
      </trkpt>
      <trkpt lat="45.92219" lon="6.49657">
        <ele>1618</ele>
        <time>2021-05-20T04:14:26Z</time>
      </trkpt>
      <trkpt lat="45.92219" lon="6.49657">
        <ele>1619</ele>
        <time>2021-05-20T04:14:27Z</time>
      </trkpt>
      <trkpt lat="45.92219" lon="6.49657">
        <ele>1619</ele>
        <time>2021-05-20T04:14:28Z</time>
      </trkpt>
      <trkpt lat="45.92219" lon="6.49657">
        <ele>1619</ele>
        <time>2021-05-20T04:14:29Z</time>
      </trkpt>
      <trkpt lat="45.92219" lon="6.49662">
        <ele>1620</ele>
        <time>2021-05-20T04:14:30Z</time>
      </trkpt>
      <trkpt lat="45.92219" lon="6.49662">
        <ele>1620</ele>
        <time>2021-05-20T04:14:31Z</time>
      </trkpt>
      <trkpt lat="45.92219" lon="6.49662">
        <ele>1620</ele>
        <time>2021-05-20T04:14:32Z</time>
      </trkpt>
      <trkpt lat="45.92219" lon="6.49662">
        <ele>1621</ele>
        <time>2021-05-20T04:14:33Z</time>
      </trkpt>
      <trkpt lat="45.92219" lon="6.49662">
        <ele>1621</ele>
        <time>2021-05-20T04:14:34Z</time>
      </trkpt>
      <trkpt lat="45.92219" lon="6.49662">
        <ele>1621</ele>
        <time>2021-05-20T04:14:35Z</time>
      </trkpt>
      <trkpt lat="45.92219" lon="6.49662">
        <ele>1621</ele>
        <time>2021-05-20T04:14:36Z</time>
      </trkpt>
      <trkpt lat="45.92219" lon="6.49668">
        <ele>1622</ele>
        <time>2021-05-20T04:14:37Z</time>
      </trkpt>
      <trkpt lat="45.92219" lon="6.49668">
        <ele>1622</ele>
        <time>2021-05-20T04:14:38Z</time>
      </trkpt>
      <trkpt lat="45.9222" lon="6.49668">
        <ele>1622</ele>
        <time>2021-05-20T04:14:39Z</time>
      </trkpt>
      <trkpt lat="45.9222" lon="6.49669">
        <ele>1623</ele>
        <time>2021-05-20T04:14:40Z</time>
      </trkpt>
      <trkpt lat="45.9222" lon="6.4967">
        <ele>1623</ele>
        <time>2021-05-20T04:14:41Z</time>
      </trkpt>
      <trkpt lat="45.9222" lon="6.49671">
        <ele>1623</ele>
        <time>2021-05-20T04:14:42Z</time>
      </trkpt>
      <trkpt lat="45.9222" lon="6.49672">
        <ele>1623</ele>
        <time>2021-05-20T04:14:43Z</time>
      </trkpt>
      <trkpt lat="45.9222" lon="6.49672">
        <ele>1623</ele>
        <time>2021-05-20T04:14:44Z</time>
      </trkpt>
      <trkpt lat="45.9222" lon="6.49673">
        <ele>1624</ele>
        <time>2021-05-20T04:14:45Z</time>
      </trkpt>
      <trkpt lat="45.9222" lon="6.49673">
        <ele>1624</ele>
        <time>2021-05-20T04:14:46Z</time>
      </trkpt>
      <trkpt lat="45.9222" lon="6.49673">
        <ele>1624</ele>
        <time>2021-05-20T04:14:47Z</time>
      </trkpt>
      <trkpt lat="45.9222" lon="6.49673">
        <ele>1624</ele>
        <time>2021-05-20T04:14:48Z</time>
      </trkpt>
      <trkpt lat="45.92223" lon="6.49677">
        <ele>1624</ele>
        <time>2021-05-20T04:14:49Z</time>
      </trkpt>
      <trkpt lat="45.92223" lon="6.49677">
        <ele>1624</ele>
        <time>2021-05-20T04:14:50Z</time>
      </trkpt>
      <trkpt lat="45.92223" lon="6.49678">
        <ele>1624</ele>
        <time>2021-05-20T04:14:51Z</time>
      </trkpt>
      <trkpt lat="45.92224" lon="6.49679">
        <ele>1625</ele>
        <time>2021-05-20T04:14:52Z</time>
      </trkpt>
      <trkpt lat="45.92224" lon="6.4968">
        <ele>1625</ele>
        <time>2021-05-20T04:14:53Z</time>
      </trkpt>
      <trkpt lat="45.92224" lon="6.49681">
        <ele>1625</ele>
        <time>2021-05-20T04:14:54Z</time>
      </trkpt>
      <trkpt lat="45.92225" lon="6.49682">
        <ele>1625</ele>
        <time>2021-05-20T04:14:55Z</time>
      </trkpt>
      <trkpt lat="45.92225" lon="6.49682">
        <ele>1626</ele>
        <time>2021-05-20T04:14:56Z</time>
      </trkpt>
      <trkpt lat="45.92225" lon="6.49682">
        <ele>1626</ele>
        <time>2021-05-20T04:14:57Z</time>
      </trkpt>
      <trkpt lat="45.92227" lon="6.49686">
        <ele>1627</ele>
        <time>2021-05-20T04:14:58Z</time>
      </trkpt>
      <trkpt lat="45.92227" lon="6.49686">
        <ele>1627</ele>
        <time>2021-05-20T04:14:59Z</time>
      </trkpt>
      <trkpt lat="45.92227" lon="6.49686">
        <ele>1627</ele>
        <time>2021-05-20T04:15:00Z</time>
      </trkpt>
      <trkpt lat="45.92228" lon="6.49687">
        <ele>1627</ele>
        <time>2021-05-20T04:15:01Z</time>
      </trkpt>
      <trkpt lat="45.92228" lon="6.49687">
        <ele>1628</ele>
        <time>2021-05-20T04:15:02Z</time>
      </trkpt>
      <trkpt lat="45.92229" lon="6.49688">
        <ele>1628</ele>
        <time>2021-05-20T04:15:03Z</time>
      </trkpt>
      <trkpt lat="45.9223" lon="6.49689">
        <ele>1628</ele>
        <time>2021-05-20T04:15:04Z</time>
      </trkpt>
      <trkpt lat="45.9223" lon="6.49689">
        <ele>1628</ele>
        <time>2021-05-20T04:15:05Z</time>
      </trkpt>
      <trkpt lat="45.9223" lon="6.49689">
        <ele>1628</ele>
        <time>2021-05-20T04:15:06Z</time>
      </trkpt>
      <trkpt lat="45.9223" lon="6.49689">
        <ele>1628</ele>
        <time>2021-05-20T04:15:07Z</time>
      </trkpt>
      <trkpt lat="45.9223" lon="6.49689">
        <ele>1629</ele>
        <time>2021-05-20T04:15:08Z</time>
      </trkpt>
      <trkpt lat="45.9223" lon="6.49689">
        <ele>1629</ele>
        <time>2021-05-20T04:15:09Z</time>
      </trkpt>
      <trkpt lat="45.92231" lon="6.49693">
        <ele>1630</ele>
        <time>2021-05-20T04:15:10Z</time>
      </trkpt>
      <trkpt lat="45.92231" lon="6.49693">
        <ele>1630</ele>
        <time>2021-05-20T04:15:11Z</time>
      </trkpt>
      <trkpt lat="45.92231" lon="6.49693">
        <ele>1631</ele>
        <time>2021-05-20T04:15:12Z</time>
      </trkpt>
      <trkpt lat="45.92231" lon="6.49693">
        <ele>1631</ele>
        <time>2021-05-20T04:15:13Z</time>
      </trkpt>
      <trkpt lat="45.92231" lon="6.49693">
        <ele>1631</ele>
        <time>2021-05-20T04:15:14Z</time>
      </trkpt>
      <trkpt lat="45.92229" lon="6.49697">
        <ele>1632</ele>
        <time>2021-05-20T04:15:15Z</time>
      </trkpt>
      <trkpt lat="45.92229" lon="6.49697">
        <ele>1632</ele>
        <time>2021-05-20T04:15:16Z</time>
      </trkpt>
      <trkpt lat="45.92229" lon="6.49697">
        <ele>1632</ele>
        <time>2021-05-20T04:15:17Z</time>
      </trkpt>
      <trkpt lat="45.92229" lon="6.49697">
        <ele>1632</ele>
        <time>2021-05-20T04:15:18Z</time>
      </trkpt>
      <trkpt lat="45.92229" lon="6.49697">
        <ele>1632</ele>
        <time>2021-05-20T04:15:19Z</time>
      </trkpt>
      <trkpt lat="45.92229" lon="6.49697">
        <ele>1632</ele>
        <time>2021-05-20T04:15:20Z</time>
      </trkpt>
      <trkpt lat="45.92229" lon="6.49697">
        <ele>1632</ele>
        <time>2021-05-20T04:15:21Z</time>
      </trkpt>
      <trkpt lat="45.92229" lon="6.49697">
        <ele>1633</ele>
        <time>2021-05-20T04:15:22Z</time>
      </trkpt>
      <trkpt lat="45.92229" lon="6.49697">
        <ele>1633</ele>
        <time>2021-05-20T04:15:23Z</time>
      </trkpt>
      <trkpt lat="45.92231" lon="6.49702">
        <ele>1633</ele>
        <time>2021-05-20T04:15:24Z</time>
      </trkpt>
      <trkpt lat="45.92231" lon="6.49702">
        <ele>1634</ele>
        <time>2021-05-20T04:15:25Z</time>
      </trkpt>
      <trkpt lat="45.92231" lon="6.49702">
        <ele>1634</ele>
        <time>2021-05-20T04:15:26Z</time>
      </trkpt>
      <trkpt lat="45.92231" lon="6.49702">
        <ele>1634</ele>
        <time>2021-05-20T04:15:27Z</time>
      </trkpt>
      <trkpt lat="45.92231" lon="6.49702">
        <ele>1634</ele>
        <time>2021-05-20T04:15:28Z</time>
      </trkpt>
      <trkpt lat="45.92229" lon="6.49707">
        <ele>1634</ele>
        <time>2021-05-20T04:15:29Z</time>
      </trkpt>
      <trkpt lat="45.92229" lon="6.49707">
        <ele>1634</ele>
        <time>2021-05-20T04:15:30Z</time>
      </trkpt>
      <trkpt lat="45.92228" lon="6.49708">
        <ele>1635</ele>
        <time>2021-05-20T04:15:31Z</time>
      </trkpt>
      <trkpt lat="45.92228" lon="6.49708">
        <ele>1635</ele>
        <time>2021-05-20T04:15:32Z</time>
      </trkpt>
      <trkpt lat="45.92227" lon="6.49709">
        <ele>1635</ele>
        <time>2021-05-20T04:15:33Z</time>
      </trkpt>
      <trkpt lat="45.92227" lon="6.49709">
        <ele>1635</ele>
        <time>2021-05-20T04:15:34Z</time>
      </trkpt>
      <trkpt lat="45.92226" lon="6.4971">
        <ele>1635</ele>
        <time>2021-05-20T04:15:35Z</time>
      </trkpt>
      <trkpt lat="45.92226" lon="6.49711">
        <ele>1636</ele>
        <time>2021-05-20T04:15:36Z</time>
      </trkpt>
      <trkpt lat="45.92226" lon="6.49711">
        <ele>1636</ele>
        <time>2021-05-20T04:15:37Z</time>
      </trkpt>
      <trkpt lat="45.92226" lon="6.49711">
        <ele>1636</ele>
        <time>2021-05-20T04:15:38Z</time>
      </trkpt>
      <trkpt lat="45.92226" lon="6.49711">
        <ele>1637</ele>
        <time>2021-05-20T04:15:39Z</time>
      </trkpt>
      <trkpt lat="45.92223" lon="6.49713">
        <ele>1637</ele>
        <time>2021-05-20T04:15:40Z</time>
      </trkpt>
      <trkpt lat="45.92223" lon="6.49713">
        <ele>1637</ele>
        <time>2021-05-20T04:15:41Z</time>
      </trkpt>
      <trkpt lat="45.92223" lon="6.49714">
        <ele>1637</ele>
        <time>2021-05-20T04:15:42Z</time>
      </trkpt>
      <trkpt lat="45.92222" lon="6.49715">
        <ele>1638</ele>
        <time>2021-05-20T04:15:43Z</time>
      </trkpt>
      <trkpt lat="45.92222" lon="6.49716">
        <ele>1638</ele>
        <time>2021-05-20T04:15:44Z</time>
      </trkpt>
      <trkpt lat="45.92221" lon="6.49716">
        <ele>1639</ele>
        <time>2021-05-20T04:15:45Z</time>
      </trkpt>
      <trkpt lat="45.92221" lon="6.49717">
        <ele>1639</ele>
        <time>2021-05-20T04:15:46Z</time>
      </trkpt>
      <trkpt lat="45.9222" lon="6.49718">
        <ele>1639</ele>
        <time>2021-05-20T04:15:47Z</time>
      </trkpt>
      <trkpt lat="45.9222" lon="6.49718">
        <ele>1639</ele>
        <time>2021-05-20T04:15:48Z</time>
      </trkpt>
      <trkpt lat="45.9222" lon="6.49718">
        <ele>1639</ele>
        <time>2021-05-20T04:15:49Z</time>
      </trkpt>
      <trkpt lat="45.92217" lon="6.49721">
        <ele>1640</ele>
        <time>2021-05-20T04:15:50Z</time>
      </trkpt>
      <trkpt lat="45.92217" lon="6.49721">
        <ele>1641</ele>
        <time>2021-05-20T04:15:51Z</time>
      </trkpt>
      <trkpt lat="45.92217" lon="6.49722">
        <ele>1641</ele>
        <time>2021-05-20T04:15:52Z</time>
      </trkpt>
      <trkpt lat="45.92216" lon="6.49722">
        <ele>1641</ele>
        <time>2021-05-20T04:15:53Z</time>
      </trkpt>
      <trkpt lat="45.92216" lon="6.49723">
        <ele>1641</ele>
        <time>2021-05-20T04:15:54Z</time>
      </trkpt>
      <trkpt lat="45.92215" lon="6.49724">
        <ele>1641</ele>
        <time>2021-05-20T04:15:55Z</time>
      </trkpt>
      <trkpt lat="45.92215" lon="6.49725">
        <ele>1642</ele>
        <time>2021-05-20T04:15:56Z</time>
      </trkpt>
      <trkpt lat="45.92214" lon="6.49726">
        <ele>1642</ele>
        <time>2021-05-20T04:15:57Z</time>
      </trkpt>
      <trkpt lat="45.92213" lon="6.49727">
        <ele>1642</ele>
        <time>2021-05-20T04:15:58Z</time>
      </trkpt>
      <trkpt lat="45.92212" lon="6.49727">
        <ele>1643</ele>
        <time>2021-05-20T04:15:59Z</time>
      </trkpt>
      <trkpt lat="45.92211" lon="6.49728">
        <ele>1643</ele>
        <time>2021-05-20T04:16:00Z</time>
      </trkpt>
      <trkpt lat="45.92211" lon="6.49728">
        <ele>1643</ele>
        <time>2021-05-20T04:16:01Z</time>
      </trkpt>
      <trkpt lat="45.92211" lon="6.49728">
        <ele>1643</ele>
        <time>2021-05-20T04:16:02Z</time>
      </trkpt>
      <trkpt lat="45.92211" lon="6.49728">
        <ele>1644</ele>
        <time>2021-05-20T04:16:03Z</time>
      </trkpt>
      <trkpt lat="45.92211" lon="6.49728">
        <ele>1644</ele>
        <time>2021-05-20T04:16:04Z</time>
      </trkpt>
      <trkpt lat="45.92211" lon="6.49728">
        <ele>1644</ele>
        <time>2021-05-20T04:16:05Z</time>
      </trkpt>
      <trkpt lat="45.92211" lon="6.49728">
        <ele>1644</ele>
        <time>2021-05-20T04:16:06Z</time>
      </trkpt>
      <trkpt lat="45.92211" lon="6.49728">
        <ele>1644</ele>
        <time>2021-05-20T04:16:07Z</time>
      </trkpt>
      <trkpt lat="45.92211" lon="6.49728">
        <ele>1644</ele>
        <time>2021-05-20T04:16:08Z</time>
      </trkpt>
      <trkpt lat="45.92211" lon="6.49728">
        <ele>1644</ele>
        <time>2021-05-20T04:16:09Z</time>
      </trkpt>
      <trkpt lat="45.92211" lon="6.49728">
        <ele>1644</ele>
        <time>2021-05-20T04:16:10Z</time>
      </trkpt>
      <trkpt lat="45.92211" lon="6.49728">
        <ele>1644</ele>
        <time>2021-05-20T04:16:11Z</time>
      </trkpt>
      <trkpt lat="45.92211" lon="6.49728">
        <ele>1644</ele>
        <time>2021-05-20T04:16:12Z</time>
      </trkpt>
      <trkpt lat="45.92211" lon="6.49728">
        <ele>1644</ele>
        <time>2021-05-20T04:16:13Z</time>
      </trkpt>
      <trkpt lat="45.92211" lon="6.49728">
        <ele>1643</ele>
        <time>2021-05-20T04:16:14Z</time>
      </trkpt>
      <trkpt lat="45.92211" lon="6.49728">
        <ele>1643</ele>
        <time>2021-05-20T04:16:15Z</time>
      </trkpt>
      <trkpt lat="45.92211" lon="6.49728">
        <ele>1643</ele>
        <time>2021-05-20T04:16:16Z</time>
      </trkpt>
      <trkpt lat="45.92211" lon="6.49728">
        <ele>1643</ele>
        <time>2021-05-20T04:16:17Z</time>
      </trkpt>
      <trkpt lat="45.92211" lon="6.49728">
        <ele>1643</ele>
        <time>2021-05-20T04:16:18Z</time>
      </trkpt>
      <trkpt lat="45.92211" lon="6.49728">
        <ele>1643</ele>
        <time>2021-05-20T04:16:19Z</time>
      </trkpt>
      <trkpt lat="45.92211" lon="6.49728">
        <ele>1643</ele>
        <time>2021-05-20T04:16:20Z</time>
      </trkpt>
      <trkpt lat="45.92211" lon="6.49728">
        <ele>1643</ele>
        <time>2021-05-20T04:16:21Z</time>
      </trkpt>
      <trkpt lat="45.92211" lon="6.49728">
        <ele>1643</ele>
        <time>2021-05-20T04:16:22Z</time>
      </trkpt>
      <trkpt lat="45.92211" lon="6.49728">
        <ele>1643</ele>
        <time>2021-05-20T04:16:23Z</time>
      </trkpt>
      <trkpt lat="45.92211" lon="6.49728">
        <ele>1643</ele>
        <time>2021-05-20T04:16:24Z</time>
      </trkpt>
      <trkpt lat="45.92211" lon="6.49728">
        <ele>1643</ele>
        <time>2021-05-20T04:16:25Z</time>
      </trkpt>
      <trkpt lat="45.92211" lon="6.49728">
        <ele>1643</ele>
        <time>2021-05-20T04:16:26Z</time>
      </trkpt>
      <trkpt lat="45.92211" lon="6.49728">
        <ele>1643</ele>
        <time>2021-05-20T04:16:27Z</time>
      </trkpt>
      <trkpt lat="45.92211" lon="6.49728">
        <ele>1643</ele>
        <time>2021-05-20T04:16:28Z</time>
      </trkpt>
      <trkpt lat="45.92211" lon="6.49728">
        <ele>1643</ele>
        <time>2021-05-20T04:16:29Z</time>
      </trkpt>
      <trkpt lat="45.92211" lon="6.49728">
        <ele>1643</ele>
        <time>2021-05-20T04:16:30Z</time>
      </trkpt>
      <trkpt lat="45.92211" lon="6.49728">
        <ele>1643</ele>
        <time>2021-05-20T04:16:31Z</time>
      </trkpt>
      <trkpt lat="45.92211" lon="6.49728">
        <ele>1643</ele>
        <time>2021-05-20T04:16:32Z</time>
      </trkpt>
      <trkpt lat="45.92211" lon="6.49728">
        <ele>1643</ele>
        <time>2021-05-20T04:16:33Z</time>
      </trkpt>
      <trkpt lat="45.92213" lon="6.49723">
        <ele>1643</ele>
        <time>2021-05-20T04:16:34Z</time>
      </trkpt>
      <trkpt lat="45.92213" lon="6.49723">
        <ele>1643</ele>
        <time>2021-05-20T04:16:35Z</time>
      </trkpt>
      <trkpt lat="45.92213" lon="6.49723">
        <ele>1643</ele>
        <time>2021-05-20T04:16:36Z</time>
      </trkpt>
      <trkpt lat="45.92213" lon="6.49723">
        <ele>1642</ele>
        <time>2021-05-20T04:16:37Z</time>
      </trkpt>
      <trkpt lat="45.92213" lon="6.49723">
        <ele>1642</ele>
        <time>2021-05-20T04:16:38Z</time>
      </trkpt>
      <trkpt lat="45.92213" lon="6.49723">
        <ele>1642</ele>
        <time>2021-05-20T04:16:39Z</time>
      </trkpt>
      <trkpt lat="45.92213" lon="6.49723">
        <ele>1642</ele>
        <time>2021-05-20T04:16:40Z</time>
      </trkpt>
      <trkpt lat="45.92213" lon="6.49723">
        <ele>1642</ele>
        <time>2021-05-20T04:16:41Z</time>
      </trkpt>
      <trkpt lat="45.92213" lon="6.49723">
        <ele>1642</ele>
        <time>2021-05-20T04:16:42Z</time>
      </trkpt>
      <trkpt lat="45.92213" lon="6.49723">
        <ele>1642</ele>
        <time>2021-05-20T04:16:43Z</time>
      </trkpt>
      <trkpt lat="45.92213" lon="6.49723">
        <ele>1642</ele>
        <time>2021-05-20T04:16:44Z</time>
      </trkpt>
      <trkpt lat="45.92213" lon="6.49723">
        <ele>1642</ele>
        <time>2021-05-20T04:16:45Z</time>
      </trkpt>
      <trkpt lat="45.92213" lon="6.49723">
        <ele>1642</ele>
        <time>2021-05-20T04:16:46Z</time>
      </trkpt>
      <trkpt lat="45.92213" lon="6.49723">
        <ele>1642</ele>
        <time>2021-05-20T04:16:47Z</time>
      </trkpt>
      <trkpt lat="45.92213" lon="6.49723">
        <ele>1642</ele>
        <time>2021-05-20T04:16:48Z</time>
      </trkpt>
      <trkpt lat="45.92213" lon="6.49723">
        <ele>1642</ele>
        <time>2021-05-20T04:16:49Z</time>
      </trkpt>
      <trkpt lat="45.92213" lon="6.49723">
        <ele>1642</ele>
        <time>2021-05-20T04:16:50Z</time>
      </trkpt>
      <trkpt lat="45.92213" lon="6.49723">
        <ele>1642</ele>
        <time>2021-05-20T04:16:51Z</time>
      </trkpt>
      <trkpt lat="45.92213" lon="6.49723">
        <ele>1642</ele>
        <time>2021-05-20T04:16:52Z</time>
      </trkpt>
      <trkpt lat="45.92213" lon="6.49723">
        <ele>1642</ele>
        <time>2021-05-20T04:16:53Z</time>
      </trkpt>
      <trkpt lat="45.92213" lon="6.49723">
        <ele>1642</ele>
        <time>2021-05-20T04:16:54Z</time>
      </trkpt>
      <trkpt lat="45.92213" lon="6.49723">
        <ele>1642</ele>
        <time>2021-05-20T04:16:55Z</time>
      </trkpt>
      <trkpt lat="45.92213" lon="6.49723">
        <ele>1642</ele>
        <time>2021-05-20T04:16:56Z</time>
      </trkpt>
      <trkpt lat="45.92213" lon="6.49723">
        <ele>1642</ele>
        <time>2021-05-20T04:16:57Z</time>
      </trkpt>
      <trkpt lat="45.92213" lon="6.49723">
        <ele>1642</ele>
        <time>2021-05-20T04:16:58Z</time>
      </trkpt>
      <trkpt lat="45.92213" lon="6.49723">
        <ele>1642</ele>
        <time>2021-05-20T04:16:59Z</time>
      </trkpt>
      <trkpt lat="45.92213" lon="6.49723">
        <ele>1642</ele>
        <time>2021-05-20T04:17:00Z</time>
      </trkpt>
      <trkpt lat="45.92213" lon="6.49723">
        <ele>1642</ele>
        <time>2021-05-20T04:17:01Z</time>
      </trkpt>
      <trkpt lat="45.92213" lon="6.49723">
        <ele>1642</ele>
        <time>2021-05-20T04:17:02Z</time>
      </trkpt>
      <trkpt lat="45.92213" lon="6.49723">
        <ele>1642</ele>
        <time>2021-05-20T04:17:03Z</time>
      </trkpt>
      <trkpt lat="45.92213" lon="6.49723">
        <ele>1642</ele>
        <time>2021-05-20T04:17:04Z</time>
      </trkpt>
      <trkpt lat="45.92213" lon="6.49723">
        <ele>1642</ele>
        <time>2021-05-20T04:17:05Z</time>
      </trkpt>
      <trkpt lat="45.92213" lon="6.49723">
        <ele>1642</ele>
        <time>2021-05-20T04:17:06Z</time>
      </trkpt>
      <trkpt lat="45.92213" lon="6.49723">
        <ele>1641</ele>
        <time>2021-05-20T04:17:07Z</time>
      </trkpt>
      <trkpt lat="45.92213" lon="6.49723">
        <ele>1641</ele>
        <time>2021-05-20T04:17:08Z</time>
      </trkpt>
      <trkpt lat="45.92213" lon="6.49723">
        <ele>1641</ele>
        <time>2021-05-20T04:17:09Z</time>
      </trkpt>
      <trkpt lat="45.92213" lon="6.49723">
        <ele>1641</ele>
        <time>2021-05-20T04:17:10Z</time>
      </trkpt>
      <trkpt lat="45.92213" lon="6.49723">
        <ele>1642</ele>
        <time>2021-05-20T04:17:11Z</time>
      </trkpt>
      <trkpt lat="45.92213" lon="6.49723">
        <ele>1642</ele>
        <time>2021-05-20T04:17:12Z</time>
      </trkpt>
      <trkpt lat="45.92213" lon="6.49723">
        <ele>1641</ele>
        <time>2021-05-20T04:17:13Z</time>
      </trkpt>
      <trkpt lat="45.92213" lon="6.49723">
        <ele>1641</ele>
        <time>2021-05-20T04:17:14Z</time>
      </trkpt>
      <trkpt lat="45.92213" lon="6.49723">
        <ele>1641</ele>
        <time>2021-05-20T04:17:15Z</time>
      </trkpt>
      <trkpt lat="45.92213" lon="6.49723">
        <ele>1641</ele>
        <time>2021-05-20T04:17:16Z</time>
      </trkpt>
      <trkpt lat="45.92213" lon="6.49723">
        <ele>1641</ele>
        <time>2021-05-20T04:17:17Z</time>
      </trkpt>
      <trkpt lat="45.92213" lon="6.49723">
        <ele>1641</ele>
        <time>2021-05-20T04:17:18Z</time>
      </trkpt>
      <trkpt lat="45.92213" lon="6.49723">
        <ele>1641</ele>
        <time>2021-05-20T04:17:19Z</time>
      </trkpt>
      <trkpt lat="45.92213" lon="6.49723">
        <ele>1641</ele>
        <time>2021-05-20T04:17:20Z</time>
      </trkpt>
      <trkpt lat="45.92213" lon="6.49723">
        <ele>1641</ele>
        <time>2021-05-20T04:17:21Z</time>
      </trkpt>
      <trkpt lat="45.92213" lon="6.49723">
        <ele>1641</ele>
        <time>2021-05-20T04:17:22Z</time>
      </trkpt>
      <trkpt lat="45.92213" lon="6.49723">
        <ele>1641</ele>
        <time>2021-05-20T04:17:23Z</time>
      </trkpt>
      <trkpt lat="45.92213" lon="6.49723">
        <ele>1641</ele>
        <time>2021-05-20T04:17:24Z</time>
      </trkpt>
      <trkpt lat="45.92213" lon="6.49723">
        <ele>1641</ele>
        <time>2021-05-20T04:17:25Z</time>
      </trkpt>
      <trkpt lat="45.92213" lon="6.49723">
        <ele>1641</ele>
        <time>2021-05-20T04:17:26Z</time>
      </trkpt>
      <trkpt lat="45.92213" lon="6.49723">
        <ele>1641</ele>
        <time>2021-05-20T04:17:27Z</time>
      </trkpt>
      <trkpt lat="45.92213" lon="6.49723">
        <ele>1641</ele>
        <time>2021-05-20T04:17:28Z</time>
      </trkpt>
      <trkpt lat="45.92213" lon="6.49723">
        <ele>1641</ele>
        <time>2021-05-20T04:17:29Z</time>
      </trkpt>
      <trkpt lat="45.92213" lon="6.49723">
        <ele>1641</ele>
        <time>2021-05-20T04:17:30Z</time>
      </trkpt>
      <trkpt lat="45.92213" lon="6.49723">
        <ele>1641</ele>
        <time>2021-05-20T04:17:31Z</time>
      </trkpt>
      <trkpt lat="45.92213" lon="6.49723">
        <ele>1641</ele>
        <time>2021-05-20T04:17:32Z</time>
      </trkpt>
      <trkpt lat="45.92213" lon="6.49723">
        <ele>1641</ele>
        <time>2021-05-20T04:17:33Z</time>
      </trkpt>
      <trkpt lat="45.92213" lon="6.49723">
        <ele>1641</ele>
        <time>2021-05-20T04:17:34Z</time>
      </trkpt>
      <trkpt lat="45.92213" lon="6.49723">
        <ele>1641</ele>
        <time>2021-05-20T04:17:35Z</time>
      </trkpt>
      <trkpt lat="45.92213" lon="6.49723">
        <ele>1641</ele>
        <time>2021-05-20T04:17:36Z</time>
      </trkpt>
      <trkpt lat="45.92213" lon="6.49723">
        <ele>1641</ele>
        <time>2021-05-20T04:17:37Z</time>
      </trkpt>
      <trkpt lat="45.92213" lon="6.49723">
        <ele>1641</ele>
        <time>2021-05-20T04:17:38Z</time>
      </trkpt>
      <trkpt lat="45.92213" lon="6.49723">
        <ele>1641</ele>
        <time>2021-05-20T04:17:39Z</time>
      </trkpt>
      <trkpt lat="45.92213" lon="6.49723">
        <ele>1641</ele>
        <time>2021-05-20T04:17:40Z</time>
      </trkpt>
      <trkpt lat="45.92213" lon="6.49723">
        <ele>1641</ele>
        <time>2021-05-20T04:17:41Z</time>
      </trkpt>
      <trkpt lat="45.92213" lon="6.49723">
        <ele>1641</ele>
        <time>2021-05-20T04:17:42Z</time>
      </trkpt>
      <trkpt lat="45.92213" lon="6.49723">
        <ele>1641</ele>
        <time>2021-05-20T04:17:43Z</time>
      </trkpt>
      <trkpt lat="45.92213" lon="6.49723">
        <ele>1641</ele>
        <time>2021-05-20T04:17:44Z</time>
      </trkpt>
      <trkpt lat="45.92213" lon="6.49723">
        <ele>1641</ele>
        <time>2021-05-20T04:17:45Z</time>
      </trkpt>
      <trkpt lat="45.92213" lon="6.49723">
        <ele>1641</ele>
        <time>2021-05-20T04:17:46Z</time>
      </trkpt>
      <trkpt lat="45.92213" lon="6.49723">
        <ele>1641</ele>
        <time>2021-05-20T04:17:47Z</time>
      </trkpt>
      <trkpt lat="45.92213" lon="6.49723">
        <ele>1641</ele>
        <time>2021-05-20T04:17:48Z</time>
      </trkpt>
      <trkpt lat="45.92213" lon="6.49723">
        <ele>1641</ele>
        <time>2021-05-20T04:17:49Z</time>
      </trkpt>
      <trkpt lat="45.92213" lon="6.49723">
        <ele>1641</ele>
        <time>2021-05-20T04:17:50Z</time>
      </trkpt>
      <trkpt lat="45.92213" lon="6.49723">
        <ele>1641</ele>
        <time>2021-05-20T04:17:51Z</time>
      </trkpt>
      <trkpt lat="45.92213" lon="6.49723">
        <ele>1641</ele>
        <time>2021-05-20T04:17:52Z</time>
      </trkpt>
      <trkpt lat="45.92213" lon="6.49723">
        <ele>1641</ele>
        <time>2021-05-20T04:17:53Z</time>
      </trkpt>
      <trkpt lat="45.92213" lon="6.49723">
        <ele>1641</ele>
        <time>2021-05-20T04:17:54Z</time>
      </trkpt>
      <trkpt lat="45.92213" lon="6.49723">
        <ele>1640</ele>
        <time>2021-05-20T04:17:55Z</time>
      </trkpt>
      <trkpt lat="45.92213" lon="6.49723">
        <ele>1641</ele>
        <time>2021-05-20T04:17:56Z</time>
      </trkpt>
      <trkpt lat="45.92213" lon="6.49723">
        <ele>1641</ele>
        <time>2021-05-20T04:17:57Z</time>
      </trkpt>
      <trkpt lat="45.92213" lon="6.49723">
        <ele>1641</ele>
        <time>2021-05-20T04:17:58Z</time>
      </trkpt>
      <trkpt lat="45.92213" lon="6.49723">
        <ele>1641</ele>
        <time>2021-05-20T04:17:59Z</time>
      </trkpt>
      <trkpt lat="45.92213" lon="6.49723">
        <ele>1641</ele>
        <time>2021-05-20T04:18:00Z</time>
      </trkpt>
      <trkpt lat="45.92213" lon="6.49723">
        <ele>1641</ele>
        <time>2021-05-20T04:18:01Z</time>
      </trkpt>
      <trkpt lat="45.92213" lon="6.49723">
        <ele>1641</ele>
        <time>2021-05-20T04:18:02Z</time>
      </trkpt>
      <trkpt lat="45.92213" lon="6.49723">
        <ele>1641</ele>
        <time>2021-05-20T04:18:03Z</time>
      </trkpt>
      <trkpt lat="45.92213" lon="6.49723">
        <ele>1641</ele>
        <time>2021-05-20T04:18:04Z</time>
      </trkpt>
      <trkpt lat="45.92213" lon="6.49723">
        <ele>1641</ele>
        <time>2021-05-20T04:18:05Z</time>
      </trkpt>
      <trkpt lat="45.92213" lon="6.49723">
        <ele>1641</ele>
        <time>2021-05-20T04:18:06Z</time>
      </trkpt>
      <trkpt lat="45.92213" lon="6.49723">
        <ele>1641</ele>
        <time>2021-05-20T04:18:07Z</time>
      </trkpt>
      <trkpt lat="45.92213" lon="6.49723">
        <ele>1641</ele>
        <time>2021-05-20T04:18:08Z</time>
      </trkpt>
      <trkpt lat="45.92213" lon="6.49723">
        <ele>1641</ele>
        <time>2021-05-20T04:18:09Z</time>
      </trkpt>
      <trkpt lat="45.92213" lon="6.49723">
        <ele>1641</ele>
        <time>2021-05-20T04:18:10Z</time>
      </trkpt>
      <trkpt lat="45.92213" lon="6.49723">
        <ele>1641</ele>
        <time>2021-05-20T04:18:11Z</time>
      </trkpt>
      <trkpt lat="45.92213" lon="6.49723">
        <ele>1641</ele>
        <time>2021-05-20T04:18:12Z</time>
      </trkpt>
      <trkpt lat="45.92213" lon="6.49723">
        <ele>1641</ele>
        <time>2021-05-20T04:18:13Z</time>
      </trkpt>
      <trkpt lat="45.92213" lon="6.49723">
        <ele>1641</ele>
        <time>2021-05-20T04:18:14Z</time>
      </trkpt>
      <trkpt lat="45.92213" lon="6.49723">
        <ele>1640</ele>
        <time>2021-05-20T04:18:15Z</time>
      </trkpt>
      <trkpt lat="45.92213" lon="6.49723">
        <ele>1640</ele>
        <time>2021-05-20T04:18:16Z</time>
      </trkpt>
      <trkpt lat="45.92213" lon="6.49723">
        <ele>1640</ele>
        <time>2021-05-20T04:18:17Z</time>
      </trkpt>
      <trkpt lat="45.92213" lon="6.49723">
        <ele>1640</ele>
        <time>2021-05-20T04:18:18Z</time>
      </trkpt>
      <trkpt lat="45.92213" lon="6.49723">
        <ele>1640</ele>
        <time>2021-05-20T04:18:19Z</time>
      </trkpt>
      <trkpt lat="45.92213" lon="6.49723">
        <ele>1640</ele>
        <time>2021-05-20T04:18:20Z</time>
      </trkpt>
      <trkpt lat="45.92213" lon="6.49723">
        <ele>1640</ele>
        <time>2021-05-20T04:18:21Z</time>
      </trkpt>
      <trkpt lat="45.92213" lon="6.49723">
        <ele>1640</ele>
        <time>2021-05-20T04:18:22Z</time>
      </trkpt>
      <trkpt lat="45.92213" lon="6.49723">
        <ele>1640</ele>
        <time>2021-05-20T04:18:23Z</time>
      </trkpt>
      <trkpt lat="45.92213" lon="6.49723">
        <ele>1640</ele>
        <time>2021-05-20T04:18:24Z</time>
      </trkpt>
      <trkpt lat="45.92213" lon="6.49723">
        <ele>1640</ele>
        <time>2021-05-20T04:18:25Z</time>
      </trkpt>
      <trkpt lat="45.92214" lon="6.4972">
        <ele>1640</ele>
        <time>2021-05-20T04:18:26Z</time>
      </trkpt>
      <trkpt lat="45.92214" lon="6.4972">
        <ele>1640</ele>
        <time>2021-05-20T04:18:27Z</time>
      </trkpt>
      <trkpt lat="45.92214" lon="6.4972">
        <ele>1640</ele>
        <time>2021-05-20T04:18:28Z</time>
      </trkpt>
      <trkpt lat="45.92214" lon="6.4972">
        <ele>1640</ele>
        <time>2021-05-20T04:18:29Z</time>
      </trkpt>
      <trkpt lat="45.92214" lon="6.4972">
        <ele>1640</ele>
        <time>2021-05-20T04:18:30Z</time>
      </trkpt>
      <trkpt lat="45.92214" lon="6.4972">
        <ele>1640</ele>
        <time>2021-05-20T04:18:31Z</time>
      </trkpt>
      <trkpt lat="45.92214" lon="6.4972">
        <ele>1640</ele>
        <time>2021-05-20T04:18:32Z</time>
      </trkpt>
      <trkpt lat="45.92214" lon="6.4972">
        <ele>1640</ele>
        <time>2021-05-20T04:18:33Z</time>
      </trkpt>
      <trkpt lat="45.92214" lon="6.4972">
        <ele>1640</ele>
        <time>2021-05-20T04:18:34Z</time>
      </trkpt>
      <trkpt lat="45.92214" lon="6.4972">
        <ele>1640</ele>
        <time>2021-05-20T04:18:35Z</time>
      </trkpt>
      <trkpt lat="45.92214" lon="6.4972">
        <ele>1640</ele>
        <time>2021-05-20T04:18:36Z</time>
      </trkpt>
      <trkpt lat="45.92214" lon="6.4972">
        <ele>1640</ele>
        <time>2021-05-20T04:18:37Z</time>
      </trkpt>
      <trkpt lat="45.92214" lon="6.4972">
        <ele>1640</ele>
        <time>2021-05-20T04:18:38Z</time>
      </trkpt>
      <trkpt lat="45.92214" lon="6.4972">
        <ele>1640</ele>
        <time>2021-05-20T04:18:39Z</time>
      </trkpt>
      <trkpt lat="45.92214" lon="6.4972">
        <ele>1640</ele>
        <time>2021-05-20T04:18:40Z</time>
      </trkpt>
      <trkpt lat="45.92214" lon="6.4972">
        <ele>1640</ele>
        <time>2021-05-20T04:18:41Z</time>
      </trkpt>
      <trkpt lat="45.92214" lon="6.4972">
        <ele>1640</ele>
        <time>2021-05-20T04:18:42Z</time>
      </trkpt>
      <trkpt lat="45.92214" lon="6.4972">
        <ele>1640</ele>
        <time>2021-05-20T04:18:43Z</time>
      </trkpt>
      <trkpt lat="45.92214" lon="6.4972">
        <ele>1640</ele>
        <time>2021-05-20T04:18:44Z</time>
      </trkpt>
      <trkpt lat="45.92214" lon="6.4972">
        <ele>1640</ele>
        <time>2021-05-20T04:18:45Z</time>
      </trkpt>
      <trkpt lat="45.92214" lon="6.4972">
        <ele>1640</ele>
        <time>2021-05-20T04:18:46Z</time>
      </trkpt>
      <trkpt lat="45.92214" lon="6.4972">
        <ele>1640</ele>
        <time>2021-05-20T04:18:47Z</time>
      </trkpt>
      <trkpt lat="45.92214" lon="6.4972">
        <ele>1640</ele>
        <time>2021-05-20T04:18:48Z</time>
      </trkpt>
      <trkpt lat="45.92214" lon="6.4972">
        <ele>1640</ele>
        <time>2021-05-20T04:18:49Z</time>
      </trkpt>
      <trkpt lat="45.92214" lon="6.4972">
        <ele>1639</ele>
        <time>2021-05-20T04:18:50Z</time>
      </trkpt>
      <trkpt lat="45.92214" lon="6.4972">
        <ele>1640</ele>
        <time>2021-05-20T04:18:51Z</time>
      </trkpt>
      <trkpt lat="45.92214" lon="6.4972">
        <ele>1640</ele>
        <time>2021-05-20T04:18:52Z</time>
      </trkpt>
      <trkpt lat="45.92214" lon="6.4972">
        <ele>1640</ele>
        <time>2021-05-20T04:18:53Z</time>
      </trkpt>
      <trkpt lat="45.92214" lon="6.4972">
        <ele>1640</ele>
        <time>2021-05-20T04:18:54Z</time>
      </trkpt>
      <trkpt lat="45.92214" lon="6.4972">
        <ele>1640</ele>
        <time>2021-05-20T04:18:55Z</time>
      </trkpt>
      <trkpt lat="45.92214" lon="6.4972">
        <ele>1640</ele>
        <time>2021-05-20T04:18:56Z</time>
      </trkpt>
      <trkpt lat="45.92214" lon="6.4972">
        <ele>1640</ele>
        <time>2021-05-20T04:18:57Z</time>
      </trkpt>
      <trkpt lat="45.92214" lon="6.4972">
        <ele>1640</ele>
        <time>2021-05-20T04:18:58Z</time>
      </trkpt>
      <trkpt lat="45.92214" lon="6.4972">
        <ele>1640</ele>
        <time>2021-05-20T04:18:59Z</time>
      </trkpt>
      <trkpt lat="45.92214" lon="6.4972">
        <ele>1640</ele>
        <time>2021-05-20T04:19:00Z</time>
      </trkpt>
      <trkpt lat="45.92214" lon="6.4972">
        <ele>1640</ele>
        <time>2021-05-20T04:19:01Z</time>
      </trkpt>
      <trkpt lat="45.92214" lon="6.4972">
        <ele>1640</ele>
        <time>2021-05-20T04:19:02Z</time>
      </trkpt>
      <trkpt lat="45.92214" lon="6.4972">
        <ele>1640</ele>
        <time>2021-05-20T04:19:03Z</time>
      </trkpt>
      <trkpt lat="45.92214" lon="6.4972">
        <ele>1640</ele>
        <time>2021-05-20T04:19:04Z</time>
      </trkpt>
      <trkpt lat="45.92214" lon="6.4972">
        <ele>1640</ele>
        <time>2021-05-20T04:19:05Z</time>
      </trkpt>
      <trkpt lat="45.92214" lon="6.4972">
        <ele>1640</ele>
        <time>2021-05-20T04:19:06Z</time>
      </trkpt>
      <trkpt lat="45.92214" lon="6.4972">
        <ele>1639</ele>
        <time>2021-05-20T04:19:07Z</time>
      </trkpt>
      <trkpt lat="45.92214" lon="6.4972">
        <ele>1639</ele>
        <time>2021-05-20T04:19:08Z</time>
      </trkpt>
      <trkpt lat="45.92214" lon="6.4972">
        <ele>1640</ele>
        <time>2021-05-20T04:19:09Z</time>
      </trkpt>
      <trkpt lat="45.92214" lon="6.4972">
        <ele>1640</ele>
        <time>2021-05-20T04:19:10Z</time>
      </trkpt>
      <trkpt lat="45.92214" lon="6.4972">
        <ele>1639</ele>
        <time>2021-05-20T04:19:11Z</time>
      </trkpt>
      <trkpt lat="45.92214" lon="6.4972">
        <ele>1639</ele>
        <time>2021-05-20T04:19:12Z</time>
      </trkpt>
      <trkpt lat="45.92214" lon="6.4972">
        <ele>1639</ele>
        <time>2021-05-20T04:19:13Z</time>
      </trkpt>
      <trkpt lat="45.92214" lon="6.4972">
        <ele>1640</ele>
        <time>2021-05-20T04:19:14Z</time>
      </trkpt>
      <trkpt lat="45.92214" lon="6.4972">
        <ele>1640</ele>
        <time>2021-05-20T04:19:15Z</time>
      </trkpt>
      <trkpt lat="45.92214" lon="6.4972">
        <ele>1640</ele>
        <time>2021-05-20T04:19:16Z</time>
      </trkpt>
      <trkpt lat="45.92214" lon="6.4972">
        <ele>1640</ele>
        <time>2021-05-20T04:19:17Z</time>
      </trkpt>
      <trkpt lat="45.92214" lon="6.4972">
        <ele>1640</ele>
        <time>2021-05-20T04:19:18Z</time>
      </trkpt>
      <trkpt lat="45.92214" lon="6.4972">
        <ele>1640</ele>
        <time>2021-05-20T04:19:19Z</time>
      </trkpt>
      <trkpt lat="45.92214" lon="6.4972">
        <ele>1640</ele>
        <time>2021-05-20T04:19:20Z</time>
      </trkpt>
      <trkpt lat="45.92214" lon="6.4972">
        <ele>1640</ele>
        <time>2021-05-20T04:19:21Z</time>
      </trkpt>
      <trkpt lat="45.92214" lon="6.4972">
        <ele>1640</ele>
        <time>2021-05-20T04:19:22Z</time>
      </trkpt>
      <trkpt lat="45.92214" lon="6.4972">
        <ele>1640</ele>
        <time>2021-05-20T04:19:23Z</time>
      </trkpt>
      <trkpt lat="45.92214" lon="6.4972">
        <ele>1640</ele>
        <time>2021-05-20T04:19:24Z</time>
      </trkpt>
      <trkpt lat="45.92214" lon="6.4972">
        <ele>1640</ele>
        <time>2021-05-20T04:19:25Z</time>
      </trkpt>
      <trkpt lat="45.92214" lon="6.4972">
        <ele>1640</ele>
        <time>2021-05-20T04:19:26Z</time>
      </trkpt>
      <trkpt lat="45.92213" lon="6.49726">
        <ele>1640</ele>
        <time>2021-05-20T04:19:27Z</time>
      </trkpt>
      <trkpt lat="45.92213" lon="6.49726">
        <ele>1640</ele>
        <time>2021-05-20T04:19:28Z</time>
      </trkpt>
      <trkpt lat="45.92213" lon="6.49726">
        <ele>1640</ele>
        <time>2021-05-20T04:19:29Z</time>
      </trkpt>
      <trkpt lat="45.92213" lon="6.49726">
        <ele>1640</ele>
        <time>2021-05-20T04:19:30Z</time>
      </trkpt>
      <trkpt lat="45.92213" lon="6.49726">
        <ele>1640</ele>
        <time>2021-05-20T04:19:31Z</time>
      </trkpt>
      <trkpt lat="45.92213" lon="6.49726">
        <ele>1640</ele>
        <time>2021-05-20T04:19:32Z</time>
      </trkpt>
      <trkpt lat="45.92213" lon="6.49726">
        <ele>1640</ele>
        <time>2021-05-20T04:19:33Z</time>
      </trkpt>
      <trkpt lat="45.92213" lon="6.49726">
        <ele>1639</ele>
        <time>2021-05-20T04:19:34Z</time>
      </trkpt>
      <trkpt lat="45.92213" lon="6.49726">
        <ele>1639</ele>
        <time>2021-05-20T04:19:35Z</time>
      </trkpt>
      <trkpt lat="45.92213" lon="6.49726">
        <ele>1639</ele>
        <time>2021-05-20T04:19:36Z</time>
      </trkpt>
      <trkpt lat="45.92213" lon="6.49726">
        <ele>1639</ele>
        <time>2021-05-20T04:19:37Z</time>
      </trkpt>
      <trkpt lat="45.92213" lon="6.49726">
        <ele>1639</ele>
        <time>2021-05-20T04:19:38Z</time>
      </trkpt>
      <trkpt lat="45.92213" lon="6.49726">
        <ele>1639</ele>
        <time>2021-05-20T04:19:39Z</time>
      </trkpt>
      <trkpt lat="45.92213" lon="6.49726">
        <ele>1640</ele>
        <time>2021-05-20T04:19:40Z</time>
      </trkpt>
      <trkpt lat="45.92213" lon="6.49726">
        <ele>1640</ele>
        <time>2021-05-20T04:19:41Z</time>
      </trkpt>
      <trkpt lat="45.92213" lon="6.49726">
        <ele>1640</ele>
        <time>2021-05-20T04:19:42Z</time>
      </trkpt>
      <trkpt lat="45.92213" lon="6.49726">
        <ele>1639</ele>
        <time>2021-05-20T04:19:43Z</time>
      </trkpt>
      <trkpt lat="45.92213" lon="6.49726">
        <ele>1639</ele>
        <time>2021-05-20T04:19:44Z</time>
      </trkpt>
      <trkpt lat="45.92213" lon="6.49726">
        <ele>1639</ele>
        <time>2021-05-20T04:19:45Z</time>
      </trkpt>
      <trkpt lat="45.92213" lon="6.49726">
        <ele>1639</ele>
        <time>2021-05-20T04:19:46Z</time>
      </trkpt>
      <trkpt lat="45.92213" lon="6.49726">
        <ele>1639</ele>
        <time>2021-05-20T04:19:47Z</time>
      </trkpt>
      <trkpt lat="45.92212" lon="6.49726">
        <ele>1639</ele>
        <time>2021-05-20T04:19:48Z</time>
      </trkpt>
      <trkpt lat="45.92212" lon="6.49726">
        <ele>1639</ele>
        <time>2021-05-20T04:19:49Z</time>
      </trkpt>
      <trkpt lat="45.92212" lon="6.49726">
        <ele>1639</ele>
        <time>2021-05-20T04:19:50Z</time>
      </trkpt>
      <trkpt lat="45.92212" lon="6.49726">
        <ele>1639</ele>
        <time>2021-05-20T04:19:51Z</time>
      </trkpt>
      <trkpt lat="45.92212" lon="6.49726">
        <ele>1639</ele>
        <time>2021-05-20T04:19:52Z</time>
      </trkpt>
      <trkpt lat="45.92212" lon="6.49726">
        <ele>1639</ele>
        <time>2021-05-20T04:19:53Z</time>
      </trkpt>
      <trkpt lat="45.92212" lon="6.49726">
        <ele>1639</ele>
        <time>2021-05-20T04:19:54Z</time>
      </trkpt>
      <trkpt lat="45.92212" lon="6.49726">
        <ele>1639</ele>
        <time>2021-05-20T04:19:55Z</time>
      </trkpt>
      <trkpt lat="45.92212" lon="6.49726">
        <ele>1639</ele>
        <time>2021-05-20T04:19:56Z</time>
      </trkpt>
      <trkpt lat="45.92212" lon="6.49726">
        <ele>1639</ele>
        <time>2021-05-20T04:19:57Z</time>
      </trkpt>
      <trkpt lat="45.92212" lon="6.49726">
        <ele>1639</ele>
        <time>2021-05-20T04:19:58Z</time>
      </trkpt>
      <trkpt lat="45.92212" lon="6.49726">
        <ele>1639</ele>
        <time>2021-05-20T04:19:59Z</time>
      </trkpt>
      <trkpt lat="45.92212" lon="6.49726">
        <ele>1639</ele>
        <time>2021-05-20T04:20:00Z</time>
      </trkpt>
      <trkpt lat="45.92212" lon="6.49726">
        <ele>1639</ele>
        <time>2021-05-20T04:20:01Z</time>
      </trkpt>
      <trkpt lat="45.92212" lon="6.49726">
        <ele>1640</ele>
        <time>2021-05-20T04:20:02Z</time>
      </trkpt>
      <trkpt lat="45.92212" lon="6.49726">
        <ele>1640</ele>
        <time>2021-05-20T04:20:03Z</time>
      </trkpt>
      <trkpt lat="45.92212" lon="6.49726">
        <ele>1640</ele>
        <time>2021-05-20T04:20:04Z</time>
      </trkpt>
      <trkpt lat="45.92212" lon="6.49726">
        <ele>1640</ele>
        <time>2021-05-20T04:20:05Z</time>
      </trkpt>
      <trkpt lat="45.92212" lon="6.49726">
        <ele>1640</ele>
        <time>2021-05-20T04:20:06Z</time>
      </trkpt>
      <trkpt lat="45.92212" lon="6.49726">
        <ele>1640</ele>
        <time>2021-05-20T04:20:07Z</time>
      </trkpt>
      <trkpt lat="45.92212" lon="6.49726">
        <ele>1639</ele>
        <time>2021-05-20T04:20:08Z</time>
      </trkpt>
      <trkpt lat="45.92212" lon="6.49726">
        <ele>1639</ele>
        <time>2021-05-20T04:20:09Z</time>
      </trkpt>
      <trkpt lat="45.92212" lon="6.49726">
        <ele>1639</ele>
        <time>2021-05-20T04:20:10Z</time>
      </trkpt>
      <trkpt lat="45.92212" lon="6.49726">
        <ele>1639</ele>
        <time>2021-05-20T04:20:11Z</time>
      </trkpt>
      <trkpt lat="45.92212" lon="6.49726">
        <ele>1639</ele>
        <time>2021-05-20T04:20:12Z</time>
      </trkpt>
      <trkpt lat="45.92212" lon="6.49725">
        <ele>1639</ele>
        <time>2021-05-20T04:20:13Z</time>
      </trkpt>
      <trkpt lat="45.92211" lon="6.49725">
        <ele>1639</ele>
        <time>2021-05-20T04:20:14Z</time>
      </trkpt>
      <trkpt lat="45.92211" lon="6.49725">
        <ele>1639</ele>
        <time>2021-05-20T04:20:15Z</time>
      </trkpt>
      <trkpt lat="45.92211" lon="6.49725">
        <ele>1639</ele>
        <time>2021-05-20T04:20:16Z</time>
      </trkpt>
      <trkpt lat="45.92211" lon="6.49725">
        <ele>1639</ele>
        <time>2021-05-20T04:20:17Z</time>
      </trkpt>
      <trkpt lat="45.92211" lon="6.49725">
        <ele>1639</ele>
        <time>2021-05-20T04:20:18Z</time>
      </trkpt>
      <trkpt lat="45.92211" lon="6.49725">
        <ele>1639</ele>
        <time>2021-05-20T04:20:19Z</time>
      </trkpt>
      <trkpt lat="45.92211" lon="6.49725">
        <ele>1639</ele>
        <time>2021-05-20T04:20:20Z</time>
      </trkpt>
      <trkpt lat="45.92211" lon="6.49725">
        <ele>1639</ele>
        <time>2021-05-20T04:20:21Z</time>
      </trkpt>
      <trkpt lat="45.92211" lon="6.49725">
        <ele>1639</ele>
        <time>2021-05-20T04:20:22Z</time>
      </trkpt>
      <trkpt lat="45.92211" lon="6.49725">
        <ele>1639</ele>
        <time>2021-05-20T04:20:23Z</time>
      </trkpt>
      <trkpt lat="45.92211" lon="6.49725">
        <ele>1639</ele>
        <time>2021-05-20T04:20:24Z</time>
      </trkpt>
      <trkpt lat="45.92211" lon="6.49725">
        <ele>1639</ele>
        <time>2021-05-20T04:20:25Z</time>
      </trkpt>
      <trkpt lat="45.92211" lon="6.49725">
        <ele>1639</ele>
        <time>2021-05-20T04:20:26Z</time>
      </trkpt>
      <trkpt lat="45.92211" lon="6.49725">
        <ele>1639</ele>
        <time>2021-05-20T04:20:27Z</time>
      </trkpt>
      <trkpt lat="45.92211" lon="6.49725">
        <ele>1639</ele>
        <time>2021-05-20T04:20:28Z</time>
      </trkpt>
      <trkpt lat="45.92211" lon="6.49725">
        <ele>1638</ele>
        <time>2021-05-20T04:20:29Z</time>
      </trkpt>
      <trkpt lat="45.92211" lon="6.49725">
        <ele>1638</ele>
        <time>2021-05-20T04:20:30Z</time>
      </trkpt>
      <trkpt lat="45.92211" lon="6.49725">
        <ele>1638</ele>
        <time>2021-05-20T04:20:31Z</time>
      </trkpt>
      <trkpt lat="45.92211" lon="6.49725">
        <ele>1638</ele>
        <time>2021-05-20T04:20:32Z</time>
      </trkpt>
      <trkpt lat="45.92211" lon="6.49725">
        <ele>1638</ele>
        <time>2021-05-20T04:20:33Z</time>
      </trkpt>
      <trkpt lat="45.92211" lon="6.49725">
        <ele>1638</ele>
        <time>2021-05-20T04:20:34Z</time>
      </trkpt>
      <trkpt lat="45.92211" lon="6.49725">
        <ele>1638</ele>
        <time>2021-05-20T04:20:35Z</time>
      </trkpt>
      <trkpt lat="45.92211" lon="6.49725">
        <ele>1638</ele>
        <time>2021-05-20T04:20:36Z</time>
      </trkpt>
      <trkpt lat="45.92211" lon="6.49725">
        <ele>1638</ele>
        <time>2021-05-20T04:20:37Z</time>
      </trkpt>
      <trkpt lat="45.92211" lon="6.49725">
        <ele>1638</ele>
        <time>2021-05-20T04:20:38Z</time>
      </trkpt>
      <trkpt lat="45.92211" lon="6.49725">
        <ele>1638</ele>
        <time>2021-05-20T04:20:39Z</time>
      </trkpt>
      <trkpt lat="45.92211" lon="6.49725">
        <ele>1638</ele>
        <time>2021-05-20T04:20:40Z</time>
      </trkpt>
      <trkpt lat="45.9221" lon="6.49725">
        <ele>1638</ele>
        <time>2021-05-20T04:20:41Z</time>
      </trkpt>
      <trkpt lat="45.9221" lon="6.49725">
        <ele>1638</ele>
        <time>2021-05-20T04:20:42Z</time>
      </trkpt>
      <trkpt lat="45.9221" lon="6.49725">
        <ele>1638</ele>
        <time>2021-05-20T04:20:43Z</time>
      </trkpt>
      <trkpt lat="45.9221" lon="6.49725">
        <ele>1638</ele>
        <time>2021-05-20T04:20:44Z</time>
      </trkpt>
      <trkpt lat="45.9221" lon="6.49725">
        <ele>1638</ele>
        <time>2021-05-20T04:20:45Z</time>
      </trkpt>
      <trkpt lat="45.9221" lon="6.49725">
        <ele>1638</ele>
        <time>2021-05-20T04:20:46Z</time>
      </trkpt>
      <trkpt lat="45.9221" lon="6.49725">
        <ele>1638</ele>
        <time>2021-05-20T04:20:47Z</time>
      </trkpt>
      <trkpt lat="45.9221" lon="6.49725">
        <ele>1638</ele>
        <time>2021-05-20T04:20:48Z</time>
      </trkpt>
      <trkpt lat="45.9221" lon="6.49725">
        <ele>1638</ele>
        <time>2021-05-20T04:20:49Z</time>
      </trkpt>
      <trkpt lat="45.9221" lon="6.49725">
        <ele>1638</ele>
        <time>2021-05-20T04:20:50Z</time>
      </trkpt>
      <trkpt lat="45.9221" lon="6.49725">
        <ele>1638</ele>
        <time>2021-05-20T04:20:51Z</time>
      </trkpt>
      <trkpt lat="45.9221" lon="6.49725">
        <ele>1638</ele>
        <time>2021-05-20T04:20:52Z</time>
      </trkpt>
      <trkpt lat="45.9221" lon="6.49725">
        <ele>1638</ele>
        <time>2021-05-20T04:20:53Z</time>
      </trkpt>
      <trkpt lat="45.9221" lon="6.49725">
        <ele>1638</ele>
        <time>2021-05-20T04:20:54Z</time>
      </trkpt>
      <trkpt lat="45.9221" lon="6.49725">
        <ele>1638</ele>
        <time>2021-05-20T04:20:55Z</time>
      </trkpt>
      <trkpt lat="45.9221" lon="6.49725">
        <ele>1639</ele>
        <time>2021-05-20T04:20:56Z</time>
      </trkpt>
      <trkpt lat="45.9221" lon="6.49725">
        <ele>1640</ele>
        <time>2021-05-20T04:20:57Z</time>
      </trkpt>
      <trkpt lat="45.9221" lon="6.49725">
        <ele>1640</ele>
        <time>2021-05-20T04:20:58Z</time>
      </trkpt>
      <trkpt lat="45.9221" lon="6.49725">
        <ele>1640</ele>
        <time>2021-05-20T04:20:59Z</time>
      </trkpt>
      <trkpt lat="45.9221" lon="6.49725">
        <ele>1639</ele>
        <time>2021-05-20T04:21:00Z</time>
      </trkpt>
      <trkpt lat="45.9221" lon="6.49725">
        <ele>1639</ele>
        <time>2021-05-20T04:21:01Z</time>
      </trkpt>
      <trkpt lat="45.9221" lon="6.49725">
        <ele>1639</ele>
        <time>2021-05-20T04:21:02Z</time>
      </trkpt>
      <trkpt lat="45.9221" lon="6.49725">
        <ele>1639</ele>
        <time>2021-05-20T04:21:03Z</time>
      </trkpt>
      <trkpt lat="45.9221" lon="6.49725">
        <ele>1639</ele>
        <time>2021-05-20T04:21:04Z</time>
      </trkpt>
      <trkpt lat="45.9221" lon="6.49725">
        <ele>1640</ele>
        <time>2021-05-20T04:21:05Z</time>
      </trkpt>
      <trkpt lat="45.9221" lon="6.49725">
        <ele>1640</ele>
        <time>2021-05-20T04:21:06Z</time>
      </trkpt>
      <trkpt lat="45.9221" lon="6.49725">
        <ele>1640</ele>
        <time>2021-05-20T04:21:07Z</time>
      </trkpt>
      <trkpt lat="45.9221" lon="6.49725">
        <ele>1640</ele>
        <time>2021-05-20T04:21:08Z</time>
      </trkpt>
      <trkpt lat="45.92206" lon="6.49726">
        <ele>1640</ele>
        <time>2021-05-20T04:21:09Z</time>
      </trkpt>
      <trkpt lat="45.92206" lon="6.49726">
        <ele>1641</ele>
        <time>2021-05-20T04:21:10Z</time>
      </trkpt>
      <trkpt lat="45.92206" lon="6.49726">
        <ele>1641</ele>
        <time>2021-05-20T04:21:11Z</time>
      </trkpt>
      <trkpt lat="45.92206" lon="6.49726">
        <ele>1641</ele>
        <time>2021-05-20T04:21:12Z</time>
      </trkpt>
      <trkpt lat="45.92202" lon="6.49728">
        <ele>1642</ele>
        <time>2021-05-20T04:21:13Z</time>
      </trkpt>
      <trkpt lat="45.92202" lon="6.49728">
        <ele>1642</ele>
        <time>2021-05-20T04:21:14Z</time>
      </trkpt>
      <trkpt lat="45.92202" lon="6.49728">
        <ele>1642</ele>
        <time>2021-05-20T04:21:15Z</time>
      </trkpt>
      <trkpt lat="45.92201" lon="6.49729">
        <ele>1642</ele>
        <time>2021-05-20T04:21:16Z</time>
      </trkpt>
      <trkpt lat="45.922" lon="6.49729">
        <ele>1642</ele>
        <time>2021-05-20T04:21:17Z</time>
      </trkpt>
      <trkpt lat="45.922" lon="6.49729">
        <ele>1642</ele>
        <time>2021-05-20T04:21:18Z</time>
      </trkpt>
      <trkpt lat="45.92199" lon="6.4973">
        <ele>1643</ele>
        <time>2021-05-20T04:21:19Z</time>
      </trkpt>
      <trkpt lat="45.92198" lon="6.4973">
        <ele>1643</ele>
        <time>2021-05-20T04:21:20Z</time>
      </trkpt>
      <trkpt lat="45.92197" lon="6.4973">
        <ele>1643</ele>
        <time>2021-05-20T04:21:21Z</time>
      </trkpt>
      <trkpt lat="45.92197" lon="6.49731">
        <ele>1643</ele>
        <time>2021-05-20T04:21:22Z</time>
      </trkpt>
      <trkpt lat="45.92196" lon="6.49731">
        <ele>1644</ele>
        <time>2021-05-20T04:21:23Z</time>
      </trkpt>
      <trkpt lat="45.92195" lon="6.49731">
        <ele>1644</ele>
        <time>2021-05-20T04:21:24Z</time>
      </trkpt>
      <trkpt lat="45.92195" lon="6.49731">
        <ele>1644</ele>
        <time>2021-05-20T04:21:25Z</time>
      </trkpt>
      <trkpt lat="45.92195" lon="6.49731">
        <ele>1644</ele>
        <time>2021-05-20T04:21:26Z</time>
      </trkpt>
      <trkpt lat="45.92191" lon="6.49733">
        <ele>1645</ele>
        <time>2021-05-20T04:21:27Z</time>
      </trkpt>
      <trkpt lat="45.92191" lon="6.49733">
        <ele>1645</ele>
        <time>2021-05-20T04:21:28Z</time>
      </trkpt>
      <trkpt lat="45.92191" lon="6.49733">
        <ele>1645</ele>
        <time>2021-05-20T04:21:29Z</time>
      </trkpt>
      <trkpt lat="45.92191" lon="6.49733">
        <ele>1645</ele>
        <time>2021-05-20T04:21:30Z</time>
      </trkpt>
      <trkpt lat="45.92191" lon="6.49733">
        <ele>1645</ele>
        <time>2021-05-20T04:21:31Z</time>
      </trkpt>
      <trkpt lat="45.92191" lon="6.49733">
        <ele>1645</ele>
        <time>2021-05-20T04:21:32Z</time>
      </trkpt>
      <trkpt lat="45.92191" lon="6.49733">
        <ele>1645</ele>
        <time>2021-05-20T04:21:33Z</time>
      </trkpt>
      <trkpt lat="45.92191" lon="6.49733">
        <ele>1645</ele>
        <time>2021-05-20T04:21:34Z</time>
      </trkpt>
      <trkpt lat="45.92191" lon="6.49733">
        <ele>1646</ele>
        <time>2021-05-20T04:21:35Z</time>
      </trkpt>
      <trkpt lat="45.92191" lon="6.49738">
        <ele>1646</ele>
        <time>2021-05-20T04:21:36Z</time>
      </trkpt>
      <trkpt lat="45.92191" lon="6.49738">
        <ele>1646</ele>
        <time>2021-05-20T04:21:37Z</time>
      </trkpt>
      <trkpt lat="45.92191" lon="6.49738">
        <ele>1647</ele>
        <time>2021-05-20T04:21:38Z</time>
      </trkpt>
      <trkpt lat="45.92191" lon="6.49738">
        <ele>1647</ele>
        <time>2021-05-20T04:21:39Z</time>
      </trkpt>
      <trkpt lat="45.92191" lon="6.49738">
        <ele>1647</ele>
        <time>2021-05-20T04:21:40Z</time>
      </trkpt>
      <trkpt lat="45.92192" lon="6.49743">
        <ele>1647</ele>
        <time>2021-05-20T04:21:41Z</time>
      </trkpt>
      <trkpt lat="45.92192" lon="6.49743">
        <ele>1648</ele>
        <time>2021-05-20T04:21:42Z</time>
      </trkpt>
      <trkpt lat="45.92192" lon="6.49744">
        <ele>1648</ele>
        <time>2021-05-20T04:21:43Z</time>
      </trkpt>
      <trkpt lat="45.92192" lon="6.49745">
        <ele>1648</ele>
        <time>2021-05-20T04:21:44Z</time>
      </trkpt>
      <trkpt lat="45.92192" lon="6.49746">
        <ele>1648</ele>
        <time>2021-05-20T04:21:45Z</time>
      </trkpt>
      <trkpt lat="45.92192" lon="6.49747">
        <ele>1649</ele>
        <time>2021-05-20T04:21:46Z</time>
      </trkpt>
      <trkpt lat="45.92193" lon="6.49748">
        <ele>1649</ele>
        <time>2021-05-20T04:21:47Z</time>
      </trkpt>
      <trkpt lat="45.92193" lon="6.49748">
        <ele>1649</ele>
        <time>2021-05-20T04:21:48Z</time>
      </trkpt>
      <trkpt lat="45.92193" lon="6.49748">
        <ele>1650</ele>
        <time>2021-05-20T04:21:49Z</time>
      </trkpt>
      <trkpt lat="45.92193" lon="6.49748">
        <ele>1650</ele>
        <time>2021-05-20T04:21:50Z</time>
      </trkpt>
      <trkpt lat="45.92193" lon="6.49753">
        <ele>1650</ele>
        <time>2021-05-20T04:21:51Z</time>
      </trkpt>
      <trkpt lat="45.92193" lon="6.49753">
        <ele>1651</ele>
        <time>2021-05-20T04:21:52Z</time>
      </trkpt>
      <trkpt lat="45.92193" lon="6.49753">
        <ele>1651</ele>
        <time>2021-05-20T04:21:53Z</time>
      </trkpt>
      <trkpt lat="45.92193" lon="6.49753">
        <ele>1651</ele>
        <time>2021-05-20T04:21:54Z</time>
      </trkpt>
      <trkpt lat="45.92193" lon="6.49753">
        <ele>1651</ele>
        <time>2021-05-20T04:21:55Z</time>
      </trkpt>
      <trkpt lat="45.92193" lon="6.49753">
        <ele>1652</ele>
        <time>2021-05-20T04:21:56Z</time>
      </trkpt>
      <trkpt lat="45.92192" lon="6.49759">
        <ele>1652</ele>
        <time>2021-05-20T04:21:57Z</time>
      </trkpt>
      <trkpt lat="45.92192" lon="6.49759">
        <ele>1652</ele>
        <time>2021-05-20T04:21:58Z</time>
      </trkpt>
      <trkpt lat="45.92192" lon="6.49759">
        <ele>1652</ele>
        <time>2021-05-20T04:21:59Z</time>
      </trkpt>
      <trkpt lat="45.92191" lon="6.4976">
        <ele>1653</ele>
        <time>2021-05-20T04:22:00Z</time>
      </trkpt>
      <trkpt lat="45.92191" lon="6.49761">
        <ele>1653</ele>
        <time>2021-05-20T04:22:01Z</time>
      </trkpt>
      <trkpt lat="45.9219" lon="6.49761">
        <ele>1653</ele>
        <time>2021-05-20T04:22:02Z</time>
      </trkpt>
      <trkpt lat="45.9219" lon="6.49762">
        <ele>1654</ele>
        <time>2021-05-20T04:22:03Z</time>
      </trkpt>
      <trkpt lat="45.92189" lon="6.49762">
        <ele>1654</ele>
        <time>2021-05-20T04:22:04Z</time>
      </trkpt>
      <trkpt lat="45.92189" lon="6.49763">
        <ele>1654</ele>
        <time>2021-05-20T04:22:05Z</time>
      </trkpt>
      <trkpt lat="45.92188" lon="6.49763">
        <ele>1654</ele>
        <time>2021-05-20T04:22:06Z</time>
      </trkpt>
      <trkpt lat="45.92187" lon="6.49763">
        <ele>1654</ele>
        <time>2021-05-20T04:22:07Z</time>
      </trkpt>
      <trkpt lat="45.92187" lon="6.49763">
        <ele>1655</ele>
        <time>2021-05-20T04:22:08Z</time>
      </trkpt>
      <trkpt lat="45.92186" lon="6.49763">
        <ele>1655</ele>
        <time>2021-05-20T04:22:09Z</time>
      </trkpt>
      <trkpt lat="45.92185" lon="6.49763">
        <ele>1655</ele>
        <time>2021-05-20T04:22:10Z</time>
      </trkpt>
      <trkpt lat="45.92185" lon="6.49763">
        <ele>1656</ele>
        <time>2021-05-20T04:22:11Z</time>
      </trkpt>
      <trkpt lat="45.92185" lon="6.49763">
        <ele>1656</ele>
        <time>2021-05-20T04:22:12Z</time>
      </trkpt>
      <trkpt lat="45.92185" lon="6.49763">
        <ele>1656</ele>
        <time>2021-05-20T04:22:13Z</time>
      </trkpt>
      <trkpt lat="45.92181" lon="6.49762">
        <ele>1656</ele>
        <time>2021-05-20T04:22:14Z</time>
      </trkpt>
      <trkpt lat="45.92181" lon="6.49762">
        <ele>1657</ele>
        <time>2021-05-20T04:22:15Z</time>
      </trkpt>
      <trkpt lat="45.92181" lon="6.49762">
        <ele>1657</ele>
        <time>2021-05-20T04:22:16Z</time>
      </trkpt>
      <trkpt lat="45.9218" lon="6.49763">
        <ele>1657</ele>
        <time>2021-05-20T04:22:17Z</time>
      </trkpt>
      <trkpt lat="45.92179" lon="6.49763">
        <ele>1657</ele>
        <time>2021-05-20T04:22:18Z</time>
      </trkpt>
      <trkpt lat="45.92178" lon="6.49763">
        <ele>1658</ele>
        <time>2021-05-20T04:22:19Z</time>
      </trkpt>
      <trkpt lat="45.92177" lon="6.49764">
        <ele>1658</ele>
        <time>2021-05-20T04:22:20Z</time>
      </trkpt>
      <trkpt lat="45.92176" lon="6.49764">
        <ele>1658</ele>
        <time>2021-05-20T04:22:21Z</time>
      </trkpt>
      <trkpt lat="45.92176" lon="6.49764">
        <ele>1659</ele>
        <time>2021-05-20T04:22:22Z</time>
      </trkpt>
      <trkpt lat="45.92175" lon="6.49765">
        <ele>1659</ele>
        <time>2021-05-20T04:22:23Z</time>
      </trkpt>
      <trkpt lat="45.92174" lon="6.49765">
        <ele>1659</ele>
        <time>2021-05-20T04:22:24Z</time>
      </trkpt>
      <trkpt lat="45.92173" lon="6.49766">
        <ele>1659</ele>
        <time>2021-05-20T04:22:25Z</time>
      </trkpt>
      <trkpt lat="45.92172" lon="6.49766">
        <ele>1659</ele>
        <time>2021-05-20T04:22:26Z</time>
      </trkpt>
      <trkpt lat="45.92172" lon="6.49766">
        <ele>1660</ele>
        <time>2021-05-20T04:22:27Z</time>
      </trkpt>
      <trkpt lat="45.92171" lon="6.49766">
        <ele>1661</ele>
        <time>2021-05-20T04:22:28Z</time>
      </trkpt>
      <trkpt lat="45.9217" lon="6.49767">
        <ele>1661</ele>
        <time>2021-05-20T04:22:29Z</time>
      </trkpt>
      <trkpt lat="45.9217" lon="6.49767">
        <ele>1661</ele>
        <time>2021-05-20T04:22:30Z</time>
      </trkpt>
      <trkpt lat="45.9217" lon="6.49767">
        <ele>1661</ele>
        <time>2021-05-20T04:22:31Z</time>
      </trkpt>
      <trkpt lat="45.92166" lon="6.49768">
        <ele>1661</ele>
        <time>2021-05-20T04:22:32Z</time>
      </trkpt>
      <trkpt lat="45.92166" lon="6.49768">
        <ele>1661</ele>
        <time>2021-05-20T04:22:33Z</time>
      </trkpt>
      <trkpt lat="45.92165" lon="6.49768">
        <ele>1662</ele>
        <time>2021-05-20T04:22:34Z</time>
      </trkpt>
      <trkpt lat="45.92165" lon="6.49769">
        <ele>1662</ele>
        <time>2021-05-20T04:22:35Z</time>
      </trkpt>
      <trkpt lat="45.92164" lon="6.49769">
        <ele>1662</ele>
        <time>2021-05-20T04:22:36Z</time>
      </trkpt>
      <trkpt lat="45.92163" lon="6.49769">
        <ele>1662</ele>
        <time>2021-05-20T04:22:37Z</time>
      </trkpt>
      <trkpt lat="45.92163" lon="6.49769">
        <ele>1663</ele>
        <time>2021-05-20T04:22:38Z</time>
      </trkpt>
      <trkpt lat="45.92162" lon="6.4977">
        <ele>1663</ele>
        <time>2021-05-20T04:22:39Z</time>
      </trkpt>
      <trkpt lat="45.92162" lon="6.4977">
        <ele>1663</ele>
        <time>2021-05-20T04:22:40Z</time>
      </trkpt>
      <trkpt lat="45.92162" lon="6.4977">
        <ele>1664</ele>
        <time>2021-05-20T04:22:41Z</time>
      </trkpt>
      <trkpt lat="45.92162" lon="6.4977">
        <ele>1664</ele>
        <time>2021-05-20T04:22:42Z</time>
      </trkpt>
      <trkpt lat="45.92158" lon="6.49771">
        <ele>1664</ele>
        <time>2021-05-20T04:22:43Z</time>
      </trkpt>
      <trkpt lat="45.92158" lon="6.49771">
        <ele>1665</ele>
        <time>2021-05-20T04:22:44Z</time>
      </trkpt>
      <trkpt lat="45.92158" lon="6.49772">
        <ele>1665</ele>
        <time>2021-05-20T04:22:45Z</time>
      </trkpt>
      <trkpt lat="45.92157" lon="6.49772">
        <ele>1665</ele>
        <time>2021-05-20T04:22:46Z</time>
      </trkpt>
      <trkpt lat="45.92156" lon="6.49772">
        <ele>1665</ele>
        <time>2021-05-20T04:22:47Z</time>
      </trkpt>
      <trkpt lat="45.92155" lon="6.49773">
        <ele>1666</ele>
        <time>2021-05-20T04:22:48Z</time>
      </trkpt>
      <trkpt lat="45.92154" lon="6.49773">
        <ele>1666</ele>
        <time>2021-05-20T04:22:49Z</time>
      </trkpt>
      <trkpt lat="45.92154" lon="6.49773">
        <ele>1666</ele>
        <time>2021-05-20T04:22:50Z</time>
      </trkpt>
      <trkpt lat="45.92153" lon="6.49774">
        <ele>1667</ele>
        <time>2021-05-20T04:22:51Z</time>
      </trkpt>
      <trkpt lat="45.92152" lon="6.49774">
        <ele>1667</ele>
        <time>2021-05-20T04:22:52Z</time>
      </trkpt>
      <trkpt lat="45.92151" lon="6.49774">
        <ele>1667</ele>
        <time>2021-05-20T04:22:53Z</time>
      </trkpt>
      <trkpt lat="45.9215" lon="6.49774">
        <ele>1667</ele>
        <time>2021-05-20T04:22:54Z</time>
      </trkpt>
      <trkpt lat="45.9215" lon="6.49775">
        <ele>1667</ele>
        <time>2021-05-20T04:22:55Z</time>
      </trkpt>
      <trkpt lat="45.92149" lon="6.49776">
        <ele>1667</ele>
        <time>2021-05-20T04:22:56Z</time>
      </trkpt>
      <trkpt lat="45.92148" lon="6.49776">
        <ele>1668</ele>
        <time>2021-05-20T04:22:57Z</time>
      </trkpt>
      <trkpt lat="45.92147" lon="6.49777">
        <ele>1668</ele>
        <time>2021-05-20T04:22:58Z</time>
      </trkpt>
      <trkpt lat="45.92147" lon="6.49778">
        <ele>1669</ele>
        <time>2021-05-20T04:22:59Z</time>
      </trkpt>
      <trkpt lat="45.92147" lon="6.49778">
        <ele>1669</ele>
        <time>2021-05-20T04:23:00Z</time>
      </trkpt>
      <trkpt lat="45.92147" lon="6.49778">
        <ele>1669</ele>
        <time>2021-05-20T04:23:01Z</time>
      </trkpt>
      <trkpt lat="45.92143" lon="6.4978">
        <ele>1669</ele>
        <time>2021-05-20T04:23:02Z</time>
      </trkpt>
      <trkpt lat="45.92143" lon="6.4978">
        <ele>1670</ele>
        <time>2021-05-20T04:23:03Z</time>
      </trkpt>
      <trkpt lat="45.92143" lon="6.49781">
        <ele>1670</ele>
        <time>2021-05-20T04:23:04Z</time>
      </trkpt>
      <trkpt lat="45.92142" lon="6.49781">
        <ele>1670</ele>
        <time>2021-05-20T04:23:05Z</time>
      </trkpt>
      <trkpt lat="45.92142" lon="6.49782">
        <ele>1671</ele>
        <time>2021-05-20T04:23:06Z</time>
      </trkpt>
      <trkpt lat="45.92141" lon="6.49783">
        <ele>1671</ele>
        <time>2021-05-20T04:23:07Z</time>
      </trkpt>
      <trkpt lat="45.92141" lon="6.49783">
        <ele>1671</ele>
        <time>2021-05-20T04:23:08Z</time>
      </trkpt>
      <trkpt lat="45.92141" lon="6.49783">
        <ele>1671</ele>
        <time>2021-05-20T04:23:09Z</time>
      </trkpt>
      <trkpt lat="45.92141" lon="6.49783">
        <ele>1672</ele>
        <time>2021-05-20T04:23:10Z</time>
      </trkpt>
      <trkpt lat="45.92141" lon="6.49783">
        <ele>1672</ele>
        <time>2021-05-20T04:23:11Z</time>
      </trkpt>
      <trkpt lat="45.92138" lon="6.49787">
        <ele>1672</ele>
        <time>2021-05-20T04:23:12Z</time>
      </trkpt>
      <trkpt lat="45.92138" lon="6.49787">
        <ele>1672</ele>
        <time>2021-05-20T04:23:13Z</time>
      </trkpt>
      <trkpt lat="45.92138" lon="6.49787">
        <ele>1672</ele>
        <time>2021-05-20T04:23:14Z</time>
      </trkpt>
      <trkpt lat="45.92138" lon="6.49787">
        <ele>1672</ele>
        <time>2021-05-20T04:23:15Z</time>
      </trkpt>
      <trkpt lat="45.92134" lon="6.4979">
        <ele>1672</ele>
        <time>2021-05-20T04:23:16Z</time>
      </trkpt>
      <trkpt lat="45.92134" lon="6.4979">
        <ele>1673</ele>
        <time>2021-05-20T04:23:17Z</time>
      </trkpt>
      <trkpt lat="45.92134" lon="6.49791">
        <ele>1673</ele>
        <time>2021-05-20T04:23:18Z</time>
      </trkpt>
      <trkpt lat="45.92134" lon="6.49791">
        <ele>1673</ele>
        <time>2021-05-20T04:23:19Z</time>
      </trkpt>
      <trkpt lat="45.92133" lon="6.49792">
        <ele>1673</ele>
        <time>2021-05-20T04:23:20Z</time>
      </trkpt>
      <trkpt lat="45.92133" lon="6.49793">
        <ele>1674</ele>
        <time>2021-05-20T04:23:21Z</time>
      </trkpt>
      <trkpt lat="45.92132" lon="6.49794">
        <ele>1674</ele>
        <time>2021-05-20T04:23:22Z</time>
      </trkpt>
      <trkpt lat="45.92132" lon="6.49794">
        <ele>1674</ele>
        <time>2021-05-20T04:23:23Z</time>
      </trkpt>
      <trkpt lat="45.92132" lon="6.49794">
        <ele>1675</ele>
        <time>2021-05-20T04:23:24Z</time>
      </trkpt>
      <trkpt lat="45.92132" lon="6.49794">
        <ele>1675</ele>
        <time>2021-05-20T04:23:25Z</time>
      </trkpt>
      <trkpt lat="45.92129" lon="6.49797">
        <ele>1675</ele>
        <time>2021-05-20T04:23:26Z</time>
      </trkpt>
      <trkpt lat="45.92129" lon="6.49797">
        <ele>1676</ele>
        <time>2021-05-20T04:23:27Z</time>
      </trkpt>
      <trkpt lat="45.92128" lon="6.49797">
        <ele>1676</ele>
        <time>2021-05-20T04:23:28Z</time>
      </trkpt>
      <trkpt lat="45.92127" lon="6.49797">
        <ele>1676</ele>
        <time>2021-05-20T04:23:29Z</time>
      </trkpt>
      <trkpt lat="45.92126" lon="6.49797">
        <ele>1676</ele>
        <time>2021-05-20T04:23:30Z</time>
      </trkpt>
      <trkpt lat="45.92126" lon="6.49798">
        <ele>1677</ele>
        <time>2021-05-20T04:23:31Z</time>
      </trkpt>
      <trkpt lat="45.92125" lon="6.49798">
        <ele>1677</ele>
        <time>2021-05-20T04:23:32Z</time>
      </trkpt>
      <trkpt lat="45.92125" lon="6.49798">
        <ele>1677</ele>
        <time>2021-05-20T04:23:33Z</time>
      </trkpt>
      <trkpt lat="45.92125" lon="6.49798">
        <ele>1677</ele>
        <time>2021-05-20T04:23:34Z</time>
      </trkpt>
      <trkpt lat="45.92125" lon="6.49798">
        <ele>1677</ele>
        <time>2021-05-20T04:23:35Z</time>
      </trkpt>
      <trkpt lat="45.92121" lon="6.49798">
        <ele>1678</ele>
        <time>2021-05-20T04:23:36Z</time>
      </trkpt>
      <trkpt lat="45.92121" lon="6.49798">
        <ele>1679</ele>
        <time>2021-05-20T04:23:37Z</time>
      </trkpt>
      <trkpt lat="45.9212" lon="6.49799">
        <ele>1679</ele>
        <time>2021-05-20T04:23:38Z</time>
      </trkpt>
      <trkpt lat="45.9212" lon="6.49799">
        <ele>1679</ele>
        <time>2021-05-20T04:23:39Z</time>
      </trkpt>
      <trkpt lat="45.92119" lon="6.49799">
        <ele>1680</ele>
        <time>2021-05-20T04:23:40Z</time>
      </trkpt>
      <trkpt lat="45.92119" lon="6.49799">
        <ele>1680</ele>
        <time>2021-05-20T04:23:41Z</time>
      </trkpt>
      <trkpt lat="45.92118" lon="6.498">
        <ele>1680</ele>
        <time>2021-05-20T04:23:42Z</time>
      </trkpt>
      <trkpt lat="45.92118" lon="6.498">
        <ele>1680</ele>
        <time>2021-05-20T04:23:43Z</time>
      </trkpt>
      <trkpt lat="45.92118" lon="6.498">
        <ele>1681</ele>
        <time>2021-05-20T04:23:44Z</time>
      </trkpt>
      <trkpt lat="45.92118" lon="6.498">
        <ele>1681</ele>
        <time>2021-05-20T04:23:45Z</time>
      </trkpt>
      <trkpt lat="45.92118" lon="6.498">
        <ele>1681</ele>
        <time>2021-05-20T04:23:46Z</time>
      </trkpt>
      <trkpt lat="45.92115" lon="6.49801">
        <ele>1682</ele>
        <time>2021-05-20T04:23:47Z</time>
      </trkpt>
      <trkpt lat="45.92115" lon="6.49801">
        <ele>1682</ele>
        <time>2021-05-20T04:23:48Z</time>
      </trkpt>
      <trkpt lat="45.92115" lon="6.49801">
        <ele>1682</ele>
        <time>2021-05-20T04:23:49Z</time>
      </trkpt>
      <trkpt lat="45.92115" lon="6.49801">
        <ele>1682</ele>
        <time>2021-05-20T04:23:50Z</time>
      </trkpt>
      <trkpt lat="45.92115" lon="6.49801">
        <ele>1683</ele>
        <time>2021-05-20T04:23:51Z</time>
      </trkpt>
      <trkpt lat="45.92112" lon="6.49803">
        <ele>1683</ele>
        <time>2021-05-20T04:23:52Z</time>
      </trkpt>
      <trkpt lat="45.92112" lon="6.49803">
        <ele>1683</ele>
        <time>2021-05-20T04:23:53Z</time>
      </trkpt>
      <trkpt lat="45.92112" lon="6.49803">
        <ele>1683</ele>
        <time>2021-05-20T04:23:54Z</time>
      </trkpt>
      <trkpt lat="45.92112" lon="6.49803">
        <ele>1683</ele>
        <time>2021-05-20T04:23:55Z</time>
      </trkpt>
      <trkpt lat="45.92112" lon="6.49803">
        <ele>1684</ele>
        <time>2021-05-20T04:23:56Z</time>
      </trkpt>
      <trkpt lat="45.92112" lon="6.49803">
        <ele>1684</ele>
        <time>2021-05-20T04:23:57Z</time>
      </trkpt>
      <trkpt lat="45.92108" lon="6.49803">
        <ele>1685</ele>
        <time>2021-05-20T04:23:58Z</time>
      </trkpt>
      <trkpt lat="45.92107" lon="6.49803">
        <ele>1685</ele>
        <time>2021-05-20T04:23:59Z</time>
      </trkpt>
      <trkpt lat="45.92106" lon="6.49803">
        <ele>1686</ele>
        <time>2021-05-20T04:24:00Z</time>
      </trkpt>
      <trkpt lat="45.92106" lon="6.49804">
        <ele>1686</ele>
        <time>2021-05-20T04:24:01Z</time>
      </trkpt>
      <trkpt lat="45.92105" lon="6.49804">
        <ele>1686</ele>
        <time>2021-05-20T04:24:02Z</time>
      </trkpt>
      <trkpt lat="45.92105" lon="6.49804">
        <ele>1686</ele>
        <time>2021-05-20T04:24:03Z</time>
      </trkpt>
      <trkpt lat="45.92104" lon="6.49804">
        <ele>1686</ele>
        <time>2021-05-20T04:24:04Z</time>
      </trkpt>
      <trkpt lat="45.92104" lon="6.49804">
        <ele>1687</ele>
        <time>2021-05-20T04:24:05Z</time>
      </trkpt>
      <trkpt lat="45.92104" lon="6.49804">
        <ele>1687</ele>
        <time>2021-05-20T04:24:06Z</time>
      </trkpt>
      <trkpt lat="45.92104" lon="6.49804">
        <ele>1687</ele>
        <time>2021-05-20T04:24:07Z</time>
      </trkpt>
      <trkpt lat="45.92101" lon="6.49805">
        <ele>1687</ele>
        <time>2021-05-20T04:24:08Z</time>
      </trkpt>
      <trkpt lat="45.92101" lon="6.49805">
        <ele>1688</ele>
        <time>2021-05-20T04:24:09Z</time>
      </trkpt>
      <trkpt lat="45.92101" lon="6.49805">
        <ele>1688</ele>
        <time>2021-05-20T04:24:10Z</time>
      </trkpt>
      <trkpt lat="45.92101" lon="6.49805">
        <ele>1688</ele>
        <time>2021-05-20T04:24:11Z</time>
      </trkpt>
      <trkpt lat="45.92101" lon="6.49805">
        <ele>1689</ele>
        <time>2021-05-20T04:24:12Z</time>
      </trkpt>
      <trkpt lat="45.92101" lon="6.49805">
        <ele>1689</ele>
        <time>2021-05-20T04:24:13Z</time>
      </trkpt>
      <trkpt lat="45.92097" lon="6.49807">
        <ele>1689</ele>
        <time>2021-05-20T04:24:14Z</time>
      </trkpt>
      <trkpt lat="45.92097" lon="6.49807">
        <ele>1689</ele>
        <time>2021-05-20T04:24:15Z</time>
      </trkpt>
      <trkpt lat="45.92097" lon="6.49808">
        <ele>1689</ele>
        <time>2021-05-20T04:24:16Z</time>
      </trkpt>
      <trkpt lat="45.92096" lon="6.49808">
        <ele>1690</ele>
        <time>2021-05-20T04:24:17Z</time>
      </trkpt>
      <trkpt lat="45.92096" lon="6.49809">
        <ele>1691</ele>
        <time>2021-05-20T04:24:18Z</time>
      </trkpt>
      <trkpt lat="45.92095" lon="6.4981">
        <ele>1691</ele>
        <time>2021-05-20T04:24:19Z</time>
      </trkpt>
      <trkpt lat="45.92095" lon="6.4981">
        <ele>1691</ele>
        <time>2021-05-20T04:24:20Z</time>
      </trkpt>
      <trkpt lat="45.92095" lon="6.4981">
        <ele>1691</ele>
        <time>2021-05-20T04:24:21Z</time>
      </trkpt>
      <trkpt lat="45.92095" lon="6.4981">
        <ele>1691</ele>
        <time>2021-05-20T04:24:22Z</time>
      </trkpt>
      <trkpt lat="45.92095" lon="6.4981">
        <ele>1692</ele>
        <time>2021-05-20T04:24:23Z</time>
      </trkpt>
      <trkpt lat="45.92095" lon="6.4981">
        <ele>1692</ele>
        <time>2021-05-20T04:24:24Z</time>
      </trkpt>
      <trkpt lat="45.92092" lon="6.49814">
        <ele>1692</ele>
        <time>2021-05-20T04:24:25Z</time>
      </trkpt>
      <trkpt lat="45.92092" lon="6.49814">
        <ele>1693</ele>
        <time>2021-05-20T04:24:26Z</time>
      </trkpt>
      <trkpt lat="45.92092" lon="6.49814">
        <ele>1693</ele>
        <time>2021-05-20T04:24:27Z</time>
      </trkpt>
      <trkpt lat="45.92092" lon="6.49814">
        <ele>1693</ele>
        <time>2021-05-20T04:24:28Z</time>
      </trkpt>
      <trkpt lat="45.92092" lon="6.49814">
        <ele>1694</ele>
        <time>2021-05-20T04:24:29Z</time>
      </trkpt>
      <trkpt lat="45.9209" lon="6.49817">
        <ele>1694</ele>
        <time>2021-05-20T04:24:30Z</time>
      </trkpt>
      <trkpt lat="45.9209" lon="6.49817">
        <ele>1694</ele>
        <time>2021-05-20T04:24:31Z</time>
      </trkpt>
      <trkpt lat="45.9209" lon="6.49817">
        <ele>1694</ele>
        <time>2021-05-20T04:24:32Z</time>
      </trkpt>
      <trkpt lat="45.9209" lon="6.49817">
        <ele>1695</ele>
        <time>2021-05-20T04:24:33Z</time>
      </trkpt>
      <trkpt lat="45.9209" lon="6.49817">
        <ele>1695</ele>
        <time>2021-05-20T04:24:34Z</time>
      </trkpt>
      <trkpt lat="45.9209" lon="6.49817">
        <ele>1695</ele>
        <time>2021-05-20T04:24:35Z</time>
      </trkpt>
      <trkpt lat="45.92087" lon="6.49822">
        <ele>1695</ele>
        <time>2021-05-20T04:24:36Z</time>
      </trkpt>
      <trkpt lat="45.92087" lon="6.49822">
        <ele>1695</ele>
        <time>2021-05-20T04:24:37Z</time>
      </trkpt>
      <trkpt lat="45.92087" lon="6.49822">
        <ele>1696</ele>
        <time>2021-05-20T04:24:38Z</time>
      </trkpt>
      <trkpt lat="45.92086" lon="6.49823">
        <ele>1696</ele>
        <time>2021-05-20T04:24:39Z</time>
      </trkpt>
      <trkpt lat="45.92086" lon="6.49824">
        <ele>1696</ele>
        <time>2021-05-20T04:24:40Z</time>
      </trkpt>
      <trkpt lat="45.92085" lon="6.49825">
        <ele>1696</ele>
        <time>2021-05-20T04:24:41Z</time>
      </trkpt>
      <trkpt lat="45.92085" lon="6.49826">
        <ele>1697</ele>
        <time>2021-05-20T04:24:42Z</time>
      </trkpt>
      <trkpt lat="45.92085" lon="6.49826">
        <ele>1697</ele>
        <time>2021-05-20T04:24:43Z</time>
      </trkpt>
      <trkpt lat="45.92085" lon="6.49826">
        <ele>1697</ele>
        <time>2021-05-20T04:24:44Z</time>
      </trkpt>
      <trkpt lat="45.92085" lon="6.49826">
        <ele>1697</ele>
        <time>2021-05-20T04:24:45Z</time>
      </trkpt>
      <trkpt lat="45.92081" lon="6.49828">
        <ele>1697</ele>
        <time>2021-05-20T04:24:46Z</time>
      </trkpt>
      <trkpt lat="45.92081" lon="6.49828">
        <ele>1697</ele>
        <time>2021-05-20T04:24:47Z</time>
      </trkpt>
      <trkpt lat="45.92081" lon="6.49828">
        <ele>1698</ele>
        <time>2021-05-20T04:24:48Z</time>
      </trkpt>
      <trkpt lat="45.92081" lon="6.49828">
        <ele>1698</ele>
        <time>2021-05-20T04:24:49Z</time>
      </trkpt>
      <trkpt lat="45.92081" lon="6.49828">
        <ele>1698</ele>
        <time>2021-05-20T04:24:50Z</time>
      </trkpt>
      <trkpt lat="45.92081" lon="6.49828">
        <ele>1698</ele>
        <time>2021-05-20T04:24:51Z</time>
      </trkpt>
      <trkpt lat="45.92078" lon="6.4983">
        <ele>1699</ele>
        <time>2021-05-20T04:24:52Z</time>
      </trkpt>
      <trkpt lat="45.92078" lon="6.4983">
        <ele>1699</ele>
        <time>2021-05-20T04:24:53Z</time>
      </trkpt>
      <trkpt lat="45.92078" lon="6.4983">
        <ele>1700</ele>
        <time>2021-05-20T04:24:54Z</time>
      </trkpt>
      <trkpt lat="45.92078" lon="6.4983">
        <ele>1700</ele>
        <time>2021-05-20T04:24:55Z</time>
      </trkpt>
      <trkpt lat="45.92078" lon="6.4983">
        <ele>1700</ele>
        <time>2021-05-20T04:24:56Z</time>
      </trkpt>
      <trkpt lat="45.92078" lon="6.4983">
        <ele>1700</ele>
        <time>2021-05-20T04:24:57Z</time>
      </trkpt>
      <trkpt lat="45.92076" lon="6.49833">
        <ele>1701</ele>
        <time>2021-05-20T04:24:58Z</time>
      </trkpt>
      <trkpt lat="45.92076" lon="6.49833">
        <ele>1701</ele>
        <time>2021-05-20T04:24:59Z</time>
      </trkpt>
      <trkpt lat="45.92075" lon="6.49833">
        <ele>1701</ele>
        <time>2021-05-20T04:25:00Z</time>
      </trkpt>
      <trkpt lat="45.92075" lon="6.49834">
        <ele>1702</ele>
        <time>2021-05-20T04:25:01Z</time>
      </trkpt>
      <trkpt lat="45.92074" lon="6.49835">
        <ele>1702</ele>
        <time>2021-05-20T04:25:02Z</time>
      </trkpt>
      <trkpt lat="45.92074" lon="6.49836">
        <ele>1702</ele>
        <time>2021-05-20T04:25:03Z</time>
      </trkpt>
      <trkpt lat="45.92073" lon="6.49837">
        <ele>1702</ele>
        <time>2021-05-20T04:25:04Z</time>
      </trkpt>
      <trkpt lat="45.92073" lon="6.49837">
        <ele>1702</ele>
        <time>2021-05-20T04:25:05Z</time>
      </trkpt>
      <trkpt lat="45.92073" lon="6.49837">
        <ele>1702</ele>
        <time>2021-05-20T04:25:06Z</time>
      </trkpt>
      <trkpt lat="45.92073" lon="6.49837">
        <ele>1703</ele>
        <time>2021-05-20T04:25:07Z</time>
      </trkpt>
      <trkpt lat="45.92073" lon="6.49837">
        <ele>1703</ele>
        <time>2021-05-20T04:25:08Z</time>
      </trkpt>
      <trkpt lat="45.9207" lon="6.4984">
        <ele>1704</ele>
        <time>2021-05-20T04:25:09Z</time>
      </trkpt>
      <trkpt lat="45.9207" lon="6.4984">
        <ele>1704</ele>
        <time>2021-05-20T04:25:10Z</time>
      </trkpt>
      <trkpt lat="45.9207" lon="6.4984">
        <ele>1704</ele>
        <time>2021-05-20T04:25:11Z</time>
      </trkpt>
      <trkpt lat="45.92069" lon="6.4984">
        <ele>1705</ele>
        <time>2021-05-20T04:25:12Z</time>
      </trkpt>
      <trkpt lat="45.92069" lon="6.4984">
        <ele>1705</ele>
        <time>2021-05-20T04:25:13Z</time>
      </trkpt>
      <trkpt lat="45.92068" lon="6.4984">
        <ele>1705</ele>
        <time>2021-05-20T04:25:14Z</time>
      </trkpt>
      <trkpt lat="45.92067" lon="6.4984">
        <ele>1706</ele>
        <time>2021-05-20T04:25:15Z</time>
      </trkpt>
      <trkpt lat="45.92067" lon="6.4984">
        <ele>1706</ele>
        <time>2021-05-20T04:25:16Z</time>
      </trkpt>
      <trkpt lat="45.92067" lon="6.4984">
        <ele>1706</ele>
        <time>2021-05-20T04:25:17Z</time>
      </trkpt>
      <trkpt lat="45.92067" lon="6.4984">
        <ele>1706</ele>
        <time>2021-05-20T04:25:18Z</time>
      </trkpt>
      <trkpt lat="45.92067" lon="6.4984">
        <ele>1707</ele>
        <time>2021-05-20T04:25:19Z</time>
      </trkpt>
      <trkpt lat="45.92067" lon="6.4984">
        <ele>1707</ele>
        <time>2021-05-20T04:25:20Z</time>
      </trkpt>
      <trkpt lat="45.92067" lon="6.4984">
        <ele>1707</ele>
        <time>2021-05-20T04:25:21Z</time>
      </trkpt>
      <trkpt lat="45.92063" lon="6.49843">
        <ele>1707</ele>
        <time>2021-05-20T04:25:22Z</time>
      </trkpt>
      <trkpt lat="45.92063" lon="6.49843">
        <ele>1708</ele>
        <time>2021-05-20T04:25:23Z</time>
      </trkpt>
      <trkpt lat="45.92063" lon="6.49843">
        <ele>1708</ele>
        <time>2021-05-20T04:25:24Z</time>
      </trkpt>
      <trkpt lat="45.92062" lon="6.49844">
        <ele>1709</ele>
        <time>2021-05-20T04:25:25Z</time>
      </trkpt>
      <trkpt lat="45.92062" lon="6.49845">
        <ele>1709</ele>
        <time>2021-05-20T04:25:26Z</time>
      </trkpt>
      <trkpt lat="45.92062" lon="6.49846">
        <ele>1709</ele>
        <time>2021-05-20T04:25:27Z</time>
      </trkpt>
      <trkpt lat="45.92061" lon="6.49846">
        <ele>1709</ele>
        <time>2021-05-20T04:25:28Z</time>
      </trkpt>
      <trkpt lat="45.92061" lon="6.49846">
        <ele>1710</ele>
        <time>2021-05-20T04:25:29Z</time>
      </trkpt>
      <trkpt lat="45.92061" lon="6.49846">
        <ele>1710</ele>
        <time>2021-05-20T04:25:30Z</time>
      </trkpt>
      <trkpt lat="45.92061" lon="6.49846">
        <ele>1710</ele>
        <time>2021-05-20T04:25:31Z</time>
      </trkpt>
      <trkpt lat="45.92061" lon="6.49846">
        <ele>1710</ele>
        <time>2021-05-20T04:25:32Z</time>
      </trkpt>
      <trkpt lat="45.92061" lon="6.49846">
        <ele>1710</ele>
        <time>2021-05-20T04:25:33Z</time>
      </trkpt>
      <trkpt lat="45.92059" lon="6.49849">
        <ele>1711</ele>
        <time>2021-05-20T04:25:34Z</time>
      </trkpt>
      <trkpt lat="45.92059" lon="6.49849">
        <ele>1712</ele>
        <time>2021-05-20T04:25:35Z</time>
      </trkpt>
      <trkpt lat="45.92058" lon="6.4985">
        <ele>1712</ele>
        <time>2021-05-20T04:25:36Z</time>
      </trkpt>
      <trkpt lat="45.92058" lon="6.4985">
        <ele>1712</ele>
        <time>2021-05-20T04:25:37Z</time>
      </trkpt>
      <trkpt lat="45.92058" lon="6.49851">
        <ele>1712</ele>
        <time>2021-05-20T04:25:38Z</time>
      </trkpt>
      <trkpt lat="45.92058" lon="6.49851">
        <ele>1712</ele>
        <time>2021-05-20T04:25:39Z</time>
      </trkpt>
      <trkpt lat="45.92058" lon="6.49852">
        <ele>1712</ele>
        <time>2021-05-20T04:25:40Z</time>
      </trkpt>
      <trkpt lat="45.92057" lon="6.49852">
        <ele>1713</ele>
        <time>2021-05-20T04:25:41Z</time>
      </trkpt>
      <trkpt lat="45.92057" lon="6.49852">
        <ele>1713</ele>
        <time>2021-05-20T04:25:42Z</time>
      </trkpt>
      <trkpt lat="45.92057" lon="6.49853">
        <ele>1713</ele>
        <time>2021-05-20T04:25:43Z</time>
      </trkpt>
      <trkpt lat="45.92057" lon="6.49853">
        <ele>1714</ele>
        <time>2021-05-20T04:25:44Z</time>
      </trkpt>
      <trkpt lat="45.92057" lon="6.49854">
        <ele>1714</ele>
        <time>2021-05-20T04:25:45Z</time>
      </trkpt>
      <trkpt lat="45.92056" lon="6.49855">
        <ele>1715</ele>
        <time>2021-05-20T04:25:46Z</time>
      </trkpt>
      <trkpt lat="45.92056" lon="6.49856">
        <ele>1715</ele>
        <time>2021-05-20T04:25:47Z</time>
      </trkpt>
      <trkpt lat="45.92055" lon="6.49857">
        <ele>1716</ele>
        <time>2021-05-20T04:25:48Z</time>
      </trkpt>
      <trkpt lat="45.92055" lon="6.49857">
        <ele>1716</ele>
        <time>2021-05-20T04:25:49Z</time>
      </trkpt>
      <trkpt lat="45.92054" lon="6.49858">
        <ele>1717</ele>
        <time>2021-05-20T04:25:50Z</time>
      </trkpt>
      <trkpt lat="45.92054" lon="6.49858">
        <ele>1717</ele>
        <time>2021-05-20T04:25:51Z</time>
      </trkpt>
      <trkpt lat="45.92054" lon="6.49858">
        <ele>1717</ele>
        <time>2021-05-20T04:25:52Z</time>
      </trkpt>
      <trkpt lat="45.92054" lon="6.49858">
        <ele>1718</ele>
        <time>2021-05-20T04:25:53Z</time>
      </trkpt>
      <trkpt lat="45.92052" lon="6.49863">
        <ele>1718</ele>
        <time>2021-05-20T04:25:54Z</time>
      </trkpt>
      <trkpt lat="45.92052" lon="6.49863">
        <ele>1718</ele>
        <time>2021-05-20T04:25:55Z</time>
      </trkpt>
      <trkpt lat="45.92051" lon="6.49864">
        <ele>1718</ele>
        <time>2021-05-20T04:25:56Z</time>
      </trkpt>
      <trkpt lat="45.92051" lon="6.49865">
        <ele>1718</ele>
        <time>2021-05-20T04:25:57Z</time>
      </trkpt>
      <trkpt lat="45.9205" lon="6.49865">
        <ele>1718</ele>
        <time>2021-05-20T04:25:58Z</time>
      </trkpt>
      <trkpt lat="45.9205" lon="6.49866">
        <ele>1718</ele>
        <time>2021-05-20T04:25:59Z</time>
      </trkpt>
      <trkpt lat="45.92049" lon="6.49867">
        <ele>1718</ele>
        <time>2021-05-20T04:26:00Z</time>
      </trkpt>
      <trkpt lat="45.92049" lon="6.49867">
        <ele>1718</ele>
        <time>2021-05-20T04:26:01Z</time>
      </trkpt>
      <trkpt lat="45.92049" lon="6.49867">
        <ele>1718</ele>
        <time>2021-05-20T04:26:02Z</time>
      </trkpt>
      <trkpt lat="45.92049" lon="6.49867">
        <ele>1718</ele>
        <time>2021-05-20T04:26:03Z</time>
      </trkpt>
      <trkpt lat="45.92048" lon="6.49872">
        <ele>1719</ele>
        <time>2021-05-20T04:26:04Z</time>
      </trkpt>
      <trkpt lat="45.92048" lon="6.49872">
        <ele>1719</ele>
        <time>2021-05-20T04:26:05Z</time>
      </trkpt>
      <trkpt lat="45.92048" lon="6.49872">
        <ele>1719</ele>
        <time>2021-05-20T04:26:06Z</time>
      </trkpt>
      <trkpt lat="45.92048" lon="6.49872">
        <ele>1720</ele>
        <time>2021-05-20T04:26:07Z</time>
      </trkpt>
      <trkpt lat="45.92048" lon="6.49872">
        <ele>1720</ele>
        <time>2021-05-20T04:26:08Z</time>
      </trkpt>
      <trkpt lat="45.92046" lon="6.49876">
        <ele>1720</ele>
        <time>2021-05-20T04:26:09Z</time>
      </trkpt>
      <trkpt lat="45.92046" lon="6.49876">
        <ele>1720</ele>
        <time>2021-05-20T04:26:10Z</time>
      </trkpt>
      <trkpt lat="45.92045" lon="6.49877">
        <ele>1720</ele>
        <time>2021-05-20T04:26:11Z</time>
      </trkpt>
      <trkpt lat="45.92045" lon="6.49878">
        <ele>1721</ele>
        <time>2021-05-20T04:26:12Z</time>
      </trkpt>
      <trkpt lat="45.92044" lon="6.49879">
        <ele>1721</ele>
        <time>2021-05-20T04:26:13Z</time>
      </trkpt>
      <trkpt lat="45.92044" lon="6.4988">
        <ele>1722</ele>
        <time>2021-05-20T04:26:14Z</time>
      </trkpt>
      <trkpt lat="45.92043" lon="6.49881">
        <ele>1722</ele>
        <time>2021-05-20T04:26:15Z</time>
      </trkpt>
      <trkpt lat="45.92043" lon="6.49882">
        <ele>1722</ele>
        <time>2021-05-20T04:26:16Z</time>
      </trkpt>
      <trkpt lat="45.92043" lon="6.49883">
        <ele>1722</ele>
        <time>2021-05-20T04:26:17Z</time>
      </trkpt>
      <trkpt lat="45.92042" lon="6.49884">
        <ele>1722</ele>
        <time>2021-05-20T04:26:18Z</time>
      </trkpt>
      <trkpt lat="45.92042" lon="6.49885">
        <ele>1723</ele>
        <time>2021-05-20T04:26:19Z</time>
      </trkpt>
      <trkpt lat="45.92042" lon="6.49885">
        <ele>1723</ele>
        <time>2021-05-20T04:26:20Z</time>
      </trkpt>
      <trkpt lat="45.92041" lon="6.49886">
        <ele>1723</ele>
        <time>2021-05-20T04:26:21Z</time>
      </trkpt>
      <trkpt lat="45.92041" lon="6.49886">
        <ele>1723</ele>
        <time>2021-05-20T04:26:22Z</time>
      </trkpt>
      <trkpt lat="45.92041" lon="6.49886">
        <ele>1724</ele>
        <time>2021-05-20T04:26:23Z</time>
      </trkpt>
      <trkpt lat="45.92041" lon="6.49886">
        <ele>1724</ele>
        <time>2021-05-20T04:26:24Z</time>
      </trkpt>
      <trkpt lat="45.9204" lon="6.49891">
        <ele>1724</ele>
        <time>2021-05-20T04:26:25Z</time>
      </trkpt>
      <trkpt lat="45.9204" lon="6.49891">
        <ele>1724</ele>
        <time>2021-05-20T04:26:26Z</time>
      </trkpt>
      <trkpt lat="45.9204" lon="6.49891">
        <ele>1724</ele>
        <time>2021-05-20T04:26:27Z</time>
      </trkpt>
      <trkpt lat="45.9204" lon="6.49891">
        <ele>1725</ele>
        <time>2021-05-20T04:26:28Z</time>
      </trkpt>
      <trkpt lat="45.92038" lon="6.49895">
        <ele>1726</ele>
        <time>2021-05-20T04:26:29Z</time>
      </trkpt>
      <trkpt lat="45.92038" lon="6.49895">
        <ele>1726</ele>
        <time>2021-05-20T04:26:30Z</time>
      </trkpt>
      <trkpt lat="45.92038" lon="6.49895">
        <ele>1726</ele>
        <time>2021-05-20T04:26:31Z</time>
      </trkpt>
      <trkpt lat="45.92038" lon="6.49895">
        <ele>1726</ele>
        <time>2021-05-20T04:26:32Z</time>
      </trkpt>
      <trkpt lat="45.92038" lon="6.49895">
        <ele>1726</ele>
        <time>2021-05-20T04:26:33Z</time>
      </trkpt>
      <trkpt lat="45.92036" lon="6.499">
        <ele>1726</ele>
        <time>2021-05-20T04:26:34Z</time>
      </trkpt>
      <trkpt lat="45.92036" lon="6.499">
        <ele>1727</ele>
        <time>2021-05-20T04:26:35Z</time>
      </trkpt>
      <trkpt lat="45.92036" lon="6.49901">
        <ele>1727</ele>
        <time>2021-05-20T04:26:36Z</time>
      </trkpt>
      <trkpt lat="45.92036" lon="6.49902">
        <ele>1727</ele>
        <time>2021-05-20T04:26:37Z</time>
      </trkpt>
      <trkpt lat="45.92036" lon="6.49903">
        <ele>1727</ele>
        <time>2021-05-20T04:26:38Z</time>
      </trkpt>
      <trkpt lat="45.92035" lon="6.49904">
        <ele>1727</ele>
        <time>2021-05-20T04:26:39Z</time>
      </trkpt>
      <trkpt lat="45.92035" lon="6.49905">
        <ele>1727</ele>
        <time>2021-05-20T04:26:40Z</time>
      </trkpt>
      <trkpt lat="45.92035" lon="6.49905">
        <ele>1728</ele>
        <time>2021-05-20T04:26:41Z</time>
      </trkpt>
      <trkpt lat="45.92035" lon="6.49905">
        <ele>1728</ele>
        <time>2021-05-20T04:26:42Z</time>
      </trkpt>
      <trkpt lat="45.92035" lon="6.49905">
        <ele>1729</ele>
        <time>2021-05-20T04:26:43Z</time>
      </trkpt>
      <trkpt lat="45.92035" lon="6.49905">
        <ele>1729</ele>
        <time>2021-05-20T04:26:44Z</time>
      </trkpt>
      <trkpt lat="45.92034" lon="6.49909">
        <ele>1729</ele>
        <time>2021-05-20T04:26:45Z</time>
      </trkpt>
      <trkpt lat="45.92034" lon="6.49909">
        <ele>1730</ele>
        <time>2021-05-20T04:26:46Z</time>
      </trkpt>
      <trkpt lat="45.92034" lon="6.49909">
        <ele>1730</ele>
        <time>2021-05-20T04:26:47Z</time>
      </trkpt>
      <trkpt lat="45.92034" lon="6.49909">
        <ele>1730</ele>
        <time>2021-05-20T04:26:48Z</time>
      </trkpt>
      <trkpt lat="45.92034" lon="6.49909">
        <ele>1730</ele>
        <time>2021-05-20T04:26:49Z</time>
      </trkpt>
      <trkpt lat="45.92031" lon="6.49913">
        <ele>1731</ele>
        <time>2021-05-20T04:26:50Z</time>
      </trkpt>
      <trkpt lat="45.92031" lon="6.49913">
        <ele>1731</ele>
        <time>2021-05-20T04:26:51Z</time>
      </trkpt>
      <trkpt lat="45.92031" lon="6.49914">
        <ele>1731</ele>
        <time>2021-05-20T04:26:52Z</time>
      </trkpt>
      <trkpt lat="45.92031" lon="6.49914">
        <ele>1731</ele>
        <time>2021-05-20T04:26:53Z</time>
      </trkpt>
      <trkpt lat="45.9203" lon="6.49915">
        <ele>1731</ele>
        <time>2021-05-20T04:26:54Z</time>
      </trkpt>
      <trkpt lat="45.9203" lon="6.49915">
        <ele>1732</ele>
        <time>2021-05-20T04:26:55Z</time>
      </trkpt>
      <trkpt lat="45.9203" lon="6.49915">
        <ele>1732</ele>
        <time>2021-05-20T04:26:56Z</time>
      </trkpt>
      <trkpt lat="45.92029" lon="6.49916">
        <ele>1732</ele>
        <time>2021-05-20T04:26:57Z</time>
      </trkpt>
      <trkpt lat="45.92029" lon="6.49916">
        <ele>1733</ele>
        <time>2021-05-20T04:26:58Z</time>
      </trkpt>
      <trkpt lat="45.92029" lon="6.49917">
        <ele>1733</ele>
        <time>2021-05-20T04:26:59Z</time>
      </trkpt>
      <trkpt lat="45.92029" lon="6.49917">
        <ele>1733</ele>
        <time>2021-05-20T04:27:00Z</time>
      </trkpt>
      <trkpt lat="45.92029" lon="6.49917">
        <ele>1733</ele>
        <time>2021-05-20T04:27:01Z</time>
      </trkpt>
      <trkpt lat="45.92029" lon="6.49917">
        <ele>1734</ele>
        <time>2021-05-20T04:27:02Z</time>
      </trkpt>
      <trkpt lat="45.92029" lon="6.49917">
        <ele>1734</ele>
        <time>2021-05-20T04:27:03Z</time>
      </trkpt>
      <trkpt lat="45.92029" lon="6.49917">
        <ele>1734</ele>
        <time>2021-05-20T04:27:04Z</time>
      </trkpt>
      <trkpt lat="45.92028" lon="6.49922">
        <ele>1734</ele>
        <time>2021-05-20T04:27:05Z</time>
      </trkpt>
      <trkpt lat="45.92028" lon="6.49922">
        <ele>1735</ele>
        <time>2021-05-20T04:27:06Z</time>
      </trkpt>
      <trkpt lat="45.92028" lon="6.49923">
        <ele>1735</ele>
        <time>2021-05-20T04:27:07Z</time>
      </trkpt>
      <trkpt lat="45.92028" lon="6.49923">
        <ele>1735</ele>
        <time>2021-05-20T04:27:08Z</time>
      </trkpt>
      <trkpt lat="45.92028" lon="6.49924">
        <ele>1735</ele>
        <time>2021-05-20T04:27:09Z</time>
      </trkpt>
      <trkpt lat="45.92028" lon="6.49924">
        <ele>1736</ele>
        <time>2021-05-20T04:27:10Z</time>
      </trkpt>
      <trkpt lat="45.92028" lon="6.49925">
        <ele>1736</ele>
        <time>2021-05-20T04:27:11Z</time>
      </trkpt>
      <trkpt lat="45.92028" lon="6.49925">
        <ele>1736</ele>
        <time>2021-05-20T04:27:12Z</time>
      </trkpt>
      <trkpt lat="45.92028" lon="6.49926">
        <ele>1736</ele>
        <time>2021-05-20T04:27:13Z</time>
      </trkpt>
      <trkpt lat="45.92028" lon="6.49926">
        <ele>1737</ele>
        <time>2021-05-20T04:27:14Z</time>
      </trkpt>
      <trkpt lat="45.92028" lon="6.49927">
        <ele>1737</ele>
        <time>2021-05-20T04:27:15Z</time>
      </trkpt>
      <trkpt lat="45.92028" lon="6.49927">
        <ele>1737</ele>
        <time>2021-05-20T04:27:16Z</time>
      </trkpt>
      <trkpt lat="45.92028" lon="6.49927">
        <ele>1737</ele>
        <time>2021-05-20T04:27:17Z</time>
      </trkpt>
      <trkpt lat="45.92028" lon="6.49927">
        <ele>1737</ele>
        <time>2021-05-20T04:27:18Z</time>
      </trkpt>
      <trkpt lat="45.92028" lon="6.49927">
        <ele>1738</ele>
        <time>2021-05-20T04:27:19Z</time>
      </trkpt>
      <trkpt lat="45.92028" lon="6.49927">
        <ele>1738</ele>
        <time>2021-05-20T04:27:20Z</time>
      </trkpt>
      <trkpt lat="45.92028" lon="6.49927">
        <ele>1738</ele>
        <time>2021-05-20T04:27:21Z</time>
      </trkpt>
      <trkpt lat="45.92028" lon="6.49927">
        <ele>1738</ele>
        <time>2021-05-20T04:27:22Z</time>
      </trkpt>
      <trkpt lat="45.92026" lon="6.49931">
        <ele>1739</ele>
        <time>2021-05-20T04:27:23Z</time>
      </trkpt>
      <trkpt lat="45.92026" lon="6.49931">
        <ele>1739</ele>
        <time>2021-05-20T04:27:24Z</time>
      </trkpt>
      <trkpt lat="45.92026" lon="6.49931">
        <ele>1739</ele>
        <time>2021-05-20T04:27:25Z</time>
      </trkpt>
      <trkpt lat="45.92026" lon="6.49931">
        <ele>1739</ele>
        <time>2021-05-20T04:27:26Z</time>
      </trkpt>
      <trkpt lat="45.92026" lon="6.49931">
        <ele>1740</ele>
        <time>2021-05-20T04:27:27Z</time>
      </trkpt>
      <trkpt lat="45.92022" lon="6.49931">
        <ele>1740</ele>
        <time>2021-05-20T04:27:28Z</time>
      </trkpt>
      <trkpt lat="45.92022" lon="6.49931">
        <ele>1740</ele>
        <time>2021-05-20T04:27:29Z</time>
      </trkpt>
      <trkpt lat="45.92022" lon="6.49931">
        <ele>1740</ele>
        <time>2021-05-20T04:27:30Z</time>
      </trkpt>
      <trkpt lat="45.92022" lon="6.49931">
        <ele>1741</ele>
        <time>2021-05-20T04:27:31Z</time>
      </trkpt>
      <trkpt lat="45.92022" lon="6.49931">
        <ele>1741</ele>
        <time>2021-05-20T04:27:32Z</time>
      </trkpt>
      <trkpt lat="45.92022" lon="6.49931">
        <ele>1741</ele>
        <time>2021-05-20T04:27:33Z</time>
      </trkpt>
      <trkpt lat="45.92022" lon="6.49931">
        <ele>1741</ele>
        <time>2021-05-20T04:27:34Z</time>
      </trkpt>
      <trkpt lat="45.92022" lon="6.49931">
        <ele>1741</ele>
        <time>2021-05-20T04:27:35Z</time>
      </trkpt>
      <trkpt lat="45.92019" lon="6.49929">
        <ele>1742</ele>
        <time>2021-05-20T04:27:36Z</time>
      </trkpt>
      <trkpt lat="45.92019" lon="6.49929">
        <ele>1742</ele>
        <time>2021-05-20T04:27:37Z</time>
      </trkpt>
      <trkpt lat="45.92019" lon="6.49928">
        <ele>1742</ele>
        <time>2021-05-20T04:27:38Z</time>
      </trkpt>
      <trkpt lat="45.92018" lon="6.49928">
        <ele>1742</ele>
        <time>2021-05-20T04:27:39Z</time>
      </trkpt>
      <trkpt lat="45.92018" lon="6.49927">
        <ele>1742</ele>
        <time>2021-05-20T04:27:40Z</time>
      </trkpt>
      <trkpt lat="45.92017" lon="6.49927">
        <ele>1742</ele>
        <time>2021-05-20T04:27:41Z</time>
      </trkpt>
      <trkpt lat="45.92016" lon="6.49927">
        <ele>1743</ele>
        <time>2021-05-20T04:27:42Z</time>
      </trkpt>
      <trkpt lat="45.92016" lon="6.49926">
        <ele>1743</ele>
        <time>2021-05-20T04:27:43Z</time>
      </trkpt>
      <trkpt lat="45.92016" lon="6.49926">
        <ele>1743</ele>
        <time>2021-05-20T04:27:44Z</time>
      </trkpt>
      <trkpt lat="45.92016" lon="6.49926">
        <ele>1743</ele>
        <time>2021-05-20T04:27:45Z</time>
      </trkpt>
      <trkpt lat="45.92013" lon="6.49923">
        <ele>1743</ele>
        <time>2021-05-20T04:27:46Z</time>
      </trkpt>
      <trkpt lat="45.92013" lon="6.49923">
        <ele>1743</ele>
        <time>2021-05-20T04:27:47Z</time>
      </trkpt>
      <trkpt lat="45.92013" lon="6.49923">
        <ele>1744</ele>
        <time>2021-05-20T04:27:48Z</time>
      </trkpt>
      <trkpt lat="45.9201" lon="6.4992">
        <ele>1745</ele>
        <time>2021-05-20T04:27:49Z</time>
      </trkpt>
      <trkpt lat="45.9201" lon="6.4992">
        <ele>1745</ele>
        <time>2021-05-20T04:27:50Z</time>
      </trkpt>
      <trkpt lat="45.9201" lon="6.49919">
        <ele>1745</ele>
        <time>2021-05-20T04:27:51Z</time>
      </trkpt>
      <trkpt lat="45.92009" lon="6.49919">
        <ele>1745</ele>
        <time>2021-05-20T04:27:52Z</time>
      </trkpt>
      <trkpt lat="45.92008" lon="6.49918">
        <ele>1746</ele>
        <time>2021-05-20T04:27:53Z</time>
      </trkpt>
      <trkpt lat="45.92007" lon="6.49917">
        <ele>1746</ele>
        <time>2021-05-20T04:27:54Z</time>
      </trkpt>
      <trkpt lat="45.92007" lon="6.49916">
        <ele>1746</ele>
        <time>2021-05-20T04:27:55Z</time>
      </trkpt>
      <trkpt lat="45.92007" lon="6.49916">
        <ele>1746</ele>
        <time>2021-05-20T04:27:56Z</time>
      </trkpt>
      <trkpt lat="45.92007" lon="6.49916">
        <ele>1747</ele>
        <time>2021-05-20T04:27:57Z</time>
      </trkpt>
      <trkpt lat="45.92003" lon="6.49913">
        <ele>1747</ele>
        <time>2021-05-20T04:27:58Z</time>
      </trkpt>
      <trkpt lat="45.92003" lon="6.49913">
        <ele>1747</ele>
        <time>2021-05-20T04:27:59Z</time>
      </trkpt>
      <trkpt lat="45.92003" lon="6.49913">
        <ele>1747</ele>
        <time>2021-05-20T04:28:00Z</time>
      </trkpt>
      <trkpt lat="45.92002" lon="6.49912">
        <ele>1747</ele>
        <time>2021-05-20T04:28:01Z</time>
      </trkpt>
      <trkpt lat="45.92002" lon="6.49912">
        <ele>1748</ele>
        <time>2021-05-20T04:28:02Z</time>
      </trkpt>
      <trkpt lat="45.92001" lon="6.49912">
        <ele>1748</ele>
        <time>2021-05-20T04:28:03Z</time>
      </trkpt>
      <trkpt lat="45.92001" lon="6.49911">
        <ele>1748</ele>
        <time>2021-05-20T04:28:04Z</time>
      </trkpt>
      <trkpt lat="45.92" lon="6.49911">
        <ele>1749</ele>
        <time>2021-05-20T04:28:05Z</time>
      </trkpt>
      <trkpt lat="45.91999" lon="6.4991">
        <ele>1749</ele>
        <time>2021-05-20T04:28:06Z</time>
      </trkpt>
      <trkpt lat="45.91998" lon="6.4991">
        <ele>1749</ele>
        <time>2021-05-20T04:28:07Z</time>
      </trkpt>
      <trkpt lat="45.91997" lon="6.49909">
        <ele>1750</ele>
        <time>2021-05-20T04:28:08Z</time>
      </trkpt>
      <trkpt lat="45.91996" lon="6.49909">
        <ele>1750</ele>
        <time>2021-05-20T04:28:09Z</time>
      </trkpt>
      <trkpt lat="45.91996" lon="6.49909">
        <ele>1750</ele>
        <time>2021-05-20T04:28:10Z</time>
      </trkpt>
      <trkpt lat="45.91996" lon="6.49909">
        <ele>1750</ele>
        <time>2021-05-20T04:28:11Z</time>
      </trkpt>
      <trkpt lat="45.91993" lon="6.49908">
        <ele>1751</ele>
        <time>2021-05-20T04:28:12Z</time>
      </trkpt>
      <trkpt lat="45.91993" lon="6.49908">
        <ele>1751</ele>
        <time>2021-05-20T04:28:13Z</time>
      </trkpt>
      <trkpt lat="45.91992" lon="6.49907">
        <ele>1751</ele>
        <time>2021-05-20T04:28:14Z</time>
      </trkpt>
      <trkpt lat="45.91991" lon="6.49906">
        <ele>1751</ele>
        <time>2021-05-20T04:28:15Z</time>
      </trkpt>
      <trkpt lat="45.9199" lon="6.49906">
        <ele>1751</ele>
        <time>2021-05-20T04:28:16Z</time>
      </trkpt>
      <trkpt lat="45.91989" lon="6.49905">
        <ele>1752</ele>
        <time>2021-05-20T04:28:17Z</time>
      </trkpt>
      <trkpt lat="45.91989" lon="6.49905">
        <ele>1753</ele>
        <time>2021-05-20T04:28:18Z</time>
      </trkpt>
      <trkpt lat="45.91989" lon="6.49905">
        <ele>1753</ele>
        <time>2021-05-20T04:28:19Z</time>
      </trkpt>
      <trkpt lat="45.91985" lon="6.49905">
        <ele>1753</ele>
        <time>2021-05-20T04:28:20Z</time>
      </trkpt>
      <trkpt lat="45.91985" lon="6.49905">
        <ele>1753</ele>
        <time>2021-05-20T04:28:21Z</time>
      </trkpt>
      <trkpt lat="45.91985" lon="6.49905">
        <ele>1753</ele>
        <time>2021-05-20T04:28:22Z</time>
      </trkpt>
      <trkpt lat="45.91985" lon="6.49905">
        <ele>1753</ele>
        <time>2021-05-20T04:28:23Z</time>
      </trkpt>
      <trkpt lat="45.91985" lon="6.49905">
        <ele>1754</ele>
        <time>2021-05-20T04:28:24Z</time>
      </trkpt>
      <trkpt lat="45.91982" lon="6.49903">
        <ele>1755</ele>
        <time>2021-05-20T04:28:25Z</time>
      </trkpt>
      <trkpt lat="45.91982" lon="6.49903">
        <ele>1755</ele>
        <time>2021-05-20T04:28:26Z</time>
      </trkpt>
      <trkpt lat="45.91981" lon="6.49904">
        <ele>1755</ele>
        <time>2021-05-20T04:28:27Z</time>
      </trkpt>
      <trkpt lat="45.9198" lon="6.49904">
        <ele>1756</ele>
        <time>2021-05-20T04:28:28Z</time>
      </trkpt>
      <trkpt lat="45.91979" lon="6.49904">
        <ele>1756</ele>
        <time>2021-05-20T04:28:29Z</time>
      </trkpt>
      <trkpt lat="45.91978" lon="6.49904">
        <ele>1756</ele>
        <time>2021-05-20T04:28:30Z</time>
      </trkpt>
      <trkpt lat="45.91978" lon="6.49904">
        <ele>1756</ele>
        <time>2021-05-20T04:28:31Z</time>
      </trkpt>
      <trkpt lat="45.91978" lon="6.49904">
        <ele>1756</ele>
        <time>2021-05-20T04:28:32Z</time>
      </trkpt>
      <trkpt lat="45.91978" lon="6.49904">
        <ele>1756</ele>
        <time>2021-05-20T04:28:33Z</time>
      </trkpt>
      <trkpt lat="45.91978" lon="6.49904">
        <ele>1756</ele>
        <time>2021-05-20T04:28:34Z</time>
      </trkpt>
      <trkpt lat="45.91974" lon="6.49906">
        <ele>1756</ele>
        <time>2021-05-20T04:28:35Z</time>
      </trkpt>
      <trkpt lat="45.91974" lon="6.49906">
        <ele>1757</ele>
        <time>2021-05-20T04:28:36Z</time>
      </trkpt>
      <trkpt lat="45.91973" lon="6.49906">
        <ele>1757</ele>
        <time>2021-05-20T04:28:37Z</time>
      </trkpt>
      <trkpt lat="45.91973" lon="6.49906">
        <ele>1757</ele>
        <time>2021-05-20T04:28:38Z</time>
      </trkpt>
      <trkpt lat="45.91972" lon="6.49907">
        <ele>1758</ele>
        <time>2021-05-20T04:28:39Z</time>
      </trkpt>
      <trkpt lat="45.91971" lon="6.49907">
        <ele>1759</ele>
        <time>2021-05-20T04:28:40Z</time>
      </trkpt>
      <trkpt lat="45.91971" lon="6.49907">
        <ele>1759</ele>
        <time>2021-05-20T04:28:41Z</time>
      </trkpt>
      <trkpt lat="45.91971" lon="6.49908">
        <ele>1759</ele>
        <time>2021-05-20T04:28:42Z</time>
      </trkpt>
      <trkpt lat="45.9197" lon="6.49908">
        <ele>1759</ele>
        <time>2021-05-20T04:28:43Z</time>
      </trkpt>
      <trkpt lat="45.9197" lon="6.49909">
        <ele>1759</ele>
        <time>2021-05-20T04:28:44Z</time>
      </trkpt>
      <trkpt lat="45.91969" lon="6.4991">
        <ele>1760</ele>
        <time>2021-05-20T04:28:45Z</time>
      </trkpt>
      <trkpt lat="45.91969" lon="6.4991">
        <ele>1760</ele>
        <time>2021-05-20T04:28:46Z</time>
      </trkpt>
      <trkpt lat="45.91969" lon="6.49911">
        <ele>1760</ele>
        <time>2021-05-20T04:28:47Z</time>
      </trkpt>
      <trkpt lat="45.91968" lon="6.49912">
        <ele>1761</ele>
        <time>2021-05-20T04:28:48Z</time>
      </trkpt>
      <trkpt lat="45.91968" lon="6.49912">
        <ele>1761</ele>
        <time>2021-05-20T04:28:49Z</time>
      </trkpt>
      <trkpt lat="45.91968" lon="6.49912">
        <ele>1761</ele>
        <time>2021-05-20T04:28:50Z</time>
      </trkpt>
      <trkpt lat="45.91968" lon="6.49912">
        <ele>1761</ele>
        <time>2021-05-20T04:28:51Z</time>
      </trkpt>
      <trkpt lat="45.91968" lon="6.49912">
        <ele>1761</ele>
        <time>2021-05-20T04:28:52Z</time>
      </trkpt>
      <trkpt lat="45.91968" lon="6.49917">
        <ele>1761</ele>
        <time>2021-05-20T04:28:53Z</time>
      </trkpt>
      <trkpt lat="45.91968" lon="6.49917">
        <ele>1762</ele>
        <time>2021-05-20T04:28:54Z</time>
      </trkpt>
      <trkpt lat="45.91968" lon="6.49917">
        <ele>1762</ele>
        <time>2021-05-20T04:28:55Z</time>
      </trkpt>
      <trkpt lat="45.91968" lon="6.49917">
        <ele>1762</ele>
        <time>2021-05-20T04:28:56Z</time>
      </trkpt>
      <trkpt lat="45.91968" lon="6.49917">
        <ele>1763</ele>
        <time>2021-05-20T04:28:57Z</time>
      </trkpt>
      <trkpt lat="45.91968" lon="6.49921">
        <ele>1763</ele>
        <time>2021-05-20T04:28:58Z</time>
      </trkpt>
      <trkpt lat="45.91968" lon="6.49921">
        <ele>1763</ele>
        <time>2021-05-20T04:28:59Z</time>
      </trkpt>
      <trkpt lat="45.91968" lon="6.49921">
        <ele>1763</ele>
        <time>2021-05-20T04:29:00Z</time>
      </trkpt>
      <trkpt lat="45.91968" lon="6.49921">
        <ele>1764</ele>
        <time>2021-05-20T04:29:01Z</time>
      </trkpt>
      <trkpt lat="45.91968" lon="6.49921">
        <ele>1764</ele>
        <time>2021-05-20T04:29:02Z</time>
      </trkpt>
      <trkpt lat="45.91967" lon="6.49926">
        <ele>1764</ele>
        <time>2021-05-20T04:29:03Z</time>
      </trkpt>
      <trkpt lat="45.91967" lon="6.49926">
        <ele>1764</ele>
        <time>2021-05-20T04:29:04Z</time>
      </trkpt>
      <trkpt lat="45.91967" lon="6.49926">
        <ele>1765</ele>
        <time>2021-05-20T04:29:05Z</time>
      </trkpt>
      <trkpt lat="45.91967" lon="6.49926">
        <ele>1765</ele>
        <time>2021-05-20T04:29:06Z</time>
      </trkpt>
      <trkpt lat="45.91967" lon="6.49926">
        <ele>1766</ele>
        <time>2021-05-20T04:29:07Z</time>
      </trkpt>
      <trkpt lat="45.91967" lon="6.49931">
        <ele>1766</ele>
        <time>2021-05-20T04:29:08Z</time>
      </trkpt>
      <trkpt lat="45.91967" lon="6.49931">
        <ele>1766</ele>
        <time>2021-05-20T04:29:09Z</time>
      </trkpt>
      <trkpt lat="45.91967" lon="6.49932">
        <ele>1766</ele>
        <time>2021-05-20T04:29:10Z</time>
      </trkpt>
      <trkpt lat="45.91967" lon="6.49933">
        <ele>1766</ele>
        <time>2021-05-20T04:29:11Z</time>
      </trkpt>
      <trkpt lat="45.91967" lon="6.49934">
        <ele>1766</ele>
        <time>2021-05-20T04:29:12Z</time>
      </trkpt>
      <trkpt lat="45.91966" lon="6.49935">
        <ele>1767</ele>
        <time>2021-05-20T04:29:13Z</time>
      </trkpt>
      <trkpt lat="45.91966" lon="6.49936">
        <ele>1767</ele>
        <time>2021-05-20T04:29:14Z</time>
      </trkpt>
      <trkpt lat="45.91966" lon="6.49937">
        <ele>1767</ele>
        <time>2021-05-20T04:29:15Z</time>
      </trkpt>
      <trkpt lat="45.91966" lon="6.49937">
        <ele>1767</ele>
        <time>2021-05-20T04:29:16Z</time>
      </trkpt>
      <trkpt lat="45.91966" lon="6.49937">
        <ele>1767</ele>
        <time>2021-05-20T04:29:17Z</time>
      </trkpt>
      <trkpt lat="45.91966" lon="6.49937">
        <ele>1767</ele>
        <time>2021-05-20T04:29:18Z</time>
      </trkpt>
      <trkpt lat="45.91966" lon="6.49937">
        <ele>1768</ele>
        <time>2021-05-20T04:29:19Z</time>
      </trkpt>
      <trkpt lat="45.91963" lon="6.4994">
        <ele>1768</ele>
        <time>2021-05-20T04:29:20Z</time>
      </trkpt>
      <trkpt lat="45.91963" lon="6.4994">
        <ele>1768</ele>
        <time>2021-05-20T04:29:21Z</time>
      </trkpt>
      <trkpt lat="45.91962" lon="6.49939">
        <ele>1768</ele>
        <time>2021-05-20T04:29:22Z</time>
      </trkpt>
      <trkpt lat="45.91962" lon="6.49939">
        <ele>1769</ele>
        <time>2021-05-20T04:29:23Z</time>
      </trkpt>
      <trkpt lat="45.91961" lon="6.49939">
        <ele>1769</ele>
        <time>2021-05-20T04:29:24Z</time>
      </trkpt>
      <trkpt lat="45.9196" lon="6.49939">
        <ele>1770</ele>
        <time>2021-05-20T04:29:25Z</time>
      </trkpt>
      <trkpt lat="45.91959" lon="6.49939">
        <ele>1770</ele>
        <time>2021-05-20T04:29:26Z</time>
      </trkpt>
      <trkpt lat="45.91958" lon="6.49939">
        <ele>1770</ele>
        <time>2021-05-20T04:29:27Z</time>
      </trkpt>
      <trkpt lat="45.91957" lon="6.49938">
        <ele>1770</ele>
        <time>2021-05-20T04:29:28Z</time>
      </trkpt>
      <trkpt lat="45.91957" lon="6.49938">
        <ele>1770</ele>
        <time>2021-05-20T04:29:29Z</time>
      </trkpt>
      <trkpt lat="45.91956" lon="6.49938">
        <ele>1771</ele>
        <time>2021-05-20T04:29:30Z</time>
      </trkpt>
      <trkpt lat="45.91955" lon="6.49938">
        <ele>1771</ele>
        <time>2021-05-20T04:29:31Z</time>
      </trkpt>
      <trkpt lat="45.91954" lon="6.49938">
        <ele>1771</ele>
        <time>2021-05-20T04:29:32Z</time>
      </trkpt>
      <trkpt lat="45.91953" lon="6.49937">
        <ele>1771</ele>
        <time>2021-05-20T04:29:33Z</time>
      </trkpt>
      <trkpt lat="45.91953" lon="6.49937">
        <ele>1771</ele>
        <time>2021-05-20T04:29:34Z</time>
      </trkpt>
      <trkpt lat="45.91952" lon="6.49938">
        <ele>1771</ele>
        <time>2021-05-20T04:29:35Z</time>
      </trkpt>
      <trkpt lat="45.91952" lon="6.49938">
        <ele>1771</ele>
        <time>2021-05-20T04:29:36Z</time>
      </trkpt>
      <trkpt lat="45.91951" lon="6.49938">
        <ele>1771</ele>
        <time>2021-05-20T04:29:37Z</time>
      </trkpt>
      <trkpt lat="45.91951" lon="6.49938">
        <ele>1771</ele>
        <time>2021-05-20T04:29:38Z</time>
      </trkpt>
      <trkpt lat="45.91951" lon="6.49939">
        <ele>1772</ele>
        <time>2021-05-20T04:29:39Z</time>
      </trkpt>
      <trkpt lat="45.9195" lon="6.49939">
        <ele>1772</ele>
        <time>2021-05-20T04:29:40Z</time>
      </trkpt>
      <trkpt lat="45.9195" lon="6.49939">
        <ele>1773</ele>
        <time>2021-05-20T04:29:41Z</time>
      </trkpt>
      <trkpt lat="45.9195" lon="6.49939">
        <ele>1773</ele>
        <time>2021-05-20T04:29:42Z</time>
      </trkpt>
      <trkpt lat="45.91949" lon="6.4994">
        <ele>1773</ele>
        <time>2021-05-20T04:29:43Z</time>
      </trkpt>
      <trkpt lat="45.91949" lon="6.4994">
        <ele>1773</ele>
        <time>2021-05-20T04:29:44Z</time>
      </trkpt>
      <trkpt lat="45.91949" lon="6.49941">
        <ele>1773</ele>
        <time>2021-05-20T04:29:45Z</time>
      </trkpt>
      <trkpt lat="45.91949" lon="6.49942">
        <ele>1774</ele>
        <time>2021-05-20T04:29:46Z</time>
      </trkpt>
      <trkpt lat="45.91949" lon="6.49943">
        <ele>1774</ele>
        <time>2021-05-20T04:29:47Z</time>
      </trkpt>
      <trkpt lat="45.91949" lon="6.49944">
        <ele>1774</ele>
        <time>2021-05-20T04:29:48Z</time>
      </trkpt>
      <trkpt lat="45.91949" lon="6.49946">
        <ele>1774</ele>
        <time>2021-05-20T04:29:49Z</time>
      </trkpt>
      <trkpt lat="45.91948" lon="6.49947">
        <ele>1774</ele>
        <time>2021-05-20T04:29:50Z</time>
      </trkpt>
      <trkpt lat="45.91948" lon="6.49948">
        <ele>1775</ele>
        <time>2021-05-20T04:29:51Z</time>
      </trkpt>
      <trkpt lat="45.91948" lon="6.49949">
        <ele>1775</ele>
        <time>2021-05-20T04:29:52Z</time>
      </trkpt>
      <trkpt lat="45.91948" lon="6.4995">
        <ele>1775</ele>
        <time>2021-05-20T04:29:53Z</time>
      </trkpt>
      <trkpt lat="45.91947" lon="6.49951">
        <ele>1776</ele>
        <time>2021-05-20T04:29:54Z</time>
      </trkpt>
      <trkpt lat="45.91947" lon="6.49952">
        <ele>1776</ele>
        <time>2021-05-20T04:29:55Z</time>
      </trkpt>
      <trkpt lat="45.91947" lon="6.49953">
        <ele>1776</ele>
        <time>2021-05-20T04:29:56Z</time>
      </trkpt>
      <trkpt lat="45.91947" lon="6.49955">
        <ele>1776</ele>
        <time>2021-05-20T04:29:57Z</time>
      </trkpt>
      <trkpt lat="45.91947" lon="6.49956">
        <ele>1776</ele>
        <time>2021-05-20T04:29:58Z</time>
      </trkpt>
      <trkpt lat="45.91946" lon="6.49956">
        <ele>1777</ele>
        <time>2021-05-20T04:29:59Z</time>
      </trkpt>
      <trkpt lat="45.91946" lon="6.49957">
        <ele>1777</ele>
        <time>2021-05-20T04:30:00Z</time>
      </trkpt>
      <trkpt lat="45.91946" lon="6.49957">
        <ele>1778</ele>
        <time>2021-05-20T04:30:01Z</time>
      </trkpt>
      <trkpt lat="45.91946" lon="6.49958">
        <ele>1778</ele>
        <time>2021-05-20T04:30:02Z</time>
      </trkpt>
      <trkpt lat="45.91946" lon="6.49959">
        <ele>1778</ele>
        <time>2021-05-20T04:30:03Z</time>
      </trkpt>
      <trkpt lat="45.91946" lon="6.49959">
        <ele>1778</ele>
        <time>2021-05-20T04:30:04Z</time>
      </trkpt>
      <trkpt lat="45.91946" lon="6.4996">
        <ele>1778</ele>
        <time>2021-05-20T04:30:05Z</time>
      </trkpt>
      <trkpt lat="45.91946" lon="6.4996">
        <ele>1779</ele>
        <time>2021-05-20T04:30:06Z</time>
      </trkpt>
      <trkpt lat="45.91946" lon="6.49961">
        <ele>1779</ele>
        <time>2021-05-20T04:30:07Z</time>
      </trkpt>
      <trkpt lat="45.91946" lon="6.49962">
        <ele>1779</ele>
        <time>2021-05-20T04:30:08Z</time>
      </trkpt>
      <trkpt lat="45.91946" lon="6.49962">
        <ele>1779</ele>
        <time>2021-05-20T04:30:09Z</time>
      </trkpt>
      <trkpt lat="45.91946" lon="6.49963">
        <ele>1779</ele>
        <time>2021-05-20T04:30:10Z</time>
      </trkpt>
      <trkpt lat="45.91946" lon="6.49963">
        <ele>1780</ele>
        <time>2021-05-20T04:30:11Z</time>
      </trkpt>
      <trkpt lat="45.91946" lon="6.49964">
        <ele>1780</ele>
        <time>2021-05-20T04:30:12Z</time>
      </trkpt>
      <trkpt lat="45.91946" lon="6.49965">
        <ele>1780</ele>
        <time>2021-05-20T04:30:13Z</time>
      </trkpt>
      <trkpt lat="45.91946" lon="6.49965">
        <ele>1781</ele>
        <time>2021-05-20T04:30:14Z</time>
      </trkpt>
      <trkpt lat="45.91946" lon="6.49966">
        <ele>1781</ele>
        <time>2021-05-20T04:30:15Z</time>
      </trkpt>
      <trkpt lat="45.91945" lon="6.49966">
        <ele>1781</ele>
        <time>2021-05-20T04:30:16Z</time>
      </trkpt>
      <trkpt lat="45.91945" lon="6.49967">
        <ele>1782</ele>
        <time>2021-05-20T04:30:17Z</time>
      </trkpt>
      <trkpt lat="45.91945" lon="6.49968">
        <ele>1782</ele>
        <time>2021-05-20T04:30:18Z</time>
      </trkpt>
      <trkpt lat="45.91945" lon="6.49968">
        <ele>1783</ele>
        <time>2021-05-20T04:30:19Z</time>
      </trkpt>
      <trkpt lat="45.91945" lon="6.49969">
        <ele>1783</ele>
        <time>2021-05-20T04:30:20Z</time>
      </trkpt>
      <trkpt lat="45.91945" lon="6.49969">
        <ele>1783</ele>
        <time>2021-05-20T04:30:21Z</time>
      </trkpt>
      <trkpt lat="45.91944" lon="6.49969">
        <ele>1783</ele>
        <time>2021-05-20T04:30:22Z</time>
      </trkpt>
      <trkpt lat="45.91944" lon="6.49969">
        <ele>1784</ele>
        <time>2021-05-20T04:30:23Z</time>
      </trkpt>
      <trkpt lat="45.91944" lon="6.49969">
        <ele>1784</ele>
        <time>2021-05-20T04:30:24Z</time>
      </trkpt>
      <trkpt lat="45.91943" lon="6.49969">
        <ele>1784</ele>
        <time>2021-05-20T04:30:25Z</time>
      </trkpt>
      <trkpt lat="45.91943" lon="6.49969">
        <ele>1784</ele>
        <time>2021-05-20T04:30:26Z</time>
      </trkpt>
      <trkpt lat="45.91942" lon="6.49969">
        <ele>1784</ele>
        <time>2021-05-20T04:30:27Z</time>
      </trkpt>
      <trkpt lat="45.91942" lon="6.49969">
        <ele>1784</ele>
        <time>2021-05-20T04:30:28Z</time>
      </trkpt>
      <trkpt lat="45.91942" lon="6.49969">
        <ele>1784</ele>
        <time>2021-05-20T04:30:29Z</time>
      </trkpt>
      <trkpt lat="45.91941" lon="6.4997">
        <ele>1784</ele>
        <time>2021-05-20T04:30:30Z</time>
      </trkpt>
      <trkpt lat="45.91941" lon="6.4997">
        <ele>1785</ele>
        <time>2021-05-20T04:30:31Z</time>
      </trkpt>
      <trkpt lat="45.9194" lon="6.4997">
        <ele>1785</ele>
        <time>2021-05-20T04:30:32Z</time>
      </trkpt>
      <trkpt lat="45.9194" lon="6.4997">
        <ele>1785</ele>
        <time>2021-05-20T04:30:33Z</time>
      </trkpt>
      <trkpt lat="45.9194" lon="6.4997">
        <ele>1786</ele>
        <time>2021-05-20T04:30:34Z</time>
      </trkpt>
      <trkpt lat="45.91939" lon="6.4997">
        <ele>1786</ele>
        <time>2021-05-20T04:30:35Z</time>
      </trkpt>
      <trkpt lat="45.91939" lon="6.4997">
        <ele>1786</ele>
        <time>2021-05-20T04:30:36Z</time>
      </trkpt>
      <trkpt lat="45.91938" lon="6.4997">
        <ele>1786</ele>
        <time>2021-05-20T04:30:37Z</time>
      </trkpt>
      <trkpt lat="45.91938" lon="6.4997">
        <ele>1786</ele>
        <time>2021-05-20T04:30:38Z</time>
      </trkpt>
      <trkpt lat="45.91938" lon="6.4997">
        <ele>1786</ele>
        <time>2021-05-20T04:30:39Z</time>
      </trkpt>
      <trkpt lat="45.91937" lon="6.4997">
        <ele>1787</ele>
        <time>2021-05-20T04:30:40Z</time>
      </trkpt>
      <trkpt lat="45.91937" lon="6.4997">
        <ele>1788</ele>
        <time>2021-05-20T04:30:41Z</time>
      </trkpt>
      <trkpt lat="45.91936" lon="6.4997">
        <ele>1788</ele>
        <time>2021-05-20T04:30:42Z</time>
      </trkpt>
      <trkpt lat="45.91936" lon="6.49971">
        <ele>1788</ele>
        <time>2021-05-20T04:30:43Z</time>
      </trkpt>
      <trkpt lat="45.91936" lon="6.49971">
        <ele>1788</ele>
        <time>2021-05-20T04:30:44Z</time>
      </trkpt>
      <trkpt lat="45.91935" lon="6.49971">
        <ele>1788</ele>
        <time>2021-05-20T04:30:45Z</time>
      </trkpt>
      <trkpt lat="45.91935" lon="6.49971">
        <ele>1788</ele>
        <time>2021-05-20T04:30:46Z</time>
      </trkpt>
      <trkpt lat="45.91935" lon="6.49971">
        <ele>1788</ele>
        <time>2021-05-20T04:30:47Z</time>
      </trkpt>
      <trkpt lat="45.91935" lon="6.49972">
        <ele>1788</ele>
        <time>2021-05-20T04:30:48Z</time>
      </trkpt>
      <trkpt lat="45.91934" lon="6.49972">
        <ele>1788</ele>
        <time>2021-05-20T04:30:49Z</time>
      </trkpt>
      <trkpt lat="45.91934" lon="6.49973">
        <ele>1789</ele>
        <time>2021-05-20T04:30:50Z</time>
      </trkpt>
      <trkpt lat="45.91934" lon="6.49973">
        <ele>1789</ele>
        <time>2021-05-20T04:30:51Z</time>
      </trkpt>
      <trkpt lat="45.91934" lon="6.49974">
        <ele>1789</ele>
        <time>2021-05-20T04:30:52Z</time>
      </trkpt>
      <trkpt lat="45.91933" lon="6.49974">
        <ele>1790</ele>
        <time>2021-05-20T04:30:53Z</time>
      </trkpt>
      <trkpt lat="45.91933" lon="6.49974">
        <ele>1790</ele>
        <time>2021-05-20T04:30:54Z</time>
      </trkpt>
      <trkpt lat="45.91933" lon="6.49975">
        <ele>1790</ele>
        <time>2021-05-20T04:30:55Z</time>
      </trkpt>
      <trkpt lat="45.91933" lon="6.49975">
        <ele>1791</ele>
        <time>2021-05-20T04:30:56Z</time>
      </trkpt>
      <trkpt lat="45.91932" lon="6.49976">
        <ele>1791</ele>
        <time>2021-05-20T04:30:57Z</time>
      </trkpt>
      <trkpt lat="45.91932" lon="6.49976">
        <ele>1791</ele>
        <time>2021-05-20T04:30:58Z</time>
      </trkpt>
      <trkpt lat="45.91932" lon="6.49976">
        <ele>1792</ele>
        <time>2021-05-20T04:30:59Z</time>
      </trkpt>
      <trkpt lat="45.91932" lon="6.49977">
        <ele>1792</ele>
        <time>2021-05-20T04:31:00Z</time>
      </trkpt>
      <trkpt lat="45.91931" lon="6.49977">
        <ele>1792</ele>
        <time>2021-05-20T04:31:01Z</time>
      </trkpt>
      <trkpt lat="45.91931" lon="6.49978">
        <ele>1792</ele>
        <time>2021-05-20T04:31:02Z</time>
      </trkpt>
      <trkpt lat="45.91931" lon="6.49978">
        <ele>1793</ele>
        <time>2021-05-20T04:31:03Z</time>
      </trkpt>
      <trkpt lat="45.91931" lon="6.49978">
        <ele>1793</ele>
        <time>2021-05-20T04:31:04Z</time>
      </trkpt>
      <trkpt lat="45.9193" lon="6.49979">
        <ele>1794</ele>
        <time>2021-05-20T04:31:05Z</time>
      </trkpt>
      <trkpt lat="45.9193" lon="6.49979">
        <ele>1794</ele>
        <time>2021-05-20T04:31:06Z</time>
      </trkpt>
      <trkpt lat="45.9193" lon="6.4998">
        <ele>1794</ele>
        <time>2021-05-20T04:31:07Z</time>
      </trkpt>
      <trkpt lat="45.9193" lon="6.4998">
        <ele>1794</ele>
        <time>2021-05-20T04:31:08Z</time>
      </trkpt>
      <trkpt lat="45.91929" lon="6.49981">
        <ele>1794</ele>
        <time>2021-05-20T04:31:09Z</time>
      </trkpt>
      <trkpt lat="45.91929" lon="6.49981">
        <ele>1794</ele>
        <time>2021-05-20T04:31:10Z</time>
      </trkpt>
      <trkpt lat="45.91928" lon="6.4998">
        <ele>1794</ele>
        <time>2021-05-20T04:31:11Z</time>
      </trkpt>
      <trkpt lat="45.91927" lon="6.4998">
        <ele>1795</ele>
        <time>2021-05-20T04:31:12Z</time>
      </trkpt>
      <trkpt lat="45.91927" lon="6.49979">
        <ele>1795</ele>
        <time>2021-05-20T04:31:13Z</time>
      </trkpt>
      <trkpt lat="45.91926" lon="6.49979">
        <ele>1795</ele>
        <time>2021-05-20T04:31:14Z</time>
      </trkpt>
      <trkpt lat="45.91925" lon="6.49978">
        <ele>1795</ele>
        <time>2021-05-20T04:31:15Z</time>
      </trkpt>
      <trkpt lat="45.91924" lon="6.49978">
        <ele>1795</ele>
        <time>2021-05-20T04:31:16Z</time>
      </trkpt>
      <trkpt lat="45.91923" lon="6.49977">
        <ele>1796</ele>
        <time>2021-05-20T04:31:17Z</time>
      </trkpt>
      <trkpt lat="45.91922" lon="6.49977">
        <ele>1796</ele>
        <time>2021-05-20T04:31:18Z</time>
      </trkpt>
      <trkpt lat="45.91921" lon="6.49976">
        <ele>1796</ele>
        <time>2021-05-20T04:31:19Z</time>
      </trkpt>
      <trkpt lat="45.9192" lon="6.49976">
        <ele>1796</ele>
        <time>2021-05-20T04:31:20Z</time>
      </trkpt>
      <trkpt lat="45.9192" lon="6.49975">
        <ele>1796</ele>
        <time>2021-05-20T04:31:21Z</time>
      </trkpt>
      <trkpt lat="45.91919" lon="6.49974">
        <ele>1797</ele>
        <time>2021-05-20T04:31:22Z</time>
      </trkpt>
      <trkpt lat="45.91917" lon="6.49973">
        <ele>1797</ele>
        <time>2021-05-20T04:31:23Z</time>
      </trkpt>
      <trkpt lat="45.91916" lon="6.49971">
        <ele>1797</ele>
        <time>2021-05-20T04:31:24Z</time>
      </trkpt>
      <trkpt lat="45.91915" lon="6.4997">
        <ele>1797</ele>
        <time>2021-05-20T04:31:25Z</time>
      </trkpt>
      <trkpt lat="45.91914" lon="6.49968">
        <ele>1797</ele>
        <time>2021-05-20T04:31:26Z</time>
      </trkpt>
      <trkpt lat="45.91912" lon="6.49966">
        <ele>1798</ele>
        <time>2021-05-20T04:31:27Z</time>
      </trkpt>
      <trkpt lat="45.91911" lon="6.49965">
        <ele>1799</ele>
        <time>2021-05-20T04:31:28Z</time>
      </trkpt>
      <trkpt lat="45.9191" lon="6.49963">
        <ele>1799</ele>
        <time>2021-05-20T04:31:29Z</time>
      </trkpt>
      <trkpt lat="45.91908" lon="6.49961">
        <ele>1799</ele>
        <time>2021-05-20T04:31:30Z</time>
      </trkpt>
      <trkpt lat="45.91906" lon="6.4996">
        <ele>1799</ele>
        <time>2021-05-20T04:31:31Z</time>
      </trkpt>
      <trkpt lat="45.91904" lon="6.49958">
        <ele>1799</ele>
        <time>2021-05-20T04:31:32Z</time>
      </trkpt>
      <trkpt lat="45.91902" lon="6.49956">
        <ele>1799</ele>
        <time>2021-05-20T04:31:33Z</time>
      </trkpt>
      <trkpt lat="45.919" lon="6.49954">
        <ele>1800</ele>
        <time>2021-05-20T04:31:34Z</time>
      </trkpt>
      <trkpt lat="45.91899" lon="6.49953">
        <ele>1800</ele>
        <time>2021-05-20T04:31:35Z</time>
      </trkpt>
      <trkpt lat="45.91898" lon="6.49951">
        <ele>1800</ele>
        <time>2021-05-20T04:31:36Z</time>
      </trkpt>
      <trkpt lat="45.91897" lon="6.4995">
        <ele>1800</ele>
        <time>2021-05-20T04:31:37Z</time>
      </trkpt>
      <trkpt lat="45.91896" lon="6.49948">
        <ele>1801</ele>
        <time>2021-05-20T04:31:38Z</time>
      </trkpt>
      <trkpt lat="45.91894" lon="6.49947">
        <ele>1801</ele>
        <time>2021-05-20T04:31:39Z</time>
      </trkpt>
      <trkpt lat="45.91893" lon="6.49945">
        <ele>1801</ele>
        <time>2021-05-20T04:31:40Z</time>
      </trkpt>
      <trkpt lat="45.91892" lon="6.49943">
        <ele>1802</ele>
        <time>2021-05-20T04:31:41Z</time>
      </trkpt>
      <trkpt lat="45.91892" lon="6.49943">
        <ele>1802</ele>
        <time>2021-05-20T04:31:42Z</time>
      </trkpt>
      <trkpt lat="45.91891" lon="6.49942">
        <ele>1802</ele>
        <time>2021-05-20T04:31:43Z</time>
      </trkpt>
      <trkpt lat="45.9189" lon="6.49942">
        <ele>1802</ele>
        <time>2021-05-20T04:31:44Z</time>
      </trkpt>
      <trkpt lat="45.9189" lon="6.49941">
        <ele>1803</ele>
        <time>2021-05-20T04:31:45Z</time>
      </trkpt>
      <trkpt lat="45.91889" lon="6.4994">
        <ele>1803</ele>
        <time>2021-05-20T04:31:46Z</time>
      </trkpt>
      <trkpt lat="45.91889" lon="6.4994">
        <ele>1804</ele>
        <time>2021-05-20T04:31:47Z</time>
      </trkpt>
      <trkpt lat="45.91888" lon="6.49939">
        <ele>1804</ele>
        <time>2021-05-20T04:31:48Z</time>
      </trkpt>
      <trkpt lat="45.91887" lon="6.49938">
        <ele>1804</ele>
        <time>2021-05-20T04:31:49Z</time>
      </trkpt>
      <trkpt lat="45.91887" lon="6.49938">
        <ele>1804</ele>
        <time>2021-05-20T04:31:50Z</time>
      </trkpt>
      <trkpt lat="45.91886" lon="6.49937">
        <ele>1805</ele>
        <time>2021-05-20T04:31:51Z</time>
      </trkpt>
      <trkpt lat="45.91885" lon="6.49937">
        <ele>1805</ele>
        <time>2021-05-20T04:31:52Z</time>
      </trkpt>
      <trkpt lat="45.91885" lon="6.49936">
        <ele>1806</ele>
        <time>2021-05-20T04:31:53Z</time>
      </trkpt>
      <trkpt lat="45.91884" lon="6.49935">
        <ele>1806</ele>
        <time>2021-05-20T04:31:54Z</time>
      </trkpt>
      <trkpt lat="45.91884" lon="6.49935">
        <ele>1806</ele>
        <time>2021-05-20T04:31:55Z</time>
      </trkpt>
      <trkpt lat="45.91884" lon="6.49935">
        <ele>1806</ele>
        <time>2021-05-20T04:31:56Z</time>
      </trkpt>
      <trkpt lat="45.91883" lon="6.49935">
        <ele>1807</ele>
        <time>2021-05-20T04:31:57Z</time>
      </trkpt>
      <trkpt lat="45.91883" lon="6.49935">
        <ele>1807</ele>
        <time>2021-05-20T04:31:58Z</time>
      </trkpt>
      <trkpt lat="45.91883" lon="6.49935">
        <ele>1807</ele>
        <time>2021-05-20T04:31:59Z</time>
      </trkpt>
      <trkpt lat="45.91883" lon="6.49935">
        <ele>1808</ele>
        <time>2021-05-20T04:32:00Z</time>
      </trkpt>
      <trkpt lat="45.91882" lon="6.49934">
        <ele>1808</ele>
        <time>2021-05-20T04:32:01Z</time>
      </trkpt>
      <trkpt lat="45.91882" lon="6.49934">
        <ele>1808</ele>
        <time>2021-05-20T04:32:02Z</time>
      </trkpt>
      <trkpt lat="45.91882" lon="6.49934">
        <ele>1808</ele>
        <time>2021-05-20T04:32:03Z</time>
      </trkpt>
      <trkpt lat="45.91881" lon="6.49934">
        <ele>1808</ele>
        <time>2021-05-20T04:32:04Z</time>
      </trkpt>
      <trkpt lat="45.91881" lon="6.49934">
        <ele>1809</ele>
        <time>2021-05-20T04:32:05Z</time>
      </trkpt>
      <trkpt lat="45.91881" lon="6.49934">
        <ele>1810</ele>
        <time>2021-05-20T04:32:06Z</time>
      </trkpt>
      <trkpt lat="45.91881" lon="6.49934">
        <ele>1810</ele>
        <time>2021-05-20T04:32:07Z</time>
      </trkpt>
      <trkpt lat="45.9188" lon="6.49933">
        <ele>1810</ele>
        <time>2021-05-20T04:32:08Z</time>
      </trkpt>
      <trkpt lat="45.9188" lon="6.49933">
        <ele>1810</ele>
        <time>2021-05-20T04:32:09Z</time>
      </trkpt>
      <trkpt lat="45.9188" lon="6.49933">
        <ele>1810</ele>
        <time>2021-05-20T04:32:10Z</time>
      </trkpt>
      <trkpt lat="45.9188" lon="6.49933">
        <ele>1810</ele>
        <time>2021-05-20T04:32:11Z</time>
      </trkpt>
      <trkpt lat="45.91879" lon="6.49933">
        <ele>1811</ele>
        <time>2021-05-20T04:32:12Z</time>
      </trkpt>
      <trkpt lat="45.91879" lon="6.49933">
        <ele>1811</ele>
        <time>2021-05-20T04:32:13Z</time>
      </trkpt>
      <trkpt lat="45.91879" lon="6.49933">
        <ele>1811</ele>
        <time>2021-05-20T04:32:14Z</time>
      </trkpt>
      <trkpt lat="45.91879" lon="6.49933">
        <ele>1812</ele>
        <time>2021-05-20T04:32:15Z</time>
      </trkpt>
      <trkpt lat="45.91878" lon="6.49932">
        <ele>1812</ele>
        <time>2021-05-20T04:32:16Z</time>
      </trkpt>
      <trkpt lat="45.91878" lon="6.49932">
        <ele>1812</ele>
        <time>2021-05-20T04:32:17Z</time>
      </trkpt>
      <trkpt lat="45.91878" lon="6.49932">
        <ele>1813</ele>
        <time>2021-05-20T04:32:18Z</time>
      </trkpt>
      <trkpt lat="45.91877" lon="6.49932">
        <ele>1813</ele>
        <time>2021-05-20T04:32:19Z</time>
      </trkpt>
      <trkpt lat="45.91877" lon="6.49932">
        <ele>1813</ele>
        <time>2021-05-20T04:32:20Z</time>
      </trkpt>
      <trkpt lat="45.91877" lon="6.49932">
        <ele>1813</ele>
        <time>2021-05-20T04:32:21Z</time>
      </trkpt>
      <trkpt lat="45.91877" lon="6.49932">
        <ele>1813</ele>
        <time>2021-05-20T04:32:22Z</time>
      </trkpt>
      <trkpt lat="45.91876" lon="6.49931">
        <ele>1814</ele>
        <time>2021-05-20T04:32:23Z</time>
      </trkpt>
      <trkpt lat="45.91876" lon="6.49931">
        <ele>1814</ele>
        <time>2021-05-20T04:32:24Z</time>
      </trkpt>
      <trkpt lat="45.91876" lon="6.49931">
        <ele>1814</ele>
        <time>2021-05-20T04:32:25Z</time>
      </trkpt>
      <trkpt lat="45.91875" lon="6.49931">
        <ele>1815</ele>
        <time>2021-05-20T04:32:26Z</time>
      </trkpt>
      <trkpt lat="45.91874" lon="6.49931">
        <ele>1815</ele>
        <time>2021-05-20T04:32:27Z</time>
      </trkpt>
      <trkpt lat="45.91874" lon="6.49931">
        <ele>1815</ele>
        <time>2021-05-20T04:32:28Z</time>
      </trkpt>
      <trkpt lat="45.91873" lon="6.49931">
        <ele>1815</ele>
        <time>2021-05-20T04:32:29Z</time>
      </trkpt>
      <trkpt lat="45.91873" lon="6.49931">
        <ele>1816</ele>
        <time>2021-05-20T04:32:30Z</time>
      </trkpt>
      <trkpt lat="45.91872" lon="6.4993">
        <ele>1816</ele>
        <time>2021-05-20T04:32:31Z</time>
      </trkpt>
      <trkpt lat="45.91872" lon="6.4993">
        <ele>1816</ele>
        <time>2021-05-20T04:32:32Z</time>
      </trkpt>
      <trkpt lat="45.91871" lon="6.4993">
        <ele>1816</ele>
        <time>2021-05-20T04:32:33Z</time>
      </trkpt>
      <trkpt lat="45.9187" lon="6.4993">
        <ele>1816</ele>
        <time>2021-05-20T04:32:34Z</time>
      </trkpt>
      <trkpt lat="45.9187" lon="6.4993">
        <ele>1816</ele>
        <time>2021-05-20T04:32:35Z</time>
      </trkpt>
      <trkpt lat="45.91869" lon="6.49929">
        <ele>1816</ele>
        <time>2021-05-20T04:32:36Z</time>
      </trkpt>
      <trkpt lat="45.91869" lon="6.49929">
        <ele>1817</ele>
        <time>2021-05-20T04:32:37Z</time>
      </trkpt>
      <trkpt lat="45.91868" lon="6.49929">
        <ele>1817</ele>
        <time>2021-05-20T04:32:38Z</time>
      </trkpt>
      <trkpt lat="45.91867" lon="6.49929">
        <ele>1817</ele>
        <time>2021-05-20T04:32:39Z</time>
      </trkpt>
      <trkpt lat="45.91867" lon="6.49928">
        <ele>1817</ele>
        <time>2021-05-20T04:32:40Z</time>
      </trkpt>
      <trkpt lat="45.91866" lon="6.49928">
        <ele>1817</ele>
        <time>2021-05-20T04:32:41Z</time>
      </trkpt>
      <trkpt lat="45.91865" lon="6.49928">
        <ele>1818</ele>
        <time>2021-05-20T04:32:42Z</time>
      </trkpt>
      <trkpt lat="45.91865" lon="6.49928">
        <ele>1818</ele>
        <time>2021-05-20T04:32:43Z</time>
      </trkpt>
      <trkpt lat="45.91864" lon="6.49927">
        <ele>1818</ele>
        <time>2021-05-20T04:32:44Z</time>
      </trkpt>
      <trkpt lat="45.91864" lon="6.49927">
        <ele>1819</ele>
        <time>2021-05-20T04:32:45Z</time>
      </trkpt>
      <trkpt lat="45.91863" lon="6.49927">
        <ele>1819</ele>
        <time>2021-05-20T04:32:46Z</time>
      </trkpt>
      <trkpt lat="45.91862" lon="6.49927">
        <ele>1819</ele>
        <time>2021-05-20T04:32:47Z</time>
      </trkpt>
      <trkpt lat="45.91862" lon="6.49926">
        <ele>1819</ele>
        <time>2021-05-20T04:32:48Z</time>
      </trkpt>
      <trkpt lat="45.91861" lon="6.49926">
        <ele>1820</ele>
        <time>2021-05-20T04:32:49Z</time>
      </trkpt>
      <trkpt lat="45.91861" lon="6.49926">
        <ele>1820</ele>
        <time>2021-05-20T04:32:50Z</time>
      </trkpt>
      <trkpt lat="45.9186" lon="6.49926">
        <ele>1820</ele>
        <time>2021-05-20T04:32:51Z</time>
      </trkpt>
      <trkpt lat="45.9186" lon="6.49927">
        <ele>1821</ele>
        <time>2021-05-20T04:32:52Z</time>
      </trkpt>
      <trkpt lat="45.91859" lon="6.49927">
        <ele>1821</ele>
        <time>2021-05-20T04:32:53Z</time>
      </trkpt>
      <trkpt lat="45.91859" lon="6.49928">
        <ele>1821</ele>
        <time>2021-05-20T04:32:54Z</time>
      </trkpt>
      <trkpt lat="45.91859" lon="6.49928">
        <ele>1821</ele>
        <time>2021-05-20T04:32:55Z</time>
      </trkpt>
      <trkpt lat="45.91858" lon="6.49929">
        <ele>1821</ele>
        <time>2021-05-20T04:32:56Z</time>
      </trkpt>
      <trkpt lat="45.91858" lon="6.49929">
        <ele>1822</ele>
        <time>2021-05-20T04:32:57Z</time>
      </trkpt>
      <trkpt lat="45.91858" lon="6.4993">
        <ele>1822</ele>
        <time>2021-05-20T04:32:58Z</time>
      </trkpt>
      <trkpt lat="45.91857" lon="6.4993">
        <ele>1822</ele>
        <time>2021-05-20T04:32:59Z</time>
      </trkpt>
      <trkpt lat="45.91857" lon="6.4993">
        <ele>1822</ele>
        <time>2021-05-20T04:33:00Z</time>
      </trkpt>
      <trkpt lat="45.91857" lon="6.49931">
        <ele>1823</ele>
        <time>2021-05-20T04:33:01Z</time>
      </trkpt>
      <trkpt lat="45.91856" lon="6.49931">
        <ele>1823</ele>
        <time>2021-05-20T04:33:02Z</time>
      </trkpt>
      <trkpt lat="45.91856" lon="6.49932">
        <ele>1823</ele>
        <time>2021-05-20T04:33:03Z</time>
      </trkpt>
      <trkpt lat="45.91856" lon="6.49932">
        <ele>1823</ele>
        <time>2021-05-20T04:33:04Z</time>
      </trkpt>
      <trkpt lat="45.91855" lon="6.49933">
        <ele>1823</ele>
        <time>2021-05-20T04:33:05Z</time>
      </trkpt>
      <trkpt lat="45.91855" lon="6.49933">
        <ele>1823</ele>
        <time>2021-05-20T04:33:06Z</time>
      </trkpt>
      <trkpt lat="45.91854" lon="6.49934">
        <ele>1823</ele>
        <time>2021-05-20T04:33:07Z</time>
      </trkpt>
      <trkpt lat="45.91854" lon="6.49934">
        <ele>1823</ele>
        <time>2021-05-20T04:33:08Z</time>
      </trkpt>
      <trkpt lat="45.91854" lon="6.49935">
        <ele>1824</ele>
        <time>2021-05-20T04:33:09Z</time>
      </trkpt>
      <trkpt lat="45.91853" lon="6.49935">
        <ele>1824</ele>
        <time>2021-05-20T04:33:10Z</time>
      </trkpt>
      <trkpt lat="45.91853" lon="6.49936">
        <ele>1824</ele>
        <time>2021-05-20T04:33:11Z</time>
      </trkpt>
      <trkpt lat="45.91853" lon="6.49937">
        <ele>1825</ele>
        <time>2021-05-20T04:33:12Z</time>
      </trkpt>
      <trkpt lat="45.91852" lon="6.49938">
        <ele>1825</ele>
        <time>2021-05-20T04:33:13Z</time>
      </trkpt>
      <trkpt lat="45.91852" lon="6.49939">
        <ele>1825</ele>
        <time>2021-05-20T04:33:14Z</time>
      </trkpt>
      <trkpt lat="45.91852" lon="6.4994">
        <ele>1825</ele>
        <time>2021-05-20T04:33:15Z</time>
      </trkpt>
      <trkpt lat="45.91852" lon="6.49941">
        <ele>1825</ele>
        <time>2021-05-20T04:33:16Z</time>
      </trkpt>
      <trkpt lat="45.91851" lon="6.49942">
        <ele>1826</ele>
        <time>2021-05-20T04:33:17Z</time>
      </trkpt>
      <trkpt lat="45.91851" lon="6.49943">
        <ele>1826</ele>
        <time>2021-05-20T04:33:18Z</time>
      </trkpt>
      <trkpt lat="45.91851" lon="6.49944">
        <ele>1826</ele>
        <time>2021-05-20T04:33:19Z</time>
      </trkpt>
      <trkpt lat="45.9185" lon="6.49945">
        <ele>1827</ele>
        <time>2021-05-20T04:33:20Z</time>
      </trkpt>
      <trkpt lat="45.9185" lon="6.49946">
        <ele>1827</ele>
        <time>2021-05-20T04:33:21Z</time>
      </trkpt>
      <trkpt lat="45.9185" lon="6.49947">
        <ele>1827</ele>
        <time>2021-05-20T04:33:22Z</time>
      </trkpt>
      <trkpt lat="45.91849" lon="6.49948">
        <ele>1827</ele>
        <time>2021-05-20T04:33:23Z</time>
      </trkpt>
      <trkpt lat="45.91849" lon="6.49949">
        <ele>1827</ele>
        <time>2021-05-20T04:33:24Z</time>
      </trkpt>
      <trkpt lat="45.91849" lon="6.4995">
        <ele>1827</ele>
        <time>2021-05-20T04:33:25Z</time>
      </trkpt>
      <trkpt lat="45.91849" lon="6.49951">
        <ele>1828</ele>
        <time>2021-05-20T04:33:26Z</time>
      </trkpt>
      <trkpt lat="45.91848" lon="6.49952">
        <ele>1828</ele>
        <time>2021-05-20T04:33:27Z</time>
      </trkpt>
      <trkpt lat="45.91848" lon="6.49953">
        <ele>1829</ele>
        <time>2021-05-20T04:33:28Z</time>
      </trkpt>
      <trkpt lat="45.91848" lon="6.49953">
        <ele>1829</ele>
        <time>2021-05-20T04:33:29Z</time>
      </trkpt>
      <trkpt lat="45.91848" lon="6.49954">
        <ele>1829</ele>
        <time>2021-05-20T04:33:30Z</time>
      </trkpt>
      <trkpt lat="45.91847" lon="6.49955">
        <ele>1830</ele>
        <time>2021-05-20T04:33:31Z</time>
      </trkpt>
      <trkpt lat="45.91847" lon="6.49956">
        <ele>1830</ele>
        <time>2021-05-20T04:33:32Z</time>
      </trkpt>
      <trkpt lat="45.91847" lon="6.49957">
        <ele>1830</ele>
        <time>2021-05-20T04:33:33Z</time>
      </trkpt>
      <trkpt lat="45.91847" lon="6.49957">
        <ele>1831</ele>
        <time>2021-05-20T04:33:34Z</time>
      </trkpt>
      <trkpt lat="45.91846" lon="6.49958">
        <ele>1831</ele>
        <time>2021-05-20T04:33:35Z</time>
      </trkpt>
      <trkpt lat="45.91846" lon="6.49959">
        <ele>1831</ele>
        <time>2021-05-20T04:33:36Z</time>
      </trkpt>
      <trkpt lat="45.91846" lon="6.4996">
        <ele>1832</ele>
        <time>2021-05-20T04:33:37Z</time>
      </trkpt>
      <trkpt lat="45.91846" lon="6.4996">
        <ele>1832</ele>
        <time>2021-05-20T04:33:38Z</time>
      </trkpt>
      <trkpt lat="45.91846" lon="6.49961">
        <ele>1832</ele>
        <time>2021-05-20T04:33:39Z</time>
      </trkpt>
      <trkpt lat="45.91845" lon="6.49962">
        <ele>1832</ele>
        <time>2021-05-20T04:33:40Z</time>
      </trkpt>
      <trkpt lat="45.91845" lon="6.49963">
        <ele>1832</ele>
        <time>2021-05-20T04:33:41Z</time>
      </trkpt>
      <trkpt lat="45.91845" lon="6.49963">
        <ele>1833</ele>
        <time>2021-05-20T04:33:42Z</time>
      </trkpt>
      <trkpt lat="45.91845" lon="6.49964">
        <ele>1833</ele>
        <time>2021-05-20T04:33:43Z</time>
      </trkpt>
      <trkpt lat="45.91844" lon="6.49965">
        <ele>1834</ele>
        <time>2021-05-20T04:33:44Z</time>
      </trkpt>
      <trkpt lat="45.91844" lon="6.49966">
        <ele>1834</ele>
        <time>2021-05-20T04:33:45Z</time>
      </trkpt>
      <trkpt lat="45.91844" lon="6.49967">
        <ele>1834</ele>
        <time>2021-05-20T04:33:46Z</time>
      </trkpt>
      <trkpt lat="45.91843" lon="6.49967">
        <ele>1834</ele>
        <time>2021-05-20T04:33:47Z</time>
      </trkpt>
      <trkpt lat="45.91843" lon="6.49968">
        <ele>1834</ele>
        <time>2021-05-20T04:33:48Z</time>
      </trkpt>
      <trkpt lat="45.91842" lon="6.49968">
        <ele>1835</ele>
        <time>2021-05-20T04:33:49Z</time>
      </trkpt>
      <trkpt lat="45.91842" lon="6.49968">
        <ele>1835</ele>
        <time>2021-05-20T04:33:50Z</time>
      </trkpt>
      <trkpt lat="45.91841" lon="6.49967">
        <ele>1835</ele>
        <time>2021-05-20T04:33:51Z</time>
      </trkpt>
      <trkpt lat="45.91841" lon="6.49967">
        <ele>1836</ele>
        <time>2021-05-20T04:33:52Z</time>
      </trkpt>
      <trkpt lat="45.9184" lon="6.49967">
        <ele>1836</ele>
        <time>2021-05-20T04:33:53Z</time>
      </trkpt>
      <trkpt lat="45.9184" lon="6.49967">
        <ele>1836</ele>
        <time>2021-05-20T04:33:54Z</time>
      </trkpt>
      <trkpt lat="45.9184" lon="6.49967">
        <ele>1836</ele>
        <time>2021-05-20T04:33:55Z</time>
      </trkpt>
      <trkpt lat="45.9184" lon="6.49967">
        <ele>1837</ele>
        <time>2021-05-20T04:33:56Z</time>
      </trkpt>
      <trkpt lat="45.91836" lon="6.49964">
        <ele>1837</ele>
        <time>2021-05-20T04:33:57Z</time>
      </trkpt>
      <trkpt lat="45.91836" lon="6.49964">
        <ele>1837</ele>
        <time>2021-05-20T04:33:58Z</time>
      </trkpt>
      <trkpt lat="45.91836" lon="6.49964">
        <ele>1837</ele>
        <time>2021-05-20T04:33:59Z</time>
      </trkpt>
      <trkpt lat="45.91836" lon="6.49964">
        <ele>1838</ele>
        <time>2021-05-20T04:34:00Z</time>
      </trkpt>
      <trkpt lat="45.91836" lon="6.49964">
        <ele>1838</ele>
        <time>2021-05-20T04:34:01Z</time>
      </trkpt>
      <trkpt lat="45.91832" lon="6.49962">
        <ele>1838</ele>
        <time>2021-05-20T04:34:02Z</time>
      </trkpt>
      <trkpt lat="45.91832" lon="6.49962">
        <ele>1839</ele>
        <time>2021-05-20T04:34:03Z</time>
      </trkpt>
      <trkpt lat="45.91832" lon="6.49961">
        <ele>1839</ele>
        <time>2021-05-20T04:34:04Z</time>
      </trkpt>
      <trkpt lat="45.91831" lon="6.4996">
        <ele>1839</ele>
        <time>2021-05-20T04:34:05Z</time>
      </trkpt>
      <trkpt lat="45.9183" lon="6.49959">
        <ele>1839</ele>
        <time>2021-05-20T04:34:06Z</time>
      </trkpt>
      <trkpt lat="45.91829" lon="6.49958">
        <ele>1839</ele>
        <time>2021-05-20T04:34:07Z</time>
      </trkpt>
      <trkpt lat="45.91829" lon="6.49958">
        <ele>1840</ele>
        <time>2021-05-20T04:34:08Z</time>
      </trkpt>
      <trkpt lat="45.91829" lon="6.49957">
        <ele>1841</ele>
        <time>2021-05-20T04:34:09Z</time>
      </trkpt>
      <trkpt lat="45.91828" lon="6.49956">
        <ele>1841</ele>
        <time>2021-05-20T04:34:10Z</time>
      </trkpt>
      <trkpt lat="45.91828" lon="6.49955">
        <ele>1841</ele>
        <time>2021-05-20T04:34:11Z</time>
      </trkpt>
      <trkpt lat="45.91828" lon="6.49954">
        <ele>1841</ele>
        <time>2021-05-20T04:34:12Z</time>
      </trkpt>
      <trkpt lat="45.91828" lon="6.49954">
        <ele>1841</ele>
        <time>2021-05-20T04:34:13Z</time>
      </trkpt>
      <trkpt lat="45.91828" lon="6.49954">
        <ele>1841</ele>
        <time>2021-05-20T04:34:14Z</time>
      </trkpt>
      <trkpt lat="45.91828" lon="6.49954">
        <ele>1841</ele>
        <time>2021-05-20T04:34:15Z</time>
      </trkpt>
      <trkpt lat="45.91825" lon="6.49951">
        <ele>1841</ele>
        <time>2021-05-20T04:34:16Z</time>
      </trkpt>
      <trkpt lat="45.91825" lon="6.49951">
        <ele>1842</ele>
        <time>2021-05-20T04:34:17Z</time>
      </trkpt>
      <trkpt lat="45.91825" lon="6.49951">
        <ele>1842</ele>
        <time>2021-05-20T04:34:18Z</time>
      </trkpt>
      <trkpt lat="45.91825" lon="6.49951">
        <ele>1843</ele>
        <time>2021-05-20T04:34:19Z</time>
      </trkpt>
      <trkpt lat="45.91822" lon="6.49947">
        <ele>1843</ele>
        <time>2021-05-20T04:34:20Z</time>
      </trkpt>
      <trkpt lat="45.91822" lon="6.49947">
        <ele>1843</ele>
        <time>2021-05-20T04:34:21Z</time>
      </trkpt>
      <trkpt lat="45.91821" lon="6.49947">
        <ele>1844</ele>
        <time>2021-05-20T04:34:22Z</time>
      </trkpt>
      <trkpt lat="45.9182" lon="6.49946">
        <ele>1844</ele>
        <time>2021-05-20T04:34:23Z</time>
      </trkpt>
      <trkpt lat="45.9182" lon="6.49945">
        <ele>1844</ele>
        <time>2021-05-20T04:34:24Z</time>
      </trkpt>
      <trkpt lat="45.91819" lon="6.49945">
        <ele>1844</ele>
        <time>2021-05-20T04:34:25Z</time>
      </trkpt>
      <trkpt lat="45.91818" lon="6.49944">
        <ele>1845</ele>
        <time>2021-05-20T04:34:26Z</time>
      </trkpt>
      <trkpt lat="45.91818" lon="6.49944">
        <ele>1845</ele>
        <time>2021-05-20T04:34:27Z</time>
      </trkpt>
      <trkpt lat="45.91818" lon="6.49944">
        <ele>1845</ele>
        <time>2021-05-20T04:34:28Z</time>
      </trkpt>
      <trkpt lat="45.91818" lon="6.49944">
        <ele>1845</ele>
        <time>2021-05-20T04:34:29Z</time>
      </trkpt>
      <trkpt lat="45.91815" lon="6.49942">
        <ele>1846</ele>
        <time>2021-05-20T04:34:30Z</time>
      </trkpt>
      <trkpt lat="45.91815" lon="6.49942">
        <ele>1846</ele>
        <time>2021-05-20T04:34:31Z</time>
      </trkpt>
      <trkpt lat="45.91814" lon="6.49941">
        <ele>1846</ele>
        <time>2021-05-20T04:34:32Z</time>
      </trkpt>
      <trkpt lat="45.91814" lon="6.49941">
        <ele>1847</ele>
        <time>2021-05-20T04:34:33Z</time>
      </trkpt>
      <trkpt lat="45.91813" lon="6.4994">
        <ele>1847</ele>
        <time>2021-05-20T04:34:34Z</time>
      </trkpt>
      <trkpt lat="45.91813" lon="6.49939">
        <ele>1847</ele>
        <time>2021-05-20T04:34:35Z</time>
      </trkpt>
      <trkpt lat="45.91812" lon="6.49939">
        <ele>1847</ele>
        <time>2021-05-20T04:34:36Z</time>
      </trkpt>
      <trkpt lat="45.91812" lon="6.49938">
        <ele>1847</ele>
        <time>2021-05-20T04:34:37Z</time>
      </trkpt>
      <trkpt lat="45.91811" lon="6.49938">
        <ele>1848</ele>
        <time>2021-05-20T04:34:38Z</time>
      </trkpt>
      <trkpt lat="45.91811" lon="6.49938">
        <ele>1848</ele>
        <time>2021-05-20T04:34:39Z</time>
      </trkpt>
      <trkpt lat="45.9181" lon="6.49938">
        <ele>1848</ele>
        <time>2021-05-20T04:34:40Z</time>
      </trkpt>
      <trkpt lat="45.9181" lon="6.49939">
        <ele>1849</ele>
        <time>2021-05-20T04:34:41Z</time>
      </trkpt>
      <trkpt lat="45.91809" lon="6.49939">
        <ele>1849</ele>
        <time>2021-05-20T04:34:42Z</time>
      </trkpt>
      <trkpt lat="45.91809" lon="6.49939">
        <ele>1849</ele>
        <time>2021-05-20T04:34:43Z</time>
      </trkpt>
      <trkpt lat="45.91808" lon="6.49939">
        <ele>1850</ele>
        <time>2021-05-20T04:34:44Z</time>
      </trkpt>
      <trkpt lat="45.91808" lon="6.49939">
        <ele>1850</ele>
        <time>2021-05-20T04:34:45Z</time>
      </trkpt>
      <trkpt lat="45.91808" lon="6.49939">
        <ele>1850</ele>
        <time>2021-05-20T04:34:46Z</time>
      </trkpt>
      <trkpt lat="45.91808" lon="6.49939">
        <ele>1850</ele>
        <time>2021-05-20T04:34:47Z</time>
      </trkpt>
      <trkpt lat="45.91808" lon="6.49939">
        <ele>1850</ele>
        <time>2021-05-20T04:34:48Z</time>
      </trkpt>
      <trkpt lat="45.91808" lon="6.49939">
        <ele>1851</ele>
        <time>2021-05-20T04:34:49Z</time>
      </trkpt>
      <trkpt lat="45.91808" lon="6.49939">
        <ele>1851</ele>
        <time>2021-05-20T04:34:50Z</time>
      </trkpt>
      <trkpt lat="45.91805" lon="6.49942">
        <ele>1851</ele>
        <time>2021-05-20T04:34:51Z</time>
      </trkpt>
      <trkpt lat="45.91805" lon="6.49942">
        <ele>1852</ele>
        <time>2021-05-20T04:34:52Z</time>
      </trkpt>
      <trkpt lat="45.91805" lon="6.49943">
        <ele>1852</ele>
        <time>2021-05-20T04:34:53Z</time>
      </trkpt>
      <trkpt lat="45.91804" lon="6.49943">
        <ele>1852</ele>
        <time>2021-05-20T04:34:54Z</time>
      </trkpt>
      <trkpt lat="45.91804" lon="6.49944">
        <ele>1852</ele>
        <time>2021-05-20T04:34:55Z</time>
      </trkpt>
      <trkpt lat="45.91803" lon="6.49945">
        <ele>1852</ele>
        <time>2021-05-20T04:34:56Z</time>
      </trkpt>
      <trkpt lat="45.91803" lon="6.49945">
        <ele>1853</ele>
        <time>2021-05-20T04:34:57Z</time>
      </trkpt>
      <trkpt lat="45.91802" lon="6.49946">
        <ele>1853</ele>
        <time>2021-05-20T04:34:58Z</time>
      </trkpt>
      <trkpt lat="45.91801" lon="6.49946">
        <ele>1853</ele>
        <time>2021-05-20T04:34:59Z</time>
      </trkpt>
      <trkpt lat="45.91801" lon="6.49947">
        <ele>1854</ele>
        <time>2021-05-20T04:35:00Z</time>
      </trkpt>
      <trkpt lat="45.918" lon="6.49947">
        <ele>1854</ele>
        <time>2021-05-20T04:35:01Z</time>
      </trkpt>
      <trkpt lat="45.918" lon="6.49948">
        <ele>1854</ele>
        <time>2021-05-20T04:35:02Z</time>
      </trkpt>
      <trkpt lat="45.91799" lon="6.49948">
        <ele>1855</ele>
        <time>2021-05-20T04:35:03Z</time>
      </trkpt>
      <trkpt lat="45.91799" lon="6.49949">
        <ele>1855</ele>
        <time>2021-05-20T04:35:04Z</time>
      </trkpt>
      <trkpt lat="45.91798" lon="6.49949">
        <ele>1855</ele>
        <time>2021-05-20T04:35:05Z</time>
      </trkpt>
      <trkpt lat="45.91798" lon="6.4995">
        <ele>1855</ele>
        <time>2021-05-20T04:35:06Z</time>
      </trkpt>
      <trkpt lat="45.91797" lon="6.4995">
        <ele>1856</ele>
        <time>2021-05-20T04:35:07Z</time>
      </trkpt>
      <trkpt lat="45.91796" lon="6.4995">
        <ele>1856</ele>
        <time>2021-05-20T04:35:08Z</time>
      </trkpt>
      <trkpt lat="45.91796" lon="6.49951">
        <ele>1857</ele>
        <time>2021-05-20T04:35:09Z</time>
      </trkpt>
      <trkpt lat="45.91795" lon="6.49951">
        <ele>1857</ele>
        <time>2021-05-20T04:35:10Z</time>
      </trkpt>
      <trkpt lat="45.91795" lon="6.49951">
        <ele>1857</ele>
        <time>2021-05-20T04:35:11Z</time>
      </trkpt>
      <trkpt lat="45.91795" lon="6.49951">
        <ele>1858</ele>
        <time>2021-05-20T04:35:12Z</time>
      </trkpt>
      <trkpt lat="45.91795" lon="6.49951">
        <ele>1858</ele>
        <time>2021-05-20T04:35:13Z</time>
      </trkpt>
      <trkpt lat="45.91795" lon="6.49951">
        <ele>1858</ele>
        <time>2021-05-20T04:35:14Z</time>
      </trkpt>
      <trkpt lat="45.91792" lon="6.49953">
        <ele>1859</ele>
        <time>2021-05-20T04:35:15Z</time>
      </trkpt>
      <trkpt lat="45.91792" lon="6.49953">
        <ele>1859</ele>
        <time>2021-05-20T04:35:16Z</time>
      </trkpt>
      <trkpt lat="45.91792" lon="6.49953">
        <ele>1859</ele>
        <time>2021-05-20T04:35:17Z</time>
      </trkpt>
      <trkpt lat="45.91792" lon="6.49953">
        <ele>1859</ele>
        <time>2021-05-20T04:35:18Z</time>
      </trkpt>
      <trkpt lat="45.91792" lon="6.49953">
        <ele>1859</ele>
        <time>2021-05-20T04:35:19Z</time>
      </trkpt>
      <trkpt lat="45.91792" lon="6.49953">
        <ele>1860</ele>
        <time>2021-05-20T04:35:20Z</time>
      </trkpt>
      <trkpt lat="45.91788" lon="6.49955">
        <ele>1860</ele>
        <time>2021-05-20T04:35:21Z</time>
      </trkpt>
      <trkpt lat="45.91788" lon="6.49955">
        <ele>1860</ele>
        <time>2021-05-20T04:35:22Z</time>
      </trkpt>
      <trkpt lat="45.91788" lon="6.49955">
        <ele>1860</ele>
        <time>2021-05-20T04:35:23Z</time>
      </trkpt>
      <trkpt lat="45.91788" lon="6.49955">
        <ele>1860</ele>
        <time>2021-05-20T04:35:24Z</time>
      </trkpt>
      <trkpt lat="45.91788" lon="6.49955">
        <ele>1861</ele>
        <time>2021-05-20T04:35:25Z</time>
      </trkpt>
      <trkpt lat="45.91785" lon="6.49956">
        <ele>1861</ele>
        <time>2021-05-20T04:35:26Z</time>
      </trkpt>
      <trkpt lat="45.91785" lon="6.49956">
        <ele>1861</ele>
        <time>2021-05-20T04:35:27Z</time>
      </trkpt>
      <trkpt lat="45.91785" lon="6.49957">
        <ele>1861</ele>
        <time>2021-05-20T04:35:28Z</time>
      </trkpt>
      <trkpt lat="45.91784" lon="6.49957">
        <ele>1861</ele>
        <time>2021-05-20T04:35:29Z</time>
      </trkpt>
      <trkpt lat="45.91784" lon="6.49958">
        <ele>1861</ele>
        <time>2021-05-20T04:35:30Z</time>
      </trkpt>
      <trkpt lat="45.91784" lon="6.49958">
        <ele>1862</ele>
        <time>2021-05-20T04:35:31Z</time>
      </trkpt>
      <trkpt lat="45.91784" lon="6.49959">
        <ele>1862</ele>
        <time>2021-05-20T04:35:32Z</time>
      </trkpt>
      <trkpt lat="45.91784" lon="6.49959">
        <ele>1862</ele>
        <time>2021-05-20T04:35:33Z</time>
      </trkpt>
      <trkpt lat="45.91783" lon="6.4996">
        <ele>1862</ele>
        <time>2021-05-20T04:35:34Z</time>
      </trkpt>
      <trkpt lat="45.91783" lon="6.4996">
        <ele>1862</ele>
        <time>2021-05-20T04:35:35Z</time>
      </trkpt>
      <trkpt lat="45.91783" lon="6.49961">
        <ele>1863</ele>
        <time>2021-05-20T04:35:36Z</time>
      </trkpt>
      <trkpt lat="45.91783" lon="6.49961">
        <ele>1864</ele>
        <time>2021-05-20T04:35:37Z</time>
      </trkpt>
      <trkpt lat="45.91783" lon="6.49962">
        <ele>1864</ele>
        <time>2021-05-20T04:35:38Z</time>
      </trkpt>
      <trkpt lat="45.91783" lon="6.49963">
        <ele>1864</ele>
        <time>2021-05-20T04:35:39Z</time>
      </trkpt>
      <trkpt lat="45.91783" lon="6.49964">
        <ele>1864</ele>
        <time>2021-05-20T04:35:40Z</time>
      </trkpt>
      <trkpt lat="45.91783" lon="6.49965">
        <ele>1865</ele>
        <time>2021-05-20T04:35:41Z</time>
      </trkpt>
      <trkpt lat="45.91783" lon="6.49966">
        <ele>1865</ele>
        <time>2021-05-20T04:35:42Z</time>
      </trkpt>
      <trkpt lat="45.91783" lon="6.49967">
        <ele>1865</ele>
        <time>2021-05-20T04:35:43Z</time>
      </trkpt>
      <trkpt lat="45.91783" lon="6.49969">
        <ele>1865</ele>
        <time>2021-05-20T04:35:44Z</time>
      </trkpt>
      <trkpt lat="45.91783" lon="6.4997">
        <ele>1865</ele>
        <time>2021-05-20T04:35:45Z</time>
      </trkpt>
      <trkpt lat="45.91783" lon="6.4997">
        <ele>1865</ele>
        <time>2021-05-20T04:35:46Z</time>
      </trkpt>
      <trkpt lat="45.91783" lon="6.49971">
        <ele>1865</ele>
        <time>2021-05-20T04:35:47Z</time>
      </trkpt>
      <trkpt lat="45.91782" lon="6.49972">
        <ele>1866</ele>
        <time>2021-05-20T04:35:48Z</time>
      </trkpt>
      <trkpt lat="45.91782" lon="6.49973">
        <ele>1866</ele>
        <time>2021-05-20T04:35:49Z</time>
      </trkpt>
      <trkpt lat="45.91782" lon="6.49974">
        <ele>1866</ele>
        <time>2021-05-20T04:35:50Z</time>
      </trkpt>
      <trkpt lat="45.91782" lon="6.49975">
        <ele>1866</ele>
        <time>2021-05-20T04:35:51Z</time>
      </trkpt>
      <trkpt lat="45.91782" lon="6.49975">
        <ele>1866</ele>
        <time>2021-05-20T04:35:52Z</time>
      </trkpt>
      <trkpt lat="45.91782" lon="6.49975">
        <ele>1866</ele>
        <time>2021-05-20T04:35:53Z</time>
      </trkpt>
      <trkpt lat="45.91782" lon="6.49975">
        <ele>1867</ele>
        <time>2021-05-20T04:35:54Z</time>
      </trkpt>
      <trkpt lat="45.91782" lon="6.49975">
        <ele>1867</ele>
        <time>2021-05-20T04:35:55Z</time>
      </trkpt>
      <trkpt lat="45.91782" lon="6.49975">
        <ele>1868</ele>
        <time>2021-05-20T04:35:56Z</time>
      </trkpt>
      <trkpt lat="45.91782" lon="6.49975">
        <ele>1868</ele>
        <time>2021-05-20T04:35:57Z</time>
      </trkpt>
      <trkpt lat="45.91782" lon="6.49975">
        <ele>1868</ele>
        <time>2021-05-20T04:35:58Z</time>
      </trkpt>
      <trkpt lat="45.91782" lon="6.49975">
        <ele>1868</ele>
        <time>2021-05-20T04:35:59Z</time>
      </trkpt>
      <trkpt lat="45.9178" lon="6.49977">
        <ele>1869</ele>
        <time>2021-05-20T04:36:00Z</time>
      </trkpt>
      <trkpt lat="45.9178" lon="6.49977">
        <ele>1869</ele>
        <time>2021-05-20T04:36:01Z</time>
      </trkpt>
      <trkpt lat="45.91779" lon="6.49977">
        <ele>1869</ele>
        <time>2021-05-20T04:36:02Z</time>
      </trkpt>
      <trkpt lat="45.91778" lon="6.49977">
        <ele>1870</ele>
        <time>2021-05-20T04:36:03Z</time>
      </trkpt>
      <trkpt lat="45.91778" lon="6.49976">
        <ele>1870</ele>
        <time>2021-05-20T04:36:04Z</time>
      </trkpt>
      <trkpt lat="45.91777" lon="6.49976">
        <ele>1870</ele>
        <time>2021-05-20T04:36:05Z</time>
      </trkpt>
      <trkpt lat="45.91776" lon="6.49976">
        <ele>1871</ele>
        <time>2021-05-20T04:36:06Z</time>
      </trkpt>
      <trkpt lat="45.91775" lon="6.49975">
        <ele>1871</ele>
        <time>2021-05-20T04:36:07Z</time>
      </trkpt>
      <trkpt lat="45.91774" lon="6.49975">
        <ele>1871</ele>
        <time>2021-05-20T04:36:08Z</time>
      </trkpt>
      <trkpt lat="45.91773" lon="6.49975">
        <ele>1871</ele>
        <time>2021-05-20T04:36:09Z</time>
      </trkpt>
      <trkpt lat="45.91773" lon="6.49975">
        <ele>1871</ele>
        <time>2021-05-20T04:36:10Z</time>
      </trkpt>
      <trkpt lat="45.91772" lon="6.49975">
        <ele>1872</ele>
        <time>2021-05-20T04:36:11Z</time>
      </trkpt>
      <trkpt lat="45.91772" lon="6.49975">
        <ele>1872</ele>
        <time>2021-05-20T04:36:12Z</time>
      </trkpt>
      <trkpt lat="45.91772" lon="6.49975">
        <ele>1872</ele>
        <time>2021-05-20T04:36:13Z</time>
      </trkpt>
      <trkpt lat="45.91772" lon="6.49975">
        <ele>1872</ele>
        <time>2021-05-20T04:36:14Z</time>
      </trkpt>
      <trkpt lat="45.91772" lon="6.49975">
        <ele>1872</ele>
        <time>2021-05-20T04:36:15Z</time>
      </trkpt>
      <trkpt lat="45.91772" lon="6.49975">
        <ele>1872</ele>
        <time>2021-05-20T04:36:16Z</time>
      </trkpt>
      <trkpt lat="45.91772" lon="6.4998">
        <ele>1872</ele>
        <time>2021-05-20T04:36:17Z</time>
      </trkpt>
      <trkpt lat="45.91772" lon="6.4998">
        <ele>1873</ele>
        <time>2021-05-20T04:36:18Z</time>
      </trkpt>
      <trkpt lat="45.91772" lon="6.4998">
        <ele>1873</ele>
        <time>2021-05-20T04:36:19Z</time>
      </trkpt>
      <trkpt lat="45.91772" lon="6.4998">
        <ele>1873</ele>
        <time>2021-05-20T04:36:20Z</time>
      </trkpt>
      <trkpt lat="45.91772" lon="6.49985">
        <ele>1874</ele>
        <time>2021-05-20T04:36:21Z</time>
      </trkpt>
      <trkpt lat="45.91772" lon="6.49985">
        <ele>1874</ele>
        <time>2021-05-20T04:36:22Z</time>
      </trkpt>
      <trkpt lat="45.91772" lon="6.49986">
        <ele>1874</ele>
        <time>2021-05-20T04:36:23Z</time>
      </trkpt>
      <trkpt lat="45.91772" lon="6.49987">
        <ele>1875</ele>
        <time>2021-05-20T04:36:24Z</time>
      </trkpt>
      <trkpt lat="45.91772" lon="6.49988">
        <ele>1875</ele>
        <time>2021-05-20T04:36:25Z</time>
      </trkpt>
      <trkpt lat="45.91772" lon="6.49989">
        <ele>1875</ele>
        <time>2021-05-20T04:36:26Z</time>
      </trkpt>
      <trkpt lat="45.91772" lon="6.49991">
        <ele>1875</ele>
        <time>2021-05-20T04:36:27Z</time>
      </trkpt>
      <trkpt lat="45.91772" lon="6.49991">
        <ele>1875</ele>
        <time>2021-05-20T04:36:28Z</time>
      </trkpt>
      <trkpt lat="45.91772" lon="6.49991">
        <ele>1875</ele>
        <time>2021-05-20T04:36:29Z</time>
      </trkpt>
      <trkpt lat="45.91772" lon="6.49991">
        <ele>1875</ele>
        <time>2021-05-20T04:36:30Z</time>
      </trkpt>
      <trkpt lat="45.91772" lon="6.49991">
        <ele>1876</ele>
        <time>2021-05-20T04:36:31Z</time>
      </trkpt>
      <trkpt lat="45.91772" lon="6.49991">
        <ele>1876</ele>
        <time>2021-05-20T04:36:32Z</time>
      </trkpt>
      <trkpt lat="45.91772" lon="6.49991">
        <ele>1876</ele>
        <time>2021-05-20T04:36:33Z</time>
      </trkpt>
      <trkpt lat="45.91772" lon="6.49991">
        <ele>1877</ele>
        <time>2021-05-20T04:36:34Z</time>
      </trkpt>
      <trkpt lat="45.9177" lon="6.49989">
        <ele>1878</ele>
        <time>2021-05-20T04:36:35Z</time>
      </trkpt>
      <trkpt lat="45.9177" lon="6.49989">
        <ele>1878</ele>
        <time>2021-05-20T04:36:36Z</time>
      </trkpt>
      <trkpt lat="45.9177" lon="6.49989">
        <ele>1879</ele>
        <time>2021-05-20T04:36:37Z</time>
      </trkpt>
      <trkpt lat="45.9177" lon="6.49989">
        <ele>1879</ele>
        <time>2021-05-20T04:36:38Z</time>
      </trkpt>
      <trkpt lat="45.9177" lon="6.49989">
        <ele>1879</ele>
        <time>2021-05-20T04:36:39Z</time>
      </trkpt>
      <trkpt lat="45.9177" lon="6.49989">
        <ele>1879</ele>
        <time>2021-05-20T04:36:40Z</time>
      </trkpt>
      <trkpt lat="45.91766" lon="6.49989">
        <ele>1879</ele>
        <time>2021-05-20T04:36:41Z</time>
      </trkpt>
      <trkpt lat="45.91766" lon="6.49989">
        <ele>1879</ele>
        <time>2021-05-20T04:36:42Z</time>
      </trkpt>
      <trkpt lat="45.91765" lon="6.49989">
        <ele>1879</ele>
        <time>2021-05-20T04:36:43Z</time>
      </trkpt>
      <trkpt lat="45.91764" lon="6.49989">
        <ele>1879</ele>
        <time>2021-05-20T04:36:44Z</time>
      </trkpt>
      <trkpt lat="45.91764" lon="6.49989">
        <ele>1879</ele>
        <time>2021-05-20T04:36:45Z</time>
      </trkpt>
      <trkpt lat="45.91763" lon="6.4999">
        <ele>1880</ele>
        <time>2021-05-20T04:36:46Z</time>
      </trkpt>
      <trkpt lat="45.91762" lon="6.4999">
        <ele>1880</ele>
        <time>2021-05-20T04:36:47Z</time>
      </trkpt>
      <trkpt lat="45.91762" lon="6.4999">
        <ele>1880</ele>
        <time>2021-05-20T04:36:48Z</time>
      </trkpt>
      <trkpt lat="45.91762" lon="6.4999">
        <ele>1881</ele>
        <time>2021-05-20T04:36:49Z</time>
      </trkpt>
      <trkpt lat="45.91762" lon="6.4999">
        <ele>1881</ele>
        <time>2021-05-20T04:36:50Z</time>
      </trkpt>
      <trkpt lat="45.91758" lon="6.49991">
        <ele>1881</ele>
        <time>2021-05-20T04:36:51Z</time>
      </trkpt>
      <trkpt lat="45.91758" lon="6.49991">
        <ele>1881</ele>
        <time>2021-05-20T04:36:52Z</time>
      </trkpt>
      <trkpt lat="45.91757" lon="6.49992">
        <ele>1882</ele>
        <time>2021-05-20T04:36:53Z</time>
      </trkpt>
      <trkpt lat="45.91756" lon="6.49992">
        <ele>1882</ele>
        <time>2021-05-20T04:36:54Z</time>
      </trkpt>
      <trkpt lat="45.91756" lon="6.49993">
        <ele>1882</ele>
        <time>2021-05-20T04:36:55Z</time>
      </trkpt>
      <trkpt lat="45.91755" lon="6.49993">
        <ele>1883</ele>
        <time>2021-05-20T04:36:56Z</time>
      </trkpt>
      <trkpt lat="45.91754" lon="6.49993">
        <ele>1883</ele>
        <time>2021-05-20T04:36:57Z</time>
      </trkpt>
      <trkpt lat="45.91754" lon="6.49993">
        <ele>1883</ele>
        <time>2021-05-20T04:36:58Z</time>
      </trkpt>
      <trkpt lat="45.91754" lon="6.49993">
        <ele>1883</ele>
        <time>2021-05-20T04:36:59Z</time>
      </trkpt>
      <trkpt lat="45.91754" lon="6.49993">
        <ele>1884</ele>
        <time>2021-05-20T04:37:00Z</time>
      </trkpt>
      <trkpt lat="45.91754" lon="6.49993">
        <ele>1884</ele>
        <time>2021-05-20T04:37:01Z</time>
      </trkpt>
      <trkpt lat="45.91754" lon="6.49993">
        <ele>1884</ele>
        <time>2021-05-20T04:37:02Z</time>
      </trkpt>
      <trkpt lat="45.91754" lon="6.49993">
        <ele>1884</ele>
        <time>2021-05-20T04:37:03Z</time>
      </trkpt>
      <trkpt lat="45.91754" lon="6.49993">
        <ele>1884</ele>
        <time>2021-05-20T04:37:04Z</time>
      </trkpt>
      <trkpt lat="45.91754" lon="6.49993">
        <ele>1884</ele>
        <time>2021-05-20T04:37:05Z</time>
      </trkpt>
      <trkpt lat="45.91754" lon="6.49993">
        <ele>1885</ele>
        <time>2021-05-20T04:37:06Z</time>
      </trkpt>
      <trkpt lat="45.91753" lon="6.49998">
        <ele>1885</ele>
        <time>2021-05-20T04:37:07Z</time>
      </trkpt>
      <trkpt lat="45.91753" lon="6.49998">
        <ele>1885</ele>
        <time>2021-05-20T04:37:08Z</time>
      </trkpt>
      <trkpt lat="45.91753" lon="6.49999">
        <ele>1885</ele>
        <time>2021-05-20T04:37:09Z</time>
      </trkpt>
      <trkpt lat="45.91753" lon="6.5">
        <ele>1885</ele>
        <time>2021-05-20T04:37:10Z</time>
      </trkpt>
      <trkpt lat="45.91754" lon="6.50001">
        <ele>1886</ele>
        <time>2021-05-20T04:37:11Z</time>
      </trkpt>
      <trkpt lat="45.91754" lon="6.50002">
        <ele>1886</ele>
        <time>2021-05-20T04:37:12Z</time>
      </trkpt>
      <trkpt lat="45.91754" lon="6.50003">
        <ele>1886</ele>
        <time>2021-05-20T04:37:13Z</time>
      </trkpt>
      <trkpt lat="45.91755" lon="6.50004">
        <ele>1887</ele>
        <time>2021-05-20T04:37:14Z</time>
      </trkpt>
      <trkpt lat="45.91755" lon="6.50005">
        <ele>1887</ele>
        <time>2021-05-20T04:37:15Z</time>
      </trkpt>
      <trkpt lat="45.91756" lon="6.50006">
        <ele>1888</ele>
        <time>2021-05-20T04:37:16Z</time>
      </trkpt>
      <trkpt lat="45.91756" lon="6.50007">
        <ele>1888</ele>
        <time>2021-05-20T04:37:17Z</time>
      </trkpt>
      <trkpt lat="45.91756" lon="6.50008">
        <ele>1888</ele>
        <time>2021-05-20T04:37:18Z</time>
      </trkpt>
      <trkpt lat="45.91756" lon="6.50008">
        <ele>1888</ele>
        <time>2021-05-20T04:37:19Z</time>
      </trkpt>
      <trkpt lat="45.91756" lon="6.50008">
        <ele>1889</ele>
        <time>2021-05-20T04:37:20Z</time>
      </trkpt>
      <trkpt lat="45.91756" lon="6.50008">
        <ele>1889</ele>
        <time>2021-05-20T04:37:21Z</time>
      </trkpt>
      <trkpt lat="45.91756" lon="6.50008">
        <ele>1889</ele>
        <time>2021-05-20T04:37:22Z</time>
      </trkpt>
      <trkpt lat="45.91757" lon="6.50013">
        <ele>1890</ele>
        <time>2021-05-20T04:37:23Z</time>
      </trkpt>
      <trkpt lat="45.91757" lon="6.50013">
        <ele>1890</ele>
        <time>2021-05-20T04:37:24Z</time>
      </trkpt>
      <trkpt lat="45.91757" lon="6.50013">
        <ele>1890</ele>
        <time>2021-05-20T04:37:25Z</time>
      </trkpt>
      <trkpt lat="45.91757" lon="6.50013">
        <ele>1890</ele>
        <time>2021-05-20T04:37:26Z</time>
      </trkpt>
      <trkpt lat="45.91757" lon="6.50013">
        <ele>1890</ele>
        <time>2021-05-20T04:37:27Z</time>
      </trkpt>
      <trkpt lat="45.91757" lon="6.50013">
        <ele>1891</ele>
        <time>2021-05-20T04:37:28Z</time>
      </trkpt>
      <trkpt lat="45.91757" lon="6.50013">
        <ele>1892</ele>
        <time>2021-05-20T04:37:29Z</time>
      </trkpt>
      <trkpt lat="45.91757" lon="6.50013">
        <ele>1892</ele>
        <time>2021-05-20T04:37:30Z</time>
      </trkpt>
      <trkpt lat="45.91757" lon="6.50013">
        <ele>1892</ele>
        <time>2021-05-20T04:37:31Z</time>
      </trkpt>
      <trkpt lat="45.91757" lon="6.50013">
        <ele>1893</ele>
        <time>2021-05-20T04:37:32Z</time>
      </trkpt>
      <trkpt lat="45.91757" lon="6.50013">
        <ele>1893</ele>
        <time>2021-05-20T04:37:33Z</time>
      </trkpt>
      <trkpt lat="45.91755" lon="6.50015">
        <ele>1893</ele>
        <time>2021-05-20T04:37:34Z</time>
      </trkpt>
      <trkpt lat="45.91755" lon="6.50015">
        <ele>1894</ele>
        <time>2021-05-20T04:37:35Z</time>
      </trkpt>
      <trkpt lat="45.91754" lon="6.50015">
        <ele>1894</ele>
        <time>2021-05-20T04:37:36Z</time>
      </trkpt>
      <trkpt lat="45.91753" lon="6.50015">
        <ele>1894</ele>
        <time>2021-05-20T04:37:37Z</time>
      </trkpt>
      <trkpt lat="45.91752" lon="6.50014">
        <ele>1894</ele>
        <time>2021-05-20T04:37:38Z</time>
      </trkpt>
      <trkpt lat="45.91752" lon="6.50014">
        <ele>1894</ele>
        <time>2021-05-20T04:37:39Z</time>
      </trkpt>
      <trkpt lat="45.91751" lon="6.50014">
        <ele>1894</ele>
        <time>2021-05-20T04:37:40Z</time>
      </trkpt>
      <trkpt lat="45.91751" lon="6.50014">
        <ele>1894</ele>
        <time>2021-05-20T04:37:41Z</time>
      </trkpt>
      <trkpt lat="45.91751" lon="6.50014">
        <ele>1894</ele>
        <time>2021-05-20T04:37:42Z</time>
      </trkpt>
      <trkpt lat="45.91751" lon="6.50014">
        <ele>1895</ele>
        <time>2021-05-20T04:37:43Z</time>
      </trkpt>
      <trkpt lat="45.91751" lon="6.50014">
        <ele>1895</ele>
        <time>2021-05-20T04:37:44Z</time>
      </trkpt>
      <trkpt lat="45.91751" lon="6.50014">
        <ele>1895</ele>
        <time>2021-05-20T04:37:45Z</time>
      </trkpt>
      <trkpt lat="45.91751" lon="6.50014">
        <ele>1896</ele>
        <time>2021-05-20T04:37:46Z</time>
      </trkpt>
      <trkpt lat="45.91751" lon="6.50014">
        <ele>1896</ele>
        <time>2021-05-20T04:37:47Z</time>
      </trkpt>
      <trkpt lat="45.91751" lon="6.50014">
        <ele>1896</ele>
        <time>2021-05-20T04:37:48Z</time>
      </trkpt>
      <trkpt lat="45.9175" lon="6.50019">
        <ele>1896</ele>
        <time>2021-05-20T04:37:49Z</time>
      </trkpt>
      <trkpt lat="45.9175" lon="6.50019">
        <ele>1896</ele>
        <time>2021-05-20T04:37:50Z</time>
      </trkpt>
      <trkpt lat="45.9175" lon="6.50019">
        <ele>1896</ele>
        <time>2021-05-20T04:37:51Z</time>
      </trkpt>
      <trkpt lat="45.9175" lon="6.50019">
        <ele>1896</ele>
        <time>2021-05-20T04:37:52Z</time>
      </trkpt>
      <trkpt lat="45.9175" lon="6.50019">
        <ele>1897</ele>
        <time>2021-05-20T04:37:53Z</time>
      </trkpt>
      <trkpt lat="45.9175" lon="6.50019">
        <ele>1897</ele>
        <time>2021-05-20T04:37:54Z</time>
      </trkpt>
      <trkpt lat="45.91751" lon="6.50024">
        <ele>1897</ele>
        <time>2021-05-20T04:37:55Z</time>
      </trkpt>
      <trkpt lat="45.91751" lon="6.50024">
        <ele>1897</ele>
        <time>2021-05-20T04:37:56Z</time>
      </trkpt>
      <trkpt lat="45.91751" lon="6.50025">
        <ele>1897</ele>
        <time>2021-05-20T04:37:57Z</time>
      </trkpt>
      <trkpt lat="45.91751" lon="6.50026">
        <ele>1898</ele>
        <time>2021-05-20T04:37:58Z</time>
      </trkpt>
      <trkpt lat="45.91751" lon="6.50027">
        <ele>1898</ele>
        <time>2021-05-20T04:37:59Z</time>
      </trkpt>
      <trkpt lat="45.91751" lon="6.50028">
        <ele>1898</ele>
        <time>2021-05-20T04:38:00Z</time>
      </trkpt>
      <trkpt lat="45.91751" lon="6.50029">
        <ele>1899</ele>
        <time>2021-05-20T04:38:01Z</time>
      </trkpt>
      <trkpt lat="45.91751" lon="6.5003">
        <ele>1899</ele>
        <time>2021-05-20T04:38:02Z</time>
      </trkpt>
      <trkpt lat="45.91751" lon="6.5003">
        <ele>1899</ele>
        <time>2021-05-20T04:38:03Z</time>
      </trkpt>
      <trkpt lat="45.91751" lon="6.5003">
        <ele>1899</ele>
        <time>2021-05-20T04:38:04Z</time>
      </trkpt>
      <trkpt lat="45.91751" lon="6.5003">
        <ele>1900</ele>
        <time>2021-05-20T04:38:05Z</time>
      </trkpt>
      <trkpt lat="45.91751" lon="6.5003">
        <ele>1900</ele>
        <time>2021-05-20T04:38:06Z</time>
      </trkpt>
      <trkpt lat="45.91751" lon="6.5003">
        <ele>1901</ele>
        <time>2021-05-20T04:38:07Z</time>
      </trkpt>
      <trkpt lat="45.91747" lon="6.50029">
        <ele>1901</ele>
        <time>2021-05-20T04:38:08Z</time>
      </trkpt>
      <trkpt lat="45.91747" lon="6.50029">
        <ele>1901</ele>
        <time>2021-05-20T04:38:09Z</time>
      </trkpt>
      <trkpt lat="45.91747" lon="6.50029">
        <ele>1902</ele>
        <time>2021-05-20T04:38:10Z</time>
      </trkpt>
      <trkpt lat="45.91746" lon="6.50029">
        <ele>1902</ele>
        <time>2021-05-20T04:38:11Z</time>
      </trkpt>
      <trkpt lat="45.91746" lon="6.50029">
        <ele>1902</ele>
        <time>2021-05-20T04:38:12Z</time>
      </trkpt>
      <trkpt lat="45.91746" lon="6.50029">
        <ele>1902</ele>
        <time>2021-05-20T04:38:13Z</time>
      </trkpt>
      <trkpt lat="45.91745" lon="6.50029">
        <ele>1902</ele>
        <time>2021-05-20T04:38:14Z</time>
      </trkpt>
      <trkpt lat="45.91745" lon="6.50029">
        <ele>1902</ele>
        <time>2021-05-20T04:38:15Z</time>
      </trkpt>
      <trkpt lat="45.91744" lon="6.50029">
        <ele>1902</ele>
        <time>2021-05-20T04:38:16Z</time>
      </trkpt>
      <trkpt lat="45.91744" lon="6.50029">
        <ele>1903</ele>
        <time>2021-05-20T04:38:17Z</time>
      </trkpt>
      <trkpt lat="45.91743" lon="6.50029">
        <ele>1903</ele>
        <time>2021-05-20T04:38:18Z</time>
      </trkpt>
      <trkpt lat="45.91743" lon="6.50029">
        <ele>1904</ele>
        <time>2021-05-20T04:38:19Z</time>
      </trkpt>
      <trkpt lat="45.91743" lon="6.50029">
        <ele>1904</ele>
        <time>2021-05-20T04:38:20Z</time>
      </trkpt>
      <trkpt lat="45.91743" lon="6.50029">
        <ele>1904</ele>
        <time>2021-05-20T04:38:21Z</time>
      </trkpt>
      <trkpt lat="45.91743" lon="6.50029">
        <ele>1904</ele>
        <time>2021-05-20T04:38:22Z</time>
      </trkpt>
      <trkpt lat="45.91743" lon="6.50029">
        <ele>1904</ele>
        <time>2021-05-20T04:38:23Z</time>
      </trkpt>
      <trkpt lat="45.91742" lon="6.50034">
        <ele>1904</ele>
        <time>2021-05-20T04:38:24Z</time>
      </trkpt>
      <trkpt lat="45.91742" lon="6.50034">
        <ele>1904</ele>
        <time>2021-05-20T04:38:25Z</time>
      </trkpt>
      <trkpt lat="45.91742" lon="6.50034">
        <ele>1904</ele>
        <time>2021-05-20T04:38:26Z</time>
      </trkpt>
      <trkpt lat="45.91742" lon="6.50034">
        <ele>1905</ele>
        <time>2021-05-20T04:38:27Z</time>
      </trkpt>
      <trkpt lat="45.91742" lon="6.50034">
        <ele>1905</ele>
        <time>2021-05-20T04:38:28Z</time>
      </trkpt>
      <trkpt lat="45.91741" lon="6.50039">
        <ele>1905</ele>
        <time>2021-05-20T04:38:29Z</time>
      </trkpt>
      <trkpt lat="45.91741" lon="6.50039">
        <ele>1906</ele>
        <time>2021-05-20T04:38:30Z</time>
      </trkpt>
      <trkpt lat="45.91741" lon="6.5004">
        <ele>1906</ele>
        <time>2021-05-20T04:38:31Z</time>
      </trkpt>
      <trkpt lat="45.91741" lon="6.50041">
        <ele>1906</ele>
        <time>2021-05-20T04:38:32Z</time>
      </trkpt>
      <trkpt lat="45.91741" lon="6.50042">
        <ele>1907</ele>
        <time>2021-05-20T04:38:33Z</time>
      </trkpt>
      <trkpt lat="45.91741" lon="6.50043">
        <ele>1907</ele>
        <time>2021-05-20T04:38:34Z</time>
      </trkpt>
      <trkpt lat="45.9174" lon="6.50044">
        <ele>1908</ele>
        <time>2021-05-20T04:38:35Z</time>
      </trkpt>
      <trkpt lat="45.9174" lon="6.50044">
        <ele>1908</ele>
        <time>2021-05-20T04:38:36Z</time>
      </trkpt>
      <trkpt lat="45.9174" lon="6.50044">
        <ele>1908</ele>
        <time>2021-05-20T04:38:37Z</time>
      </trkpt>
      <trkpt lat="45.9174" lon="6.50044">
        <ele>1908</ele>
        <time>2021-05-20T04:38:38Z</time>
      </trkpt>
      <trkpt lat="45.9174" lon="6.50044">
        <ele>1909</ele>
        <time>2021-05-20T04:38:39Z</time>
      </trkpt>
      <trkpt lat="45.9174" lon="6.50044">
        <ele>1909</ele>
        <time>2021-05-20T04:38:40Z</time>
      </trkpt>
      <trkpt lat="45.9174" lon="6.50044">
        <ele>1909</ele>
        <time>2021-05-20T04:38:41Z</time>
      </trkpt>
      <trkpt lat="45.91737" lon="6.50042">
        <ele>1909</ele>
        <time>2021-05-20T04:38:42Z</time>
      </trkpt>
      <trkpt lat="45.91737" lon="6.50042">
        <ele>1909</ele>
        <time>2021-05-20T04:38:43Z</time>
      </trkpt>
      <trkpt lat="45.91737" lon="6.50042">
        <ele>1910</ele>
        <time>2021-05-20T04:38:44Z</time>
      </trkpt>
      <trkpt lat="45.91736" lon="6.50042">
        <ele>1910</ele>
        <time>2021-05-20T04:38:45Z</time>
      </trkpt>
      <trkpt lat="45.91735" lon="6.50042">
        <ele>1910</ele>
        <time>2021-05-20T04:38:46Z</time>
      </trkpt>
      <trkpt lat="45.91734" lon="6.50042">
        <ele>1910</ele>
        <time>2021-05-20T04:38:47Z</time>
      </trkpt>
      <trkpt lat="45.91733" lon="6.50042">
        <ele>1910</ele>
        <time>2021-05-20T04:38:48Z</time>
      </trkpt>
      <trkpt lat="45.91733" lon="6.50042">
        <ele>1910</ele>
        <time>2021-05-20T04:38:49Z</time>
      </trkpt>
      <trkpt lat="45.91733" lon="6.50042">
        <ele>1911</ele>
        <time>2021-05-20T04:38:50Z</time>
      </trkpt>
      <trkpt lat="45.91733" lon="6.50042">
        <ele>1911</ele>
        <time>2021-05-20T04:38:51Z</time>
      </trkpt>
      <trkpt lat="45.91729" lon="6.50042">
        <ele>1911</ele>
        <time>2021-05-20T04:38:52Z</time>
      </trkpt>
      <trkpt lat="45.91729" lon="6.50042">
        <ele>1911</ele>
        <time>2021-05-20T04:38:53Z</time>
      </trkpt>
      <trkpt lat="45.91729" lon="6.50042">
        <ele>1912</ele>
        <time>2021-05-20T04:38:54Z</time>
      </trkpt>
      <trkpt lat="45.91729" lon="6.50042">
        <ele>1912</ele>
        <time>2021-05-20T04:38:55Z</time>
      </trkpt>
      <trkpt lat="45.91729" lon="6.50042">
        <ele>1913</ele>
        <time>2021-05-20T04:38:56Z</time>
      </trkpt>
      <trkpt lat="45.91726" lon="6.50044">
        <ele>1913</ele>
        <time>2021-05-20T04:38:57Z</time>
      </trkpt>
      <trkpt lat="45.91726" lon="6.50044">
        <ele>1913</ele>
        <time>2021-05-20T04:38:58Z</time>
      </trkpt>
      <trkpt lat="45.91726" lon="6.50044">
        <ele>1913</ele>
        <time>2021-05-20T04:38:59Z</time>
      </trkpt>
      <trkpt lat="45.91726" lon="6.50045">
        <ele>1913</ele>
        <time>2021-05-20T04:39:00Z</time>
      </trkpt>
      <trkpt lat="45.91726" lon="6.50046">
        <ele>1913</ele>
        <time>2021-05-20T04:39:01Z</time>
      </trkpt>
      <trkpt lat="45.91726" lon="6.50046">
        <ele>1914</ele>
        <time>2021-05-20T04:39:02Z</time>
      </trkpt>
      <trkpt lat="45.91727" lon="6.50047">
        <ele>1914</ele>
        <time>2021-05-20T04:39:03Z</time>
      </trkpt>
      <trkpt lat="45.91727" lon="6.50048">
        <ele>1914</ele>
        <time>2021-05-20T04:39:04Z</time>
      </trkpt>
      <trkpt lat="45.91727" lon="6.50048">
        <ele>1914</ele>
        <time>2021-05-20T04:39:05Z</time>
      </trkpt>
      <trkpt lat="45.91727" lon="6.50049">
        <ele>1914</ele>
        <time>2021-05-20T04:39:06Z</time>
      </trkpt>
      <trkpt lat="45.91727" lon="6.5005">
        <ele>1914</ele>
        <time>2021-05-20T04:39:07Z</time>
      </trkpt>
      <trkpt lat="45.91727" lon="6.50051">
        <ele>1914</ele>
        <time>2021-05-20T04:39:08Z</time>
      </trkpt>
      <trkpt lat="45.91727" lon="6.50052">
        <ele>1914</ele>
        <time>2021-05-20T04:39:09Z</time>
      </trkpt>
      <trkpt lat="45.91727" lon="6.50053">
        <ele>1915</ele>
        <time>2021-05-20T04:39:10Z</time>
      </trkpt>
      <trkpt lat="45.91727" lon="6.50054">
        <ele>1915</ele>
        <time>2021-05-20T04:39:11Z</time>
      </trkpt>
      <trkpt lat="45.91727" lon="6.50055">
        <ele>1915</ele>
        <time>2021-05-20T04:39:12Z</time>
      </trkpt>
      <trkpt lat="45.91727" lon="6.50055">
        <ele>1915</ele>
        <time>2021-05-20T04:39:13Z</time>
      </trkpt>
      <trkpt lat="45.91727" lon="6.50055">
        <ele>1915</ele>
        <time>2021-05-20T04:39:14Z</time>
      </trkpt>
      <trkpt lat="45.91727" lon="6.50055">
        <ele>1916</ele>
        <time>2021-05-20T04:39:15Z</time>
      </trkpt>
      <trkpt lat="45.91728" lon="6.5006">
        <ele>1916</ele>
        <time>2021-05-20T04:39:16Z</time>
      </trkpt>
      <trkpt lat="45.91728" lon="6.5006">
        <ele>1916</ele>
        <time>2021-05-20T04:39:17Z</time>
      </trkpt>
      <trkpt lat="45.91728" lon="6.5006">
        <ele>1917</ele>
        <time>2021-05-20T04:39:18Z</time>
      </trkpt>
      <trkpt lat="45.91728" lon="6.5006">
        <ele>1917</ele>
        <time>2021-05-20T04:39:19Z</time>
      </trkpt>
      <trkpt lat="45.91728" lon="6.5006">
        <ele>1917</ele>
        <time>2021-05-20T04:39:20Z</time>
      </trkpt>
      <trkpt lat="45.91728" lon="6.5006">
        <ele>1917</ele>
        <time>2021-05-20T04:39:21Z</time>
      </trkpt>
      <trkpt lat="45.91728" lon="6.5006">
        <ele>1918</ele>
        <time>2021-05-20T04:39:22Z</time>
      </trkpt>
      <trkpt lat="45.91728" lon="6.5006">
        <ele>1918</ele>
        <time>2021-05-20T04:39:23Z</time>
      </trkpt>
      <trkpt lat="45.91728" lon="6.5006">
        <ele>1919</ele>
        <time>2021-05-20T04:39:24Z</time>
      </trkpt>
      <trkpt lat="45.91728" lon="6.5006">
        <ele>1919</ele>
        <time>2021-05-20T04:39:25Z</time>
      </trkpt>
      <trkpt lat="45.91728" lon="6.5006">
        <ele>1919</ele>
        <time>2021-05-20T04:39:26Z</time>
      </trkpt>
      <trkpt lat="45.91728" lon="6.5006">
        <ele>1919</ele>
        <time>2021-05-20T04:39:27Z</time>
      </trkpt>
      <trkpt lat="45.91725" lon="6.5006">
        <ele>1919</ele>
        <time>2021-05-20T04:39:28Z</time>
      </trkpt>
      <trkpt lat="45.91725" lon="6.5006">
        <ele>1920</ele>
        <time>2021-05-20T04:39:29Z</time>
      </trkpt>
      <trkpt lat="45.91725" lon="6.5006">
        <ele>1920</ele>
        <time>2021-05-20T04:39:30Z</time>
      </trkpt>
      <trkpt lat="45.91725" lon="6.50061">
        <ele>1920</ele>
        <time>2021-05-20T04:39:31Z</time>
      </trkpt>
      <trkpt lat="45.91725" lon="6.50061">
        <ele>1920</ele>
        <time>2021-05-20T04:39:32Z</time>
      </trkpt>
      <trkpt lat="45.91725" lon="6.50062">
        <ele>1920</ele>
        <time>2021-05-20T04:39:33Z</time>
      </trkpt>
      <trkpt lat="45.91725" lon="6.50062">
        <ele>1920</ele>
        <time>2021-05-20T04:39:34Z</time>
      </trkpt>
      <trkpt lat="45.91725" lon="6.50063">
        <ele>1920</ele>
        <time>2021-05-20T04:39:35Z</time>
      </trkpt>
      <trkpt lat="45.91725" lon="6.50063">
        <ele>1920</ele>
        <time>2021-05-20T04:39:36Z</time>
      </trkpt>
      <trkpt lat="45.91725" lon="6.50064">
        <ele>1920</ele>
        <time>2021-05-20T04:39:37Z</time>
      </trkpt>
      <trkpt lat="45.91725" lon="6.50064">
        <ele>1921</ele>
        <time>2021-05-20T04:39:38Z</time>
      </trkpt>
      <trkpt lat="45.91725" lon="6.50064">
        <ele>1921</ele>
        <time>2021-05-20T04:39:39Z</time>
      </trkpt>
      <trkpt lat="45.91725" lon="6.50065">
        <ele>1921</ele>
        <time>2021-05-20T04:39:40Z</time>
      </trkpt>
      <trkpt lat="45.91725" lon="6.50065">
        <ele>1921</ele>
        <time>2021-05-20T04:39:41Z</time>
      </trkpt>
      <trkpt lat="45.91725" lon="6.50065">
        <ele>1922</ele>
        <time>2021-05-20T04:39:42Z</time>
      </trkpt>
      <trkpt lat="45.91725" lon="6.50065">
        <ele>1922</ele>
        <time>2021-05-20T04:39:43Z</time>
      </trkpt>
      <trkpt lat="45.91726" lon="6.5007">
        <ele>1922</ele>
        <time>2021-05-20T04:39:44Z</time>
      </trkpt>
      <trkpt lat="45.91726" lon="6.5007">
        <ele>1922</ele>
        <time>2021-05-20T04:39:45Z</time>
      </trkpt>
      <trkpt lat="45.91726" lon="6.5007">
        <ele>1922</ele>
        <time>2021-05-20T04:39:46Z</time>
      </trkpt>
      <trkpt lat="45.91726" lon="6.5007">
        <ele>1923</ele>
        <time>2021-05-20T04:39:47Z</time>
      </trkpt>
      <trkpt lat="45.91726" lon="6.5007">
        <ele>1924</ele>
        <time>2021-05-20T04:39:48Z</time>
      </trkpt>
      <trkpt lat="45.91726" lon="6.5007">
        <ele>1924</ele>
        <time>2021-05-20T04:39:49Z</time>
      </trkpt>
      <trkpt lat="45.91724" lon="6.5007">
        <ele>1925</ele>
        <time>2021-05-20T04:39:50Z</time>
      </trkpt>
      <trkpt lat="45.91724" lon="6.5007">
        <ele>1925</ele>
        <time>2021-05-20T04:39:51Z</time>
      </trkpt>
      <trkpt lat="45.91723" lon="6.5007">
        <ele>1925</ele>
        <time>2021-05-20T04:39:52Z</time>
      </trkpt>
      <trkpt lat="45.91723" lon="6.50071">
        <ele>1925</ele>
        <time>2021-05-20T04:39:53Z</time>
      </trkpt>
      <trkpt lat="45.91723" lon="6.50071">
        <ele>1926</ele>
        <time>2021-05-20T04:39:54Z</time>
      </trkpt>
      <trkpt lat="45.91723" lon="6.50072">
        <ele>1926</ele>
        <time>2021-05-20T04:39:55Z</time>
      </trkpt>
      <trkpt lat="45.91723" lon="6.50073">
        <ele>1926</ele>
        <time>2021-05-20T04:39:56Z</time>
      </trkpt>
      <trkpt lat="45.91723" lon="6.50073">
        <ele>1926</ele>
        <time>2021-05-20T04:39:57Z</time>
      </trkpt>
      <trkpt lat="45.91723" lon="6.50074">
        <ele>1926</ele>
        <time>2021-05-20T04:39:58Z</time>
      </trkpt>
      <trkpt lat="45.91722" lon="6.50074">
        <ele>1926</ele>
        <time>2021-05-20T04:39:59Z</time>
      </trkpt>
      <trkpt lat="45.91722" lon="6.50075">
        <ele>1926</ele>
        <time>2021-05-20T04:40:00Z</time>
      </trkpt>
      <trkpt lat="45.91722" lon="6.50075">
        <ele>1926</ele>
        <time>2021-05-20T04:40:01Z</time>
      </trkpt>
      <trkpt lat="45.91722" lon="6.50075">
        <ele>1926</ele>
        <time>2021-05-20T04:40:02Z</time>
      </trkpt>
      <trkpt lat="45.91722" lon="6.50075">
        <ele>1927</ele>
        <time>2021-05-20T04:40:03Z</time>
      </trkpt>
      <trkpt lat="45.91721" lon="6.50075">
        <ele>1927</ele>
        <time>2021-05-20T04:40:04Z</time>
      </trkpt>
      <trkpt lat="45.91721" lon="6.50075">
        <ele>1928</ele>
        <time>2021-05-20T04:40:05Z</time>
      </trkpt>
      <trkpt lat="45.91721" lon="6.50075">
        <ele>1928</ele>
        <time>2021-05-20T04:40:06Z</time>
      </trkpt>
      <trkpt lat="45.91721" lon="6.50075">
        <ele>1928</ele>
        <time>2021-05-20T04:40:07Z</time>
      </trkpt>
      <trkpt lat="45.9172" lon="6.50075">
        <ele>1928</ele>
        <time>2021-05-20T04:40:08Z</time>
      </trkpt>
      <trkpt lat="45.9172" lon="6.50075">
        <ele>1928</ele>
        <time>2021-05-20T04:40:09Z</time>
      </trkpt>
      <trkpt lat="45.9172" lon="6.50075">
        <ele>1928</ele>
        <time>2021-05-20T04:40:10Z</time>
      </trkpt>
      <trkpt lat="45.9172" lon="6.50075">
        <ele>1928</ele>
        <time>2021-05-20T04:40:11Z</time>
      </trkpt>
      <trkpt lat="45.91719" lon="6.50075">
        <ele>1928</ele>
        <time>2021-05-20T04:40:12Z</time>
      </trkpt>
      <trkpt lat="45.91719" lon="6.50075">
        <ele>1929</ele>
        <time>2021-05-20T04:40:13Z</time>
      </trkpt>
      <trkpt lat="45.91719" lon="6.50075">
        <ele>1929</ele>
        <time>2021-05-20T04:40:14Z</time>
      </trkpt>
      <trkpt lat="45.91719" lon="6.50075">
        <ele>1929</ele>
        <time>2021-05-20T04:40:15Z</time>
      </trkpt>
      <trkpt lat="45.91719" lon="6.50075">
        <ele>1929</ele>
        <time>2021-05-20T04:40:16Z</time>
      </trkpt>
      <trkpt lat="45.91719" lon="6.50075">
        <ele>1929</ele>
        <time>2021-05-20T04:40:17Z</time>
      </trkpt>
      <trkpt lat="45.91719" lon="6.50075">
        <ele>1930</ele>
        <time>2021-05-20T04:40:18Z</time>
      </trkpt>
      <trkpt lat="45.91719" lon="6.50075">
        <ele>1930</ele>
        <time>2021-05-20T04:40:19Z</time>
      </trkpt>
      <trkpt lat="45.91715" lon="6.50075">
        <ele>1931</ele>
        <time>2021-05-20T04:40:20Z</time>
      </trkpt>
      <trkpt lat="45.91715" lon="6.50075">
        <ele>1931</ele>
        <time>2021-05-20T04:40:21Z</time>
      </trkpt>
      <trkpt lat="45.91714" lon="6.50075">
        <ele>1931</ele>
        <time>2021-05-20T04:40:22Z</time>
      </trkpt>
      <trkpt lat="45.91714" lon="6.50076">
        <ele>1931</ele>
        <time>2021-05-20T04:40:23Z</time>
      </trkpt>
      <trkpt lat="45.91713" lon="6.50076">
        <ele>1931</ele>
        <time>2021-05-20T04:40:24Z</time>
      </trkpt>
      <trkpt lat="45.91712" lon="6.50076">
        <ele>1931</ele>
        <time>2021-05-20T04:40:25Z</time>
      </trkpt>
      <trkpt lat="45.91712" lon="6.50077">
        <ele>1932</ele>
        <time>2021-05-20T04:40:26Z</time>
      </trkpt>
      <trkpt lat="45.91711" lon="6.50077">
        <ele>1932</ele>
        <time>2021-05-20T04:40:27Z</time>
      </trkpt>
      <trkpt lat="45.91711" lon="6.50078">
        <ele>1933</ele>
        <time>2021-05-20T04:40:28Z</time>
      </trkpt>
      <trkpt lat="45.9171" lon="6.50078">
        <ele>1933</ele>
        <time>2021-05-20T04:40:29Z</time>
      </trkpt>
      <trkpt lat="45.91709" lon="6.50079">
        <ele>1933</ele>
        <time>2021-05-20T04:40:30Z</time>
      </trkpt>
      <trkpt lat="45.91708" lon="6.50079">
        <ele>1934</ele>
        <time>2021-05-20T04:40:31Z</time>
      </trkpt>
      <trkpt lat="45.91708" lon="6.50079">
        <ele>1934</ele>
        <time>2021-05-20T04:40:32Z</time>
      </trkpt>
      <trkpt lat="45.91708" lon="6.50079">
        <ele>1934</ele>
        <time>2021-05-20T04:40:33Z</time>
      </trkpt>
      <trkpt lat="45.91708" lon="6.50079">
        <ele>1934</ele>
        <time>2021-05-20T04:40:34Z</time>
      </trkpt>
      <trkpt lat="45.91704" lon="6.50081">
        <ele>1934</ele>
        <time>2021-05-20T04:40:35Z</time>
      </trkpt>
      <trkpt lat="45.91704" lon="6.50081">
        <ele>1934</ele>
        <time>2021-05-20T04:40:36Z</time>
      </trkpt>
      <trkpt lat="45.91703" lon="6.50082">
        <ele>1935</ele>
        <time>2021-05-20T04:40:37Z</time>
      </trkpt>
      <trkpt lat="45.91702" lon="6.50082">
        <ele>1935</ele>
        <time>2021-05-20T04:40:38Z</time>
      </trkpt>
      <trkpt lat="45.91702" lon="6.50082">
        <ele>1936</ele>
        <time>2021-05-20T04:40:39Z</time>
      </trkpt>
      <trkpt lat="45.91701" lon="6.50083">
        <ele>1936</ele>
        <time>2021-05-20T04:40:40Z</time>
      </trkpt>
      <trkpt lat="45.917" lon="6.50083">
        <ele>1936</ele>
        <time>2021-05-20T04:40:41Z</time>
      </trkpt>
      <trkpt lat="45.917" lon="6.50083">
        <ele>1936</ele>
        <time>2021-05-20T04:40:42Z</time>
      </trkpt>
      <trkpt lat="45.917" lon="6.50083">
        <ele>1936</ele>
        <time>2021-05-20T04:40:43Z</time>
      </trkpt>
      <trkpt lat="45.91697" lon="6.50085">
        <ele>1936</ele>
        <time>2021-05-20T04:40:44Z</time>
      </trkpt>
      <trkpt lat="45.91697" lon="6.50085">
        <ele>1936</ele>
        <time>2021-05-20T04:40:45Z</time>
      </trkpt>
      <trkpt lat="45.91696" lon="6.50085">
        <ele>1937</ele>
        <time>2021-05-20T04:40:46Z</time>
      </trkpt>
      <trkpt lat="45.91695" lon="6.50086">
        <ele>1937</ele>
        <time>2021-05-20T04:40:47Z</time>
      </trkpt>
      <trkpt lat="45.91694" lon="6.50086">
        <ele>1937</ele>
        <time>2021-05-20T04:40:48Z</time>
      </trkpt>
      <trkpt lat="45.91693" lon="6.50086">
        <ele>1938</ele>
        <time>2021-05-20T04:40:49Z</time>
      </trkpt>
      <trkpt lat="45.91692" lon="6.50086">
        <ele>1938</ele>
        <time>2021-05-20T04:40:50Z</time>
      </trkpt>
      <trkpt lat="45.91691" lon="6.50086">
        <ele>1938</ele>
        <time>2021-05-20T04:40:51Z</time>
      </trkpt>
      <trkpt lat="45.9169" lon="6.50087">
        <ele>1939</ele>
        <time>2021-05-20T04:40:52Z</time>
      </trkpt>
      <trkpt lat="45.91689" lon="6.50087">
        <ele>1939</ele>
        <time>2021-05-20T04:40:53Z</time>
      </trkpt>
      <trkpt lat="45.91689" lon="6.50087">
        <ele>1939</ele>
        <time>2021-05-20T04:40:54Z</time>
      </trkpt>
      <trkpt lat="45.91689" lon="6.50087">
        <ele>1939</ele>
        <time>2021-05-20T04:40:55Z</time>
      </trkpt>
      <trkpt lat="45.91685" lon="6.50088">
        <ele>1939</ele>
        <time>2021-05-20T04:40:56Z</time>
      </trkpt>
      <trkpt lat="45.91685" lon="6.50088">
        <ele>1940</ele>
        <time>2021-05-20T04:40:57Z</time>
      </trkpt>
      <trkpt lat="45.91684" lon="6.50088">
        <ele>1941</ele>
        <time>2021-05-20T04:40:58Z</time>
      </trkpt>
      <trkpt lat="45.91683" lon="6.50089">
        <ele>1941</ele>
        <time>2021-05-20T04:40:59Z</time>
      </trkpt>
      <trkpt lat="45.91682" lon="6.50089">
        <ele>1941</ele>
        <time>2021-05-20T04:41:00Z</time>
      </trkpt>
      <trkpt lat="45.91681" lon="6.50089">
        <ele>1942</ele>
        <time>2021-05-20T04:41:01Z</time>
      </trkpt>
      <trkpt lat="45.9168" lon="6.50089">
        <ele>1942</ele>
        <time>2021-05-20T04:41:02Z</time>
      </trkpt>
      <trkpt lat="45.91679" lon="6.50089">
        <ele>1942</ele>
        <time>2021-05-20T04:41:03Z</time>
      </trkpt>
      <trkpt lat="45.91678" lon="6.50089">
        <ele>1942</ele>
        <time>2021-05-20T04:41:04Z</time>
      </trkpt>
      <trkpt lat="45.91678" lon="6.50089">
        <ele>1942</ele>
        <time>2021-05-20T04:41:05Z</time>
      </trkpt>
      <trkpt lat="45.91677" lon="6.50089">
        <ele>1942</ele>
        <time>2021-05-20T04:41:06Z</time>
      </trkpt>
      <trkpt lat="45.91677" lon="6.50089">
        <ele>1943</ele>
        <time>2021-05-20T04:41:07Z</time>
      </trkpt>
      <trkpt lat="45.91677" lon="6.50089">
        <ele>1943</ele>
        <time>2021-05-20T04:41:08Z</time>
      </trkpt>
      <trkpt lat="45.91677" lon="6.50089">
        <ele>1943</ele>
        <time>2021-05-20T04:41:09Z</time>
      </trkpt>
      <trkpt lat="45.91673" lon="6.50089">
        <ele>1943</ele>
        <time>2021-05-20T04:41:10Z</time>
      </trkpt>
      <trkpt lat="45.91673" lon="6.50089">
        <ele>1943</ele>
        <time>2021-05-20T04:41:11Z</time>
      </trkpt>
      <trkpt lat="45.91672" lon="6.5009">
        <ele>1943</ele>
        <time>2021-05-20T04:41:12Z</time>
      </trkpt>
      <trkpt lat="45.91671" lon="6.5009">
        <ele>1943</ele>
        <time>2021-05-20T04:41:13Z</time>
      </trkpt>
      <trkpt lat="45.9167" lon="6.5009">
        <ele>1943</ele>
        <time>2021-05-20T04:41:14Z</time>
      </trkpt>
      <trkpt lat="45.9167" lon="6.50091">
        <ele>1944</ele>
        <time>2021-05-20T04:41:15Z</time>
      </trkpt>
      <trkpt lat="45.91669" lon="6.50091">
        <ele>1944</ele>
        <time>2021-05-20T04:41:16Z</time>
      </trkpt>
      <trkpt lat="45.91669" lon="6.50091">
        <ele>1944</ele>
        <time>2021-05-20T04:41:17Z</time>
      </trkpt>
      <trkpt lat="45.91669" lon="6.50091">
        <ele>1945</ele>
        <time>2021-05-20T04:41:18Z</time>
      </trkpt>
      <trkpt lat="45.91669" lon="6.50091">
        <ele>1945</ele>
        <time>2021-05-20T04:41:19Z</time>
      </trkpt>
      <trkpt lat="45.91665" lon="6.50092">
        <ele>1945</ele>
        <time>2021-05-20T04:41:20Z</time>
      </trkpt>
      <trkpt lat="45.91665" lon="6.50092">
        <ele>1945</ele>
        <time>2021-05-20T04:41:21Z</time>
      </trkpt>
      <trkpt lat="45.91664" lon="6.50092">
        <ele>1946</ele>
        <time>2021-05-20T04:41:22Z</time>
      </trkpt>
      <trkpt lat="45.91663" lon="6.50092">
        <ele>1946</ele>
        <time>2021-05-20T04:41:23Z</time>
      </trkpt>
      <trkpt lat="45.91662" lon="6.50093">
        <ele>1946</ele>
        <time>2021-05-20T04:41:24Z</time>
      </trkpt>
      <trkpt lat="45.91662" lon="6.50093">
        <ele>1946</ele>
        <time>2021-05-20T04:41:25Z</time>
      </trkpt>
      <trkpt lat="45.91661" lon="6.50093">
        <ele>1946</ele>
        <time>2021-05-20T04:41:26Z</time>
      </trkpt>
      <trkpt lat="45.9166" lon="6.50093">
        <ele>1946</ele>
        <time>2021-05-20T04:41:27Z</time>
      </trkpt>
      <trkpt lat="45.91659" lon="6.50093">
        <ele>1947</ele>
        <time>2021-05-20T04:41:28Z</time>
      </trkpt>
      <trkpt lat="45.91658" lon="6.50093">
        <ele>1947</ele>
        <time>2021-05-20T04:41:29Z</time>
      </trkpt>
      <trkpt lat="45.91658" lon="6.50093">
        <ele>1948</ele>
        <time>2021-05-20T04:41:30Z</time>
      </trkpt>
      <trkpt lat="45.91657" lon="6.50093">
        <ele>1948</ele>
        <time>2021-05-20T04:41:31Z</time>
      </trkpt>
      <trkpt lat="45.91657" lon="6.50093">
        <ele>1948</ele>
        <time>2021-05-20T04:41:32Z</time>
      </trkpt>
      <trkpt lat="45.91657" lon="6.50093">
        <ele>1948</ele>
        <time>2021-05-20T04:41:33Z</time>
      </trkpt>
      <trkpt lat="45.91653" lon="6.50092">
        <ele>1948</ele>
        <time>2021-05-20T04:41:34Z</time>
      </trkpt>
      <trkpt lat="45.91653" lon="6.50092">
        <ele>1948</ele>
        <time>2021-05-20T04:41:35Z</time>
      </trkpt>
      <trkpt lat="45.91653" lon="6.50092">
        <ele>1948</ele>
        <time>2021-05-20T04:41:36Z</time>
      </trkpt>
      <trkpt lat="45.91653" lon="6.50092">
        <ele>1948</ele>
        <time>2021-05-20T04:41:37Z</time>
      </trkpt>
      <trkpt lat="45.91653" lon="6.50092">
        <ele>1948</ele>
        <time>2021-05-20T04:41:38Z</time>
      </trkpt>
      <trkpt lat="45.9165" lon="6.50091">
        <ele>1949</ele>
        <time>2021-05-20T04:41:39Z</time>
      </trkpt>
      <trkpt lat="45.9165" lon="6.50091">
        <ele>1949</ele>
        <time>2021-05-20T04:41:40Z</time>
      </trkpt>
      <trkpt lat="45.9165" lon="6.50091">
        <ele>1949</ele>
        <time>2021-05-20T04:41:41Z</time>
      </trkpt>
      <trkpt lat="45.9165" lon="6.50091">
        <ele>1950</ele>
        <time>2021-05-20T04:41:42Z</time>
      </trkpt>
      <trkpt lat="45.9165" lon="6.50091">
        <ele>1950</ele>
        <time>2021-05-20T04:41:43Z</time>
      </trkpt>
      <trkpt lat="45.9165" lon="6.50091">
        <ele>1950</ele>
        <time>2021-05-20T04:41:44Z</time>
      </trkpt>
      <trkpt lat="45.91647" lon="6.50088">
        <ele>1951</ele>
        <time>2021-05-20T04:41:45Z</time>
      </trkpt>
      <trkpt lat="45.91647" lon="6.50088">
        <ele>1951</ele>
        <time>2021-05-20T04:41:46Z</time>
      </trkpt>
      <trkpt lat="45.91647" lon="6.50089">
        <ele>1951</ele>
        <time>2021-05-20T04:41:47Z</time>
      </trkpt>
      <trkpt lat="45.91647" lon="6.5009">
        <ele>1951</ele>
        <time>2021-05-20T04:41:48Z</time>
      </trkpt>
      <trkpt lat="45.91647" lon="6.50091">
        <ele>1951</ele>
        <time>2021-05-20T04:41:49Z</time>
      </trkpt>
      <trkpt lat="45.91647" lon="6.50092">
        <ele>1951</ele>
        <time>2021-05-20T04:41:50Z</time>
      </trkpt>
      <trkpt lat="45.91647" lon="6.50093">
        <ele>1951</ele>
        <time>2021-05-20T04:41:51Z</time>
      </trkpt>
      <trkpt lat="45.91647" lon="6.50093">
        <ele>1951</ele>
        <time>2021-05-20T04:41:52Z</time>
      </trkpt>
      <trkpt lat="45.91647" lon="6.50093">
        <ele>1951</ele>
        <time>2021-05-20T04:41:53Z</time>
      </trkpt>
      <trkpt lat="45.91647" lon="6.50093">
        <ele>1952</ele>
        <time>2021-05-20T04:41:54Z</time>
      </trkpt>
      <trkpt lat="45.91648" lon="6.50099">
        <ele>1952</ele>
        <time>2021-05-20T04:41:55Z</time>
      </trkpt>
      <trkpt lat="45.91648" lon="6.50099">
        <ele>1952</ele>
        <time>2021-05-20T04:41:56Z</time>
      </trkpt>
      <trkpt lat="45.91648" lon="6.50099">
        <ele>1953</ele>
        <time>2021-05-20T04:41:57Z</time>
      </trkpt>
      <trkpt lat="45.91648" lon="6.50099">
        <ele>1953</ele>
        <time>2021-05-20T04:41:58Z</time>
      </trkpt>
      <trkpt lat="45.91649" lon="6.50104">
        <ele>1953</ele>
        <time>2021-05-20T04:41:59Z</time>
      </trkpt>
      <trkpt lat="45.91649" lon="6.50104">
        <ele>1953</ele>
        <time>2021-05-20T04:42:00Z</time>
      </trkpt>
      <trkpt lat="45.9165" lon="6.50105">
        <ele>1953</ele>
        <time>2021-05-20T04:42:01Z</time>
      </trkpt>
      <trkpt lat="45.9165" lon="6.50106">
        <ele>1954</ele>
        <time>2021-05-20T04:42:02Z</time>
      </trkpt>
      <trkpt lat="45.91651" lon="6.50107">
        <ele>1954</ele>
        <time>2021-05-20T04:42:03Z</time>
      </trkpt>
      <trkpt lat="45.91651" lon="6.50108">
        <ele>1954</ele>
        <time>2021-05-20T04:42:04Z</time>
      </trkpt>
      <trkpt lat="45.91652" lon="6.50109">
        <ele>1954</ele>
        <time>2021-05-20T04:42:05Z</time>
      </trkpt>
      <trkpt lat="45.91652" lon="6.50109">
        <ele>1955</ele>
        <time>2021-05-20T04:42:06Z</time>
      </trkpt>
      <trkpt lat="45.91652" lon="6.50109">
        <ele>1955</ele>
        <time>2021-05-20T04:42:07Z</time>
      </trkpt>
      <trkpt lat="45.91652" lon="6.50109">
        <ele>1955</ele>
        <time>2021-05-20T04:42:08Z</time>
      </trkpt>
      <trkpt lat="45.91652" lon="6.50109">
        <ele>1955</ele>
        <time>2021-05-20T04:42:09Z</time>
      </trkpt>
      <trkpt lat="45.91652" lon="6.50109">
        <ele>1955</ele>
        <time>2021-05-20T04:42:10Z</time>
      </trkpt>
      <trkpt lat="45.91652" lon="6.50109">
        <ele>1955</ele>
        <time>2021-05-20T04:42:11Z</time>
      </trkpt>
      <trkpt lat="45.91652" lon="6.50109">
        <ele>1956</ele>
        <time>2021-05-20T04:42:12Z</time>
      </trkpt>
      <trkpt lat="45.91652" lon="6.50109">
        <ele>1957</ele>
        <time>2021-05-20T04:42:13Z</time>
      </trkpt>
      <trkpt lat="45.9165" lon="6.50112">
        <ele>1957</ele>
        <time>2021-05-20T04:42:14Z</time>
      </trkpt>
      <trkpt lat="45.9165" lon="6.50112">
        <ele>1957</ele>
        <time>2021-05-20T04:42:15Z</time>
      </trkpt>
      <trkpt lat="45.9165" lon="6.50112">
        <ele>1957</ele>
        <time>2021-05-20T04:42:16Z</time>
      </trkpt>
      <trkpt lat="45.9165" lon="6.50112">
        <ele>1958</ele>
        <time>2021-05-20T04:42:17Z</time>
      </trkpt>
      <trkpt lat="45.91646" lon="6.50112">
        <ele>1958</ele>
        <time>2021-05-20T04:42:18Z</time>
      </trkpt>
      <trkpt lat="45.91646" lon="6.50112">
        <ele>1958</ele>
        <time>2021-05-20T04:42:19Z</time>
      </trkpt>
      <trkpt lat="45.91646" lon="6.50112">
        <ele>1958</ele>
        <time>2021-05-20T04:42:20Z</time>
      </trkpt>
      <trkpt lat="45.91645" lon="6.50112">
        <ele>1959</ele>
        <time>2021-05-20T04:42:21Z</time>
      </trkpt>
      <trkpt lat="45.91644" lon="6.50111">
        <ele>1959</ele>
        <time>2021-05-20T04:42:22Z</time>
      </trkpt>
      <trkpt lat="45.91643" lon="6.50111">
        <ele>1960</ele>
        <time>2021-05-20T04:42:23Z</time>
      </trkpt>
      <trkpt lat="45.91642" lon="6.50111">
        <ele>1960</ele>
        <time>2021-05-20T04:42:24Z</time>
      </trkpt>
      <trkpt lat="45.91642" lon="6.50111">
        <ele>1960</ele>
        <time>2021-05-20T04:42:25Z</time>
      </trkpt>
      <trkpt lat="45.91642" lon="6.50111">
        <ele>1960</ele>
        <time>2021-05-20T04:42:26Z</time>
      </trkpt>
      <trkpt lat="45.91639" lon="6.50111">
        <ele>1961</ele>
        <time>2021-05-20T04:42:27Z</time>
      </trkpt>
      <trkpt lat="45.91639" lon="6.50111">
        <ele>1961</ele>
        <time>2021-05-20T04:42:28Z</time>
      </trkpt>
      <trkpt lat="45.91639" lon="6.50111">
        <ele>1961</ele>
        <time>2021-05-20T04:42:29Z</time>
      </trkpt>
      <trkpt lat="45.91639" lon="6.50111">
        <ele>1961</ele>
        <time>2021-05-20T04:42:30Z</time>
      </trkpt>
      <trkpt lat="45.91639" lon="6.50111">
        <ele>1961</ele>
        <time>2021-05-20T04:42:31Z</time>
      </trkpt>
      <trkpt lat="45.91635" lon="6.50108">
        <ele>1961</ele>
        <time>2021-05-20T04:42:32Z</time>
      </trkpt>
      <trkpt lat="45.91635" lon="6.50108">
        <ele>1962</ele>
        <time>2021-05-20T04:42:33Z</time>
      </trkpt>
      <trkpt lat="45.91635" lon="6.50108">
        <ele>1962</ele>
        <time>2021-05-20T04:42:34Z</time>
      </trkpt>
      <trkpt lat="45.91635" lon="6.50108">
        <ele>1962</ele>
        <time>2021-05-20T04:42:35Z</time>
      </trkpt>
      <trkpt lat="45.91632" lon="6.50106">
        <ele>1963</ele>
        <time>2021-05-20T04:42:36Z</time>
      </trkpt>
      <trkpt lat="45.91632" lon="6.50106">
        <ele>1963</ele>
        <time>2021-05-20T04:42:37Z</time>
      </trkpt>
      <trkpt lat="45.91632" lon="6.50105">
        <ele>1963</ele>
        <time>2021-05-20T04:42:38Z</time>
      </trkpt>
      <trkpt lat="45.91631" lon="6.50104">
        <ele>1963</ele>
        <time>2021-05-20T04:42:39Z</time>
      </trkpt>
      <trkpt lat="45.9163" lon="6.50103">
        <ele>1963</ele>
        <time>2021-05-20T04:42:40Z</time>
      </trkpt>
      <trkpt lat="45.9163" lon="6.50103">
        <ele>1963</ele>
        <time>2021-05-20T04:42:41Z</time>
      </trkpt>
      <trkpt lat="45.91629" lon="6.50102">
        <ele>1963</ele>
        <time>2021-05-20T04:42:42Z</time>
      </trkpt>
      <trkpt lat="45.91629" lon="6.50102">
        <ele>1963</ele>
        <time>2021-05-20T04:42:43Z</time>
      </trkpt>
      <trkpt lat="45.91629" lon="6.50102">
        <ele>1963</ele>
        <time>2021-05-20T04:42:44Z</time>
      </trkpt>
      <trkpt lat="45.91629" lon="6.50102">
        <ele>1963</ele>
        <time>2021-05-20T04:42:45Z</time>
      </trkpt>
      <trkpt lat="45.91626" lon="6.50099">
        <ele>1963</ele>
        <time>2021-05-20T04:42:46Z</time>
      </trkpt>
      <trkpt lat="45.91626" lon="6.50099">
        <ele>1964</ele>
        <time>2021-05-20T04:42:47Z</time>
      </trkpt>
      <trkpt lat="45.91626" lon="6.50099">
        <ele>1965</ele>
        <time>2021-05-20T04:42:48Z</time>
      </trkpt>
      <trkpt lat="45.91626" lon="6.50099">
        <ele>1965</ele>
        <time>2021-05-20T04:42:49Z</time>
      </trkpt>
      <trkpt lat="45.91623" lon="6.50099">
        <ele>1965</ele>
        <time>2021-05-20T04:42:50Z</time>
      </trkpt>
      <trkpt lat="45.91623" lon="6.50099">
        <ele>1965</ele>
        <time>2021-05-20T04:42:51Z</time>
      </trkpt>
      <trkpt lat="45.91622" lon="6.50099">
        <ele>1965</ele>
        <time>2021-05-20T04:42:52Z</time>
      </trkpt>
      <trkpt lat="45.91621" lon="6.50098">
        <ele>1966</ele>
        <time>2021-05-20T04:42:53Z</time>
      </trkpt>
      <trkpt lat="45.9162" lon="6.50098">
        <ele>1966</ele>
        <time>2021-05-20T04:42:54Z</time>
      </trkpt>
      <trkpt lat="45.9162" lon="6.50098">
        <ele>1967</ele>
        <time>2021-05-20T04:42:55Z</time>
      </trkpt>
      <trkpt lat="45.91619" lon="6.50098">
        <ele>1967</ele>
        <time>2021-05-20T04:42:56Z</time>
      </trkpt>
      <trkpt lat="45.91618" lon="6.50098">
        <ele>1967</ele>
        <time>2021-05-20T04:42:57Z</time>
      </trkpt>
      <trkpt lat="45.91617" lon="6.50098">
        <ele>1967</ele>
        <time>2021-05-20T04:42:58Z</time>
      </trkpt>
      <trkpt lat="45.91616" lon="6.50098">
        <ele>1967</ele>
        <time>2021-05-20T04:42:59Z</time>
      </trkpt>
      <trkpt lat="45.91615" lon="6.50098">
        <ele>1967</ele>
        <time>2021-05-20T04:43:00Z</time>
      </trkpt>
      <trkpt lat="45.91614" lon="6.50098">
        <ele>1967</ele>
        <time>2021-05-20T04:43:01Z</time>
      </trkpt>
      <trkpt lat="45.91614" lon="6.50098">
        <ele>1968</ele>
        <time>2021-05-20T04:43:02Z</time>
      </trkpt>
      <trkpt lat="45.91613" lon="6.50098">
        <ele>1968</ele>
        <time>2021-05-20T04:43:03Z</time>
      </trkpt>
      <trkpt lat="45.91612" lon="6.50098">
        <ele>1968</ele>
        <time>2021-05-20T04:43:04Z</time>
      </trkpt>
      <trkpt lat="45.91611" lon="6.50098">
        <ele>1969</ele>
        <time>2021-05-20T04:43:05Z</time>
      </trkpt>
      <trkpt lat="45.9161" lon="6.50098">
        <ele>1969</ele>
        <time>2021-05-20T04:43:06Z</time>
      </trkpt>
      <trkpt lat="45.9161" lon="6.50098">
        <ele>1969</ele>
        <time>2021-05-20T04:43:07Z</time>
      </trkpt>
      <trkpt lat="45.9161" lon="6.50098">
        <ele>1969</ele>
        <time>2021-05-20T04:43:08Z</time>
      </trkpt>
      <trkpt lat="45.9161" lon="6.50098">
        <ele>1969</ele>
        <time>2021-05-20T04:43:09Z</time>
      </trkpt>
      <trkpt lat="45.91606" lon="6.50097">
        <ele>1970</ele>
        <time>2021-05-20T04:43:10Z</time>
      </trkpt>
      <trkpt lat="45.91606" lon="6.50097">
        <ele>1970</ele>
        <time>2021-05-20T04:43:11Z</time>
      </trkpt>
      <trkpt lat="45.91606" lon="6.50096">
        <ele>1971</ele>
        <time>2021-05-20T04:43:12Z</time>
      </trkpt>
      <trkpt lat="45.91605" lon="6.50096">
        <ele>1971</ele>
        <time>2021-05-20T04:43:13Z</time>
      </trkpt>
      <trkpt lat="45.91604" lon="6.50096">
        <ele>1971</ele>
        <time>2021-05-20T04:43:14Z</time>
      </trkpt>
      <trkpt lat="45.91603" lon="6.50095">
        <ele>1972</ele>
        <time>2021-05-20T04:43:15Z</time>
      </trkpt>
      <trkpt lat="45.91603" lon="6.50095">
        <ele>1972</ele>
        <time>2021-05-20T04:43:16Z</time>
      </trkpt>
      <trkpt lat="45.91602" lon="6.50096">
        <ele>1972</ele>
        <time>2021-05-20T04:43:17Z</time>
      </trkpt>
      <trkpt lat="45.91602" lon="6.50097">
        <ele>1972</ele>
        <time>2021-05-20T04:43:18Z</time>
      </trkpt>
      <trkpt lat="45.91602" lon="6.50097">
        <ele>1972</ele>
        <time>2021-05-20T04:43:19Z</time>
      </trkpt>
      <trkpt lat="45.91602" lon="6.50098">
        <ele>1972</ele>
        <time>2021-05-20T04:43:20Z</time>
      </trkpt>
      <trkpt lat="45.91602" lon="6.50099">
        <ele>1972</ele>
        <time>2021-05-20T04:43:21Z</time>
      </trkpt>
      <trkpt lat="45.91602" lon="6.501">
        <ele>1973</ele>
        <time>2021-05-20T04:43:22Z</time>
      </trkpt>
      <trkpt lat="45.91602" lon="6.50101">
        <ele>1973</ele>
        <time>2021-05-20T04:43:23Z</time>
      </trkpt>
      <trkpt lat="45.91602" lon="6.50101">
        <ele>1973</ele>
        <time>2021-05-20T04:43:24Z</time>
      </trkpt>
      <trkpt lat="45.91602" lon="6.50101">
        <ele>1973</ele>
        <time>2021-05-20T04:43:25Z</time>
      </trkpt>
      <trkpt lat="45.91604" lon="6.50106">
        <ele>1973</ele>
        <time>2021-05-20T04:43:26Z</time>
      </trkpt>
      <trkpt lat="45.91604" lon="6.50106">
        <ele>1973</ele>
        <time>2021-05-20T04:43:27Z</time>
      </trkpt>
      <trkpt lat="45.91604" lon="6.50106">
        <ele>1973</ele>
        <time>2021-05-20T04:43:28Z</time>
      </trkpt>
      <trkpt lat="45.91604" lon="6.50106">
        <ele>1973</ele>
        <time>2021-05-20T04:43:29Z</time>
      </trkpt>
      <trkpt lat="45.91604" lon="6.50106">
        <ele>1974</ele>
        <time>2021-05-20T04:43:30Z</time>
      </trkpt>
      <trkpt lat="45.91606" lon="6.5011">
        <ele>1974</ele>
        <time>2021-05-20T04:43:31Z</time>
      </trkpt>
      <trkpt lat="45.91606" lon="6.5011">
        <ele>1974</ele>
        <time>2021-05-20T04:43:32Z</time>
      </trkpt>
      <trkpt lat="45.91606" lon="6.50111">
        <ele>1975</ele>
        <time>2021-05-20T04:43:33Z</time>
      </trkpt>
      <trkpt lat="45.91606" lon="6.50112">
        <ele>1975</ele>
        <time>2021-05-20T04:43:34Z</time>
      </trkpt>
      <trkpt lat="45.91607" lon="6.50113">
        <ele>1975</ele>
        <time>2021-05-20T04:43:35Z</time>
      </trkpt>
      <trkpt lat="45.91607" lon="6.50114">
        <ele>1975</ele>
        <time>2021-05-20T04:43:36Z</time>
      </trkpt>
      <trkpt lat="45.91607" lon="6.50115">
        <ele>1976</ele>
        <time>2021-05-20T04:43:37Z</time>
      </trkpt>
      <trkpt lat="45.91607" lon="6.50115">
        <ele>1976</ele>
        <time>2021-05-20T04:43:38Z</time>
      </trkpt>
      <trkpt lat="45.91607" lon="6.50115">
        <ele>1977</ele>
        <time>2021-05-20T04:43:39Z</time>
      </trkpt>
      <trkpt lat="45.91607" lon="6.50115">
        <ele>1977</ele>
        <time>2021-05-20T04:43:40Z</time>
      </trkpt>
      <trkpt lat="45.91609" lon="6.5012">
        <ele>1977</ele>
        <time>2021-05-20T04:43:41Z</time>
      </trkpt>
      <trkpt lat="45.91609" lon="6.5012">
        <ele>1977</ele>
        <time>2021-05-20T04:43:42Z</time>
      </trkpt>
      <trkpt lat="45.91609" lon="6.5012">
        <ele>1977</ele>
        <time>2021-05-20T04:43:43Z</time>
      </trkpt>
      <trkpt lat="45.91609" lon="6.5012">
        <ele>1978</ele>
        <time>2021-05-20T04:43:44Z</time>
      </trkpt>
      <trkpt lat="45.91609" lon="6.5012">
        <ele>1978</ele>
        <time>2021-05-20T04:43:45Z</time>
      </trkpt>
      <trkpt lat="45.9161" lon="6.50125">
        <ele>1978</ele>
        <time>2021-05-20T04:43:46Z</time>
      </trkpt>
      <trkpt lat="45.9161" lon="6.50125">
        <ele>1978</ele>
        <time>2021-05-20T04:43:47Z</time>
      </trkpt>
      <trkpt lat="45.9161" lon="6.50125">
        <ele>1978</ele>
        <time>2021-05-20T04:43:48Z</time>
      </trkpt>
      <trkpt lat="45.91609" lon="6.50125">
        <ele>1979</ele>
        <time>2021-05-20T04:43:49Z</time>
      </trkpt>
      <trkpt lat="45.91609" lon="6.50125">
        <ele>1979</ele>
        <time>2021-05-20T04:43:50Z</time>
      </trkpt>
      <trkpt lat="45.91609" lon="6.50126">
        <ele>1980</ele>
        <time>2021-05-20T04:43:51Z</time>
      </trkpt>
      <trkpt lat="45.91608" lon="6.50126">
        <ele>1981</ele>
        <time>2021-05-20T04:43:52Z</time>
      </trkpt>
      <trkpt lat="45.91608" lon="6.50126">
        <ele>1981</ele>
        <time>2021-05-20T04:43:53Z</time>
      </trkpt>
      <trkpt lat="45.91607" lon="6.50126">
        <ele>1981</ele>
        <time>2021-05-20T04:43:54Z</time>
      </trkpt>
      <trkpt lat="45.91607" lon="6.50126">
        <ele>1981</ele>
        <time>2021-05-20T04:43:55Z</time>
      </trkpt>
      <trkpt lat="45.91607" lon="6.50126">
        <ele>1981</ele>
        <time>2021-05-20T04:43:56Z</time>
      </trkpt>
      <trkpt lat="45.91607" lon="6.50126">
        <ele>1981</ele>
        <time>2021-05-20T04:43:57Z</time>
      </trkpt>
      <trkpt lat="45.91607" lon="6.50126">
        <ele>1981</ele>
        <time>2021-05-20T04:43:58Z</time>
      </trkpt>
      <trkpt lat="45.91603" lon="6.50126">
        <ele>1982</ele>
        <time>2021-05-20T04:43:59Z</time>
      </trkpt>
      <trkpt lat="45.91603" lon="6.50126">
        <ele>1982</ele>
        <time>2021-05-20T04:44:00Z</time>
      </trkpt>
      <trkpt lat="45.91603" lon="6.50126">
        <ele>1982</ele>
        <time>2021-05-20T04:44:01Z</time>
      </trkpt>
      <trkpt lat="45.91602" lon="6.50125">
        <ele>1982</ele>
        <time>2021-05-20T04:44:02Z</time>
      </trkpt>
      <trkpt lat="45.91601" lon="6.50125">
        <ele>1982</ele>
        <time>2021-05-20T04:44:03Z</time>
      </trkpt>
      <trkpt lat="45.916" lon="6.50125">
        <ele>1982</ele>
        <time>2021-05-20T04:44:04Z</time>
      </trkpt>
      <trkpt lat="45.916" lon="6.50125">
        <ele>1982</ele>
        <time>2021-05-20T04:44:05Z</time>
      </trkpt>
      <trkpt lat="45.91599" lon="6.50125">
        <ele>1983</ele>
        <time>2021-05-20T04:44:06Z</time>
      </trkpt>
      <trkpt lat="45.91599" lon="6.50125">
        <ele>1983</ele>
        <time>2021-05-20T04:44:07Z</time>
      </trkpt>
      <trkpt lat="45.91599" lon="6.50125">
        <ele>1983</ele>
        <time>2021-05-20T04:44:08Z</time>
      </trkpt>
      <trkpt lat="45.91599" lon="6.50125">
        <ele>1983</ele>
        <time>2021-05-20T04:44:09Z</time>
      </trkpt>
      <trkpt lat="45.91595" lon="6.50124">
        <ele>1984</ele>
        <time>2021-05-20T04:44:10Z</time>
      </trkpt>
      <trkpt lat="45.91595" lon="6.50124">
        <ele>1984</ele>
        <time>2021-05-20T04:44:11Z</time>
      </trkpt>
      <trkpt lat="45.91595" lon="6.50124">
        <ele>1984</ele>
        <time>2021-05-20T04:44:12Z</time>
      </trkpt>
      <trkpt lat="45.91594" lon="6.50123">
        <ele>1985</ele>
        <time>2021-05-20T04:44:13Z</time>
      </trkpt>
      <trkpt lat="45.91594" lon="6.50123">
        <ele>1985</ele>
        <time>2021-05-20T04:44:14Z</time>
      </trkpt>
      <trkpt lat="45.91593" lon="6.50123">
        <ele>1985</ele>
        <time>2021-05-20T04:44:15Z</time>
      </trkpt>
      <trkpt lat="45.91592" lon="6.50123">
        <ele>1986</ele>
        <time>2021-05-20T04:44:16Z</time>
      </trkpt>
      <trkpt lat="45.91592" lon="6.50123">
        <ele>1986</ele>
        <time>2021-05-20T04:44:17Z</time>
      </trkpt>
      <trkpt lat="45.91592" lon="6.50123">
        <ele>1986</ele>
        <time>2021-05-20T04:44:18Z</time>
      </trkpt>
      <trkpt lat="45.91592" lon="6.50123">
        <ele>1986</ele>
        <time>2021-05-20T04:44:19Z</time>
      </trkpt>
      <trkpt lat="45.91592" lon="6.50123">
        <ele>1986</ele>
        <time>2021-05-20T04:44:20Z</time>
      </trkpt>
      <trkpt lat="45.91592" lon="6.50123">
        <ele>1987</ele>
        <time>2021-05-20T04:44:21Z</time>
      </trkpt>
      <trkpt lat="45.91588" lon="6.50122">
        <ele>1987</ele>
        <time>2021-05-20T04:44:22Z</time>
      </trkpt>
      <trkpt lat="45.91588" lon="6.50122">
        <ele>1987</ele>
        <time>2021-05-20T04:44:23Z</time>
      </trkpt>
      <trkpt lat="45.91588" lon="6.50122">
        <ele>1987</ele>
        <time>2021-05-20T04:44:24Z</time>
      </trkpt>
      <trkpt lat="45.91588" lon="6.50122">
        <ele>1988</ele>
        <time>2021-05-20T04:44:25Z</time>
      </trkpt>
      <trkpt lat="45.91588" lon="6.50122">
        <ele>1988</ele>
        <time>2021-05-20T04:44:26Z</time>
      </trkpt>
      <trkpt lat="45.91585" lon="6.5012">
        <ele>1989</ele>
        <time>2021-05-20T04:44:27Z</time>
      </trkpt>
      <trkpt lat="45.91585" lon="6.5012">
        <ele>1989</ele>
        <time>2021-05-20T04:44:28Z</time>
      </trkpt>
      <trkpt lat="45.91585" lon="6.5012">
        <ele>1989</ele>
        <time>2021-05-20T04:44:29Z</time>
      </trkpt>
      <trkpt lat="45.91585" lon="6.5012">
        <ele>1989</ele>
        <time>2021-05-20T04:44:30Z</time>
      </trkpt>
      <trkpt lat="45.91585" lon="6.5012">
        <ele>1989</ele>
        <time>2021-05-20T04:44:31Z</time>
      </trkpt>
      <trkpt lat="45.91585" lon="6.5012">
        <ele>1990</ele>
        <time>2021-05-20T04:44:32Z</time>
      </trkpt>
      <trkpt lat="45.91585" lon="6.5012">
        <ele>1990</ele>
        <time>2021-05-20T04:44:33Z</time>
      </trkpt>
      <trkpt lat="45.91585" lon="6.50125">
        <ele>1990</ele>
        <time>2021-05-20T04:44:34Z</time>
      </trkpt>
      <trkpt lat="45.91585" lon="6.50125">
        <ele>1991</ele>
        <time>2021-05-20T04:44:35Z</time>
      </trkpt>
      <trkpt lat="45.91585" lon="6.50126">
        <ele>1991</ele>
        <time>2021-05-20T04:44:36Z</time>
      </trkpt>
      <trkpt lat="45.91585" lon="6.50127">
        <ele>1991</ele>
        <time>2021-05-20T04:44:37Z</time>
      </trkpt>
      <trkpt lat="45.91586" lon="6.50128">
        <ele>1992</ele>
        <time>2021-05-20T04:44:38Z</time>
      </trkpt>
      <trkpt lat="45.91586" lon="6.5013">
        <ele>1992</ele>
        <time>2021-05-20T04:44:39Z</time>
      </trkpt>
      <trkpt lat="45.91586" lon="6.5013">
        <ele>1993</ele>
        <time>2021-05-20T04:44:40Z</time>
      </trkpt>
      <trkpt lat="45.91586" lon="6.5013">
        <ele>1993</ele>
        <time>2021-05-20T04:44:41Z</time>
      </trkpt>
      <trkpt lat="45.91588" lon="6.50134">
        <ele>1993</ele>
        <time>2021-05-20T04:44:42Z</time>
      </trkpt>
      <trkpt lat="45.91588" lon="6.50134">
        <ele>1993</ele>
        <time>2021-05-20T04:44:43Z</time>
      </trkpt>
      <trkpt lat="45.91588" lon="6.50134">
        <ele>1994</ele>
        <time>2021-05-20T04:44:44Z</time>
      </trkpt>
      <trkpt lat="45.91588" lon="6.50134">
        <ele>1994</ele>
        <time>2021-05-20T04:44:45Z</time>
      </trkpt>
      <trkpt lat="45.9159" lon="6.50138">
        <ele>1994</ele>
        <time>2021-05-20T04:44:46Z</time>
      </trkpt>
      <trkpt lat="45.9159" lon="6.50138">
        <ele>1994</ele>
        <time>2021-05-20T04:44:47Z</time>
      </trkpt>
      <trkpt lat="45.9159" lon="6.50138">
        <ele>1994</ele>
        <time>2021-05-20T04:44:48Z</time>
      </trkpt>
      <trkpt lat="45.91589" lon="6.50138">
        <ele>1994</ele>
        <time>2021-05-20T04:44:49Z</time>
      </trkpt>
      <trkpt lat="45.91589" lon="6.50139">
        <ele>1995</ele>
        <time>2021-05-20T04:44:50Z</time>
      </trkpt>
      <trkpt lat="45.91589" lon="6.50139">
        <ele>1995</ele>
        <time>2021-05-20T04:44:51Z</time>
      </trkpt>
      <trkpt lat="45.91588" lon="6.50139">
        <ele>1996</ele>
        <time>2021-05-20T04:44:52Z</time>
      </trkpt>
      <trkpt lat="45.91588" lon="6.50139">
        <ele>1996</ele>
        <time>2021-05-20T04:44:53Z</time>
      </trkpt>
      <trkpt lat="45.91587" lon="6.50139">
        <ele>1996</ele>
        <time>2021-05-20T04:44:54Z</time>
      </trkpt>
      <trkpt lat="45.91587" lon="6.50139">
        <ele>1996</ele>
        <time>2021-05-20T04:44:55Z</time>
      </trkpt>
      <trkpt lat="45.91587" lon="6.50139">
        <ele>1996</ele>
        <time>2021-05-20T04:44:56Z</time>
      </trkpt>
      <trkpt lat="45.91587" lon="6.50139">
        <ele>1996</ele>
        <time>2021-05-20T04:44:57Z</time>
      </trkpt>
      <trkpt lat="45.91587" lon="6.50139">
        <ele>1996</ele>
        <time>2021-05-20T04:44:58Z</time>
      </trkpt>
      <trkpt lat="45.91583" lon="6.5014">
        <ele>1997</ele>
        <time>2021-05-20T04:44:59Z</time>
      </trkpt>
      <trkpt lat="45.91583" lon="6.5014">
        <ele>1997</ele>
        <time>2021-05-20T04:45:00Z</time>
      </trkpt>
      <trkpt lat="45.91583" lon="6.5014">
        <ele>1997</ele>
        <time>2021-05-20T04:45:01Z</time>
      </trkpt>
      <trkpt lat="45.91583" lon="6.5014">
        <ele>1997</ele>
        <time>2021-05-20T04:45:02Z</time>
      </trkpt>
      <trkpt lat="45.91583" lon="6.5014">
        <ele>1997</ele>
        <time>2021-05-20T04:45:03Z</time>
      </trkpt>
      <trkpt lat="45.91579" lon="6.50141">
        <ele>1998</ele>
        <time>2021-05-20T04:45:04Z</time>
      </trkpt>
      <trkpt lat="45.91579" lon="6.50141">
        <ele>1998</ele>
        <time>2021-05-20T04:45:05Z</time>
      </trkpt>
      <trkpt lat="45.91579" lon="6.50141">
        <ele>1998</ele>
        <time>2021-05-20T04:45:06Z</time>
      </trkpt>
      <trkpt lat="45.91578" lon="6.50141">
        <ele>1998</ele>
        <time>2021-05-20T04:45:07Z</time>
      </trkpt>
      <trkpt lat="45.91577" lon="6.5014">
        <ele>1999</ele>
        <time>2021-05-20T04:45:08Z</time>
      </trkpt>
      <trkpt lat="45.91577" lon="6.5014">
        <ele>1999</ele>
        <time>2021-05-20T04:45:09Z</time>
      </trkpt>
      <trkpt lat="45.91576" lon="6.5014">
        <ele>1999</ele>
        <time>2021-05-20T04:45:10Z</time>
      </trkpt>
      <trkpt lat="45.91575" lon="6.5014">
        <ele>1999</ele>
        <time>2021-05-20T04:45:11Z</time>
      </trkpt>
      <trkpt lat="45.91575" lon="6.5014">
        <ele>1999</ele>
        <time>2021-05-20T04:45:12Z</time>
      </trkpt>
      <trkpt lat="45.91575" lon="6.5014">
        <ele>1999</ele>
        <time>2021-05-20T04:45:13Z</time>
      </trkpt>
      <trkpt lat="45.91572" lon="6.50137">
        <ele>2000</ele>
        <time>2021-05-20T04:45:14Z</time>
      </trkpt>
      <trkpt lat="45.91572" lon="6.50137">
        <ele>2001</ele>
        <time>2021-05-20T04:45:15Z</time>
      </trkpt>
      <trkpt lat="45.91572" lon="6.50137">
        <ele>2001</ele>
        <time>2021-05-20T04:45:16Z</time>
      </trkpt>
      <trkpt lat="45.91572" lon="6.50137">
        <ele>2002</ele>
        <time>2021-05-20T04:45:17Z</time>
      </trkpt>
      <trkpt lat="45.91572" lon="6.50137">
        <ele>2002</ele>
        <time>2021-05-20T04:45:18Z</time>
      </trkpt>
      <trkpt lat="45.91569" lon="6.50136">
        <ele>2002</ele>
        <time>2021-05-20T04:45:19Z</time>
      </trkpt>
      <trkpt lat="45.91569" lon="6.50136">
        <ele>2002</ele>
        <time>2021-05-20T04:45:20Z</time>
      </trkpt>
      <trkpt lat="45.91568" lon="6.50137">
        <ele>2002</ele>
        <time>2021-05-20T04:45:21Z</time>
      </trkpt>
      <trkpt lat="45.91568" lon="6.50137">
        <ele>2004</ele>
        <time>2021-05-20T04:45:22Z</time>
      </trkpt>
      <trkpt lat="45.91567" lon="6.50138">
        <ele>2004</ele>
        <time>2021-05-20T04:45:23Z</time>
      </trkpt>
      <trkpt lat="45.91566" lon="6.50138">
        <ele>2005</ele>
        <time>2021-05-20T04:45:24Z</time>
      </trkpt>
      <trkpt lat="45.91565" lon="6.50139">
        <ele>2005</ele>
        <time>2021-05-20T04:45:25Z</time>
      </trkpt>
      <trkpt lat="45.91565" lon="6.5014">
        <ele>2005</ele>
        <time>2021-05-20T04:45:26Z</time>
      </trkpt>
      <trkpt lat="45.91564" lon="6.50141">
        <ele>2005</ele>
        <time>2021-05-20T04:45:27Z</time>
      </trkpt>
      <trkpt lat="45.91563" lon="6.50142">
        <ele>2005</ele>
        <time>2021-05-20T04:45:28Z</time>
      </trkpt>
      <trkpt lat="45.91562" lon="6.50143">
        <ele>2005</ele>
        <time>2021-05-20T04:45:29Z</time>
      </trkpt>
      <trkpt lat="45.91562" lon="6.50144">
        <ele>2006</ele>
        <time>2021-05-20T04:45:30Z</time>
      </trkpt>
      <trkpt lat="45.91561" lon="6.50145">
        <ele>2006</ele>
        <time>2021-05-20T04:45:31Z</time>
      </trkpt>
      <trkpt lat="45.9156" lon="6.50146">
        <ele>2006</ele>
        <time>2021-05-20T04:45:32Z</time>
      </trkpt>
      <trkpt lat="45.91559" lon="6.50147">
        <ele>2007</ele>
        <time>2021-05-20T04:45:33Z</time>
      </trkpt>
      <trkpt lat="45.91559" lon="6.50147">
        <ele>2007</ele>
        <time>2021-05-20T04:45:34Z</time>
      </trkpt>
      <trkpt lat="45.91559" lon="6.50147">
        <ele>2007</ele>
        <time>2021-05-20T04:45:35Z</time>
      </trkpt>
      <trkpt lat="45.91557" lon="6.50151">
        <ele>2007</ele>
        <time>2021-05-20T04:45:36Z</time>
      </trkpt>
      <trkpt lat="45.91557" lon="6.50151">
        <ele>2008</ele>
        <time>2021-05-20T04:45:37Z</time>
      </trkpt>
      <trkpt lat="45.91556" lon="6.50152">
        <ele>2008</ele>
        <time>2021-05-20T04:45:38Z</time>
      </trkpt>
      <trkpt lat="45.91555" lon="6.50154">
        <ele>2008</ele>
        <time>2021-05-20T04:45:39Z</time>
      </trkpt>
      <trkpt lat="45.91554" lon="6.50155">
        <ele>2008</ele>
        <time>2021-05-20T04:45:40Z</time>
      </trkpt>
      <trkpt lat="45.91554" lon="6.50156">
        <ele>2008</ele>
        <time>2021-05-20T04:45:41Z</time>
      </trkpt>
      <trkpt lat="45.91553" lon="6.50157">
        <ele>2008</ele>
        <time>2021-05-20T04:45:42Z</time>
      </trkpt>
      <trkpt lat="45.91552" lon="6.50158">
        <ele>2008</ele>
        <time>2021-05-20T04:45:43Z</time>
      </trkpt>
      <trkpt lat="45.91551" lon="6.50159">
        <ele>2009</ele>
        <time>2021-05-20T04:45:44Z</time>
      </trkpt>
      <trkpt lat="45.91551" lon="6.5016">
        <ele>2009</ele>
        <time>2021-05-20T04:45:45Z</time>
      </trkpt>
      <trkpt lat="45.9155" lon="6.50161">
        <ele>2009</ele>
        <time>2021-05-20T04:45:46Z</time>
      </trkpt>
      <trkpt lat="45.91549" lon="6.50162">
        <ele>2009</ele>
        <time>2021-05-20T04:45:47Z</time>
      </trkpt>
      <trkpt lat="45.91548" lon="6.50163">
        <ele>2009</ele>
        <time>2021-05-20T04:45:48Z</time>
      </trkpt>
      <trkpt lat="45.91547" lon="6.50164">
        <ele>2010</ele>
        <time>2021-05-20T04:45:49Z</time>
      </trkpt>
      <trkpt lat="45.91547" lon="6.50164">
        <ele>2010</ele>
        <time>2021-05-20T04:45:50Z</time>
      </trkpt>
      <trkpt lat="45.91547" lon="6.50164">
        <ele>2010</ele>
        <time>2021-05-20T04:45:51Z</time>
      </trkpt>
      <trkpt lat="45.91544" lon="6.50167">
        <ele>2010</ele>
        <time>2021-05-20T04:45:52Z</time>
      </trkpt>
      <trkpt lat="45.91544" lon="6.50167">
        <ele>2010</ele>
        <time>2021-05-20T04:45:53Z</time>
      </trkpt>
      <trkpt lat="45.91544" lon="6.50167">
        <ele>2010</ele>
        <time>2021-05-20T04:45:54Z</time>
      </trkpt>
      <trkpt lat="45.91544" lon="6.50167">
        <ele>2011</ele>
        <time>2021-05-20T04:45:55Z</time>
      </trkpt>
      <trkpt lat="45.91542" lon="6.50171">
        <ele>2011</ele>
        <time>2021-05-20T04:45:56Z</time>
      </trkpt>
      <trkpt lat="45.91542" lon="6.50171">
        <ele>2011</ele>
        <time>2021-05-20T04:45:57Z</time>
      </trkpt>
      <trkpt lat="45.91541" lon="6.50172">
        <ele>2012</ele>
        <time>2021-05-20T04:45:58Z</time>
      </trkpt>
      <trkpt lat="45.9154" lon="6.50173">
        <ele>2012</ele>
        <time>2021-05-20T04:45:59Z</time>
      </trkpt>
      <trkpt lat="45.9154" lon="6.50174">
        <ele>2012</ele>
        <time>2021-05-20T04:46:00Z</time>
      </trkpt>
      <trkpt lat="45.91539" lon="6.50175">
        <ele>2012</ele>
        <time>2021-05-20T04:46:01Z</time>
      </trkpt>
      <trkpt lat="45.91539" lon="6.50175">
        <ele>2012</ele>
        <time>2021-05-20T04:46:02Z</time>
      </trkpt>
      <trkpt lat="45.91539" lon="6.50175">
        <ele>2013</ele>
        <time>2021-05-20T04:46:03Z</time>
      </trkpt>
      <trkpt lat="45.91537" lon="6.5018">
        <ele>2013</ele>
        <time>2021-05-20T04:46:04Z</time>
      </trkpt>
      <trkpt lat="45.91537" lon="6.5018">
        <ele>2013</ele>
        <time>2021-05-20T04:46:05Z</time>
      </trkpt>
      <trkpt lat="45.91537" lon="6.50181">
        <ele>2013</ele>
        <time>2021-05-20T04:46:06Z</time>
      </trkpt>
      <trkpt lat="45.91536" lon="6.50182">
        <ele>2014</ele>
        <time>2021-05-20T04:46:07Z</time>
      </trkpt>
      <trkpt lat="45.91536" lon="6.50183">
        <ele>2014</ele>
        <time>2021-05-20T04:46:08Z</time>
      </trkpt>
      <trkpt lat="45.91535" lon="6.50184">
        <ele>2014</ele>
        <time>2021-05-20T04:46:09Z</time>
      </trkpt>
      <trkpt lat="45.91535" lon="6.50185">
        <ele>2014</ele>
        <time>2021-05-20T04:46:10Z</time>
      </trkpt>
      <trkpt lat="45.91535" lon="6.50185">
        <ele>2015</ele>
        <time>2021-05-20T04:46:11Z</time>
      </trkpt>
      <trkpt lat="45.91535" lon="6.50185">
        <ele>2015</ele>
        <time>2021-05-20T04:46:12Z</time>
      </trkpt>
      <trkpt lat="45.91535" lon="6.50185">
        <ele>2015</ele>
        <time>2021-05-20T04:46:13Z</time>
      </trkpt>
      <trkpt lat="45.91533" lon="6.50189">
        <ele>2015</ele>
        <time>2021-05-20T04:46:14Z</time>
      </trkpt>
      <trkpt lat="45.91533" lon="6.50189">
        <ele>2015</ele>
        <time>2021-05-20T04:46:15Z</time>
      </trkpt>
      <trkpt lat="45.91533" lon="6.50189">
        <ele>2016</ele>
        <time>2021-05-20T04:46:16Z</time>
      </trkpt>
      <trkpt lat="45.91533" lon="6.50189">
        <ele>2016</ele>
        <time>2021-05-20T04:46:17Z</time>
      </trkpt>
      <trkpt lat="45.91531" lon="6.50193">
        <ele>2016</ele>
        <time>2021-05-20T04:46:18Z</time>
      </trkpt>
      <trkpt lat="45.91531" lon="6.50193">
        <ele>2016</ele>
        <time>2021-05-20T04:46:19Z</time>
      </trkpt>
      <trkpt lat="45.91531" lon="6.50194">
        <ele>2016</ele>
        <time>2021-05-20T04:46:20Z</time>
      </trkpt>
      <trkpt lat="45.9153" lon="6.50195">
        <ele>2016</ele>
        <time>2021-05-20T04:46:21Z</time>
      </trkpt>
      <trkpt lat="45.9153" lon="6.50196">
        <ele>2017</ele>
        <time>2021-05-20T04:46:22Z</time>
      </trkpt>
      <trkpt lat="45.91529" lon="6.50198">
        <ele>2017</ele>
        <time>2021-05-20T04:46:23Z</time>
      </trkpt>
      <trkpt lat="45.91529" lon="6.50199">
        <ele>2018</ele>
        <time>2021-05-20T04:46:24Z</time>
      </trkpt>
      <trkpt lat="45.91529" lon="6.50199">
        <ele>2018</ele>
        <time>2021-05-20T04:46:25Z</time>
      </trkpt>
      <trkpt lat="45.91529" lon="6.50199">
        <ele>2018</ele>
        <time>2021-05-20T04:46:26Z</time>
      </trkpt>
      <trkpt lat="45.91527" lon="6.50203">
        <ele>2018</ele>
        <time>2021-05-20T04:46:27Z</time>
      </trkpt>
      <trkpt lat="45.91527" lon="6.50203">
        <ele>2018</ele>
        <time>2021-05-20T04:46:28Z</time>
      </trkpt>
      <trkpt lat="45.91527" lon="6.50203">
        <ele>2019</ele>
        <time>2021-05-20T04:46:29Z</time>
      </trkpt>
      <trkpt lat="45.91527" lon="6.50203">
        <ele>2019</ele>
        <time>2021-05-20T04:46:30Z</time>
      </trkpt>
      <trkpt lat="45.91526" lon="6.50208">
        <ele>2019</ele>
        <time>2021-05-20T04:46:31Z</time>
      </trkpt>
      <trkpt lat="45.91526" lon="6.50208">
        <ele>2019</ele>
        <time>2021-05-20T04:46:32Z</time>
      </trkpt>
      <trkpt lat="45.91526" lon="6.50208">
        <ele>2020</ele>
        <time>2021-05-20T04:46:33Z</time>
      </trkpt>
      <trkpt lat="45.91526" lon="6.50208">
        <ele>2020</ele>
        <time>2021-05-20T04:46:34Z</time>
      </trkpt>
      <trkpt lat="45.91525" lon="6.50213">
        <ele>2020</ele>
        <time>2021-05-20T04:46:35Z</time>
      </trkpt>
      <trkpt lat="45.91525" lon="6.50213">
        <ele>2021</ele>
        <time>2021-05-20T04:46:36Z</time>
      </trkpt>
      <trkpt lat="45.91525" lon="6.50215">
        <ele>2021</ele>
        <time>2021-05-20T04:46:37Z</time>
      </trkpt>
      <trkpt lat="45.91525" lon="6.50216">
        <ele>2022</ele>
        <time>2021-05-20T04:46:38Z</time>
      </trkpt>
      <trkpt lat="45.91524" lon="6.50217">
        <ele>2022</ele>
        <time>2021-05-20T04:46:39Z</time>
      </trkpt>
      <trkpt lat="45.91524" lon="6.50218">
        <ele>2022</ele>
        <time>2021-05-20T04:46:40Z</time>
      </trkpt>
      <trkpt lat="45.91524" lon="6.50218">
        <ele>2022</ele>
        <time>2021-05-20T04:46:41Z</time>
      </trkpt>
      <trkpt lat="45.91524" lon="6.50218">
        <ele>2023</ele>
        <time>2021-05-20T04:46:42Z</time>
      </trkpt>
      <trkpt lat="45.91522" lon="6.50223">
        <ele>2023</ele>
        <time>2021-05-20T04:46:43Z</time>
      </trkpt>
      <trkpt lat="45.91522" lon="6.50223">
        <ele>2023</ele>
        <time>2021-05-20T04:46:44Z</time>
      </trkpt>
      <trkpt lat="45.91522" lon="6.50225">
        <ele>2023</ele>
        <time>2021-05-20T04:46:45Z</time>
      </trkpt>
      <trkpt lat="45.91522" lon="6.50226">
        <ele>2023</ele>
        <time>2021-05-20T04:46:46Z</time>
      </trkpt>
      <trkpt lat="45.91522" lon="6.50227">
        <ele>2024</ele>
        <time>2021-05-20T04:46:47Z</time>
      </trkpt>
      <trkpt lat="45.91521" lon="6.50228">
        <ele>2024</ele>
        <time>2021-05-20T04:46:48Z</time>
      </trkpt>
      <trkpt lat="45.91521" lon="6.50229">
        <ele>2025</ele>
        <time>2021-05-20T04:46:49Z</time>
      </trkpt>
      <trkpt lat="45.91521" lon="6.5023">
        <ele>2025</ele>
        <time>2021-05-20T04:46:50Z</time>
      </trkpt>
      <trkpt lat="45.9152" lon="6.50231">
        <ele>2025</ele>
        <time>2021-05-20T04:46:51Z</time>
      </trkpt>
      <trkpt lat="45.9152" lon="6.50232">
        <ele>2025</ele>
        <time>2021-05-20T04:46:52Z</time>
      </trkpt>
      <trkpt lat="45.9152" lon="6.50233">
        <ele>2025</ele>
        <time>2021-05-20T04:46:53Z</time>
      </trkpt>
      <trkpt lat="45.91519" lon="6.50234">
        <ele>2025</ele>
        <time>2021-05-20T04:46:54Z</time>
      </trkpt>
      <trkpt lat="45.91519" lon="6.50234">
        <ele>2025</ele>
        <time>2021-05-20T04:46:55Z</time>
      </trkpt>
      <trkpt lat="45.91519" lon="6.50234">
        <ele>2025</ele>
        <time>2021-05-20T04:46:56Z</time>
      </trkpt>
      <trkpt lat="45.91516" lon="6.50238">
        <ele>2026</ele>
        <time>2021-05-20T04:46:57Z</time>
      </trkpt>
      <trkpt lat="45.91516" lon="6.50238">
        <ele>2026</ele>
        <time>2021-05-20T04:46:58Z</time>
      </trkpt>
      <trkpt lat="45.91516" lon="6.50238">
        <ele>2026</ele>
        <time>2021-05-20T04:46:59Z</time>
      </trkpt>
      <trkpt lat="45.91516" lon="6.50238">
        <ele>2026</ele>
        <time>2021-05-20T04:47:00Z</time>
      </trkpt>
      <trkpt lat="45.91513" lon="6.5024">
        <ele>2027</ele>
        <time>2021-05-20T04:47:01Z</time>
      </trkpt>
      <trkpt lat="45.91513" lon="6.5024">
        <ele>2027</ele>
        <time>2021-05-20T04:47:02Z</time>
      </trkpt>
      <trkpt lat="45.91513" lon="6.5024">
        <ele>2027</ele>
        <time>2021-05-20T04:47:03Z</time>
      </trkpt>
      <trkpt lat="45.91513" lon="6.5024">
        <ele>2027</ele>
        <time>2021-05-20T04:47:04Z</time>
      </trkpt>
      <trkpt lat="45.91513" lon="6.5024">
        <ele>2028</ele>
        <time>2021-05-20T04:47:05Z</time>
      </trkpt>
      <trkpt lat="45.91511" lon="6.50244">
        <ele>2028</ele>
        <time>2021-05-20T04:47:06Z</time>
      </trkpt>
      <trkpt lat="45.91511" lon="6.50244">
        <ele>2028</ele>
        <time>2021-05-20T04:47:07Z</time>
      </trkpt>
      <trkpt lat="45.9151" lon="6.50245">
        <ele>2028</ele>
        <time>2021-05-20T04:47:08Z</time>
      </trkpt>
      <trkpt lat="45.9151" lon="6.50246">
        <ele>2030</ele>
        <time>2021-05-20T04:47:09Z</time>
      </trkpt>
      <trkpt lat="45.9151" lon="6.50246">
        <ele>2030</ele>
        <time>2021-05-20T04:47:10Z</time>
      </trkpt>
      <trkpt lat="45.91509" lon="6.50247">
        <ele>2030</ele>
        <time>2021-05-20T04:47:11Z</time>
      </trkpt>
      <trkpt lat="45.91509" lon="6.50248">
        <ele>2030</ele>
        <time>2021-05-20T04:47:12Z</time>
      </trkpt>
      <trkpt lat="45.91508" lon="6.50248">
        <ele>2030</ele>
        <time>2021-05-20T04:47:13Z</time>
      </trkpt>
      <trkpt lat="45.91508" lon="6.50248">
        <ele>2031</ele>
        <time>2021-05-20T04:47:14Z</time>
      </trkpt>
      <trkpt lat="45.91508" lon="6.50248">
        <ele>2031</ele>
        <time>2021-05-20T04:47:15Z</time>
      </trkpt>
      <trkpt lat="45.91508" lon="6.50248">
        <ele>2032</ele>
        <time>2021-05-20T04:47:16Z</time>
      </trkpt>
      <trkpt lat="45.91506" lon="6.50252">
        <ele>2032</ele>
        <time>2021-05-20T04:47:17Z</time>
      </trkpt>
      <trkpt lat="45.91506" lon="6.50252">
        <ele>2033</ele>
        <time>2021-05-20T04:47:18Z</time>
      </trkpt>
      <trkpt lat="45.91506" lon="6.50252">
        <ele>2033</ele>
        <time>2021-05-20T04:47:19Z</time>
      </trkpt>
      <trkpt lat="45.91506" lon="6.50252">
        <ele>2033</ele>
        <time>2021-05-20T04:47:20Z</time>
      </trkpt>
      <trkpt lat="45.91506" lon="6.50252">
        <ele>2033</ele>
        <time>2021-05-20T04:47:21Z</time>
      </trkpt>
      <trkpt lat="45.91506" lon="6.50252">
        <ele>2033</ele>
        <time>2021-05-20T04:47:22Z</time>
      </trkpt>
      <trkpt lat="45.91506" lon="6.50252">
        <ele>2033</ele>
        <time>2021-05-20T04:47:23Z</time>
      </trkpt>
      <trkpt lat="45.91507" lon="6.50257">
        <ele>2034</ele>
        <time>2021-05-20T04:47:24Z</time>
      </trkpt>
      <trkpt lat="45.91507" lon="6.50257">
        <ele>2034</ele>
        <time>2021-05-20T04:47:25Z</time>
      </trkpt>
      <trkpt lat="45.91507" lon="6.50258">
        <ele>2034</ele>
        <time>2021-05-20T04:47:26Z</time>
      </trkpt>
      <trkpt lat="45.91507" lon="6.50259">
        <ele>2035</ele>
        <time>2021-05-20T04:47:27Z</time>
      </trkpt>
      <trkpt lat="45.91507" lon="6.5026">
        <ele>2035</ele>
        <time>2021-05-20T04:47:28Z</time>
      </trkpt>
      <trkpt lat="45.91508" lon="6.50261">
        <ele>2035</ele>
        <time>2021-05-20T04:47:29Z</time>
      </trkpt>
      <trkpt lat="45.91508" lon="6.50262">
        <ele>2035</ele>
        <time>2021-05-20T04:47:30Z</time>
      </trkpt>
      <trkpt lat="45.91508" lon="6.50263">
        <ele>2035</ele>
        <time>2021-05-20T04:47:31Z</time>
      </trkpt>
      <trkpt lat="45.91508" lon="6.50263">
        <ele>2035</ele>
        <time>2021-05-20T04:47:32Z</time>
      </trkpt>
      <trkpt lat="45.91508" lon="6.50263">
        <ele>2036</ele>
        <time>2021-05-20T04:47:33Z</time>
      </trkpt>
      <trkpt lat="45.91508" lon="6.50263">
        <ele>2036</ele>
        <time>2021-05-20T04:47:34Z</time>
      </trkpt>
      <trkpt lat="45.91509" lon="6.50268">
        <ele>2036</ele>
        <time>2021-05-20T04:47:35Z</time>
      </trkpt>
      <trkpt lat="45.91509" lon="6.50268">
        <ele>2037</ele>
        <time>2021-05-20T04:47:36Z</time>
      </trkpt>
      <trkpt lat="45.91509" lon="6.50268">
        <ele>2037</ele>
        <time>2021-05-20T04:47:37Z</time>
      </trkpt>
      <trkpt lat="45.91509" lon="6.50268">
        <ele>2037</ele>
        <time>2021-05-20T04:47:38Z</time>
      </trkpt>
      <trkpt lat="45.91509" lon="6.50268">
        <ele>2037</ele>
        <time>2021-05-20T04:47:39Z</time>
      </trkpt>
      <trkpt lat="45.91509" lon="6.50273">
        <ele>2037</ele>
        <time>2021-05-20T04:47:40Z</time>
      </trkpt>
      <trkpt lat="45.91509" lon="6.50273">
        <ele>2038</ele>
        <time>2021-05-20T04:47:41Z</time>
      </trkpt>
      <trkpt lat="45.91509" lon="6.50273">
        <ele>2038</ele>
        <time>2021-05-20T04:47:42Z</time>
      </trkpt>
      <trkpt lat="45.91509" lon="6.50273">
        <ele>2038</ele>
        <time>2021-05-20T04:47:43Z</time>
      </trkpt>
      <trkpt lat="45.91509" lon="6.50273">
        <ele>2039</ele>
        <time>2021-05-20T04:47:44Z</time>
      </trkpt>
      <trkpt lat="45.91507" lon="6.50275">
        <ele>2039</ele>
        <time>2021-05-20T04:47:45Z</time>
      </trkpt>
      <trkpt lat="45.91507" lon="6.50275">
        <ele>2039</ele>
        <time>2021-05-20T04:47:46Z</time>
      </trkpt>
      <trkpt lat="45.91507" lon="6.50275">
        <ele>2040</ele>
        <time>2021-05-20T04:47:47Z</time>
      </trkpt>
      <trkpt lat="45.91507" lon="6.50275">
        <ele>2040</ele>
        <time>2021-05-20T04:47:48Z</time>
      </trkpt>
      <trkpt lat="45.91507" lon="6.50275">
        <ele>2040</ele>
        <time>2021-05-20T04:47:49Z</time>
      </trkpt>
      <trkpt lat="45.91503" lon="6.50278">
        <ele>2040</ele>
        <time>2021-05-20T04:47:50Z</time>
      </trkpt>
      <trkpt lat="45.91503" lon="6.50278">
        <ele>2040</ele>
        <time>2021-05-20T04:47:51Z</time>
      </trkpt>
      <trkpt lat="45.91503" lon="6.50278">
        <ele>2041</ele>
        <time>2021-05-20T04:47:52Z</time>
      </trkpt>
      <trkpt lat="45.91502" lon="6.50279">
        <ele>2041</ele>
        <time>2021-05-20T04:47:53Z</time>
      </trkpt>
      <trkpt lat="45.91501" lon="6.50279">
        <ele>2041</ele>
        <time>2021-05-20T04:47:54Z</time>
      </trkpt>
      <trkpt lat="45.91501" lon="6.50279">
        <ele>2042</ele>
        <time>2021-05-20T04:47:55Z</time>
      </trkpt>
      <trkpt lat="45.915" lon="6.5028">
        <ele>2042</ele>
        <time>2021-05-20T04:47:56Z</time>
      </trkpt>
      <trkpt lat="45.915" lon="6.5028">
        <ele>2043</ele>
        <time>2021-05-20T04:47:57Z</time>
      </trkpt>
      <trkpt lat="45.915" lon="6.5028">
        <ele>2043</ele>
        <time>2021-05-20T04:47:58Z</time>
      </trkpt>
      <trkpt lat="45.915" lon="6.5028">
        <ele>2043</ele>
        <time>2021-05-20T04:47:59Z</time>
      </trkpt>
      <trkpt lat="45.91497" lon="6.50283">
        <ele>2043</ele>
        <time>2021-05-20T04:48:00Z</time>
      </trkpt>
      <trkpt lat="45.91497" lon="6.50283">
        <ele>2043</ele>
        <time>2021-05-20T04:48:01Z</time>
      </trkpt>
      <trkpt lat="45.91497" lon="6.50283">
        <ele>2044</ele>
        <time>2021-05-20T04:48:02Z</time>
      </trkpt>
      <trkpt lat="45.91497" lon="6.50283">
        <ele>2044</ele>
        <time>2021-05-20T04:48:03Z</time>
      </trkpt>
      <trkpt lat="45.91497" lon="6.50283">
        <ele>2044</ele>
        <time>2021-05-20T04:48:04Z</time>
      </trkpt>
      <trkpt lat="45.91494" lon="6.50285">
        <ele>2044</ele>
        <time>2021-05-20T04:48:05Z</time>
      </trkpt>
      <trkpt lat="45.91494" lon="6.50285">
        <ele>2045</ele>
        <time>2021-05-20T04:48:06Z</time>
      </trkpt>
      <trkpt lat="45.91494" lon="6.50285">
        <ele>2045</ele>
        <time>2021-05-20T04:48:07Z</time>
      </trkpt>
      <trkpt lat="45.91494" lon="6.50285">
        <ele>2046</ele>
        <time>2021-05-20T04:48:08Z</time>
      </trkpt>
      <trkpt lat="45.91494" lon="6.50285">
        <ele>2046</ele>
        <time>2021-05-20T04:48:09Z</time>
      </trkpt>
      <trkpt lat="45.91494" lon="6.50285">
        <ele>2046</ele>
        <time>2021-05-20T04:48:10Z</time>
      </trkpt>
      <trkpt lat="45.91491" lon="6.50287">
        <ele>2046</ele>
        <time>2021-05-20T04:48:11Z</time>
      </trkpt>
      <trkpt lat="45.91491" lon="6.50287">
        <ele>2046</ele>
        <time>2021-05-20T04:48:12Z</time>
      </trkpt>
      <trkpt lat="45.9149" lon="6.50287">
        <ele>2046</ele>
        <time>2021-05-20T04:48:13Z</time>
      </trkpt>
      <trkpt lat="45.91489" lon="6.50288">
        <ele>2047</ele>
        <time>2021-05-20T04:48:14Z</time>
      </trkpt>
      <trkpt lat="45.91489" lon="6.50288">
        <ele>2047</ele>
        <time>2021-05-20T04:48:15Z</time>
      </trkpt>
      <trkpt lat="45.91488" lon="6.50289">
        <ele>2047</ele>
        <time>2021-05-20T04:48:16Z</time>
      </trkpt>
      <trkpt lat="45.91488" lon="6.50289">
        <ele>2048</ele>
        <time>2021-05-20T04:48:17Z</time>
      </trkpt>
      <trkpt lat="45.91487" lon="6.5029">
        <ele>2048</ele>
        <time>2021-05-20T04:48:18Z</time>
      </trkpt>
      <trkpt lat="45.91487" lon="6.5029">
        <ele>2048</ele>
        <time>2021-05-20T04:48:19Z</time>
      </trkpt>
      <trkpt lat="45.91487" lon="6.5029">
        <ele>2049</ele>
        <time>2021-05-20T04:48:20Z</time>
      </trkpt>
      <trkpt lat="45.91487" lon="6.5029">
        <ele>2049</ele>
        <time>2021-05-20T04:48:21Z</time>
      </trkpt>
      <trkpt lat="45.91483" lon="6.50292">
        <ele>2050</ele>
        <time>2021-05-20T04:48:22Z</time>
      </trkpt>
      <trkpt lat="45.91482" lon="6.50292">
        <ele>2050</ele>
        <time>2021-05-20T04:48:23Z</time>
      </trkpt>
      <trkpt lat="45.91482" lon="6.50292">
        <ele>2050</ele>
        <time>2021-05-20T04:48:24Z</time>
      </trkpt>
      <trkpt lat="45.91481" lon="6.50293">
        <ele>2050</ele>
        <time>2021-05-20T04:48:25Z</time>
      </trkpt>
      <trkpt lat="45.9148" lon="6.50293">
        <ele>2050</ele>
        <time>2021-05-20T04:48:26Z</time>
      </trkpt>
      <trkpt lat="45.9148" lon="6.50293">
        <ele>2050</ele>
        <time>2021-05-20T04:48:27Z</time>
      </trkpt>
      <trkpt lat="45.91479" lon="6.50294">
        <ele>2051</ele>
        <time>2021-05-20T04:48:28Z</time>
      </trkpt>
      <trkpt lat="45.91478" lon="6.50294">
        <ele>2051</ele>
        <time>2021-05-20T04:48:29Z</time>
      </trkpt>
      <trkpt lat="45.91478" lon="6.50294">
        <ele>2051</ele>
        <time>2021-05-20T04:48:30Z</time>
      </trkpt>
      <trkpt lat="45.91477" lon="6.50295">
        <ele>2051</ele>
        <time>2021-05-20T04:48:31Z</time>
      </trkpt>
      <trkpt lat="45.91476" lon="6.50295">
        <ele>2052</ele>
        <time>2021-05-20T04:48:32Z</time>
      </trkpt>
      <trkpt lat="45.91476" lon="6.50296">
        <ele>2052</ele>
        <time>2021-05-20T04:48:33Z</time>
      </trkpt>
      <trkpt lat="45.91476" lon="6.50296">
        <ele>2052</ele>
        <time>2021-05-20T04:48:34Z</time>
      </trkpt>
      <trkpt lat="45.91476" lon="6.50296">
        <ele>2052</ele>
        <time>2021-05-20T04:48:35Z</time>
      </trkpt>
      <trkpt lat="45.91476" lon="6.50296">
        <ele>2052</ele>
        <time>2021-05-20T04:48:36Z</time>
      </trkpt>
      <trkpt lat="45.91473" lon="6.503">
        <ele>2052</ele>
        <time>2021-05-20T04:48:37Z</time>
      </trkpt>
      <trkpt lat="45.91473" lon="6.503">
        <ele>2053</ele>
        <time>2021-05-20T04:48:38Z</time>
      </trkpt>
      <trkpt lat="45.91472" lon="6.50302">
        <ele>2053</ele>
        <time>2021-05-20T04:48:39Z</time>
      </trkpt>
      <trkpt lat="45.91472" lon="6.50303">
        <ele>2053</ele>
        <time>2021-05-20T04:48:40Z</time>
      </trkpt>
      <trkpt lat="45.91471" lon="6.50304">
        <ele>2054</ele>
        <time>2021-05-20T04:48:41Z</time>
      </trkpt>
      <trkpt lat="45.91471" lon="6.50306">
        <ele>2054</ele>
        <time>2021-05-20T04:48:42Z</time>
      </trkpt>
      <trkpt lat="45.91471" lon="6.50306">
        <ele>2054</ele>
        <time>2021-05-20T04:48:43Z</time>
      </trkpt>
      <trkpt lat="45.91471" lon="6.50306">
        <ele>2054</ele>
        <time>2021-05-20T04:48:44Z</time>
      </trkpt>
      <trkpt lat="45.91468" lon="6.5031">
        <ele>2054</ele>
        <time>2021-05-20T04:48:45Z</time>
      </trkpt>
      <trkpt lat="45.91468" lon="6.5031">
        <ele>2054</ele>
        <time>2021-05-20T04:48:46Z</time>
      </trkpt>
      <trkpt lat="45.91468" lon="6.50311">
        <ele>2054</ele>
        <time>2021-05-20T04:48:47Z</time>
      </trkpt>
      <trkpt lat="45.91468" lon="6.50312">
        <ele>2054</ele>
        <time>2021-05-20T04:48:48Z</time>
      </trkpt>
      <trkpt lat="45.91467" lon="6.50313">
        <ele>2054</ele>
        <time>2021-05-20T04:48:49Z</time>
      </trkpt>
      <trkpt lat="45.91467" lon="6.50314">
        <ele>2054</ele>
        <time>2021-05-20T04:48:50Z</time>
      </trkpt>
      <trkpt lat="45.91466" lon="6.50315">
        <ele>2056</ele>
        <time>2021-05-20T04:48:51Z</time>
      </trkpt>
      <trkpt lat="45.91466" lon="6.50315">
        <ele>2056</ele>
        <time>2021-05-20T04:48:52Z</time>
      </trkpt>
      <trkpt lat="45.91466" lon="6.50315">
        <ele>2056</ele>
        <time>2021-05-20T04:48:53Z</time>
      </trkpt>
      <trkpt lat="45.91465" lon="6.5032">
        <ele>2057</ele>
        <time>2021-05-20T04:48:54Z</time>
      </trkpt>
      <trkpt lat="45.91465" lon="6.5032">
        <ele>2057</ele>
        <time>2021-05-20T04:48:55Z</time>
      </trkpt>
      <trkpt lat="45.91464" lon="6.50321">
        <ele>2057</ele>
        <time>2021-05-20T04:48:56Z</time>
      </trkpt>
      <trkpt lat="45.91464" lon="6.50322">
        <ele>2057</ele>
        <time>2021-05-20T04:48:57Z</time>
      </trkpt>
      <trkpt lat="45.91464" lon="6.50323">
        <ele>2057</ele>
        <time>2021-05-20T04:48:58Z</time>
      </trkpt>
      <trkpt lat="45.91463" lon="6.50324">
        <ele>2058</ele>
        <time>2021-05-20T04:48:59Z</time>
      </trkpt>
      <trkpt lat="45.91463" lon="6.50325">
        <ele>2058</ele>
        <time>2021-05-20T04:49:00Z</time>
      </trkpt>
      <trkpt lat="45.91463" lon="6.50325">
        <ele>2058</ele>
        <time>2021-05-20T04:49:01Z</time>
      </trkpt>
      <trkpt lat="45.91463" lon="6.50325">
        <ele>2059</ele>
        <time>2021-05-20T04:49:02Z</time>
      </trkpt>
      <trkpt lat="45.91463" lon="6.50325">
        <ele>2059</ele>
        <time>2021-05-20T04:49:03Z</time>
      </trkpt>
      <trkpt lat="45.91461" lon="6.5033">
        <ele>2059</ele>
        <time>2021-05-20T04:49:04Z</time>
      </trkpt>
      <trkpt lat="45.91461" lon="6.5033">
        <ele>2060</ele>
        <time>2021-05-20T04:49:05Z</time>
      </trkpt>
      <trkpt lat="45.91461" lon="6.50331">
        <ele>2061</ele>
        <time>2021-05-20T04:49:06Z</time>
      </trkpt>
      <trkpt lat="45.9146" lon="6.50332">
        <ele>2061</ele>
        <time>2021-05-20T04:49:07Z</time>
      </trkpt>
      <trkpt lat="45.9146" lon="6.50333">
        <ele>2061</ele>
        <time>2021-05-20T04:49:08Z</time>
      </trkpt>
      <trkpt lat="45.91459" lon="6.50334">
        <ele>2061</ele>
        <time>2021-05-20T04:49:09Z</time>
      </trkpt>
      <trkpt lat="45.91459" lon="6.50334">
        <ele>2061</ele>
        <time>2021-05-20T04:49:10Z</time>
      </trkpt>
      <trkpt lat="45.91459" lon="6.50334">
        <ele>2061</ele>
        <time>2021-05-20T04:49:11Z</time>
      </trkpt>
      <trkpt lat="45.91459" lon="6.50334">
        <ele>2061</ele>
        <time>2021-05-20T04:49:12Z</time>
      </trkpt>
      <trkpt lat="45.91458" lon="6.50339">
        <ele>2062</ele>
        <time>2021-05-20T04:49:13Z</time>
      </trkpt>
      <trkpt lat="45.91458" lon="6.50339">
        <ele>2062</ele>
        <time>2021-05-20T04:49:14Z</time>
      </trkpt>
      <trkpt lat="45.91458" lon="6.50339">
        <ele>2062</ele>
        <time>2021-05-20T04:49:15Z</time>
      </trkpt>
      <trkpt lat="45.91458" lon="6.50339">
        <ele>2063</ele>
        <time>2021-05-20T04:49:16Z</time>
      </trkpt>
      <trkpt lat="45.91458" lon="6.50339">
        <ele>2063</ele>
        <time>2021-05-20T04:49:17Z</time>
      </trkpt>
      <trkpt lat="45.91457" lon="6.50345">
        <ele>2063</ele>
        <time>2021-05-20T04:49:18Z</time>
      </trkpt>
      <trkpt lat="45.91457" lon="6.50345">
        <ele>2064</ele>
        <time>2021-05-20T04:49:19Z</time>
      </trkpt>
      <trkpt lat="45.91457" lon="6.50345">
        <ele>2064</ele>
        <time>2021-05-20T04:49:20Z</time>
      </trkpt>
      <trkpt lat="45.91457" lon="6.50345">
        <ele>2064</ele>
        <time>2021-05-20T04:49:21Z</time>
      </trkpt>
      <trkpt lat="45.91457" lon="6.50345">
        <ele>2064</ele>
        <time>2021-05-20T04:49:22Z</time>
      </trkpt>
      <trkpt lat="45.91457" lon="6.5035">
        <ele>2064</ele>
        <time>2021-05-20T04:49:23Z</time>
      </trkpt>
      <trkpt lat="45.91457" lon="6.5035">
        <ele>2065</ele>
        <time>2021-05-20T04:49:24Z</time>
      </trkpt>
      <trkpt lat="45.91457" lon="6.50351">
        <ele>2065</ele>
        <time>2021-05-20T04:49:25Z</time>
      </trkpt>
      <trkpt lat="45.91457" lon="6.50352">
        <ele>2065</ele>
        <time>2021-05-20T04:49:26Z</time>
      </trkpt>
      <trkpt lat="45.91457" lon="6.50353">
        <ele>2066</ele>
        <time>2021-05-20T04:49:27Z</time>
      </trkpt>
      <trkpt lat="45.91457" lon="6.50354">
        <ele>2066</ele>
        <time>2021-05-20T04:49:28Z</time>
      </trkpt>
      <trkpt lat="45.91456" lon="6.50355">
        <ele>2066</ele>
        <time>2021-05-20T04:49:29Z</time>
      </trkpt>
      <trkpt lat="45.91456" lon="6.50355">
        <ele>2067</ele>
        <time>2021-05-20T04:49:30Z</time>
      </trkpt>
      <trkpt lat="45.91455" lon="6.50355">
        <ele>2067</ele>
        <time>2021-05-20T04:49:31Z</time>
      </trkpt>
      <trkpt lat="45.91455" lon="6.50355">
        <ele>2067</ele>
        <time>2021-05-20T04:49:32Z</time>
      </trkpt>
      <trkpt lat="45.91454" lon="6.50356">
        <ele>2067</ele>
        <time>2021-05-20T04:49:33Z</time>
      </trkpt>
      <trkpt lat="45.91454" lon="6.50356">
        <ele>2067</ele>
        <time>2021-05-20T04:49:34Z</time>
      </trkpt>
      <trkpt lat="45.91453" lon="6.50356">
        <ele>2068</ele>
        <time>2021-05-20T04:49:35Z</time>
      </trkpt>
      <trkpt lat="45.91452" lon="6.50356">
        <ele>2068</ele>
        <time>2021-05-20T04:49:36Z</time>
      </trkpt>
      <trkpt lat="45.91452" lon="6.50356">
        <ele>2068</ele>
        <time>2021-05-20T04:49:37Z</time>
      </trkpt>
      <trkpt lat="45.91452" lon="6.50356">
        <ele>2069</ele>
        <time>2021-05-20T04:49:38Z</time>
      </trkpt>
      <trkpt lat="45.91452" lon="6.50356">
        <ele>2069</ele>
        <time>2021-05-20T04:49:39Z</time>
      </trkpt>
      <trkpt lat="45.91452" lon="6.50356">
        <ele>2069</ele>
        <time>2021-05-20T04:49:40Z</time>
      </trkpt>
      <trkpt lat="45.91449" lon="6.50355">
        <ele>2069</ele>
        <time>2021-05-20T04:49:41Z</time>
      </trkpt>
      <trkpt lat="45.91449" lon="6.50355">
        <ele>2069</ele>
        <time>2021-05-20T04:49:42Z</time>
      </trkpt>
      <trkpt lat="45.91448" lon="6.50354">
        <ele>2070</ele>
        <time>2021-05-20T04:49:43Z</time>
      </trkpt>
      <trkpt lat="45.91447" lon="6.50354">
        <ele>2070</ele>
        <time>2021-05-20T04:49:44Z</time>
      </trkpt>
      <trkpt lat="45.91447" lon="6.50354">
        <ele>2070</ele>
        <time>2021-05-20T04:49:45Z</time>
      </trkpt>
      <trkpt lat="45.91446" lon="6.50353">
        <ele>2071</ele>
        <time>2021-05-20T04:49:46Z</time>
      </trkpt>
      <trkpt lat="45.91445" lon="6.50353">
        <ele>2071</ele>
        <time>2021-05-20T04:49:47Z</time>
      </trkpt>
      <trkpt lat="45.91445" lon="6.50353">
        <ele>2071</ele>
        <time>2021-05-20T04:49:48Z</time>
      </trkpt>
      <trkpt lat="45.91445" lon="6.50353">
        <ele>2071</ele>
        <time>2021-05-20T04:49:49Z</time>
      </trkpt>
      <trkpt lat="45.91445" lon="6.50353">
        <ele>2071</ele>
        <time>2021-05-20T04:49:50Z</time>
      </trkpt>
      <trkpt lat="45.91442" lon="6.5035">
        <ele>2071</ele>
        <time>2021-05-20T04:49:51Z</time>
      </trkpt>
      <trkpt lat="45.91442" lon="6.5035">
        <ele>2071</ele>
        <time>2021-05-20T04:49:52Z</time>
      </trkpt>
      <trkpt lat="45.91442" lon="6.5035">
        <ele>2072</ele>
        <time>2021-05-20T04:49:53Z</time>
      </trkpt>
      <trkpt lat="45.91442" lon="6.5035">
        <ele>2073</ele>
        <time>2021-05-20T04:49:54Z</time>
      </trkpt>
      <trkpt lat="45.91442" lon="6.5035">
        <ele>2073</ele>
        <time>2021-05-20T04:49:55Z</time>
      </trkpt>
      <trkpt lat="45.91442" lon="6.5035">
        <ele>2073</ele>
        <time>2021-05-20T04:49:56Z</time>
      </trkpt>
      <trkpt lat="45.9144" lon="6.50348">
        <ele>2074</ele>
        <time>2021-05-20T04:49:57Z</time>
      </trkpt>
      <trkpt lat="45.9144" lon="6.50348">
        <ele>2074</ele>
        <time>2021-05-20T04:49:58Z</time>
      </trkpt>
      <trkpt lat="45.9144" lon="6.50349">
        <ele>2073</ele>
        <time>2021-05-20T04:49:59Z</time>
      </trkpt>
      <trkpt lat="45.9144" lon="6.5035">
        <ele>2073</ele>
        <time>2021-05-20T04:50:00Z</time>
      </trkpt>
      <trkpt lat="45.9144" lon="6.50351">
        <ele>2073</ele>
        <time>2021-05-20T04:50:01Z</time>
      </trkpt>
      <trkpt lat="45.91439" lon="6.50352">
        <ele>2074</ele>
        <time>2021-05-20T04:50:02Z</time>
      </trkpt>
      <trkpt lat="45.91439" lon="6.50353">
        <ele>2074</ele>
        <time>2021-05-20T04:50:03Z</time>
      </trkpt>
      <trkpt lat="45.91439" lon="6.50354">
        <ele>2075</ele>
        <time>2021-05-20T04:50:04Z</time>
      </trkpt>
      <trkpt lat="45.91439" lon="6.50354">
        <ele>2075</ele>
        <time>2021-05-20T04:50:05Z</time>
      </trkpt>
      <trkpt lat="45.91439" lon="6.50354">
        <ele>2075</ele>
        <time>2021-05-20T04:50:06Z</time>
      </trkpt>
      <trkpt lat="45.91439" lon="6.50354">
        <ele>2075</ele>
        <time>2021-05-20T04:50:07Z</time>
      </trkpt>
      <trkpt lat="45.91439" lon="6.5036">
        <ele>2076</ele>
        <time>2021-05-20T04:50:08Z</time>
      </trkpt>
      <trkpt lat="45.91439" lon="6.5036">
        <ele>2076</ele>
        <time>2021-05-20T04:50:09Z</time>
      </trkpt>
      <trkpt lat="45.91439" lon="6.50361">
        <ele>2076</ele>
        <time>2021-05-20T04:50:10Z</time>
      </trkpt>
      <trkpt lat="45.91439" lon="6.50362">
        <ele>2076</ele>
        <time>2021-05-20T04:50:11Z</time>
      </trkpt>
      <trkpt lat="45.91438" lon="6.50363">
        <ele>2077</ele>
        <time>2021-05-20T04:50:12Z</time>
      </trkpt>
      <trkpt lat="45.91438" lon="6.50364">
        <ele>2077</ele>
        <time>2021-05-20T04:50:13Z</time>
      </trkpt>
      <trkpt lat="45.91438" lon="6.50365">
        <ele>2077</ele>
        <time>2021-05-20T04:50:14Z</time>
      </trkpt>
      <trkpt lat="45.91438" lon="6.50365">
        <ele>2077</ele>
        <time>2021-05-20T04:50:15Z</time>
      </trkpt>
      <trkpt lat="45.91438" lon="6.50365">
        <ele>2077</ele>
        <time>2021-05-20T04:50:16Z</time>
      </trkpt>
      <trkpt lat="45.91438" lon="6.50365">
        <ele>2078</ele>
        <time>2021-05-20T04:50:17Z</time>
      </trkpt>
      <trkpt lat="45.91438" lon="6.5037">
        <ele>2079</ele>
        <time>2021-05-20T04:50:18Z</time>
      </trkpt>
      <trkpt lat="45.91438" lon="6.5037">
        <ele>2079</ele>
        <time>2021-05-20T04:50:19Z</time>
      </trkpt>
      <trkpt lat="45.91438" lon="6.5037">
        <ele>2079</ele>
        <time>2021-05-20T04:50:20Z</time>
      </trkpt>
      <trkpt lat="45.91438" lon="6.5037">
        <ele>2079</ele>
        <time>2021-05-20T04:50:21Z</time>
      </trkpt>
      <trkpt lat="45.91438" lon="6.5037">
        <ele>2079</ele>
        <time>2021-05-20T04:50:22Z</time>
      </trkpt>
      <trkpt lat="45.91438" lon="6.50375">
        <ele>2080</ele>
        <time>2021-05-20T04:50:23Z</time>
      </trkpt>
      <trkpt lat="45.91438" lon="6.50375">
        <ele>2080</ele>
        <time>2021-05-20T04:50:24Z</time>
      </trkpt>
      <trkpt lat="45.91438" lon="6.50375">
        <ele>2080</ele>
        <time>2021-05-20T04:50:25Z</time>
      </trkpt>
      <trkpt lat="45.91437" lon="6.50375">
        <ele>2080</ele>
        <time>2021-05-20T04:50:26Z</time>
      </trkpt>
      <trkpt lat="45.91437" lon="6.50375">
        <ele>2082</ele>
        <time>2021-05-20T04:50:27Z</time>
      </trkpt>
      <trkpt lat="45.91436" lon="6.50375">
        <ele>2082</ele>
        <time>2021-05-20T04:50:28Z</time>
      </trkpt>
      <trkpt lat="45.91436" lon="6.50375">
        <ele>2082</ele>
        <time>2021-05-20T04:50:29Z</time>
      </trkpt>
      <trkpt lat="45.91435" lon="6.50375">
        <ele>2083</ele>
        <time>2021-05-20T04:50:30Z</time>
      </trkpt>
      <trkpt lat="45.91435" lon="6.50376">
        <ele>2083</ele>
        <time>2021-05-20T04:50:31Z</time>
      </trkpt>
      <trkpt lat="45.91435" lon="6.50376">
        <ele>2083</ele>
        <time>2021-05-20T04:50:32Z</time>
      </trkpt>
      <trkpt lat="45.91435" lon="6.50376">
        <ele>2083</ele>
        <time>2021-05-20T04:50:33Z</time>
      </trkpt>
      <trkpt lat="45.91432" lon="6.50374">
        <ele>2084</ele>
        <time>2021-05-20T04:50:34Z</time>
      </trkpt>
      <trkpt lat="45.91432" lon="6.50374">
        <ele>2084</ele>
        <time>2021-05-20T04:50:35Z</time>
      </trkpt>
      <trkpt lat="45.91431" lon="6.50373">
        <ele>2084</ele>
        <time>2021-05-20T04:50:36Z</time>
      </trkpt>
      <trkpt lat="45.9143" lon="6.50373">
        <ele>2084</ele>
        <time>2021-05-20T04:50:37Z</time>
      </trkpt>
      <trkpt lat="45.91429" lon="6.50372">
        <ele>2084</ele>
        <time>2021-05-20T04:50:38Z</time>
      </trkpt>
      <trkpt lat="45.91429" lon="6.50372">
        <ele>2085</ele>
        <time>2021-05-20T04:50:39Z</time>
      </trkpt>
      <trkpt lat="45.91428" lon="6.50371">
        <ele>2085</ele>
        <time>2021-05-20T04:50:40Z</time>
      </trkpt>
      <trkpt lat="45.91428" lon="6.50371">
        <ele>2085</ele>
        <time>2021-05-20T04:50:41Z</time>
      </trkpt>
      <trkpt lat="45.91428" lon="6.50371">
        <ele>2085</ele>
        <time>2021-05-20T04:50:42Z</time>
      </trkpt>
      <trkpt lat="45.91428" lon="6.50371">
        <ele>2085</ele>
        <time>2021-05-20T04:50:43Z</time>
      </trkpt>
      <trkpt lat="45.91424" lon="6.50368">
        <ele>2085</ele>
        <time>2021-05-20T04:50:44Z</time>
      </trkpt>
      <trkpt lat="45.91424" lon="6.50368">
        <ele>2086</ele>
        <time>2021-05-20T04:50:45Z</time>
      </trkpt>
      <trkpt lat="45.91424" lon="6.50367">
        <ele>2087</ele>
        <time>2021-05-20T04:50:46Z</time>
      </trkpt>
      <trkpt lat="45.91423" lon="6.50367">
        <ele>2087</ele>
        <time>2021-05-20T04:50:47Z</time>
      </trkpt>
      <trkpt lat="45.91422" lon="6.50366">
        <ele>2087</ele>
        <time>2021-05-20T04:50:48Z</time>
      </trkpt>
      <trkpt lat="45.91422" lon="6.50365">
        <ele>2087</ele>
        <time>2021-05-20T04:50:49Z</time>
      </trkpt>
      <trkpt lat="45.91422" lon="6.50365">
        <ele>2087</ele>
        <time>2021-05-20T04:50:50Z</time>
      </trkpt>
      <trkpt lat="45.91422" lon="6.50365">
        <ele>2088</ele>
        <time>2021-05-20T04:50:51Z</time>
      </trkpt>
      <trkpt lat="45.91422" lon="6.50365">
        <ele>2088</ele>
        <time>2021-05-20T04:50:52Z</time>
      </trkpt>
      <trkpt lat="45.91418" lon="6.50361">
        <ele>2088</ele>
        <time>2021-05-20T04:50:53Z</time>
      </trkpt>
      <trkpt lat="45.91418" lon="6.50361">
        <ele>2089</ele>
        <time>2021-05-20T04:50:54Z</time>
      </trkpt>
      <trkpt lat="45.91418" lon="6.50361">
        <ele>2089</ele>
        <time>2021-05-20T04:50:55Z</time>
      </trkpt>
      <trkpt lat="45.91418" lon="6.50361">
        <ele>2089</ele>
        <time>2021-05-20T04:50:56Z</time>
      </trkpt>
      <trkpt lat="45.91418" lon="6.50361">
        <ele>2089</ele>
        <time>2021-05-20T04:50:57Z</time>
      </trkpt>
      <trkpt lat="45.91415" lon="6.50359">
        <ele>2089</ele>
        <time>2021-05-20T04:50:58Z</time>
      </trkpt>
      <trkpt lat="45.91415" lon="6.50359">
        <ele>2089</ele>
        <time>2021-05-20T04:50:59Z</time>
      </trkpt>
      <trkpt lat="45.91415" lon="6.50359">
        <ele>2090</ele>
        <time>2021-05-20T04:51:00Z</time>
      </trkpt>
      <trkpt lat="45.91415" lon="6.50359">
        <ele>2091</ele>
        <time>2021-05-20T04:51:01Z</time>
      </trkpt>
      <trkpt lat="45.91413" lon="6.50357">
        <ele>2091</ele>
        <time>2021-05-20T04:51:02Z</time>
      </trkpt>
      <trkpt lat="45.91413" lon="6.50357">
        <ele>2091</ele>
        <time>2021-05-20T04:51:03Z</time>
      </trkpt>
      <trkpt lat="45.91413" lon="6.50357">
        <ele>2091</ele>
        <time>2021-05-20T04:51:04Z</time>
      </trkpt>
      <trkpt lat="45.91413" lon="6.50357">
        <ele>2091</ele>
        <time>2021-05-20T04:51:05Z</time>
      </trkpt>
      <trkpt lat="45.91413" lon="6.50357">
        <ele>2092</ele>
        <time>2021-05-20T04:51:06Z</time>
      </trkpt>
      <trkpt lat="45.91409" lon="6.50354">
        <ele>2092</ele>
        <time>2021-05-20T04:51:07Z</time>
      </trkpt>
      <trkpt lat="45.91409" lon="6.50354">
        <ele>2092</ele>
        <time>2021-05-20T04:51:08Z</time>
      </trkpt>
      <trkpt lat="45.91409" lon="6.50354">
        <ele>2092</ele>
        <time>2021-05-20T04:51:09Z</time>
      </trkpt>
      <trkpt lat="45.91408" lon="6.50353">
        <ele>2092</ele>
        <time>2021-05-20T04:51:10Z</time>
      </trkpt>
      <trkpt lat="45.91408" lon="6.50352">
        <ele>2093</ele>
        <time>2021-05-20T04:51:11Z</time>
      </trkpt>
      <trkpt lat="45.91407" lon="6.50352">
        <ele>2093</ele>
        <time>2021-05-20T04:51:12Z</time>
      </trkpt>
      <trkpt lat="45.91406" lon="6.50351">
        <ele>2093</ele>
        <time>2021-05-20T04:51:13Z</time>
      </trkpt>
      <trkpt lat="45.91406" lon="6.50351">
        <ele>2094</ele>
        <time>2021-05-20T04:51:14Z</time>
      </trkpt>
      <trkpt lat="45.91406" lon="6.50351">
        <ele>2094</ele>
        <time>2021-05-20T04:51:15Z</time>
      </trkpt>
      <trkpt lat="45.91406" lon="6.50351">
        <ele>2094</ele>
        <time>2021-05-20T04:51:16Z</time>
      </trkpt>
      <trkpt lat="45.91404" lon="6.50348">
        <ele>2094</ele>
        <time>2021-05-20T04:51:17Z</time>
      </trkpt>
      <trkpt lat="45.91404" lon="6.50348">
        <ele>2094</ele>
        <time>2021-05-20T04:51:18Z</time>
      </trkpt>
      <trkpt lat="45.91404" lon="6.50348">
        <ele>2095</ele>
        <time>2021-05-20T04:51:19Z</time>
      </trkpt>
      <trkpt lat="45.91404" lon="6.50348">
        <ele>2095</ele>
        <time>2021-05-20T04:51:20Z</time>
      </trkpt>
      <trkpt lat="45.91404" lon="6.50348">
        <ele>2096</ele>
        <time>2021-05-20T04:51:21Z</time>
      </trkpt>
      <trkpt lat="45.91401" lon="6.50345">
        <ele>2096</ele>
        <time>2021-05-20T04:51:22Z</time>
      </trkpt>
      <trkpt lat="45.91401" lon="6.50345">
        <ele>2096</ele>
        <time>2021-05-20T04:51:23Z</time>
      </trkpt>
      <trkpt lat="45.91401" lon="6.50345">
        <ele>2096</ele>
        <time>2021-05-20T04:51:24Z</time>
      </trkpt>
      <trkpt lat="45.91401" lon="6.50345">
        <ele>2097</ele>
        <time>2021-05-20T04:51:25Z</time>
      </trkpt>
      <trkpt lat="45.91401" lon="6.50345">
        <ele>2097</ele>
        <time>2021-05-20T04:51:26Z</time>
      </trkpt>
      <trkpt lat="45.91398" lon="6.50342">
        <ele>2097</ele>
        <time>2021-05-20T04:51:27Z</time>
      </trkpt>
      <trkpt lat="45.91398" lon="6.50342">
        <ele>2097</ele>
        <time>2021-05-20T04:51:28Z</time>
      </trkpt>
      <trkpt lat="45.91397" lon="6.50341">
        <ele>2097</ele>
        <time>2021-05-20T04:51:29Z</time>
      </trkpt>
      <trkpt lat="45.91397" lon="6.5034">
        <ele>2098</ele>
        <time>2021-05-20T04:51:30Z</time>
      </trkpt>
      <trkpt lat="45.91397" lon="6.50339">
        <ele>2098</ele>
        <time>2021-05-20T04:51:31Z</time>
      </trkpt>
      <trkpt lat="45.91396" lon="6.50338">
        <ele>2098</ele>
        <time>2021-05-20T04:51:32Z</time>
      </trkpt>
      <trkpt lat="45.91396" lon="6.50337">
        <ele>2098</ele>
        <time>2021-05-20T04:51:33Z</time>
      </trkpt>
      <trkpt lat="45.91395" lon="6.50337">
        <ele>2099</ele>
        <time>2021-05-20T04:51:34Z</time>
      </trkpt>
      <trkpt lat="45.91394" lon="6.50337">
        <ele>2099</ele>
        <time>2021-05-20T04:51:35Z</time>
      </trkpt>
      <trkpt lat="45.91394" lon="6.50336">
        <ele>2099</ele>
        <time>2021-05-20T04:51:36Z</time>
      </trkpt>
      <trkpt lat="45.91393" lon="6.50336">
        <ele>2099</ele>
        <time>2021-05-20T04:51:37Z</time>
      </trkpt>
      <trkpt lat="45.91393" lon="6.50335">
        <ele>2100</ele>
        <time>2021-05-20T04:51:38Z</time>
      </trkpt>
      <trkpt lat="45.91392" lon="6.50335">
        <ele>2100</ele>
        <time>2021-05-20T04:51:39Z</time>
      </trkpt>
      <trkpt lat="45.91392" lon="6.50335">
        <ele>2100</ele>
        <time>2021-05-20T04:51:40Z</time>
      </trkpt>
      <trkpt lat="45.91392" lon="6.50335">
        <ele>2100</ele>
        <time>2021-05-20T04:51:41Z</time>
      </trkpt>
      <trkpt lat="45.91392" lon="6.50335">
        <ele>2101</ele>
        <time>2021-05-20T04:51:42Z</time>
      </trkpt>
      <trkpt lat="45.91389" lon="6.50333">
        <ele>2102</ele>
        <time>2021-05-20T04:51:43Z</time>
      </trkpt>
      <trkpt lat="45.91389" lon="6.50333">
        <ele>2102</ele>
        <time>2021-05-20T04:51:44Z</time>
      </trkpt>
      <trkpt lat="45.91389" lon="6.50333">
        <ele>2102</ele>
        <time>2021-05-20T04:51:45Z</time>
      </trkpt>
      <trkpt lat="45.91389" lon="6.50333">
        <ele>2102</ele>
        <time>2021-05-20T04:51:46Z</time>
      </trkpt>
      <trkpt lat="45.91389" lon="6.50333">
        <ele>2103</ele>
        <time>2021-05-20T04:51:47Z</time>
      </trkpt>
      <trkpt lat="45.91389" lon="6.50333">
        <ele>2103</ele>
        <time>2021-05-20T04:51:48Z</time>
      </trkpt>
      <trkpt lat="45.91385" lon="6.50335">
        <ele>2103</ele>
        <time>2021-05-20T04:51:49Z</time>
      </trkpt>
      <trkpt lat="45.91385" lon="6.50335">
        <ele>2103</ele>
        <time>2021-05-20T04:51:50Z</time>
      </trkpt>
      <trkpt lat="45.91385" lon="6.50335">
        <ele>2103</ele>
        <time>2021-05-20T04:51:51Z</time>
      </trkpt>
      <trkpt lat="45.91384" lon="6.50335">
        <ele>2104</ele>
        <time>2021-05-20T04:51:52Z</time>
      </trkpt>
      <trkpt lat="45.91383" lon="6.50335">
        <ele>2104</ele>
        <time>2021-05-20T04:51:53Z</time>
      </trkpt>
      <trkpt lat="45.91382" lon="6.50336">
        <ele>2104</ele>
        <time>2021-05-20T04:51:54Z</time>
      </trkpt>
      <trkpt lat="45.91382" lon="6.50336">
        <ele>2104</ele>
        <time>2021-05-20T04:51:55Z</time>
      </trkpt>
      <trkpt lat="45.91382" lon="6.50336">
        <ele>2104</ele>
        <time>2021-05-20T04:51:56Z</time>
      </trkpt>
      <trkpt lat="45.91382" lon="6.50336">
        <ele>2105</ele>
        <time>2021-05-20T04:51:57Z</time>
      </trkpt>
      <trkpt lat="45.91382" lon="6.50336">
        <ele>2105</ele>
        <time>2021-05-20T04:51:58Z</time>
      </trkpt>
      <trkpt lat="45.91378" lon="6.50335">
        <ele>2105</ele>
        <time>2021-05-20T04:51:59Z</time>
      </trkpt>
      <trkpt lat="45.91378" lon="6.50335">
        <ele>2105</ele>
        <time>2021-05-20T04:52:00Z</time>
      </trkpt>
      <trkpt lat="45.91378" lon="6.50335">
        <ele>2106</ele>
        <time>2021-05-20T04:52:01Z</time>
      </trkpt>
      <trkpt lat="45.91378" lon="6.50335">
        <ele>2108</ele>
        <time>2021-05-20T04:52:02Z</time>
      </trkpt>
      <trkpt lat="45.91378" lon="6.50335">
        <ele>2108</ele>
        <time>2021-05-20T04:52:03Z</time>
      </trkpt>
      <trkpt lat="45.91374" lon="6.50334">
        <ele>2108</ele>
        <time>2021-05-20T04:52:04Z</time>
      </trkpt>
      <trkpt lat="45.91374" lon="6.50334">
        <ele>2108</ele>
        <time>2021-05-20T04:52:05Z</time>
      </trkpt>
      <trkpt lat="45.91373" lon="6.50334">
        <ele>2108</ele>
        <time>2021-05-20T04:52:06Z</time>
      </trkpt>
      <trkpt lat="45.91373" lon="6.50333">
        <ele>2108</ele>
        <time>2021-05-20T04:52:07Z</time>
      </trkpt>
      <trkpt lat="45.91372" lon="6.50333">
        <ele>2108</ele>
        <time>2021-05-20T04:52:08Z</time>
      </trkpt>
      <trkpt lat="45.91371" lon="6.50332">
        <ele>2108</ele>
        <time>2021-05-20T04:52:09Z</time>
      </trkpt>
      <trkpt lat="45.91371" lon="6.50332">
        <ele>2109</ele>
        <time>2021-05-20T04:52:10Z</time>
      </trkpt>
      <trkpt lat="45.91371" lon="6.50332">
        <ele>2110</ele>
        <time>2021-05-20T04:52:11Z</time>
      </trkpt>
      <trkpt lat="45.91371" lon="6.50332">
        <ele>2110</ele>
        <time>2021-05-20T04:52:12Z</time>
      </trkpt>
      <trkpt lat="45.91371" lon="6.50332">
        <ele>2110</ele>
        <time>2021-05-20T04:52:13Z</time>
      </trkpt>
      <trkpt lat="45.91368" lon="6.50329">
        <ele>2110</ele>
        <time>2021-05-20T04:52:14Z</time>
      </trkpt>
      <trkpt lat="45.91368" lon="6.50329">
        <ele>2110</ele>
        <time>2021-05-20T04:52:15Z</time>
      </trkpt>
      <trkpt lat="45.91367" lon="6.50329">
        <ele>2111</ele>
        <time>2021-05-20T04:52:16Z</time>
      </trkpt>
      <trkpt lat="45.91367" lon="6.50328">
        <ele>2111</ele>
        <time>2021-05-20T04:52:17Z</time>
      </trkpt>
      <trkpt lat="45.91366" lon="6.50327">
        <ele>2111</ele>
        <time>2021-05-20T04:52:18Z</time>
      </trkpt>
      <trkpt lat="45.91365" lon="6.50327">
        <ele>2111</ele>
        <time>2021-05-20T04:52:19Z</time>
      </trkpt>
      <trkpt lat="45.91365" lon="6.50326">
        <ele>2111</ele>
        <time>2021-05-20T04:52:20Z</time>
      </trkpt>
      <trkpt lat="45.91364" lon="6.50326">
        <ele>2111</ele>
        <time>2021-05-20T04:52:21Z</time>
      </trkpt>
      <trkpt lat="45.91364" lon="6.50325">
        <ele>2112</ele>
        <time>2021-05-20T04:52:22Z</time>
      </trkpt>
      <trkpt lat="45.91363" lon="6.50324">
        <ele>2113</ele>
        <time>2021-05-20T04:52:23Z</time>
      </trkpt>
      <trkpt lat="45.91362" lon="6.50324">
        <ele>2113</ele>
        <time>2021-05-20T04:52:24Z</time>
      </trkpt>
      <trkpt lat="45.91362" lon="6.50323">
        <ele>2113</ele>
        <time>2021-05-20T04:52:25Z</time>
      </trkpt>
      <trkpt lat="45.91361" lon="6.50323">
        <ele>2113</ele>
        <time>2021-05-20T04:52:26Z</time>
      </trkpt>
      <trkpt lat="45.91361" lon="6.50323">
        <ele>2113</ele>
        <time>2021-05-20T04:52:27Z</time>
      </trkpt>
      <trkpt lat="45.91361" lon="6.50323">
        <ele>2113</ele>
        <time>2021-05-20T04:52:28Z</time>
      </trkpt>
      <trkpt lat="45.91361" lon="6.50323">
        <ele>2113</ele>
        <time>2021-05-20T04:52:29Z</time>
      </trkpt>
      <trkpt lat="45.91358" lon="6.50321">
        <ele>2114</ele>
        <time>2021-05-20T04:52:30Z</time>
      </trkpt>
      <trkpt lat="45.91358" lon="6.50321">
        <ele>2115</ele>
        <time>2021-05-20T04:52:31Z</time>
      </trkpt>
      <trkpt lat="45.91358" lon="6.50321">
        <ele>2115</ele>
        <time>2021-05-20T04:52:32Z</time>
      </trkpt>
      <trkpt lat="45.91358" lon="6.50321">
        <ele>2115</ele>
        <time>2021-05-20T04:52:33Z</time>
      </trkpt>
      <trkpt lat="45.91358" lon="6.50321">
        <ele>2116</ele>
        <time>2021-05-20T04:52:34Z</time>
      </trkpt>
      <trkpt lat="45.91358" lon="6.50321">
        <ele>2116</ele>
        <time>2021-05-20T04:52:35Z</time>
      </trkpt>
      <trkpt lat="45.91355" lon="6.50319">
        <ele>2116</ele>
        <time>2021-05-20T04:52:36Z</time>
      </trkpt>
      <trkpt lat="45.91355" lon="6.50319">
        <ele>2116</ele>
        <time>2021-05-20T04:52:37Z</time>
      </trkpt>
      <trkpt lat="45.91354" lon="6.50319">
        <ele>2116</ele>
        <time>2021-05-20T04:52:38Z</time>
      </trkpt>
      <trkpt lat="45.91353" lon="6.50319">
        <ele>2117</ele>
        <time>2021-05-20T04:52:39Z</time>
      </trkpt>
      <trkpt lat="45.91353" lon="6.50318">
        <ele>2117</ele>
        <time>2021-05-20T04:52:40Z</time>
      </trkpt>
      <trkpt lat="45.91352" lon="6.50318">
        <ele>2117</ele>
        <time>2021-05-20T04:52:41Z</time>
      </trkpt>
      <trkpt lat="45.91351" lon="6.50318">
        <ele>2117</ele>
        <time>2021-05-20T04:52:42Z</time>
      </trkpt>
      <trkpt lat="45.91351" lon="6.50317">
        <ele>2117</ele>
        <time>2021-05-20T04:52:43Z</time>
      </trkpt>
      <trkpt lat="45.91351" lon="6.50317">
        <ele>2118</ele>
        <time>2021-05-20T04:52:44Z</time>
      </trkpt>
      <trkpt lat="45.91351" lon="6.50317">
        <ele>2118</ele>
        <time>2021-05-20T04:52:45Z</time>
      </trkpt>
      <trkpt lat="45.91351" lon="6.50317">
        <ele>2119</ele>
        <time>2021-05-20T04:52:46Z</time>
      </trkpt>
      <trkpt lat="45.91348" lon="6.50316">
        <ele>2119</ele>
        <time>2021-05-20T04:52:47Z</time>
      </trkpt>
      <trkpt lat="45.91348" lon="6.50316">
        <ele>2120</ele>
        <time>2021-05-20T04:52:48Z</time>
      </trkpt>
      <trkpt lat="45.91347" lon="6.50315">
        <ele>2120</ele>
        <time>2021-05-20T04:52:49Z</time>
      </trkpt>
      <trkpt lat="45.91346" lon="6.50315">
        <ele>2120</ele>
        <time>2021-05-20T04:52:50Z</time>
      </trkpt>
      <trkpt lat="45.91346" lon="6.50314">
        <ele>2121</ele>
        <time>2021-05-20T04:52:51Z</time>
      </trkpt>
      <trkpt lat="45.91345" lon="6.50314">
        <ele>2121</ele>
        <time>2021-05-20T04:52:52Z</time>
      </trkpt>
      <trkpt lat="45.91344" lon="6.50313">
        <ele>2121</ele>
        <time>2021-05-20T04:52:53Z</time>
      </trkpt>
      <trkpt lat="45.91344" lon="6.50313">
        <ele>2121</ele>
        <time>2021-05-20T04:52:54Z</time>
      </trkpt>
      <trkpt lat="45.91343" lon="6.50312">
        <ele>2121</ele>
        <time>2021-05-20T04:52:55Z</time>
      </trkpt>
      <trkpt lat="45.91342" lon="6.50312">
        <ele>2121</ele>
        <time>2021-05-20T04:52:56Z</time>
      </trkpt>
      <trkpt lat="45.91342" lon="6.50312">
        <ele>2121</ele>
        <time>2021-05-20T04:52:57Z</time>
      </trkpt>
      <trkpt lat="45.91341" lon="6.50311">
        <ele>2122</ele>
        <time>2021-05-20T04:52:58Z</time>
      </trkpt>
      <trkpt lat="45.9134" lon="6.50311">
        <ele>2122</ele>
        <time>2021-05-20T04:52:59Z</time>
      </trkpt>
      <trkpt lat="45.9134" lon="6.50311">
        <ele>2122</ele>
        <time>2021-05-20T04:53:00Z</time>
      </trkpt>
      <trkpt lat="45.9134" lon="6.50311">
        <ele>2123</ele>
        <time>2021-05-20T04:53:01Z</time>
      </trkpt>
      <trkpt lat="45.9134" lon="6.50311">
        <ele>2123</ele>
        <time>2021-05-20T04:53:02Z</time>
      </trkpt>
      <trkpt lat="45.91336" lon="6.50309">
        <ele>2123</ele>
        <time>2021-05-20T04:53:03Z</time>
      </trkpt>
      <trkpt lat="45.91336" lon="6.50309">
        <ele>2123</ele>
        <time>2021-05-20T04:53:04Z</time>
      </trkpt>
      <trkpt lat="45.91336" lon="6.50309">
        <ele>2123</ele>
        <time>2021-05-20T04:53:05Z</time>
      </trkpt>
      <trkpt lat="45.91335" lon="6.50308">
        <ele>2123</ele>
        <time>2021-05-20T04:53:06Z</time>
      </trkpt>
      <trkpt lat="45.91334" lon="6.50308">
        <ele>2124</ele>
        <time>2021-05-20T04:53:07Z</time>
      </trkpt>
      <trkpt lat="45.91334" lon="6.50307">
        <ele>2124</ele>
        <time>2021-05-20T04:53:08Z</time>
      </trkpt>
      <trkpt lat="45.91333" lon="6.50307">
        <ele>2124</ele>
        <time>2021-05-20T04:53:09Z</time>
      </trkpt>
      <trkpt lat="45.91333" lon="6.50307">
        <ele>2124</ele>
        <time>2021-05-20T04:53:10Z</time>
      </trkpt>
      <trkpt lat="45.91333" lon="6.50307">
        <ele>2125</ele>
        <time>2021-05-20T04:53:11Z</time>
      </trkpt>
      <trkpt lat="45.91333" lon="6.50307">
        <ele>2125</ele>
        <time>2021-05-20T04:53:12Z</time>
      </trkpt>
      <trkpt lat="45.91329" lon="6.50306">
        <ele>2126</ele>
        <time>2021-05-20T04:53:13Z</time>
      </trkpt>
      <trkpt lat="45.91329" lon="6.50306">
        <ele>2126</ele>
        <time>2021-05-20T04:53:14Z</time>
      </trkpt>
      <trkpt lat="45.91329" lon="6.50306">
        <ele>2126</ele>
        <time>2021-05-20T04:53:15Z</time>
      </trkpt>
      <trkpt lat="45.91329" lon="6.50306">
        <ele>2126</ele>
        <time>2021-05-20T04:53:16Z</time>
      </trkpt>
      <trkpt lat="45.91329" lon="6.50306">
        <ele>2127</ele>
        <time>2021-05-20T04:53:17Z</time>
      </trkpt>
      <trkpt lat="45.91326" lon="6.50306">
        <ele>2127</ele>
        <time>2021-05-20T04:53:18Z</time>
      </trkpt>
      <trkpt lat="45.91326" lon="6.50306">
        <ele>2127</ele>
        <time>2021-05-20T04:53:19Z</time>
      </trkpt>
      <trkpt lat="45.91325" lon="6.50306">
        <ele>2127</ele>
        <time>2021-05-20T04:53:20Z</time>
      </trkpt>
      <trkpt lat="45.91325" lon="6.50306">
        <ele>2127</ele>
        <time>2021-05-20T04:53:21Z</time>
      </trkpt>
      <trkpt lat="45.91324" lon="6.50306">
        <ele>2128</ele>
        <time>2021-05-20T04:53:22Z</time>
      </trkpt>
      <trkpt lat="45.91323" lon="6.50306">
        <ele>2128</ele>
        <time>2021-05-20T04:53:23Z</time>
      </trkpt>
      <trkpt lat="45.91323" lon="6.50306">
        <ele>2128</ele>
        <time>2021-05-20T04:53:24Z</time>
      </trkpt>
      <trkpt lat="45.91322" lon="6.50306">
        <ele>2128</ele>
        <time>2021-05-20T04:53:25Z</time>
      </trkpt>
      <trkpt lat="45.91322" lon="6.50306">
        <ele>2129</ele>
        <time>2021-05-20T04:53:26Z</time>
      </trkpt>
      <trkpt lat="45.91322" lon="6.50306">
        <ele>2129</ele>
        <time>2021-05-20T04:53:27Z</time>
      </trkpt>
      <trkpt lat="45.91322" lon="6.50306">
        <ele>2130</ele>
        <time>2021-05-20T04:53:28Z</time>
      </trkpt>
      <trkpt lat="45.91319" lon="6.50308">
        <ele>2131</ele>
        <time>2021-05-20T04:53:29Z</time>
      </trkpt>
      <trkpt lat="45.91319" lon="6.50308">
        <ele>2131</ele>
        <time>2021-05-20T04:53:30Z</time>
      </trkpt>
      <trkpt lat="45.91319" lon="6.50308">
        <ele>2131</ele>
        <time>2021-05-20T04:53:31Z</time>
      </trkpt>
      <trkpt lat="45.91319" lon="6.50308">
        <ele>2131</ele>
        <time>2021-05-20T04:53:32Z</time>
      </trkpt>
      <trkpt lat="45.91319" lon="6.50308">
        <ele>2131</ele>
        <time>2021-05-20T04:53:33Z</time>
      </trkpt>
      <trkpt lat="45.91319" lon="6.50308">
        <ele>2131</ele>
        <time>2021-05-20T04:53:34Z</time>
      </trkpt>
      <trkpt lat="45.91317" lon="6.50312">
        <ele>2131</ele>
        <time>2021-05-20T04:53:35Z</time>
      </trkpt>
      <trkpt lat="45.91317" lon="6.50312">
        <ele>2131</ele>
        <time>2021-05-20T04:53:36Z</time>
      </trkpt>
      <trkpt lat="45.91317" lon="6.50312">
        <ele>2132</ele>
        <time>2021-05-20T04:53:37Z</time>
      </trkpt>
      <trkpt lat="45.91317" lon="6.50312">
        <ele>2132</ele>
        <time>2021-05-20T04:53:38Z</time>
      </trkpt>
      <trkpt lat="45.91317" lon="6.50312">
        <ele>2132</ele>
        <time>2021-05-20T04:53:39Z</time>
      </trkpt>
      <trkpt lat="45.91315" lon="6.50316">
        <ele>2132</ele>
        <time>2021-05-20T04:53:40Z</time>
      </trkpt>
      <trkpt lat="45.91315" lon="6.50316">
        <ele>2134</ele>
        <time>2021-05-20T04:53:41Z</time>
      </trkpt>
      <trkpt lat="45.91315" lon="6.50317">
        <ele>2134</ele>
        <time>2021-05-20T04:53:42Z</time>
      </trkpt>
      <trkpt lat="45.91315" lon="6.50318">
        <ele>2134</ele>
        <time>2021-05-20T04:53:43Z</time>
      </trkpt>
      <trkpt lat="45.91314" lon="6.50319">
        <ele>2134</ele>
        <time>2021-05-20T04:53:44Z</time>
      </trkpt>
      <trkpt lat="45.91314" lon="6.50319">
        <ele>2135</ele>
        <time>2021-05-20T04:53:45Z</time>
      </trkpt>
      <trkpt lat="45.91313" lon="6.5032">
        <ele>2136</ele>
        <time>2021-05-20T04:53:46Z</time>
      </trkpt>
      <trkpt lat="45.91313" lon="6.5032">
        <ele>2136</ele>
        <time>2021-05-20T04:53:47Z</time>
      </trkpt>
      <trkpt lat="45.91313" lon="6.5032">
        <ele>2136</ele>
        <time>2021-05-20T04:53:48Z</time>
      </trkpt>
      <trkpt lat="45.91313" lon="6.5032">
        <ele>2137</ele>
        <time>2021-05-20T04:53:49Z</time>
      </trkpt>
      <trkpt lat="45.91312" lon="6.50325">
        <ele>2137</ele>
        <time>2021-05-20T04:53:50Z</time>
      </trkpt>
      <trkpt lat="45.91312" lon="6.50325">
        <ele>2137</ele>
        <time>2021-05-20T04:53:51Z</time>
      </trkpt>
      <trkpt lat="45.91311" lon="6.50326">
        <ele>2137</ele>
        <time>2021-05-20T04:53:52Z</time>
      </trkpt>
      <trkpt lat="45.91311" lon="6.50327">
        <ele>2137</ele>
        <time>2021-05-20T04:53:53Z</time>
      </trkpt>
      <trkpt lat="45.9131" lon="6.50328">
        <ele>2137</ele>
        <time>2021-05-20T04:53:54Z</time>
      </trkpt>
      <trkpt lat="45.9131" lon="6.50329">
        <ele>2138</ele>
        <time>2021-05-20T04:53:55Z</time>
      </trkpt>
      <trkpt lat="45.91309" lon="6.5033">
        <ele>2138</ele>
        <time>2021-05-20T04:53:56Z</time>
      </trkpt>
      <trkpt lat="45.91309" lon="6.5033">
        <ele>2138</ele>
        <time>2021-05-20T04:53:57Z</time>
      </trkpt>
      <trkpt lat="45.91309" lon="6.5033">
        <ele>2138</ele>
        <time>2021-05-20T04:53:58Z</time>
      </trkpt>
      <trkpt lat="45.91309" lon="6.5033">
        <ele>2138</ele>
        <time>2021-05-20T04:53:59Z</time>
      </trkpt>
      <trkpt lat="45.91309" lon="6.5033">
        <ele>2139</ele>
        <time>2021-05-20T04:54:00Z</time>
      </trkpt>
      <trkpt lat="45.91305" lon="6.50331">
        <ele>2139</ele>
        <time>2021-05-20T04:54:01Z</time>
      </trkpt>
      <trkpt lat="45.91305" lon="6.50331">
        <ele>2139</ele>
        <time>2021-05-20T04:54:02Z</time>
      </trkpt>
      <trkpt lat="45.91305" lon="6.50331">
        <ele>2139</ele>
        <time>2021-05-20T04:54:03Z</time>
      </trkpt>
      <trkpt lat="45.91305" lon="6.50331">
        <ele>2139</ele>
        <time>2021-05-20T04:54:04Z</time>
      </trkpt>
      <trkpt lat="45.91305" lon="6.50331">
        <ele>2140</ele>
        <time>2021-05-20T04:54:05Z</time>
      </trkpt>
      <trkpt lat="45.91305" lon="6.50331">
        <ele>2140</ele>
        <time>2021-05-20T04:54:06Z</time>
      </trkpt>
      <trkpt lat="45.91302" lon="6.50329">
        <ele>2140</ele>
        <time>2021-05-20T04:54:07Z</time>
      </trkpt>
      <trkpt lat="45.91302" lon="6.50329">
        <ele>2140</ele>
        <time>2021-05-20T04:54:08Z</time>
      </trkpt>
      <trkpt lat="45.91301" lon="6.50329">
        <ele>2141</ele>
        <time>2021-05-20T04:54:09Z</time>
      </trkpt>
      <trkpt lat="45.91301" lon="6.50329">
        <ele>2141</ele>
        <time>2021-05-20T04:54:10Z</time>
      </trkpt>
      <trkpt lat="45.913" lon="6.50328">
        <ele>2141</ele>
        <time>2021-05-20T04:54:11Z</time>
      </trkpt>
      <trkpt lat="45.913" lon="6.50328">
        <ele>2142</ele>
        <time>2021-05-20T04:54:12Z</time>
      </trkpt>
      <trkpt lat="45.91299" lon="6.50328">
        <ele>2142</ele>
        <time>2021-05-20T04:54:13Z</time>
      </trkpt>
      <trkpt lat="45.91298" lon="6.50327">
        <ele>2142</ele>
        <time>2021-05-20T04:54:14Z</time>
      </trkpt>
      <trkpt lat="45.91298" lon="6.50327">
        <ele>2142</ele>
        <time>2021-05-20T04:54:15Z</time>
      </trkpt>
      <trkpt lat="45.91298" lon="6.50327">
        <ele>2142</ele>
        <time>2021-05-20T04:54:16Z</time>
      </trkpt>
      <trkpt lat="45.91298" lon="6.50327">
        <ele>2143</ele>
        <time>2021-05-20T04:54:17Z</time>
      </trkpt>
      <trkpt lat="45.91298" lon="6.50327">
        <ele>2143</ele>
        <time>2021-05-20T04:54:18Z</time>
      </trkpt>
      <trkpt lat="45.91295" lon="6.50326">
        <ele>2143</ele>
        <time>2021-05-20T04:54:19Z</time>
      </trkpt>
      <trkpt lat="45.91295" lon="6.50326">
        <ele>2144</ele>
        <time>2021-05-20T04:54:20Z</time>
      </trkpt>
      <trkpt lat="45.91295" lon="6.50326">
        <ele>2144</ele>
        <time>2021-05-20T04:54:21Z</time>
      </trkpt>
      <trkpt lat="45.91295" lon="6.50326">
        <ele>2144</ele>
        <time>2021-05-20T04:54:22Z</time>
      </trkpt>
      <trkpt lat="45.91295" lon="6.50326">
        <ele>2144</ele>
        <time>2021-05-20T04:54:23Z</time>
      </trkpt>
      <trkpt lat="45.91292" lon="6.50323">
        <ele>2144</ele>
        <time>2021-05-20T04:54:24Z</time>
      </trkpt>
      <trkpt lat="45.91292" lon="6.50323">
        <ele>2145</ele>
        <time>2021-05-20T04:54:25Z</time>
      </trkpt>
      <trkpt lat="45.91292" lon="6.50324">
        <ele>2145</ele>
        <time>2021-05-20T04:54:26Z</time>
      </trkpt>
      <trkpt lat="45.91291" lon="6.50325">
        <ele>2145</ele>
        <time>2021-05-20T04:54:27Z</time>
      </trkpt>
      <trkpt lat="45.91291" lon="6.50326">
        <ele>2145</ele>
        <time>2021-05-20T04:54:28Z</time>
      </trkpt>
      <trkpt lat="45.91291" lon="6.50326">
        <ele>2145</ele>
        <time>2021-05-20T04:54:29Z</time>
      </trkpt>
      <trkpt lat="45.9129" lon="6.50327">
        <ele>2145</ele>
        <time>2021-05-20T04:54:30Z</time>
      </trkpt>
      <trkpt lat="45.9129" lon="6.50328">
        <ele>2145</ele>
        <time>2021-05-20T04:54:31Z</time>
      </trkpt>
      <trkpt lat="45.9129" lon="6.50329">
        <ele>2145</ele>
        <time>2021-05-20T04:54:32Z</time>
      </trkpt>
      <trkpt lat="45.91289" lon="6.5033">
        <ele>2146</ele>
        <time>2021-05-20T04:54:33Z</time>
      </trkpt>
      <trkpt lat="45.91289" lon="6.50331">
        <ele>2146</ele>
        <time>2021-05-20T04:54:34Z</time>
      </trkpt>
      <trkpt lat="45.91289" lon="6.50332">
        <ele>2146</ele>
        <time>2021-05-20T04:54:35Z</time>
      </trkpt>
      <trkpt lat="45.91289" lon="6.50333">
        <ele>2146</ele>
        <time>2021-05-20T04:54:36Z</time>
      </trkpt>
      <trkpt lat="45.91288" lon="6.50333">
        <ele>2147</ele>
        <time>2021-05-20T04:54:37Z</time>
      </trkpt>
      <trkpt lat="45.91288" lon="6.50334">
        <ele>2147</ele>
        <time>2021-05-20T04:54:38Z</time>
      </trkpt>
      <trkpt lat="45.91288" lon="6.50335">
        <ele>2147</ele>
        <time>2021-05-20T04:54:39Z</time>
      </trkpt>
      <trkpt lat="45.91288" lon="6.50336">
        <ele>2148</ele>
        <time>2021-05-20T04:54:40Z</time>
      </trkpt>
      <trkpt lat="45.91288" lon="6.50338">
        <ele>2148</ele>
        <time>2021-05-20T04:54:41Z</time>
      </trkpt>
      <trkpt lat="45.91287" lon="6.50339">
        <ele>2148</ele>
        <time>2021-05-20T04:54:42Z</time>
      </trkpt>
      <trkpt lat="45.91287" lon="6.5034">
        <ele>2149</ele>
        <time>2021-05-20T04:54:43Z</time>
      </trkpt>
      <trkpt lat="45.91287" lon="6.5034">
        <ele>2149</ele>
        <time>2021-05-20T04:54:44Z</time>
      </trkpt>
      <trkpt lat="45.91287" lon="6.5034">
        <ele>2149</ele>
        <time>2021-05-20T04:54:45Z</time>
      </trkpt>
      <trkpt lat="45.91287" lon="6.5034">
        <ele>2149</ele>
        <time>2021-05-20T04:54:46Z</time>
      </trkpt>
      <trkpt lat="45.91287" lon="6.5034">
        <ele>2150</ele>
        <time>2021-05-20T04:54:47Z</time>
      </trkpt>
      <trkpt lat="45.91285" lon="6.50344">
        <ele>2150</ele>
        <time>2021-05-20T04:54:48Z</time>
      </trkpt>
      <trkpt lat="45.91285" lon="6.50344">
        <ele>2150</ele>
        <time>2021-05-20T04:54:49Z</time>
      </trkpt>
      <trkpt lat="45.91285" lon="6.50344">
        <ele>2151</ele>
        <time>2021-05-20T04:54:50Z</time>
      </trkpt>
      <trkpt lat="45.91285" lon="6.50344">
        <ele>2151</ele>
        <time>2021-05-20T04:54:51Z</time>
      </trkpt>
      <trkpt lat="45.91285" lon="6.50344">
        <ele>2151</ele>
        <time>2021-05-20T04:54:52Z</time>
      </trkpt>
      <trkpt lat="45.91285" lon="6.50348">
        <ele>2152</ele>
        <time>2021-05-20T04:54:53Z</time>
      </trkpt>
      <trkpt lat="45.91285" lon="6.50348">
        <ele>2152</ele>
        <time>2021-05-20T04:54:54Z</time>
      </trkpt>
      <trkpt lat="45.91285" lon="6.50348">
        <ele>2152</ele>
        <time>2021-05-20T04:54:55Z</time>
      </trkpt>
      <trkpt lat="45.91285" lon="6.50348">
        <ele>2153</ele>
        <time>2021-05-20T04:54:56Z</time>
      </trkpt>
      <trkpt lat="45.91285" lon="6.50348">
        <ele>2153</ele>
        <time>2021-05-20T04:54:57Z</time>
      </trkpt>
      <trkpt lat="45.91283" lon="6.50353">
        <ele>2153</ele>
        <time>2021-05-20T04:54:58Z</time>
      </trkpt>
      <trkpt lat="45.91283" lon="6.50353">
        <ele>2153</ele>
        <time>2021-05-20T04:54:59Z</time>
      </trkpt>
      <trkpt lat="45.91283" lon="6.50354">
        <ele>2153</ele>
        <time>2021-05-20T04:55:00Z</time>
      </trkpt>
      <trkpt lat="45.91283" lon="6.50355">
        <ele>2153</ele>
        <time>2021-05-20T04:55:01Z</time>
      </trkpt>
      <trkpt lat="45.91282" lon="6.50355">
        <ele>2153</ele>
        <time>2021-05-20T04:55:02Z</time>
      </trkpt>
      <trkpt lat="45.91282" lon="6.50356">
        <ele>2154</ele>
        <time>2021-05-20T04:55:03Z</time>
      </trkpt>
      <trkpt lat="45.91282" lon="6.50357">
        <ele>2154</ele>
        <time>2021-05-20T04:55:04Z</time>
      </trkpt>
      <trkpt lat="45.91281" lon="6.50358">
        <ele>2154</ele>
        <time>2021-05-20T04:55:05Z</time>
      </trkpt>
      <trkpt lat="45.91281" lon="6.50358">
        <ele>2155</ele>
        <time>2021-05-20T04:55:06Z</time>
      </trkpt>
      <trkpt lat="45.91281" lon="6.50358">
        <ele>2155</ele>
        <time>2021-05-20T04:55:07Z</time>
      </trkpt>
      <trkpt lat="45.91281" lon="6.50358">
        <ele>2155</ele>
        <time>2021-05-20T04:55:08Z</time>
      </trkpt>
      <trkpt lat="45.91281" lon="6.50358">
        <ele>2155</ele>
        <time>2021-05-20T04:55:09Z</time>
      </trkpt>
      <trkpt lat="45.9128" lon="6.50363">
        <ele>2155</ele>
        <time>2021-05-20T04:55:10Z</time>
      </trkpt>
      <trkpt lat="45.9128" lon="6.50363">
        <ele>2155</ele>
        <time>2021-05-20T04:55:11Z</time>
      </trkpt>
      <trkpt lat="45.9128" lon="6.50363">
        <ele>2155</ele>
        <time>2021-05-20T04:55:12Z</time>
      </trkpt>
      <trkpt lat="45.9128" lon="6.50363">
        <ele>2156</ele>
        <time>2021-05-20T04:55:13Z</time>
      </trkpt>
      <trkpt lat="45.9128" lon="6.50363">
        <ele>2156</ele>
        <time>2021-05-20T04:55:14Z</time>
      </trkpt>
      <trkpt lat="45.91279" lon="6.50367">
        <ele>2157</ele>
        <time>2021-05-20T04:55:15Z</time>
      </trkpt>
      <trkpt lat="45.91279" lon="6.50367">
        <ele>2157</ele>
        <time>2021-05-20T04:55:16Z</time>
      </trkpt>
      <trkpt lat="45.91279" lon="6.50368">
        <ele>2158</ele>
        <time>2021-05-20T04:55:17Z</time>
      </trkpt>
      <trkpt lat="45.91278" lon="6.5037">
        <ele>2158</ele>
        <time>2021-05-20T04:55:18Z</time>
      </trkpt>
      <trkpt lat="45.91278" lon="6.50371">
        <ele>2158</ele>
        <time>2021-05-20T04:55:19Z</time>
      </trkpt>
      <trkpt lat="45.91278" lon="6.50372">
        <ele>2158</ele>
        <time>2021-05-20T04:55:20Z</time>
      </trkpt>
      <trkpt lat="45.91278" lon="6.50373">
        <ele>2158</ele>
        <time>2021-05-20T04:55:21Z</time>
      </trkpt>
      <trkpt lat="45.91278" lon="6.50373">
        <ele>2160</ele>
        <time>2021-05-20T04:55:22Z</time>
      </trkpt>
      <trkpt lat="45.91278" lon="6.50373">
        <ele>2160</ele>
        <time>2021-05-20T04:55:23Z</time>
      </trkpt>
      <trkpt lat="45.91278" lon="6.50373">
        <ele>2160</ele>
        <time>2021-05-20T04:55:24Z</time>
      </trkpt>
      <trkpt lat="45.91276" lon="6.50377">
        <ele>2160</ele>
        <time>2021-05-20T04:55:25Z</time>
      </trkpt>
      <trkpt lat="45.91276" lon="6.50377">
        <ele>2160</ele>
        <time>2021-05-20T04:55:26Z</time>
      </trkpt>
      <trkpt lat="45.91276" lon="6.50377">
        <ele>2160</ele>
        <time>2021-05-20T04:55:27Z</time>
      </trkpt>
      <trkpt lat="45.91276" lon="6.50377">
        <ele>2161</ele>
        <time>2021-05-20T04:55:28Z</time>
      </trkpt>
      <trkpt lat="45.91276" lon="6.50377">
        <ele>2161</ele>
        <time>2021-05-20T04:55:29Z</time>
      </trkpt>
      <trkpt lat="45.91276" lon="6.50377">
        <ele>2161</ele>
        <time>2021-05-20T04:55:30Z</time>
      </trkpt>
      <trkpt lat="45.91276" lon="6.50377">
        <ele>2161</ele>
        <time>2021-05-20T04:55:31Z</time>
      </trkpt>
      <trkpt lat="45.91274" lon="6.50381">
        <ele>2162</ele>
        <time>2021-05-20T04:55:32Z</time>
      </trkpt>
      <trkpt lat="45.91274" lon="6.50381">
        <ele>2162</ele>
        <time>2021-05-20T04:55:33Z</time>
      </trkpt>
      <trkpt lat="45.91274" lon="6.50382">
        <ele>2162</ele>
        <time>2021-05-20T04:55:34Z</time>
      </trkpt>
      <trkpt lat="45.91273" lon="6.50383">
        <ele>2162</ele>
        <time>2021-05-20T04:55:35Z</time>
      </trkpt>
      <trkpt lat="45.91273" lon="6.50385">
        <ele>2163</ele>
        <time>2021-05-20T04:55:36Z</time>
      </trkpt>
      <trkpt lat="45.91273" lon="6.50386">
        <ele>2163</ele>
        <time>2021-05-20T04:55:37Z</time>
      </trkpt>
      <trkpt lat="45.91273" lon="6.50387">
        <ele>2164</ele>
        <time>2021-05-20T04:55:38Z</time>
      </trkpt>
      <trkpt lat="45.91273" lon="6.50387">
        <ele>2164</ele>
        <time>2021-05-20T04:55:39Z</time>
      </trkpt>
      <trkpt lat="45.91273" lon="6.50387">
        <ele>2164</ele>
        <time>2021-05-20T04:55:40Z</time>
      </trkpt>
      <trkpt lat="45.91273" lon="6.50387">
        <ele>2165</ele>
        <time>2021-05-20T04:55:41Z</time>
      </trkpt>
      <trkpt lat="45.91272" lon="6.50392">
        <ele>2165</ele>
        <time>2021-05-20T04:55:42Z</time>
      </trkpt>
      <trkpt lat="45.91272" lon="6.50392">
        <ele>2165</ele>
        <time>2021-05-20T04:55:43Z</time>
      </trkpt>
      <trkpt lat="45.91272" lon="6.50392">
        <ele>2165</ele>
        <time>2021-05-20T04:55:44Z</time>
      </trkpt>
      <trkpt lat="45.91272" lon="6.50392">
        <ele>2165</ele>
        <time>2021-05-20T04:55:45Z</time>
      </trkpt>
      <trkpt lat="45.91272" lon="6.50392">
        <ele>2165</ele>
        <time>2021-05-20T04:55:46Z</time>
      </trkpt>
      <trkpt lat="45.91272" lon="6.50392">
        <ele>2165</ele>
        <time>2021-05-20T04:55:47Z</time>
      </trkpt>
      <trkpt lat="45.91271" lon="6.50397">
        <ele>2165</ele>
        <time>2021-05-20T04:55:48Z</time>
      </trkpt>
      <trkpt lat="45.91271" lon="6.50397">
        <ele>2166</ele>
        <time>2021-05-20T04:55:49Z</time>
      </trkpt>
      <trkpt lat="45.91271" lon="6.50397">
        <ele>2166</ele>
        <time>2021-05-20T04:55:50Z</time>
      </trkpt>
      <trkpt lat="45.9127" lon="6.50398">
        <ele>2167</ele>
        <time>2021-05-20T04:55:51Z</time>
      </trkpt>
      <trkpt lat="45.9127" lon="6.50398">
        <ele>2167</ele>
        <time>2021-05-20T04:55:52Z</time>
      </trkpt>
      <trkpt lat="45.91269" lon="6.50399">
        <ele>2168</ele>
        <time>2021-05-20T04:55:53Z</time>
      </trkpt>
      <trkpt lat="45.91269" lon="6.504">
        <ele>2168</ele>
        <time>2021-05-20T04:55:54Z</time>
      </trkpt>
      <trkpt lat="45.91269" lon="6.504">
        <ele>2168</ele>
        <time>2021-05-20T04:55:55Z</time>
      </trkpt>
      <trkpt lat="45.91269" lon="6.504">
        <ele>2169</ele>
        <time>2021-05-20T04:55:56Z</time>
      </trkpt>
      <trkpt lat="45.91269" lon="6.504">
        <ele>2169</ele>
        <time>2021-05-20T04:55:57Z</time>
      </trkpt>
      <trkpt lat="45.91266" lon="6.50396">
        <ele>2169</ele>
        <time>2021-05-20T04:55:58Z</time>
      </trkpt>
      <trkpt lat="45.91266" lon="6.50396">
        <ele>2169</ele>
        <time>2021-05-20T04:55:59Z</time>
      </trkpt>
      <trkpt lat="45.91266" lon="6.50396">
        <ele>2169</ele>
        <time>2021-05-20T04:56:00Z</time>
      </trkpt>
      <trkpt lat="45.91266" lon="6.50396">
        <ele>2169</ele>
        <time>2021-05-20T04:56:01Z</time>
      </trkpt>
      <trkpt lat="45.91266" lon="6.50396">
        <ele>2169</ele>
        <time>2021-05-20T04:56:02Z</time>
      </trkpt>
      <trkpt lat="45.91266" lon="6.50396">
        <ele>2169</ele>
        <time>2021-05-20T04:56:03Z</time>
      </trkpt>
      <trkpt lat="45.91263" lon="6.50393">
        <ele>2170</ele>
        <time>2021-05-20T04:56:04Z</time>
      </trkpt>
      <trkpt lat="45.91263" lon="6.50393">
        <ele>2170</ele>
        <time>2021-05-20T04:56:05Z</time>
      </trkpt>
      <trkpt lat="45.91262" lon="6.50393">
        <ele>2171</ele>
        <time>2021-05-20T04:56:06Z</time>
      </trkpt>
      <trkpt lat="45.91262" lon="6.50392">
        <ele>2171</ele>
        <time>2021-05-20T04:56:07Z</time>
      </trkpt>
      <trkpt lat="45.91261" lon="6.50392">
        <ele>2171</ele>
        <time>2021-05-20T04:56:08Z</time>
      </trkpt>
      <trkpt lat="45.91261" lon="6.50392">
        <ele>2171</ele>
        <time>2021-05-20T04:56:09Z</time>
      </trkpt>
      <trkpt lat="45.9126" lon="6.50391">
        <ele>2172</ele>
        <time>2021-05-20T04:56:10Z</time>
      </trkpt>
      <trkpt lat="45.91259" lon="6.50391">
        <ele>2172</ele>
        <time>2021-05-20T04:56:11Z</time>
      </trkpt>
      <trkpt lat="45.91259" lon="6.50391">
        <ele>2173</ele>
        <time>2021-05-20T04:56:12Z</time>
      </trkpt>
      <trkpt lat="45.91259" lon="6.50391">
        <ele>2173</ele>
        <time>2021-05-20T04:56:13Z</time>
      </trkpt>
      <trkpt lat="45.91259" lon="6.50392">
        <ele>2173</ele>
        <time>2021-05-20T04:56:14Z</time>
      </trkpt>
      <trkpt lat="45.91259" lon="6.50392">
        <ele>2174</ele>
        <time>2021-05-20T04:56:15Z</time>
      </trkpt>
      <trkpt lat="45.91258" lon="6.50392">
        <ele>2174</ele>
        <time>2021-05-20T04:56:16Z</time>
      </trkpt>
      <trkpt lat="45.91258" lon="6.50393">
        <ele>2173</ele>
        <time>2021-05-20T04:56:17Z</time>
      </trkpt>
      <trkpt lat="45.91258" lon="6.50393">
        <ele>2173</ele>
        <time>2021-05-20T04:56:18Z</time>
      </trkpt>
      <trkpt lat="45.91258" lon="6.50393">
        <ele>2173</ele>
        <time>2021-05-20T04:56:19Z</time>
      </trkpt>
      <trkpt lat="45.91257" lon="6.50394">
        <ele>2173</ele>
        <time>2021-05-20T04:56:20Z</time>
      </trkpt>
      <trkpt lat="45.91257" lon="6.50394">
        <ele>2173</ele>
        <time>2021-05-20T04:56:21Z</time>
      </trkpt>
      <trkpt lat="45.91257" lon="6.50394">
        <ele>2173</ele>
        <time>2021-05-20T04:56:22Z</time>
      </trkpt>
      <trkpt lat="45.91257" lon="6.50395">
        <ele>2174</ele>
        <time>2021-05-20T04:56:23Z</time>
      </trkpt>
      <trkpt lat="45.91257" lon="6.50395">
        <ele>2174</ele>
        <time>2021-05-20T04:56:24Z</time>
      </trkpt>
      <trkpt lat="45.91257" lon="6.50395">
        <ele>2174</ele>
        <time>2021-05-20T04:56:25Z</time>
      </trkpt>
      <trkpt lat="45.91257" lon="6.50395">
        <ele>2174</ele>
        <time>2021-05-20T04:56:26Z</time>
      </trkpt>
      <trkpt lat="45.91255" lon="6.50399">
        <ele>2175</ele>
        <time>2021-05-20T04:56:27Z</time>
      </trkpt>
      <trkpt lat="45.91255" lon="6.50399">
        <ele>2175</ele>
        <time>2021-05-20T04:56:28Z</time>
      </trkpt>
      <trkpt lat="45.91255" lon="6.504">
        <ele>2176</ele>
        <time>2021-05-20T04:56:29Z</time>
      </trkpt>
      <trkpt lat="45.91255" lon="6.50401">
        <ele>2177</ele>
        <time>2021-05-20T04:56:30Z</time>
      </trkpt>
      <trkpt lat="45.91254" lon="6.50402">
        <ele>2177</ele>
        <time>2021-05-20T04:56:31Z</time>
      </trkpt>
      <trkpt lat="45.91254" lon="6.50403">
        <ele>2178</ele>
        <time>2021-05-20T04:56:32Z</time>
      </trkpt>
      <trkpt lat="45.91254" lon="6.50404">
        <ele>2178</ele>
        <time>2021-05-20T04:56:33Z</time>
      </trkpt>
      <trkpt lat="45.91254" lon="6.50404">
        <ele>2178</ele>
        <time>2021-05-20T04:56:34Z</time>
      </trkpt>
      <trkpt lat="45.91254" lon="6.50404">
        <ele>2178</ele>
        <time>2021-05-20T04:56:35Z</time>
      </trkpt>
      <trkpt lat="45.91254" lon="6.50404">
        <ele>2179</ele>
        <time>2021-05-20T04:56:36Z</time>
      </trkpt>
      <trkpt lat="45.91253" lon="6.5041">
        <ele>2179</ele>
        <time>2021-05-20T04:56:37Z</time>
      </trkpt>
      <trkpt lat="45.91253" lon="6.5041">
        <ele>2179</ele>
        <time>2021-05-20T04:56:38Z</time>
      </trkpt>
      <trkpt lat="45.91253" lon="6.5041">
        <ele>2179</ele>
        <time>2021-05-20T04:56:39Z</time>
      </trkpt>
      <trkpt lat="45.91253" lon="6.5041">
        <ele>2179</ele>
        <time>2021-05-20T04:56:40Z</time>
      </trkpt>
      <trkpt lat="45.91253" lon="6.5041">
        <ele>2179</ele>
        <time>2021-05-20T04:56:41Z</time>
      </trkpt>
      <trkpt lat="45.91253" lon="6.5041">
        <ele>2179</ele>
        <time>2021-05-20T04:56:42Z</time>
      </trkpt>
      <trkpt lat="45.91252" lon="6.50415">
        <ele>2179</ele>
        <time>2021-05-20T04:56:43Z</time>
      </trkpt>
      <trkpt lat="45.91252" lon="6.50415">
        <ele>2180</ele>
        <time>2021-05-20T04:56:44Z</time>
      </trkpt>
      <trkpt lat="45.91252" lon="6.50416">
        <ele>2180</ele>
        <time>2021-05-20T04:56:45Z</time>
      </trkpt>
      <trkpt lat="45.91252" lon="6.50417">
        <ele>2180</ele>
        <time>2021-05-20T04:56:46Z</time>
      </trkpt>
      <trkpt lat="45.91252" lon="6.50418">
        <ele>2181</ele>
        <time>2021-05-20T04:56:47Z</time>
      </trkpt>
      <trkpt lat="45.91252" lon="6.50419">
        <ele>2181</ele>
        <time>2021-05-20T04:56:48Z</time>
      </trkpt>
      <trkpt lat="45.91252" lon="6.5042">
        <ele>2182</ele>
        <time>2021-05-20T04:56:49Z</time>
      </trkpt>
      <trkpt lat="45.91252" lon="6.5042">
        <ele>2182</ele>
        <time>2021-05-20T04:56:50Z</time>
      </trkpt>
      <trkpt lat="45.91252" lon="6.5042">
        <ele>2183</ele>
        <time>2021-05-20T04:56:51Z</time>
      </trkpt>
      <trkpt lat="45.91252" lon="6.5042">
        <ele>2183</ele>
        <time>2021-05-20T04:56:52Z</time>
      </trkpt>
      <trkpt lat="45.91252" lon="6.5042">
        <ele>2183</ele>
        <time>2021-05-20T04:56:53Z</time>
      </trkpt>
      <trkpt lat="45.91252" lon="6.5042">
        <ele>2183</ele>
        <time>2021-05-20T04:56:54Z</time>
      </trkpt>
      <trkpt lat="45.91252" lon="6.5042">
        <ele>2183</ele>
        <time>2021-05-20T04:56:55Z</time>
      </trkpt>
      <trkpt lat="45.91249" lon="6.50418">
        <ele>2183</ele>
        <time>2021-05-20T04:56:56Z</time>
      </trkpt>
      <trkpt lat="45.91249" lon="6.50418">
        <ele>2183</ele>
        <time>2021-05-20T04:56:57Z</time>
      </trkpt>
      <trkpt lat="45.91249" lon="6.50418">
        <ele>2183</ele>
        <time>2021-05-20T04:56:58Z</time>
      </trkpt>
      <trkpt lat="45.91249" lon="6.50418">
        <ele>2183</ele>
        <time>2021-05-20T04:56:59Z</time>
      </trkpt>
      <trkpt lat="45.91249" lon="6.50418">
        <ele>2183</ele>
        <time>2021-05-20T04:57:00Z</time>
      </trkpt>
      <trkpt lat="45.91246" lon="6.50416">
        <ele>2184</ele>
        <time>2021-05-20T04:57:01Z</time>
      </trkpt>
      <trkpt lat="45.91246" lon="6.50416">
        <ele>2184</ele>
        <time>2021-05-20T04:57:02Z</time>
      </trkpt>
      <trkpt lat="45.91246" lon="6.50416">
        <ele>2184</ele>
        <time>2021-05-20T04:57:03Z</time>
      </trkpt>
      <trkpt lat="45.91245" lon="6.50414">
        <ele>2184</ele>
        <time>2021-05-20T04:57:04Z</time>
      </trkpt>
      <trkpt lat="45.91244" lon="6.50413">
        <ele>2185</ele>
        <time>2021-05-20T04:57:05Z</time>
      </trkpt>
      <trkpt lat="45.91243" lon="6.50412">
        <ele>2185</ele>
        <time>2021-05-20T04:57:06Z</time>
      </trkpt>
      <trkpt lat="45.91243" lon="6.50412">
        <ele>2186</ele>
        <time>2021-05-20T04:57:07Z</time>
      </trkpt>
      <trkpt lat="45.91243" lon="6.50412">
        <ele>2186</ele>
        <time>2021-05-20T04:57:08Z</time>
      </trkpt>
      <trkpt lat="45.91243" lon="6.50412">
        <ele>2186</ele>
        <time>2021-05-20T04:57:09Z</time>
      </trkpt>
      <trkpt lat="45.9124" lon="6.50409">
        <ele>2186</ele>
        <time>2021-05-20T04:57:10Z</time>
      </trkpt>
      <trkpt lat="45.9124" lon="6.50409">
        <ele>2186</ele>
        <time>2021-05-20T04:57:11Z</time>
      </trkpt>
      <trkpt lat="45.9124" lon="6.50409">
        <ele>2187</ele>
        <time>2021-05-20T04:57:12Z</time>
      </trkpt>
      <trkpt lat="45.9124" lon="6.50409">
        <ele>2187</ele>
        <time>2021-05-20T04:57:13Z</time>
      </trkpt>
      <trkpt lat="45.9124" lon="6.50409">
        <ele>2187</ele>
        <time>2021-05-20T04:57:14Z</time>
      </trkpt>
      <trkpt lat="45.91237" lon="6.50406">
        <ele>2187</ele>
        <time>2021-05-20T04:57:15Z</time>
      </trkpt>
      <trkpt lat="45.91237" lon="6.50406">
        <ele>2187</ele>
        <time>2021-05-20T04:57:16Z</time>
      </trkpt>
      <trkpt lat="45.91237" lon="6.50406">
        <ele>2187</ele>
        <time>2021-05-20T04:57:17Z</time>
      </trkpt>
      <trkpt lat="45.91237" lon="6.50406">
        <ele>2188</ele>
        <time>2021-05-20T04:57:18Z</time>
      </trkpt>
      <trkpt lat="45.91237" lon="6.50406">
        <ele>2188</ele>
        <time>2021-05-20T04:57:19Z</time>
      </trkpt>
      <trkpt lat="45.91237" lon="6.50406">
        <ele>2188</ele>
        <time>2021-05-20T04:57:20Z</time>
      </trkpt>
      <trkpt lat="45.91237" lon="6.50406">
        <ele>2189</ele>
        <time>2021-05-20T04:57:21Z</time>
      </trkpt>
      <trkpt lat="45.91237" lon="6.50406">
        <ele>2189</ele>
        <time>2021-05-20T04:57:22Z</time>
      </trkpt>
      <trkpt lat="45.91234" lon="6.50405">
        <ele>2189</ele>
        <time>2021-05-20T04:57:23Z</time>
      </trkpt>
      <trkpt lat="45.91234" lon="6.50405">
        <ele>2189</ele>
        <time>2021-05-20T04:57:24Z</time>
      </trkpt>
      <trkpt lat="45.91234" lon="6.50406">
        <ele>2190</ele>
        <time>2021-05-20T04:57:25Z</time>
      </trkpt>
      <trkpt lat="45.91233" lon="6.50406">
        <ele>2190</ele>
        <time>2021-05-20T04:57:26Z</time>
      </trkpt>
      <trkpt lat="45.91232" lon="6.50407">
        <ele>2190</ele>
        <time>2021-05-20T04:57:27Z</time>
      </trkpt>
      <trkpt lat="45.91232" lon="6.50408">
        <ele>2190</ele>
        <time>2021-05-20T04:57:28Z</time>
      </trkpt>
      <trkpt lat="45.91231" lon="6.50409">
        <ele>2190</ele>
        <time>2021-05-20T04:57:29Z</time>
      </trkpt>
      <trkpt lat="45.91231" lon="6.5041">
        <ele>2191</ele>
        <time>2021-05-20T04:57:30Z</time>
      </trkpt>
      <trkpt lat="45.91231" lon="6.50411">
        <ele>2191</ele>
        <time>2021-05-20T04:57:31Z</time>
      </trkpt>
      <trkpt lat="45.91231" lon="6.50413">
        <ele>2191</ele>
        <time>2021-05-20T04:57:32Z</time>
      </trkpt>
      <trkpt lat="45.91231" lon="6.50414">
        <ele>2191</ele>
        <time>2021-05-20T04:57:33Z</time>
      </trkpt>
      <trkpt lat="45.91231" lon="6.50415">
        <ele>2191</ele>
        <time>2021-05-20T04:57:34Z</time>
      </trkpt>
      <trkpt lat="45.91231" lon="6.50416">
        <ele>2192</ele>
        <time>2021-05-20T04:57:35Z</time>
      </trkpt>
      <trkpt lat="45.91231" lon="6.50417">
        <ele>2192</ele>
        <time>2021-05-20T04:57:36Z</time>
      </trkpt>
      <trkpt lat="45.9123" lon="6.50418">
        <ele>2192</ele>
        <time>2021-05-20T04:57:37Z</time>
      </trkpt>
      <trkpt lat="45.9123" lon="6.50419">
        <ele>2193</ele>
        <time>2021-05-20T04:57:38Z</time>
      </trkpt>
      <trkpt lat="45.9123" lon="6.5042">
        <ele>2193</ele>
        <time>2021-05-20T04:57:39Z</time>
      </trkpt>
      <trkpt lat="45.9123" lon="6.5042">
        <ele>2193</ele>
        <time>2021-05-20T04:57:40Z</time>
      </trkpt>
      <trkpt lat="45.9123" lon="6.5042">
        <ele>2193</ele>
        <time>2021-05-20T04:57:41Z</time>
      </trkpt>
      <trkpt lat="45.9123" lon="6.5042">
        <ele>2193</ele>
        <time>2021-05-20T04:57:42Z</time>
      </trkpt>
      <trkpt lat="45.9123" lon="6.50426">
        <ele>2194</ele>
        <time>2021-05-20T04:57:43Z</time>
      </trkpt>
      <trkpt lat="45.9123" lon="6.50426">
        <ele>2195</ele>
        <time>2021-05-20T04:57:44Z</time>
      </trkpt>
      <trkpt lat="45.9123" lon="6.50427">
        <ele>2195</ele>
        <time>2021-05-20T04:57:45Z</time>
      </trkpt>
      <trkpt lat="45.9123" lon="6.50428">
        <ele>2195</ele>
        <time>2021-05-20T04:57:46Z</time>
      </trkpt>
      <trkpt lat="45.91231" lon="6.50429">
        <ele>2195</ele>
        <time>2021-05-20T04:57:47Z</time>
      </trkpt>
      <trkpt lat="45.91231" lon="6.5043">
        <ele>2196</ele>
        <time>2021-05-20T04:57:48Z</time>
      </trkpt>
      <trkpt lat="45.91231" lon="6.50432">
        <ele>2196</ele>
        <time>2021-05-20T04:57:49Z</time>
      </trkpt>
      <trkpt lat="45.91231" lon="6.50432">
        <ele>2196</ele>
        <time>2021-05-20T04:57:50Z</time>
      </trkpt>
      <trkpt lat="45.91231" lon="6.50432">
        <ele>2196</ele>
        <time>2021-05-20T04:57:51Z</time>
      </trkpt>
      <trkpt lat="45.91231" lon="6.50432">
        <ele>2197</ele>
        <time>2021-05-20T04:57:52Z</time>
      </trkpt>
      <trkpt lat="45.91231" lon="6.50437">
        <ele>2197</ele>
        <time>2021-05-20T04:57:53Z</time>
      </trkpt>
      <trkpt lat="45.91231" lon="6.50437">
        <ele>2197</ele>
        <time>2021-05-20T04:57:54Z</time>
      </trkpt>
      <trkpt lat="45.9123" lon="6.50438">
        <ele>2197</ele>
        <time>2021-05-20T04:57:55Z</time>
      </trkpt>
      <trkpt lat="45.9123" lon="6.50439">
        <ele>2197</ele>
        <time>2021-05-20T04:57:56Z</time>
      </trkpt>
      <trkpt lat="45.9123" lon="6.5044">
        <ele>2197</ele>
        <time>2021-05-20T04:57:57Z</time>
      </trkpt>
      <trkpt lat="45.9123" lon="6.50441">
        <ele>2197</ele>
        <time>2021-05-20T04:57:58Z</time>
      </trkpt>
      <trkpt lat="45.9123" lon="6.50442">
        <ele>2199</ele>
        <time>2021-05-20T04:57:59Z</time>
      </trkpt>
      <trkpt lat="45.9123" lon="6.50443">
        <ele>2200</ele>
        <time>2021-05-20T04:58:00Z</time>
      </trkpt>
      <trkpt lat="45.9123" lon="6.50443">
        <ele>2200</ele>
        <time>2021-05-20T04:58:01Z</time>
      </trkpt>
      <trkpt lat="45.9123" lon="6.50443">
        <ele>2200</ele>
        <time>2021-05-20T04:58:02Z</time>
      </trkpt>
      <trkpt lat="45.9123" lon="6.50443">
        <ele>2200</ele>
        <time>2021-05-20T04:58:03Z</time>
      </trkpt>
      <trkpt lat="45.91231" lon="6.50448">
        <ele>2201</ele>
        <time>2021-05-20T04:58:04Z</time>
      </trkpt>
      <trkpt lat="45.91231" lon="6.50448">
        <ele>2201</ele>
        <time>2021-05-20T04:58:05Z</time>
      </trkpt>
      <trkpt lat="45.91231" lon="6.50448">
        <ele>2201</ele>
        <time>2021-05-20T04:58:06Z</time>
      </trkpt>
      <trkpt lat="45.9123" lon="6.50448">
        <ele>2201</ele>
        <time>2021-05-20T04:58:07Z</time>
      </trkpt>
      <trkpt lat="45.9123" lon="6.50449">
        <ele>2202</ele>
        <time>2021-05-20T04:58:08Z</time>
      </trkpt>
      <trkpt lat="45.9123" lon="6.50449">
        <ele>2202</ele>
        <time>2021-05-20T04:58:09Z</time>
      </trkpt>
      <trkpt lat="45.91229" lon="6.50449">
        <ele>2202</ele>
        <time>2021-05-20T04:58:10Z</time>
      </trkpt>
      <trkpt lat="45.91229" lon="6.50449">
        <ele>2202</ele>
        <time>2021-05-20T04:58:11Z</time>
      </trkpt>
      <trkpt lat="45.91229" lon="6.50449">
        <ele>2202</ele>
        <time>2021-05-20T04:58:12Z</time>
      </trkpt>
      <trkpt lat="45.91229" lon="6.50449">
        <ele>2203</ele>
        <time>2021-05-20T04:58:13Z</time>
      </trkpt>
      <trkpt lat="45.91228" lon="6.5045">
        <ele>2203</ele>
        <time>2021-05-20T04:58:14Z</time>
      </trkpt>
      <trkpt lat="45.91228" lon="6.5045">
        <ele>2203</ele>
        <time>2021-05-20T04:58:15Z</time>
      </trkpt>
      <trkpt lat="45.91228" lon="6.5045">
        <ele>2204</ele>
        <time>2021-05-20T04:58:16Z</time>
      </trkpt>
      <trkpt lat="45.91228" lon="6.5045">
        <ele>2204</ele>
        <time>2021-05-20T04:58:17Z</time>
      </trkpt>
      <trkpt lat="45.91228" lon="6.5045">
        <ele>2205</ele>
        <time>2021-05-20T04:58:18Z</time>
      </trkpt>
      <trkpt lat="45.91225" lon="6.50447">
        <ele>2205</ele>
        <time>2021-05-20T04:58:19Z</time>
      </trkpt>
      <trkpt lat="45.91225" lon="6.50447">
        <ele>2205</ele>
        <time>2021-05-20T04:58:20Z</time>
      </trkpt>
      <trkpt lat="45.91224" lon="6.50446">
        <ele>2205</ele>
        <time>2021-05-20T04:58:21Z</time>
      </trkpt>
      <trkpt lat="45.91223" lon="6.50445">
        <ele>2205</ele>
        <time>2021-05-20T04:58:22Z</time>
      </trkpt>
      <trkpt lat="45.91223" lon="6.50445">
        <ele>2205</ele>
        <time>2021-05-20T04:58:23Z</time>
      </trkpt>
      <trkpt lat="45.91222" lon="6.50444">
        <ele>2205</ele>
        <time>2021-05-20T04:58:24Z</time>
      </trkpt>
      <trkpt lat="45.91221" lon="6.50444">
        <ele>2205</ele>
        <time>2021-05-20T04:58:25Z</time>
      </trkpt>
      <trkpt lat="45.91221" lon="6.50444">
        <ele>2206</ele>
        <time>2021-05-20T04:58:26Z</time>
      </trkpt>
      <trkpt lat="45.91221" lon="6.50444">
        <ele>2207</ele>
        <time>2021-05-20T04:58:27Z</time>
      </trkpt>
      <trkpt lat="45.91218" lon="6.50444">
        <ele>2207</ele>
        <time>2021-05-20T04:58:28Z</time>
      </trkpt>
      <trkpt lat="45.91218" lon="6.50444">
        <ele>2207</ele>
        <time>2021-05-20T04:58:29Z</time>
      </trkpt>
      <trkpt lat="45.91217" lon="6.50443">
        <ele>2208</ele>
        <time>2021-05-20T04:58:30Z</time>
      </trkpt>
      <trkpt lat="45.91216" lon="6.50443">
        <ele>2208</ele>
        <time>2021-05-20T04:58:31Z</time>
      </trkpt>
      <trkpt lat="45.91215" lon="6.50443">
        <ele>2208</ele>
        <time>2021-05-20T04:58:32Z</time>
      </trkpt>
      <trkpt lat="45.91215" lon="6.50443">
        <ele>2208</ele>
        <time>2021-05-20T04:58:33Z</time>
      </trkpt>
      <trkpt lat="45.91214" lon="6.50443">
        <ele>2208</ele>
        <time>2021-05-20T04:58:34Z</time>
      </trkpt>
      <trkpt lat="45.91214" lon="6.50443">
        <ele>2208</ele>
        <time>2021-05-20T04:58:35Z</time>
      </trkpt>
      <trkpt lat="45.91214" lon="6.50443">
        <ele>2208</ele>
        <time>2021-05-20T04:58:36Z</time>
      </trkpt>
      <trkpt lat="45.91214" lon="6.50443">
        <ele>2208</ele>
        <time>2021-05-20T04:58:37Z</time>
      </trkpt>
      <trkpt lat="45.9121" lon="6.5044">
        <ele>2209</ele>
        <time>2021-05-20T04:58:38Z</time>
      </trkpt>
      <trkpt lat="45.9121" lon="6.5044">
        <ele>2209</ele>
        <time>2021-05-20T04:58:39Z</time>
      </trkpt>
      <trkpt lat="45.9121" lon="6.5044">
        <ele>2210</ele>
        <time>2021-05-20T04:58:40Z</time>
      </trkpt>
      <trkpt lat="45.9121" lon="6.5044">
        <ele>2210</ele>
        <time>2021-05-20T04:58:41Z</time>
      </trkpt>
      <trkpt lat="45.9121" lon="6.5044">
        <ele>2210</ele>
        <time>2021-05-20T04:58:42Z</time>
      </trkpt>
      <trkpt lat="45.9121" lon="6.5044">
        <ele>2210</ele>
        <time>2021-05-20T04:58:43Z</time>
      </trkpt>
      <trkpt lat="45.9121" lon="6.5044">
        <ele>2210</ele>
        <time>2021-05-20T04:58:44Z</time>
      </trkpt>
      <trkpt lat="45.9121" lon="6.5044">
        <ele>2211</ele>
        <time>2021-05-20T04:58:45Z</time>
      </trkpt>
      <trkpt lat="45.9121" lon="6.5044">
        <ele>2211</ele>
        <time>2021-05-20T04:58:46Z</time>
      </trkpt>
      <trkpt lat="45.91209" lon="6.50444">
        <ele>2211</ele>
        <time>2021-05-20T04:58:47Z</time>
      </trkpt>
      <trkpt lat="45.91209" lon="6.50444">
        <ele>2211</ele>
        <time>2021-05-20T04:58:48Z</time>
      </trkpt>
      <trkpt lat="45.91209" lon="6.50446">
        <ele>2211</ele>
        <time>2021-05-20T04:58:49Z</time>
      </trkpt>
      <trkpt lat="45.91209" lon="6.50447">
        <ele>2212</ele>
        <time>2021-05-20T04:58:50Z</time>
      </trkpt>
      <trkpt lat="45.91208" lon="6.50449">
        <ele>2212</ele>
        <time>2021-05-20T04:58:51Z</time>
      </trkpt>
      <trkpt lat="45.91208" lon="6.5045">
        <ele>2212</ele>
        <time>2021-05-20T04:58:52Z</time>
      </trkpt>
      <trkpt lat="45.91208" lon="6.5045">
        <ele>2213</ele>
        <time>2021-05-20T04:58:53Z</time>
      </trkpt>
      <trkpt lat="45.91208" lon="6.5045">
        <ele>2213</ele>
        <time>2021-05-20T04:58:54Z</time>
      </trkpt>
      <trkpt lat="45.91208" lon="6.50455">
        <ele>2213</ele>
        <time>2021-05-20T04:58:55Z</time>
      </trkpt>
      <trkpt lat="45.91208" lon="6.50455">
        <ele>2213</ele>
        <time>2021-05-20T04:58:56Z</time>
      </trkpt>
      <trkpt lat="45.91208" lon="6.50455">
        <ele>2213</ele>
        <time>2021-05-20T04:58:57Z</time>
      </trkpt>
      <trkpt lat="45.91208" lon="6.50455">
        <ele>2213</ele>
        <time>2021-05-20T04:58:58Z</time>
      </trkpt>
      <trkpt lat="45.91209" lon="6.5046">
        <ele>2214</ele>
        <time>2021-05-20T04:58:59Z</time>
      </trkpt>
      <trkpt lat="45.91209" lon="6.5046">
        <ele>2215</ele>
        <time>2021-05-20T04:59:00Z</time>
      </trkpt>
      <trkpt lat="45.91209" lon="6.5046">
        <ele>2215</ele>
        <time>2021-05-20T04:59:01Z</time>
      </trkpt>
      <trkpt lat="45.91209" lon="6.5046">
        <ele>2215</ele>
        <time>2021-05-20T04:59:02Z</time>
      </trkpt>
      <trkpt lat="45.91209" lon="6.5046">
        <ele>2215</ele>
        <time>2021-05-20T04:59:03Z</time>
      </trkpt>
      <trkpt lat="45.91208" lon="6.50466">
        <ele>2215</ele>
        <time>2021-05-20T04:59:04Z</time>
      </trkpt>
      <trkpt lat="45.91208" lon="6.50466">
        <ele>2216</ele>
        <time>2021-05-20T04:59:05Z</time>
      </trkpt>
      <trkpt lat="45.91208" lon="6.50467">
        <ele>2216</ele>
        <time>2021-05-20T04:59:06Z</time>
      </trkpt>
      <trkpt lat="45.91208" lon="6.50468">
        <ele>2217</ele>
        <time>2021-05-20T04:59:07Z</time>
      </trkpt>
      <trkpt lat="45.91208" lon="6.50469">
        <ele>2217</ele>
        <time>2021-05-20T04:59:08Z</time>
      </trkpt>
      <trkpt lat="45.91208" lon="6.5047">
        <ele>2217</ele>
        <time>2021-05-20T04:59:09Z</time>
      </trkpt>
      <trkpt lat="45.91208" lon="6.50471">
        <ele>2217</ele>
        <time>2021-05-20T04:59:10Z</time>
      </trkpt>
      <trkpt lat="45.91208" lon="6.50471">
        <ele>2217</ele>
        <time>2021-05-20T04:59:11Z</time>
      </trkpt>
      <trkpt lat="45.91208" lon="6.50471">
        <ele>2217</ele>
        <time>2021-05-20T04:59:12Z</time>
      </trkpt>
      <trkpt lat="45.91208" lon="6.50471">
        <ele>2217</ele>
        <time>2021-05-20T04:59:13Z</time>
      </trkpt>
      <trkpt lat="45.91209" lon="6.50476">
        <ele>2218</ele>
        <time>2021-05-20T04:59:14Z</time>
      </trkpt>
      <trkpt lat="45.91209" lon="6.50476">
        <ele>2218</ele>
        <time>2021-05-20T04:59:15Z</time>
      </trkpt>
      <trkpt lat="45.91209" lon="6.50476">
        <ele>2218</ele>
        <time>2021-05-20T04:59:16Z</time>
      </trkpt>
      <trkpt lat="45.91209" lon="6.50476">
        <ele>2218</ele>
        <time>2021-05-20T04:59:17Z</time>
      </trkpt>
      <trkpt lat="45.91209" lon="6.50476">
        <ele>2218</ele>
        <time>2021-05-20T04:59:18Z</time>
      </trkpt>
      <trkpt lat="45.91209" lon="6.50481">
        <ele>2219</ele>
        <time>2021-05-20T04:59:19Z</time>
      </trkpt>
      <trkpt lat="45.91209" lon="6.50481">
        <ele>2219</ele>
        <time>2021-05-20T04:59:20Z</time>
      </trkpt>
      <trkpt lat="45.91209" lon="6.50481">
        <ele>2220</ele>
        <time>2021-05-20T04:59:21Z</time>
      </trkpt>
      <trkpt lat="45.91209" lon="6.50481">
        <ele>2220</ele>
        <time>2021-05-20T04:59:22Z</time>
      </trkpt>
      <trkpt lat="45.91209" lon="6.50481">
        <ele>2220</ele>
        <time>2021-05-20T04:59:23Z</time>
      </trkpt>
      <trkpt lat="45.91208" lon="6.50486">
        <ele>2220</ele>
        <time>2021-05-20T04:59:24Z</time>
      </trkpt>
      <trkpt lat="45.91208" lon="6.50486">
        <ele>2220</ele>
        <time>2021-05-20T04:59:25Z</time>
      </trkpt>
      <trkpt lat="45.91208" lon="6.50486">
        <ele>2220</ele>
        <time>2021-05-20T04:59:26Z</time>
      </trkpt>
      <trkpt lat="45.91208" lon="6.50486">
        <ele>2221</ele>
        <time>2021-05-20T04:59:27Z</time>
      </trkpt>
      <trkpt lat="45.91208" lon="6.50486">
        <ele>2221</ele>
        <time>2021-05-20T04:59:28Z</time>
      </trkpt>
      <trkpt lat="45.91209" lon="6.50491">
        <ele>2222</ele>
        <time>2021-05-20T04:59:29Z</time>
      </trkpt>
      <trkpt lat="45.91209" lon="6.50491">
        <ele>2222</ele>
        <time>2021-05-20T04:59:30Z</time>
      </trkpt>
      <trkpt lat="45.91209" lon="6.50492">
        <ele>2222</ele>
        <time>2021-05-20T04:59:31Z</time>
      </trkpt>
      <trkpt lat="45.91209" lon="6.50493">
        <ele>2222</ele>
        <time>2021-05-20T04:59:32Z</time>
      </trkpt>
      <trkpt lat="45.91209" lon="6.50495">
        <ele>2222</ele>
        <time>2021-05-20T04:59:33Z</time>
      </trkpt>
      <trkpt lat="45.91209" lon="6.50496">
        <ele>2222</ele>
        <time>2021-05-20T04:59:34Z</time>
      </trkpt>
      <trkpt lat="45.91209" lon="6.50497">
        <ele>2223</ele>
        <time>2021-05-20T04:59:35Z</time>
      </trkpt>
      <trkpt lat="45.91209" lon="6.50497">
        <ele>2223</ele>
        <time>2021-05-20T04:59:36Z</time>
      </trkpt>
      <trkpt lat="45.91209" lon="6.50497">
        <ele>2223</ele>
        <time>2021-05-20T04:59:37Z</time>
      </trkpt>
      <trkpt lat="45.91209" lon="6.50497">
        <ele>2223</ele>
        <time>2021-05-20T04:59:38Z</time>
      </trkpt>
      <trkpt lat="45.91209" lon="6.50497">
        <ele>2225</ele>
        <time>2021-05-20T04:59:39Z</time>
      </trkpt>
      <trkpt lat="45.91208" lon="6.50502">
        <ele>2225</ele>
        <time>2021-05-20T04:59:40Z</time>
      </trkpt>
      <trkpt lat="45.91208" lon="6.50502">
        <ele>2225</ele>
        <time>2021-05-20T04:59:41Z</time>
      </trkpt>
      <trkpt lat="45.91208" lon="6.50503">
        <ele>2225</ele>
        <time>2021-05-20T04:59:42Z</time>
      </trkpt>
      <trkpt lat="45.91208" lon="6.50504">
        <ele>2225</ele>
        <time>2021-05-20T04:59:43Z</time>
      </trkpt>
      <trkpt lat="45.91208" lon="6.50504">
        <ele>2226</ele>
        <time>2021-05-20T04:59:44Z</time>
      </trkpt>
      <trkpt lat="45.91207" lon="6.50505">
        <ele>2226</ele>
        <time>2021-05-20T04:59:45Z</time>
      </trkpt>
      <trkpt lat="45.91207" lon="6.50506">
        <ele>2226</ele>
        <time>2021-05-20T04:59:46Z</time>
      </trkpt>
      <trkpt lat="45.91207" lon="6.50507">
        <ele>2227</ele>
        <time>2021-05-20T04:59:47Z</time>
      </trkpt>
      <trkpt lat="45.91207" lon="6.50507">
        <ele>2228</ele>
        <time>2021-05-20T04:59:48Z</time>
      </trkpt>
      <trkpt lat="45.91207" lon="6.50507">
        <ele>2228</ele>
        <time>2021-05-20T04:59:49Z</time>
      </trkpt>
      <trkpt lat="45.91207" lon="6.50507">
        <ele>2228</ele>
        <time>2021-05-20T04:59:50Z</time>
      </trkpt>
      <trkpt lat="45.91207" lon="6.50507">
        <ele>2228</ele>
        <time>2021-05-20T04:59:51Z</time>
      </trkpt>
      <trkpt lat="45.91207" lon="6.50507">
        <ele>2229</ele>
        <time>2021-05-20T04:59:52Z</time>
      </trkpt>
      <trkpt lat="45.91205" lon="6.50509">
        <ele>2229</ele>
        <time>2021-05-20T04:59:53Z</time>
      </trkpt>
      <trkpt lat="45.91205" lon="6.50509">
        <ele>2229</ele>
        <time>2021-05-20T04:59:54Z</time>
      </trkpt>
      <trkpt lat="45.91205" lon="6.50509">
        <ele>2229</ele>
        <time>2021-05-20T04:59:55Z</time>
      </trkpt>
      <trkpt lat="45.91205" lon="6.50509">
        <ele>2229</ele>
        <time>2021-05-20T04:59:56Z</time>
      </trkpt>
      <trkpt lat="45.91205" lon="6.50509">
        <ele>2229</ele>
        <time>2021-05-20T04:59:57Z</time>
      </trkpt>
      <trkpt lat="45.91205" lon="6.50509">
        <ele>2229</ele>
        <time>2021-05-20T04:59:58Z</time>
      </trkpt>
      <trkpt lat="45.91202" lon="6.50506">
        <ele>2229</ele>
        <time>2021-05-20T04:59:59Z</time>
      </trkpt>
      <trkpt lat="45.91202" lon="6.50506">
        <ele>2229</ele>
        <time>2021-05-20T05:00:00Z</time>
      </trkpt>
      <trkpt lat="45.91202" lon="6.50506">
        <ele>2229</ele>
        <time>2021-05-20T05:00:01Z</time>
      </trkpt>
      <trkpt lat="45.91202" lon="6.50506">
        <ele>2230</ele>
        <time>2021-05-20T05:00:02Z</time>
      </trkpt>
      <trkpt lat="45.91202" lon="6.50506">
        <ele>2230</ele>
        <time>2021-05-20T05:00:03Z</time>
      </trkpt>
      <trkpt lat="45.91199" lon="6.50503">
        <ele>2231</ele>
        <time>2021-05-20T05:00:04Z</time>
      </trkpt>
      <trkpt lat="45.91199" lon="6.50503">
        <ele>2231</ele>
        <time>2021-05-20T05:00:05Z</time>
      </trkpt>
      <trkpt lat="45.91199" lon="6.50503">
        <ele>2231</ele>
        <time>2021-05-20T05:00:06Z</time>
      </trkpt>
      <trkpt lat="45.91199" lon="6.50503">
        <ele>2231</ele>
        <time>2021-05-20T05:00:07Z</time>
      </trkpt>
      <trkpt lat="45.91199" lon="6.50503">
        <ele>2231</ele>
        <time>2021-05-20T05:00:08Z</time>
      </trkpt>
      <trkpt lat="45.91196" lon="6.50502">
        <ele>2232</ele>
        <time>2021-05-20T05:00:09Z</time>
      </trkpt>
      <trkpt lat="45.91196" lon="6.50502">
        <ele>2232</ele>
        <time>2021-05-20T05:00:10Z</time>
      </trkpt>
      <trkpt lat="45.91195" lon="6.50502">
        <ele>2232</ele>
        <time>2021-05-20T05:00:11Z</time>
      </trkpt>
      <trkpt lat="45.91194" lon="6.50501">
        <ele>2232</ele>
        <time>2021-05-20T05:00:12Z</time>
      </trkpt>
      <trkpt lat="45.91194" lon="6.50501">
        <ele>2232</ele>
        <time>2021-05-20T05:00:13Z</time>
      </trkpt>
      <trkpt lat="45.91193" lon="6.50501">
        <ele>2232</ele>
        <time>2021-05-20T05:00:14Z</time>
      </trkpt>
      <trkpt lat="45.91193" lon="6.50501">
        <ele>2233</ele>
        <time>2021-05-20T05:00:15Z</time>
      </trkpt>
      <trkpt lat="45.91192" lon="6.505">
        <ele>2233</ele>
        <time>2021-05-20T05:00:16Z</time>
      </trkpt>
      <trkpt lat="45.91192" lon="6.505">
        <ele>2233</ele>
        <time>2021-05-20T05:00:17Z</time>
      </trkpt>
      <trkpt lat="45.91192" lon="6.505">
        <ele>2233</ele>
        <time>2021-05-20T05:00:18Z</time>
      </trkpt>
      <trkpt lat="45.91192" lon="6.505">
        <ele>2234</ele>
        <time>2021-05-20T05:00:19Z</time>
      </trkpt>
      <trkpt lat="45.91192" lon="6.505">
        <ele>2234</ele>
        <time>2021-05-20T05:00:20Z</time>
      </trkpt>
      <trkpt lat="45.91192" lon="6.505">
        <ele>2234</ele>
        <time>2021-05-20T05:00:21Z</time>
      </trkpt>
      <trkpt lat="45.91188" lon="6.50499">
        <ele>2235</ele>
        <time>2021-05-20T05:00:22Z</time>
      </trkpt>
      <trkpt lat="45.91188" lon="6.50499">
        <ele>2235</ele>
        <time>2021-05-20T05:00:23Z</time>
      </trkpt>
      <trkpt lat="45.91188" lon="6.50499">
        <ele>2236</ele>
        <time>2021-05-20T05:00:24Z</time>
      </trkpt>
      <trkpt lat="45.91187" lon="6.50499">
        <ele>2236</ele>
        <time>2021-05-20T05:00:25Z</time>
      </trkpt>
      <trkpt lat="45.91186" lon="6.50498">
        <ele>2236</ele>
        <time>2021-05-20T05:00:26Z</time>
      </trkpt>
      <trkpt lat="45.91186" lon="6.50498">
        <ele>2236</ele>
        <time>2021-05-20T05:00:27Z</time>
      </trkpt>
      <trkpt lat="45.91185" lon="6.50498">
        <ele>2237</ele>
        <time>2021-05-20T05:00:28Z</time>
      </trkpt>
      <trkpt lat="45.91185" lon="6.50497">
        <ele>2237</ele>
        <time>2021-05-20T05:00:29Z</time>
      </trkpt>
      <trkpt lat="45.91185" lon="6.50498">
        <ele>2237</ele>
        <time>2021-05-20T05:00:30Z</time>
      </trkpt>
      <trkpt lat="45.91185" lon="6.50498">
        <ele>2237</ele>
        <time>2021-05-20T05:00:31Z</time>
      </trkpt>
      <trkpt lat="45.91184" lon="6.50498">
        <ele>2237</ele>
        <time>2021-05-20T05:00:32Z</time>
      </trkpt>
      <trkpt lat="45.91184" lon="6.50498">
        <ele>2237</ele>
        <time>2021-05-20T05:00:33Z</time>
      </trkpt>
      <trkpt lat="45.91184" lon="6.50499">
        <ele>2237</ele>
        <time>2021-05-20T05:00:34Z</time>
      </trkpt>
      <trkpt lat="45.91184" lon="6.50499">
        <ele>2237</ele>
        <time>2021-05-20T05:00:35Z</time>
      </trkpt>
      <trkpt lat="45.91184" lon="6.50499">
        <ele>2238</ele>
        <time>2021-05-20T05:00:36Z</time>
      </trkpt>
      <trkpt lat="45.91184" lon="6.50499">
        <ele>2238</ele>
        <time>2021-05-20T05:00:37Z</time>
      </trkpt>
      <trkpt lat="45.91184" lon="6.50499">
        <ele>2238</ele>
        <time>2021-05-20T05:00:38Z</time>
      </trkpt>
      <trkpt lat="45.91184" lon="6.505">
        <ele>2238</ele>
        <time>2021-05-20T05:00:39Z</time>
      </trkpt>
      <trkpt lat="45.91184" lon="6.505">
        <ele>2238</ele>
        <time>2021-05-20T05:00:40Z</time>
      </trkpt>
      <trkpt lat="45.91184" lon="6.505">
        <ele>2238</ele>
        <time>2021-05-20T05:00:41Z</time>
      </trkpt>
      <trkpt lat="45.91184" lon="6.505">
        <ele>2238</ele>
        <time>2021-05-20T05:00:42Z</time>
      </trkpt>
      <trkpt lat="45.91184" lon="6.50501">
        <ele>2238</ele>
        <time>2021-05-20T05:00:43Z</time>
      </trkpt>
      <trkpt lat="45.91184" lon="6.50501">
        <ele>2238</ele>
        <time>2021-05-20T05:00:44Z</time>
      </trkpt>
      <trkpt lat="45.91184" lon="6.50501">
        <ele>2238</ele>
        <time>2021-05-20T05:00:45Z</time>
      </trkpt>
      <trkpt lat="45.91184" lon="6.50501">
        <ele>2238</ele>
        <time>2021-05-20T05:00:46Z</time>
      </trkpt>
      <trkpt lat="45.91184" lon="6.50502">
        <ele>2238</ele>
        <time>2021-05-20T05:00:47Z</time>
      </trkpt>
      <trkpt lat="45.91184" lon="6.50502">
        <ele>2238</ele>
        <time>2021-05-20T05:00:48Z</time>
      </trkpt>
      <trkpt lat="45.91184" lon="6.50502">
        <ele>2238</ele>
        <time>2021-05-20T05:00:49Z</time>
      </trkpt>
      <trkpt lat="45.91184" lon="6.50502">
        <ele>2238</ele>
        <time>2021-05-20T05:00:50Z</time>
      </trkpt>
      <trkpt lat="45.91183" lon="6.50503">
        <ele>2238</ele>
        <time>2021-05-20T05:00:51Z</time>
      </trkpt>
      <trkpt lat="45.91183" lon="6.50503">
        <ele>2238</ele>
        <time>2021-05-20T05:00:52Z</time>
      </trkpt>
      <trkpt lat="45.91183" lon="6.50503">
        <ele>2238</ele>
        <time>2021-05-20T05:00:53Z</time>
      </trkpt>
      <trkpt lat="45.91183" lon="6.50503">
        <ele>2238</ele>
        <time>2021-05-20T05:00:54Z</time>
      </trkpt>
      <trkpt lat="45.91183" lon="6.50503">
        <ele>2239</ele>
        <time>2021-05-20T05:00:55Z</time>
      </trkpt>
      <trkpt lat="45.91183" lon="6.50503">
        <ele>2239</ele>
        <time>2021-05-20T05:00:56Z</time>
      </trkpt>
      <trkpt lat="45.91183" lon="6.50508">
        <ele>2239</ele>
        <time>2021-05-20T05:00:57Z</time>
      </trkpt>
      <trkpt lat="45.91183" lon="6.50508">
        <ele>2239</ele>
        <time>2021-05-20T05:00:58Z</time>
      </trkpt>
      <trkpt lat="45.91183" lon="6.50509">
        <ele>2239</ele>
        <time>2021-05-20T05:00:59Z</time>
      </trkpt>
      <trkpt lat="45.91183" lon="6.50511">
        <ele>2240</ele>
        <time>2021-05-20T05:01:00Z</time>
      </trkpt>
      <trkpt lat="45.91183" lon="6.50512">
        <ele>2240</ele>
        <time>2021-05-20T05:01:01Z</time>
      </trkpt>
      <trkpt lat="45.91183" lon="6.50513">
        <ele>2240</ele>
        <time>2021-05-20T05:01:02Z</time>
      </trkpt>
      <trkpt lat="45.91183" lon="6.50514">
        <ele>2240</ele>
        <time>2021-05-20T05:01:03Z</time>
      </trkpt>
      <trkpt lat="45.91183" lon="6.50514">
        <ele>2240</ele>
        <time>2021-05-20T05:01:04Z</time>
      </trkpt>
      <trkpt lat="45.91183" lon="6.50514">
        <ele>2241</ele>
        <time>2021-05-20T05:01:05Z</time>
      </trkpt>
      <trkpt lat="45.91183" lon="6.50514">
        <ele>2241</ele>
        <time>2021-05-20T05:01:06Z</time>
      </trkpt>
      <trkpt lat="45.91183" lon="6.50519">
        <ele>2241</ele>
        <time>2021-05-20T05:01:07Z</time>
      </trkpt>
      <trkpt lat="45.91183" lon="6.50519">
        <ele>2242</ele>
        <time>2021-05-20T05:01:08Z</time>
      </trkpt>
      <trkpt lat="45.91183" lon="6.50521">
        <ele>2242</ele>
        <time>2021-05-20T05:01:09Z</time>
      </trkpt>
      <trkpt lat="45.91183" lon="6.50522">
        <ele>2242</ele>
        <time>2021-05-20T05:01:10Z</time>
      </trkpt>
      <trkpt lat="45.91182" lon="6.50523">
        <ele>2242</ele>
        <time>2021-05-20T05:01:11Z</time>
      </trkpt>
      <trkpt lat="45.91182" lon="6.50524">
        <ele>2243</ele>
        <time>2021-05-20T05:01:12Z</time>
      </trkpt>
      <trkpt lat="45.91182" lon="6.50525">
        <ele>2243</ele>
        <time>2021-05-20T05:01:13Z</time>
      </trkpt>
      <trkpt lat="45.91182" lon="6.50525">
        <ele>2243</ele>
        <time>2021-05-20T05:01:14Z</time>
      </trkpt>
      <trkpt lat="45.91182" lon="6.50525">
        <ele>2243</ele>
        <time>2021-05-20T05:01:15Z</time>
      </trkpt>
      <trkpt lat="45.91182" lon="6.50525">
        <ele>2243</ele>
        <time>2021-05-20T05:01:16Z</time>
      </trkpt>
      <trkpt lat="45.91183" lon="6.5053">
        <ele>2243</ele>
        <time>2021-05-20T05:01:17Z</time>
      </trkpt>
      <trkpt lat="45.91183" lon="6.5053">
        <ele>2244</ele>
        <time>2021-05-20T05:01:18Z</time>
      </trkpt>
      <trkpt lat="45.91183" lon="6.50531">
        <ele>2244</ele>
        <time>2021-05-20T05:01:19Z</time>
      </trkpt>
      <trkpt lat="45.91183" lon="6.50532">
        <ele>2244</ele>
        <time>2021-05-20T05:01:20Z</time>
      </trkpt>
      <trkpt lat="45.91183" lon="6.50533">
        <ele>2245</ele>
        <time>2021-05-20T05:01:21Z</time>
      </trkpt>
      <trkpt lat="45.91182" lon="6.50534">
        <ele>2245</ele>
        <time>2021-05-20T05:01:22Z</time>
      </trkpt>
      <trkpt lat="45.91182" lon="6.50535">
        <ele>2246</ele>
        <time>2021-05-20T05:01:23Z</time>
      </trkpt>
      <trkpt lat="45.91182" lon="6.50536">
        <ele>2246</ele>
        <time>2021-05-20T05:01:24Z</time>
      </trkpt>
      <trkpt lat="45.91183" lon="6.50537">
        <ele>2246</ele>
        <time>2021-05-20T05:01:25Z</time>
      </trkpt>
      <trkpt lat="45.91183" lon="6.50538">
        <ele>2246</ele>
        <time>2021-05-20T05:01:26Z</time>
      </trkpt>
      <trkpt lat="45.91183" lon="6.50539">
        <ele>2247</ele>
        <time>2021-05-20T05:01:27Z</time>
      </trkpt>
      <trkpt lat="45.91183" lon="6.50539">
        <ele>2247</ele>
        <time>2021-05-20T05:01:28Z</time>
      </trkpt>
      <trkpt lat="45.91183" lon="6.5054">
        <ele>2247</ele>
        <time>2021-05-20T05:01:29Z</time>
      </trkpt>
      <trkpt lat="45.91183" lon="6.50541">
        <ele>2247</ele>
        <time>2021-05-20T05:01:30Z</time>
      </trkpt>
      <trkpt lat="45.91183" lon="6.50541">
        <ele>2248</ele>
        <time>2021-05-20T05:01:31Z</time>
      </trkpt>
      <trkpt lat="45.91183" lon="6.50541">
        <ele>2248</ele>
        <time>2021-05-20T05:01:32Z</time>
      </trkpt>
      <trkpt lat="45.91183" lon="6.50541">
        <ele>2248</ele>
        <time>2021-05-20T05:01:33Z</time>
      </trkpt>
      <trkpt lat="45.91184" lon="6.50546">
        <ele>2248</ele>
        <time>2021-05-20T05:01:34Z</time>
      </trkpt>
      <trkpt lat="45.91184" lon="6.50546">
        <ele>2248</ele>
        <time>2021-05-20T05:01:35Z</time>
      </trkpt>
      <trkpt lat="45.91184" lon="6.50546">
        <ele>2248</ele>
        <time>2021-05-20T05:01:36Z</time>
      </trkpt>
      <trkpt lat="45.91184" lon="6.50546">
        <ele>2249</ele>
        <time>2021-05-20T05:01:37Z</time>
      </trkpt>
      <trkpt lat="45.91184" lon="6.50546">
        <ele>2249</ele>
        <time>2021-05-20T05:01:38Z</time>
      </trkpt>
      <trkpt lat="45.91185" lon="6.50551">
        <ele>2249</ele>
        <time>2021-05-20T05:01:39Z</time>
      </trkpt>
      <trkpt lat="45.91185" lon="6.50551">
        <ele>2249</ele>
        <time>2021-05-20T05:01:40Z</time>
      </trkpt>
      <trkpt lat="45.91184" lon="6.50551">
        <ele>2251</ele>
        <time>2021-05-20T05:01:41Z</time>
      </trkpt>
      <trkpt lat="45.91184" lon="6.50551">
        <ele>2252</ele>
        <time>2021-05-20T05:01:42Z</time>
      </trkpt>
      <trkpt lat="45.91183" lon="6.5055">
        <ele>2252</ele>
        <time>2021-05-20T05:01:43Z</time>
      </trkpt>
      <trkpt lat="45.91183" lon="6.5055">
        <ele>2252</ele>
        <time>2021-05-20T05:01:44Z</time>
      </trkpt>
      <trkpt lat="45.91182" lon="6.5055">
        <ele>2252</ele>
        <time>2021-05-20T05:01:45Z</time>
      </trkpt>
      <trkpt lat="45.91182" lon="6.5055">
        <ele>2252</ele>
        <time>2021-05-20T05:01:46Z</time>
      </trkpt>
      <trkpt lat="45.91181" lon="6.50549">
        <ele>2253</ele>
        <time>2021-05-20T05:01:47Z</time>
      </trkpt>
      <trkpt lat="45.91181" lon="6.50549">
        <ele>2253</ele>
        <time>2021-05-20T05:01:48Z</time>
      </trkpt>
      <trkpt lat="45.9118" lon="6.50549">
        <ele>2253</ele>
        <time>2021-05-20T05:01:49Z</time>
      </trkpt>
      <trkpt lat="45.91179" lon="6.50548">
        <ele>2254</ele>
        <time>2021-05-20T05:01:50Z</time>
      </trkpt>
      <trkpt lat="45.91179" lon="6.50548">
        <ele>2254</ele>
        <time>2021-05-20T05:01:51Z</time>
      </trkpt>
      <trkpt lat="45.91178" lon="6.50548">
        <ele>2254</ele>
        <time>2021-05-20T05:01:52Z</time>
      </trkpt>
      <trkpt lat="45.91177" lon="6.50547">
        <ele>2254</ele>
        <time>2021-05-20T05:01:53Z</time>
      </trkpt>
      <trkpt lat="45.91176" lon="6.50547">
        <ele>2254</ele>
        <time>2021-05-20T05:01:54Z</time>
      </trkpt>
      <trkpt lat="45.91176" lon="6.50546">
        <ele>2255</ele>
        <time>2021-05-20T05:01:55Z</time>
      </trkpt>
      <trkpt lat="45.91175" lon="6.50545">
        <ele>2255</ele>
        <time>2021-05-20T05:01:56Z</time>
      </trkpt>
      <trkpt lat="45.91174" lon="6.50545">
        <ele>2255</ele>
        <time>2021-05-20T05:01:57Z</time>
      </trkpt>
      <trkpt lat="45.91173" lon="6.50544">
        <ele>2255</ele>
        <time>2021-05-20T05:01:58Z</time>
      </trkpt>
      <trkpt lat="45.91173" lon="6.50544">
        <ele>2255</ele>
        <time>2021-05-20T05:01:59Z</time>
      </trkpt>
      <trkpt lat="45.91173" lon="6.50544">
        <ele>2255</ele>
        <time>2021-05-20T05:02:00Z</time>
      </trkpt>
      <trkpt lat="45.91173" lon="6.50544">
        <ele>2255</ele>
        <time>2021-05-20T05:02:01Z</time>
      </trkpt>
      <trkpt lat="45.9117" lon="6.50541">
        <ele>2255</ele>
        <time>2021-05-20T05:02:02Z</time>
      </trkpt>
      <trkpt lat="45.9117" lon="6.50541">
        <ele>2256</ele>
        <time>2021-05-20T05:02:03Z</time>
      </trkpt>
      <trkpt lat="45.9117" lon="6.50541">
        <ele>2256</ele>
        <time>2021-05-20T05:02:04Z</time>
      </trkpt>
      <trkpt lat="45.9117" lon="6.50541">
        <ele>2256</ele>
        <time>2021-05-20T05:02:05Z</time>
      </trkpt>
      <trkpt lat="45.91167" lon="6.50537">
        <ele>2256</ele>
        <time>2021-05-20T05:02:06Z</time>
      </trkpt>
      <trkpt lat="45.91167" lon="6.50537">
        <ele>2256</ele>
        <time>2021-05-20T05:02:07Z</time>
      </trkpt>
      <trkpt lat="45.91167" lon="6.50537">
        <ele>2256</ele>
        <time>2021-05-20T05:02:08Z</time>
      </trkpt>
      <trkpt lat="45.91166" lon="6.50536">
        <ele>2257</ele>
        <time>2021-05-20T05:02:09Z</time>
      </trkpt>
      <trkpt lat="45.91165" lon="6.50535">
        <ele>2257</ele>
        <time>2021-05-20T05:02:10Z</time>
      </trkpt>
      <trkpt lat="45.91165" lon="6.50535">
        <ele>2258</ele>
        <time>2021-05-20T05:02:11Z</time>
      </trkpt>
      <trkpt lat="45.91164" lon="6.50534">
        <ele>2258</ele>
        <time>2021-05-20T05:02:12Z</time>
      </trkpt>
      <trkpt lat="45.91163" lon="6.50534">
        <ele>2258</ele>
        <time>2021-05-20T05:02:13Z</time>
      </trkpt>
      <trkpt lat="45.91163" lon="6.50533">
        <ele>2258</ele>
        <time>2021-05-20T05:02:14Z</time>
      </trkpt>
      <trkpt lat="45.91162" lon="6.50533">
        <ele>2258</ele>
        <time>2021-05-20T05:02:15Z</time>
      </trkpt>
      <trkpt lat="45.91162" lon="6.50533">
        <ele>2259</ele>
        <time>2021-05-20T05:02:16Z</time>
      </trkpt>
      <trkpt lat="45.91162" lon="6.50532">
        <ele>2259</ele>
        <time>2021-05-20T05:02:17Z</time>
      </trkpt>
      <trkpt lat="45.91161" lon="6.50532">
        <ele>2259</ele>
        <time>2021-05-20T05:02:18Z</time>
      </trkpt>
      <trkpt lat="45.91161" lon="6.50531">
        <ele>2260</ele>
        <time>2021-05-20T05:02:19Z</time>
      </trkpt>
      <trkpt lat="45.91161" lon="6.50531">
        <ele>2260</ele>
        <time>2021-05-20T05:02:20Z</time>
      </trkpt>
      <trkpt lat="45.91161" lon="6.50531">
        <ele>2260</ele>
        <time>2021-05-20T05:02:21Z</time>
      </trkpt>
      <trkpt lat="45.91161" lon="6.50531">
        <ele>2260</ele>
        <time>2021-05-20T05:02:22Z</time>
      </trkpt>
      <trkpt lat="45.91161" lon="6.50531">
        <ele>2260</ele>
        <time>2021-05-20T05:02:23Z</time>
      </trkpt>
      <trkpt lat="45.9116" lon="6.50538">
        <ele>2260</ele>
        <time>2021-05-20T05:02:24Z</time>
      </trkpt>
      <trkpt lat="45.9116" lon="6.50538">
        <ele>2260</ele>
        <time>2021-05-20T05:02:25Z</time>
      </trkpt>
      <trkpt lat="45.9116" lon="6.50539">
        <ele>2261</ele>
        <time>2021-05-20T05:02:26Z</time>
      </trkpt>
      <trkpt lat="45.9116" lon="6.50541">
        <ele>2261</ele>
        <time>2021-05-20T05:02:27Z</time>
      </trkpt>
      <trkpt lat="45.9116" lon="6.50542">
        <ele>2261</ele>
        <time>2021-05-20T05:02:28Z</time>
      </trkpt>
      <trkpt lat="45.9116" lon="6.50543">
        <ele>2261</ele>
        <time>2021-05-20T05:02:29Z</time>
      </trkpt>
      <trkpt lat="45.9116" lon="6.50543">
        <ele>2261</ele>
        <time>2021-05-20T05:02:30Z</time>
      </trkpt>
      <trkpt lat="45.9116" lon="6.50543">
        <ele>2262</ele>
        <time>2021-05-20T05:02:31Z</time>
      </trkpt>
      <trkpt lat="45.9116" lon="6.50543">
        <ele>2262</ele>
        <time>2021-05-20T05:02:32Z</time>
      </trkpt>
      <trkpt lat="45.9116" lon="6.50549">
        <ele>2262</ele>
        <time>2021-05-20T05:02:33Z</time>
      </trkpt>
      <trkpt lat="45.9116" lon="6.50549">
        <ele>2263</ele>
        <time>2021-05-20T05:02:34Z</time>
      </trkpt>
      <trkpt lat="45.9116" lon="6.5055">
        <ele>2263</ele>
        <time>2021-05-20T05:02:35Z</time>
      </trkpt>
      <trkpt lat="45.9116" lon="6.50551">
        <ele>2263</ele>
        <time>2021-05-20T05:02:36Z</time>
      </trkpt>
      <trkpt lat="45.9116" lon="6.50552">
        <ele>2263</ele>
        <time>2021-05-20T05:02:37Z</time>
      </trkpt>
      <trkpt lat="45.9116" lon="6.50553">
        <ele>2264</ele>
        <time>2021-05-20T05:02:38Z</time>
      </trkpt>
      <trkpt lat="45.9116" lon="6.50554">
        <ele>2264</ele>
        <time>2021-05-20T05:02:39Z</time>
      </trkpt>
      <trkpt lat="45.9116" lon="6.50554">
        <ele>2264</ele>
        <time>2021-05-20T05:02:40Z</time>
      </trkpt>
      <trkpt lat="45.9116" lon="6.50554">
        <ele>2264</ele>
        <time>2021-05-20T05:02:41Z</time>
      </trkpt>
      <trkpt lat="45.9116" lon="6.50554">
        <ele>2264</ele>
        <time>2021-05-20T05:02:42Z</time>
      </trkpt>
      <trkpt lat="45.9116" lon="6.50554">
        <ele>2264</ele>
        <time>2021-05-20T05:02:43Z</time>
      </trkpt>
      <trkpt lat="45.91161" lon="6.5056">
        <ele>2264</ele>
        <time>2021-05-20T05:02:44Z</time>
      </trkpt>
      <trkpt lat="45.91161" lon="6.5056">
        <ele>2265</ele>
        <time>2021-05-20T05:02:45Z</time>
      </trkpt>
      <trkpt lat="45.91161" lon="6.50561">
        <ele>2265</ele>
        <time>2021-05-20T05:02:46Z</time>
      </trkpt>
      <trkpt lat="45.91161" lon="6.50562">
        <ele>2265</ele>
        <time>2021-05-20T05:02:47Z</time>
      </trkpt>
      <trkpt lat="45.91162" lon="6.50563">
        <ele>2266</ele>
        <time>2021-05-20T05:02:48Z</time>
      </trkpt>
      <trkpt lat="45.91162" lon="6.50564">
        <ele>2266</ele>
        <time>2021-05-20T05:02:49Z</time>
      </trkpt>
      <trkpt lat="45.91162" lon="6.50565">
        <ele>2266</ele>
        <time>2021-05-20T05:02:50Z</time>
      </trkpt>
      <trkpt lat="45.91162" lon="6.50565">
        <ele>2266</ele>
        <time>2021-05-20T05:02:51Z</time>
      </trkpt>
      <trkpt lat="45.91162" lon="6.50565">
        <ele>2267</ele>
        <time>2021-05-20T05:02:52Z</time>
      </trkpt>
      <trkpt lat="45.91162" lon="6.50565">
        <ele>2267</ele>
        <time>2021-05-20T05:02:53Z</time>
      </trkpt>
      <trkpt lat="45.91162" lon="6.50565">
        <ele>2268</ele>
        <time>2021-05-20T05:02:54Z</time>
      </trkpt>
      <trkpt lat="45.91162" lon="6.50565">
        <ele>2268</ele>
        <time>2021-05-20T05:02:55Z</time>
      </trkpt>
      <trkpt lat="45.91162" lon="6.50565">
        <ele>2268</ele>
        <time>2021-05-20T05:02:56Z</time>
      </trkpt>
      <trkpt lat="45.91158" lon="6.50564">
        <ele>2268</ele>
        <time>2021-05-20T05:02:57Z</time>
      </trkpt>
      <trkpt lat="45.91158" lon="6.50564">
        <ele>2268</ele>
        <time>2021-05-20T05:02:58Z</time>
      </trkpt>
      <trkpt lat="45.91158" lon="6.50563">
        <ele>2268</ele>
        <time>2021-05-20T05:02:59Z</time>
      </trkpt>
      <trkpt lat="45.91157" lon="6.50563">
        <ele>2269</ele>
        <time>2021-05-20T05:03:00Z</time>
      </trkpt>
      <trkpt lat="45.91157" lon="6.50563">
        <ele>2269</ele>
        <time>2021-05-20T05:03:01Z</time>
      </trkpt>
      <trkpt lat="45.91156" lon="6.50562">
        <ele>2269</ele>
        <time>2021-05-20T05:03:02Z</time>
      </trkpt>
      <trkpt lat="45.91155" lon="6.50562">
        <ele>2269</ele>
        <time>2021-05-20T05:03:03Z</time>
      </trkpt>
      <trkpt lat="45.91155" lon="6.50561">
        <ele>2269</ele>
        <time>2021-05-20T05:03:04Z</time>
      </trkpt>
      <trkpt lat="45.91155" lon="6.50561">
        <ele>2269</ele>
        <time>2021-05-20T05:03:05Z</time>
      </trkpt>
      <trkpt lat="45.91155" lon="6.50561">
        <ele>2269</ele>
        <time>2021-05-20T05:03:06Z</time>
      </trkpt>
      <trkpt lat="45.91151" lon="6.5056">
        <ele>2269</ele>
        <time>2021-05-20T05:03:07Z</time>
      </trkpt>
      <trkpt lat="45.91151" lon="6.5056">
        <ele>2270</ele>
        <time>2021-05-20T05:03:08Z</time>
      </trkpt>
      <trkpt lat="45.91151" lon="6.5056">
        <ele>2270</ele>
        <time>2021-05-20T05:03:09Z</time>
      </trkpt>
      <trkpt lat="45.91151" lon="6.5056">
        <ele>2271</ele>
        <time>2021-05-20T05:03:10Z</time>
      </trkpt>
      <trkpt lat="45.91151" lon="6.5056">
        <ele>2271</ele>
        <time>2021-05-20T05:03:11Z</time>
      </trkpt>
      <trkpt lat="45.91148" lon="6.50557">
        <ele>2271</ele>
        <time>2021-05-20T05:03:12Z</time>
      </trkpt>
      <trkpt lat="45.91148" lon="6.50557">
        <ele>2271</ele>
        <time>2021-05-20T05:03:13Z</time>
      </trkpt>
      <trkpt lat="45.91148" lon="6.50557">
        <ele>2271</ele>
        <time>2021-05-20T05:03:14Z</time>
      </trkpt>
      <trkpt lat="45.91148" lon="6.50557">
        <ele>2272</ele>
        <time>2021-05-20T05:03:15Z</time>
      </trkpt>
      <trkpt lat="45.91148" lon="6.50557">
        <ele>2273</ele>
        <time>2021-05-20T05:03:16Z</time>
      </trkpt>
      <trkpt lat="45.91146" lon="6.50555">
        <ele>2273</ele>
        <time>2021-05-20T05:03:17Z</time>
      </trkpt>
      <trkpt lat="45.91146" lon="6.50555">
        <ele>2273</ele>
        <time>2021-05-20T05:03:18Z</time>
      </trkpt>
      <trkpt lat="45.91145" lon="6.50554">
        <ele>2273</ele>
        <time>2021-05-20T05:03:19Z</time>
      </trkpt>
      <trkpt lat="45.91145" lon="6.50554">
        <ele>2273</ele>
        <time>2021-05-20T05:03:20Z</time>
      </trkpt>
      <trkpt lat="45.91144" lon="6.50553">
        <ele>2274</ele>
        <time>2021-05-20T05:03:21Z</time>
      </trkpt>
      <trkpt lat="45.91143" lon="6.50553">
        <ele>2274</ele>
        <time>2021-05-20T05:03:22Z</time>
      </trkpt>
      <trkpt lat="45.91143" lon="6.50553">
        <ele>2274</ele>
        <time>2021-05-20T05:03:23Z</time>
      </trkpt>
      <trkpt lat="45.91142" lon="6.50552">
        <ele>2274</ele>
        <time>2021-05-20T05:03:24Z</time>
      </trkpt>
      <trkpt lat="45.91142" lon="6.50552">
        <ele>2274</ele>
        <time>2021-05-20T05:03:25Z</time>
      </trkpt>
      <trkpt lat="45.91142" lon="6.50552">
        <ele>2274</ele>
        <time>2021-05-20T05:03:26Z</time>
      </trkpt>
      <trkpt lat="45.91142" lon="6.50552">
        <ele>2275</ele>
        <time>2021-05-20T05:03:27Z</time>
      </trkpt>
      <trkpt lat="45.91139" lon="6.50549">
        <ele>2275</ele>
        <time>2021-05-20T05:03:28Z</time>
      </trkpt>
      <trkpt lat="45.91139" lon="6.50549">
        <ele>2277</ele>
        <time>2021-05-20T05:03:29Z</time>
      </trkpt>
      <trkpt lat="45.91139" lon="6.50549">
        <ele>2277</ele>
        <time>2021-05-20T05:03:30Z</time>
      </trkpt>
      <trkpt lat="45.91139" lon="6.5055">
        <ele>2277</ele>
        <time>2021-05-20T05:03:31Z</time>
      </trkpt>
      <trkpt lat="45.91139" lon="6.50551">
        <ele>2277</ele>
        <time>2021-05-20T05:03:32Z</time>
      </trkpt>
      <trkpt lat="45.91139" lon="6.50552">
        <ele>2277</ele>
        <time>2021-05-20T05:03:33Z</time>
      </trkpt>
      <trkpt lat="45.91139" lon="6.50552">
        <ele>2277</ele>
        <time>2021-05-20T05:03:34Z</time>
      </trkpt>
      <trkpt lat="45.91139" lon="6.50553">
        <ele>2277</ele>
        <time>2021-05-20T05:03:35Z</time>
      </trkpt>
      <trkpt lat="45.91139" lon="6.50554">
        <ele>2277</ele>
        <time>2021-05-20T05:03:36Z</time>
      </trkpt>
      <trkpt lat="45.91139" lon="6.50554">
        <ele>2278</ele>
        <time>2021-05-20T05:03:37Z</time>
      </trkpt>
      <trkpt lat="45.91138" lon="6.50556">
        <ele>2278</ele>
        <time>2021-05-20T05:03:38Z</time>
      </trkpt>
      <trkpt lat="45.91138" lon="6.50557">
        <ele>2278</ele>
        <time>2021-05-20T05:03:39Z</time>
      </trkpt>
      <trkpt lat="45.91138" lon="6.50558">
        <ele>2278</ele>
        <time>2021-05-20T05:03:40Z</time>
      </trkpt>
      <trkpt lat="45.91138" lon="6.50559">
        <ele>2278</ele>
        <time>2021-05-20T05:03:41Z</time>
      </trkpt>
      <trkpt lat="45.91138" lon="6.5056">
        <ele>2279</ele>
        <time>2021-05-20T05:03:42Z</time>
      </trkpt>
      <trkpt lat="45.91138" lon="6.50561">
        <ele>2279</ele>
        <time>2021-05-20T05:03:43Z</time>
      </trkpt>
      <trkpt lat="45.91138" lon="6.50563">
        <ele>2279</ele>
        <time>2021-05-20T05:03:44Z</time>
      </trkpt>
      <trkpt lat="45.91138" lon="6.50564">
        <ele>2280</ele>
        <time>2021-05-20T05:03:45Z</time>
      </trkpt>
      <trkpt lat="45.91138" lon="6.50565">
        <ele>2280</ele>
        <time>2021-05-20T05:03:46Z</time>
      </trkpt>
      <trkpt lat="45.91138" lon="6.50566">
        <ele>2280</ele>
        <time>2021-05-20T05:03:47Z</time>
      </trkpt>
      <trkpt lat="45.91138" lon="6.50566">
        <ele>2281</ele>
        <time>2021-05-20T05:03:48Z</time>
      </trkpt>
      <trkpt lat="45.91138" lon="6.50566">
        <ele>2281</ele>
        <time>2021-05-20T05:03:49Z</time>
      </trkpt>
      <trkpt lat="45.91138" lon="6.50566">
        <ele>2281</ele>
        <time>2021-05-20T05:03:50Z</time>
      </trkpt>
      <trkpt lat="45.91138" lon="6.5057">
        <ele>2282</ele>
        <time>2021-05-20T05:03:51Z</time>
      </trkpt>
      <trkpt lat="45.91138" lon="6.5057">
        <ele>2282</ele>
        <time>2021-05-20T05:03:52Z</time>
      </trkpt>
      <trkpt lat="45.91138" lon="6.5057">
        <ele>2282</ele>
        <time>2021-05-20T05:03:53Z</time>
      </trkpt>
      <trkpt lat="45.91138" lon="6.5057">
        <ele>2282</ele>
        <time>2021-05-20T05:03:54Z</time>
      </trkpt>
      <trkpt lat="45.91138" lon="6.5057">
        <ele>2283</ele>
        <time>2021-05-20T05:03:55Z</time>
      </trkpt>
      <trkpt lat="45.91138" lon="6.5057">
        <ele>2283</ele>
        <time>2021-05-20T05:03:56Z</time>
      </trkpt>
      <trkpt lat="45.91139" lon="6.50576">
        <ele>2283</ele>
        <time>2021-05-20T05:03:57Z</time>
      </trkpt>
      <trkpt lat="45.91139" lon="6.50576">
        <ele>2283</ele>
        <time>2021-05-20T05:03:58Z</time>
      </trkpt>
      <trkpt lat="45.91139" lon="6.50577">
        <ele>2283</ele>
        <time>2021-05-20T05:03:59Z</time>
      </trkpt>
      <trkpt lat="45.9114" lon="6.50578">
        <ele>2283</ele>
        <time>2021-05-20T05:04:00Z</time>
      </trkpt>
      <trkpt lat="45.9114" lon="6.50579">
        <ele>2284</ele>
        <time>2021-05-20T05:04:01Z</time>
      </trkpt>
      <trkpt lat="45.9114" lon="6.50579">
        <ele>2284</ele>
        <time>2021-05-20T05:04:02Z</time>
      </trkpt>
      <trkpt lat="45.9114" lon="6.5058">
        <ele>2284</ele>
        <time>2021-05-20T05:04:03Z</time>
      </trkpt>
      <trkpt lat="45.9114" lon="6.50581">
        <ele>2285</ele>
        <time>2021-05-20T05:04:04Z</time>
      </trkpt>
      <trkpt lat="45.9114" lon="6.50581">
        <ele>2285</ele>
        <time>2021-05-20T05:04:05Z</time>
      </trkpt>
      <trkpt lat="45.9114" lon="6.50581">
        <ele>2286</ele>
        <time>2021-05-20T05:04:06Z</time>
      </trkpt>
      <trkpt lat="45.9114" lon="6.50581">
        <ele>2286</ele>
        <time>2021-05-20T05:04:07Z</time>
      </trkpt>
      <trkpt lat="45.91142" lon="6.50586">
        <ele>2286</ele>
        <time>2021-05-20T05:04:08Z</time>
      </trkpt>
      <trkpt lat="45.91142" lon="6.50586">
        <ele>2286</ele>
        <time>2021-05-20T05:04:09Z</time>
      </trkpt>
      <trkpt lat="45.91142" lon="6.50587">
        <ele>2286</ele>
        <time>2021-05-20T05:04:10Z</time>
      </trkpt>
      <trkpt lat="45.91142" lon="6.50588">
        <ele>2286</ele>
        <time>2021-05-20T05:04:11Z</time>
      </trkpt>
      <trkpt lat="45.91142" lon="6.50589">
        <ele>2286</ele>
        <time>2021-05-20T05:04:12Z</time>
      </trkpt>
      <trkpt lat="45.91142" lon="6.5059">
        <ele>2286</ele>
        <time>2021-05-20T05:04:13Z</time>
      </trkpt>
      <trkpt lat="45.91142" lon="6.50591">
        <ele>2287</ele>
        <time>2021-05-20T05:04:14Z</time>
      </trkpt>
      <trkpt lat="45.91142" lon="6.50592">
        <ele>2287</ele>
        <time>2021-05-20T05:04:15Z</time>
      </trkpt>
      <trkpt lat="45.91142" lon="6.50592">
        <ele>2288</ele>
        <time>2021-05-20T05:04:16Z</time>
      </trkpt>
      <trkpt lat="45.91142" lon="6.50592">
        <ele>2288</ele>
        <time>2021-05-20T05:04:17Z</time>
      </trkpt>
      <trkpt lat="45.91142" lon="6.50592">
        <ele>2288</ele>
        <time>2021-05-20T05:04:18Z</time>
      </trkpt>
      <trkpt lat="45.91142" lon="6.50592">
        <ele>2289</ele>
        <time>2021-05-20T05:04:19Z</time>
      </trkpt>
      <trkpt lat="45.91138" lon="6.50591">
        <ele>2289</ele>
        <time>2021-05-20T05:04:20Z</time>
      </trkpt>
      <trkpt lat="45.91138" lon="6.50591">
        <ele>2289</ele>
        <time>2021-05-20T05:04:21Z</time>
      </trkpt>
      <trkpt lat="45.91138" lon="6.50591">
        <ele>2289</ele>
        <time>2021-05-20T05:04:22Z</time>
      </trkpt>
      <trkpt lat="45.91137" lon="6.5059">
        <ele>2289</ele>
        <time>2021-05-20T05:04:23Z</time>
      </trkpt>
      <trkpt lat="45.91136" lon="6.5059">
        <ele>2289</ele>
        <time>2021-05-20T05:04:24Z</time>
      </trkpt>
      <trkpt lat="45.91135" lon="6.50589">
        <ele>2290</ele>
        <time>2021-05-20T05:04:25Z</time>
      </trkpt>
      <trkpt lat="45.91135" lon="6.50589">
        <ele>2290</ele>
        <time>2021-05-20T05:04:26Z</time>
      </trkpt>
      <trkpt lat="45.91135" lon="6.50589">
        <ele>2290</ele>
        <time>2021-05-20T05:04:27Z</time>
      </trkpt>
      <trkpt lat="45.91135" lon="6.50589">
        <ele>2290</ele>
        <time>2021-05-20T05:04:28Z</time>
      </trkpt>
      <trkpt lat="45.91135" lon="6.50589">
        <ele>2290</ele>
        <time>2021-05-20T05:04:29Z</time>
      </trkpt>
      <trkpt lat="45.91131" lon="6.50586">
        <ele>2290</ele>
        <time>2021-05-20T05:04:30Z</time>
      </trkpt>
      <trkpt lat="45.91131" lon="6.50586">
        <ele>2291</ele>
        <time>2021-05-20T05:04:31Z</time>
      </trkpt>
      <trkpt lat="45.91131" lon="6.50586">
        <ele>2291</ele>
        <time>2021-05-20T05:04:32Z</time>
      </trkpt>
      <trkpt lat="45.91131" lon="6.50586">
        <ele>2292</ele>
        <time>2021-05-20T05:04:33Z</time>
      </trkpt>
      <trkpt lat="45.91128" lon="6.50584">
        <ele>2292</ele>
        <time>2021-05-20T05:04:34Z</time>
      </trkpt>
      <trkpt lat="45.91128" lon="6.50584">
        <ele>2292</ele>
        <time>2021-05-20T05:04:35Z</time>
      </trkpt>
      <trkpt lat="45.91128" lon="6.50583">
        <ele>2292</ele>
        <time>2021-05-20T05:04:36Z</time>
      </trkpt>
      <trkpt lat="45.91127" lon="6.50583">
        <ele>2292</ele>
        <time>2021-05-20T05:04:37Z</time>
      </trkpt>
      <trkpt lat="45.91126" lon="6.50582">
        <ele>2292</ele>
        <time>2021-05-20T05:04:38Z</time>
      </trkpt>
      <trkpt lat="45.91126" lon="6.50582">
        <ele>2292</ele>
        <time>2021-05-20T05:04:39Z</time>
      </trkpt>
      <trkpt lat="45.91125" lon="6.50581">
        <ele>2292</ele>
        <time>2021-05-20T05:04:40Z</time>
      </trkpt>
      <trkpt lat="45.91125" lon="6.50581">
        <ele>2292</ele>
        <time>2021-05-20T05:04:41Z</time>
      </trkpt>
      <trkpt lat="45.91125" lon="6.50581">
        <ele>2293</ele>
        <time>2021-05-20T05:04:42Z</time>
      </trkpt>
      <trkpt lat="45.91125" lon="6.50581">
        <ele>2293</ele>
        <time>2021-05-20T05:04:43Z</time>
      </trkpt>
      <trkpt lat="45.91121" lon="6.50579">
        <ele>2293</ele>
        <time>2021-05-20T05:04:44Z</time>
      </trkpt>
      <trkpt lat="45.91121" lon="6.50579">
        <ele>2293</ele>
        <time>2021-05-20T05:04:45Z</time>
      </trkpt>
      <trkpt lat="45.91121" lon="6.50579">
        <ele>2294</ele>
        <time>2021-05-20T05:04:46Z</time>
      </trkpt>
      <trkpt lat="45.91121" lon="6.50579">
        <ele>2294</ele>
        <time>2021-05-20T05:04:47Z</time>
      </trkpt>
      <trkpt lat="45.91119" lon="6.50576">
        <ele>2295</ele>
        <time>2021-05-20T05:04:48Z</time>
      </trkpt>
      <trkpt lat="45.91119" lon="6.50576">
        <ele>2295</ele>
        <time>2021-05-20T05:04:49Z</time>
      </trkpt>
      <trkpt lat="45.91119" lon="6.50576">
        <ele>2295</ele>
        <time>2021-05-20T05:04:50Z</time>
      </trkpt>
      <trkpt lat="45.91119" lon="6.50576">
        <ele>2295</ele>
        <time>2021-05-20T05:04:51Z</time>
      </trkpt>
      <trkpt lat="45.91119" lon="6.50576">
        <ele>2295</ele>
        <time>2021-05-20T05:04:52Z</time>
      </trkpt>
      <trkpt lat="45.91119" lon="6.50576">
        <ele>2296</ele>
        <time>2021-05-20T05:04:53Z</time>
      </trkpt>
      <trkpt lat="45.91116" lon="6.50574">
        <ele>2296</ele>
        <time>2021-05-20T05:04:54Z</time>
      </trkpt>
      <trkpt lat="45.91116" lon="6.50574">
        <ele>2296</ele>
        <time>2021-05-20T05:04:55Z</time>
      </trkpt>
      <trkpt lat="45.91116" lon="6.50574">
        <ele>2297</ele>
        <time>2021-05-20T05:04:56Z</time>
      </trkpt>
      <trkpt lat="45.91115" lon="6.50575">
        <ele>2297</ele>
        <time>2021-05-20T05:04:57Z</time>
      </trkpt>
      <trkpt lat="45.91115" lon="6.50575">
        <ele>2297</ele>
        <time>2021-05-20T05:04:58Z</time>
      </trkpt>
      <trkpt lat="45.91115" lon="6.50576">
        <ele>2297</ele>
        <time>2021-05-20T05:04:59Z</time>
      </trkpt>
      <trkpt lat="45.91115" lon="6.50577">
        <ele>2297</ele>
        <time>2021-05-20T05:05:00Z</time>
      </trkpt>
      <trkpt lat="45.91115" lon="6.50577">
        <ele>2297</ele>
        <time>2021-05-20T05:05:01Z</time>
      </trkpt>
      <trkpt lat="45.91115" lon="6.50578">
        <ele>2297</ele>
        <time>2021-05-20T05:05:02Z</time>
      </trkpt>
      <trkpt lat="45.91115" lon="6.50578">
        <ele>2297</ele>
        <time>2021-05-20T05:05:03Z</time>
      </trkpt>
      <trkpt lat="45.91115" lon="6.50579">
        <ele>2297</ele>
        <time>2021-05-20T05:05:04Z</time>
      </trkpt>
      <trkpt lat="45.91115" lon="6.50579">
        <ele>2298</ele>
        <time>2021-05-20T05:05:05Z</time>
      </trkpt>
      <trkpt lat="45.91115" lon="6.50579">
        <ele>2298</ele>
        <time>2021-05-20T05:05:06Z</time>
      </trkpt>
      <trkpt lat="45.91115" lon="6.50579">
        <ele>2298</ele>
        <time>2021-05-20T05:05:07Z</time>
      </trkpt>
      <trkpt lat="45.91115" lon="6.50584">
        <ele>2298</ele>
        <time>2021-05-20T05:05:08Z</time>
      </trkpt>
      <trkpt lat="45.91115" lon="6.50584">
        <ele>2298</ele>
        <time>2021-05-20T05:05:09Z</time>
      </trkpt>
      <trkpt lat="45.91115" lon="6.50586">
        <ele>2299</ele>
        <time>2021-05-20T05:05:10Z</time>
      </trkpt>
      <trkpt lat="45.91115" lon="6.50587">
        <ele>2299</ele>
        <time>2021-05-20T05:05:11Z</time>
      </trkpt>
      <trkpt lat="45.91115" lon="6.50588">
        <ele>2299</ele>
        <time>2021-05-20T05:05:12Z</time>
      </trkpt>
      <trkpt lat="45.91115" lon="6.50589">
        <ele>2300</ele>
        <time>2021-05-20T05:05:13Z</time>
      </trkpt>
      <trkpt lat="45.91115" lon="6.50591">
        <ele>2300</ele>
        <time>2021-05-20T05:05:14Z</time>
      </trkpt>
      <trkpt lat="45.91115" lon="6.50592">
        <ele>2300</ele>
        <time>2021-05-20T05:05:15Z</time>
      </trkpt>
      <trkpt lat="45.91115" lon="6.50593">
        <ele>2300</ele>
        <time>2021-05-20T05:05:16Z</time>
      </trkpt>
      <trkpt lat="45.91115" lon="6.50594">
        <ele>2300</ele>
        <time>2021-05-20T05:05:17Z</time>
      </trkpt>
      <trkpt lat="45.91115" lon="6.50595">
        <ele>2300</ele>
        <time>2021-05-20T05:05:18Z</time>
      </trkpt>
      <trkpt lat="45.91115" lon="6.50596">
        <ele>2300</ele>
        <time>2021-05-20T05:05:19Z</time>
      </trkpt>
      <trkpt lat="45.91115" lon="6.50597">
        <ele>2300</ele>
        <time>2021-05-20T05:05:20Z</time>
      </trkpt>
      <trkpt lat="45.91116" lon="6.50598">
        <ele>2301</ele>
        <time>2021-05-20T05:05:21Z</time>
      </trkpt>
      <trkpt lat="45.91116" lon="6.50599">
        <ele>2301</ele>
        <time>2021-05-20T05:05:22Z</time>
      </trkpt>
      <trkpt lat="45.91116" lon="6.506">
        <ele>2303</ele>
        <time>2021-05-20T05:05:23Z</time>
      </trkpt>
      <trkpt lat="45.91116" lon="6.50601">
        <ele>2303</ele>
        <time>2021-05-20T05:05:24Z</time>
      </trkpt>
      <trkpt lat="45.91116" lon="6.50602">
        <ele>2303</ele>
        <time>2021-05-20T05:05:25Z</time>
      </trkpt>
      <trkpt lat="45.91116" lon="6.50602">
        <ele>2303</ele>
        <time>2021-05-20T05:05:26Z</time>
      </trkpt>
      <trkpt lat="45.91116" lon="6.50602">
        <ele>2303</ele>
        <time>2021-05-20T05:05:27Z</time>
      </trkpt>
      <trkpt lat="45.91116" lon="6.50602">
        <ele>2304</ele>
        <time>2021-05-20T05:05:28Z</time>
      </trkpt>
      <trkpt lat="45.91117" lon="6.50607">
        <ele>2304</ele>
        <time>2021-05-20T05:05:29Z</time>
      </trkpt>
      <trkpt lat="45.91117" lon="6.50607">
        <ele>2304</ele>
        <time>2021-05-20T05:05:30Z</time>
      </trkpt>
      <trkpt lat="45.91117" lon="6.50607">
        <ele>2304</ele>
        <time>2021-05-20T05:05:31Z</time>
      </trkpt>
      <trkpt lat="45.91117" lon="6.50607">
        <ele>2304</ele>
        <time>2021-05-20T05:05:32Z</time>
      </trkpt>
      <trkpt lat="45.91117" lon="6.50607">
        <ele>2304</ele>
        <time>2021-05-20T05:05:33Z</time>
      </trkpt>
      <trkpt lat="45.91117" lon="6.50607">
        <ele>2304</ele>
        <time>2021-05-20T05:05:34Z</time>
      </trkpt>
      <trkpt lat="45.91117" lon="6.50607">
        <ele>2305</ele>
        <time>2021-05-20T05:05:35Z</time>
      </trkpt>
      <trkpt lat="45.91117" lon="6.50607">
        <ele>2305</ele>
        <time>2021-05-20T05:05:36Z</time>
      </trkpt>
      <trkpt lat="45.91117" lon="6.50607">
        <ele>2305</ele>
        <time>2021-05-20T05:05:37Z</time>
      </trkpt>
      <trkpt lat="45.91114" lon="6.50611">
        <ele>2306</ele>
        <time>2021-05-20T05:05:38Z</time>
      </trkpt>
      <trkpt lat="45.91114" lon="6.50611">
        <ele>2306</ele>
        <time>2021-05-20T05:05:39Z</time>
      </trkpt>
      <trkpt lat="45.91114" lon="6.50611">
        <ele>2306</ele>
        <time>2021-05-20T05:05:40Z</time>
      </trkpt>
      <trkpt lat="45.91114" lon="6.50611">
        <ele>2306</ele>
        <time>2021-05-20T05:05:41Z</time>
      </trkpt>
      <trkpt lat="45.91114" lon="6.50611">
        <ele>2306</ele>
        <time>2021-05-20T05:05:42Z</time>
      </trkpt>
      <trkpt lat="45.91111" lon="6.50608">
        <ele>2306</ele>
        <time>2021-05-20T05:05:43Z</time>
      </trkpt>
      <trkpt lat="45.91111" lon="6.50608">
        <ele>2306</ele>
        <time>2021-05-20T05:05:44Z</time>
      </trkpt>
      <trkpt lat="45.91111" lon="6.50608">
        <ele>2307</ele>
        <time>2021-05-20T05:05:45Z</time>
      </trkpt>
      <trkpt lat="45.9111" lon="6.50607">
        <ele>2307</ele>
        <time>2021-05-20T05:05:46Z</time>
      </trkpt>
      <trkpt lat="45.91109" lon="6.50606">
        <ele>2307</ele>
        <time>2021-05-20T05:05:47Z</time>
      </trkpt>
      <trkpt lat="45.91109" lon="6.50606">
        <ele>2308</ele>
        <time>2021-05-20T05:05:48Z</time>
      </trkpt>
      <trkpt lat="45.91108" lon="6.50605">
        <ele>2308</ele>
        <time>2021-05-20T05:05:49Z</time>
      </trkpt>
      <trkpt lat="45.91108" lon="6.50605">
        <ele>2308</ele>
        <time>2021-05-20T05:05:50Z</time>
      </trkpt>
      <trkpt lat="45.91108" lon="6.50605">
        <ele>2309</ele>
        <time>2021-05-20T05:05:51Z</time>
      </trkpt>
      <trkpt lat="45.91108" lon="6.50605">
        <ele>2309</ele>
        <time>2021-05-20T05:05:52Z</time>
      </trkpt>
      <trkpt lat="45.91105" lon="6.50603">
        <ele>2309</ele>
        <time>2021-05-20T05:05:53Z</time>
      </trkpt>
      <trkpt lat="45.91105" lon="6.50603">
        <ele>2310</ele>
        <time>2021-05-20T05:05:54Z</time>
      </trkpt>
      <trkpt lat="45.91105" lon="6.50603">
        <ele>2310</ele>
        <time>2021-05-20T05:05:55Z</time>
      </trkpt>
      <trkpt lat="45.91105" lon="6.50603">
        <ele>2310</ele>
        <time>2021-05-20T05:05:56Z</time>
      </trkpt>
      <trkpt lat="45.91105" lon="6.50603">
        <ele>2310</ele>
        <time>2021-05-20T05:05:57Z</time>
      </trkpt>
      <trkpt lat="45.91102" lon="6.506">
        <ele>2310</ele>
        <time>2021-05-20T05:05:58Z</time>
      </trkpt>
      <trkpt lat="45.91102" lon="6.506">
        <ele>2311</ele>
        <time>2021-05-20T05:05:59Z</time>
      </trkpt>
      <trkpt lat="45.91102" lon="6.506">
        <ele>2311</ele>
        <time>2021-05-20T05:06:00Z</time>
      </trkpt>
      <trkpt lat="45.91102" lon="6.506">
        <ele>2311</ele>
        <time>2021-05-20T05:06:01Z</time>
      </trkpt>
      <trkpt lat="45.91102" lon="6.506">
        <ele>2311</ele>
        <time>2021-05-20T05:06:02Z</time>
      </trkpt>
      <trkpt lat="45.91099" lon="6.50598">
        <ele>2311</ele>
        <time>2021-05-20T05:06:03Z</time>
      </trkpt>
      <trkpt lat="45.91099" lon="6.50598">
        <ele>2312</ele>
        <time>2021-05-20T05:06:04Z</time>
      </trkpt>
      <trkpt lat="45.91098" lon="6.50597">
        <ele>2312</ele>
        <time>2021-05-20T05:06:05Z</time>
      </trkpt>
      <trkpt lat="45.91098" lon="6.50596">
        <ele>2312</ele>
        <time>2021-05-20T05:06:06Z</time>
      </trkpt>
      <trkpt lat="45.91097" lon="6.50596">
        <ele>2312</ele>
        <time>2021-05-20T05:06:07Z</time>
      </trkpt>
      <trkpt lat="45.91097" lon="6.50595">
        <ele>2312</ele>
        <time>2021-05-20T05:06:08Z</time>
      </trkpt>
      <trkpt lat="45.91096" lon="6.50595">
        <ele>2312</ele>
        <time>2021-05-20T05:06:09Z</time>
      </trkpt>
      <trkpt lat="45.91096" lon="6.50594">
        <ele>2313</ele>
        <time>2021-05-20T05:06:10Z</time>
      </trkpt>
      <trkpt lat="45.91096" lon="6.50594">
        <ele>2313</ele>
        <time>2021-05-20T05:06:11Z</time>
      </trkpt>
      <trkpt lat="45.91096" lon="6.50594">
        <ele>2313</ele>
        <time>2021-05-20T05:06:12Z</time>
      </trkpt>
      <trkpt lat="45.91096" lon="6.50594">
        <ele>2314</ele>
        <time>2021-05-20T05:06:13Z</time>
      </trkpt>
      <trkpt lat="45.91093" lon="6.50592">
        <ele>2314</ele>
        <time>2021-05-20T05:06:14Z</time>
      </trkpt>
      <trkpt lat="45.91093" lon="6.50592">
        <ele>2314</ele>
        <time>2021-05-20T05:06:15Z</time>
      </trkpt>
      <trkpt lat="45.91093" lon="6.50592">
        <ele>2314</ele>
        <time>2021-05-20T05:06:16Z</time>
      </trkpt>
      <trkpt lat="45.91093" lon="6.50592">
        <ele>2314</ele>
        <time>2021-05-20T05:06:17Z</time>
      </trkpt>
      <trkpt lat="45.91093" lon="6.50592">
        <ele>2315</ele>
        <time>2021-05-20T05:06:18Z</time>
      </trkpt>
      <trkpt lat="45.91093" lon="6.50592">
        <ele>2315</ele>
        <time>2021-05-20T05:06:19Z</time>
      </trkpt>
      <trkpt lat="45.91093" lon="6.50592">
        <ele>2315</ele>
        <time>2021-05-20T05:06:20Z</time>
      </trkpt>
      <trkpt lat="45.91093" lon="6.50592">
        <ele>2315</ele>
        <time>2021-05-20T05:06:21Z</time>
      </trkpt>
      <trkpt lat="45.91093" lon="6.50592">
        <ele>2315</ele>
        <time>2021-05-20T05:06:22Z</time>
      </trkpt>
      <trkpt lat="45.91093" lon="6.50592">
        <ele>2315</ele>
        <time>2021-05-20T05:06:23Z</time>
      </trkpt>
      <trkpt lat="45.91089" lon="6.50595">
        <ele>2316</ele>
        <time>2021-05-20T05:06:24Z</time>
      </trkpt>
      <trkpt lat="45.91089" lon="6.50595">
        <ele>2316</ele>
        <time>2021-05-20T05:06:25Z</time>
      </trkpt>
      <trkpt lat="45.91089" lon="6.50596">
        <ele>2316</ele>
        <time>2021-05-20T05:06:26Z</time>
      </trkpt>
      <trkpt lat="45.91089" lon="6.50597">
        <ele>2316</ele>
        <time>2021-05-20T05:06:27Z</time>
      </trkpt>
      <trkpt lat="45.91089" lon="6.50598">
        <ele>2316</ele>
        <time>2021-05-20T05:06:28Z</time>
      </trkpt>
      <trkpt lat="45.91089" lon="6.50599">
        <ele>2316</ele>
        <time>2021-05-20T05:06:29Z</time>
      </trkpt>
      <trkpt lat="45.91089" lon="6.506">
        <ele>2317</ele>
        <time>2021-05-20T05:06:30Z</time>
      </trkpt>
      <trkpt lat="45.91089" lon="6.506">
        <ele>2317</ele>
        <time>2021-05-20T05:06:31Z</time>
      </trkpt>
      <trkpt lat="45.91089" lon="6.506">
        <ele>2317</ele>
        <time>2021-05-20T05:06:32Z</time>
      </trkpt>
      <trkpt lat="45.91089" lon="6.50605">
        <ele>2318</ele>
        <time>2021-05-20T05:06:33Z</time>
      </trkpt>
      <trkpt lat="45.91089" lon="6.50605">
        <ele>2318</ele>
        <time>2021-05-20T05:06:34Z</time>
      </trkpt>
      <trkpt lat="45.91089" lon="6.50605">
        <ele>2318</ele>
        <time>2021-05-20T05:06:35Z</time>
      </trkpt>
      <trkpt lat="45.91089" lon="6.50605">
        <ele>2318</ele>
        <time>2021-05-20T05:06:36Z</time>
      </trkpt>
      <trkpt lat="45.91089" lon="6.50605">
        <ele>2318</ele>
        <time>2021-05-20T05:06:37Z</time>
      </trkpt>
      <trkpt lat="45.91089" lon="6.50611">
        <ele>2318</ele>
        <time>2021-05-20T05:06:38Z</time>
      </trkpt>
      <trkpt lat="45.91089" lon="6.50611">
        <ele>2319</ele>
        <time>2021-05-20T05:06:39Z</time>
      </trkpt>
      <trkpt lat="45.91089" lon="6.50611">
        <ele>2319</ele>
        <time>2021-05-20T05:06:40Z</time>
      </trkpt>
      <trkpt lat="45.91089" lon="6.50611">
        <ele>2320</ele>
        <time>2021-05-20T05:06:41Z</time>
      </trkpt>
      <trkpt lat="45.91089" lon="6.50611">
        <ele>2320</ele>
        <time>2021-05-20T05:06:42Z</time>
      </trkpt>
      <trkpt lat="45.91087" lon="6.50615">
        <ele>2320</ele>
        <time>2021-05-20T05:06:43Z</time>
      </trkpt>
      <trkpt lat="45.91087" lon="6.50615">
        <ele>2321</ele>
        <time>2021-05-20T05:06:44Z</time>
      </trkpt>
      <trkpt lat="45.91087" lon="6.50615">
        <ele>2321</ele>
        <time>2021-05-20T05:06:45Z</time>
      </trkpt>
      <trkpt lat="45.91087" lon="6.50615">
        <ele>2321</ele>
        <time>2021-05-20T05:06:46Z</time>
      </trkpt>
      <trkpt lat="45.91086" lon="6.50615">
        <ele>2321</ele>
        <time>2021-05-20T05:06:47Z</time>
      </trkpt>
      <trkpt lat="45.91086" lon="6.50614">
        <ele>2321</ele>
        <time>2021-05-20T05:06:48Z</time>
      </trkpt>
      <trkpt lat="45.91085" lon="6.50614">
        <ele>2321</ele>
        <time>2021-05-20T05:06:49Z</time>
      </trkpt>
      <trkpt lat="45.91085" lon="6.50614">
        <ele>2322</ele>
        <time>2021-05-20T05:06:50Z</time>
      </trkpt>
      <trkpt lat="45.91085" lon="6.50614">
        <ele>2322</ele>
        <time>2021-05-20T05:06:51Z</time>
      </trkpt>
      <trkpt lat="45.91084" lon="6.50614">
        <ele>2323</ele>
        <time>2021-05-20T05:06:52Z</time>
      </trkpt>
      <trkpt lat="45.91084" lon="6.50614">
        <ele>2323</ele>
        <time>2021-05-20T05:06:53Z</time>
      </trkpt>
      <trkpt lat="45.91084" lon="6.50614">
        <ele>2323</ele>
        <time>2021-05-20T05:06:54Z</time>
      </trkpt>
      <trkpt lat="45.91084" lon="6.50614">
        <ele>2323</ele>
        <time>2021-05-20T05:06:55Z</time>
      </trkpt>
      <trkpt lat="45.91084" lon="6.50614">
        <ele>2323</ele>
        <time>2021-05-20T05:06:56Z</time>
      </trkpt>
      <trkpt lat="45.91081" lon="6.50611">
        <ele>2323</ele>
        <time>2021-05-20T05:06:57Z</time>
      </trkpt>
      <trkpt lat="45.91081" lon="6.50611">
        <ele>2323</ele>
        <time>2021-05-20T05:06:58Z</time>
      </trkpt>
      <trkpt lat="45.91081" lon="6.50611">
        <ele>2324</ele>
        <time>2021-05-20T05:06:59Z</time>
      </trkpt>
      <trkpt lat="45.91081" lon="6.50611">
        <ele>2324</ele>
        <time>2021-05-20T05:07:00Z</time>
      </trkpt>
      <trkpt lat="45.91081" lon="6.50611">
        <ele>2324</ele>
        <time>2021-05-20T05:07:01Z</time>
      </trkpt>
      <trkpt lat="45.91079" lon="6.50608">
        <ele>2324</ele>
        <time>2021-05-20T05:07:02Z</time>
      </trkpt>
      <trkpt lat="45.91079" lon="6.50608">
        <ele>2324</ele>
        <time>2021-05-20T05:07:03Z</time>
      </trkpt>
      <trkpt lat="45.91079" lon="6.50608">
        <ele>2324</ele>
        <time>2021-05-20T05:07:04Z</time>
      </trkpt>
      <trkpt lat="45.91079" lon="6.50608">
        <ele>2324</ele>
        <time>2021-05-20T05:07:05Z</time>
      </trkpt>
      <trkpt lat="45.91079" lon="6.50608">
        <ele>2324</ele>
        <time>2021-05-20T05:07:06Z</time>
      </trkpt>
      <trkpt lat="45.91079" lon="6.50608">
        <ele>2325</ele>
        <time>2021-05-20T05:07:07Z</time>
      </trkpt>
      <trkpt lat="45.91076" lon="6.50604">
        <ele>2325</ele>
        <time>2021-05-20T05:07:08Z</time>
      </trkpt>
      <trkpt lat="45.91076" lon="6.50604">
        <ele>2325</ele>
        <time>2021-05-20T05:07:09Z</time>
      </trkpt>
      <trkpt lat="45.91076" lon="6.50603">
        <ele>2326</ele>
        <time>2021-05-20T05:07:10Z</time>
      </trkpt>
      <trkpt lat="45.91075" lon="6.50602">
        <ele>2326</ele>
        <time>2021-05-20T05:07:11Z</time>
      </trkpt>
      <trkpt lat="45.91075" lon="6.50601">
        <ele>2326</ele>
        <time>2021-05-20T05:07:12Z</time>
      </trkpt>
      <trkpt lat="45.91075" lon="6.506">
        <ele>2326</ele>
        <time>2021-05-20T05:07:13Z</time>
      </trkpt>
      <trkpt lat="45.91074" lon="6.506">
        <ele>2326</ele>
        <time>2021-05-20T05:07:14Z</time>
      </trkpt>
      <trkpt lat="45.91074" lon="6.50599">
        <ele>2327</ele>
        <time>2021-05-20T05:07:15Z</time>
      </trkpt>
      <trkpt lat="45.91074" lon="6.50599">
        <ele>2327</ele>
        <time>2021-05-20T05:07:16Z</time>
      </trkpt>
      <trkpt lat="45.91074" lon="6.50599">
        <ele>2327</ele>
        <time>2021-05-20T05:07:17Z</time>
      </trkpt>
      <trkpt lat="45.91074" lon="6.50599">
        <ele>2327</ele>
        <time>2021-05-20T05:07:18Z</time>
      </trkpt>
      <trkpt lat="45.91072" lon="6.50594">
        <ele>2329</ele>
        <time>2021-05-20T05:07:19Z</time>
      </trkpt>
      <trkpt lat="45.91072" lon="6.50594">
        <ele>2329</ele>
        <time>2021-05-20T05:07:20Z</time>
      </trkpt>
      <trkpt lat="45.91072" lon="6.50593">
        <ele>2329</ele>
        <time>2021-05-20T05:07:21Z</time>
      </trkpt>
      <trkpt lat="45.91072" lon="6.50592">
        <ele>2329</ele>
        <time>2021-05-20T05:07:22Z</time>
      </trkpt>
      <trkpt lat="45.91072" lon="6.50591">
        <ele>2329</ele>
        <time>2021-05-20T05:07:23Z</time>
      </trkpt>
      <trkpt lat="45.91071" lon="6.50589">
        <ele>2329</ele>
        <time>2021-05-20T05:07:24Z</time>
      </trkpt>
      <trkpt lat="45.91071" lon="6.50588">
        <ele>2330</ele>
        <time>2021-05-20T05:07:25Z</time>
      </trkpt>
      <trkpt lat="45.91071" lon="6.50587">
        <ele>2330</ele>
        <time>2021-05-20T05:07:26Z</time>
      </trkpt>
      <trkpt lat="45.91071" lon="6.50586">
        <ele>2330</ele>
        <time>2021-05-20T05:07:27Z</time>
      </trkpt>
      <trkpt lat="45.9107" lon="6.50585">
        <ele>2331</ele>
        <time>2021-05-20T05:07:28Z</time>
      </trkpt>
      <trkpt lat="45.9107" lon="6.50584">
        <ele>2331</ele>
        <time>2021-05-20T05:07:29Z</time>
      </trkpt>
      <trkpt lat="45.9107" lon="6.50583">
        <ele>2331</ele>
        <time>2021-05-20T05:07:30Z</time>
      </trkpt>
      <trkpt lat="45.9107" lon="6.50583">
        <ele>2331</ele>
        <time>2021-05-20T05:07:31Z</time>
      </trkpt>
      <trkpt lat="45.9107" lon="6.50583">
        <ele>2331</ele>
        <time>2021-05-20T05:07:32Z</time>
      </trkpt>
      <trkpt lat="45.9107" lon="6.50583">
        <ele>2332</ele>
        <time>2021-05-20T05:07:33Z</time>
      </trkpt>
      <trkpt lat="45.91069" lon="6.50578">
        <ele>2332</ele>
        <time>2021-05-20T05:07:34Z</time>
      </trkpt>
      <trkpt lat="45.91069" lon="6.50578">
        <ele>2332</ele>
        <time>2021-05-20T05:07:35Z</time>
      </trkpt>
      <trkpt lat="45.91069" lon="6.50578">
        <ele>2333</ele>
        <time>2021-05-20T05:07:36Z</time>
      </trkpt>
      <trkpt lat="45.91069" lon="6.50578">
        <ele>2333</ele>
        <time>2021-05-20T05:07:37Z</time>
      </trkpt>
      <trkpt lat="45.91069" lon="6.50578">
        <ele>2333</ele>
        <time>2021-05-20T05:07:38Z</time>
      </trkpt>
      <trkpt lat="45.91069" lon="6.50578">
        <ele>2333</ele>
        <time>2021-05-20T05:07:39Z</time>
      </trkpt>
      <trkpt lat="45.91069" lon="6.50578">
        <ele>2333</ele>
        <time>2021-05-20T05:07:40Z</time>
      </trkpt>
      <trkpt lat="45.91068" lon="6.50573">
        <ele>2333</ele>
        <time>2021-05-20T05:07:41Z</time>
      </trkpt>
      <trkpt lat="45.91068" lon="6.50573">
        <ele>2334</ele>
        <time>2021-05-20T05:07:42Z</time>
      </trkpt>
      <trkpt lat="45.91068" lon="6.50572">
        <ele>2334</ele>
        <time>2021-05-20T05:07:43Z</time>
      </trkpt>
      <trkpt lat="45.91067" lon="6.50571">
        <ele>2334</ele>
        <time>2021-05-20T05:07:44Z</time>
      </trkpt>
      <trkpt lat="45.91067" lon="6.5057">
        <ele>2334</ele>
        <time>2021-05-20T05:07:45Z</time>
      </trkpt>
      <trkpt lat="45.91067" lon="6.50569">
        <ele>2334</ele>
        <time>2021-05-20T05:07:46Z</time>
      </trkpt>
      <trkpt lat="45.91066" lon="6.50568">
        <ele>2335</ele>
        <time>2021-05-20T05:07:47Z</time>
      </trkpt>
      <trkpt lat="45.91066" lon="6.50568">
        <ele>2335</ele>
        <time>2021-05-20T05:07:48Z</time>
      </trkpt>
      <trkpt lat="45.91066" lon="6.50568">
        <ele>2335</ele>
        <time>2021-05-20T05:07:49Z</time>
      </trkpt>
      <trkpt lat="45.91066" lon="6.50568">
        <ele>2335</ele>
        <time>2021-05-20T05:07:50Z</time>
      </trkpt>
      <trkpt lat="45.91065" lon="6.50563">
        <ele>2336</ele>
        <time>2021-05-20T05:07:51Z</time>
      </trkpt>
      <trkpt lat="45.91065" lon="6.50563">
        <ele>2336</ele>
        <time>2021-05-20T05:07:52Z</time>
      </trkpt>
      <trkpt lat="45.91065" lon="6.50563">
        <ele>2336</ele>
        <time>2021-05-20T05:07:53Z</time>
      </trkpt>
      <trkpt lat="45.91064" lon="6.50562">
        <ele>2336</ele>
        <time>2021-05-20T05:07:54Z</time>
      </trkpt>
      <trkpt lat="45.91064" lon="6.50562">
        <ele>2336</ele>
        <time>2021-05-20T05:07:55Z</time>
      </trkpt>
      <trkpt lat="45.91064" lon="6.50561">
        <ele>2336</ele>
        <time>2021-05-20T05:07:56Z</time>
      </trkpt>
      <trkpt lat="45.91063" lon="6.50561">
        <ele>2336</ele>
        <time>2021-05-20T05:07:57Z</time>
      </trkpt>
      <trkpt lat="45.91063" lon="6.5056">
        <ele>2337</ele>
        <time>2021-05-20T05:07:58Z</time>
      </trkpt>
      <trkpt lat="45.91063" lon="6.5056">
        <ele>2337</ele>
        <time>2021-05-20T05:07:59Z</time>
      </trkpt>
      <trkpt lat="45.91062" lon="6.50559">
        <ele>2337</ele>
        <time>2021-05-20T05:08:00Z</time>
      </trkpt>
      <trkpt lat="45.91062" lon="6.50559">
        <ele>2337</ele>
        <time>2021-05-20T05:08:01Z</time>
      </trkpt>
      <trkpt lat="45.91062" lon="6.50559">
        <ele>2337</ele>
        <time>2021-05-20T05:08:02Z</time>
      </trkpt>
      <trkpt lat="45.91062" lon="6.50559">
        <ele>2338</ele>
        <time>2021-05-20T05:08:03Z</time>
      </trkpt>
      <trkpt lat="45.91062" lon="6.50559">
        <ele>2338</ele>
        <time>2021-05-20T05:08:04Z</time>
      </trkpt>
      <trkpt lat="45.91059" lon="6.50555">
        <ele>2338</ele>
        <time>2021-05-20T05:08:05Z</time>
      </trkpt>
      <trkpt lat="45.91059" lon="6.50555">
        <ele>2338</ele>
        <time>2021-05-20T05:08:06Z</time>
      </trkpt>
      <trkpt lat="45.91059" lon="6.50556">
        <ele>2338</ele>
        <time>2021-05-20T05:08:07Z</time>
      </trkpt>
      <trkpt lat="45.91059" lon="6.50556">
        <ele>2339</ele>
        <time>2021-05-20T05:08:08Z</time>
      </trkpt>
      <trkpt lat="45.91059" lon="6.50557">
        <ele>2339</ele>
        <time>2021-05-20T05:08:09Z</time>
      </trkpt>
      <trkpt lat="45.91058" lon="6.50557">
        <ele>2339</ele>
        <time>2021-05-20T05:08:10Z</time>
      </trkpt>
      <trkpt lat="45.91058" lon="6.50558">
        <ele>2339</ele>
        <time>2021-05-20T05:08:11Z</time>
      </trkpt>
      <trkpt lat="45.91058" lon="6.50558">
        <ele>2339</ele>
        <time>2021-05-20T05:08:12Z</time>
      </trkpt>
      <trkpt lat="45.91058" lon="6.50559">
        <ele>2339</ele>
        <time>2021-05-20T05:08:13Z</time>
      </trkpt>
      <trkpt lat="45.91057" lon="6.50559">
        <ele>2339</ele>
        <time>2021-05-20T05:08:14Z</time>
      </trkpt>
      <trkpt lat="45.91057" lon="6.50559">
        <ele>2340</ele>
        <time>2021-05-20T05:08:15Z</time>
      </trkpt>
      <trkpt lat="45.91057" lon="6.5056">
        <ele>2340</ele>
        <time>2021-05-20T05:08:16Z</time>
      </trkpt>
      <trkpt lat="45.91057" lon="6.5056">
        <ele>2340</ele>
        <time>2021-05-20T05:08:17Z</time>
      </trkpt>
      <trkpt lat="45.91057" lon="6.5056">
        <ele>2340</ele>
        <time>2021-05-20T05:08:18Z</time>
      </trkpt>
      <trkpt lat="45.91057" lon="6.5056">
        <ele>2340</ele>
        <time>2021-05-20T05:08:19Z</time>
      </trkpt>
      <trkpt lat="45.91056" lon="6.50566">
        <ele>2340</ele>
        <time>2021-05-20T05:08:20Z</time>
      </trkpt>
      <trkpt lat="45.91056" lon="6.50566">
        <ele>2341</ele>
        <time>2021-05-20T05:08:21Z</time>
      </trkpt>
      <trkpt lat="45.91056" lon="6.50567">
        <ele>2341</ele>
        <time>2021-05-20T05:08:22Z</time>
      </trkpt>
      <trkpt lat="45.91056" lon="6.50568">
        <ele>2341</ele>
        <time>2021-05-20T05:08:23Z</time>
      </trkpt>
      <trkpt lat="45.91056" lon="6.50569">
        <ele>2341</ele>
        <time>2021-05-20T05:08:24Z</time>
      </trkpt>
      <trkpt lat="45.91055" lon="6.5057">
        <ele>2341</ele>
        <time>2021-05-20T05:08:25Z</time>
      </trkpt>
      <trkpt lat="45.91055" lon="6.50571">
        <ele>2341</ele>
        <time>2021-05-20T05:08:26Z</time>
      </trkpt>
      <trkpt lat="45.91055" lon="6.50573">
        <ele>2342</ele>
        <time>2021-05-20T05:08:27Z</time>
      </trkpt>
      <trkpt lat="45.91055" lon="6.50574">
        <ele>2342</ele>
        <time>2021-05-20T05:08:28Z</time>
      </trkpt>
      <trkpt lat="45.91054" lon="6.50575">
        <ele>2342</ele>
        <time>2021-05-20T05:08:29Z</time>
      </trkpt>
      <trkpt lat="45.91054" lon="6.50576">
        <ele>2342</ele>
        <time>2021-05-20T05:08:30Z</time>
      </trkpt>
      <trkpt lat="45.91054" lon="6.50577">
        <ele>2342</ele>
        <time>2021-05-20T05:08:31Z</time>
      </trkpt>
      <trkpt lat="45.91054" lon="6.50577">
        <ele>2343</ele>
        <time>2021-05-20T05:08:32Z</time>
      </trkpt>
      <trkpt lat="45.91054" lon="6.50577">
        <ele>2343</ele>
        <time>2021-05-20T05:08:33Z</time>
      </trkpt>
      <trkpt lat="45.91054" lon="6.50577">
        <ele>2343</ele>
        <time>2021-05-20T05:08:34Z</time>
      </trkpt>
      <trkpt lat="45.91052" lon="6.50582">
        <ele>2343</ele>
        <time>2021-05-20T05:08:35Z</time>
      </trkpt>
      <trkpt lat="45.91052" lon="6.50582">
        <ele>2344</ele>
        <time>2021-05-20T05:08:36Z</time>
      </trkpt>
      <trkpt lat="45.91052" lon="6.50582">
        <ele>2344</ele>
        <time>2021-05-20T05:08:37Z</time>
      </trkpt>
      <trkpt lat="45.91052" lon="6.50582">
        <ele>2344</ele>
        <time>2021-05-20T05:08:38Z</time>
      </trkpt>
      <trkpt lat="45.91052" lon="6.50582">
        <ele>2344</ele>
        <time>2021-05-20T05:08:39Z</time>
      </trkpt>
      <trkpt lat="45.91051" lon="6.50586">
        <ele>2345</ele>
        <time>2021-05-20T05:08:40Z</time>
      </trkpt>
      <trkpt lat="45.91051" lon="6.50586">
        <ele>2346</ele>
        <time>2021-05-20T05:08:41Z</time>
      </trkpt>
      <trkpt lat="45.91051" lon="6.50587">
        <ele>2346</ele>
        <time>2021-05-20T05:08:42Z</time>
      </trkpt>
      <trkpt lat="45.91051" lon="6.50587">
        <ele>2346</ele>
        <time>2021-05-20T05:08:43Z</time>
      </trkpt>
      <trkpt lat="45.91051" lon="6.50588">
        <ele>2346</ele>
        <time>2021-05-20T05:08:44Z</time>
      </trkpt>
      <trkpt lat="45.91051" lon="6.50588">
        <ele>2346</ele>
        <time>2021-05-20T05:08:45Z</time>
      </trkpt>
      <trkpt lat="45.9105" lon="6.50589">
        <ele>2347</ele>
        <time>2021-05-20T05:08:46Z</time>
      </trkpt>
      <trkpt lat="45.9105" lon="6.50589">
        <ele>2347</ele>
        <time>2021-05-20T05:08:47Z</time>
      </trkpt>
      <trkpt lat="45.9105" lon="6.5059">
        <ele>2347</ele>
        <time>2021-05-20T05:08:48Z</time>
      </trkpt>
      <trkpt lat="45.9105" lon="6.5059">
        <ele>2347</ele>
        <time>2021-05-20T05:08:49Z</time>
      </trkpt>
      <trkpt lat="45.9105" lon="6.50591">
        <ele>2348</ele>
        <time>2021-05-20T05:08:50Z</time>
      </trkpt>
      <trkpt lat="45.9105" lon="6.50591">
        <ele>2348</ele>
        <time>2021-05-20T05:08:51Z</time>
      </trkpt>
      <trkpt lat="45.9105" lon="6.50591">
        <ele>2349</ele>
        <time>2021-05-20T05:08:52Z</time>
      </trkpt>
      <trkpt lat="45.9105" lon="6.50591">
        <ele>2349</ele>
        <time>2021-05-20T05:08:53Z</time>
      </trkpt>
      <trkpt lat="45.9105" lon="6.50591">
        <ele>2349</ele>
        <time>2021-05-20T05:08:54Z</time>
      </trkpt>
      <trkpt lat="45.9105" lon="6.50591">
        <ele>2349</ele>
        <time>2021-05-20T05:08:55Z</time>
      </trkpt>
      <trkpt lat="45.91047" lon="6.50588">
        <ele>2349</ele>
        <time>2021-05-20T05:08:56Z</time>
      </trkpt>
      <trkpt lat="45.91047" lon="6.50588">
        <ele>2349</ele>
        <time>2021-05-20T05:08:57Z</time>
      </trkpt>
      <trkpt lat="45.91047" lon="6.50588">
        <ele>2350</ele>
        <time>2021-05-20T05:08:58Z</time>
      </trkpt>
      <trkpt lat="45.91047" lon="6.50588">
        <ele>2350</ele>
        <time>2021-05-20T05:08:59Z</time>
      </trkpt>
      <trkpt lat="45.91047" lon="6.50588">
        <ele>2350</ele>
        <time>2021-05-20T05:09:00Z</time>
      </trkpt>
      <trkpt lat="45.91047" lon="6.50588">
        <ele>2350</ele>
        <time>2021-05-20T05:09:01Z</time>
      </trkpt>
      <trkpt lat="45.91044" lon="6.50585">
        <ele>2350</ele>
        <time>2021-05-20T05:09:02Z</time>
      </trkpt>
      <trkpt lat="45.91044" lon="6.50585">
        <ele>2351</ele>
        <time>2021-05-20T05:09:03Z</time>
      </trkpt>
      <trkpt lat="45.91044" lon="6.50585">
        <ele>2351</ele>
        <time>2021-05-20T05:09:04Z</time>
      </trkpt>
      <trkpt lat="45.91044" lon="6.50585">
        <ele>2351</ele>
        <time>2021-05-20T05:09:05Z</time>
      </trkpt>
      <trkpt lat="45.91044" lon="6.50585">
        <ele>2351</ele>
        <time>2021-05-20T05:09:06Z</time>
      </trkpt>
      <trkpt lat="45.91041" lon="6.50581">
        <ele>2351</ele>
        <time>2021-05-20T05:09:07Z</time>
      </trkpt>
      <trkpt lat="45.91041" lon="6.50581">
        <ele>2351</ele>
        <time>2021-05-20T05:09:08Z</time>
      </trkpt>
      <trkpt lat="45.91041" lon="6.50581">
        <ele>2352</ele>
        <time>2021-05-20T05:09:09Z</time>
      </trkpt>
      <trkpt lat="45.9104" lon="6.5058">
        <ele>2352</ele>
        <time>2021-05-20T05:09:10Z</time>
      </trkpt>
      <trkpt lat="45.9104" lon="6.50579">
        <ele>2352</ele>
        <time>2021-05-20T05:09:11Z</time>
      </trkpt>
      <trkpt lat="45.91039" lon="6.50578">
        <ele>2352</ele>
        <time>2021-05-20T05:09:12Z</time>
      </trkpt>
      <trkpt lat="45.91039" lon="6.50578">
        <ele>2352</ele>
        <time>2021-05-20T05:09:13Z</time>
      </trkpt>
      <trkpt lat="45.91038" lon="6.50577">
        <ele>2352</ele>
        <time>2021-05-20T05:09:14Z</time>
      </trkpt>
      <trkpt lat="45.91038" lon="6.50577">
        <ele>2353</ele>
        <time>2021-05-20T05:09:15Z</time>
      </trkpt>
      <trkpt lat="45.91038" lon="6.50577">
        <ele>2353</ele>
        <time>2021-05-20T05:09:16Z</time>
      </trkpt>
      <trkpt lat="45.91038" lon="6.50577">
        <ele>2353</ele>
        <time>2021-05-20T05:09:17Z</time>
      </trkpt>
      <trkpt lat="45.91036" lon="6.50573">
        <ele>2355</ele>
        <time>2021-05-20T05:09:18Z</time>
      </trkpt>
      <trkpt lat="45.91036" lon="6.50573">
        <ele>2355</ele>
        <time>2021-05-20T05:09:19Z</time>
      </trkpt>
      <trkpt lat="45.91036" lon="6.50573">
        <ele>2356</ele>
        <time>2021-05-20T05:09:20Z</time>
      </trkpt>
      <trkpt lat="45.91036" lon="6.50573">
        <ele>2356</ele>
        <time>2021-05-20T05:09:21Z</time>
      </trkpt>
      <trkpt lat="45.91035" lon="6.50574">
        <ele>2356</ele>
        <time>2021-05-20T05:09:22Z</time>
      </trkpt>
      <trkpt lat="45.91035" lon="6.50574">
        <ele>2356</ele>
        <time>2021-05-20T05:09:23Z</time>
      </trkpt>
      <trkpt lat="45.91035" lon="6.50574">
        <ele>2356</ele>
        <time>2021-05-20T05:09:24Z</time>
      </trkpt>
      <trkpt lat="45.91035" lon="6.50574">
        <ele>2356</ele>
        <time>2021-05-20T05:09:25Z</time>
      </trkpt>
      <trkpt lat="45.91035" lon="6.50574">
        <ele>2356</ele>
        <time>2021-05-20T05:09:26Z</time>
      </trkpt>
      <trkpt lat="45.91034" lon="6.50574">
        <ele>2356</ele>
        <time>2021-05-20T05:09:27Z</time>
      </trkpt>
      <trkpt lat="45.91034" lon="6.50574">
        <ele>2356</ele>
        <time>2021-05-20T05:09:28Z</time>
      </trkpt>
      <trkpt lat="45.91034" lon="6.50574">
        <ele>2356</ele>
        <time>2021-05-20T05:09:29Z</time>
      </trkpt>
      <trkpt lat="45.91034" lon="6.50574">
        <ele>2356</ele>
        <time>2021-05-20T05:09:30Z</time>
      </trkpt>
      <trkpt lat="45.91034" lon="6.50574">
        <ele>2357</ele>
        <time>2021-05-20T05:09:31Z</time>
      </trkpt>
      <trkpt lat="45.91033" lon="6.50574">
        <ele>2357</ele>
        <time>2021-05-20T05:09:32Z</time>
      </trkpt>
      <trkpt lat="45.91033" lon="6.50574">
        <ele>2357</ele>
        <time>2021-05-20T05:09:33Z</time>
      </trkpt>
      <trkpt lat="45.91033" lon="6.50575">
        <ele>2357</ele>
        <time>2021-05-20T05:09:34Z</time>
      </trkpt>
      <trkpt lat="45.91033" lon="6.50575">
        <ele>2357</ele>
        <time>2021-05-20T05:09:35Z</time>
      </trkpt>
      <trkpt lat="45.91033" lon="6.50575">
        <ele>2357</ele>
        <time>2021-05-20T05:09:36Z</time>
      </trkpt>
      <trkpt lat="45.91033" lon="6.50575">
        <ele>2357</ele>
        <time>2021-05-20T05:09:37Z</time>
      </trkpt>
      <trkpt lat="45.91033" lon="6.50575">
        <ele>2358</ele>
        <time>2021-05-20T05:09:38Z</time>
      </trkpt>
      <trkpt lat="45.91033" lon="6.50575">
        <ele>2358</ele>
        <time>2021-05-20T05:09:39Z</time>
      </trkpt>
      <trkpt lat="45.91031" lon="6.5058">
        <ele>2359</ele>
        <time>2021-05-20T05:09:40Z</time>
      </trkpt>
      <trkpt lat="45.91031" lon="6.5058">
        <ele>2359</ele>
        <time>2021-05-20T05:09:41Z</time>
      </trkpt>
      <trkpt lat="45.91031" lon="6.5058">
        <ele>2359</ele>
        <time>2021-05-20T05:09:42Z</time>
      </trkpt>
      <trkpt lat="45.91031" lon="6.50581">
        <ele>2359</ele>
        <time>2021-05-20T05:09:43Z</time>
      </trkpt>
      <trkpt lat="45.91031" lon="6.50582">
        <ele>2359</ele>
        <time>2021-05-20T05:09:44Z</time>
      </trkpt>
      <trkpt lat="45.91031" lon="6.50583">
        <ele>2359</ele>
        <time>2021-05-20T05:09:45Z</time>
      </trkpt>
      <trkpt lat="45.91031" lon="6.50583">
        <ele>2359</ele>
        <time>2021-05-20T05:09:46Z</time>
      </trkpt>
      <trkpt lat="45.9103" lon="6.50584">
        <ele>2360</ele>
        <time>2021-05-20T05:09:47Z</time>
      </trkpt>
      <trkpt lat="45.9103" lon="6.50585">
        <ele>2360</ele>
        <time>2021-05-20T05:09:48Z</time>
      </trkpt>
      <trkpt lat="45.9103" lon="6.50585">
        <ele>2360</ele>
        <time>2021-05-20T05:09:49Z</time>
      </trkpt>
      <trkpt lat="45.9103" lon="6.50585">
        <ele>2360</ele>
        <time>2021-05-20T05:09:50Z</time>
      </trkpt>
      <trkpt lat="45.9103" lon="6.50585">
        <ele>2360</ele>
        <time>2021-05-20T05:09:51Z</time>
      </trkpt>
      <trkpt lat="45.9103" lon="6.50585">
        <ele>2360</ele>
        <time>2021-05-20T05:09:52Z</time>
      </trkpt>
      <trkpt lat="45.9103" lon="6.5059">
        <ele>2360</ele>
        <time>2021-05-20T05:09:53Z</time>
      </trkpt>
      <trkpt lat="45.9103" lon="6.5059">
        <ele>2360</ele>
        <time>2021-05-20T05:09:54Z</time>
      </trkpt>
      <trkpt lat="45.9103" lon="6.5059">
        <ele>2361</ele>
        <time>2021-05-20T05:09:55Z</time>
      </trkpt>
      <trkpt lat="45.9103" lon="6.5059">
        <ele>2361</ele>
        <time>2021-05-20T05:09:56Z</time>
      </trkpt>
      <trkpt lat="45.9103" lon="6.5059">
        <ele>2362</ele>
        <time>2021-05-20T05:09:57Z</time>
      </trkpt>
      <trkpt lat="45.9103" lon="6.50595">
        <ele>2362</ele>
        <time>2021-05-20T05:09:58Z</time>
      </trkpt>
      <trkpt lat="45.9103" lon="6.50595">
        <ele>2362</ele>
        <time>2021-05-20T05:09:59Z</time>
      </trkpt>
      <trkpt lat="45.91029" lon="6.50596">
        <ele>2362</ele>
        <time>2021-05-20T05:10:00Z</time>
      </trkpt>
      <trkpt lat="45.91029" lon="6.50597">
        <ele>2362</ele>
        <time>2021-05-20T05:10:01Z</time>
      </trkpt>
      <trkpt lat="45.91029" lon="6.50598">
        <ele>2363</ele>
        <time>2021-05-20T05:10:02Z</time>
      </trkpt>
      <trkpt lat="45.91029" lon="6.50599">
        <ele>2363</ele>
        <time>2021-05-20T05:10:03Z</time>
      </trkpt>
      <trkpt lat="45.91028" lon="6.506">
        <ele>2363</ele>
        <time>2021-05-20T05:10:04Z</time>
      </trkpt>
      <trkpt lat="45.91028" lon="6.50601">
        <ele>2363</ele>
        <time>2021-05-20T05:10:05Z</time>
      </trkpt>
      <trkpt lat="45.91028" lon="6.50601">
        <ele>2363</ele>
        <time>2021-05-20T05:10:06Z</time>
      </trkpt>
      <trkpt lat="45.91028" lon="6.50601">
        <ele>2364</ele>
        <time>2021-05-20T05:10:07Z</time>
      </trkpt>
      <trkpt lat="45.91028" lon="6.50601">
        <ele>2364</ele>
        <time>2021-05-20T05:10:08Z</time>
      </trkpt>
      <trkpt lat="45.91027" lon="6.50606">
        <ele>2364</ele>
        <time>2021-05-20T05:10:09Z</time>
      </trkpt>
      <trkpt lat="45.91027" lon="6.50606">
        <ele>2364</ele>
        <time>2021-05-20T05:10:10Z</time>
      </trkpt>
      <trkpt lat="45.91027" lon="6.50606">
        <ele>2365</ele>
        <time>2021-05-20T05:10:11Z</time>
      </trkpt>
      <trkpt lat="45.91027" lon="6.50606">
        <ele>2365</ele>
        <time>2021-05-20T05:10:12Z</time>
      </trkpt>
      <trkpt lat="45.91027" lon="6.50606">
        <ele>2365</ele>
        <time>2021-05-20T05:10:13Z</time>
      </trkpt>
      <trkpt lat="45.91027" lon="6.50611">
        <ele>2365</ele>
        <time>2021-05-20T05:10:14Z</time>
      </trkpt>
      <trkpt lat="45.91027" lon="6.50611">
        <ele>2365</ele>
        <time>2021-05-20T05:10:15Z</time>
      </trkpt>
      <trkpt lat="45.91027" lon="6.50612">
        <ele>2365</ele>
        <time>2021-05-20T05:10:16Z</time>
      </trkpt>
      <trkpt lat="45.91027" lon="6.50613">
        <ele>2365</ele>
        <time>2021-05-20T05:10:17Z</time>
      </trkpt>
      <trkpt lat="45.91027" lon="6.50614">
        <ele>2365</ele>
        <time>2021-05-20T05:10:18Z</time>
      </trkpt>
      <trkpt lat="45.91027" lon="6.50615">
        <ele>2365</ele>
        <time>2021-05-20T05:10:19Z</time>
      </trkpt>
      <trkpt lat="45.91027" lon="6.50616">
        <ele>2365</ele>
        <time>2021-05-20T05:10:20Z</time>
      </trkpt>
      <trkpt lat="45.91026" lon="6.50617">
        <ele>2366</ele>
        <time>2021-05-20T05:10:21Z</time>
      </trkpt>
      <trkpt lat="45.91026" lon="6.50617">
        <ele>2366</ele>
        <time>2021-05-20T05:10:22Z</time>
      </trkpt>
      <trkpt lat="45.91026" lon="6.50617">
        <ele>2366</ele>
        <time>2021-05-20T05:10:23Z</time>
      </trkpt>
      <trkpt lat="45.91026" lon="6.50623">
        <ele>2366</ele>
        <time>2021-05-20T05:10:24Z</time>
      </trkpt>
      <trkpt lat="45.91026" lon="6.50623">
        <ele>2367</ele>
        <time>2021-05-20T05:10:25Z</time>
      </trkpt>
      <trkpt lat="45.91026" lon="6.50624">
        <ele>2367</ele>
        <time>2021-05-20T05:10:26Z</time>
      </trkpt>
      <trkpt lat="45.91026" lon="6.50625">
        <ele>2367</ele>
        <time>2021-05-20T05:10:27Z</time>
      </trkpt>
      <trkpt lat="45.91026" lon="6.50625">
        <ele>2367</ele>
        <time>2021-05-20T05:10:28Z</time>
      </trkpt>
      <trkpt lat="45.91026" lon="6.50626">
        <ele>2368</ele>
        <time>2021-05-20T05:10:29Z</time>
      </trkpt>
      <trkpt lat="45.91026" lon="6.50627">
        <ele>2368</ele>
        <time>2021-05-20T05:10:30Z</time>
      </trkpt>
      <trkpt lat="45.91026" lon="6.50627">
        <ele>2368</ele>
        <time>2021-05-20T05:10:31Z</time>
      </trkpt>
      <trkpt lat="45.91026" lon="6.50627">
        <ele>2368</ele>
        <time>2021-05-20T05:10:32Z</time>
      </trkpt>
      <trkpt lat="45.91026" lon="6.50627">
        <ele>2369</ele>
        <time>2021-05-20T05:10:33Z</time>
      </trkpt>
      <trkpt lat="45.91026" lon="6.50627">
        <ele>2369</ele>
        <time>2021-05-20T05:10:34Z</time>
      </trkpt>
      <trkpt lat="45.91026" lon="6.50627">
        <ele>2369</ele>
        <time>2021-05-20T05:10:35Z</time>
      </trkpt>
      <trkpt lat="45.91026" lon="6.50627">
        <ele>2369</ele>
        <time>2021-05-20T05:10:36Z</time>
      </trkpt>
      <trkpt lat="45.91024" lon="6.50624">
        <ele>2370</ele>
        <time>2021-05-20T05:10:37Z</time>
      </trkpt>
      <trkpt lat="45.91024" lon="6.50624">
        <ele>2370</ele>
        <time>2021-05-20T05:10:38Z</time>
      </trkpt>
      <trkpt lat="45.91024" lon="6.50624">
        <ele>2370</ele>
        <time>2021-05-20T05:10:39Z</time>
      </trkpt>
      <trkpt lat="45.91024" lon="6.50624">
        <ele>2370</ele>
        <time>2021-05-20T05:10:40Z</time>
      </trkpt>
      <trkpt lat="45.91024" lon="6.50624">
        <ele>2370</ele>
        <time>2021-05-20T05:10:41Z</time>
      </trkpt>
      <trkpt lat="45.91024" lon="6.50624">
        <ele>2370</ele>
        <time>2021-05-20T05:10:42Z</time>
      </trkpt>
      <trkpt lat="45.91024" lon="6.50624">
        <ele>2371</ele>
        <time>2021-05-20T05:10:43Z</time>
      </trkpt>
      <trkpt lat="45.91024" lon="6.50624">
        <ele>2371</ele>
        <time>2021-05-20T05:10:44Z</time>
      </trkpt>
      <trkpt lat="45.91024" lon="6.50624">
        <ele>2371</ele>
        <time>2021-05-20T05:10:45Z</time>
      </trkpt>
      <trkpt lat="45.91024" lon="6.50624">
        <ele>2371</ele>
        <time>2021-05-20T05:10:46Z</time>
      </trkpt>
      <trkpt lat="45.91024" lon="6.50624">
        <ele>2371</ele>
        <time>2021-05-20T05:10:47Z</time>
      </trkpt>
      <trkpt lat="45.91024" lon="6.50624">
        <ele>2371</ele>
        <time>2021-05-20T05:10:48Z</time>
      </trkpt>
      <trkpt lat="45.91024" lon="6.50624">
        <ele>2371</ele>
        <time>2021-05-20T05:10:49Z</time>
      </trkpt>
      <trkpt lat="45.91024" lon="6.50624">
        <ele>2371</ele>
        <time>2021-05-20T05:10:50Z</time>
      </trkpt>
      <trkpt lat="45.91024" lon="6.50624">
        <ele>2371</ele>
        <time>2021-05-20T05:10:51Z</time>
      </trkpt>
      <trkpt lat="45.91021" lon="6.50627">
        <ele>2372</ele>
        <time>2021-05-20T05:10:52Z</time>
      </trkpt>
      <trkpt lat="45.91021" lon="6.50627">
        <ele>2372</ele>
        <time>2021-05-20T05:10:53Z</time>
      </trkpt>
      <trkpt lat="45.91021" lon="6.50627">
        <ele>2373</ele>
        <time>2021-05-20T05:10:54Z</time>
      </trkpt>
      <trkpt lat="45.91021" lon="6.50627">
        <ele>2373</ele>
        <time>2021-05-20T05:10:55Z</time>
      </trkpt>
      <trkpt lat="45.91021" lon="6.50627">
        <ele>2372</ele>
        <time>2021-05-20T05:10:56Z</time>
      </trkpt>
      <trkpt lat="45.91022" lon="6.50632">
        <ele>2372</ele>
        <time>2021-05-20T05:10:57Z</time>
      </trkpt>
      <trkpt lat="45.91022" lon="6.50632">
        <ele>2372</ele>
        <time>2021-05-20T05:10:58Z</time>
      </trkpt>
      <trkpt lat="45.91022" lon="6.50632">
        <ele>2373</ele>
        <time>2021-05-20T05:10:59Z</time>
      </trkpt>
      <trkpt lat="45.91022" lon="6.50632">
        <ele>2373</ele>
        <time>2021-05-20T05:11:00Z</time>
      </trkpt>
      <trkpt lat="45.91022" lon="6.50632">
        <ele>2373</ele>
        <time>2021-05-20T05:11:01Z</time>
      </trkpt>
      <trkpt lat="45.91022" lon="6.50632">
        <ele>2373</ele>
        <time>2021-05-20T05:11:02Z</time>
      </trkpt>
      <trkpt lat="45.91021" lon="6.50638">
        <ele>2373</ele>
        <time>2021-05-20T05:11:03Z</time>
      </trkpt>
      <trkpt lat="45.91021" lon="6.50638">
        <ele>2374</ele>
        <time>2021-05-20T05:11:04Z</time>
      </trkpt>
      <trkpt lat="45.91021" lon="6.50639">
        <ele>2374</ele>
        <time>2021-05-20T05:11:05Z</time>
      </trkpt>
      <trkpt lat="45.91021" lon="6.5064">
        <ele>2374</ele>
        <time>2021-05-20T05:11:06Z</time>
      </trkpt>
      <trkpt lat="45.91021" lon="6.50641">
        <ele>2375</ele>
        <time>2021-05-20T05:11:07Z</time>
      </trkpt>
      <trkpt lat="45.91021" lon="6.50642">
        <ele>2375</ele>
        <time>2021-05-20T05:11:08Z</time>
      </trkpt>
      <trkpt lat="45.91021" lon="6.50643">
        <ele>2375</ele>
        <time>2021-05-20T05:11:09Z</time>
      </trkpt>
      <trkpt lat="45.91021" lon="6.50643">
        <ele>2375</ele>
        <time>2021-05-20T05:11:10Z</time>
      </trkpt>
      <trkpt lat="45.91021" lon="6.50643">
        <ele>2376</ele>
        <time>2021-05-20T05:11:11Z</time>
      </trkpt>
      <trkpt lat="45.91021" lon="6.50643">
        <ele>2376</ele>
        <time>2021-05-20T05:11:12Z</time>
      </trkpt>
      <trkpt lat="45.91021" lon="6.50643">
        <ele>2376</ele>
        <time>2021-05-20T05:11:13Z</time>
      </trkpt>
      <trkpt lat="45.91021" lon="6.50648">
        <ele>2376</ele>
        <time>2021-05-20T05:11:14Z</time>
      </trkpt>
      <trkpt lat="45.91021" lon="6.50648">
        <ele>2376</ele>
        <time>2021-05-20T05:11:15Z</time>
      </trkpt>
      <trkpt lat="45.91021" lon="6.50648">
        <ele>2376</ele>
        <time>2021-05-20T05:11:16Z</time>
      </trkpt>
      <trkpt lat="45.91021" lon="6.50648">
        <ele>2376</ele>
        <time>2021-05-20T05:11:17Z</time>
      </trkpt>
      <trkpt lat="45.91021" lon="6.50648">
        <ele>2377</ele>
        <time>2021-05-20T05:11:18Z</time>
      </trkpt>
      <trkpt lat="45.91021" lon="6.50648">
        <ele>2377</ele>
        <time>2021-05-20T05:11:19Z</time>
      </trkpt>
      <trkpt lat="45.91021" lon="6.50653">
        <ele>2377</ele>
        <time>2021-05-20T05:11:20Z</time>
      </trkpt>
      <trkpt lat="45.91021" lon="6.50653">
        <ele>2377</ele>
        <time>2021-05-20T05:11:21Z</time>
      </trkpt>
      <trkpt lat="45.91021" lon="6.50653">
        <ele>2377</ele>
        <time>2021-05-20T05:11:22Z</time>
      </trkpt>
      <trkpt lat="45.91021" lon="6.50653">
        <ele>2378</ele>
        <time>2021-05-20T05:11:23Z</time>
      </trkpt>
      <trkpt lat="45.91021" lon="6.50653">
        <ele>2379</ele>
        <time>2021-05-20T05:11:24Z</time>
      </trkpt>
      <trkpt lat="45.91021" lon="6.50653">
        <ele>2379</ele>
        <time>2021-05-20T05:11:25Z</time>
      </trkpt>
      <trkpt lat="45.91021" lon="6.50653">
        <ele>2379</ele>
        <time>2021-05-20T05:11:26Z</time>
      </trkpt>
      <trkpt lat="45.91021" lon="6.50653">
        <ele>2379</ele>
        <time>2021-05-20T05:11:27Z</time>
      </trkpt>
      <trkpt lat="45.91018" lon="6.50653">
        <ele>2379</ele>
        <time>2021-05-20T05:11:28Z</time>
      </trkpt>
      <trkpt lat="45.91018" lon="6.50653">
        <ele>2379</ele>
        <time>2021-05-20T05:11:29Z</time>
      </trkpt>
      <trkpt lat="45.91018" lon="6.50653">
        <ele>2379</ele>
        <time>2021-05-20T05:11:30Z</time>
      </trkpt>
      <trkpt lat="45.91018" lon="6.50653">
        <ele>2379</ele>
        <time>2021-05-20T05:11:31Z</time>
      </trkpt>
      <trkpt lat="45.91018" lon="6.50653">
        <ele>2381</ele>
        <time>2021-05-20T05:11:32Z</time>
      </trkpt>
      <trkpt lat="45.91015" lon="6.5065">
        <ele>2381</ele>
        <time>2021-05-20T05:11:33Z</time>
      </trkpt>
      <trkpt lat="45.91014" lon="6.5065">
        <ele>2381</ele>
        <time>2021-05-20T05:11:34Z</time>
      </trkpt>
      <trkpt lat="45.91014" lon="6.5065">
        <ele>2382</ele>
        <time>2021-05-20T05:11:35Z</time>
      </trkpt>
      <trkpt lat="45.91013" lon="6.50649">
        <ele>2382</ele>
        <time>2021-05-20T05:11:36Z</time>
      </trkpt>
      <trkpt lat="45.91013" lon="6.50649">
        <ele>2383</ele>
        <time>2021-05-20T05:11:37Z</time>
      </trkpt>
      <trkpt lat="45.91012" lon="6.50648">
        <ele>2383</ele>
        <time>2021-05-20T05:11:38Z</time>
      </trkpt>
      <trkpt lat="45.91012" lon="6.50648">
        <ele>2383</ele>
        <time>2021-05-20T05:11:39Z</time>
      </trkpt>
      <trkpt lat="45.91012" lon="6.50648">
        <ele>2383</ele>
        <time>2021-05-20T05:11:40Z</time>
      </trkpt>
      <trkpt lat="45.91012" lon="6.50648">
        <ele>2384</ele>
        <time>2021-05-20T05:11:41Z</time>
      </trkpt>
      <trkpt lat="45.91012" lon="6.50648">
        <ele>2384</ele>
        <time>2021-05-20T05:11:42Z</time>
      </trkpt>
      <trkpt lat="45.91009" lon="6.50645">
        <ele>2384</ele>
        <time>2021-05-20T05:11:43Z</time>
      </trkpt>
      <trkpt lat="45.91009" lon="6.50645">
        <ele>2384</ele>
        <time>2021-05-20T05:11:44Z</time>
      </trkpt>
      <trkpt lat="45.91009" lon="6.50645">
        <ele>2384</ele>
        <time>2021-05-20T05:11:45Z</time>
      </trkpt>
      <trkpt lat="45.91009" lon="6.50645">
        <ele>2384</ele>
        <time>2021-05-20T05:11:46Z</time>
      </trkpt>
      <trkpt lat="45.91009" lon="6.50645">
        <ele>2384</ele>
        <time>2021-05-20T05:11:47Z</time>
      </trkpt>
      <trkpt lat="45.91006" lon="6.50641">
        <ele>2384</ele>
        <time>2021-05-20T05:11:48Z</time>
      </trkpt>
      <trkpt lat="45.91006" lon="6.50641">
        <ele>2384</ele>
        <time>2021-05-20T05:11:49Z</time>
      </trkpt>
      <trkpt lat="45.91006" lon="6.50641">
        <ele>2385</ele>
        <time>2021-05-20T05:11:50Z</time>
      </trkpt>
      <trkpt lat="45.91006" lon="6.50642">
        <ele>2385</ele>
        <time>2021-05-20T05:11:51Z</time>
      </trkpt>
      <trkpt lat="45.91006" lon="6.50642">
        <ele>2385</ele>
        <time>2021-05-20T05:11:52Z</time>
      </trkpt>
      <trkpt lat="45.91006" lon="6.50643">
        <ele>2386</ele>
        <time>2021-05-20T05:11:53Z</time>
      </trkpt>
      <trkpt lat="45.91006" lon="6.50643">
        <ele>2386</ele>
        <time>2021-05-20T05:11:54Z</time>
      </trkpt>
      <trkpt lat="45.91006" lon="6.50644">
        <ele>2386</ele>
        <time>2021-05-20T05:11:55Z</time>
      </trkpt>
      <trkpt lat="45.91006" lon="6.50644">
        <ele>2386</ele>
        <time>2021-05-20T05:11:56Z</time>
      </trkpt>
      <trkpt lat="45.91006" lon="6.50645">
        <ele>2386</ele>
        <time>2021-05-20T05:11:57Z</time>
      </trkpt>
      <trkpt lat="45.91005" lon="6.50645">
        <ele>2386</ele>
        <time>2021-05-20T05:11:58Z</time>
      </trkpt>
      <trkpt lat="45.91005" lon="6.50646">
        <ele>2387</ele>
        <time>2021-05-20T05:11:59Z</time>
      </trkpt>
      <trkpt lat="45.91005" lon="6.50646">
        <ele>2387</ele>
        <time>2021-05-20T05:12:00Z</time>
      </trkpt>
      <trkpt lat="45.91005" lon="6.50646">
        <ele>2387</ele>
        <time>2021-05-20T05:12:01Z</time>
      </trkpt>
      <trkpt lat="45.91005" lon="6.50646">
        <ele>2387</ele>
        <time>2021-05-20T05:12:02Z</time>
      </trkpt>
      <trkpt lat="45.91005" lon="6.50652">
        <ele>2387</ele>
        <time>2021-05-20T05:12:03Z</time>
      </trkpt>
      <trkpt lat="45.91005" lon="6.50652">
        <ele>2387</ele>
        <time>2021-05-20T05:12:04Z</time>
      </trkpt>
      <trkpt lat="45.91005" lon="6.50653">
        <ele>2387</ele>
        <time>2021-05-20T05:12:05Z</time>
      </trkpt>
      <trkpt lat="45.91005" lon="6.50654">
        <ele>2388</ele>
        <time>2021-05-20T05:12:06Z</time>
      </trkpt>
      <trkpt lat="45.91004" lon="6.50655">
        <ele>2388</ele>
        <time>2021-05-20T05:12:07Z</time>
      </trkpt>
      <trkpt lat="45.91004" lon="6.50656">
        <ele>2388</ele>
        <time>2021-05-20T05:12:08Z</time>
      </trkpt>
      <trkpt lat="45.91004" lon="6.50657">
        <ele>2389</ele>
        <time>2021-05-20T05:12:09Z</time>
      </trkpt>
      <trkpt lat="45.91004" lon="6.50658">
        <ele>2389</ele>
        <time>2021-05-20T05:12:10Z</time>
      </trkpt>
      <trkpt lat="45.91004" lon="6.50659">
        <ele>2389</ele>
        <time>2021-05-20T05:12:11Z</time>
      </trkpt>
      <trkpt lat="45.91004" lon="6.5066">
        <ele>2389</ele>
        <time>2021-05-20T05:12:12Z</time>
      </trkpt>
      <trkpt lat="45.91004" lon="6.50661">
        <ele>2389</ele>
        <time>2021-05-20T05:12:13Z</time>
      </trkpt>
      <trkpt lat="45.91004" lon="6.50662">
        <ele>2389</ele>
        <time>2021-05-20T05:12:14Z</time>
      </trkpt>
      <trkpt lat="45.91004" lon="6.50663">
        <ele>2389</ele>
        <time>2021-05-20T05:12:15Z</time>
      </trkpt>
      <trkpt lat="45.91003" lon="6.50664">
        <ele>2389</ele>
        <time>2021-05-20T05:12:16Z</time>
      </trkpt>
      <trkpt lat="45.91003" lon="6.50664">
        <ele>2389</ele>
        <time>2021-05-20T05:12:17Z</time>
      </trkpt>
      <trkpt lat="45.91003" lon="6.50664">
        <ele>2390</ele>
        <time>2021-05-20T05:12:18Z</time>
      </trkpt>
      <trkpt lat="45.91003" lon="6.50664">
        <ele>2390</ele>
        <time>2021-05-20T05:12:19Z</time>
      </trkpt>
      <trkpt lat="45.91003" lon="6.50664">
        <ele>2390</ele>
        <time>2021-05-20T05:12:20Z</time>
      </trkpt>
      <trkpt lat="45.91003" lon="6.50669">
        <ele>2390</ele>
        <time>2021-05-20T05:12:21Z</time>
      </trkpt>
      <trkpt lat="45.91003" lon="6.50669">
        <ele>2391</ele>
        <time>2021-05-20T05:12:22Z</time>
      </trkpt>
      <trkpt lat="45.91003" lon="6.50669">
        <ele>2391</ele>
        <time>2021-05-20T05:12:23Z</time>
      </trkpt>
      <trkpt lat="45.91003" lon="6.50669">
        <ele>2391</ele>
        <time>2021-05-20T05:12:24Z</time>
      </trkpt>
      <trkpt lat="45.91003" lon="6.50669">
        <ele>2391</ele>
        <time>2021-05-20T05:12:25Z</time>
      </trkpt>
      <trkpt lat="45.91002" lon="6.50674">
        <ele>2392</ele>
        <time>2021-05-20T05:12:26Z</time>
      </trkpt>
      <trkpt lat="45.91002" lon="6.50674">
        <ele>2392</ele>
        <time>2021-05-20T05:12:27Z</time>
      </trkpt>
      <trkpt lat="45.91002" lon="6.50675">
        <ele>2392</ele>
        <time>2021-05-20T05:12:28Z</time>
      </trkpt>
      <trkpt lat="45.91002" lon="6.50675">
        <ele>2392</ele>
        <time>2021-05-20T05:12:29Z</time>
      </trkpt>
      <trkpt lat="45.91002" lon="6.50676">
        <ele>2392</ele>
        <time>2021-05-20T05:12:30Z</time>
      </trkpt>
      <trkpt lat="45.91002" lon="6.50677">
        <ele>2393</ele>
        <time>2021-05-20T05:12:31Z</time>
      </trkpt>
      <trkpt lat="45.91002" lon="6.50678">
        <ele>2393</ele>
        <time>2021-05-20T05:12:32Z</time>
      </trkpt>
      <trkpt lat="45.91002" lon="6.50678">
        <ele>2393</ele>
        <time>2021-05-20T05:12:33Z</time>
      </trkpt>
      <trkpt lat="45.91001" lon="6.50679">
        <ele>2393</ele>
        <time>2021-05-20T05:12:34Z</time>
      </trkpt>
      <trkpt lat="45.91002" lon="6.5068">
        <ele>2393</ele>
        <time>2021-05-20T05:12:35Z</time>
      </trkpt>
      <trkpt lat="45.91002" lon="6.50681">
        <ele>2394</ele>
        <time>2021-05-20T05:12:36Z</time>
      </trkpt>
      <trkpt lat="45.91002" lon="6.50682">
        <ele>2394</ele>
        <time>2021-05-20T05:12:37Z</time>
      </trkpt>
      <trkpt lat="45.91002" lon="6.50682">
        <ele>2394</ele>
        <time>2021-05-20T05:12:38Z</time>
      </trkpt>
      <trkpt lat="45.91002" lon="6.50683">
        <ele>2394</ele>
        <time>2021-05-20T05:12:39Z</time>
      </trkpt>
      <trkpt lat="45.91002" lon="6.50684">
        <ele>2395</ele>
        <time>2021-05-20T05:12:40Z</time>
      </trkpt>
      <trkpt lat="45.91002" lon="6.50685">
        <ele>2395</ele>
        <time>2021-05-20T05:12:41Z</time>
      </trkpt>
      <trkpt lat="45.91002" lon="6.50685">
        <ele>2395</ele>
        <time>2021-05-20T05:12:42Z</time>
      </trkpt>
      <trkpt lat="45.91002" lon="6.50685">
        <ele>2395</ele>
        <time>2021-05-20T05:12:43Z</time>
      </trkpt>
      <trkpt lat="45.91002" lon="6.50685">
        <ele>2395</ele>
        <time>2021-05-20T05:12:44Z</time>
      </trkpt>
      <trkpt lat="45.91002" lon="6.50685">
        <ele>2396</ele>
        <time>2021-05-20T05:12:45Z</time>
      </trkpt>
      <trkpt lat="45.91003" lon="6.5069">
        <ele>2396</ele>
        <time>2021-05-20T05:12:46Z</time>
      </trkpt>
      <trkpt lat="45.91003" lon="6.5069">
        <ele>2396</ele>
        <time>2021-05-20T05:12:47Z</time>
      </trkpt>
      <trkpt lat="45.91003" lon="6.5069">
        <ele>2396</ele>
        <time>2021-05-20T05:12:48Z</time>
      </trkpt>
      <trkpt lat="45.91003" lon="6.5069">
        <ele>2396</ele>
        <time>2021-05-20T05:12:49Z</time>
      </trkpt>
      <trkpt lat="45.91003" lon="6.5069">
        <ele>2397</ele>
        <time>2021-05-20T05:12:50Z</time>
      </trkpt>
      <trkpt lat="45.91003" lon="6.5069">
        <ele>2397</ele>
        <time>2021-05-20T05:12:51Z</time>
      </trkpt>
      <trkpt lat="45.91003" lon="6.5069">
        <ele>2397</ele>
        <time>2021-05-20T05:12:52Z</time>
      </trkpt>
      <trkpt lat="45.91003" lon="6.5069">
        <ele>2397</ele>
        <time>2021-05-20T05:12:53Z</time>
      </trkpt>
      <trkpt lat="45.91003" lon="6.5069">
        <ele>2397</ele>
        <time>2021-05-20T05:12:54Z</time>
      </trkpt>
      <trkpt lat="45.91003" lon="6.5069">
        <ele>2398</ele>
        <time>2021-05-20T05:12:55Z</time>
      </trkpt>
      <trkpt lat="45.91002" lon="6.50694">
        <ele>2399</ele>
        <time>2021-05-20T05:12:56Z</time>
      </trkpt>
      <trkpt lat="45.91002" lon="6.50694">
        <ele>2399</ele>
        <time>2021-05-20T05:12:57Z</time>
      </trkpt>
      <trkpt lat="45.91001" lon="6.50693">
        <ele>2399</ele>
        <time>2021-05-20T05:12:58Z</time>
      </trkpt>
      <trkpt lat="45.91" lon="6.50693">
        <ele>2399</ele>
        <time>2021-05-20T05:12:59Z</time>
      </trkpt>
      <trkpt lat="45.91" lon="6.50692">
        <ele>2399</ele>
        <time>2021-05-20T05:13:00Z</time>
      </trkpt>
      <trkpt lat="45.90999" lon="6.50692">
        <ele>2400</ele>
        <time>2021-05-20T05:13:01Z</time>
      </trkpt>
      <trkpt lat="45.90998" lon="6.50692">
        <ele>2400</ele>
        <time>2021-05-20T05:13:02Z</time>
      </trkpt>
      <trkpt lat="45.90998" lon="6.50692">
        <ele>2400</ele>
        <time>2021-05-20T05:13:03Z</time>
      </trkpt>
      <trkpt lat="45.90998" lon="6.50692">
        <ele>2400</ele>
        <time>2021-05-20T05:13:04Z</time>
      </trkpt>
      <trkpt lat="45.90998" lon="6.50692">
        <ele>2400</ele>
        <time>2021-05-20T05:13:05Z</time>
      </trkpt>
      <trkpt lat="45.90995" lon="6.50689">
        <ele>2400</ele>
        <time>2021-05-20T05:13:06Z</time>
      </trkpt>
      <trkpt lat="45.90995" lon="6.50689">
        <ele>2401</ele>
        <time>2021-05-20T05:13:07Z</time>
      </trkpt>
      <trkpt lat="45.90995" lon="6.50689">
        <ele>2401</ele>
        <time>2021-05-20T05:13:08Z</time>
      </trkpt>
      <trkpt lat="45.90995" lon="6.50689">
        <ele>2402</ele>
        <time>2021-05-20T05:13:09Z</time>
      </trkpt>
      <trkpt lat="45.90991" lon="6.50688">
        <ele>2402</ele>
        <time>2021-05-20T05:13:10Z</time>
      </trkpt>
      <trkpt lat="45.90991" lon="6.50688">
        <ele>2402</ele>
        <time>2021-05-20T05:13:11Z</time>
      </trkpt>
      <trkpt lat="45.90991" lon="6.50688">
        <ele>2402</ele>
        <time>2021-05-20T05:13:12Z</time>
      </trkpt>
      <trkpt lat="45.9099" lon="6.50687">
        <ele>2402</ele>
        <time>2021-05-20T05:13:13Z</time>
      </trkpt>
      <trkpt lat="45.9099" lon="6.50686">
        <ele>2402</ele>
        <time>2021-05-20T05:13:14Z</time>
      </trkpt>
      <trkpt lat="45.90989" lon="6.50686">
        <ele>2402</ele>
        <time>2021-05-20T05:13:15Z</time>
      </trkpt>
      <trkpt lat="45.90989" lon="6.50685">
        <ele>2402</ele>
        <time>2021-05-20T05:13:16Z</time>
      </trkpt>
      <trkpt lat="45.90988" lon="6.50685">
        <ele>2403</ele>
        <time>2021-05-20T05:13:17Z</time>
      </trkpt>
      <trkpt lat="45.90988" lon="6.50685">
        <ele>2403</ele>
        <time>2021-05-20T05:13:18Z</time>
      </trkpt>
      <trkpt lat="45.90988" lon="6.50685">
        <ele>2404</ele>
        <time>2021-05-20T05:13:19Z</time>
      </trkpt>
      <trkpt lat="45.90988" lon="6.50685">
        <ele>2404</ele>
        <time>2021-05-20T05:13:20Z</time>
      </trkpt>
      <trkpt lat="45.90988" lon="6.50685">
        <ele>2404</ele>
        <time>2021-05-20T05:13:21Z</time>
      </trkpt>
      <trkpt lat="45.90988" lon="6.50685">
        <ele>2404</ele>
        <time>2021-05-20T05:13:22Z</time>
      </trkpt>
      <trkpt lat="45.90988" lon="6.50685">
        <ele>2404</ele>
        <time>2021-05-20T05:13:23Z</time>
      </trkpt>
      <trkpt lat="45.90988" lon="6.50685">
        <ele>2404</ele>
        <time>2021-05-20T05:13:24Z</time>
      </trkpt>
      <trkpt lat="45.90988" lon="6.50685">
        <ele>2404</ele>
        <time>2021-05-20T05:13:25Z</time>
      </trkpt>
      <trkpt lat="45.90986" lon="6.50687">
        <ele>2405</ele>
        <time>2021-05-20T05:13:26Z</time>
      </trkpt>
      <trkpt lat="45.90986" lon="6.50687">
        <ele>2405</ele>
        <time>2021-05-20T05:13:27Z</time>
      </trkpt>
      <trkpt lat="45.90986" lon="6.50688">
        <ele>2405</ele>
        <time>2021-05-20T05:13:28Z</time>
      </trkpt>
      <trkpt lat="45.90986" lon="6.50689">
        <ele>2405</ele>
        <time>2021-05-20T05:13:29Z</time>
      </trkpt>
      <trkpt lat="45.90985" lon="6.50691">
        <ele>2405</ele>
        <time>2021-05-20T05:13:30Z</time>
      </trkpt>
      <trkpt lat="45.90985" lon="6.50692">
        <ele>2405</ele>
        <time>2021-05-20T05:13:31Z</time>
      </trkpt>
      <trkpt lat="45.90985" lon="6.50693">
        <ele>2405</ele>
        <time>2021-05-20T05:13:32Z</time>
      </trkpt>
      <trkpt lat="45.90985" lon="6.50693">
        <ele>2405</ele>
        <time>2021-05-20T05:13:33Z</time>
      </trkpt>
      <trkpt lat="45.90985" lon="6.50693">
        <ele>2405</ele>
        <time>2021-05-20T05:13:34Z</time>
      </trkpt>
      <trkpt lat="45.90985" lon="6.50693">
        <ele>2405</ele>
        <time>2021-05-20T05:13:35Z</time>
      </trkpt>
      <trkpt lat="45.90985" lon="6.50693">
        <ele>2405</ele>
        <time>2021-05-20T05:13:36Z</time>
      </trkpt>
      <trkpt lat="45.90985" lon="6.50698">
        <ele>2407</ele>
        <time>2021-05-20T05:13:37Z</time>
      </trkpt>
      <trkpt lat="45.90985" lon="6.50698">
        <ele>2407</ele>
        <time>2021-05-20T05:13:38Z</time>
      </trkpt>
      <trkpt lat="45.90985" lon="6.50699">
        <ele>2407</ele>
        <time>2021-05-20T05:13:39Z</time>
      </trkpt>
      <trkpt lat="45.90985" lon="6.507">
        <ele>2408</ele>
        <time>2021-05-20T05:13:40Z</time>
      </trkpt>
      <trkpt lat="45.90985" lon="6.50701">
        <ele>2408</ele>
        <time>2021-05-20T05:13:41Z</time>
      </trkpt>
      <trkpt lat="45.90985" lon="6.50702">
        <ele>2409</ele>
        <time>2021-05-20T05:13:42Z</time>
      </trkpt>
      <trkpt lat="45.90985" lon="6.50703">
        <ele>2409</ele>
        <time>2021-05-20T05:13:43Z</time>
      </trkpt>
      <trkpt lat="45.90985" lon="6.50703">
        <ele>2409</ele>
        <time>2021-05-20T05:13:44Z</time>
      </trkpt>
      <trkpt lat="45.90985" lon="6.50703">
        <ele>2409</ele>
        <time>2021-05-20T05:13:45Z</time>
      </trkpt>
      <trkpt lat="45.90985" lon="6.50703">
        <ele>2409</ele>
        <time>2021-05-20T05:13:46Z</time>
      </trkpt>
      <trkpt lat="45.90985" lon="6.50703">
        <ele>2410</ele>
        <time>2021-05-20T05:13:47Z</time>
      </trkpt>
      <trkpt lat="45.90985" lon="6.50703">
        <ele>2410</ele>
        <time>2021-05-20T05:13:48Z</time>
      </trkpt>
      <trkpt lat="45.90985" lon="6.50703">
        <ele>2410</ele>
        <time>2021-05-20T05:13:49Z</time>
      </trkpt>
      <trkpt lat="45.90984" lon="6.50708">
        <ele>2410</ele>
        <time>2021-05-20T05:13:50Z</time>
      </trkpt>
      <trkpt lat="45.90984" lon="6.50708">
        <ele>2410</ele>
        <time>2021-05-20T05:13:51Z</time>
      </trkpt>
      <trkpt lat="45.90984" lon="6.50708">
        <ele>2411</ele>
        <time>2021-05-20T05:13:52Z</time>
      </trkpt>
      <trkpt lat="45.90984" lon="6.50708">
        <ele>2411</ele>
        <time>2021-05-20T05:13:53Z</time>
      </trkpt>
      <trkpt lat="45.90984" lon="6.50708">
        <ele>2411</ele>
        <time>2021-05-20T05:13:54Z</time>
      </trkpt>
      <trkpt lat="45.90984" lon="6.50708">
        <ele>2411</ele>
        <time>2021-05-20T05:13:55Z</time>
      </trkpt>
      <trkpt lat="45.90985" lon="6.50714">
        <ele>2411</ele>
        <time>2021-05-20T05:13:56Z</time>
      </trkpt>
      <trkpt lat="45.90985" lon="6.50714">
        <ele>2412</ele>
        <time>2021-05-20T05:13:57Z</time>
      </trkpt>
      <trkpt lat="45.90985" lon="6.50714">
        <ele>2412</ele>
        <time>2021-05-20T05:13:58Z</time>
      </trkpt>
      <trkpt lat="45.90985" lon="6.50714">
        <ele>2412</ele>
        <time>2021-05-20T05:13:59Z</time>
      </trkpt>
      <trkpt lat="45.90985" lon="6.50714">
        <ele>2412</ele>
        <time>2021-05-20T05:14:00Z</time>
      </trkpt>
      <trkpt lat="45.90985" lon="6.50714">
        <ele>2412</ele>
        <time>2021-05-20T05:14:01Z</time>
      </trkpt>
      <trkpt lat="45.90985" lon="6.50718">
        <ele>2413</ele>
        <time>2021-05-20T05:14:02Z</time>
      </trkpt>
      <trkpt lat="45.90985" lon="6.50718">
        <ele>2413</ele>
        <time>2021-05-20T05:14:03Z</time>
      </trkpt>
      <trkpt lat="45.90985" lon="6.50718">
        <ele>2414</ele>
        <time>2021-05-20T05:14:04Z</time>
      </trkpt>
      <trkpt lat="45.90985" lon="6.50718">
        <ele>2414</ele>
        <time>2021-05-20T05:14:05Z</time>
      </trkpt>
      <trkpt lat="45.90985" lon="6.50718">
        <ele>2415</ele>
        <time>2021-05-20T05:14:06Z</time>
      </trkpt>
      <trkpt lat="45.90985" lon="6.50718">
        <ele>2415</ele>
        <time>2021-05-20T05:14:07Z</time>
      </trkpt>
      <trkpt lat="45.90985" lon="6.50718">
        <ele>2415</ele>
        <time>2021-05-20T05:14:08Z</time>
      </trkpt>
      <trkpt lat="45.90982" lon="6.50718">
        <ele>2415</ele>
        <time>2021-05-20T05:14:09Z</time>
      </trkpt>
      <trkpt lat="45.90982" lon="6.50718">
        <ele>2415</ele>
        <time>2021-05-20T05:14:10Z</time>
      </trkpt>
      <trkpt lat="45.90981" lon="6.50718">
        <ele>2415</ele>
        <time>2021-05-20T05:14:11Z</time>
      </trkpt>
      <trkpt lat="45.90981" lon="6.50718">
        <ele>2415</ele>
        <time>2021-05-20T05:14:12Z</time>
      </trkpt>
      <trkpt lat="45.9098" lon="6.50718">
        <ele>2416</ele>
        <time>2021-05-20T05:14:13Z</time>
      </trkpt>
      <trkpt lat="45.9098" lon="6.50718">
        <ele>2417</ele>
        <time>2021-05-20T05:14:14Z</time>
      </trkpt>
      <trkpt lat="45.90979" lon="6.50718">
        <ele>2417</ele>
        <time>2021-05-20T05:14:15Z</time>
      </trkpt>
      <trkpt lat="45.90979" lon="6.50718">
        <ele>2417</ele>
        <time>2021-05-20T05:14:16Z</time>
      </trkpt>
      <trkpt lat="45.90979" lon="6.50718">
        <ele>2417</ele>
        <time>2021-05-20T05:14:17Z</time>
      </trkpt>
      <trkpt lat="45.90979" lon="6.50718">
        <ele>2417</ele>
        <time>2021-05-20T05:14:18Z</time>
      </trkpt>
      <trkpt lat="45.90979" lon="6.50718">
        <ele>2417</ele>
        <time>2021-05-20T05:14:19Z</time>
      </trkpt>
      <trkpt lat="45.90979" lon="6.50718">
        <ele>2417</ele>
        <time>2021-05-20T05:14:20Z</time>
      </trkpt>
      <trkpt lat="45.90975" lon="6.50717">
        <ele>2417</ele>
        <time>2021-05-20T05:14:21Z</time>
      </trkpt>
      <trkpt lat="45.90975" lon="6.50717">
        <ele>2417</ele>
        <time>2021-05-20T05:14:22Z</time>
      </trkpt>
      <trkpt lat="45.90975" lon="6.50717">
        <ele>2418</ele>
        <time>2021-05-20T05:14:23Z</time>
      </trkpt>
      <trkpt lat="45.90975" lon="6.50717">
        <ele>2418</ele>
        <time>2021-05-20T05:14:24Z</time>
      </trkpt>
      <trkpt lat="45.90975" lon="6.50717">
        <ele>2419</ele>
        <time>2021-05-20T05:14:25Z</time>
      </trkpt>
      <trkpt lat="45.90975" lon="6.50717">
        <ele>2419</ele>
        <time>2021-05-20T05:14:26Z</time>
      </trkpt>
      <trkpt lat="45.90975" lon="6.50717">
        <ele>2419</ele>
        <time>2021-05-20T05:14:27Z</time>
      </trkpt>
      <trkpt lat="45.90975" lon="6.50717">
        <ele>2419</ele>
        <time>2021-05-20T05:14:28Z</time>
      </trkpt>
      <trkpt lat="45.90975" lon="6.50717">
        <ele>2419</ele>
        <time>2021-05-20T05:14:29Z</time>
      </trkpt>
      <trkpt lat="45.90975" lon="6.50717">
        <ele>2419</ele>
        <time>2021-05-20T05:14:30Z</time>
      </trkpt>
      <trkpt lat="45.90975" lon="6.50721">
        <ele>2419</ele>
        <time>2021-05-20T05:14:31Z</time>
      </trkpt>
      <trkpt lat="45.90975" lon="6.50721">
        <ele>2420</ele>
        <time>2021-05-20T05:14:32Z</time>
      </trkpt>
      <trkpt lat="45.90975" lon="6.50721">
        <ele>2420</ele>
        <time>2021-05-20T05:14:33Z</time>
      </trkpt>
      <trkpt lat="45.90975" lon="6.50721">
        <ele>2420</ele>
        <time>2021-05-20T05:14:34Z</time>
      </trkpt>
      <trkpt lat="45.90976" lon="6.50726">
        <ele>2420</ele>
        <time>2021-05-20T05:14:35Z</time>
      </trkpt>
      <trkpt lat="45.90976" lon="6.50726">
        <ele>2420</ele>
        <time>2021-05-20T05:14:36Z</time>
      </trkpt>
      <trkpt lat="45.90976" lon="6.50726">
        <ele>2420</ele>
        <time>2021-05-20T05:14:37Z</time>
      </trkpt>
      <trkpt lat="45.90976" lon="6.50726">
        <ele>2420</ele>
        <time>2021-05-20T05:14:38Z</time>
      </trkpt>
      <trkpt lat="45.90976" lon="6.50726">
        <ele>2421</ele>
        <time>2021-05-20T05:14:39Z</time>
      </trkpt>
      <trkpt lat="45.90976" lon="6.50726">
        <ele>2421</ele>
        <time>2021-05-20T05:14:40Z</time>
      </trkpt>
      <trkpt lat="45.90976" lon="6.50731">
        <ele>2421</ele>
        <time>2021-05-20T05:14:41Z</time>
      </trkpt>
      <trkpt lat="45.90976" lon="6.50731">
        <ele>2421</ele>
        <time>2021-05-20T05:14:42Z</time>
      </trkpt>
      <trkpt lat="45.90976" lon="6.50731">
        <ele>2421</ele>
        <time>2021-05-20T05:14:43Z</time>
      </trkpt>
      <trkpt lat="45.90976" lon="6.50731">
        <ele>2422</ele>
        <time>2021-05-20T05:14:44Z</time>
      </trkpt>
      <trkpt lat="45.90976" lon="6.50731">
        <ele>2423</ele>
        <time>2021-05-20T05:14:45Z</time>
      </trkpt>
      <trkpt lat="45.90976" lon="6.50731">
        <ele>2423</ele>
        <time>2021-05-20T05:14:46Z</time>
      </trkpt>
      <trkpt lat="45.90977" lon="6.50736">
        <ele>2423</ele>
        <time>2021-05-20T05:14:47Z</time>
      </trkpt>
      <trkpt lat="45.90977" lon="6.50736">
        <ele>2423</ele>
        <time>2021-05-20T05:14:48Z</time>
      </trkpt>
      <trkpt lat="45.90977" lon="6.50736">
        <ele>2423</ele>
        <time>2021-05-20T05:14:49Z</time>
      </trkpt>
      <trkpt lat="45.90977" lon="6.50737">
        <ele>2424</ele>
        <time>2021-05-20T05:14:50Z</time>
      </trkpt>
      <trkpt lat="45.90978" lon="6.50738">
        <ele>2424</ele>
        <time>2021-05-20T05:14:51Z</time>
      </trkpt>
      <trkpt lat="45.90978" lon="6.50739">
        <ele>2424</ele>
        <time>2021-05-20T05:14:52Z</time>
      </trkpt>
      <trkpt lat="45.90978" lon="6.5074">
        <ele>2424</ele>
        <time>2021-05-20T05:14:53Z</time>
      </trkpt>
      <trkpt lat="45.90979" lon="6.50741">
        <ele>2424</ele>
        <time>2021-05-20T05:14:54Z</time>
      </trkpt>
      <trkpt lat="45.90979" lon="6.50741">
        <ele>2424</ele>
        <time>2021-05-20T05:14:55Z</time>
      </trkpt>
      <trkpt lat="45.90979" lon="6.50741">
        <ele>2424</ele>
        <time>2021-05-20T05:14:56Z</time>
      </trkpt>
      <trkpt lat="45.90979" lon="6.50741">
        <ele>2424</ele>
        <time>2021-05-20T05:14:57Z</time>
      </trkpt>
      <trkpt lat="45.90981" lon="6.50744">
        <ele>2424</ele>
        <time>2021-05-20T05:14:58Z</time>
      </trkpt>
      <trkpt lat="45.90981" lon="6.50744">
        <ele>2425</ele>
        <time>2021-05-20T05:14:59Z</time>
      </trkpt>
      <trkpt lat="45.90982" lon="6.50745">
        <ele>2425</ele>
        <time>2021-05-20T05:15:00Z</time>
      </trkpt>
      <trkpt lat="45.90982" lon="6.50745">
        <ele>2425</ele>
        <time>2021-05-20T05:15:01Z</time>
      </trkpt>
      <trkpt lat="45.90983" lon="6.50746">
        <ele>2426</ele>
        <time>2021-05-20T05:15:02Z</time>
      </trkpt>
      <trkpt lat="45.90984" lon="6.50747">
        <ele>2427</ele>
        <time>2021-05-20T05:15:03Z</time>
      </trkpt>
      <trkpt lat="45.90984" lon="6.50747">
        <ele>2427</ele>
        <time>2021-05-20T05:15:04Z</time>
      </trkpt>
      <trkpt lat="45.90984" lon="6.50747">
        <ele>2427</ele>
        <time>2021-05-20T05:15:05Z</time>
      </trkpt>
      <trkpt lat="45.90984" lon="6.50747">
        <ele>2427</ele>
        <time>2021-05-20T05:15:06Z</time>
      </trkpt>
      <trkpt lat="45.90984" lon="6.50747">
        <ele>2427</ele>
        <time>2021-05-20T05:15:07Z</time>
      </trkpt>
      <trkpt lat="45.90987" lon="6.5075">
        <ele>2427</ele>
        <time>2021-05-20T05:15:08Z</time>
      </trkpt>
      <trkpt lat="45.90987" lon="6.5075">
        <ele>2427</ele>
        <time>2021-05-20T05:15:09Z</time>
      </trkpt>
      <trkpt lat="45.90987" lon="6.5075">
        <ele>2428</ele>
        <time>2021-05-20T05:15:10Z</time>
      </trkpt>
      <trkpt lat="45.90987" lon="6.5075">
        <ele>2428</ele>
        <time>2021-05-20T05:15:11Z</time>
      </trkpt>
      <trkpt lat="45.90987" lon="6.5075">
        <ele>2429</ele>
        <time>2021-05-20T05:15:12Z</time>
      </trkpt>
      <trkpt lat="45.90989" lon="6.50753">
        <ele>2429</ele>
        <time>2021-05-20T05:15:13Z</time>
      </trkpt>
      <trkpt lat="45.90989" lon="6.50753">
        <ele>2429</ele>
        <time>2021-05-20T05:15:14Z</time>
      </trkpt>
      <trkpt lat="45.90989" lon="6.50753">
        <ele>2429</ele>
        <time>2021-05-20T05:15:15Z</time>
      </trkpt>
      <trkpt lat="45.90989" lon="6.50753">
        <ele>2429</ele>
        <time>2021-05-20T05:15:16Z</time>
      </trkpt>
      <trkpt lat="45.90989" lon="6.50753">
        <ele>2429</ele>
        <time>2021-05-20T05:15:17Z</time>
      </trkpt>
      <trkpt lat="45.90992" lon="6.50758">
        <ele>2429</ele>
        <time>2021-05-20T05:15:18Z</time>
      </trkpt>
      <trkpt lat="45.90992" lon="6.50758">
        <ele>2430</ele>
        <time>2021-05-20T05:15:19Z</time>
      </trkpt>
      <trkpt lat="45.90992" lon="6.50759">
        <ele>2430</ele>
        <time>2021-05-20T05:15:20Z</time>
      </trkpt>
      <trkpt lat="45.90992" lon="6.5076">
        <ele>2430</ele>
        <time>2021-05-20T05:15:21Z</time>
      </trkpt>
      <trkpt lat="45.90992" lon="6.5076">
        <ele>2430</ele>
        <time>2021-05-20T05:15:22Z</time>
      </trkpt>
      <trkpt lat="45.90992" lon="6.50761">
        <ele>2430</ele>
        <time>2021-05-20T05:15:23Z</time>
      </trkpt>
      <trkpt lat="45.90992" lon="6.50762">
        <ele>2430</ele>
        <time>2021-05-20T05:15:24Z</time>
      </trkpt>
      <trkpt lat="45.90992" lon="6.50763">
        <ele>2430</ele>
        <time>2021-05-20T05:15:25Z</time>
      </trkpt>
      <trkpt lat="45.90992" lon="6.50763">
        <ele>2430</ele>
        <time>2021-05-20T05:15:26Z</time>
      </trkpt>
      <trkpt lat="45.90992" lon="6.50763">
        <ele>2431</ele>
        <time>2021-05-20T05:15:27Z</time>
      </trkpt>
      <trkpt lat="45.90992" lon="6.50763">
        <ele>2431</ele>
        <time>2021-05-20T05:15:28Z</time>
      </trkpt>
      <trkpt lat="45.90992" lon="6.50768">
        <ele>2433</ele>
        <time>2021-05-20T05:15:29Z</time>
      </trkpt>
      <trkpt lat="45.90992" lon="6.50768">
        <ele>2433</ele>
        <time>2021-05-20T05:15:30Z</time>
      </trkpt>
      <trkpt lat="45.90992" lon="6.50768">
        <ele>2433</ele>
        <time>2021-05-20T05:15:31Z</time>
      </trkpt>
      <trkpt lat="45.90992" lon="6.50768">
        <ele>2434</ele>
        <time>2021-05-20T05:15:32Z</time>
      </trkpt>
      <trkpt lat="45.90992" lon="6.50768">
        <ele>2434</ele>
        <time>2021-05-20T05:15:33Z</time>
      </trkpt>
      <trkpt lat="45.90991" lon="6.50773">
        <ele>2434</ele>
        <time>2021-05-20T05:15:34Z</time>
      </trkpt>
      <trkpt lat="45.90991" lon="6.50773">
        <ele>2434</ele>
        <time>2021-05-20T05:15:35Z</time>
      </trkpt>
      <trkpt lat="45.9099" lon="6.50774">
        <ele>2434</ele>
        <time>2021-05-20T05:15:36Z</time>
      </trkpt>
      <trkpt lat="45.9099" lon="6.50775">
        <ele>2434</ele>
        <time>2021-05-20T05:15:37Z</time>
      </trkpt>
      <trkpt lat="45.9099" lon="6.50776">
        <ele>2434</ele>
        <time>2021-05-20T05:15:38Z</time>
      </trkpt>
      <trkpt lat="45.90989" lon="6.50776">
        <ele>2434</ele>
        <time>2021-05-20T05:15:39Z</time>
      </trkpt>
      <trkpt lat="45.90989" lon="6.50777">
        <ele>2435</ele>
        <time>2021-05-20T05:15:40Z</time>
      </trkpt>
      <trkpt lat="45.90988" lon="6.50778">
        <ele>2436</ele>
        <time>2021-05-20T05:15:41Z</time>
      </trkpt>
      <trkpt lat="45.90988" lon="6.50778">
        <ele>2436</ele>
        <time>2021-05-20T05:15:42Z</time>
      </trkpt>
      <trkpt lat="45.90988" lon="6.50778">
        <ele>2436</ele>
        <time>2021-05-20T05:15:43Z</time>
      </trkpt>
      <trkpt lat="45.90988" lon="6.50778">
        <ele>2436</ele>
        <time>2021-05-20T05:15:44Z</time>
      </trkpt>
      <trkpt lat="45.90988" lon="6.50778">
        <ele>2436</ele>
        <time>2021-05-20T05:15:45Z</time>
      </trkpt>
      <trkpt lat="45.90987" lon="6.50783">
        <ele>2436</ele>
        <time>2021-05-20T05:15:46Z</time>
      </trkpt>
      <trkpt lat="45.90987" lon="6.50783">
        <ele>2436</ele>
        <time>2021-05-20T05:15:47Z</time>
      </trkpt>
      <trkpt lat="45.90987" lon="6.50784">
        <ele>2436</ele>
        <time>2021-05-20T05:15:48Z</time>
      </trkpt>
      <trkpt lat="45.90987" lon="6.50785">
        <ele>2437</ele>
        <time>2021-05-20T05:15:49Z</time>
      </trkpt>
      <trkpt lat="45.90987" lon="6.50786">
        <ele>2437</ele>
        <time>2021-05-20T05:15:50Z</time>
      </trkpt>
      <trkpt lat="45.90987" lon="6.50786">
        <ele>2437</ele>
        <time>2021-05-20T05:15:51Z</time>
      </trkpt>
      <trkpt lat="45.90987" lon="6.50787">
        <ele>2438</ele>
        <time>2021-05-20T05:15:52Z</time>
      </trkpt>
      <trkpt lat="45.90987" lon="6.50788">
        <ele>2438</ele>
        <time>2021-05-20T05:15:53Z</time>
      </trkpt>
      <trkpt lat="45.90987" lon="6.50788">
        <ele>2438</ele>
        <time>2021-05-20T05:15:54Z</time>
      </trkpt>
      <trkpt lat="45.90987" lon="6.50788">
        <ele>2439</ele>
        <time>2021-05-20T05:15:55Z</time>
      </trkpt>
      <trkpt lat="45.90987" lon="6.50788">
        <ele>2439</ele>
        <time>2021-05-20T05:15:56Z</time>
      </trkpt>
      <trkpt lat="45.90987" lon="6.50788">
        <ele>2439</ele>
        <time>2021-05-20T05:15:57Z</time>
      </trkpt>
      <trkpt lat="45.90985" lon="6.50793">
        <ele>2439</ele>
        <time>2021-05-20T05:15:58Z</time>
      </trkpt>
      <trkpt lat="45.90985" lon="6.50793">
        <ele>2439</ele>
        <time>2021-05-20T05:15:59Z</time>
      </trkpt>
      <trkpt lat="45.90985" lon="6.50793">
        <ele>2439</ele>
        <time>2021-05-20T05:16:00Z</time>
      </trkpt>
      <trkpt lat="45.90985" lon="6.50793">
        <ele>2440</ele>
        <time>2021-05-20T05:16:01Z</time>
      </trkpt>
      <trkpt lat="45.90985" lon="6.50793">
        <ele>2440</ele>
        <time>2021-05-20T05:16:02Z</time>
      </trkpt>
      <trkpt lat="45.90985" lon="6.50793">
        <ele>2440</ele>
        <time>2021-05-20T05:16:03Z</time>
      </trkpt>
      <trkpt lat="45.90985" lon="6.50799">
        <ele>2440</ele>
        <time>2021-05-20T05:16:04Z</time>
      </trkpt>
      <trkpt lat="45.90985" lon="6.50799">
        <ele>2441</ele>
        <time>2021-05-20T05:16:05Z</time>
      </trkpt>
      <trkpt lat="45.90985" lon="6.50799">
        <ele>2441</ele>
        <time>2021-05-20T05:16:06Z</time>
      </trkpt>
      <trkpt lat="45.90985" lon="6.508">
        <ele>2441</ele>
        <time>2021-05-20T05:16:07Z</time>
      </trkpt>
      <trkpt lat="45.90984" lon="6.50801">
        <ele>2441</ele>
        <time>2021-05-20T05:16:08Z</time>
      </trkpt>
      <trkpt lat="45.90984" lon="6.50802">
        <ele>2441</ele>
        <time>2021-05-20T05:16:09Z</time>
      </trkpt>
      <trkpt lat="45.90984" lon="6.50803">
        <ele>2441</ele>
        <time>2021-05-20T05:16:10Z</time>
      </trkpt>
      <trkpt lat="45.90984" lon="6.50804">
        <ele>2442</ele>
        <time>2021-05-20T05:16:11Z</time>
      </trkpt>
      <trkpt lat="45.90984" lon="6.50804">
        <ele>2442</ele>
        <time>2021-05-20T05:16:12Z</time>
      </trkpt>
      <trkpt lat="45.90984" lon="6.50804">
        <ele>2442</ele>
        <time>2021-05-20T05:16:13Z</time>
      </trkpt>
      <trkpt lat="45.90984" lon="6.50804">
        <ele>2442</ele>
        <time>2021-05-20T05:16:14Z</time>
      </trkpt>
      <trkpt lat="45.90985" lon="6.5081">
        <ele>2442</ele>
        <time>2021-05-20T05:16:15Z</time>
      </trkpt>
      <trkpt lat="45.90985" lon="6.5081">
        <ele>2443</ele>
        <time>2021-05-20T05:16:16Z</time>
      </trkpt>
      <trkpt lat="45.90985" lon="6.5081">
        <ele>2443</ele>
        <time>2021-05-20T05:16:17Z</time>
      </trkpt>
      <trkpt lat="45.90985" lon="6.5081">
        <ele>2443</ele>
        <time>2021-05-20T05:16:18Z</time>
      </trkpt>
      <trkpt lat="45.90985" lon="6.5081">
        <ele>2443</ele>
        <time>2021-05-20T05:16:19Z</time>
      </trkpt>
      <trkpt lat="45.90985" lon="6.5081">
        <ele>2443</ele>
        <time>2021-05-20T05:16:20Z</time>
      </trkpt>
      <trkpt lat="45.90985" lon="6.5081">
        <ele>2443</ele>
        <time>2021-05-20T05:16:21Z</time>
      </trkpt>
      <trkpt lat="45.90985" lon="6.5081">
        <ele>2444</ele>
        <time>2021-05-20T05:16:22Z</time>
      </trkpt>
      <trkpt lat="45.90985" lon="6.5081">
        <ele>2444</ele>
        <time>2021-05-20T05:16:23Z</time>
      </trkpt>
      <trkpt lat="45.90983" lon="6.50812">
        <ele>2445</ele>
        <time>2021-05-20T05:16:24Z</time>
      </trkpt>
      <trkpt lat="45.90983" lon="6.50812">
        <ele>2445</ele>
        <time>2021-05-20T05:16:25Z</time>
      </trkpt>
      <trkpt lat="45.90983" lon="6.50812">
        <ele>2445</ele>
        <time>2021-05-20T05:16:26Z</time>
      </trkpt>
      <trkpt lat="45.90982" lon="6.50812">
        <ele>2445</ele>
        <time>2021-05-20T05:16:27Z</time>
      </trkpt>
      <trkpt lat="45.90981" lon="6.50812">
        <ele>2445</ele>
        <time>2021-05-20T05:16:28Z</time>
      </trkpt>
      <trkpt lat="45.90981" lon="6.50811">
        <ele>2446</ele>
        <time>2021-05-20T05:16:29Z</time>
      </trkpt>
      <trkpt lat="45.9098" lon="6.50811">
        <ele>2446</ele>
        <time>2021-05-20T05:16:30Z</time>
      </trkpt>
      <trkpt lat="45.9098" lon="6.50811">
        <ele>2446</ele>
        <time>2021-05-20T05:16:31Z</time>
      </trkpt>
      <trkpt lat="45.90979" lon="6.50811">
        <ele>2447</ele>
        <time>2021-05-20T05:16:32Z</time>
      </trkpt>
      <trkpt lat="45.90979" lon="6.50811">
        <ele>2447</ele>
        <time>2021-05-20T05:16:33Z</time>
      </trkpt>
      <trkpt lat="45.90979" lon="6.50811">
        <ele>2447</ele>
        <time>2021-05-20T05:16:34Z</time>
      </trkpt>
      <trkpt lat="45.90979" lon="6.50811">
        <ele>2447</ele>
        <time>2021-05-20T05:16:35Z</time>
      </trkpt>
      <trkpt lat="45.90976" lon="6.50809">
        <ele>2448</ele>
        <time>2021-05-20T05:16:36Z</time>
      </trkpt>
      <trkpt lat="45.90976" lon="6.50809">
        <ele>2448</ele>
        <time>2021-05-20T05:16:37Z</time>
      </trkpt>
      <trkpt lat="45.90976" lon="6.50808">
        <ele>2448</ele>
        <time>2021-05-20T05:16:38Z</time>
      </trkpt>
      <trkpt lat="45.90975" lon="6.50808">
        <ele>2448</ele>
        <time>2021-05-20T05:16:39Z</time>
      </trkpt>
      <trkpt lat="45.90975" lon="6.50808">
        <ele>2448</ele>
        <time>2021-05-20T05:16:40Z</time>
      </trkpt>
      <trkpt lat="45.90974" lon="6.50807">
        <ele>2449</ele>
        <time>2021-05-20T05:16:41Z</time>
      </trkpt>
      <trkpt lat="45.90973" lon="6.50807">
        <ele>2449</ele>
        <time>2021-05-20T05:16:42Z</time>
      </trkpt>
      <trkpt lat="45.90973" lon="6.50807">
        <ele>2449</ele>
        <time>2021-05-20T05:16:43Z</time>
      </trkpt>
      <trkpt lat="45.90973" lon="6.50807">
        <ele>2450</ele>
        <time>2021-05-20T05:16:44Z</time>
      </trkpt>
      <trkpt lat="45.90973" lon="6.50807">
        <ele>2450</ele>
        <time>2021-05-20T05:16:45Z</time>
      </trkpt>
      <trkpt lat="45.90973" lon="6.50807">
        <ele>2450</ele>
        <time>2021-05-20T05:16:46Z</time>
      </trkpt>
      <trkpt lat="45.90973" lon="6.50807">
        <ele>2450</ele>
        <time>2021-05-20T05:16:47Z</time>
      </trkpt>
      <trkpt lat="45.90973" lon="6.50807">
        <ele>2450</ele>
        <time>2021-05-20T05:16:48Z</time>
      </trkpt>
      <trkpt lat="45.90973" lon="6.50807">
        <ele>2450</ele>
        <time>2021-05-20T05:16:49Z</time>
      </trkpt>
      <trkpt lat="45.90973" lon="6.50807">
        <ele>2450</ele>
        <time>2021-05-20T05:16:50Z</time>
      </trkpt>
      <trkpt lat="45.90973" lon="6.50807">
        <ele>2450</ele>
        <time>2021-05-20T05:16:51Z</time>
      </trkpt>
      <trkpt lat="45.90973" lon="6.50807">
        <ele>2450</ele>
        <time>2021-05-20T05:16:52Z</time>
      </trkpt>
      <trkpt lat="45.90973" lon="6.50807">
        <ele>2451</ele>
        <time>2021-05-20T05:16:53Z</time>
      </trkpt>
      <trkpt lat="45.90973" lon="6.50807">
        <ele>2451</ele>
        <time>2021-05-20T05:16:54Z</time>
      </trkpt>
      <trkpt lat="45.90972" lon="6.50812">
        <ele>2451</ele>
        <time>2021-05-20T05:16:55Z</time>
      </trkpt>
      <trkpt lat="45.90972" lon="6.50812">
        <ele>2451</ele>
        <time>2021-05-20T05:16:56Z</time>
      </trkpt>
      <trkpt lat="45.90972" lon="6.50813">
        <ele>2451</ele>
        <time>2021-05-20T05:16:57Z</time>
      </trkpt>
      <trkpt lat="45.90972" lon="6.50814">
        <ele>2451</ele>
        <time>2021-05-20T05:16:58Z</time>
      </trkpt>
      <trkpt lat="45.90972" lon="6.50816">
        <ele>2451</ele>
        <time>2021-05-20T05:16:59Z</time>
      </trkpt>
      <trkpt lat="45.90972" lon="6.50817">
        <ele>2452</ele>
        <time>2021-05-20T05:17:00Z</time>
      </trkpt>
      <trkpt lat="45.90972" lon="6.50818">
        <ele>2452</ele>
        <time>2021-05-20T05:17:01Z</time>
      </trkpt>
      <trkpt lat="45.90972" lon="6.50819">
        <ele>2452</ele>
        <time>2021-05-20T05:17:02Z</time>
      </trkpt>
      <trkpt lat="45.90972" lon="6.50819">
        <ele>2452</ele>
        <time>2021-05-20T05:17:03Z</time>
      </trkpt>
      <trkpt lat="45.90972" lon="6.50819">
        <ele>2452</ele>
        <time>2021-05-20T05:17:04Z</time>
      </trkpt>
      <trkpt lat="45.90972" lon="6.50819">
        <ele>2453</ele>
        <time>2021-05-20T05:17:05Z</time>
      </trkpt>
      <trkpt lat="45.90972" lon="6.50819">
        <ele>2453</ele>
        <time>2021-05-20T05:17:06Z</time>
      </trkpt>
      <trkpt lat="45.90972" lon="6.50824">
        <ele>2453</ele>
        <time>2021-05-20T05:17:07Z</time>
      </trkpt>
      <trkpt lat="45.90972" lon="6.50824">
        <ele>2453</ele>
        <time>2021-05-20T05:17:08Z</time>
      </trkpt>
      <trkpt lat="45.90972" lon="6.50824">
        <ele>2453</ele>
        <time>2021-05-20T05:17:09Z</time>
      </trkpt>
      <trkpt lat="45.90972" lon="6.50824">
        <ele>2453</ele>
        <time>2021-05-20T05:17:10Z</time>
      </trkpt>
      <trkpt lat="45.90972" lon="6.50824">
        <ele>2453</ele>
        <time>2021-05-20T05:17:11Z</time>
      </trkpt>
      <trkpt lat="45.90972" lon="6.50824">
        <ele>2454</ele>
        <time>2021-05-20T05:17:12Z</time>
      </trkpt>
      <trkpt lat="45.90972" lon="6.50824">
        <ele>2454</ele>
        <time>2021-05-20T05:17:13Z</time>
      </trkpt>
      <trkpt lat="45.90972" lon="6.50824">
        <ele>2454</ele>
        <time>2021-05-20T05:17:14Z</time>
      </trkpt>
      <trkpt lat="45.90972" lon="6.50824">
        <ele>2455</ele>
        <time>2021-05-20T05:17:15Z</time>
      </trkpt>
      <trkpt lat="45.90972" lon="6.50824">
        <ele>2455</ele>
        <time>2021-05-20T05:17:16Z</time>
      </trkpt>
      <trkpt lat="45.90969" lon="6.50826">
        <ele>2456</ele>
        <time>2021-05-20T05:17:17Z</time>
      </trkpt>
      <trkpt lat="45.90969" lon="6.50826">
        <ele>2456</ele>
        <time>2021-05-20T05:17:18Z</time>
      </trkpt>
      <trkpt lat="45.90968" lon="6.50825">
        <ele>2456</ele>
        <time>2021-05-20T05:17:19Z</time>
      </trkpt>
      <trkpt lat="45.90968" lon="6.50824">
        <ele>2456</ele>
        <time>2021-05-20T05:17:20Z</time>
      </trkpt>
      <trkpt lat="45.90967" lon="6.50824">
        <ele>2456</ele>
        <time>2021-05-20T05:17:21Z</time>
      </trkpt>
      <trkpt lat="45.90966" lon="6.50823">
        <ele>2456</ele>
        <time>2021-05-20T05:17:22Z</time>
      </trkpt>
      <trkpt lat="45.90966" lon="6.50823">
        <ele>2456</ele>
        <time>2021-05-20T05:17:23Z</time>
      </trkpt>
      <trkpt lat="45.90966" lon="6.50823">
        <ele>2457</ele>
        <time>2021-05-20T05:17:24Z</time>
      </trkpt>
      <trkpt lat="45.90966" lon="6.50823">
        <ele>2457</ele>
        <time>2021-05-20T05:17:25Z</time>
      </trkpt>
      <trkpt lat="45.90966" lon="6.50823">
        <ele>2457</ele>
        <time>2021-05-20T05:17:26Z</time>
      </trkpt>
      <trkpt lat="45.90966" lon="6.50823">
        <ele>2457</ele>
        <time>2021-05-20T05:17:27Z</time>
      </trkpt>
      <trkpt lat="45.90962" lon="6.50821">
        <ele>2457</ele>
        <time>2021-05-20T05:17:28Z</time>
      </trkpt>
      <trkpt lat="45.90962" lon="6.50821">
        <ele>2459</ele>
        <time>2021-05-20T05:17:29Z</time>
      </trkpt>
      <trkpt lat="45.90961" lon="6.5082">
        <ele>2459</ele>
        <time>2021-05-20T05:17:30Z</time>
      </trkpt>
      <trkpt lat="45.90961" lon="6.5082">
        <ele>2459</ele>
        <time>2021-05-20T05:17:31Z</time>
      </trkpt>
      <trkpt lat="45.9096" lon="6.50819">
        <ele>2459</ele>
        <time>2021-05-20T05:17:32Z</time>
      </trkpt>
      <trkpt lat="45.90959" lon="6.50818">
        <ele>2459</ele>
        <time>2021-05-20T05:17:33Z</time>
      </trkpt>
      <trkpt lat="45.90959" lon="6.50818">
        <ele>2460</ele>
        <time>2021-05-20T05:17:34Z</time>
      </trkpt>
      <trkpt lat="45.90958" lon="6.50817">
        <ele>2460</ele>
        <time>2021-05-20T05:17:35Z</time>
      </trkpt>
      <trkpt lat="45.90958" lon="6.50817">
        <ele>2461</ele>
        <time>2021-05-20T05:17:36Z</time>
      </trkpt>
      <trkpt lat="45.90957" lon="6.50817">
        <ele>2461</ele>
        <time>2021-05-20T05:17:37Z</time>
      </trkpt>
      <trkpt lat="45.90956" lon="6.50817">
        <ele>2461</ele>
        <time>2021-05-20T05:17:38Z</time>
      </trkpt>
      <trkpt lat="45.90956" lon="6.50817">
        <ele>2461</ele>
        <time>2021-05-20T05:17:39Z</time>
      </trkpt>
      <trkpt lat="45.90955" lon="6.50816">
        <ele>2461</ele>
        <time>2021-05-20T05:17:40Z</time>
      </trkpt>
      <trkpt lat="45.90955" lon="6.50816">
        <ele>2461</ele>
        <time>2021-05-20T05:17:41Z</time>
      </trkpt>
      <trkpt lat="45.90955" lon="6.50816">
        <ele>2462</ele>
        <time>2021-05-20T05:17:42Z</time>
      </trkpt>
      <trkpt lat="45.90955" lon="6.50816">
        <ele>2462</ele>
        <time>2021-05-20T05:17:43Z</time>
      </trkpt>
      <trkpt lat="45.90955" lon="6.50816">
        <ele>2462</ele>
        <time>2021-05-20T05:17:44Z</time>
      </trkpt>
      <trkpt lat="45.90955" lon="6.50816">
        <ele>2462</ele>
        <time>2021-05-20T05:17:45Z</time>
      </trkpt>
      <trkpt lat="45.90955" lon="6.50816">
        <ele>2462</ele>
        <time>2021-05-20T05:17:46Z</time>
      </trkpt>
      <trkpt lat="45.90951" lon="6.50815">
        <ele>2462</ele>
        <time>2021-05-20T05:17:47Z</time>
      </trkpt>
      <trkpt lat="45.90951" lon="6.50815">
        <ele>2462</ele>
        <time>2021-05-20T05:17:48Z</time>
      </trkpt>
      <trkpt lat="45.9095" lon="6.50814">
        <ele>2463</ele>
        <time>2021-05-20T05:17:49Z</time>
      </trkpt>
      <trkpt lat="45.90949" lon="6.50814">
        <ele>2463</ele>
        <time>2021-05-20T05:17:50Z</time>
      </trkpt>
      <trkpt lat="45.90949" lon="6.50814">
        <ele>2464</ele>
        <time>2021-05-20T05:17:51Z</time>
      </trkpt>
      <trkpt lat="45.90948" lon="6.50813">
        <ele>2464</ele>
        <time>2021-05-20T05:17:52Z</time>
      </trkpt>
      <trkpt lat="45.90948" lon="6.50813">
        <ele>2464</ele>
        <time>2021-05-20T05:17:53Z</time>
      </trkpt>
      <trkpt lat="45.90948" lon="6.50813">
        <ele>2464</ele>
        <time>2021-05-20T05:17:54Z</time>
      </trkpt>
      <trkpt lat="45.90948" lon="6.50813">
        <ele>2464</ele>
        <time>2021-05-20T05:17:55Z</time>
      </trkpt>
      <trkpt lat="45.90948" lon="6.50813">
        <ele>2464</ele>
        <time>2021-05-20T05:17:56Z</time>
      </trkpt>
      <trkpt lat="45.90948" lon="6.50813">
        <ele>2464</ele>
        <time>2021-05-20T05:17:57Z</time>
      </trkpt>
      <trkpt lat="45.90948" lon="6.50813">
        <ele>2464</ele>
        <time>2021-05-20T05:17:58Z</time>
      </trkpt>
      <trkpt lat="45.90948" lon="6.50813">
        <ele>2465</ele>
        <time>2021-05-20T05:17:59Z</time>
      </trkpt>
      <trkpt lat="45.90948" lon="6.50813">
        <ele>2465</ele>
        <time>2021-05-20T05:18:00Z</time>
      </trkpt>
      <trkpt lat="45.90948" lon="6.50813">
        <ele>2465</ele>
        <time>2021-05-20T05:18:01Z</time>
      </trkpt>
      <trkpt lat="45.90948" lon="6.50813">
        <ele>2465</ele>
        <time>2021-05-20T05:18:02Z</time>
      </trkpt>
      <trkpt lat="45.90948" lon="6.50813">
        <ele>2465</ele>
        <time>2021-05-20T05:18:03Z</time>
      </trkpt>
      <trkpt lat="45.90948" lon="6.50813">
        <ele>2465</ele>
        <time>2021-05-20T05:18:04Z</time>
      </trkpt>
      <trkpt lat="45.90948" lon="6.50813">
        <ele>2465</ele>
        <time>2021-05-20T05:18:05Z</time>
      </trkpt>
      <trkpt lat="45.90948" lon="6.50813">
        <ele>2465</ele>
        <time>2021-05-20T05:18:06Z</time>
      </trkpt>
      <trkpt lat="45.90947" lon="6.50818">
        <ele>2465</ele>
        <time>2021-05-20T05:18:07Z</time>
      </trkpt>
      <trkpt lat="45.90947" lon="6.50818">
        <ele>2465</ele>
        <time>2021-05-20T05:18:08Z</time>
      </trkpt>
      <trkpt lat="45.90947" lon="6.50818">
        <ele>2465</ele>
        <time>2021-05-20T05:18:09Z</time>
      </trkpt>
      <trkpt lat="45.90947" lon="6.50818">
        <ele>2465</ele>
        <time>2021-05-20T05:18:10Z</time>
      </trkpt>
      <trkpt lat="45.90947" lon="6.50818">
        <ele>2466</ele>
        <time>2021-05-20T05:18:11Z</time>
      </trkpt>
      <trkpt lat="45.90947" lon="6.50818">
        <ele>2466</ele>
        <time>2021-05-20T05:18:12Z</time>
      </trkpt>
      <trkpt lat="45.90947" lon="6.50824">
        <ele>2466</ele>
        <time>2021-05-20T05:18:13Z</time>
      </trkpt>
      <trkpt lat="45.90947" lon="6.50824">
        <ele>2466</ele>
        <time>2021-05-20T05:18:14Z</time>
      </trkpt>
      <trkpt lat="45.90947" lon="6.50824">
        <ele>2466</ele>
        <time>2021-05-20T05:18:15Z</time>
      </trkpt>
      <trkpt lat="45.90947" lon="6.50824">
        <ele>2467</ele>
        <time>2021-05-20T05:18:16Z</time>
      </trkpt>
      <trkpt lat="45.90947" lon="6.50824">
        <ele>2467</ele>
        <time>2021-05-20T05:18:17Z</time>
      </trkpt>
      <trkpt lat="45.90947" lon="6.50824">
        <ele>2467</ele>
        <time>2021-05-20T05:18:18Z</time>
      </trkpt>
      <trkpt lat="45.90947" lon="6.50824">
        <ele>2467</ele>
        <time>2021-05-20T05:18:19Z</time>
      </trkpt>
      <trkpt lat="45.90948" lon="6.50829">
        <ele>2467</ele>
        <time>2021-05-20T05:18:20Z</time>
      </trkpt>
      <trkpt lat="45.90948" lon="6.50829">
        <ele>2467</ele>
        <time>2021-05-20T05:18:21Z</time>
      </trkpt>
      <trkpt lat="45.90947" lon="6.50828">
        <ele>2468</ele>
        <time>2021-05-20T05:18:22Z</time>
      </trkpt>
      <trkpt lat="45.90947" lon="6.50828">
        <ele>2469</ele>
        <time>2021-05-20T05:18:23Z</time>
      </trkpt>
      <trkpt lat="45.90946" lon="6.50828">
        <ele>2469</ele>
        <time>2021-05-20T05:18:24Z</time>
      </trkpt>
      <trkpt lat="45.90946" lon="6.50828">
        <ele>2469</ele>
        <time>2021-05-20T05:18:25Z</time>
      </trkpt>
      <trkpt lat="45.90945" lon="6.50827">
        <ele>2469</ele>
        <time>2021-05-20T05:18:26Z</time>
      </trkpt>
      <trkpt lat="45.90945" lon="6.50827">
        <ele>2469</ele>
        <time>2021-05-20T05:18:27Z</time>
      </trkpt>
      <trkpt lat="45.90945" lon="6.50827">
        <ele>2469</ele>
        <time>2021-05-20T05:18:28Z</time>
      </trkpt>
      <trkpt lat="45.90944" lon="6.50826">
        <ele>2469</ele>
        <time>2021-05-20T05:18:29Z</time>
      </trkpt>
      <trkpt lat="45.90943" lon="6.50826">
        <ele>2469</ele>
        <time>2021-05-20T05:18:30Z</time>
      </trkpt>
      <trkpt lat="45.90943" lon="6.50825">
        <ele>2470</ele>
        <time>2021-05-20T05:18:31Z</time>
      </trkpt>
      <trkpt lat="45.90942" lon="6.50825">
        <ele>2471</ele>
        <time>2021-05-20T05:18:32Z</time>
      </trkpt>
      <trkpt lat="45.90941" lon="6.50825">
        <ele>2471</ele>
        <time>2021-05-20T05:18:33Z</time>
      </trkpt>
      <trkpt lat="45.90941" lon="6.50824">
        <ele>2471</ele>
        <time>2021-05-20T05:18:34Z</time>
      </trkpt>
      <trkpt lat="45.90941" lon="6.50824">
        <ele>2471</ele>
        <time>2021-05-20T05:18:35Z</time>
      </trkpt>
      <trkpt lat="45.90941" lon="6.50824">
        <ele>2471</ele>
        <time>2021-05-20T05:18:36Z</time>
      </trkpt>
      <trkpt lat="45.90941" lon="6.50824">
        <ele>2471</ele>
        <time>2021-05-20T05:18:37Z</time>
      </trkpt>
      <trkpt lat="45.90941" lon="6.50824">
        <ele>2472</ele>
        <time>2021-05-20T05:18:38Z</time>
      </trkpt>
      <trkpt lat="45.90937" lon="6.50821">
        <ele>2472</ele>
        <time>2021-05-20T05:18:39Z</time>
      </trkpt>
      <trkpt lat="45.90937" lon="6.50821">
        <ele>2472</ele>
        <time>2021-05-20T05:18:40Z</time>
      </trkpt>
      <trkpt lat="45.90937" lon="6.50822">
        <ele>2473</ele>
        <time>2021-05-20T05:18:41Z</time>
      </trkpt>
      <trkpt lat="45.90937" lon="6.50822">
        <ele>2473</ele>
        <time>2021-05-20T05:18:42Z</time>
      </trkpt>
      <trkpt lat="45.90937" lon="6.50823">
        <ele>2473</ele>
        <time>2021-05-20T05:18:43Z</time>
      </trkpt>
      <trkpt lat="45.90937" lon="6.50823">
        <ele>2473</ele>
        <time>2021-05-20T05:18:44Z</time>
      </trkpt>
      <trkpt lat="45.90937" lon="6.50823">
        <ele>2473</ele>
        <time>2021-05-20T05:18:45Z</time>
      </trkpt>
      <trkpt lat="45.90937" lon="6.50824">
        <ele>2473</ele>
        <time>2021-05-20T05:18:46Z</time>
      </trkpt>
      <trkpt lat="45.90937" lon="6.50824">
        <ele>2473</ele>
        <time>2021-05-20T05:18:47Z</time>
      </trkpt>
      <trkpt lat="45.90937" lon="6.50825">
        <ele>2473</ele>
        <time>2021-05-20T05:18:48Z</time>
      </trkpt>
      <trkpt lat="45.90937" lon="6.50825">
        <ele>2473</ele>
        <time>2021-05-20T05:18:49Z</time>
      </trkpt>
      <trkpt lat="45.90937" lon="6.50825">
        <ele>2473</ele>
        <time>2021-05-20T05:18:50Z</time>
      </trkpt>
      <trkpt lat="45.90938" lon="6.50826">
        <ele>2474</ele>
        <time>2021-05-20T05:18:51Z</time>
      </trkpt>
      <trkpt lat="45.90938" lon="6.50826">
        <ele>2474</ele>
        <time>2021-05-20T05:18:52Z</time>
      </trkpt>
      <trkpt lat="45.90938" lon="6.50826">
        <ele>2474</ele>
        <time>2021-05-20T05:18:53Z</time>
      </trkpt>
      <trkpt lat="45.90938" lon="6.50826">
        <ele>2474</ele>
        <time>2021-05-20T05:18:54Z</time>
      </trkpt>
      <trkpt lat="45.90938" lon="6.50826">
        <ele>2474</ele>
        <time>2021-05-20T05:18:55Z</time>
      </trkpt>
      <trkpt lat="45.90938" lon="6.50826">
        <ele>2474</ele>
        <time>2021-05-20T05:18:56Z</time>
      </trkpt>
      <trkpt lat="45.90938" lon="6.50826">
        <ele>2474</ele>
        <time>2021-05-20T05:18:57Z</time>
      </trkpt>
      <trkpt lat="45.90937" lon="6.50832">
        <ele>2475</ele>
        <time>2021-05-20T05:18:58Z</time>
      </trkpt>
      <trkpt lat="45.90937" lon="6.50832">
        <ele>2475</ele>
        <time>2021-05-20T05:18:59Z</time>
      </trkpt>
      <trkpt lat="45.90937" lon="6.50833">
        <ele>2475</ele>
        <time>2021-05-20T05:19:00Z</time>
      </trkpt>
      <trkpt lat="45.90938" lon="6.50834">
        <ele>2475</ele>
        <time>2021-05-20T05:19:01Z</time>
      </trkpt>
      <trkpt lat="45.90938" lon="6.50834">
        <ele>2476</ele>
        <time>2021-05-20T05:19:02Z</time>
      </trkpt>
      <trkpt lat="45.90938" lon="6.50835">
        <ele>2476</ele>
        <time>2021-05-20T05:19:03Z</time>
      </trkpt>
      <trkpt lat="45.90938" lon="6.50836">
        <ele>2476</ele>
        <time>2021-05-20T05:19:04Z</time>
      </trkpt>
      <trkpt lat="45.90938" lon="6.50837">
        <ele>2476</ele>
        <time>2021-05-20T05:19:05Z</time>
      </trkpt>
      <trkpt lat="45.90938" lon="6.50838">
        <ele>2476</ele>
        <time>2021-05-20T05:19:06Z</time>
      </trkpt>
      <trkpt lat="45.90938" lon="6.50838">
        <ele>2477</ele>
        <time>2021-05-20T05:19:07Z</time>
      </trkpt>
      <trkpt lat="45.90938" lon="6.50838">
        <ele>2477</ele>
        <time>2021-05-20T05:19:08Z</time>
      </trkpt>
      <trkpt lat="45.90938" lon="6.50838">
        <ele>2477</ele>
        <time>2021-05-20T05:19:09Z</time>
      </trkpt>
      <trkpt lat="45.90938" lon="6.50838">
        <ele>2477</ele>
        <time>2021-05-20T05:19:10Z</time>
      </trkpt>
      <trkpt lat="45.90938" lon="6.50838">
        <ele>2478</ele>
        <time>2021-05-20T05:19:11Z</time>
      </trkpt>
      <trkpt lat="45.90938" lon="6.50838">
        <ele>2478</ele>
        <time>2021-05-20T05:19:12Z</time>
      </trkpt>
      <trkpt lat="45.90938" lon="6.50838">
        <ele>2478</ele>
        <time>2021-05-20T05:19:13Z</time>
      </trkpt>
      <trkpt lat="45.90938" lon="6.50838">
        <ele>2478</ele>
        <time>2021-05-20T05:19:14Z</time>
      </trkpt>
      <trkpt lat="45.90938" lon="6.50838">
        <ele>2478</ele>
        <time>2021-05-20T05:19:15Z</time>
      </trkpt>
      <trkpt lat="45.90936" lon="6.50838">
        <ele>2479</ele>
        <time>2021-05-20T05:19:16Z</time>
      </trkpt>
      <trkpt lat="45.90936" lon="6.50838">
        <ele>2479</ele>
        <time>2021-05-20T05:19:17Z</time>
      </trkpt>
      <trkpt lat="45.90936" lon="6.50838">
        <ele>2479</ele>
        <time>2021-05-20T05:19:18Z</time>
      </trkpt>
      <trkpt lat="45.90936" lon="6.50838">
        <ele>2479</ele>
        <time>2021-05-20T05:19:19Z</time>
      </trkpt>
      <trkpt lat="45.90936" lon="6.50838">
        <ele>2479</ele>
        <time>2021-05-20T05:19:20Z</time>
      </trkpt>
      <trkpt lat="45.90933" lon="6.50835">
        <ele>2479</ele>
        <time>2021-05-20T05:19:21Z</time>
      </trkpt>
      <trkpt lat="45.90933" lon="6.50835">
        <ele>2480</ele>
        <time>2021-05-20T05:19:22Z</time>
      </trkpt>
      <trkpt lat="45.90932" lon="6.50835">
        <ele>2480</ele>
        <time>2021-05-20T05:19:23Z</time>
      </trkpt>
      <trkpt lat="45.90931" lon="6.50834">
        <ele>2480</ele>
        <time>2021-05-20T05:19:24Z</time>
      </trkpt>
      <trkpt lat="45.90931" lon="6.50834">
        <ele>2480</ele>
        <time>2021-05-20T05:19:25Z</time>
      </trkpt>
      <trkpt lat="45.9093" lon="6.50833">
        <ele>2480</ele>
        <time>2021-05-20T05:19:26Z</time>
      </trkpt>
      <trkpt lat="45.9093" lon="6.50833">
        <ele>2481</ele>
        <time>2021-05-20T05:19:27Z</time>
      </trkpt>
      <trkpt lat="45.90929" lon="6.50832">
        <ele>2481</ele>
        <time>2021-05-20T05:19:28Z</time>
      </trkpt>
      <trkpt lat="45.90929" lon="6.50832">
        <ele>2481</ele>
        <time>2021-05-20T05:19:29Z</time>
      </trkpt>
      <trkpt lat="45.90929" lon="6.50832">
        <ele>2481</ele>
        <time>2021-05-20T05:19:30Z</time>
      </trkpt>
      <trkpt lat="45.90929" lon="6.50832">
        <ele>2481</ele>
        <time>2021-05-20T05:19:31Z</time>
      </trkpt>
      <trkpt lat="45.90929" lon="6.50832">
        <ele>2481</ele>
        <time>2021-05-20T05:19:32Z</time>
      </trkpt>
      <trkpt lat="45.90929" lon="6.50832">
        <ele>2481</ele>
        <time>2021-05-20T05:19:33Z</time>
      </trkpt>
      <trkpt lat="45.90929" lon="6.50832">
        <ele>2482</ele>
        <time>2021-05-20T05:19:34Z</time>
      </trkpt>
      <trkpt lat="45.90929" lon="6.50832">
        <ele>2482</ele>
        <time>2021-05-20T05:19:35Z</time>
      </trkpt>
      <trkpt lat="45.90929" lon="6.50832">
        <ele>2481</ele>
        <time>2021-05-20T05:19:36Z</time>
      </trkpt>
      <trkpt lat="45.90929" lon="6.50832">
        <ele>2481</ele>
        <time>2021-05-20T05:19:37Z</time>
      </trkpt>
      <trkpt lat="45.90929" lon="6.50832">
        <ele>2481</ele>
        <time>2021-05-20T05:19:38Z</time>
      </trkpt>
      <trkpt lat="45.90929" lon="6.50832">
        <ele>2481</ele>
        <time>2021-05-20T05:19:39Z</time>
      </trkpt>
      <trkpt lat="45.90929" lon="6.50832">
        <ele>2481</ele>
        <time>2021-05-20T05:19:40Z</time>
      </trkpt>
      <trkpt lat="45.90929" lon="6.50832">
        <ele>2481</ele>
        <time>2021-05-20T05:19:41Z</time>
      </trkpt>
      <trkpt lat="45.90929" lon="6.50832">
        <ele>2482</ele>
        <time>2021-05-20T05:19:42Z</time>
      </trkpt>
      <trkpt lat="45.90929" lon="6.50832">
        <ele>2482</ele>
        <time>2021-05-20T05:19:43Z</time>
      </trkpt>
      <trkpt lat="45.90929" lon="6.50832">
        <ele>2482</ele>
        <time>2021-05-20T05:19:44Z</time>
      </trkpt>
      <trkpt lat="45.90929" lon="6.50832">
        <ele>2482</ele>
        <time>2021-05-20T05:19:45Z</time>
      </trkpt>
      <trkpt lat="45.90929" lon="6.50832">
        <ele>2482</ele>
        <time>2021-05-20T05:19:46Z</time>
      </trkpt>
      <trkpt lat="45.90929" lon="6.50832">
        <ele>2482</ele>
        <time>2021-05-20T05:19:47Z</time>
      </trkpt>
      <trkpt lat="45.90929" lon="6.50832">
        <ele>2482</ele>
        <time>2021-05-20T05:19:48Z</time>
      </trkpt>
      <trkpt lat="45.90929" lon="6.50832">
        <ele>2482</ele>
        <time>2021-05-20T05:19:49Z</time>
      </trkpt>
      <trkpt lat="45.90929" lon="6.50832">
        <ele>2482</ele>
        <time>2021-05-20T05:19:50Z</time>
      </trkpt>
      <trkpt lat="45.90929" lon="6.50832">
        <ele>2482</ele>
        <time>2021-05-20T05:19:51Z</time>
      </trkpt>
      <trkpt lat="45.90929" lon="6.50832">
        <ele>2482</ele>
        <time>2021-05-20T05:19:52Z</time>
      </trkpt>
      <trkpt lat="45.90929" lon="6.50832">
        <ele>2482</ele>
        <time>2021-05-20T05:19:53Z</time>
      </trkpt>
      <trkpt lat="45.90929" lon="6.50832">
        <ele>2482</ele>
        <time>2021-05-20T05:19:54Z</time>
      </trkpt>
      <trkpt lat="45.90929" lon="6.50832">
        <ele>2482</ele>
        <time>2021-05-20T05:19:55Z</time>
      </trkpt>
      <trkpt lat="45.90926" lon="6.50831">
        <ele>2482</ele>
        <time>2021-05-20T05:19:56Z</time>
      </trkpt>
      <trkpt lat="45.90926" lon="6.50831">
        <ele>2482</ele>
        <time>2021-05-20T05:19:57Z</time>
      </trkpt>
      <trkpt lat="45.90926" lon="6.50831">
        <ele>2482</ele>
        <time>2021-05-20T05:19:58Z</time>
      </trkpt>
      <trkpt lat="45.90926" lon="6.50831">
        <ele>2482</ele>
        <time>2021-05-20T05:19:59Z</time>
      </trkpt>
      <trkpt lat="45.90926" lon="6.50831">
        <ele>2483</ele>
        <time>2021-05-20T05:20:00Z</time>
      </trkpt>
      <trkpt lat="45.90926" lon="6.50831">
        <ele>2483</ele>
        <time>2021-05-20T05:20:01Z</time>
      </trkpt>
      <trkpt lat="45.90926" lon="6.50831">
        <ele>2483</ele>
        <time>2021-05-20T05:20:02Z</time>
      </trkpt>
      <trkpt lat="45.90926" lon="6.50831">
        <ele>2483</ele>
        <time>2021-05-20T05:20:03Z</time>
      </trkpt>
      <trkpt lat="45.90926" lon="6.50831">
        <ele>2483</ele>
        <time>2021-05-20T05:20:04Z</time>
      </trkpt>
      <trkpt lat="45.90926" lon="6.50831">
        <ele>2483</ele>
        <time>2021-05-20T05:20:05Z</time>
      </trkpt>
      <trkpt lat="45.90926" lon="6.50831">
        <ele>2483</ele>
        <time>2021-05-20T05:20:06Z</time>
      </trkpt>
      <trkpt lat="45.90926" lon="6.50831">
        <ele>2483</ele>
        <time>2021-05-20T05:20:07Z</time>
      </trkpt>
      <trkpt lat="45.90925" lon="6.50836">
        <ele>2483</ele>
        <time>2021-05-20T05:20:08Z</time>
      </trkpt>
      <trkpt lat="45.90925" lon="6.50836">
        <ele>2483</ele>
        <time>2021-05-20T05:20:09Z</time>
      </trkpt>
      <trkpt lat="45.90925" lon="6.50837">
        <ele>2483</ele>
        <time>2021-05-20T05:20:10Z</time>
      </trkpt>
      <trkpt lat="45.90925" lon="6.50838">
        <ele>2483</ele>
        <time>2021-05-20T05:20:11Z</time>
      </trkpt>
      <trkpt lat="45.90925" lon="6.50839">
        <ele>2485</ele>
        <time>2021-05-20T05:20:12Z</time>
      </trkpt>
      <trkpt lat="45.90925" lon="6.5084">
        <ele>2486</ele>
        <time>2021-05-20T05:20:13Z</time>
      </trkpt>
      <trkpt lat="45.90925" lon="6.50842">
        <ele>2486</ele>
        <time>2021-05-20T05:20:14Z</time>
      </trkpt>
      <trkpt lat="45.90925" lon="6.50842">
        <ele>2486</ele>
        <time>2021-05-20T05:20:15Z</time>
      </trkpt>
      <trkpt lat="45.90925" lon="6.50842">
        <ele>2486</ele>
        <time>2021-05-20T05:20:16Z</time>
      </trkpt>
      <trkpt lat="45.90925" lon="6.50842">
        <ele>2487</ele>
        <time>2021-05-20T05:20:17Z</time>
      </trkpt>
      <trkpt lat="45.90925" lon="6.50842">
        <ele>2487</ele>
        <time>2021-05-20T05:20:18Z</time>
      </trkpt>
      <trkpt lat="45.90927" lon="6.50846">
        <ele>2487</ele>
        <time>2021-05-20T05:20:19Z</time>
      </trkpt>
      <trkpt lat="45.90927" lon="6.50846">
        <ele>2487</ele>
        <time>2021-05-20T05:20:20Z</time>
      </trkpt>
      <trkpt lat="45.90927" lon="6.50846">
        <ele>2487</ele>
        <time>2021-05-20T05:20:21Z</time>
      </trkpt>
      <trkpt lat="45.90927" lon="6.50846">
        <ele>2488</ele>
        <time>2021-05-20T05:20:22Z</time>
      </trkpt>
      <trkpt lat="45.90927" lon="6.50846">
        <ele>2488</ele>
        <time>2021-05-20T05:20:23Z</time>
      </trkpt>
      <trkpt lat="45.90927" lon="6.50846">
        <ele>2488</ele>
        <time>2021-05-20T05:20:24Z</time>
      </trkpt>
      <trkpt lat="45.90928" lon="6.50852">
        <ele>2488</ele>
        <time>2021-05-20T05:20:25Z</time>
      </trkpt>
      <trkpt lat="45.90928" lon="6.50852">
        <ele>2488</ele>
        <time>2021-05-20T05:20:26Z</time>
      </trkpt>
      <trkpt lat="45.90928" lon="6.50852">
        <ele>2489</ele>
        <time>2021-05-20T05:20:27Z</time>
      </trkpt>
      <trkpt lat="45.90928" lon="6.50852">
        <ele>2489</ele>
        <time>2021-05-20T05:20:28Z</time>
      </trkpt>
      <trkpt lat="45.90928" lon="6.50852">
        <ele>2490</ele>
        <time>2021-05-20T05:20:29Z</time>
      </trkpt>
      <trkpt lat="45.90928" lon="6.50852">
        <ele>2490</ele>
        <time>2021-05-20T05:20:30Z</time>
      </trkpt>
      <trkpt lat="45.90928" lon="6.50852">
        <ele>2491</ele>
        <time>2021-05-20T05:20:31Z</time>
      </trkpt>
      <trkpt lat="45.90928" lon="6.50852">
        <ele>2491</ele>
        <time>2021-05-20T05:20:32Z</time>
      </trkpt>
      <trkpt lat="45.90925" lon="6.50852">
        <ele>2491</ele>
        <time>2021-05-20T05:20:33Z</time>
      </trkpt>
      <trkpt lat="45.90925" lon="6.50852">
        <ele>2491</ele>
        <time>2021-05-20T05:20:34Z</time>
      </trkpt>
      <trkpt lat="45.90925" lon="6.50851">
        <ele>2491</ele>
        <time>2021-05-20T05:20:35Z</time>
      </trkpt>
      <trkpt lat="45.90924" lon="6.5085">
        <ele>2491</ele>
        <time>2021-05-20T05:20:36Z</time>
      </trkpt>
      <trkpt lat="45.90923" lon="6.5085">
        <ele>2491</ele>
        <time>2021-05-20T05:20:37Z</time>
      </trkpt>
      <trkpt lat="45.90922" lon="6.50849">
        <ele>2491</ele>
        <time>2021-05-20T05:20:38Z</time>
      </trkpt>
      <trkpt lat="45.90922" lon="6.50849">
        <ele>2491</ele>
        <time>2021-05-20T05:20:39Z</time>
      </trkpt>
      <trkpt lat="45.90921" lon="6.50848">
        <ele>2491</ele>
        <time>2021-05-20T05:20:40Z</time>
      </trkpt>
      <trkpt lat="45.90921" lon="6.50847">
        <ele>2491</ele>
        <time>2021-05-20T05:20:41Z</time>
      </trkpt>
      <trkpt lat="45.9092" lon="6.50847">
        <ele>2492</ele>
        <time>2021-05-20T05:20:42Z</time>
      </trkpt>
      <trkpt lat="45.90919" lon="6.50846">
        <ele>2493</ele>
        <time>2021-05-20T05:20:43Z</time>
      </trkpt>
      <trkpt lat="45.90919" lon="6.50846">
        <ele>2493</ele>
        <time>2021-05-20T05:20:44Z</time>
      </trkpt>
      <trkpt lat="45.90919" lon="6.50846">
        <ele>2493</ele>
        <time>2021-05-20T05:20:45Z</time>
      </trkpt>
      <trkpt lat="45.90919" lon="6.50846">
        <ele>2493</ele>
        <time>2021-05-20T05:20:46Z</time>
      </trkpt>
      <trkpt lat="45.90919" lon="6.50846">
        <ele>2494</ele>
        <time>2021-05-20T05:20:47Z</time>
      </trkpt>
      <trkpt lat="45.90919" lon="6.50846">
        <ele>2494</ele>
        <time>2021-05-20T05:20:48Z</time>
      </trkpt>
      <trkpt lat="45.90915" lon="6.50843">
        <ele>2494</ele>
        <time>2021-05-20T05:20:49Z</time>
      </trkpt>
      <trkpt lat="45.90915" lon="6.50843">
        <ele>2494</ele>
        <time>2021-05-20T05:20:50Z</time>
      </trkpt>
      <trkpt lat="45.90914" lon="6.50843">
        <ele>2494</ele>
        <time>2021-05-20T05:20:51Z</time>
      </trkpt>
      <trkpt lat="45.90914" lon="6.50842">
        <ele>2494</ele>
        <time>2021-05-20T05:20:52Z</time>
      </trkpt>
      <trkpt lat="45.90913" lon="6.50842">
        <ele>2495</ele>
        <time>2021-05-20T05:20:53Z</time>
      </trkpt>
      <trkpt lat="45.90913" lon="6.50841">
        <ele>2495</ele>
        <time>2021-05-20T05:20:54Z</time>
      </trkpt>
      <trkpt lat="45.90912" lon="6.50841">
        <ele>2495</ele>
        <time>2021-05-20T05:20:55Z</time>
      </trkpt>
      <trkpt lat="45.90911" lon="6.50841">
        <ele>2496</ele>
        <time>2021-05-20T05:20:56Z</time>
      </trkpt>
      <trkpt lat="45.90911" lon="6.5084">
        <ele>2496</ele>
        <time>2021-05-20T05:20:57Z</time>
      </trkpt>
      <trkpt lat="45.9091" lon="6.5084">
        <ele>2496</ele>
        <time>2021-05-20T05:20:58Z</time>
      </trkpt>
      <trkpt lat="45.9091" lon="6.5084">
        <ele>2496</ele>
        <time>2021-05-20T05:20:59Z</time>
      </trkpt>
      <trkpt lat="45.90909" lon="6.50839">
        <ele>2496</ele>
        <time>2021-05-20T05:21:00Z</time>
      </trkpt>
      <trkpt lat="45.90908" lon="6.50839">
        <ele>2497</ele>
        <time>2021-05-20T05:21:01Z</time>
      </trkpt>
      <trkpt lat="45.90908" lon="6.50839">
        <ele>2497</ele>
        <time>2021-05-20T05:21:02Z</time>
      </trkpt>
      <trkpt lat="45.90908" lon="6.50839">
        <ele>2497</ele>
        <time>2021-05-20T05:21:03Z</time>
      </trkpt>
      <trkpt lat="45.90908" lon="6.50839">
        <ele>2498</ele>
        <time>2021-05-20T05:21:04Z</time>
      </trkpt>
      <trkpt lat="45.90908" lon="6.50839">
        <ele>2498</ele>
        <time>2021-05-20T05:21:05Z</time>
      </trkpt>
      <trkpt lat="45.90908" lon="6.50839">
        <ele>2498</ele>
        <time>2021-05-20T05:21:06Z</time>
      </trkpt>
      <trkpt lat="45.90908" lon="6.50839">
        <ele>2498</ele>
        <time>2021-05-20T05:21:07Z</time>
      </trkpt>
      <trkpt lat="45.90904" lon="6.50836">
        <ele>2498</ele>
        <time>2021-05-20T05:21:08Z</time>
      </trkpt>
      <trkpt lat="45.90904" lon="6.50836">
        <ele>2498</ele>
        <time>2021-05-20T05:21:09Z</time>
      </trkpt>
      <trkpt lat="45.90904" lon="6.50836">
        <ele>2498</ele>
        <time>2021-05-20T05:21:10Z</time>
      </trkpt>
      <trkpt lat="45.90904" lon="6.50837">
        <ele>2498</ele>
        <time>2021-05-20T05:21:11Z</time>
      </trkpt>
      <trkpt lat="45.90904" lon="6.50837">
        <ele>2498</ele>
        <time>2021-05-20T05:21:12Z</time>
      </trkpt>
      <trkpt lat="45.90904" lon="6.50837">
        <ele>2499</ele>
        <time>2021-05-20T05:21:13Z</time>
      </trkpt>
      <trkpt lat="45.90904" lon="6.50838">
        <ele>2499</ele>
        <time>2021-05-20T05:21:14Z</time>
      </trkpt>
      <trkpt lat="45.90904" lon="6.50838">
        <ele>2499</ele>
        <time>2021-05-20T05:21:15Z</time>
      </trkpt>
      <trkpt lat="45.90904" lon="6.50838">
        <ele>2499</ele>
        <time>2021-05-20T05:21:16Z</time>
      </trkpt>
      <trkpt lat="45.90904" lon="6.50839">
        <ele>2499</ele>
        <time>2021-05-20T05:21:17Z</time>
      </trkpt>
      <trkpt lat="45.90904" lon="6.50839">
        <ele>2499</ele>
        <time>2021-05-20T05:21:18Z</time>
      </trkpt>
      <trkpt lat="45.90904" lon="6.50839">
        <ele>2499</ele>
        <time>2021-05-20T05:21:19Z</time>
      </trkpt>
      <trkpt lat="45.90904" lon="6.5084">
        <ele>2499</ele>
        <time>2021-05-20T05:21:20Z</time>
      </trkpt>
      <trkpt lat="45.90904" lon="6.5084">
        <ele>2499</ele>
        <time>2021-05-20T05:21:21Z</time>
      </trkpt>
      <trkpt lat="45.90904" lon="6.5084">
        <ele>2499</ele>
        <time>2021-05-20T05:21:22Z</time>
      </trkpt>
      <trkpt lat="45.90904" lon="6.5084">
        <ele>2499</ele>
        <time>2021-05-20T05:21:23Z</time>
      </trkpt>
      <trkpt lat="45.90904" lon="6.50841">
        <ele>2499</ele>
        <time>2021-05-20T05:21:24Z</time>
      </trkpt>
      <trkpt lat="45.90904" lon="6.50841">
        <ele>2498</ele>
        <time>2021-05-20T05:21:25Z</time>
      </trkpt>
      <trkpt lat="45.90904" lon="6.50841">
        <ele>2498</ele>
        <time>2021-05-20T05:21:26Z</time>
      </trkpt>
      <trkpt lat="45.90904" lon="6.50842">
        <ele>2498</ele>
        <time>2021-05-20T05:21:27Z</time>
      </trkpt>
      <trkpt lat="45.90904" lon="6.50842">
        <ele>2499</ele>
        <time>2021-05-20T05:21:28Z</time>
      </trkpt>
      <trkpt lat="45.90904" lon="6.50842">
        <ele>2499</ele>
        <time>2021-05-20T05:21:29Z</time>
      </trkpt>
      <trkpt lat="45.90904" lon="6.50842">
        <ele>2499</ele>
        <time>2021-05-20T05:21:30Z</time>
      </trkpt>
      <trkpt lat="45.90905" lon="6.50847">
        <ele>2499</ele>
        <time>2021-05-20T05:21:31Z</time>
      </trkpt>
      <trkpt lat="45.90905" lon="6.50847">
        <ele>2499</ele>
        <time>2021-05-20T05:21:32Z</time>
      </trkpt>
      <trkpt lat="45.90905" lon="6.50848">
        <ele>2499</ele>
        <time>2021-05-20T05:21:33Z</time>
      </trkpt>
      <trkpt lat="45.90905" lon="6.5085">
        <ele>2499</ele>
        <time>2021-05-20T05:21:34Z</time>
      </trkpt>
      <trkpt lat="45.90905" lon="6.50851">
        <ele>2499</ele>
        <time>2021-05-20T05:21:35Z</time>
      </trkpt>
      <trkpt lat="45.90905" lon="6.50852">
        <ele>2500</ele>
        <time>2021-05-20T05:21:36Z</time>
      </trkpt>
      <trkpt lat="45.90905" lon="6.50853">
        <ele>2500</ele>
        <time>2021-05-20T05:21:37Z</time>
      </trkpt>
      <trkpt lat="45.90905" lon="6.50853">
        <ele>2500</ele>
        <time>2021-05-20T05:21:38Z</time>
      </trkpt>
      <trkpt lat="45.90905" lon="6.50853">
        <ele>2500</ele>
        <time>2021-05-20T05:21:39Z</time>
      </trkpt>
      <trkpt lat="45.90905" lon="6.50853">
        <ele>2501</ele>
        <time>2021-05-20T05:21:40Z</time>
      </trkpt>
      <trkpt lat="45.90906" lon="6.50858">
        <ele>2501</ele>
        <time>2021-05-20T05:21:41Z</time>
      </trkpt>
      <trkpt lat="45.90906" lon="6.50858">
        <ele>2502</ele>
        <time>2021-05-20T05:21:42Z</time>
      </trkpt>
      <trkpt lat="45.90906" lon="6.50858">
        <ele>2503</ele>
        <time>2021-05-20T05:21:43Z</time>
      </trkpt>
      <trkpt lat="45.90906" lon="6.50858">
        <ele>2503</ele>
        <time>2021-05-20T05:21:44Z</time>
      </trkpt>
      <trkpt lat="45.90906" lon="6.50858">
        <ele>2503</ele>
        <time>2021-05-20T05:21:45Z</time>
      </trkpt>
      <trkpt lat="45.90907" lon="6.50863">
        <ele>2503</ele>
        <time>2021-05-20T05:21:46Z</time>
      </trkpt>
      <trkpt lat="45.90907" lon="6.50863">
        <ele>2503</ele>
        <time>2021-05-20T05:21:47Z</time>
      </trkpt>
      <trkpt lat="45.90907" lon="6.50863">
        <ele>2503</ele>
        <time>2021-05-20T05:21:48Z</time>
      </trkpt>
      <trkpt lat="45.90907" lon="6.50863">
        <ele>2504</ele>
        <time>2021-05-20T05:21:49Z</time>
      </trkpt>
      <trkpt lat="45.90907" lon="6.50863">
        <ele>2504</ele>
        <time>2021-05-20T05:21:50Z</time>
      </trkpt>
      <trkpt lat="45.90909" lon="6.50868">
        <ele>2504</ele>
        <time>2021-05-20T05:21:51Z</time>
      </trkpt>
      <trkpt lat="45.90909" lon="6.50868">
        <ele>2504</ele>
        <time>2021-05-20T05:21:52Z</time>
      </trkpt>
      <trkpt lat="45.90909" lon="6.50868">
        <ele>2504</ele>
        <time>2021-05-20T05:21:53Z</time>
      </trkpt>
      <trkpt lat="45.90909" lon="6.50868">
        <ele>2504</ele>
        <time>2021-05-20T05:21:54Z</time>
      </trkpt>
      <trkpt lat="45.90909" lon="6.50868">
        <ele>2505</ele>
        <time>2021-05-20T05:21:55Z</time>
      </trkpt>
      <trkpt lat="45.90909" lon="6.50868">
        <ele>2505</ele>
        <time>2021-05-20T05:21:56Z</time>
      </trkpt>
      <trkpt lat="45.90909" lon="6.50873">
        <ele>2505</ele>
        <time>2021-05-20T05:21:57Z</time>
      </trkpt>
      <trkpt lat="45.90909" lon="6.50873">
        <ele>2505</ele>
        <time>2021-05-20T05:21:58Z</time>
      </trkpt>
      <trkpt lat="45.90909" lon="6.50873">
        <ele>2506</ele>
        <time>2021-05-20T05:21:59Z</time>
      </trkpt>
      <trkpt lat="45.90909" lon="6.50873">
        <ele>2507</ele>
        <time>2021-05-20T05:22:00Z</time>
      </trkpt>
      <trkpt lat="45.9091" lon="6.50873">
        <ele>2507</ele>
        <time>2021-05-20T05:22:01Z</time>
      </trkpt>
      <trkpt lat="45.9091" lon="6.50873">
        <ele>2507</ele>
        <time>2021-05-20T05:22:02Z</time>
      </trkpt>
      <trkpt lat="45.9091" lon="6.50873">
        <ele>2507</ele>
        <time>2021-05-20T05:22:03Z</time>
      </trkpt>
      <trkpt lat="45.9091" lon="6.50874">
        <ele>2507</ele>
        <time>2021-05-20T05:22:04Z</time>
      </trkpt>
      <trkpt lat="45.9091" lon="6.50874">
        <ele>2507</ele>
        <time>2021-05-20T05:22:05Z</time>
      </trkpt>
      <trkpt lat="45.9091" lon="6.50874">
        <ele>2507</ele>
        <time>2021-05-20T05:22:06Z</time>
      </trkpt>
      <trkpt lat="45.9091" lon="6.50874">
        <ele>2507</ele>
        <time>2021-05-20T05:22:07Z</time>
      </trkpt>
      <trkpt lat="45.9091" lon="6.50874">
        <ele>2507</ele>
        <time>2021-05-20T05:22:08Z</time>
      </trkpt>
      <trkpt lat="45.9091" lon="6.50874">
        <ele>2507</ele>
        <time>2021-05-20T05:22:09Z</time>
      </trkpt>
      <trkpt lat="45.9091" lon="6.50874">
        <ele>2507</ele>
        <time>2021-05-20T05:22:10Z</time>
      </trkpt>
      <trkpt lat="45.9091" lon="6.50875">
        <ele>2507</ele>
        <time>2021-05-20T05:22:11Z</time>
      </trkpt>
      <trkpt lat="45.9091" lon="6.50875">
        <ele>2507</ele>
        <time>2021-05-20T05:22:12Z</time>
      </trkpt>
      <trkpt lat="45.9091" lon="6.50875">
        <ele>2507</ele>
        <time>2021-05-20T05:22:13Z</time>
      </trkpt>
      <trkpt lat="45.9091" lon="6.50875">
        <ele>2507</ele>
        <time>2021-05-20T05:22:14Z</time>
      </trkpt>
      <trkpt lat="45.9091" lon="6.50875">
        <ele>2507</ele>
        <time>2021-05-20T05:22:15Z</time>
      </trkpt>
      <trkpt lat="45.9091" lon="6.50875">
        <ele>2507</ele>
        <time>2021-05-20T05:22:16Z</time>
      </trkpt>
      <trkpt lat="45.90911" lon="6.50875">
        <ele>2507</ele>
        <time>2021-05-20T05:22:17Z</time>
      </trkpt>
      <trkpt lat="45.90911" lon="6.50876">
        <ele>2507</ele>
        <time>2021-05-20T05:22:18Z</time>
      </trkpt>
      <trkpt lat="45.90911" lon="6.50876">
        <ele>2507</ele>
        <time>2021-05-20T05:22:19Z</time>
      </trkpt>
      <trkpt lat="45.90911" lon="6.50876">
        <ele>2507</ele>
        <time>2021-05-20T05:22:20Z</time>
      </trkpt>
      <trkpt lat="45.90911" lon="6.50876">
        <ele>2507</ele>
        <time>2021-05-20T05:22:21Z</time>
      </trkpt>
      <trkpt lat="45.90911" lon="6.50876">
        <ele>2507</ele>
        <time>2021-05-20T05:22:22Z</time>
      </trkpt>
      <trkpt lat="45.90911" lon="6.50876">
        <ele>2507</ele>
        <time>2021-05-20T05:22:23Z</time>
      </trkpt>
      <trkpt lat="45.90911" lon="6.50876">
        <ele>2507</ele>
        <time>2021-05-20T05:22:24Z</time>
      </trkpt>
      <trkpt lat="45.90911" lon="6.50877">
        <ele>2507</ele>
        <time>2021-05-20T05:22:25Z</time>
      </trkpt>
      <trkpt lat="45.90911" lon="6.50877">
        <ele>2508</ele>
        <time>2021-05-20T05:22:26Z</time>
      </trkpt>
      <trkpt lat="45.90911" lon="6.50877">
        <ele>2508</ele>
        <time>2021-05-20T05:22:27Z</time>
      </trkpt>
      <trkpt lat="45.90911" lon="6.50877">
        <ele>2508</ele>
        <time>2021-05-20T05:22:28Z</time>
      </trkpt>
      <trkpt lat="45.90911" lon="6.50878">
        <ele>2508</ele>
        <time>2021-05-20T05:22:29Z</time>
      </trkpt>
      <trkpt lat="45.90911" lon="6.50879">
        <ele>2509</ele>
        <time>2021-05-20T05:22:30Z</time>
      </trkpt>
      <trkpt lat="45.90912" lon="6.50879">
        <ele>2509</ele>
        <time>2021-05-20T05:22:31Z</time>
      </trkpt>
      <trkpt lat="45.90912" lon="6.5088">
        <ele>2509</ele>
        <time>2021-05-20T05:22:32Z</time>
      </trkpt>
      <trkpt lat="45.90912" lon="6.5088">
        <ele>2509</ele>
        <time>2021-05-20T05:22:33Z</time>
      </trkpt>
      <trkpt lat="45.90912" lon="6.50881">
        <ele>2509</ele>
        <time>2021-05-20T05:22:34Z</time>
      </trkpt>
      <trkpt lat="45.90912" lon="6.50882">
        <ele>2510</ele>
        <time>2021-05-20T05:22:35Z</time>
      </trkpt>
      <trkpt lat="45.90912" lon="6.50882">
        <ele>2510</ele>
        <time>2021-05-20T05:22:36Z</time>
      </trkpt>
      <trkpt lat="45.90912" lon="6.50882">
        <ele>2511</ele>
        <time>2021-05-20T05:22:37Z</time>
      </trkpt>
      <trkpt lat="45.90912" lon="6.50882">
        <ele>2511</ele>
        <time>2021-05-20T05:22:38Z</time>
      </trkpt>
      <trkpt lat="45.90912" lon="6.50882">
        <ele>2511</ele>
        <time>2021-05-20T05:22:39Z</time>
      </trkpt>
      <trkpt lat="45.90912" lon="6.50882">
        <ele>2511</ele>
        <time>2021-05-20T05:22:40Z</time>
      </trkpt>
      <trkpt lat="45.90912" lon="6.50882">
        <ele>2511</ele>
        <time>2021-05-20T05:22:41Z</time>
      </trkpt>
      <trkpt lat="45.90912" lon="6.50882">
        <ele>2511</ele>
        <time>2021-05-20T05:22:42Z</time>
      </trkpt>
      <trkpt lat="45.90912" lon="6.50882">
        <ele>2511</ele>
        <time>2021-05-20T05:22:43Z</time>
      </trkpt>
      <trkpt lat="45.90914" lon="6.50887">
        <ele>2511</ele>
        <time>2021-05-20T05:22:44Z</time>
      </trkpt>
      <trkpt lat="45.90914" lon="6.50887">
        <ele>2513</ele>
        <time>2021-05-20T05:22:45Z</time>
      </trkpt>
      <trkpt lat="45.90914" lon="6.50887">
        <ele>2513</ele>
        <time>2021-05-20T05:22:46Z</time>
      </trkpt>
      <trkpt lat="45.90914" lon="6.50888">
        <ele>2513</ele>
        <time>2021-05-20T05:22:47Z</time>
      </trkpt>
      <trkpt lat="45.90914" lon="6.50888">
        <ele>2513</ele>
        <time>2021-05-20T05:22:48Z</time>
      </trkpt>
      <trkpt lat="45.90914" lon="6.50889">
        <ele>2514</ele>
        <time>2021-05-20T05:22:49Z</time>
      </trkpt>
      <trkpt lat="45.90915" lon="6.5089">
        <ele>2514</ele>
        <time>2021-05-20T05:22:50Z</time>
      </trkpt>
      <trkpt lat="45.90915" lon="6.5089">
        <ele>2514</ele>
        <time>2021-05-20T05:22:51Z</time>
      </trkpt>
      <trkpt lat="45.90915" lon="6.50891">
        <ele>2514</ele>
        <time>2021-05-20T05:22:52Z</time>
      </trkpt>
      <trkpt lat="45.90915" lon="6.50891">
        <ele>2514</ele>
        <time>2021-05-20T05:22:53Z</time>
      </trkpt>
      <trkpt lat="45.90915" lon="6.50891">
        <ele>2515</ele>
        <time>2021-05-20T05:22:54Z</time>
      </trkpt>
      <trkpt lat="45.90915" lon="6.50891">
        <ele>2515</ele>
        <time>2021-05-20T05:22:55Z</time>
      </trkpt>
      <trkpt lat="45.90915" lon="6.50891">
        <ele>2515</ele>
        <time>2021-05-20T05:22:56Z</time>
      </trkpt>
      <trkpt lat="45.90915" lon="6.50891">
        <ele>2515</ele>
        <time>2021-05-20T05:22:57Z</time>
      </trkpt>
      <trkpt lat="45.90915" lon="6.50891">
        <ele>2515</ele>
        <time>2021-05-20T05:22:58Z</time>
      </trkpt>
      <trkpt lat="45.90915" lon="6.50891">
        <ele>2516</ele>
        <time>2021-05-20T05:22:59Z</time>
      </trkpt>
      <trkpt lat="45.90916" lon="6.50895">
        <ele>2516</ele>
        <time>2021-05-20T05:23:00Z</time>
      </trkpt>
      <trkpt lat="45.90916" lon="6.50895">
        <ele>2517</ele>
        <time>2021-05-20T05:23:01Z</time>
      </trkpt>
      <trkpt lat="45.90916" lon="6.50895">
        <ele>2517</ele>
        <time>2021-05-20T05:23:02Z</time>
      </trkpt>
      <trkpt lat="45.90916" lon="6.50895">
        <ele>2517</ele>
        <time>2021-05-20T05:23:03Z</time>
      </trkpt>
      <trkpt lat="45.90916" lon="6.50895">
        <ele>2517</ele>
        <time>2021-05-20T05:23:04Z</time>
      </trkpt>
      <trkpt lat="45.90916" lon="6.50895">
        <ele>2517</ele>
        <time>2021-05-20T05:23:05Z</time>
      </trkpt>
      <trkpt lat="45.90916" lon="6.50895">
        <ele>2517</ele>
        <time>2021-05-20T05:23:06Z</time>
      </trkpt>
      <trkpt lat="45.90916" lon="6.50895">
        <ele>2518</ele>
        <time>2021-05-20T05:23:07Z</time>
      </trkpt>
      <trkpt lat="45.90916" lon="6.50895">
        <ele>2518</ele>
        <time>2021-05-20T05:23:08Z</time>
      </trkpt>
      <trkpt lat="45.90916" lon="6.50895">
        <ele>2518</ele>
        <time>2021-05-20T05:23:09Z</time>
      </trkpt>
      <trkpt lat="45.90917" lon="6.50899">
        <ele>2519</ele>
        <time>2021-05-20T05:23:10Z</time>
      </trkpt>
      <trkpt lat="45.90917" lon="6.50899">
        <ele>2519</ele>
        <time>2021-05-20T05:23:11Z</time>
      </trkpt>
      <trkpt lat="45.90917" lon="6.50899">
        <ele>2519</ele>
        <time>2021-05-20T05:23:12Z</time>
      </trkpt>
      <trkpt lat="45.90917" lon="6.50899">
        <ele>2519</ele>
        <time>2021-05-20T05:23:13Z</time>
      </trkpt>
      <trkpt lat="45.90917" lon="6.50899">
        <ele>2519</ele>
        <time>2021-05-20T05:23:14Z</time>
      </trkpt>
      <trkpt lat="45.90917" lon="6.50899">
        <ele>2519</ele>
        <time>2021-05-20T05:23:15Z</time>
      </trkpt>
      <trkpt lat="45.90917" lon="6.50899">
        <ele>2519</ele>
        <time>2021-05-20T05:23:16Z</time>
      </trkpt>
      <trkpt lat="45.90917" lon="6.50899">
        <ele>2519</ele>
        <time>2021-05-20T05:23:17Z</time>
      </trkpt>
      <trkpt lat="45.90917" lon="6.50899">
        <ele>2520</ele>
        <time>2021-05-20T05:23:18Z</time>
      </trkpt>
      <trkpt lat="45.90917" lon="6.50899">
        <ele>2520</ele>
        <time>2021-05-20T05:23:19Z</time>
      </trkpt>
      <trkpt lat="45.90917" lon="6.50899">
        <ele>2520</ele>
        <time>2021-05-20T05:23:20Z</time>
      </trkpt>
      <trkpt lat="45.90917" lon="6.50899">
        <ele>2520</ele>
        <time>2021-05-20T05:23:21Z</time>
      </trkpt>
      <trkpt lat="45.90917" lon="6.50899">
        <ele>2520</ele>
        <time>2021-05-20T05:23:22Z</time>
      </trkpt>
      <trkpt lat="45.90917" lon="6.50899">
        <ele>2520</ele>
        <time>2021-05-20T05:23:23Z</time>
      </trkpt>
      <trkpt lat="45.90917" lon="6.50899">
        <ele>2521</ele>
        <time>2021-05-20T05:23:24Z</time>
      </trkpt>
      <trkpt lat="45.90918" lon="6.50903">
        <ele>2521</ele>
        <time>2021-05-20T05:23:25Z</time>
      </trkpt>
      <trkpt lat="45.90918" lon="6.50903">
        <ele>2521</ele>
        <time>2021-05-20T05:23:26Z</time>
      </trkpt>
      <trkpt lat="45.90918" lon="6.50903">
        <ele>2521</ele>
        <time>2021-05-20T05:23:27Z</time>
      </trkpt>
      <trkpt lat="45.90918" lon="6.50903">
        <ele>2521</ele>
        <time>2021-05-20T05:23:28Z</time>
      </trkpt>
      <trkpt lat="45.90918" lon="6.50903">
        <ele>2521</ele>
        <time>2021-05-20T05:23:29Z</time>
      </trkpt>
      <trkpt lat="45.90918" lon="6.50903">
        <ele>2521</ele>
        <time>2021-05-20T05:23:30Z</time>
      </trkpt>
      <trkpt lat="45.90918" lon="6.50903">
        <ele>2521</ele>
        <time>2021-05-20T05:23:31Z</time>
      </trkpt>
      <trkpt lat="45.90918" lon="6.50903">
        <ele>2521</ele>
        <time>2021-05-20T05:23:32Z</time>
      </trkpt>
      <trkpt lat="45.90918" lon="6.50903">
        <ele>2521</ele>
        <time>2021-05-20T05:23:33Z</time>
      </trkpt>
      <trkpt lat="45.90918" lon="6.50903">
        <ele>2522</ele>
        <time>2021-05-20T05:23:34Z</time>
      </trkpt>
      <trkpt lat="45.90918" lon="6.50903">
        <ele>2522</ele>
        <time>2021-05-20T05:23:35Z</time>
      </trkpt>
      <trkpt lat="45.90918" lon="6.50903">
        <ele>2522</ele>
        <time>2021-05-20T05:23:36Z</time>
      </trkpt>
      <trkpt lat="45.90918" lon="6.50903">
        <ele>2522</ele>
        <time>2021-05-20T05:23:37Z</time>
      </trkpt>
      <trkpt lat="45.90917" lon="6.50908">
        <ele>2522</ele>
        <time>2021-05-20T05:23:38Z</time>
      </trkpt>
      <trkpt lat="45.90917" lon="6.50908">
        <ele>2522</ele>
        <time>2021-05-20T05:23:39Z</time>
      </trkpt>
      <trkpt lat="45.90917" lon="6.50908">
        <ele>2522</ele>
        <time>2021-05-20T05:23:40Z</time>
      </trkpt>
      <trkpt lat="45.90917" lon="6.50908">
        <ele>2522</ele>
        <time>2021-05-20T05:23:41Z</time>
      </trkpt>
      <trkpt lat="45.90917" lon="6.50908">
        <ele>2522</ele>
        <time>2021-05-20T05:23:42Z</time>
      </trkpt>
      <trkpt lat="45.90917" lon="6.50908">
        <ele>2522</ele>
        <time>2021-05-20T05:23:43Z</time>
      </trkpt>
      <trkpt lat="45.90917" lon="6.50908">
        <ele>2522</ele>
        <time>2021-05-20T05:23:44Z</time>
      </trkpt>
      <trkpt lat="45.90917" lon="6.50908">
        <ele>2522</ele>
        <time>2021-05-20T05:23:45Z</time>
      </trkpt>
      <trkpt lat="45.90917" lon="6.50908">
        <ele>2522</ele>
        <time>2021-05-20T05:23:46Z</time>
      </trkpt>
      <trkpt lat="45.90917" lon="6.50908">
        <ele>2522</ele>
        <time>2021-05-20T05:23:47Z</time>
      </trkpt>
      <trkpt lat="45.90917" lon="6.50908">
        <ele>2522</ele>
        <time>2021-05-20T05:23:48Z</time>
      </trkpt>
      <trkpt lat="45.90917" lon="6.50908">
        <ele>2522</ele>
        <time>2021-05-20T05:23:49Z</time>
      </trkpt>
      <trkpt lat="45.90918" lon="6.50914">
        <ele>2522</ele>
        <time>2021-05-20T05:23:50Z</time>
      </trkpt>
      <trkpt lat="45.90918" lon="6.50914">
        <ele>2522</ele>
        <time>2021-05-20T05:23:51Z</time>
      </trkpt>
      <trkpt lat="45.90918" lon="6.50915">
        <ele>2523</ele>
        <time>2021-05-20T05:23:52Z</time>
      </trkpt>
      <trkpt lat="45.90918" lon="6.50916">
        <ele>2523</ele>
        <time>2021-05-20T05:23:53Z</time>
      </trkpt>
      <trkpt lat="45.90918" lon="6.50917">
        <ele>2524</ele>
        <time>2021-05-20T05:23:54Z</time>
      </trkpt>
      <trkpt lat="45.90918" lon="6.50918">
        <ele>2524</ele>
        <time>2021-05-20T05:23:55Z</time>
      </trkpt>
      <trkpt lat="45.90918" lon="6.50918">
        <ele>2524</ele>
        <time>2021-05-20T05:23:56Z</time>
      </trkpt>
      <trkpt lat="45.90918" lon="6.50918">
        <ele>2524</ele>
        <time>2021-05-20T05:23:57Z</time>
      </trkpt>
      <trkpt lat="45.90918" lon="6.50918">
        <ele>2524</ele>
        <time>2021-05-20T05:23:58Z</time>
      </trkpt>
      <trkpt lat="45.90918" lon="6.50918">
        <ele>2524</ele>
        <time>2021-05-20T05:23:59Z</time>
      </trkpt>
      <trkpt lat="45.90918" lon="6.50918">
        <ele>2525</ele>
        <time>2021-05-20T05:24:00Z</time>
      </trkpt>
      <trkpt lat="45.90918" lon="6.50923">
        <ele>2525</ele>
        <time>2021-05-20T05:24:01Z</time>
      </trkpt>
      <trkpt lat="45.90918" lon="6.50923">
        <ele>2525</ele>
        <time>2021-05-20T05:24:02Z</time>
      </trkpt>
      <trkpt lat="45.90918" lon="6.50923">
        <ele>2525</ele>
        <time>2021-05-20T05:24:03Z</time>
      </trkpt>
      <trkpt lat="45.90918" lon="6.50923">
        <ele>2525</ele>
        <time>2021-05-20T05:24:04Z</time>
      </trkpt>
      <trkpt lat="45.90918" lon="6.50923">
        <ele>2525</ele>
        <time>2021-05-20T05:24:05Z</time>
      </trkpt>
      <trkpt lat="45.90918" lon="6.50923">
        <ele>2525</ele>
        <time>2021-05-20T05:24:06Z</time>
      </trkpt>
      <trkpt lat="45.90918" lon="6.50923">
        <ele>2525</ele>
        <time>2021-05-20T05:24:07Z</time>
      </trkpt>
      <trkpt lat="45.90918" lon="6.50929">
        <ele>2527</ele>
        <time>2021-05-20T05:24:08Z</time>
      </trkpt>
      <trkpt lat="45.90918" lon="6.50929">
        <ele>2528</ele>
        <time>2021-05-20T05:24:09Z</time>
      </trkpt>
      <trkpt lat="45.90918" lon="6.50929">
        <ele>2528</ele>
        <time>2021-05-20T05:24:10Z</time>
      </trkpt>
      <trkpt lat="45.90918" lon="6.50929">
        <ele>2528</ele>
        <time>2021-05-20T05:24:11Z</time>
      </trkpt>
      <trkpt lat="45.90918" lon="6.50929">
        <ele>2529</ele>
        <time>2021-05-20T05:24:12Z</time>
      </trkpt>
      <trkpt lat="45.90918" lon="6.50929">
        <ele>2529</ele>
        <time>2021-05-20T05:24:13Z</time>
      </trkpt>
      <trkpt lat="45.90918" lon="6.50929">
        <ele>2529</ele>
        <time>2021-05-20T05:24:14Z</time>
      </trkpt>
      <trkpt lat="45.90918" lon="6.50929">
        <ele>2529</ele>
        <time>2021-05-20T05:24:15Z</time>
      </trkpt>
      <trkpt lat="45.90918" lon="6.50932">
        <ele>2530</ele>
        <time>2021-05-20T05:24:16Z</time>
      </trkpt>
      <trkpt lat="45.90918" lon="6.50932">
        <ele>2530</ele>
        <time>2021-05-20T05:24:17Z</time>
      </trkpt>
      <trkpt lat="45.90918" lon="6.50932">
        <ele>2530</ele>
        <time>2021-05-20T05:24:18Z</time>
      </trkpt>
      <trkpt lat="45.90918" lon="6.50932">
        <ele>2530</ele>
        <time>2021-05-20T05:24:19Z</time>
      </trkpt>
      <trkpt lat="45.90918" lon="6.50932">
        <ele>2531</ele>
        <time>2021-05-20T05:24:20Z</time>
      </trkpt>
      <trkpt lat="45.90918" lon="6.50932">
        <ele>2531</ele>
        <time>2021-05-20T05:24:21Z</time>
      </trkpt>
      <trkpt lat="45.90918" lon="6.50932">
        <ele>2531</ele>
        <time>2021-05-20T05:24:22Z</time>
      </trkpt>
      <trkpt lat="45.90918" lon="6.50932">
        <ele>2532</ele>
        <time>2021-05-20T05:24:23Z</time>
      </trkpt>
      <trkpt lat="45.90919" lon="6.50936">
        <ele>2532</ele>
        <time>2021-05-20T05:24:24Z</time>
      </trkpt>
      <trkpt lat="45.90919" lon="6.50936">
        <ele>2532</ele>
        <time>2021-05-20T05:24:25Z</time>
      </trkpt>
      <trkpt lat="45.90919" lon="6.50936">
        <ele>2532</ele>
        <time>2021-05-20T05:24:26Z</time>
      </trkpt>
      <trkpt lat="45.90919" lon="6.50936">
        <ele>2532</ele>
        <time>2021-05-20T05:24:27Z</time>
      </trkpt>
      <trkpt lat="45.90919" lon="6.50936">
        <ele>2532</ele>
        <time>2021-05-20T05:24:28Z</time>
      </trkpt>
      <trkpt lat="45.90919" lon="6.50936">
        <ele>2533</ele>
        <time>2021-05-20T05:24:29Z</time>
      </trkpt>
      <trkpt lat="45.90919" lon="6.50936">
        <ele>2533</ele>
        <time>2021-05-20T05:24:30Z</time>
      </trkpt>
      <trkpt lat="45.90921" lon="6.50941">
        <ele>2533</ele>
        <time>2021-05-20T05:24:31Z</time>
      </trkpt>
      <trkpt lat="45.90921" lon="6.50941">
        <ele>2533</ele>
        <time>2021-05-20T05:24:32Z</time>
      </trkpt>
      <trkpt lat="45.90921" lon="6.50942">
        <ele>2533</ele>
        <time>2021-05-20T05:24:33Z</time>
      </trkpt>
      <trkpt lat="45.90921" lon="6.50943">
        <ele>2534</ele>
        <time>2021-05-20T05:24:34Z</time>
      </trkpt>
      <trkpt lat="45.90922" lon="6.50943">
        <ele>2534</ele>
        <time>2021-05-20T05:24:35Z</time>
      </trkpt>
      <trkpt lat="45.90922" lon="6.50944">
        <ele>2534</ele>
        <time>2021-05-20T05:24:36Z</time>
      </trkpt>
      <trkpt lat="45.90922" lon="6.50945">
        <ele>2534</ele>
        <time>2021-05-20T05:24:37Z</time>
      </trkpt>
      <trkpt lat="45.90923" lon="6.50946">
        <ele>2534</ele>
        <time>2021-05-20T05:24:38Z</time>
      </trkpt>
      <trkpt lat="45.90923" lon="6.50946">
        <ele>2534</ele>
        <time>2021-05-20T05:24:39Z</time>
      </trkpt>
      <trkpt lat="45.90923" lon="6.50946">
        <ele>2535</ele>
        <time>2021-05-20T05:24:40Z</time>
      </trkpt>
      <trkpt lat="45.90923" lon="6.50946">
        <ele>2536</ele>
        <time>2021-05-20T05:24:41Z</time>
      </trkpt>
      <trkpt lat="45.90925" lon="6.5095">
        <ele>2536</ele>
        <time>2021-05-20T05:24:42Z</time>
      </trkpt>
      <trkpt lat="45.90925" lon="6.5095">
        <ele>2536</ele>
        <time>2021-05-20T05:24:43Z</time>
      </trkpt>
      <trkpt lat="45.90925" lon="6.5095">
        <ele>2536</ele>
        <time>2021-05-20T05:24:44Z</time>
      </trkpt>
      <trkpt lat="45.90925" lon="6.5095">
        <ele>2537</ele>
        <time>2021-05-20T05:24:45Z</time>
      </trkpt>
      <trkpt lat="45.90925" lon="6.5095">
        <ele>2537</ele>
        <time>2021-05-20T05:24:46Z</time>
      </trkpt>
      <trkpt lat="45.90927" lon="6.50954">
        <ele>2537</ele>
        <time>2021-05-20T05:24:47Z</time>
      </trkpt>
      <trkpt lat="45.90927" lon="6.50954">
        <ele>2537</ele>
        <time>2021-05-20T05:24:48Z</time>
      </trkpt>
      <trkpt lat="45.90927" lon="6.50954">
        <ele>2537</ele>
        <time>2021-05-20T05:24:49Z</time>
      </trkpt>
      <trkpt lat="45.90927" lon="6.50954">
        <ele>2537</ele>
        <time>2021-05-20T05:24:50Z</time>
      </trkpt>
      <trkpt lat="45.90927" lon="6.50954">
        <ele>2537</ele>
        <time>2021-05-20T05:24:51Z</time>
      </trkpt>
      <trkpt lat="45.90927" lon="6.50954">
        <ele>2537</ele>
        <time>2021-05-20T05:24:52Z</time>
      </trkpt>
      <trkpt lat="45.90927" lon="6.50954">
        <ele>2537</ele>
        <time>2021-05-20T05:24:53Z</time>
      </trkpt>
      <trkpt lat="45.90927" lon="6.50954">
        <ele>2537</ele>
        <time>2021-05-20T05:24:54Z</time>
      </trkpt>
      <trkpt lat="45.90927" lon="6.50954">
        <ele>2537</ele>
        <time>2021-05-20T05:24:55Z</time>
      </trkpt>
      <trkpt lat="45.90927" lon="6.50954">
        <ele>2537</ele>
        <time>2021-05-20T05:24:56Z</time>
      </trkpt>
      <trkpt lat="45.90927" lon="6.50954">
        <ele>2537</ele>
        <time>2021-05-20T05:24:57Z</time>
      </trkpt>
      <trkpt lat="45.90927" lon="6.50954">
        <ele>2537</ele>
        <time>2021-05-20T05:24:58Z</time>
      </trkpt>
      <trkpt lat="45.90927" lon="6.50954">
        <ele>2537</ele>
        <time>2021-05-20T05:24:59Z</time>
      </trkpt>
      <trkpt lat="45.90927" lon="6.50954">
        <ele>2537</ele>
        <time>2021-05-20T05:25:00Z</time>
      </trkpt>
      <trkpt lat="45.90927" lon="6.50954">
        <ele>2537</ele>
        <time>2021-05-20T05:25:01Z</time>
      </trkpt>
      <trkpt lat="45.90927" lon="6.50954">
        <ele>2537</ele>
        <time>2021-05-20T05:25:02Z</time>
      </trkpt>
      <trkpt lat="45.90927" lon="6.50954">
        <ele>2537</ele>
        <time>2021-05-20T05:25:03Z</time>
      </trkpt>
      <trkpt lat="45.90927" lon="6.50954">
        <ele>2537</ele>
        <time>2021-05-20T05:25:04Z</time>
      </trkpt>
      <trkpt lat="45.90927" lon="6.50954">
        <ele>2537</ele>
        <time>2021-05-20T05:25:05Z</time>
      </trkpt>
      <trkpt lat="45.90927" lon="6.50954">
        <ele>2537</ele>
        <time>2021-05-20T05:25:06Z</time>
      </trkpt>
      <trkpt lat="45.90927" lon="6.50954">
        <ele>2537</ele>
        <time>2021-05-20T05:25:07Z</time>
      </trkpt>
      <trkpt lat="45.90927" lon="6.50954">
        <ele>2537</ele>
        <time>2021-05-20T05:25:08Z</time>
      </trkpt>
      <trkpt lat="45.90927" lon="6.50954">
        <ele>2537</ele>
        <time>2021-05-20T05:25:09Z</time>
      </trkpt>
      <trkpt lat="45.90927" lon="6.50954">
        <ele>2537</ele>
        <time>2021-05-20T05:25:10Z</time>
      </trkpt>
      <trkpt lat="45.90927" lon="6.50954">
        <ele>2537</ele>
        <time>2021-05-20T05:25:11Z</time>
      </trkpt>
      <trkpt lat="45.90927" lon="6.50954">
        <ele>2537</ele>
        <time>2021-05-20T05:25:12Z</time>
      </trkpt>
      <trkpt lat="45.90927" lon="6.50954">
        <ele>2537</ele>
        <time>2021-05-20T05:25:13Z</time>
      </trkpt>
      <trkpt lat="45.90927" lon="6.50954">
        <ele>2537</ele>
        <time>2021-05-20T05:25:14Z</time>
      </trkpt>
      <trkpt lat="45.90927" lon="6.50954">
        <ele>2537</ele>
        <time>2021-05-20T05:25:15Z</time>
      </trkpt>
      <trkpt lat="45.90927" lon="6.50954">
        <ele>2537</ele>
        <time>2021-05-20T05:25:16Z</time>
      </trkpt>
      <trkpt lat="45.90927" lon="6.50954">
        <ele>2537</ele>
        <time>2021-05-20T05:25:17Z</time>
      </trkpt>
      <trkpt lat="45.90927" lon="6.50954">
        <ele>2537</ele>
        <time>2021-05-20T05:25:18Z</time>
      </trkpt>
      <trkpt lat="45.90927" lon="6.50954">
        <ele>2538</ele>
        <time>2021-05-20T05:25:19Z</time>
      </trkpt>
      <trkpt lat="45.90927" lon="6.50954">
        <ele>2538</ele>
        <time>2021-05-20T05:25:20Z</time>
      </trkpt>
      <trkpt lat="45.90927" lon="6.50954">
        <ele>2538</ele>
        <time>2021-05-20T05:25:21Z</time>
      </trkpt>
      <trkpt lat="45.90927" lon="6.50954">
        <ele>2538</ele>
        <time>2021-05-20T05:25:22Z</time>
      </trkpt>
      <trkpt lat="45.90927" lon="6.50954">
        <ele>2537</ele>
        <time>2021-05-20T05:25:23Z</time>
      </trkpt>
      <trkpt lat="45.90927" lon="6.50954">
        <ele>2537</ele>
        <time>2021-05-20T05:25:24Z</time>
      </trkpt>
      <trkpt lat="45.90927" lon="6.50954">
        <ele>2537</ele>
        <time>2021-05-20T05:25:25Z</time>
      </trkpt>
      <trkpt lat="45.90927" lon="6.50954">
        <ele>2537</ele>
        <time>2021-05-20T05:25:26Z</time>
      </trkpt>
      <trkpt lat="45.90927" lon="6.50954">
        <ele>2537</ele>
        <time>2021-05-20T05:25:27Z</time>
      </trkpt>
      <trkpt lat="45.90927" lon="6.50954">
        <ele>2537</ele>
        <time>2021-05-20T05:25:28Z</time>
      </trkpt>
      <trkpt lat="45.90927" lon="6.50954">
        <ele>2537</ele>
        <time>2021-05-20T05:25:29Z</time>
      </trkpt>
      <trkpt lat="45.90927" lon="6.50954">
        <ele>2537</ele>
        <time>2021-05-20T05:25:30Z</time>
      </trkpt>
      <trkpt lat="45.90927" lon="6.50954">
        <ele>2537</ele>
        <time>2021-05-20T05:25:31Z</time>
      </trkpt>
      <trkpt lat="45.90927" lon="6.50954">
        <ele>2537</ele>
        <time>2021-05-20T05:25:32Z</time>
      </trkpt>
      <trkpt lat="45.90927" lon="6.50954">
        <ele>2537</ele>
        <time>2021-05-20T05:25:33Z</time>
      </trkpt>
      <trkpt lat="45.90927" lon="6.50954">
        <ele>2537</ele>
        <time>2021-05-20T05:25:34Z</time>
      </trkpt>
      <trkpt lat="45.90927" lon="6.50954">
        <ele>2537</ele>
        <time>2021-05-20T05:25:35Z</time>
      </trkpt>
      <trkpt lat="45.90927" lon="6.50954">
        <ele>2537</ele>
        <time>2021-05-20T05:25:36Z</time>
      </trkpt>
      <trkpt lat="45.90927" lon="6.50954">
        <ele>2537</ele>
        <time>2021-05-20T05:25:37Z</time>
      </trkpt>
      <trkpt lat="45.90927" lon="6.50954">
        <ele>2537</ele>
        <time>2021-05-20T05:25:38Z</time>
      </trkpt>
      <trkpt lat="45.90927" lon="6.50954">
        <ele>2537</ele>
        <time>2021-05-20T05:25:39Z</time>
      </trkpt>
      <trkpt lat="45.90927" lon="6.50954">
        <ele>2537</ele>
        <time>2021-05-20T05:25:40Z</time>
      </trkpt>
      <trkpt lat="45.90927" lon="6.50954">
        <ele>2537</ele>
        <time>2021-05-20T05:25:41Z</time>
      </trkpt>
      <trkpt lat="45.90927" lon="6.50954">
        <ele>2537</ele>
        <time>2021-05-20T05:25:42Z</time>
      </trkpt>
      <trkpt lat="45.90927" lon="6.50954">
        <ele>2537</ele>
        <time>2021-05-20T05:25:43Z</time>
      </trkpt>
      <trkpt lat="45.90927" lon="6.50954">
        <ele>2537</ele>
        <time>2021-05-20T05:25:44Z</time>
      </trkpt>
      <trkpt lat="45.90927" lon="6.50954">
        <ele>2537</ele>
        <time>2021-05-20T05:25:45Z</time>
      </trkpt>
      <trkpt lat="45.90927" lon="6.50954">
        <ele>2537</ele>
        <time>2021-05-20T05:25:46Z</time>
      </trkpt>
      <trkpt lat="45.90927" lon="6.50954">
        <ele>2537</ele>
        <time>2021-05-20T05:25:47Z</time>
      </trkpt>
      <trkpt lat="45.90927" lon="6.50954">
        <ele>2537</ele>
        <time>2021-05-20T05:25:48Z</time>
      </trkpt>
      <trkpt lat="45.90927" lon="6.50954">
        <ele>2537</ele>
        <time>2021-05-20T05:25:49Z</time>
      </trkpt>
      <trkpt lat="45.90927" lon="6.50954">
        <ele>2537</ele>
        <time>2021-05-20T05:25:50Z</time>
      </trkpt>
      <trkpt lat="45.90927" lon="6.50954">
        <ele>2537</ele>
        <time>2021-05-20T05:25:51Z</time>
      </trkpt>
      <trkpt lat="45.90927" lon="6.50954">
        <ele>2537</ele>
        <time>2021-05-20T05:25:52Z</time>
      </trkpt>
      <trkpt lat="45.90927" lon="6.50954">
        <ele>2537</ele>
        <time>2021-05-20T05:25:53Z</time>
      </trkpt>
      <trkpt lat="45.90927" lon="6.50954">
        <ele>2538</ele>
        <time>2021-05-20T05:25:54Z</time>
      </trkpt>
      <trkpt lat="45.90927" lon="6.50954">
        <ele>2538</ele>
        <time>2021-05-20T05:25:55Z</time>
      </trkpt>
      <trkpt lat="45.90927" lon="6.50954">
        <ele>2538</ele>
        <time>2021-05-20T05:25:56Z</time>
      </trkpt>
      <trkpt lat="45.90927" lon="6.50954">
        <ele>2538</ele>
        <time>2021-05-20T05:25:57Z</time>
      </trkpt>
      <trkpt lat="45.90927" lon="6.50954">
        <ele>2538</ele>
        <time>2021-05-20T05:25:58Z</time>
      </trkpt>
      <trkpt lat="45.90927" lon="6.50954">
        <ele>2538</ele>
        <time>2021-05-20T05:25:59Z</time>
      </trkpt>
      <trkpt lat="45.90927" lon="6.50954">
        <ele>2538</ele>
        <time>2021-05-20T05:26:00Z</time>
      </trkpt>
      <trkpt lat="45.90927" lon="6.50954">
        <ele>2538</ele>
        <time>2021-05-20T05:26:01Z</time>
      </trkpt>
      <trkpt lat="45.90927" lon="6.50954">
        <ele>2538</ele>
        <time>2021-05-20T05:26:02Z</time>
      </trkpt>
      <trkpt lat="45.90927" lon="6.50954">
        <ele>2538</ele>
        <time>2021-05-20T05:26:03Z</time>
      </trkpt>
      <trkpt lat="45.90927" lon="6.50954">
        <ele>2538</ele>
        <time>2021-05-20T05:26:04Z</time>
      </trkpt>
      <trkpt lat="45.90927" lon="6.50954">
        <ele>2538</ele>
        <time>2021-05-20T05:26:05Z</time>
      </trkpt>
      <trkpt lat="45.90927" lon="6.50954">
        <ele>2538</ele>
        <time>2021-05-20T05:26:06Z</time>
      </trkpt>
      <trkpt lat="45.90927" lon="6.50954">
        <ele>2538</ele>
        <time>2021-05-20T05:26:07Z</time>
      </trkpt>
      <trkpt lat="45.90927" lon="6.50954">
        <ele>2538</ele>
        <time>2021-05-20T05:26:08Z</time>
      </trkpt>
      <trkpt lat="45.90927" lon="6.50954">
        <ele>2538</ele>
        <time>2021-05-20T05:26:09Z</time>
      </trkpt>
      <trkpt lat="45.90927" lon="6.50954">
        <ele>2538</ele>
        <time>2021-05-20T05:26:10Z</time>
      </trkpt>
      <trkpt lat="45.90927" lon="6.50954">
        <ele>2538</ele>
        <time>2021-05-20T05:26:11Z</time>
      </trkpt>
      <trkpt lat="45.90927" lon="6.50954">
        <ele>2538</ele>
        <time>2021-05-20T05:26:12Z</time>
      </trkpt>
      <trkpt lat="45.90927" lon="6.50954">
        <ele>2538</ele>
        <time>2021-05-20T05:26:13Z</time>
      </trkpt>
      <trkpt lat="45.90927" lon="6.50954">
        <ele>2538</ele>
        <time>2021-05-20T05:26:14Z</time>
      </trkpt>
      <trkpt lat="45.90927" lon="6.50954">
        <ele>2538</ele>
        <time>2021-05-20T05:26:15Z</time>
      </trkpt>
      <trkpt lat="45.90927" lon="6.50954">
        <ele>2538</ele>
        <time>2021-05-20T05:26:16Z</time>
      </trkpt>
      <trkpt lat="45.90927" lon="6.50954">
        <ele>2538</ele>
        <time>2021-05-20T05:26:17Z</time>
      </trkpt>
      <trkpt lat="45.90927" lon="6.50954">
        <ele>2538</ele>
        <time>2021-05-20T05:26:18Z</time>
      </trkpt>
      <trkpt lat="45.90927" lon="6.50954">
        <ele>2538</ele>
        <time>2021-05-20T05:26:19Z</time>
      </trkpt>
      <trkpt lat="45.90927" lon="6.50954">
        <ele>2538</ele>
        <time>2021-05-20T05:26:20Z</time>
      </trkpt>
      <trkpt lat="45.90927" lon="6.50954">
        <ele>2538</ele>
        <time>2021-05-20T05:26:21Z</time>
      </trkpt>
      <trkpt lat="45.90927" lon="6.50954">
        <ele>2538</ele>
        <time>2021-05-20T05:26:22Z</time>
      </trkpt>
      <trkpt lat="45.90927" lon="6.50954">
        <ele>2538</ele>
        <time>2021-05-20T05:26:23Z</time>
      </trkpt>
      <trkpt lat="45.90927" lon="6.50954">
        <ele>2538</ele>
        <time>2021-05-20T05:26:24Z</time>
      </trkpt>
      <trkpt lat="45.90927" lon="6.50954">
        <ele>2538</ele>
        <time>2021-05-20T05:26:25Z</time>
      </trkpt>
      <trkpt lat="45.90927" lon="6.50954">
        <ele>2538</ele>
        <time>2021-05-20T05:26:26Z</time>
      </trkpt>
      <trkpt lat="45.90927" lon="6.50954">
        <ele>2538</ele>
        <time>2021-05-20T05:26:27Z</time>
      </trkpt>
      <trkpt lat="45.90927" lon="6.50954">
        <ele>2538</ele>
        <time>2021-05-20T05:26:28Z</time>
      </trkpt>
      <trkpt lat="45.90927" lon="6.50954">
        <ele>2538</ele>
        <time>2021-05-20T05:26:29Z</time>
      </trkpt>
      <trkpt lat="45.90927" lon="6.50954">
        <ele>2538</ele>
        <time>2021-05-20T05:26:30Z</time>
      </trkpt>
      <trkpt lat="45.90927" lon="6.50954">
        <ele>2538</ele>
        <time>2021-05-20T05:26:31Z</time>
      </trkpt>
      <trkpt lat="45.90927" lon="6.50954">
        <ele>2538</ele>
        <time>2021-05-20T05:26:32Z</time>
      </trkpt>
      <trkpt lat="45.90927" lon="6.50954">
        <ele>2538</ele>
        <time>2021-05-20T05:26:33Z</time>
      </trkpt>
      <trkpt lat="45.90927" lon="6.50954">
        <ele>2538</ele>
        <time>2021-05-20T05:26:34Z</time>
      </trkpt>
      <trkpt lat="45.90927" lon="6.50954">
        <ele>2538</ele>
        <time>2021-05-20T05:26:35Z</time>
      </trkpt>
      <trkpt lat="45.90927" lon="6.50954">
        <ele>2538</ele>
        <time>2021-05-20T05:26:36Z</time>
      </trkpt>
      <trkpt lat="45.90927" lon="6.50954">
        <ele>2538</ele>
        <time>2021-05-20T05:26:37Z</time>
      </trkpt>
      <trkpt lat="45.90927" lon="6.50954">
        <ele>2538</ele>
        <time>2021-05-20T05:26:38Z</time>
      </trkpt>
      <trkpt lat="45.90927" lon="6.50954">
        <ele>2538</ele>
        <time>2021-05-20T05:26:39Z</time>
      </trkpt>
      <trkpt lat="45.90927" lon="6.50954">
        <ele>2538</ele>
        <time>2021-05-20T05:26:40Z</time>
      </trkpt>
      <trkpt lat="45.90927" lon="6.50954">
        <ele>2538</ele>
        <time>2021-05-20T05:26:41Z</time>
      </trkpt>
      <trkpt lat="45.90927" lon="6.50954">
        <ele>2538</ele>
        <time>2021-05-20T05:26:42Z</time>
      </trkpt>
      <trkpt lat="45.90927" lon="6.50954">
        <ele>2538</ele>
        <time>2021-05-20T05:26:43Z</time>
      </trkpt>
      <trkpt lat="45.90927" lon="6.50954">
        <ele>2538</ele>
        <time>2021-05-20T05:26:44Z</time>
      </trkpt>
      <trkpt lat="45.90927" lon="6.50954">
        <ele>2537</ele>
        <time>2021-05-20T05:26:45Z</time>
      </trkpt>
      <trkpt lat="45.90927" lon="6.50954">
        <ele>2537</ele>
        <time>2021-05-20T05:26:46Z</time>
      </trkpt>
      <trkpt lat="45.90927" lon="6.50954">
        <ele>2537</ele>
        <time>2021-05-20T05:26:47Z</time>
      </trkpt>
      <trkpt lat="45.90927" lon="6.50954">
        <ele>2537</ele>
        <time>2021-05-20T05:26:48Z</time>
      </trkpt>
      <trkpt lat="45.90927" lon="6.50954">
        <ele>2537</ele>
        <time>2021-05-20T05:26:49Z</time>
      </trkpt>
      <trkpt lat="45.90927" lon="6.50954">
        <ele>2537</ele>
        <time>2021-05-20T05:26:50Z</time>
      </trkpt>
      <trkpt lat="45.90927" lon="6.50954">
        <ele>2537</ele>
        <time>2021-05-20T05:26:51Z</time>
      </trkpt>
      <trkpt lat="45.90927" lon="6.50954">
        <ele>2537</ele>
        <time>2021-05-20T05:26:52Z</time>
      </trkpt>
      <trkpt lat="45.90927" lon="6.50954">
        <ele>2537</ele>
        <time>2021-05-20T05:26:53Z</time>
      </trkpt>
      <trkpt lat="45.90927" lon="6.50954">
        <ele>2537</ele>
        <time>2021-05-20T05:26:54Z</time>
      </trkpt>
      <trkpt lat="45.90927" lon="6.50954">
        <ele>2537</ele>
        <time>2021-05-20T05:26:55Z</time>
      </trkpt>
      <trkpt lat="45.90927" lon="6.50954">
        <ele>2538</ele>
        <time>2021-05-20T05:26:56Z</time>
      </trkpt>
      <trkpt lat="45.90927" lon="6.50954">
        <ele>2538</ele>
        <time>2021-05-20T05:26:57Z</time>
      </trkpt>
      <trkpt lat="45.90927" lon="6.50954">
        <ele>2538</ele>
        <time>2021-05-20T05:26:58Z</time>
      </trkpt>
      <trkpt lat="45.90927" lon="6.50954">
        <ele>2538</ele>
        <time>2021-05-20T05:26:59Z</time>
      </trkpt>
      <trkpt lat="45.90927" lon="6.50954">
        <ele>2538</ele>
        <time>2021-05-20T05:27:00Z</time>
      </trkpt>
      <trkpt lat="45.90927" lon="6.50954">
        <ele>2538</ele>
        <time>2021-05-20T05:27:01Z</time>
      </trkpt>
      <trkpt lat="45.90927" lon="6.50954">
        <ele>2538</ele>
        <time>2021-05-20T05:27:02Z</time>
      </trkpt>
      <trkpt lat="45.90928" lon="6.50958">
        <ele>2539</ele>
        <time>2021-05-20T05:27:03Z</time>
      </trkpt>
      <trkpt lat="45.90928" lon="6.50958">
        <ele>2539</ele>
        <time>2021-05-20T05:27:04Z</time>
      </trkpt>
      <trkpt lat="45.90928" lon="6.50958">
        <ele>2539</ele>
        <time>2021-05-20T05:27:05Z</time>
      </trkpt>
      <trkpt lat="45.90928" lon="6.50958">
        <ele>2539</ele>
        <time>2021-05-20T05:27:06Z</time>
      </trkpt>
      <trkpt lat="45.90928" lon="6.50958">
        <ele>2539</ele>
        <time>2021-05-20T05:27:07Z</time>
      </trkpt>
      <trkpt lat="45.90928" lon="6.50958">
        <ele>2538</ele>
        <time>2021-05-20T05:27:08Z</time>
      </trkpt>
      <trkpt lat="45.90928" lon="6.50958">
        <ele>2538</ele>
        <time>2021-05-20T05:27:09Z</time>
      </trkpt>
      <trkpt lat="45.90928" lon="6.50958">
        <ele>2539</ele>
        <time>2021-05-20T05:27:10Z</time>
      </trkpt>
      <trkpt lat="45.90928" lon="6.50958">
        <ele>2539</ele>
        <time>2021-05-20T05:27:11Z</time>
      </trkpt>
      <trkpt lat="45.90928" lon="6.50958">
        <ele>2539</ele>
        <time>2021-05-20T05:27:12Z</time>
      </trkpt>
      <trkpt lat="45.90928" lon="6.50958">
        <ele>2540</ele>
        <time>2021-05-20T05:27:13Z</time>
      </trkpt>
      <trkpt lat="45.90928" lon="6.50958">
        <ele>2540</ele>
        <time>2021-05-20T05:27:14Z</time>
      </trkpt>
      <trkpt lat="45.90928" lon="6.50958">
        <ele>2540</ele>
        <time>2021-05-20T05:27:15Z</time>
      </trkpt>
      <trkpt lat="45.90928" lon="6.50958">
        <ele>2538</ele>
        <time>2021-05-20T05:27:16Z</time>
      </trkpt>
      <trkpt lat="45.90928" lon="6.50958">
        <ele>2538</ele>
        <time>2021-05-20T05:27:17Z</time>
      </trkpt>
      <trkpt lat="45.90928" lon="6.50958">
        <ele>2538</ele>
        <time>2021-05-20T05:27:18Z</time>
      </trkpt>
      <trkpt lat="45.90928" lon="6.50958">
        <ele>2538</ele>
        <time>2021-05-20T05:27:19Z</time>
      </trkpt>
      <trkpt lat="45.90928" lon="6.50958">
        <ele>2538</ele>
        <time>2021-05-20T05:27:20Z</time>
      </trkpt>
      <trkpt lat="45.90928" lon="6.50958">
        <ele>2538</ele>
        <time>2021-05-20T05:27:21Z</time>
      </trkpt>
      <trkpt lat="45.90928" lon="6.50958">
        <ele>2539</ele>
        <time>2021-05-20T05:27:22Z</time>
      </trkpt>
      <trkpt lat="45.90928" lon="6.50958">
        <ele>2539</ele>
        <time>2021-05-20T05:27:23Z</time>
      </trkpt>
      <trkpt lat="45.90928" lon="6.50958">
        <ele>2539</ele>
        <time>2021-05-20T05:27:24Z</time>
      </trkpt>
      <trkpt lat="45.90928" lon="6.50958">
        <ele>2539</ele>
        <time>2021-05-20T05:27:25Z</time>
      </trkpt>
      <trkpt lat="45.90928" lon="6.50958">
        <ele>2539</ele>
        <time>2021-05-20T05:27:26Z</time>
      </trkpt>
      <trkpt lat="45.90928" lon="6.50958">
        <ele>2539</ele>
        <time>2021-05-20T05:27:27Z</time>
      </trkpt>
      <trkpt lat="45.90928" lon="6.50958">
        <ele>2539</ele>
        <time>2021-05-20T05:27:28Z</time>
      </trkpt>
      <trkpt lat="45.90928" lon="6.50958">
        <ele>2539</ele>
        <time>2021-05-20T05:27:29Z</time>
      </trkpt>
      <trkpt lat="45.90928" lon="6.50958">
        <ele>2539</ele>
        <time>2021-05-20T05:27:30Z</time>
      </trkpt>
      <trkpt lat="45.90928" lon="6.50958">
        <ele>2539</ele>
        <time>2021-05-20T05:27:31Z</time>
      </trkpt>
      <trkpt lat="45.90928" lon="6.50958">
        <ele>2539</ele>
        <time>2021-05-20T05:27:32Z</time>
      </trkpt>
      <trkpt lat="45.90928" lon="6.50958">
        <ele>2539</ele>
        <time>2021-05-20T05:27:33Z</time>
      </trkpt>
      <trkpt lat="45.90928" lon="6.50958">
        <ele>2539</ele>
        <time>2021-05-20T05:27:34Z</time>
      </trkpt>
      <trkpt lat="45.90928" lon="6.50958">
        <ele>2539</ele>
        <time>2021-05-20T05:27:35Z</time>
      </trkpt>
      <trkpt lat="45.90928" lon="6.50957">
        <ele>2538</ele>
        <time>2021-05-20T05:27:36Z</time>
      </trkpt>
      <trkpt lat="45.90928" lon="6.50957">
        <ele>2538</ele>
        <time>2021-05-20T05:27:37Z</time>
      </trkpt>
      <trkpt lat="45.90928" lon="6.50957">
        <ele>2538</ele>
        <time>2021-05-20T05:27:38Z</time>
      </trkpt>
      <trkpt lat="45.90928" lon="6.50957">
        <ele>2538</ele>
        <time>2021-05-20T05:27:39Z</time>
      </trkpt>
      <trkpt lat="45.90928" lon="6.50957">
        <ele>2538</ele>
        <time>2021-05-20T05:27:40Z</time>
      </trkpt>
      <trkpt lat="45.90928" lon="6.50957">
        <ele>2538</ele>
        <time>2021-05-20T05:27:41Z</time>
      </trkpt>
      <trkpt lat="45.90928" lon="6.50957">
        <ele>2538</ele>
        <time>2021-05-20T05:27:42Z</time>
      </trkpt>
      <trkpt lat="45.90928" lon="6.50957">
        <ele>2538</ele>
        <time>2021-05-20T05:27:43Z</time>
      </trkpt>
      <trkpt lat="45.90928" lon="6.50957">
        <ele>2538</ele>
        <time>2021-05-20T05:27:44Z</time>
      </trkpt>
      <trkpt lat="45.90928" lon="6.50957">
        <ele>2538</ele>
        <time>2021-05-20T05:27:45Z</time>
      </trkpt>
      <trkpt lat="45.90928" lon="6.50957">
        <ele>2538</ele>
        <time>2021-05-20T05:27:46Z</time>
      </trkpt>
      <trkpt lat="45.90928" lon="6.50957">
        <ele>2538</ele>
        <time>2021-05-20T05:27:47Z</time>
      </trkpt>
      <trkpt lat="45.90928" lon="6.50957">
        <ele>2538</ele>
        <time>2021-05-20T05:27:48Z</time>
      </trkpt>
      <trkpt lat="45.90928" lon="6.50957">
        <ele>2538</ele>
        <time>2021-05-20T05:27:49Z</time>
      </trkpt>
      <trkpt lat="45.90928" lon="6.50957">
        <ele>2538</ele>
        <time>2021-05-20T05:27:50Z</time>
      </trkpt>
      <trkpt lat="45.90928" lon="6.50957">
        <ele>2538</ele>
        <time>2021-05-20T05:27:51Z</time>
      </trkpt>
      <trkpt lat="45.90928" lon="6.50957">
        <ele>2538</ele>
        <time>2021-05-20T05:27:52Z</time>
      </trkpt>
      <trkpt lat="45.90928" lon="6.50957">
        <ele>2539</ele>
        <time>2021-05-20T05:27:53Z</time>
      </trkpt>
      <trkpt lat="45.90928" lon="6.50957">
        <ele>2539</ele>
        <time>2021-05-20T05:27:54Z</time>
      </trkpt>
      <trkpt lat="45.90928" lon="6.50957">
        <ele>2539</ele>
        <time>2021-05-20T05:27:55Z</time>
      </trkpt>
      <trkpt lat="45.90928" lon="6.50957">
        <ele>2539</ele>
        <time>2021-05-20T05:27:56Z</time>
      </trkpt>
      <trkpt lat="45.90928" lon="6.50957">
        <ele>2539</ele>
        <time>2021-05-20T05:27:57Z</time>
      </trkpt>
      <trkpt lat="45.90928" lon="6.50957">
        <ele>2539</ele>
        <time>2021-05-20T05:27:58Z</time>
      </trkpt>
      <trkpt lat="45.90928" lon="6.50957">
        <ele>2538</ele>
        <time>2021-05-20T05:27:59Z</time>
      </trkpt>
      <trkpt lat="45.90928" lon="6.50957">
        <ele>2538</ele>
        <time>2021-05-20T05:28:00Z</time>
      </trkpt>
      <trkpt lat="45.90928" lon="6.50957">
        <ele>2538</ele>
        <time>2021-05-20T05:28:01Z</time>
      </trkpt>
      <trkpt lat="45.90928" lon="6.50957">
        <ele>2538</ele>
        <time>2021-05-20T05:28:02Z</time>
      </trkpt>
      <trkpt lat="45.90928" lon="6.50957">
        <ele>2538</ele>
        <time>2021-05-20T05:28:03Z</time>
      </trkpt>
      <trkpt lat="45.90928" lon="6.50957">
        <ele>2538</ele>
        <time>2021-05-20T05:28:04Z</time>
      </trkpt>
      <trkpt lat="45.90928" lon="6.50957">
        <ele>2538</ele>
        <time>2021-05-20T05:28:05Z</time>
      </trkpt>
      <trkpt lat="45.90928" lon="6.50957">
        <ele>2538</ele>
        <time>2021-05-20T05:28:06Z</time>
      </trkpt>
      <trkpt lat="45.90928" lon="6.50957">
        <ele>2538</ele>
        <time>2021-05-20T05:28:07Z</time>
      </trkpt>
      <trkpt lat="45.90928" lon="6.50957">
        <ele>2538</ele>
        <time>2021-05-20T05:28:08Z</time>
      </trkpt>
      <trkpt lat="45.90928" lon="6.50957">
        <ele>2538</ele>
        <time>2021-05-20T05:28:09Z</time>
      </trkpt>
      <trkpt lat="45.90928" lon="6.50957">
        <ele>2538</ele>
        <time>2021-05-20T05:28:10Z</time>
      </trkpt>
      <trkpt lat="45.90928" lon="6.50957">
        <ele>2538</ele>
        <time>2021-05-20T05:28:11Z</time>
      </trkpt>
      <trkpt lat="45.90928" lon="6.50957">
        <ele>2538</ele>
        <time>2021-05-20T05:28:12Z</time>
      </trkpt>
      <trkpt lat="45.90928" lon="6.50957">
        <ele>2538</ele>
        <time>2021-05-20T05:28:13Z</time>
      </trkpt>
      <trkpt lat="45.90928" lon="6.50957">
        <ele>2538</ele>
        <time>2021-05-20T05:28:14Z</time>
      </trkpt>
      <trkpt lat="45.90928" lon="6.50957">
        <ele>2538</ele>
        <time>2021-05-20T05:28:15Z</time>
      </trkpt>
      <trkpt lat="45.90928" lon="6.50957">
        <ele>2538</ele>
        <time>2021-05-20T05:28:16Z</time>
      </trkpt>
      <trkpt lat="45.90928" lon="6.50957">
        <ele>2538</ele>
        <time>2021-05-20T05:28:17Z</time>
      </trkpt>
      <trkpt lat="45.90928" lon="6.50957">
        <ele>2538</ele>
        <time>2021-05-20T05:28:18Z</time>
      </trkpt>
      <trkpt lat="45.90928" lon="6.50957">
        <ele>2538</ele>
        <time>2021-05-20T05:28:19Z</time>
      </trkpt>
      <trkpt lat="45.90928" lon="6.50957">
        <ele>2539</ele>
        <time>2021-05-20T05:28:20Z</time>
      </trkpt>
      <trkpt lat="45.90928" lon="6.50957">
        <ele>2539</ele>
        <time>2021-05-20T05:28:21Z</time>
      </trkpt>
      <trkpt lat="45.90928" lon="6.50957">
        <ele>2539</ele>
        <time>2021-05-20T05:28:22Z</time>
      </trkpt>
      <trkpt lat="45.90929" lon="6.50956">
        <ele>2539</ele>
        <time>2021-05-20T05:28:23Z</time>
      </trkpt>
      <trkpt lat="45.90929" lon="6.50956">
        <ele>2539</ele>
        <time>2021-05-20T05:28:24Z</time>
      </trkpt>
      <trkpt lat="45.90929" lon="6.50956">
        <ele>2539</ele>
        <time>2021-05-20T05:28:25Z</time>
      </trkpt>
      <trkpt lat="45.90929" lon="6.50956">
        <ele>2539</ele>
        <time>2021-05-20T05:28:26Z</time>
      </trkpt>
      <trkpt lat="45.90929" lon="6.50956">
        <ele>2540</ele>
        <time>2021-05-20T05:28:27Z</time>
      </trkpt>
      <trkpt lat="45.90929" lon="6.50956">
        <ele>2540</ele>
        <time>2021-05-20T05:28:28Z</time>
      </trkpt>
      <trkpt lat="45.90929" lon="6.50956">
        <ele>2540</ele>
        <time>2021-05-20T05:28:29Z</time>
      </trkpt>
      <trkpt lat="45.90929" lon="6.50956">
        <ele>2540</ele>
        <time>2021-05-20T05:28:30Z</time>
      </trkpt>
      <trkpt lat="45.90929" lon="6.50956">
        <ele>2540</ele>
        <time>2021-05-20T05:28:31Z</time>
      </trkpt>
      <trkpt lat="45.90929" lon="6.50956">
        <ele>2540</ele>
        <time>2021-05-20T05:28:32Z</time>
      </trkpt>
      <trkpt lat="45.90929" lon="6.50956">
        <ele>2539</ele>
        <time>2021-05-20T05:28:33Z</time>
      </trkpt>
      <trkpt lat="45.90929" lon="6.50956">
        <ele>2539</ele>
        <time>2021-05-20T05:28:34Z</time>
      </trkpt>
      <trkpt lat="45.90929" lon="6.50956">
        <ele>2539</ele>
        <time>2021-05-20T05:28:35Z</time>
      </trkpt>
      <trkpt lat="45.90929" lon="6.50956">
        <ele>2539</ele>
        <time>2021-05-20T05:28:36Z</time>
      </trkpt>
      <trkpt lat="45.90929" lon="6.50956">
        <ele>2538</ele>
        <time>2021-05-20T05:28:37Z</time>
      </trkpt>
      <trkpt lat="45.90929" lon="6.50956">
        <ele>2539</ele>
        <time>2021-05-20T05:28:38Z</time>
      </trkpt>
      <trkpt lat="45.90929" lon="6.50956">
        <ele>2540</ele>
        <time>2021-05-20T05:28:39Z</time>
      </trkpt>
      <trkpt lat="45.90929" lon="6.50956">
        <ele>2540</ele>
        <time>2021-05-20T05:28:40Z</time>
      </trkpt>
      <trkpt lat="45.90929" lon="6.50956">
        <ele>2540</ele>
        <time>2021-05-20T05:28:41Z</time>
      </trkpt>
      <trkpt lat="45.90929" lon="6.50956">
        <ele>2540</ele>
        <time>2021-05-20T05:28:42Z</time>
      </trkpt>
      <trkpt lat="45.90929" lon="6.50956">
        <ele>2540</ele>
        <time>2021-05-20T05:28:43Z</time>
      </trkpt>
      <trkpt lat="45.90929" lon="6.50956">
        <ele>2540</ele>
        <time>2021-05-20T05:28:44Z</time>
      </trkpt>
      <trkpt lat="45.90929" lon="6.50956">
        <ele>2540</ele>
        <time>2021-05-20T05:28:45Z</time>
      </trkpt>
      <trkpt lat="45.90929" lon="6.50956">
        <ele>2540</ele>
        <time>2021-05-20T05:28:46Z</time>
      </trkpt>
      <trkpt lat="45.90929" lon="6.50956">
        <ele>2540</ele>
        <time>2021-05-20T05:28:47Z</time>
      </trkpt>
      <trkpt lat="45.90929" lon="6.50956">
        <ele>2540</ele>
        <time>2021-05-20T05:28:48Z</time>
      </trkpt>
      <trkpt lat="45.90929" lon="6.50956">
        <ele>2540</ele>
        <time>2021-05-20T05:28:49Z</time>
      </trkpt>
      <trkpt lat="45.90929" lon="6.50956">
        <ele>2540</ele>
        <time>2021-05-20T05:28:50Z</time>
      </trkpt>
      <trkpt lat="45.90929" lon="6.50956">
        <ele>2540</ele>
        <time>2021-05-20T05:28:51Z</time>
      </trkpt>
      <trkpt lat="45.90929" lon="6.50956">
        <ele>2540</ele>
        <time>2021-05-20T05:28:52Z</time>
      </trkpt>
      <trkpt lat="45.90929" lon="6.50956">
        <ele>2541</ele>
        <time>2021-05-20T05:28:53Z</time>
      </trkpt>
      <trkpt lat="45.90929" lon="6.50956">
        <ele>2541</ele>
        <time>2021-05-20T05:28:54Z</time>
      </trkpt>
      <trkpt lat="45.90929" lon="6.50956">
        <ele>2541</ele>
        <time>2021-05-20T05:28:55Z</time>
      </trkpt>
      <trkpt lat="45.90929" lon="6.50956">
        <ele>2541</ele>
        <time>2021-05-20T05:28:56Z</time>
      </trkpt>
      <trkpt lat="45.90929" lon="6.50956">
        <ele>2542</ele>
        <time>2021-05-20T05:28:57Z</time>
      </trkpt>
      <trkpt lat="45.90929" lon="6.50956">
        <ele>2542</ele>
        <time>2021-05-20T05:28:58Z</time>
      </trkpt>
      <trkpt lat="45.90929" lon="6.50956">
        <ele>2542</ele>
        <time>2021-05-20T05:28:59Z</time>
      </trkpt>
      <trkpt lat="45.90929" lon="6.50956">
        <ele>2541</ele>
        <time>2021-05-20T05:29:00Z</time>
      </trkpt>
      <trkpt lat="45.90929" lon="6.50956">
        <ele>2541</ele>
        <time>2021-05-20T05:29:01Z</time>
      </trkpt>
      <trkpt lat="45.90929" lon="6.50956">
        <ele>2541</ele>
        <time>2021-05-20T05:29:02Z</time>
      </trkpt>
      <trkpt lat="45.90929" lon="6.50956">
        <ele>2541</ele>
        <time>2021-05-20T05:29:03Z</time>
      </trkpt>
      <trkpt lat="45.90929" lon="6.50956">
        <ele>2541</ele>
        <time>2021-05-20T05:29:04Z</time>
      </trkpt>
      <trkpt lat="45.90929" lon="6.50956">
        <ele>2541</ele>
        <time>2021-05-20T05:29:05Z</time>
      </trkpt>
      <trkpt lat="45.90929" lon="6.50956">
        <ele>2541</ele>
        <time>2021-05-20T05:29:06Z</time>
      </trkpt>
      <trkpt lat="45.90929" lon="6.50956">
        <ele>2541</ele>
        <time>2021-05-20T05:29:07Z</time>
      </trkpt>
      <trkpt lat="45.90929" lon="6.50956">
        <ele>2541</ele>
        <time>2021-05-20T05:29:08Z</time>
      </trkpt>
      <trkpt lat="45.90929" lon="6.50956">
        <ele>2541</ele>
        <time>2021-05-20T05:29:09Z</time>
      </trkpt>
      <trkpt lat="45.90929" lon="6.50956">
        <ele>2541</ele>
        <time>2021-05-20T05:29:10Z</time>
      </trkpt>
      <trkpt lat="45.90929" lon="6.50955">
        <ele>2541</ele>
        <time>2021-05-20T05:29:11Z</time>
      </trkpt>
      <trkpt lat="45.90929" lon="6.50955">
        <ele>2541</ele>
        <time>2021-05-20T05:29:12Z</time>
      </trkpt>
      <trkpt lat="45.90929" lon="6.50955">
        <ele>2541</ele>
        <time>2021-05-20T05:29:13Z</time>
      </trkpt>
      <trkpt lat="45.90929" lon="6.50955">
        <ele>2541</ele>
        <time>2021-05-20T05:29:14Z</time>
      </trkpt>
      <trkpt lat="45.90929" lon="6.50955">
        <ele>2541</ele>
        <time>2021-05-20T05:29:15Z</time>
      </trkpt>
      <trkpt lat="45.90929" lon="6.50955">
        <ele>2541</ele>
        <time>2021-05-20T05:29:16Z</time>
      </trkpt>
      <trkpt lat="45.90929" lon="6.50955">
        <ele>2541</ele>
        <time>2021-05-20T05:29:17Z</time>
      </trkpt>
      <trkpt lat="45.90929" lon="6.50955">
        <ele>2541</ele>
        <time>2021-05-20T05:29:18Z</time>
      </trkpt>
      <trkpt lat="45.90929" lon="6.50955">
        <ele>2541</ele>
        <time>2021-05-20T05:29:19Z</time>
      </trkpt>
      <trkpt lat="45.90929" lon="6.50955">
        <ele>2540</ele>
        <time>2021-05-20T05:29:20Z</time>
      </trkpt>
      <trkpt lat="45.90929" lon="6.50955">
        <ele>2540</ele>
        <time>2021-05-20T05:29:21Z</time>
      </trkpt>
      <trkpt lat="45.90929" lon="6.50955">
        <ele>2540</ele>
        <time>2021-05-20T05:29:22Z</time>
      </trkpt>
      <trkpt lat="45.90929" lon="6.50955">
        <ele>2540</ele>
        <time>2021-05-20T05:29:23Z</time>
      </trkpt>
      <trkpt lat="45.90929" lon="6.50955">
        <ele>2540</ele>
        <time>2021-05-20T05:29:24Z</time>
      </trkpt>
      <trkpt lat="45.90929" lon="6.50955">
        <ele>2540</ele>
        <time>2021-05-20T05:29:25Z</time>
      </trkpt>
      <trkpt lat="45.90929" lon="6.50955">
        <ele>2540</ele>
        <time>2021-05-20T05:29:26Z</time>
      </trkpt>
      <trkpt lat="45.90929" lon="6.50955">
        <ele>2540</ele>
        <time>2021-05-20T05:29:27Z</time>
      </trkpt>
      <trkpt lat="45.90929" lon="6.50955">
        <ele>2540</ele>
        <time>2021-05-20T05:29:28Z</time>
      </trkpt>
      <trkpt lat="45.90929" lon="6.50955">
        <ele>2540</ele>
        <time>2021-05-20T05:29:29Z</time>
      </trkpt>
      <trkpt lat="45.90929" lon="6.50955">
        <ele>2540</ele>
        <time>2021-05-20T05:29:30Z</time>
      </trkpt>
      <trkpt lat="45.90929" lon="6.50955">
        <ele>2540</ele>
        <time>2021-05-20T05:29:31Z</time>
      </trkpt>
      <trkpt lat="45.90929" lon="6.50955">
        <ele>2540</ele>
        <time>2021-05-20T05:29:32Z</time>
      </trkpt>
      <trkpt lat="45.90929" lon="6.50955">
        <ele>2540</ele>
        <time>2021-05-20T05:29:33Z</time>
      </trkpt>
      <trkpt lat="45.90929" lon="6.50955">
        <ele>2540</ele>
        <time>2021-05-20T05:29:34Z</time>
      </trkpt>
      <trkpt lat="45.90929" lon="6.50955">
        <ele>2540</ele>
        <time>2021-05-20T05:29:35Z</time>
      </trkpt>
      <trkpt lat="45.90929" lon="6.50955">
        <ele>2540</ele>
        <time>2021-05-20T05:29:36Z</time>
      </trkpt>
      <trkpt lat="45.90929" lon="6.50955">
        <ele>2539</ele>
        <time>2021-05-20T05:29:37Z</time>
      </trkpt>
      <trkpt lat="45.90929" lon="6.50955">
        <ele>2539</ele>
        <time>2021-05-20T05:29:38Z</time>
      </trkpt>
      <trkpt lat="45.90929" lon="6.50955">
        <ele>2539</ele>
        <time>2021-05-20T05:29:39Z</time>
      </trkpt>
      <trkpt lat="45.90929" lon="6.50955">
        <ele>2539</ele>
        <time>2021-05-20T05:29:40Z</time>
      </trkpt>
      <trkpt lat="45.90929" lon="6.50955">
        <ele>2539</ele>
        <time>2021-05-20T05:29:41Z</time>
      </trkpt>
      <trkpt lat="45.90929" lon="6.50955">
        <ele>2540</ele>
        <time>2021-05-20T05:29:42Z</time>
      </trkpt>
      <trkpt lat="45.90929" lon="6.50955">
        <ele>2540</ele>
        <time>2021-05-20T05:29:43Z</time>
      </trkpt>
      <trkpt lat="45.90929" lon="6.50955">
        <ele>2540</ele>
        <time>2021-05-20T05:29:44Z</time>
      </trkpt>
      <trkpt lat="45.90929" lon="6.50955">
        <ele>2540</ele>
        <time>2021-05-20T05:29:45Z</time>
      </trkpt>
      <trkpt lat="45.90929" lon="6.50955">
        <ele>2540</ele>
        <time>2021-05-20T05:29:46Z</time>
      </trkpt>
      <trkpt lat="45.90929" lon="6.50955">
        <ele>2540</ele>
        <time>2021-05-20T05:29:47Z</time>
      </trkpt>
      <trkpt lat="45.90929" lon="6.50955">
        <ele>2540</ele>
        <time>2021-05-20T05:29:48Z</time>
      </trkpt>
      <trkpt lat="45.90929" lon="6.50955">
        <ele>2540</ele>
        <time>2021-05-20T05:29:49Z</time>
      </trkpt>
      <trkpt lat="45.90929" lon="6.50955">
        <ele>2540</ele>
        <time>2021-05-20T05:29:50Z</time>
      </trkpt>
      <trkpt lat="45.90929" lon="6.50955">
        <ele>2540</ele>
        <time>2021-05-20T05:29:51Z</time>
      </trkpt>
      <trkpt lat="45.90929" lon="6.50955">
        <ele>2540</ele>
        <time>2021-05-20T05:29:52Z</time>
      </trkpt>
      <trkpt lat="45.90929" lon="6.50955">
        <ele>2540</ele>
        <time>2021-05-20T05:29:53Z</time>
      </trkpt>
      <trkpt lat="45.90929" lon="6.50955">
        <ele>2540</ele>
        <time>2021-05-20T05:29:54Z</time>
      </trkpt>
      <trkpt lat="45.90929" lon="6.50955">
        <ele>2540</ele>
        <time>2021-05-20T05:29:55Z</time>
      </trkpt>
      <trkpt lat="45.90929" lon="6.50955">
        <ele>2540</ele>
        <time>2021-05-20T05:29:56Z</time>
      </trkpt>
      <trkpt lat="45.90929" lon="6.50955">
        <ele>2540</ele>
        <time>2021-05-20T05:29:57Z</time>
      </trkpt>
      <trkpt lat="45.90929" lon="6.50955">
        <ele>2540</ele>
        <time>2021-05-20T05:29:58Z</time>
      </trkpt>
      <trkpt lat="45.90929" lon="6.50954">
        <ele>2540</ele>
        <time>2021-05-20T05:29:59Z</time>
      </trkpt>
      <trkpt lat="45.90929" lon="6.50954">
        <ele>2540</ele>
        <time>2021-05-20T05:30:00Z</time>
      </trkpt>
      <trkpt lat="45.90929" lon="6.50954">
        <ele>2540</ele>
        <time>2021-05-20T05:30:01Z</time>
      </trkpt>
      <trkpt lat="45.90929" lon="6.50954">
        <ele>2540</ele>
        <time>2021-05-20T05:30:02Z</time>
      </trkpt>
      <trkpt lat="45.90929" lon="6.50954">
        <ele>2540</ele>
        <time>2021-05-20T05:30:03Z</time>
      </trkpt>
      <trkpt lat="45.90929" lon="6.50954">
        <ele>2540</ele>
        <time>2021-05-20T05:30:04Z</time>
      </trkpt>
      <trkpt lat="45.90929" lon="6.50954">
        <ele>2540</ele>
        <time>2021-05-20T05:30:05Z</time>
      </trkpt>
      <trkpt lat="45.90929" lon="6.50954">
        <ele>2540</ele>
        <time>2021-05-20T05:30:06Z</time>
      </trkpt>
      <trkpt lat="45.90929" lon="6.50954">
        <ele>2540</ele>
        <time>2021-05-20T05:30:07Z</time>
      </trkpt>
      <trkpt lat="45.9093" lon="6.50954">
        <ele>2540</ele>
        <time>2021-05-20T05:30:08Z</time>
      </trkpt>
      <trkpt lat="45.9093" lon="6.50954">
        <ele>2540</ele>
        <time>2021-05-20T05:30:09Z</time>
      </trkpt>
      <trkpt lat="45.9093" lon="6.50954">
        <ele>2540</ele>
        <time>2021-05-20T05:30:10Z</time>
      </trkpt>
      <trkpt lat="45.9093" lon="6.50954">
        <ele>2540</ele>
        <time>2021-05-20T05:30:11Z</time>
      </trkpt>
      <trkpt lat="45.9093" lon="6.50954">
        <ele>2540</ele>
        <time>2021-05-20T05:30:12Z</time>
      </trkpt>
      <trkpt lat="45.9093" lon="6.50954">
        <ele>2540</ele>
        <time>2021-05-20T05:30:13Z</time>
      </trkpt>
      <trkpt lat="45.9093" lon="6.50954">
        <ele>2540</ele>
        <time>2021-05-20T05:30:14Z</time>
      </trkpt>
      <trkpt lat="45.9093" lon="6.50954">
        <ele>2540</ele>
        <time>2021-05-20T05:30:15Z</time>
      </trkpt>
      <trkpt lat="45.9093" lon="6.50954">
        <ele>2540</ele>
        <time>2021-05-20T05:30:16Z</time>
      </trkpt>
      <trkpt lat="45.9093" lon="6.50954">
        <ele>2540</ele>
        <time>2021-05-20T05:30:17Z</time>
      </trkpt>
      <trkpt lat="45.9093" lon="6.50954">
        <ele>2540</ele>
        <time>2021-05-20T05:30:18Z</time>
      </trkpt>
      <trkpt lat="45.9093" lon="6.50954">
        <ele>2540</ele>
        <time>2021-05-20T05:30:19Z</time>
      </trkpt>
      <trkpt lat="45.9093" lon="6.50954">
        <ele>2540</ele>
        <time>2021-05-20T05:30:20Z</time>
      </trkpt>
      <trkpt lat="45.9093" lon="6.50954">
        <ele>2540</ele>
        <time>2021-05-20T05:30:21Z</time>
      </trkpt>
      <trkpt lat="45.9093" lon="6.50954">
        <ele>2540</ele>
        <time>2021-05-20T05:30:22Z</time>
      </trkpt>
      <trkpt lat="45.9093" lon="6.50954">
        <ele>2540</ele>
        <time>2021-05-20T05:30:23Z</time>
      </trkpt>
      <trkpt lat="45.9093" lon="6.50954">
        <ele>2540</ele>
        <time>2021-05-20T05:30:24Z</time>
      </trkpt>
      <trkpt lat="45.9093" lon="6.50954">
        <ele>2540</ele>
        <time>2021-05-20T05:30:25Z</time>
      </trkpt>
      <trkpt lat="45.9093" lon="6.50954">
        <ele>2540</ele>
        <time>2021-05-20T05:30:26Z</time>
      </trkpt>
      <trkpt lat="45.9093" lon="6.50954">
        <ele>2540</ele>
        <time>2021-05-20T05:30:27Z</time>
      </trkpt>
      <trkpt lat="45.9093" lon="6.50954">
        <ele>2540</ele>
        <time>2021-05-20T05:30:28Z</time>
      </trkpt>
      <trkpt lat="45.9093" lon="6.50954">
        <ele>2540</ele>
        <time>2021-05-20T05:30:29Z</time>
      </trkpt>
      <trkpt lat="45.9093" lon="6.50954">
        <ele>2540</ele>
        <time>2021-05-20T05:30:30Z</time>
      </trkpt>
      <trkpt lat="45.9093" lon="6.50954">
        <ele>2540</ele>
        <time>2021-05-20T05:30:31Z</time>
      </trkpt>
      <trkpt lat="45.9093" lon="6.50954">
        <ele>2540</ele>
        <time>2021-05-20T05:30:32Z</time>
      </trkpt>
      <trkpt lat="45.9093" lon="6.50954">
        <ele>2540</ele>
        <time>2021-05-20T05:30:33Z</time>
      </trkpt>
      <trkpt lat="45.9093" lon="6.50954">
        <ele>2539</ele>
        <time>2021-05-20T05:30:34Z</time>
      </trkpt>
      <trkpt lat="45.9093" lon="6.50952">
        <ele>2539</ele>
        <time>2021-05-20T05:30:35Z</time>
      </trkpt>
      <trkpt lat="45.9093" lon="6.5095">
        <ele>2539</ele>
        <time>2021-05-20T05:30:36Z</time>
      </trkpt>
      <trkpt lat="45.9093" lon="6.50949">
        <ele>2539</ele>
        <time>2021-05-20T05:30:37Z</time>
      </trkpt>
      <trkpt lat="45.9093" lon="6.50947">
        <ele>2539</ele>
        <time>2021-05-20T05:30:38Z</time>
      </trkpt>
      <trkpt lat="45.90929" lon="6.50945">
        <ele>2538</ele>
        <time>2021-05-20T05:30:39Z</time>
      </trkpt>
      <trkpt lat="45.90928" lon="6.50943">
        <ele>2537</ele>
        <time>2021-05-20T05:30:40Z</time>
      </trkpt>
      <trkpt lat="45.90927" lon="6.50941">
        <ele>2535</ele>
        <time>2021-05-20T05:30:41Z</time>
      </trkpt>
      <trkpt lat="45.90924" lon="6.50936">
        <ele>2535</ele>
        <time>2021-05-20T05:30:42Z</time>
      </trkpt>
      <trkpt lat="45.90924" lon="6.50936">
        <ele>2534</ele>
        <time>2021-05-20T05:30:43Z</time>
      </trkpt>
      <trkpt lat="45.90922" lon="6.50933">
        <ele>2533</ele>
        <time>2021-05-20T05:30:44Z</time>
      </trkpt>
      <trkpt lat="45.90922" lon="6.50933">
        <ele>2533</ele>
        <time>2021-05-20T05:30:45Z</time>
      </trkpt>
      <trkpt lat="45.90922" lon="6.50933">
        <ele>2532</ele>
        <time>2021-05-20T05:30:46Z</time>
      </trkpt>
      <trkpt lat="45.90922" lon="6.50933">
        <ele>2532</ele>
        <time>2021-05-20T05:30:47Z</time>
      </trkpt>
      <trkpt lat="45.90922" lon="6.50933">
        <ele>2532</ele>
        <time>2021-05-20T05:30:48Z</time>
      </trkpt>
      <trkpt lat="45.90922" lon="6.50933">
        <ele>2532</ele>
        <time>2021-05-20T05:30:49Z</time>
      </trkpt>
      <trkpt lat="45.9092" lon="6.50928">
        <ele>2532</ele>
        <time>2021-05-20T05:30:50Z</time>
      </trkpt>
      <trkpt lat="45.90919" lon="6.50922">
        <ele>2532</ele>
        <time>2021-05-20T05:30:51Z</time>
      </trkpt>
      <trkpt lat="45.90919" lon="6.50922">
        <ele>2531</ele>
        <time>2021-05-20T05:30:52Z</time>
      </trkpt>
      <trkpt lat="45.90918" lon="6.50917">
        <ele>2529</ele>
        <time>2021-05-20T05:30:53Z</time>
      </trkpt>
      <trkpt lat="45.90918" lon="6.50917">
        <ele>2528</ele>
        <time>2021-05-20T05:30:54Z</time>
      </trkpt>
      <trkpt lat="45.9092" lon="6.50917">
        <ele>2528</ele>
        <time>2021-05-20T05:30:55Z</time>
      </trkpt>
      <trkpt lat="45.90922" lon="6.50916">
        <ele>2527</ele>
        <time>2021-05-20T05:30:56Z</time>
      </trkpt>
      <trkpt lat="45.90924" lon="6.50916">
        <ele>2527</ele>
        <time>2021-05-20T05:30:57Z</time>
      </trkpt>
      <trkpt lat="45.90927" lon="6.50917">
        <ele>2524</ele>
        <time>2021-05-20T05:30:58Z</time>
      </trkpt>
      <trkpt lat="45.90927" lon="6.50917">
        <ele>2523</ele>
        <time>2021-05-20T05:30:59Z</time>
      </trkpt>
      <trkpt lat="45.90928" lon="6.5091">
        <ele>2523</ele>
        <time>2021-05-20T05:31:00Z</time>
      </trkpt>
      <trkpt lat="45.90929" lon="6.50904">
        <ele>2523</ele>
        <time>2021-05-20T05:31:01Z</time>
      </trkpt>
      <trkpt lat="45.9093" lon="6.50898">
        <ele>2522</ele>
        <time>2021-05-20T05:31:02Z</time>
      </trkpt>
      <trkpt lat="45.90933" lon="6.5089">
        <ele>2520</ele>
        <time>2021-05-20T05:31:03Z</time>
      </trkpt>
      <trkpt lat="45.90941" lon="6.50886">
        <ele>2516</ele>
        <time>2021-05-20T05:31:04Z</time>
      </trkpt>
      <trkpt lat="45.90948" lon="6.50877">
        <ele>2511</ele>
        <time>2021-05-20T05:31:05Z</time>
      </trkpt>
      <trkpt lat="45.90952" lon="6.50864">
        <ele>2506</ele>
        <time>2021-05-20T05:31:06Z</time>
      </trkpt>
      <trkpt lat="45.90957" lon="6.50852">
        <ele>2500</ele>
        <time>2021-05-20T05:31:07Z</time>
      </trkpt>
      <trkpt lat="45.90965" lon="6.50847">
        <ele>2493</ele>
        <time>2021-05-20T05:31:08Z</time>
      </trkpt>
      <trkpt lat="45.90976" lon="6.50843">
        <ele>2485</ele>
        <time>2021-05-20T05:31:09Z</time>
      </trkpt>
      <trkpt lat="45.90983" lon="6.50834">
        <ele>2479</ele>
        <time>2021-05-20T05:31:10Z</time>
      </trkpt>
      <trkpt lat="45.90988" lon="6.50825">
        <ele>2473</ele>
        <time>2021-05-20T05:31:11Z</time>
      </trkpt>
      <trkpt lat="45.90995" lon="6.50826">
        <ele>2464</ele>
        <time>2021-05-20T05:31:12Z</time>
      </trkpt>
      <trkpt lat="45.91004" lon="6.50834">
        <ele>2457</ele>
        <time>2021-05-20T05:31:13Z</time>
      </trkpt>
      <trkpt lat="45.91009" lon="6.50841">
        <ele>2457</ele>
        <time>2021-05-20T05:31:14Z</time>
      </trkpt>
      <trkpt lat="45.91014" lon="6.50849">
        <ele>2447</ele>
        <time>2021-05-20T05:31:15Z</time>
      </trkpt>
      <trkpt lat="45.91025" lon="6.50865">
        <ele>2447</ele>
        <time>2021-05-20T05:31:16Z</time>
      </trkpt>
      <trkpt lat="45.91027" lon="6.50874">
        <ele>2444</ele>
        <time>2021-05-20T05:31:17Z</time>
      </trkpt>
      <trkpt lat="45.9103" lon="6.5088">
        <ele>2440</ele>
        <time>2021-05-20T05:31:18Z</time>
      </trkpt>
      <trkpt lat="45.91037" lon="6.50878">
        <ele>2437</ele>
        <time>2021-05-20T05:31:19Z</time>
      </trkpt>
      <trkpt lat="45.91037" lon="6.50878">
        <ele>2435</ele>
        <time>2021-05-20T05:31:20Z</time>
      </trkpt>
      <trkpt lat="45.91059" lon="6.5088">
        <ele>2430</ele>
        <time>2021-05-20T05:31:21Z</time>
      </trkpt>
      <trkpt lat="45.91064" lon="6.5088">
        <ele>2424</ele>
        <time>2021-05-20T05:31:22Z</time>
      </trkpt>
      <trkpt lat="45.91074" lon="6.5088">
        <ele>2418</ele>
        <time>2021-05-20T05:31:23Z</time>
      </trkpt>
      <trkpt lat="45.91087" lon="6.5087">
        <ele>2411</ele>
        <time>2021-05-20T05:31:24Z</time>
      </trkpt>
      <trkpt lat="45.91098" lon="6.50869">
        <ele>2403</ele>
        <time>2021-05-20T05:31:25Z</time>
      </trkpt>
      <trkpt lat="45.91109" lon="6.5087">
        <ele>2394</ele>
        <time>2021-05-20T05:31:26Z</time>
      </trkpt>
      <trkpt lat="45.9112" lon="6.50866">
        <ele>2385</ele>
        <time>2021-05-20T05:31:27Z</time>
      </trkpt>
      <trkpt lat="45.91129" lon="6.50862">
        <ele>2377</ele>
        <time>2021-05-20T05:31:28Z</time>
      </trkpt>
      <trkpt lat="45.9114" lon="6.50858">
        <ele>2370</ele>
        <time>2021-05-20T05:31:29Z</time>
      </trkpt>
      <trkpt lat="45.9115" lon="6.50847">
        <ele>2360</ele>
        <time>2021-05-20T05:31:30Z</time>
      </trkpt>
      <trkpt lat="45.91159" lon="6.50836">
        <ele>2353</ele>
        <time>2021-05-20T05:31:31Z</time>
      </trkpt>
      <trkpt lat="45.9117" lon="6.50833">
        <ele>2344</ele>
        <time>2021-05-20T05:31:32Z</time>
      </trkpt>
      <trkpt lat="45.91183" lon="6.50841">
        <ele>2333</ele>
        <time>2021-05-20T05:31:33Z</time>
      </trkpt>
      <trkpt lat="45.91195" lon="6.5085">
        <ele>2323</ele>
        <time>2021-05-20T05:31:34Z</time>
      </trkpt>
      <trkpt lat="45.91207" lon="6.50855">
        <ele>2323</ele>
        <time>2021-05-20T05:31:35Z</time>
      </trkpt>
      <trkpt lat="45.91221" lon="6.50849">
        <ele>2316</ele>
        <time>2021-05-20T05:31:36Z</time>
      </trkpt>
      <trkpt lat="45.91234" lon="6.50835">
        <ele>2306</ele>
        <time>2021-05-20T05:31:37Z</time>
      </trkpt>
      <trkpt lat="45.91248" lon="6.50821">
        <ele>2297</ele>
        <time>2021-05-20T05:31:38Z</time>
      </trkpt>
      <trkpt lat="45.91263" lon="6.50818">
        <ele>2286</ele>
        <time>2021-05-20T05:31:39Z</time>
      </trkpt>
      <trkpt lat="45.91279" lon="6.50822">
        <ele>2272</ele>
        <time>2021-05-20T05:31:40Z</time>
      </trkpt>
      <trkpt lat="45.91294" lon="6.50823">
        <ele>2265</ele>
        <time>2021-05-20T05:31:41Z</time>
      </trkpt>
      <trkpt lat="45.91307" lon="6.50818">
        <ele>2261</ele>
        <time>2021-05-20T05:31:42Z</time>
      </trkpt>
      <trkpt lat="45.91321" lon="6.50813">
        <ele>2254</ele>
        <time>2021-05-20T05:31:43Z</time>
      </trkpt>
      <trkpt lat="45.91334" lon="6.5081">
        <ele>2242</ele>
        <time>2021-05-20T05:31:44Z</time>
      </trkpt>
      <trkpt lat="45.91348" lon="6.50805">
        <ele>2236</ele>
        <time>2021-05-20T05:31:45Z</time>
      </trkpt>
      <trkpt lat="45.91359" lon="6.50804">
        <ele>2236</ele>
        <time>2021-05-20T05:31:46Z</time>
      </trkpt>
      <trkpt lat="45.91366" lon="6.50808">
        <ele>2229</ele>
        <time>2021-05-20T05:31:47Z</time>
      </trkpt>
      <trkpt lat="45.91369" lon="6.50812">
        <ele>2222</ele>
        <time>2021-05-20T05:31:48Z</time>
      </trkpt>
      <trkpt lat="45.91372" lon="6.50816">
        <ele>2218</ele>
        <time>2021-05-20T05:31:49Z</time>
      </trkpt>
      <trkpt lat="45.91374" lon="6.5082">
        <ele>2216</ele>
        <time>2021-05-20T05:31:50Z</time>
      </trkpt>
      <trkpt lat="45.91376" lon="6.50824">
        <ele>2215</ele>
        <time>2021-05-20T05:31:51Z</time>
      </trkpt>
      <trkpt lat="45.91376" lon="6.50824">
        <ele>2214</ele>
        <time>2021-05-20T05:31:52Z</time>
      </trkpt>
      <trkpt lat="45.9138" lon="6.50832">
        <ele>2214</ele>
        <time>2021-05-20T05:31:53Z</time>
      </trkpt>
      <trkpt lat="45.9138" lon="6.50832">
        <ele>2214</ele>
        <time>2021-05-20T05:31:54Z</time>
      </trkpt>
      <trkpt lat="45.9138" lon="6.50832">
        <ele>2214</ele>
        <time>2021-05-20T05:31:55Z</time>
      </trkpt>
      <trkpt lat="45.9138" lon="6.50832">
        <ele>2214</ele>
        <time>2021-05-20T05:31:56Z</time>
      </trkpt>
      <trkpt lat="45.9138" lon="6.50832">
        <ele>2214</ele>
        <time>2021-05-20T05:31:57Z</time>
      </trkpt>
      <trkpt lat="45.9138" lon="6.50832">
        <ele>2214</ele>
        <time>2021-05-20T05:31:58Z</time>
      </trkpt>
      <trkpt lat="45.9138" lon="6.50832">
        <ele>2214</ele>
        <time>2021-05-20T05:31:59Z</time>
      </trkpt>
      <trkpt lat="45.9138" lon="6.50832">
        <ele>2214</ele>
        <time>2021-05-20T05:32:00Z</time>
      </trkpt>
      <trkpt lat="45.9138" lon="6.50832">
        <ele>2214</ele>
        <time>2021-05-20T05:32:01Z</time>
      </trkpt>
      <trkpt lat="45.9138" lon="6.50832">
        <ele>2214</ele>
        <time>2021-05-20T05:32:02Z</time>
      </trkpt>
      <trkpt lat="45.9138" lon="6.50832">
        <ele>2214</ele>
        <time>2021-05-20T05:32:03Z</time>
      </trkpt>
      <trkpt lat="45.9138" lon="6.50832">
        <ele>2214</ele>
        <time>2021-05-20T05:32:04Z</time>
      </trkpt>
      <trkpt lat="45.9138" lon="6.50832">
        <ele>2214</ele>
        <time>2021-05-20T05:32:05Z</time>
      </trkpt>
      <trkpt lat="45.9138" lon="6.50832">
        <ele>2213</ele>
        <time>2021-05-20T05:32:06Z</time>
      </trkpt>
      <trkpt lat="45.9138" lon="6.50832">
        <ele>2213</ele>
        <time>2021-05-20T05:32:07Z</time>
      </trkpt>
      <trkpt lat="45.9138" lon="6.50832">
        <ele>2213</ele>
        <time>2021-05-20T05:32:08Z</time>
      </trkpt>
      <trkpt lat="45.9138" lon="6.50832">
        <ele>2213</ele>
        <time>2021-05-20T05:32:09Z</time>
      </trkpt>
      <trkpt lat="45.9138" lon="6.50832">
        <ele>2213</ele>
        <time>2021-05-20T05:32:10Z</time>
      </trkpt>
      <trkpt lat="45.9138" lon="6.50832">
        <ele>2213</ele>
        <time>2021-05-20T05:32:11Z</time>
      </trkpt>
      <trkpt lat="45.91382" lon="6.50836">
        <ele>2213</ele>
        <time>2021-05-20T05:32:12Z</time>
      </trkpt>
      <trkpt lat="45.91382" lon="6.50836">
        <ele>2213</ele>
        <time>2021-05-20T05:32:13Z</time>
      </trkpt>
      <trkpt lat="45.91382" lon="6.50836">
        <ele>2213</ele>
        <time>2021-05-20T05:32:14Z</time>
      </trkpt>
      <trkpt lat="45.91382" lon="6.50836">
        <ele>2213</ele>
        <time>2021-05-20T05:32:15Z</time>
      </trkpt>
      <trkpt lat="45.91382" lon="6.50836">
        <ele>2213</ele>
        <time>2021-05-20T05:32:16Z</time>
      </trkpt>
      <trkpt lat="45.91382" lon="6.50836">
        <ele>2213</ele>
        <time>2021-05-20T05:32:17Z</time>
      </trkpt>
      <trkpt lat="45.91382" lon="6.50836">
        <ele>2213</ele>
        <time>2021-05-20T05:32:18Z</time>
      </trkpt>
      <trkpt lat="45.91382" lon="6.50836">
        <ele>2213</ele>
        <time>2021-05-20T05:32:19Z</time>
      </trkpt>
      <trkpt lat="45.91382" lon="6.50836">
        <ele>2213</ele>
        <time>2021-05-20T05:32:20Z</time>
      </trkpt>
      <trkpt lat="45.91382" lon="6.50836">
        <ele>2213</ele>
        <time>2021-05-20T05:32:21Z</time>
      </trkpt>
      <trkpt lat="45.91382" lon="6.50836">
        <ele>2213</ele>
        <time>2021-05-20T05:32:22Z</time>
      </trkpt>
      <trkpt lat="45.91382" lon="6.50836">
        <ele>2213</ele>
        <time>2021-05-20T05:32:23Z</time>
      </trkpt>
      <trkpt lat="45.91382" lon="6.50836">
        <ele>2213</ele>
        <time>2021-05-20T05:32:24Z</time>
      </trkpt>
      <trkpt lat="45.91382" lon="6.50836">
        <ele>2213</ele>
        <time>2021-05-20T05:32:25Z</time>
      </trkpt>
      <trkpt lat="45.91382" lon="6.50836">
        <ele>2213</ele>
        <time>2021-05-20T05:32:26Z</time>
      </trkpt>
      <trkpt lat="45.91382" lon="6.50836">
        <ele>2213</ele>
        <time>2021-05-20T05:32:27Z</time>
      </trkpt>
      <trkpt lat="45.91382" lon="6.50836">
        <ele>2213</ele>
        <time>2021-05-20T05:32:28Z</time>
      </trkpt>
      <trkpt lat="45.91382" lon="6.50836">
        <ele>2213</ele>
        <time>2021-05-20T05:32:29Z</time>
      </trkpt>
      <trkpt lat="45.91382" lon="6.50836">
        <ele>2213</ele>
        <time>2021-05-20T05:32:30Z</time>
      </trkpt>
      <trkpt lat="45.91382" lon="6.50836">
        <ele>2213</ele>
        <time>2021-05-20T05:32:31Z</time>
      </trkpt>
      <trkpt lat="45.91382" lon="6.50836">
        <ele>2213</ele>
        <time>2021-05-20T05:32:32Z</time>
      </trkpt>
      <trkpt lat="45.91382" lon="6.50836">
        <ele>2213</ele>
        <time>2021-05-20T05:32:33Z</time>
      </trkpt>
      <trkpt lat="45.91382" lon="6.50836">
        <ele>2213</ele>
        <time>2021-05-20T05:32:34Z</time>
      </trkpt>
      <trkpt lat="45.91378" lon="6.50835">
        <ele>2213</ele>
        <time>2021-05-20T05:32:35Z</time>
      </trkpt>
      <trkpt lat="45.91378" lon="6.50835">
        <ele>2214</ele>
        <time>2021-05-20T05:32:36Z</time>
      </trkpt>
      <trkpt lat="45.91378" lon="6.50835">
        <ele>2214</ele>
        <time>2021-05-20T05:32:37Z</time>
      </trkpt>
      <trkpt lat="45.91378" lon="6.50835">
        <ele>2214</ele>
        <time>2021-05-20T05:32:38Z</time>
      </trkpt>
      <trkpt lat="45.91378" lon="6.50835">
        <ele>2214</ele>
        <time>2021-05-20T05:32:39Z</time>
      </trkpt>
      <trkpt lat="45.91378" lon="6.50835">
        <ele>2214</ele>
        <time>2021-05-20T05:32:40Z</time>
      </trkpt>
      <trkpt lat="45.91378" lon="6.50835">
        <ele>2214</ele>
        <time>2021-05-20T05:32:41Z</time>
      </trkpt>
      <trkpt lat="45.91378" lon="6.50835">
        <ele>2214</ele>
        <time>2021-05-20T05:32:42Z</time>
      </trkpt>
      <trkpt lat="45.91378" lon="6.50835">
        <ele>2214</ele>
        <time>2021-05-20T05:32:43Z</time>
      </trkpt>
      <trkpt lat="45.91378" lon="6.50835">
        <ele>2214</ele>
        <time>2021-05-20T05:32:44Z</time>
      </trkpt>
      <trkpt lat="45.91378" lon="6.50835">
        <ele>2214</ele>
        <time>2021-05-20T05:32:45Z</time>
      </trkpt>
      <trkpt lat="45.91378" lon="6.50835">
        <ele>2214</ele>
        <time>2021-05-20T05:32:46Z</time>
      </trkpt>
      <trkpt lat="45.91378" lon="6.50835">
        <ele>2214</ele>
        <time>2021-05-20T05:32:47Z</time>
      </trkpt>
      <trkpt lat="45.91378" lon="6.50835">
        <ele>2214</ele>
        <time>2021-05-20T05:32:48Z</time>
      </trkpt>
      <trkpt lat="45.91378" lon="6.50835">
        <ele>2214</ele>
        <time>2021-05-20T05:32:49Z</time>
      </trkpt>
      <trkpt lat="45.91378" lon="6.50835">
        <ele>2214</ele>
        <time>2021-05-20T05:32:50Z</time>
      </trkpt>
      <trkpt lat="45.91378" lon="6.50835">
        <ele>2214</ele>
        <time>2021-05-20T05:32:51Z</time>
      </trkpt>
      <trkpt lat="45.91378" lon="6.50835">
        <ele>2214</ele>
        <time>2021-05-20T05:32:52Z</time>
      </trkpt>
      <trkpt lat="45.91378" lon="6.50835">
        <ele>2213</ele>
        <time>2021-05-20T05:32:53Z</time>
      </trkpt>
      <trkpt lat="45.91378" lon="6.50835">
        <ele>2213</ele>
        <time>2021-05-20T05:32:54Z</time>
      </trkpt>
      <trkpt lat="45.91378" lon="6.50835">
        <ele>2213</ele>
        <time>2021-05-20T05:32:55Z</time>
      </trkpt>
      <trkpt lat="45.91378" lon="6.50835">
        <ele>2213</ele>
        <time>2021-05-20T05:32:56Z</time>
      </trkpt>
      <trkpt lat="45.91378" lon="6.50835">
        <ele>2213</ele>
        <time>2021-05-20T05:32:57Z</time>
      </trkpt>
      <trkpt lat="45.91378" lon="6.50835">
        <ele>2213</ele>
        <time>2021-05-20T05:32:58Z</time>
      </trkpt>
      <trkpt lat="45.91378" lon="6.50835">
        <ele>2213</ele>
        <time>2021-05-20T05:32:59Z</time>
      </trkpt>
      <trkpt lat="45.91378" lon="6.50835">
        <ele>2213</ele>
        <time>2021-05-20T05:33:00Z</time>
      </trkpt>
      <trkpt lat="45.91378" lon="6.50835">
        <ele>2213</ele>
        <time>2021-05-20T05:33:01Z</time>
      </trkpt>
      <trkpt lat="45.91378" lon="6.50835">
        <ele>2213</ele>
        <time>2021-05-20T05:33:02Z</time>
      </trkpt>
      <trkpt lat="45.91378" lon="6.50835">
        <ele>2213</ele>
        <time>2021-05-20T05:33:03Z</time>
      </trkpt>
      <trkpt lat="45.91378" lon="6.50835">
        <ele>2213</ele>
        <time>2021-05-20T05:33:04Z</time>
      </trkpt>
      <trkpt lat="45.91378" lon="6.50835">
        <ele>2213</ele>
        <time>2021-05-20T05:33:05Z</time>
      </trkpt>
      <trkpt lat="45.91378" lon="6.50835">
        <ele>2213</ele>
        <time>2021-05-20T05:33:06Z</time>
      </trkpt>
      <trkpt lat="45.91378" lon="6.50835">
        <ele>2213</ele>
        <time>2021-05-20T05:33:07Z</time>
      </trkpt>
      <trkpt lat="45.91378" lon="6.50835">
        <ele>2213</ele>
        <time>2021-05-20T05:33:08Z</time>
      </trkpt>
      <trkpt lat="45.91378" lon="6.50835">
        <ele>2213</ele>
        <time>2021-05-20T05:33:09Z</time>
      </trkpt>
      <trkpt lat="45.91378" lon="6.50835">
        <ele>2213</ele>
        <time>2021-05-20T05:33:10Z</time>
      </trkpt>
      <trkpt lat="45.91378" lon="6.50835">
        <ele>2213</ele>
        <time>2021-05-20T05:33:11Z</time>
      </trkpt>
      <trkpt lat="45.91378" lon="6.50835">
        <ele>2213</ele>
        <time>2021-05-20T05:33:12Z</time>
      </trkpt>
      <trkpt lat="45.91378" lon="6.50835">
        <ele>2213</ele>
        <time>2021-05-20T05:33:13Z</time>
      </trkpt>
      <trkpt lat="45.91378" lon="6.50835">
        <ele>2213</ele>
        <time>2021-05-20T05:33:14Z</time>
      </trkpt>
      <trkpt lat="45.91378" lon="6.50835">
        <ele>2213</ele>
        <time>2021-05-20T05:33:15Z</time>
      </trkpt>
      <trkpt lat="45.91378" lon="6.50835">
        <ele>2213</ele>
        <time>2021-05-20T05:33:16Z</time>
      </trkpt>
      <trkpt lat="45.91378" lon="6.50835">
        <ele>2214</ele>
        <time>2021-05-20T05:33:17Z</time>
      </trkpt>
      <trkpt lat="45.91378" lon="6.50835">
        <ele>2214</ele>
        <time>2021-05-20T05:33:18Z</time>
      </trkpt>
      <trkpt lat="45.91378" lon="6.50835">
        <ele>2214</ele>
        <time>2021-05-20T05:33:19Z</time>
      </trkpt>
      <trkpt lat="45.91378" lon="6.50835">
        <ele>2214</ele>
        <time>2021-05-20T05:33:20Z</time>
      </trkpt>
      <trkpt lat="45.91378" lon="6.50835">
        <ele>2214</ele>
        <time>2021-05-20T05:33:21Z</time>
      </trkpt>
      <trkpt lat="45.91378" lon="6.50835">
        <ele>2214</ele>
        <time>2021-05-20T05:33:22Z</time>
      </trkpt>
      <trkpt lat="45.91378" lon="6.50835">
        <ele>2214</ele>
        <time>2021-05-20T05:33:23Z</time>
      </trkpt>
      <trkpt lat="45.91378" lon="6.50835">
        <ele>2214</ele>
        <time>2021-05-20T05:33:24Z</time>
      </trkpt>
      <trkpt lat="45.91378" lon="6.50835">
        <ele>2214</ele>
        <time>2021-05-20T05:33:25Z</time>
      </trkpt>
      <trkpt lat="45.91378" lon="6.50835">
        <ele>2214</ele>
        <time>2021-05-20T05:33:26Z</time>
      </trkpt>
      <trkpt lat="45.91378" lon="6.50835">
        <ele>2213</ele>
        <time>2021-05-20T05:33:27Z</time>
      </trkpt>
      <trkpt lat="45.91378" lon="6.50835">
        <ele>2213</ele>
        <time>2021-05-20T05:33:28Z</time>
      </trkpt>
      <trkpt lat="45.91378" lon="6.50835">
        <ele>2213</ele>
        <time>2021-05-20T05:33:29Z</time>
      </trkpt>
      <trkpt lat="45.91378" lon="6.50835">
        <ele>2213</ele>
        <time>2021-05-20T05:33:30Z</time>
      </trkpt>
      <trkpt lat="45.91378" lon="6.50835">
        <ele>2214</ele>
        <time>2021-05-20T05:33:31Z</time>
      </trkpt>
      <trkpt lat="45.91378" lon="6.50835">
        <ele>2214</ele>
        <time>2021-05-20T05:33:32Z</time>
      </trkpt>
      <trkpt lat="45.91378" lon="6.50835">
        <ele>2214</ele>
        <time>2021-05-20T05:33:33Z</time>
      </trkpt>
      <trkpt lat="45.91378" lon="6.50835">
        <ele>2214</ele>
        <time>2021-05-20T05:33:34Z</time>
      </trkpt>
      <trkpt lat="45.91378" lon="6.50835">
        <ele>2214</ele>
        <time>2021-05-20T05:33:35Z</time>
      </trkpt>
      <trkpt lat="45.91378" lon="6.50835">
        <ele>2214</ele>
        <time>2021-05-20T05:33:36Z</time>
      </trkpt>
      <trkpt lat="45.91378" lon="6.50835">
        <ele>2214</ele>
        <time>2021-05-20T05:33:37Z</time>
      </trkpt>
      <trkpt lat="45.91378" lon="6.50835">
        <ele>2214</ele>
        <time>2021-05-20T05:33:38Z</time>
      </trkpt>
      <trkpt lat="45.91378" lon="6.50835">
        <ele>2214</ele>
        <time>2021-05-20T05:33:39Z</time>
      </trkpt>
      <trkpt lat="45.91378" lon="6.50835">
        <ele>2214</ele>
        <time>2021-05-20T05:33:40Z</time>
      </trkpt>
      <trkpt lat="45.91378" lon="6.50835">
        <ele>2214</ele>
        <time>2021-05-20T05:33:41Z</time>
      </trkpt>
      <trkpt lat="45.91378" lon="6.50835">
        <ele>2214</ele>
        <time>2021-05-20T05:33:42Z</time>
      </trkpt>
      <trkpt lat="45.91378" lon="6.50835">
        <ele>2213</ele>
        <time>2021-05-20T05:33:43Z</time>
      </trkpt>
      <trkpt lat="45.91378" lon="6.50835">
        <ele>2213</ele>
        <time>2021-05-20T05:33:44Z</time>
      </trkpt>
      <trkpt lat="45.91378" lon="6.50835">
        <ele>2213</ele>
        <time>2021-05-20T05:33:45Z</time>
      </trkpt>
      <trkpt lat="45.91378" lon="6.50835">
        <ele>2213</ele>
        <time>2021-05-20T05:33:46Z</time>
      </trkpt>
      <trkpt lat="45.91378" lon="6.50835">
        <ele>2213</ele>
        <time>2021-05-20T05:33:47Z</time>
      </trkpt>
      <trkpt lat="45.91378" lon="6.50835">
        <ele>2213</ele>
        <time>2021-05-20T05:33:48Z</time>
      </trkpt>
      <trkpt lat="45.91378" lon="6.50835">
        <ele>2212</ele>
        <time>2021-05-20T05:33:49Z</time>
      </trkpt>
      <trkpt lat="45.91378" lon="6.50835">
        <ele>2212</ele>
        <time>2021-05-20T05:33:50Z</time>
      </trkpt>
      <trkpt lat="45.91378" lon="6.50835">
        <ele>2212</ele>
        <time>2021-05-20T05:33:51Z</time>
      </trkpt>
      <trkpt lat="45.91378" lon="6.50835">
        <ele>2213</ele>
        <time>2021-05-20T05:33:52Z</time>
      </trkpt>
      <trkpt lat="45.91378" lon="6.50835">
        <ele>2213</ele>
        <time>2021-05-20T05:33:53Z</time>
      </trkpt>
      <trkpt lat="45.91378" lon="6.50835">
        <ele>2213</ele>
        <time>2021-05-20T05:33:54Z</time>
      </trkpt>
      <trkpt lat="45.91378" lon="6.50835">
        <ele>2213</ele>
        <time>2021-05-20T05:33:55Z</time>
      </trkpt>
      <trkpt lat="45.91378" lon="6.50835">
        <ele>2213</ele>
        <time>2021-05-20T05:33:56Z</time>
      </trkpt>
      <trkpt lat="45.91378" lon="6.50835">
        <ele>2214</ele>
        <time>2021-05-20T05:33:57Z</time>
      </trkpt>
      <trkpt lat="45.91378" lon="6.50835">
        <ele>2214</ele>
        <time>2021-05-20T05:33:58Z</time>
      </trkpt>
      <trkpt lat="45.91378" lon="6.50835">
        <ele>2214</ele>
        <time>2021-05-20T05:33:59Z</time>
      </trkpt>
      <trkpt lat="45.91378" lon="6.50835">
        <ele>2214</ele>
        <time>2021-05-20T05:34:00Z</time>
      </trkpt>
      <trkpt lat="45.91378" lon="6.50835">
        <ele>2214</ele>
        <time>2021-05-20T05:34:01Z</time>
      </trkpt>
      <trkpt lat="45.91378" lon="6.50835">
        <ele>2214</ele>
        <time>2021-05-20T05:34:02Z</time>
      </trkpt>
      <trkpt lat="45.91378" lon="6.50835">
        <ele>2214</ele>
        <time>2021-05-20T05:34:03Z</time>
      </trkpt>
      <trkpt lat="45.91378" lon="6.50835">
        <ele>2214</ele>
        <time>2021-05-20T05:34:04Z</time>
      </trkpt>
      <trkpt lat="45.91378" lon="6.50835">
        <ele>2214</ele>
        <time>2021-05-20T05:34:05Z</time>
      </trkpt>
      <trkpt lat="45.91378" lon="6.50835">
        <ele>2214</ele>
        <time>2021-05-20T05:34:06Z</time>
      </trkpt>
      <trkpt lat="45.91378" lon="6.50841">
        <ele>2214</ele>
        <time>2021-05-20T05:34:07Z</time>
      </trkpt>
      <trkpt lat="45.91378" lon="6.50841">
        <ele>2214</ele>
        <time>2021-05-20T05:34:08Z</time>
      </trkpt>
      <trkpt lat="45.91379" lon="6.50843">
        <ele>2214</ele>
        <time>2021-05-20T05:34:09Z</time>
      </trkpt>
      <trkpt lat="45.91379" lon="6.50844">
        <ele>2214</ele>
        <time>2021-05-20T05:34:10Z</time>
      </trkpt>
      <trkpt lat="45.9138" lon="6.50846">
        <ele>2214</ele>
        <time>2021-05-20T05:34:11Z</time>
      </trkpt>
      <trkpt lat="45.9138" lon="6.50847">
        <ele>2215</ele>
        <time>2021-05-20T05:34:12Z</time>
      </trkpt>
      <trkpt lat="45.91381" lon="6.50849">
        <ele>2215</ele>
        <time>2021-05-20T05:34:13Z</time>
      </trkpt>
      <trkpt lat="45.91381" lon="6.5085">
        <ele>2215</ele>
        <time>2021-05-20T05:34:14Z</time>
      </trkpt>
      <trkpt lat="45.91381" lon="6.50852">
        <ele>2215</ele>
        <time>2021-05-20T05:34:15Z</time>
      </trkpt>
      <trkpt lat="45.91381" lon="6.50852">
        <ele>2215</ele>
        <time>2021-05-20T05:34:16Z</time>
      </trkpt>
      <trkpt lat="45.91381" lon="6.50852">
        <ele>2215</ele>
        <time>2021-05-20T05:34:17Z</time>
      </trkpt>
      <trkpt lat="45.91383" lon="6.50857">
        <ele>2215</ele>
        <time>2021-05-20T05:34:18Z</time>
      </trkpt>
      <trkpt lat="45.91383" lon="6.50857">
        <ele>2216</ele>
        <time>2021-05-20T05:34:19Z</time>
      </trkpt>
      <trkpt lat="45.91383" lon="6.50859">
        <ele>2217</ele>
        <time>2021-05-20T05:34:20Z</time>
      </trkpt>
      <trkpt lat="45.91383" lon="6.5086">
        <ele>2217</ele>
        <time>2021-05-20T05:34:21Z</time>
      </trkpt>
      <trkpt lat="45.91383" lon="6.50861">
        <ele>2217</ele>
        <time>2021-05-20T05:34:22Z</time>
      </trkpt>
      <trkpt lat="45.91383" lon="6.50863">
        <ele>2218</ele>
        <time>2021-05-20T05:34:23Z</time>
      </trkpt>
      <trkpt lat="45.91383" lon="6.50863">
        <ele>2218</ele>
        <time>2021-05-20T05:34:24Z</time>
      </trkpt>
      <trkpt lat="45.91383" lon="6.50863">
        <ele>2218</ele>
        <time>2021-05-20T05:34:25Z</time>
      </trkpt>
      <trkpt lat="45.91383" lon="6.50863">
        <ele>2218</ele>
        <time>2021-05-20T05:34:26Z</time>
      </trkpt>
      <trkpt lat="45.91385" lon="6.50868">
        <ele>2218</ele>
        <time>2021-05-20T05:34:27Z</time>
      </trkpt>
      <trkpt lat="45.91385" lon="6.50868">
        <ele>2218</ele>
        <time>2021-05-20T05:34:28Z</time>
      </trkpt>
      <trkpt lat="45.91385" lon="6.50869">
        <ele>2218</ele>
        <time>2021-05-20T05:34:29Z</time>
      </trkpt>
      <trkpt lat="45.91385" lon="6.5087">
        <ele>2219</ele>
        <time>2021-05-20T05:34:30Z</time>
      </trkpt>
      <trkpt lat="45.91385" lon="6.50872">
        <ele>2219</ele>
        <time>2021-05-20T05:34:31Z</time>
      </trkpt>
      <trkpt lat="45.91386" lon="6.50873">
        <ele>2219</ele>
        <time>2021-05-20T05:34:32Z</time>
      </trkpt>
      <trkpt lat="45.91386" lon="6.50873">
        <ele>2219</ele>
        <time>2021-05-20T05:34:33Z</time>
      </trkpt>
      <trkpt lat="45.91386" lon="6.50873">
        <ele>2220</ele>
        <time>2021-05-20T05:34:34Z</time>
      </trkpt>
      <trkpt lat="45.91387" lon="6.50879">
        <ele>2220</ele>
        <time>2021-05-20T05:34:35Z</time>
      </trkpt>
      <trkpt lat="45.91387" lon="6.50879">
        <ele>2220</ele>
        <time>2021-05-20T05:34:36Z</time>
      </trkpt>
      <trkpt lat="45.91387" lon="6.50879">
        <ele>2221</ele>
        <time>2021-05-20T05:34:37Z</time>
      </trkpt>
      <trkpt lat="45.91387" lon="6.50879">
        <ele>2221</ele>
        <time>2021-05-20T05:34:38Z</time>
      </trkpt>
      <trkpt lat="45.91388" lon="6.50883">
        <ele>2221</ele>
        <time>2021-05-20T05:34:39Z</time>
      </trkpt>
      <trkpt lat="45.91388" lon="6.50883">
        <ele>2222</ele>
        <time>2021-05-20T05:34:40Z</time>
      </trkpt>
      <trkpt lat="45.91389" lon="6.50884">
        <ele>2223</ele>
        <time>2021-05-20T05:34:41Z</time>
      </trkpt>
      <trkpt lat="45.91389" lon="6.50886">
        <ele>2223</ele>
        <time>2021-05-20T05:34:42Z</time>
      </trkpt>
      <trkpt lat="45.91389" lon="6.50887">
        <ele>2223</ele>
        <time>2021-05-20T05:34:43Z</time>
      </trkpt>
      <trkpt lat="45.91389" lon="6.50888">
        <ele>2223</ele>
        <time>2021-05-20T05:34:44Z</time>
      </trkpt>
      <trkpt lat="45.91389" lon="6.50888">
        <ele>2223</ele>
        <time>2021-05-20T05:34:45Z</time>
      </trkpt>
      <trkpt lat="45.91389" lon="6.50888">
        <ele>2223</ele>
        <time>2021-05-20T05:34:46Z</time>
      </trkpt>
      <trkpt lat="45.91389" lon="6.50888">
        <ele>2224</ele>
        <time>2021-05-20T05:34:47Z</time>
      </trkpt>
      <trkpt lat="45.9139" lon="6.50894">
        <ele>2224</ele>
        <time>2021-05-20T05:34:48Z</time>
      </trkpt>
      <trkpt lat="45.9139" lon="6.50894">
        <ele>2224</ele>
        <time>2021-05-20T05:34:49Z</time>
      </trkpt>
      <trkpt lat="45.9139" lon="6.50895">
        <ele>2225</ele>
        <time>2021-05-20T05:34:50Z</time>
      </trkpt>
      <trkpt lat="45.9139" lon="6.50896">
        <ele>2225</ele>
        <time>2021-05-20T05:34:51Z</time>
      </trkpt>
      <trkpt lat="45.9139" lon="6.50897">
        <ele>2224</ele>
        <time>2021-05-20T05:34:52Z</time>
      </trkpt>
      <trkpt lat="45.9139" lon="6.50898">
        <ele>2225</ele>
        <time>2021-05-20T05:34:53Z</time>
      </trkpt>
      <trkpt lat="45.9139" lon="6.50899">
        <ele>2225</ele>
        <time>2021-05-20T05:34:54Z</time>
      </trkpt>
      <trkpt lat="45.9139" lon="6.509">
        <ele>2226</ele>
        <time>2021-05-20T05:34:55Z</time>
      </trkpt>
      <trkpt lat="45.9139" lon="6.50901">
        <ele>2226</ele>
        <time>2021-05-20T05:34:56Z</time>
      </trkpt>
      <trkpt lat="45.9139" lon="6.50902">
        <ele>2226</ele>
        <time>2021-05-20T05:34:57Z</time>
      </trkpt>
      <trkpt lat="45.9139" lon="6.50903">
        <ele>2227</ele>
        <time>2021-05-20T05:34:58Z</time>
      </trkpt>
      <trkpt lat="45.91391" lon="6.50904">
        <ele>2227</ele>
        <time>2021-05-20T05:34:59Z</time>
      </trkpt>
      <trkpt lat="45.91391" lon="6.50905">
        <ele>2227</ele>
        <time>2021-05-20T05:35:00Z</time>
      </trkpt>
      <trkpt lat="45.91391" lon="6.50906">
        <ele>2227</ele>
        <time>2021-05-20T05:35:01Z</time>
      </trkpt>
      <trkpt lat="45.91391" lon="6.50907">
        <ele>2227</ele>
        <time>2021-05-20T05:35:02Z</time>
      </trkpt>
      <trkpt lat="45.91391" lon="6.50908">
        <ele>2227</ele>
        <time>2021-05-20T05:35:03Z</time>
      </trkpt>
      <trkpt lat="45.91391" lon="6.50909">
        <ele>2228</ele>
        <time>2021-05-20T05:35:04Z</time>
      </trkpt>
      <trkpt lat="45.91391" lon="6.5091">
        <ele>2228</ele>
        <time>2021-05-20T05:35:05Z</time>
      </trkpt>
      <trkpt lat="45.91391" lon="6.50911">
        <ele>2228</ele>
        <time>2021-05-20T05:35:06Z</time>
      </trkpt>
      <trkpt lat="45.91391" lon="6.50911">
        <ele>2228</ele>
        <time>2021-05-20T05:35:07Z</time>
      </trkpt>
      <trkpt lat="45.91391" lon="6.50911">
        <ele>2229</ele>
        <time>2021-05-20T05:35:08Z</time>
      </trkpt>
      <trkpt lat="45.91391" lon="6.50911">
        <ele>2229</ele>
        <time>2021-05-20T05:35:09Z</time>
      </trkpt>
      <trkpt lat="45.91392" lon="6.50917">
        <ele>2229</ele>
        <time>2021-05-20T05:35:10Z</time>
      </trkpt>
      <trkpt lat="45.91392" lon="6.50917">
        <ele>2229</ele>
        <time>2021-05-20T05:35:11Z</time>
      </trkpt>
      <trkpt lat="45.91392" lon="6.50917">
        <ele>2230</ele>
        <time>2021-05-20T05:35:12Z</time>
      </trkpt>
      <trkpt lat="45.91392" lon="6.50917">
        <ele>2230</ele>
        <time>2021-05-20T05:35:13Z</time>
      </trkpt>
      <trkpt lat="45.91392" lon="6.50917">
        <ele>2230</ele>
        <time>2021-05-20T05:35:14Z</time>
      </trkpt>
      <trkpt lat="45.91392" lon="6.50922">
        <ele>2230</ele>
        <time>2021-05-20T05:35:15Z</time>
      </trkpt>
      <trkpt lat="45.91392" lon="6.50922">
        <ele>2232</ele>
        <time>2021-05-20T05:35:16Z</time>
      </trkpt>
      <trkpt lat="45.91392" lon="6.50923">
        <ele>2232</ele>
        <time>2021-05-20T05:35:17Z</time>
      </trkpt>
      <trkpt lat="45.91392" lon="6.50924">
        <ele>2232</ele>
        <time>2021-05-20T05:35:18Z</time>
      </trkpt>
      <trkpt lat="45.91392" lon="6.50926">
        <ele>2232</ele>
        <time>2021-05-20T05:35:19Z</time>
      </trkpt>
      <trkpt lat="45.91392" lon="6.50927">
        <ele>2232</ele>
        <time>2021-05-20T05:35:20Z</time>
      </trkpt>
      <trkpt lat="45.91392" lon="6.50928">
        <ele>2233</ele>
        <time>2021-05-20T05:35:21Z</time>
      </trkpt>
      <trkpt lat="45.91392" lon="6.50928">
        <ele>2233</ele>
        <time>2021-05-20T05:35:22Z</time>
      </trkpt>
      <trkpt lat="45.91392" lon="6.50928">
        <ele>2234</ele>
        <time>2021-05-20T05:35:23Z</time>
      </trkpt>
      <trkpt lat="45.91392" lon="6.50933">
        <ele>2234</ele>
        <time>2021-05-20T05:35:24Z</time>
      </trkpt>
      <trkpt lat="45.91392" lon="6.50933">
        <ele>2234</ele>
        <time>2021-05-20T05:35:25Z</time>
      </trkpt>
      <trkpt lat="45.91392" lon="6.50934">
        <ele>2234</ele>
        <time>2021-05-20T05:35:26Z</time>
      </trkpt>
      <trkpt lat="45.91392" lon="6.50935">
        <ele>2234</ele>
        <time>2021-05-20T05:35:27Z</time>
      </trkpt>
      <trkpt lat="45.91392" lon="6.50936">
        <ele>2234</ele>
        <time>2021-05-20T05:35:28Z</time>
      </trkpt>
      <trkpt lat="45.91392" lon="6.50937">
        <ele>2234</ele>
        <time>2021-05-20T05:35:29Z</time>
      </trkpt>
      <trkpt lat="45.91392" lon="6.50938">
        <ele>2235</ele>
        <time>2021-05-20T05:35:30Z</time>
      </trkpt>
      <trkpt lat="45.91391" lon="6.50939">
        <ele>2235</ele>
        <time>2021-05-20T05:35:31Z</time>
      </trkpt>
      <trkpt lat="45.91391" lon="6.5094">
        <ele>2235</ele>
        <time>2021-05-20T05:35:32Z</time>
      </trkpt>
      <trkpt lat="45.91391" lon="6.50941">
        <ele>2236</ele>
        <time>2021-05-20T05:35:33Z</time>
      </trkpt>
      <trkpt lat="45.91391" lon="6.50941">
        <ele>2237</ele>
        <time>2021-05-20T05:35:34Z</time>
      </trkpt>
      <trkpt lat="45.91391" lon="6.50941">
        <ele>2237</ele>
        <time>2021-05-20T05:35:35Z</time>
      </trkpt>
      <trkpt lat="45.91391" lon="6.50946">
        <ele>2237</ele>
        <time>2021-05-20T05:35:36Z</time>
      </trkpt>
      <trkpt lat="45.91391" lon="6.50946">
        <ele>2237</ele>
        <time>2021-05-20T05:35:37Z</time>
      </trkpt>
      <trkpt lat="45.91391" lon="6.50947">
        <ele>2237</ele>
        <time>2021-05-20T05:35:38Z</time>
      </trkpt>
      <trkpt lat="45.91391" lon="6.50948">
        <ele>2237</ele>
        <time>2021-05-20T05:35:39Z</time>
      </trkpt>
      <trkpt lat="45.91391" lon="6.50949">
        <ele>2237</ele>
        <time>2021-05-20T05:35:40Z</time>
      </trkpt>
      <trkpt lat="45.91391" lon="6.5095">
        <ele>2237</ele>
        <time>2021-05-20T05:35:41Z</time>
      </trkpt>
      <trkpt lat="45.91391" lon="6.50952">
        <ele>2238</ele>
        <time>2021-05-20T05:35:42Z</time>
      </trkpt>
      <trkpt lat="45.91391" lon="6.50952">
        <ele>2239</ele>
        <time>2021-05-20T05:35:43Z</time>
      </trkpt>
      <trkpt lat="45.91392" lon="6.50956">
        <ele>2239</ele>
        <time>2021-05-20T05:35:44Z</time>
      </trkpt>
      <trkpt lat="45.91392" lon="6.50956">
        <ele>2239</ele>
        <time>2021-05-20T05:35:45Z</time>
      </trkpt>
      <trkpt lat="45.91392" lon="6.50956">
        <ele>2239</ele>
        <time>2021-05-20T05:35:46Z</time>
      </trkpt>
      <trkpt lat="45.91392" lon="6.50956">
        <ele>2239</ele>
        <time>2021-05-20T05:35:47Z</time>
      </trkpt>
      <trkpt lat="45.91392" lon="6.50956">
        <ele>2239</ele>
        <time>2021-05-20T05:35:48Z</time>
      </trkpt>
      <trkpt lat="45.91391" lon="6.50961">
        <ele>2240</ele>
        <time>2021-05-20T05:35:49Z</time>
      </trkpt>
      <trkpt lat="45.91391" lon="6.50961">
        <ele>2240</ele>
        <time>2021-05-20T05:35:50Z</time>
      </trkpt>
      <trkpt lat="45.91391" lon="6.50963">
        <ele>2240</ele>
        <time>2021-05-20T05:35:51Z</time>
      </trkpt>
      <trkpt lat="45.91391" lon="6.50964">
        <ele>2241</ele>
        <time>2021-05-20T05:35:52Z</time>
      </trkpt>
      <trkpt lat="45.9139" lon="6.50965">
        <ele>2241</ele>
        <time>2021-05-20T05:35:53Z</time>
      </trkpt>
      <trkpt lat="45.9139" lon="6.50966">
        <ele>2241</ele>
        <time>2021-05-20T05:35:54Z</time>
      </trkpt>
      <trkpt lat="45.9139" lon="6.50968">
        <ele>2241</ele>
        <time>2021-05-20T05:35:55Z</time>
      </trkpt>
      <trkpt lat="45.9139" lon="6.50969">
        <ele>2241</ele>
        <time>2021-05-20T05:35:56Z</time>
      </trkpt>
      <trkpt lat="45.9139" lon="6.5097">
        <ele>2241</ele>
        <time>2021-05-20T05:35:57Z</time>
      </trkpt>
      <trkpt lat="45.9139" lon="6.50971">
        <ele>2242</ele>
        <time>2021-05-20T05:35:58Z</time>
      </trkpt>
      <trkpt lat="45.9139" lon="6.50972">
        <ele>2242</ele>
        <time>2021-05-20T05:35:59Z</time>
      </trkpt>
      <trkpt lat="45.9139" lon="6.50973">
        <ele>2242</ele>
        <time>2021-05-20T05:36:00Z</time>
      </trkpt>
      <trkpt lat="45.9139" lon="6.50975">
        <ele>2242</ele>
        <time>2021-05-20T05:36:01Z</time>
      </trkpt>
      <trkpt lat="45.9139" lon="6.50976">
        <ele>2243</ele>
        <time>2021-05-20T05:36:02Z</time>
      </trkpt>
      <trkpt lat="45.9139" lon="6.50977">
        <ele>2243</ele>
        <time>2021-05-20T05:36:03Z</time>
      </trkpt>
      <trkpt lat="45.9139" lon="6.50978">
        <ele>2244</ele>
        <time>2021-05-20T05:36:04Z</time>
      </trkpt>
      <trkpt lat="45.9139" lon="6.50979">
        <ele>2244</ele>
        <time>2021-05-20T05:36:05Z</time>
      </trkpt>
      <trkpt lat="45.9139" lon="6.50979">
        <ele>2244</ele>
        <time>2021-05-20T05:36:06Z</time>
      </trkpt>
      <trkpt lat="45.9139" lon="6.50979">
        <ele>2244</ele>
        <time>2021-05-20T05:36:07Z</time>
      </trkpt>
      <trkpt lat="45.9139" lon="6.50979">
        <ele>2244</ele>
        <time>2021-05-20T05:36:08Z</time>
      </trkpt>
      <trkpt lat="45.9139" lon="6.50985">
        <ele>2244</ele>
        <time>2021-05-20T05:36:09Z</time>
      </trkpt>
      <trkpt lat="45.9139" lon="6.50985">
        <ele>2245</ele>
        <time>2021-05-20T05:36:10Z</time>
      </trkpt>
      <trkpt lat="45.9139" lon="6.50986">
        <ele>2245</ele>
        <time>2021-05-20T05:36:11Z</time>
      </trkpt>
      <trkpt lat="45.9139" lon="6.50987">
        <ele>2245</ele>
        <time>2021-05-20T05:36:12Z</time>
      </trkpt>
      <trkpt lat="45.9139" lon="6.50988">
        <ele>2246</ele>
        <time>2021-05-20T05:36:13Z</time>
      </trkpt>
      <trkpt lat="45.9139" lon="6.50989">
        <ele>2246</ele>
        <time>2021-05-20T05:36:14Z</time>
      </trkpt>
      <trkpt lat="45.9139" lon="6.5099">
        <ele>2246</ele>
        <time>2021-05-20T05:36:15Z</time>
      </trkpt>
      <trkpt lat="45.9139" lon="6.50991">
        <ele>2247</ele>
        <time>2021-05-20T05:36:16Z</time>
      </trkpt>
      <trkpt lat="45.9139" lon="6.50992">
        <ele>2247</ele>
        <time>2021-05-20T05:36:17Z</time>
      </trkpt>
      <trkpt lat="45.91389" lon="6.50993">
        <ele>2247</ele>
        <time>2021-05-20T05:36:18Z</time>
      </trkpt>
      <trkpt lat="45.91389" lon="6.50994">
        <ele>2247</ele>
        <time>2021-05-20T05:36:19Z</time>
      </trkpt>
      <trkpt lat="45.91389" lon="6.50995">
        <ele>2247</ele>
        <time>2021-05-20T05:36:20Z</time>
      </trkpt>
      <trkpt lat="45.91389" lon="6.50996">
        <ele>2248</ele>
        <time>2021-05-20T05:36:21Z</time>
      </trkpt>
      <trkpt lat="45.91389" lon="6.50996">
        <ele>2248</ele>
        <time>2021-05-20T05:36:22Z</time>
      </trkpt>
      <trkpt lat="45.91389" lon="6.50996">
        <ele>2248</ele>
        <time>2021-05-20T05:36:23Z</time>
      </trkpt>
      <trkpt lat="45.91388" lon="6.51001">
        <ele>2249</ele>
        <time>2021-05-20T05:36:24Z</time>
      </trkpt>
      <trkpt lat="45.91388" lon="6.51001">
        <ele>2249</ele>
        <time>2021-05-20T05:36:25Z</time>
      </trkpt>
      <trkpt lat="45.91388" lon="6.51001">
        <ele>2249</ele>
        <time>2021-05-20T05:36:26Z</time>
      </trkpt>
      <trkpt lat="45.91388" lon="6.51001">
        <ele>2249</ele>
        <time>2021-05-20T05:36:27Z</time>
      </trkpt>
      <trkpt lat="45.91388" lon="6.51001">
        <ele>2249</ele>
        <time>2021-05-20T05:36:28Z</time>
      </trkpt>
      <trkpt lat="45.91387" lon="6.51006">
        <ele>2249</ele>
        <time>2021-05-20T05:36:29Z</time>
      </trkpt>
      <trkpt lat="45.91387" lon="6.51006">
        <ele>2249</ele>
        <time>2021-05-20T05:36:30Z</time>
      </trkpt>
      <trkpt lat="45.91387" lon="6.51007">
        <ele>2250</ele>
        <time>2021-05-20T05:36:31Z</time>
      </trkpt>
      <trkpt lat="45.91387" lon="6.51008">
        <ele>2250</ele>
        <time>2021-05-20T05:36:32Z</time>
      </trkpt>
      <trkpt lat="45.91387" lon="6.51009">
        <ele>2250</ele>
        <time>2021-05-20T05:36:33Z</time>
      </trkpt>
      <trkpt lat="45.91387" lon="6.5101">
        <ele>2251</ele>
        <time>2021-05-20T05:36:34Z</time>
      </trkpt>
      <trkpt lat="45.91386" lon="6.51011">
        <ele>2251</ele>
        <time>2021-05-20T05:36:35Z</time>
      </trkpt>
      <trkpt lat="45.91386" lon="6.51011">
        <ele>2251</ele>
        <time>2021-05-20T05:36:36Z</time>
      </trkpt>
      <trkpt lat="45.91386" lon="6.51011">
        <ele>2252</ele>
        <time>2021-05-20T05:36:37Z</time>
      </trkpt>
      <trkpt lat="45.91386" lon="6.51011">
        <ele>2252</ele>
        <time>2021-05-20T05:36:38Z</time>
      </trkpt>
      <trkpt lat="45.91385" lon="6.51016">
        <ele>2252</ele>
        <time>2021-05-20T05:36:39Z</time>
      </trkpt>
      <trkpt lat="45.91385" lon="6.51016">
        <ele>2252</ele>
        <time>2021-05-20T05:36:40Z</time>
      </trkpt>
      <trkpt lat="45.91385" lon="6.51016">
        <ele>2252</ele>
        <time>2021-05-20T05:36:41Z</time>
      </trkpt>
      <trkpt lat="45.91385" lon="6.51016">
        <ele>2252</ele>
        <time>2021-05-20T05:36:42Z</time>
      </trkpt>
      <trkpt lat="45.91385" lon="6.51016">
        <ele>2253</ele>
        <time>2021-05-20T05:36:43Z</time>
      </trkpt>
      <trkpt lat="45.91385" lon="6.51016">
        <ele>2253</ele>
        <time>2021-05-20T05:36:44Z</time>
      </trkpt>
      <trkpt lat="45.91384" lon="6.51021">
        <ele>2254</ele>
        <time>2021-05-20T05:36:45Z</time>
      </trkpt>
      <trkpt lat="45.91384" lon="6.51021">
        <ele>2254</ele>
        <time>2021-05-20T05:36:46Z</time>
      </trkpt>
      <trkpt lat="45.91384" lon="6.51022">
        <ele>2254</ele>
        <time>2021-05-20T05:36:47Z</time>
      </trkpt>
      <trkpt lat="45.91384" lon="6.51023">
        <ele>2254</ele>
        <time>2021-05-20T05:36:48Z</time>
      </trkpt>
      <trkpt lat="45.91384" lon="6.51024">
        <ele>2254</ele>
        <time>2021-05-20T05:36:49Z</time>
      </trkpt>
      <trkpt lat="45.91384" lon="6.51025">
        <ele>2254</ele>
        <time>2021-05-20T05:36:50Z</time>
      </trkpt>
      <trkpt lat="45.91384" lon="6.51026">
        <ele>2255</ele>
        <time>2021-05-20T05:36:51Z</time>
      </trkpt>
      <trkpt lat="45.91383" lon="6.51027">
        <ele>2255</ele>
        <time>2021-05-20T05:36:52Z</time>
      </trkpt>
      <trkpt lat="45.91383" lon="6.51027">
        <ele>2255</ele>
        <time>2021-05-20T05:36:53Z</time>
      </trkpt>
      <trkpt lat="45.91383" lon="6.51027">
        <ele>2255</ele>
        <time>2021-05-20T05:36:54Z</time>
      </trkpt>
      <trkpt lat="45.91383" lon="6.51027">
        <ele>2256</ele>
        <time>2021-05-20T05:36:55Z</time>
      </trkpt>
      <trkpt lat="45.91383" lon="6.51027">
        <ele>2256</ele>
        <time>2021-05-20T05:36:56Z</time>
      </trkpt>
      <trkpt lat="45.91383" lon="6.51032">
        <ele>2256</ele>
        <time>2021-05-20T05:36:57Z</time>
      </trkpt>
      <trkpt lat="45.91383" lon="6.51032">
        <ele>2256</ele>
        <time>2021-05-20T05:36:58Z</time>
      </trkpt>
      <trkpt lat="45.91383" lon="6.51032">
        <ele>2258</ele>
        <time>2021-05-20T05:36:59Z</time>
      </trkpt>
      <trkpt lat="45.91383" lon="6.51032">
        <ele>2258</ele>
        <time>2021-05-20T05:37:00Z</time>
      </trkpt>
      <trkpt lat="45.91383" lon="6.51032">
        <ele>2258</ele>
        <time>2021-05-20T05:37:01Z</time>
      </trkpt>
      <trkpt lat="45.91383" lon="6.51038">
        <ele>2258</ele>
        <time>2021-05-20T05:37:02Z</time>
      </trkpt>
      <trkpt lat="45.91383" lon="6.51038">
        <ele>2258</ele>
        <time>2021-05-20T05:37:03Z</time>
      </trkpt>
      <trkpt lat="45.91383" lon="6.51038">
        <ele>2259</ele>
        <time>2021-05-20T05:37:04Z</time>
      </trkpt>
      <trkpt lat="45.91383" lon="6.51039">
        <ele>2259</ele>
        <time>2021-05-20T05:37:05Z</time>
      </trkpt>
      <trkpt lat="45.91382" lon="6.5104">
        <ele>2259</ele>
        <time>2021-05-20T05:37:06Z</time>
      </trkpt>
      <trkpt lat="45.91382" lon="6.51041">
        <ele>2260</ele>
        <time>2021-05-20T05:37:07Z</time>
      </trkpt>
      <trkpt lat="45.91382" lon="6.51042">
        <ele>2260</ele>
        <time>2021-05-20T05:37:08Z</time>
      </trkpt>
      <trkpt lat="45.91382" lon="6.51042">
        <ele>2261</ele>
        <time>2021-05-20T05:37:09Z</time>
      </trkpt>
      <trkpt lat="45.91382" lon="6.51042">
        <ele>2261</ele>
        <time>2021-05-20T05:37:10Z</time>
      </trkpt>
      <trkpt lat="45.91382" lon="6.51042">
        <ele>2261</ele>
        <time>2021-05-20T05:37:11Z</time>
      </trkpt>
      <trkpt lat="45.91382" lon="6.51042">
        <ele>2261</ele>
        <time>2021-05-20T05:37:12Z</time>
      </trkpt>
      <trkpt lat="45.91382" lon="6.51048">
        <ele>2261</ele>
        <time>2021-05-20T05:37:13Z</time>
      </trkpt>
      <trkpt lat="45.91382" lon="6.51048">
        <ele>2262</ele>
        <time>2021-05-20T05:37:14Z</time>
      </trkpt>
      <trkpt lat="45.91381" lon="6.51049">
        <ele>2262</ele>
        <time>2021-05-20T05:37:15Z</time>
      </trkpt>
      <trkpt lat="45.91381" lon="6.5105">
        <ele>2262</ele>
        <time>2021-05-20T05:37:16Z</time>
      </trkpt>
      <trkpt lat="45.91381" lon="6.5105">
        <ele>2262</ele>
        <time>2021-05-20T05:37:17Z</time>
      </trkpt>
      <trkpt lat="45.9138" lon="6.51051">
        <ele>2262</ele>
        <time>2021-05-20T05:37:18Z</time>
      </trkpt>
      <trkpt lat="45.9138" lon="6.51052">
        <ele>2263</ele>
        <time>2021-05-20T05:37:19Z</time>
      </trkpt>
      <trkpt lat="45.9138" lon="6.51053">
        <ele>2263</ele>
        <time>2021-05-20T05:37:20Z</time>
      </trkpt>
      <trkpt lat="45.91379" lon="6.51054">
        <ele>2263</ele>
        <time>2021-05-20T05:37:21Z</time>
      </trkpt>
      <trkpt lat="45.91379" lon="6.51055">
        <ele>2264</ele>
        <time>2021-05-20T05:37:22Z</time>
      </trkpt>
      <trkpt lat="45.91379" lon="6.51055">
        <ele>2264</ele>
        <time>2021-05-20T05:37:23Z</time>
      </trkpt>
      <trkpt lat="45.91378" lon="6.51056">
        <ele>2264</ele>
        <time>2021-05-20T05:37:24Z</time>
      </trkpt>
      <trkpt lat="45.91378" lon="6.51057">
        <ele>2264</ele>
        <time>2021-05-20T05:37:25Z</time>
      </trkpt>
      <trkpt lat="45.91377" lon="6.51058">
        <ele>2264</ele>
        <time>2021-05-20T05:37:26Z</time>
      </trkpt>
      <trkpt lat="45.91377" lon="6.51058">
        <ele>2265</ele>
        <time>2021-05-20T05:37:27Z</time>
      </trkpt>
      <trkpt lat="45.91377" lon="6.51058">
        <ele>2265</ele>
        <time>2021-05-20T05:37:28Z</time>
      </trkpt>
      <trkpt lat="45.91377" lon="6.51058">
        <ele>2265</ele>
        <time>2021-05-20T05:37:29Z</time>
      </trkpt>
      <trkpt lat="45.91377" lon="6.51058">
        <ele>2265</ele>
        <time>2021-05-20T05:37:30Z</time>
      </trkpt>
      <trkpt lat="45.91377" lon="6.51058">
        <ele>2265</ele>
        <time>2021-05-20T05:37:31Z</time>
      </trkpt>
      <trkpt lat="45.91377" lon="6.51058">
        <ele>2265</ele>
        <time>2021-05-20T05:37:32Z</time>
      </trkpt>
      <trkpt lat="45.91377" lon="6.51058">
        <ele>2266</ele>
        <time>2021-05-20T05:37:33Z</time>
      </trkpt>
      <trkpt lat="45.91377" lon="6.51058">
        <ele>2266</ele>
        <time>2021-05-20T05:37:34Z</time>
      </trkpt>
      <trkpt lat="45.91377" lon="6.51058">
        <ele>2266</ele>
        <time>2021-05-20T05:37:35Z</time>
      </trkpt>
      <trkpt lat="45.91379" lon="6.51062">
        <ele>2266</ele>
        <time>2021-05-20T05:37:36Z</time>
      </trkpt>
      <trkpt lat="45.91379" lon="6.51062">
        <ele>2266</ele>
        <time>2021-05-20T05:37:37Z</time>
      </trkpt>
      <trkpt lat="45.91379" lon="6.51062">
        <ele>2267</ele>
        <time>2021-05-20T05:37:38Z</time>
      </trkpt>
      <trkpt lat="45.91379" lon="6.51062">
        <ele>2267</ele>
        <time>2021-05-20T05:37:39Z</time>
      </trkpt>
      <trkpt lat="45.91379" lon="6.51062">
        <ele>2267</ele>
        <time>2021-05-20T05:37:40Z</time>
      </trkpt>
      <trkpt lat="45.91383" lon="6.51063">
        <ele>2267</ele>
        <time>2021-05-20T05:37:41Z</time>
      </trkpt>
      <trkpt lat="45.91383" lon="6.51063">
        <ele>2267</ele>
        <time>2021-05-20T05:37:42Z</time>
      </trkpt>
      <trkpt lat="45.91383" lon="6.51063">
        <ele>2268</ele>
        <time>2021-05-20T05:37:43Z</time>
      </trkpt>
      <trkpt lat="45.91384" lon="6.51063">
        <ele>2268</ele>
        <time>2021-05-20T05:37:44Z</time>
      </trkpt>
      <trkpt lat="45.91385" lon="6.51063">
        <ele>2268</ele>
        <time>2021-05-20T05:37:45Z</time>
      </trkpt>
      <trkpt lat="45.91386" lon="6.51063">
        <ele>2268</ele>
        <time>2021-05-20T05:37:46Z</time>
      </trkpt>
      <trkpt lat="45.91386" lon="6.51063">
        <ele>2268</ele>
        <time>2021-05-20T05:37:47Z</time>
      </trkpt>
      <trkpt lat="45.91386" lon="6.51063">
        <ele>2268</ele>
        <time>2021-05-20T05:37:48Z</time>
      </trkpt>
      <trkpt lat="45.91386" lon="6.51063">
        <ele>2269</ele>
        <time>2021-05-20T05:37:49Z</time>
      </trkpt>
      <trkpt lat="45.91386" lon="6.51063">
        <ele>2269</ele>
        <time>2021-05-20T05:37:50Z</time>
      </trkpt>
      <trkpt lat="45.9139" lon="6.51064">
        <ele>2269</ele>
        <time>2021-05-20T05:37:51Z</time>
      </trkpt>
      <trkpt lat="45.9139" lon="6.51064">
        <ele>2270</ele>
        <time>2021-05-20T05:37:52Z</time>
      </trkpt>
      <trkpt lat="45.9139" lon="6.51064">
        <ele>2270</ele>
        <time>2021-05-20T05:37:53Z</time>
      </trkpt>
      <trkpt lat="45.9139" lon="6.51064">
        <ele>2270</ele>
        <time>2021-05-20T05:37:54Z</time>
      </trkpt>
      <trkpt lat="45.9139" lon="6.51064">
        <ele>2270</ele>
        <time>2021-05-20T05:37:55Z</time>
      </trkpt>
      <trkpt lat="45.91393" lon="6.51063">
        <ele>2270</ele>
        <time>2021-05-20T05:37:56Z</time>
      </trkpt>
      <trkpt lat="45.91393" lon="6.51063">
        <ele>2270</ele>
        <time>2021-05-20T05:37:57Z</time>
      </trkpt>
      <trkpt lat="45.91393" lon="6.51063">
        <ele>2270</ele>
        <time>2021-05-20T05:37:58Z</time>
      </trkpt>
      <trkpt lat="45.91393" lon="6.51063">
        <ele>2271</ele>
        <time>2021-05-20T05:37:59Z</time>
      </trkpt>
      <trkpt lat="45.91393" lon="6.51063">
        <ele>2271</ele>
        <time>2021-05-20T05:38:00Z</time>
      </trkpt>
      <trkpt lat="45.91397" lon="6.51063">
        <ele>2271</ele>
        <time>2021-05-20T05:38:01Z</time>
      </trkpt>
      <trkpt lat="45.91397" lon="6.51063">
        <ele>2271</ele>
        <time>2021-05-20T05:38:02Z</time>
      </trkpt>
      <trkpt lat="45.91397" lon="6.51063">
        <ele>2272</ele>
        <time>2021-05-20T05:38:03Z</time>
      </trkpt>
      <trkpt lat="45.91397" lon="6.51063">
        <ele>2272</ele>
        <time>2021-05-20T05:38:04Z</time>
      </trkpt>
      <trkpt lat="45.91397" lon="6.51063">
        <ele>2272</ele>
        <time>2021-05-20T05:38:05Z</time>
      </trkpt>
      <trkpt lat="45.91401" lon="6.51062">
        <ele>2272</ele>
        <time>2021-05-20T05:38:06Z</time>
      </trkpt>
      <trkpt lat="45.91401" lon="6.51062">
        <ele>2273</ele>
        <time>2021-05-20T05:38:07Z</time>
      </trkpt>
      <trkpt lat="45.91402" lon="6.51062">
        <ele>2273</ele>
        <time>2021-05-20T05:38:08Z</time>
      </trkpt>
      <trkpt lat="45.91402" lon="6.51061">
        <ele>2273</ele>
        <time>2021-05-20T05:38:09Z</time>
      </trkpt>
      <trkpt lat="45.91403" lon="6.51061">
        <ele>2273</ele>
        <time>2021-05-20T05:38:10Z</time>
      </trkpt>
      <trkpt lat="45.91404" lon="6.51061">
        <ele>2273</ele>
        <time>2021-05-20T05:38:11Z</time>
      </trkpt>
      <trkpt lat="45.91405" lon="6.51061">
        <ele>2273</ele>
        <time>2021-05-20T05:38:12Z</time>
      </trkpt>
      <trkpt lat="45.91405" lon="6.5106">
        <ele>2274</ele>
        <time>2021-05-20T05:38:13Z</time>
      </trkpt>
      <trkpt lat="45.91406" lon="6.5106">
        <ele>2274</ele>
        <time>2021-05-20T05:38:14Z</time>
      </trkpt>
      <trkpt lat="45.91407" lon="6.5106">
        <ele>2274</ele>
        <time>2021-05-20T05:38:15Z</time>
      </trkpt>
      <trkpt lat="45.91408" lon="6.5106">
        <ele>2275</ele>
        <time>2021-05-20T05:38:16Z</time>
      </trkpt>
      <trkpt lat="45.91409" lon="6.5106">
        <ele>2275</ele>
        <time>2021-05-20T05:38:17Z</time>
      </trkpt>
      <trkpt lat="45.91409" lon="6.5106">
        <ele>2275</ele>
        <time>2021-05-20T05:38:18Z</time>
      </trkpt>
      <trkpt lat="45.91409" lon="6.5106">
        <ele>2276</ele>
        <time>2021-05-20T05:38:19Z</time>
      </trkpt>
      <trkpt lat="45.91409" lon="6.5106">
        <ele>2276</ele>
        <time>2021-05-20T05:38:20Z</time>
      </trkpt>
      <trkpt lat="45.91413" lon="6.51059">
        <ele>2276</ele>
        <time>2021-05-20T05:38:21Z</time>
      </trkpt>
      <trkpt lat="45.91413" lon="6.51059">
        <ele>2277</ele>
        <time>2021-05-20T05:38:22Z</time>
      </trkpt>
      <trkpt lat="45.91414" lon="6.51059">
        <ele>2277</ele>
        <time>2021-05-20T05:38:23Z</time>
      </trkpt>
      <trkpt lat="45.91414" lon="6.51059">
        <ele>2277</ele>
        <time>2021-05-20T05:38:24Z</time>
      </trkpt>
      <trkpt lat="45.91415" lon="6.51059">
        <ele>2277</ele>
        <time>2021-05-20T05:38:25Z</time>
      </trkpt>
      <trkpt lat="45.91416" lon="6.51059">
        <ele>2278</ele>
        <time>2021-05-20T05:38:26Z</time>
      </trkpt>
      <trkpt lat="45.91417" lon="6.51059">
        <ele>2278</ele>
        <time>2021-05-20T05:38:27Z</time>
      </trkpt>
      <trkpt lat="45.91417" lon="6.51059">
        <ele>2278</ele>
        <time>2021-05-20T05:38:28Z</time>
      </trkpt>
      <trkpt lat="45.91417" lon="6.51059">
        <ele>2278</ele>
        <time>2021-05-20T05:38:29Z</time>
      </trkpt>
      <trkpt lat="45.91417" lon="6.51059">
        <ele>2278</ele>
        <time>2021-05-20T05:38:30Z</time>
      </trkpt>
      <trkpt lat="45.9142" lon="6.51059">
        <ele>2278</ele>
        <time>2021-05-20T05:38:31Z</time>
      </trkpt>
      <trkpt lat="45.9142" lon="6.51059">
        <ele>2278</ele>
        <time>2021-05-20T05:38:32Z</time>
      </trkpt>
      <trkpt lat="45.91421" lon="6.51059">
        <ele>2278</ele>
        <time>2021-05-20T05:38:33Z</time>
      </trkpt>
      <trkpt lat="45.91422" lon="6.51058">
        <ele>2279</ele>
        <time>2021-05-20T05:38:34Z</time>
      </trkpt>
      <trkpt lat="45.91423" lon="6.51058">
        <ele>2279</ele>
        <time>2021-05-20T05:38:35Z</time>
      </trkpt>
      <trkpt lat="45.91424" lon="6.51058">
        <ele>2279</ele>
        <time>2021-05-20T05:38:36Z</time>
      </trkpt>
      <trkpt lat="45.91424" lon="6.51058">
        <ele>2280</ele>
        <time>2021-05-20T05:38:37Z</time>
      </trkpt>
      <trkpt lat="45.91424" lon="6.51058">
        <ele>2280</ele>
        <time>2021-05-20T05:38:38Z</time>
      </trkpt>
      <trkpt lat="45.91424" lon="6.51058">
        <ele>2280</ele>
        <time>2021-05-20T05:38:39Z</time>
      </trkpt>
      <trkpt lat="45.91428" lon="6.51057">
        <ele>2280</ele>
        <time>2021-05-20T05:38:40Z</time>
      </trkpt>
      <trkpt lat="45.91428" lon="6.51057">
        <ele>2280</ele>
        <time>2021-05-20T05:38:41Z</time>
      </trkpt>
      <trkpt lat="45.91428" lon="6.51057">
        <ele>2280</ele>
        <time>2021-05-20T05:38:42Z</time>
      </trkpt>
      <trkpt lat="45.91428" lon="6.51057">
        <ele>2280</ele>
        <time>2021-05-20T05:38:43Z</time>
      </trkpt>
      <trkpt lat="45.91432" lon="6.51057">
        <ele>2280</ele>
        <time>2021-05-20T05:38:44Z</time>
      </trkpt>
      <trkpt lat="45.91432" lon="6.51057">
        <ele>2281</ele>
        <time>2021-05-20T05:38:45Z</time>
      </trkpt>
      <trkpt lat="45.91433" lon="6.51057">
        <ele>2281</ele>
        <time>2021-05-20T05:38:46Z</time>
      </trkpt>
      <trkpt lat="45.91434" lon="6.51057">
        <ele>2281</ele>
        <time>2021-05-20T05:38:47Z</time>
      </trkpt>
      <trkpt lat="45.91435" lon="6.51057">
        <ele>2281</ele>
        <time>2021-05-20T05:38:48Z</time>
      </trkpt>
      <trkpt lat="45.91436" lon="6.51056">
        <ele>2282</ele>
        <time>2021-05-20T05:38:49Z</time>
      </trkpt>
      <trkpt lat="45.91436" lon="6.51056">
        <ele>2282</ele>
        <time>2021-05-20T05:38:50Z</time>
      </trkpt>
      <trkpt lat="45.91436" lon="6.51056">
        <ele>2282</ele>
        <time>2021-05-20T05:38:51Z</time>
      </trkpt>
      <trkpt lat="45.91439" lon="6.51056">
        <ele>2282</ele>
        <time>2021-05-20T05:38:52Z</time>
      </trkpt>
      <trkpt lat="45.91439" lon="6.51056">
        <ele>2284</ele>
        <time>2021-05-20T05:38:53Z</time>
      </trkpt>
      <trkpt lat="45.9144" lon="6.51056">
        <ele>2284</ele>
        <time>2021-05-20T05:38:54Z</time>
      </trkpt>
      <trkpt lat="45.91441" lon="6.51056">
        <ele>2284</ele>
        <time>2021-05-20T05:38:55Z</time>
      </trkpt>
      <trkpt lat="45.91442" lon="6.51056">
        <ele>2284</ele>
        <time>2021-05-20T05:38:56Z</time>
      </trkpt>
      <trkpt lat="45.91442" lon="6.51055">
        <ele>2285</ele>
        <time>2021-05-20T05:38:57Z</time>
      </trkpt>
      <trkpt lat="45.91443" lon="6.51055">
        <ele>2285</ele>
        <time>2021-05-20T05:38:58Z</time>
      </trkpt>
      <trkpt lat="45.91443" lon="6.51055">
        <ele>2285</ele>
        <time>2021-05-20T05:38:59Z</time>
      </trkpt>
      <trkpt lat="45.91443" lon="6.51055">
        <ele>2285</ele>
        <time>2021-05-20T05:39:00Z</time>
      </trkpt>
      <trkpt lat="45.91443" lon="6.51055">
        <ele>2285</ele>
        <time>2021-05-20T05:39:01Z</time>
      </trkpt>
      <trkpt lat="45.91447" lon="6.51055">
        <ele>2286</ele>
        <time>2021-05-20T05:39:02Z</time>
      </trkpt>
      <trkpt lat="45.91447" lon="6.51055">
        <ele>2286</ele>
        <time>2021-05-20T05:39:03Z</time>
      </trkpt>
      <trkpt lat="45.91447" lon="6.51055">
        <ele>2286</ele>
        <time>2021-05-20T05:39:04Z</time>
      </trkpt>
      <trkpt lat="45.91447" lon="6.51055">
        <ele>2286</ele>
        <time>2021-05-20T05:39:05Z</time>
      </trkpt>
      <trkpt lat="45.91447" lon="6.51055">
        <ele>2286</ele>
        <time>2021-05-20T05:39:06Z</time>
      </trkpt>
      <trkpt lat="45.91451" lon="6.51056">
        <ele>2286</ele>
        <time>2021-05-20T05:39:07Z</time>
      </trkpt>
      <trkpt lat="45.91451" lon="6.51056">
        <ele>2287</ele>
        <time>2021-05-20T05:39:08Z</time>
      </trkpt>
      <trkpt lat="45.91451" lon="6.51056">
        <ele>2287</ele>
        <time>2021-05-20T05:39:09Z</time>
      </trkpt>
      <trkpt lat="45.9145" lon="6.51057">
        <ele>2288</ele>
        <time>2021-05-20T05:39:10Z</time>
      </trkpt>
      <trkpt lat="45.9145" lon="6.51058">
        <ele>2288</ele>
        <time>2021-05-20T05:39:11Z</time>
      </trkpt>
      <trkpt lat="45.9145" lon="6.51058">
        <ele>2289</ele>
        <time>2021-05-20T05:39:12Z</time>
      </trkpt>
      <trkpt lat="45.9145" lon="6.51059">
        <ele>2289</ele>
        <time>2021-05-20T05:39:13Z</time>
      </trkpt>
      <trkpt lat="45.9145" lon="6.51059">
        <ele>2289</ele>
        <time>2021-05-20T05:39:14Z</time>
      </trkpt>
      <trkpt lat="45.9145" lon="6.51059">
        <ele>2289</ele>
        <time>2021-05-20T05:39:15Z</time>
      </trkpt>
      <trkpt lat="45.9145" lon="6.51059">
        <ele>2289</ele>
        <time>2021-05-20T05:39:16Z</time>
      </trkpt>
      <trkpt lat="45.9145" lon="6.51059">
        <ele>2290</ele>
        <time>2021-05-20T05:39:17Z</time>
      </trkpt>
      <trkpt lat="45.91449" lon="6.51064">
        <ele>2291</ele>
        <time>2021-05-20T05:39:18Z</time>
      </trkpt>
      <trkpt lat="45.91449" lon="6.51064">
        <ele>2291</ele>
        <time>2021-05-20T05:39:19Z</time>
      </trkpt>
      <trkpt lat="45.91449" lon="6.51064">
        <ele>2291</ele>
        <time>2021-05-20T05:39:20Z</time>
      </trkpt>
      <trkpt lat="45.91449" lon="6.51065">
        <ele>2291</ele>
        <time>2021-05-20T05:39:21Z</time>
      </trkpt>
      <trkpt lat="45.91449" lon="6.51066">
        <ele>2291</ele>
        <time>2021-05-20T05:39:22Z</time>
      </trkpt>
      <trkpt lat="45.91448" lon="6.51066">
        <ele>2291</ele>
        <time>2021-05-20T05:39:23Z</time>
      </trkpt>
      <trkpt lat="45.91448" lon="6.51067">
        <ele>2291</ele>
        <time>2021-05-20T05:39:24Z</time>
      </trkpt>
      <trkpt lat="45.91448" lon="6.51068">
        <ele>2291</ele>
        <time>2021-05-20T05:39:25Z</time>
      </trkpt>
      <trkpt lat="45.91448" lon="6.51068">
        <ele>2292</ele>
        <time>2021-05-20T05:39:26Z</time>
      </trkpt>
      <trkpt lat="45.91448" lon="6.51069">
        <ele>2292</ele>
        <time>2021-05-20T05:39:27Z</time>
      </trkpt>
      <trkpt lat="45.91448" lon="6.51069">
        <ele>2292</ele>
        <time>2021-05-20T05:39:28Z</time>
      </trkpt>
      <trkpt lat="45.91448" lon="6.51069">
        <ele>2292</ele>
        <time>2021-05-20T05:39:29Z</time>
      </trkpt>
      <trkpt lat="45.91448" lon="6.51069">
        <ele>2292</ele>
        <time>2021-05-20T05:39:30Z</time>
      </trkpt>
      <trkpt lat="45.91448" lon="6.51069">
        <ele>2293</ele>
        <time>2021-05-20T05:39:31Z</time>
      </trkpt>
      <trkpt lat="45.91447" lon="6.51074">
        <ele>2294</ele>
        <time>2021-05-20T05:39:32Z</time>
      </trkpt>
      <trkpt lat="45.91447" lon="6.51074">
        <ele>2294</ele>
        <time>2021-05-20T05:39:33Z</time>
      </trkpt>
      <trkpt lat="45.91446" lon="6.51075">
        <ele>2294</ele>
        <time>2021-05-20T05:39:34Z</time>
      </trkpt>
      <trkpt lat="45.91446" lon="6.51075">
        <ele>2294</ele>
        <time>2021-05-20T05:39:35Z</time>
      </trkpt>
      <trkpt lat="45.91446" lon="6.51076">
        <ele>2294</ele>
        <time>2021-05-20T05:39:36Z</time>
      </trkpt>
      <trkpt lat="45.91446" lon="6.51077">
        <ele>2294</ele>
        <time>2021-05-20T05:39:37Z</time>
      </trkpt>
      <trkpt lat="45.91445" lon="6.51078">
        <ele>2295</ele>
        <time>2021-05-20T05:39:38Z</time>
      </trkpt>
      <trkpt lat="45.91445" lon="6.51078">
        <ele>2296</ele>
        <time>2021-05-20T05:39:39Z</time>
      </trkpt>
      <trkpt lat="45.91445" lon="6.51079">
        <ele>2296</ele>
        <time>2021-05-20T05:39:40Z</time>
      </trkpt>
      <trkpt lat="45.91445" lon="6.51079">
        <ele>2295</ele>
        <time>2021-05-20T05:39:41Z</time>
      </trkpt>
      <trkpt lat="45.91445" lon="6.51079">
        <ele>2295</ele>
        <time>2021-05-20T05:39:42Z</time>
      </trkpt>
      <trkpt lat="45.91445" lon="6.51079">
        <ele>2296</ele>
        <time>2021-05-20T05:39:43Z</time>
      </trkpt>
      <trkpt lat="45.91445" lon="6.51079">
        <ele>2296</ele>
        <time>2021-05-20T05:39:44Z</time>
      </trkpt>
      <trkpt lat="45.91444" lon="6.51084">
        <ele>2296</ele>
        <time>2021-05-20T05:39:45Z</time>
      </trkpt>
      <trkpt lat="45.91444" lon="6.51084">
        <ele>2297</ele>
        <time>2021-05-20T05:39:46Z</time>
      </trkpt>
      <trkpt lat="45.91444" lon="6.51084">
        <ele>2297</ele>
        <time>2021-05-20T05:39:47Z</time>
      </trkpt>
      <trkpt lat="45.91444" lon="6.51084">
        <ele>2298</ele>
        <time>2021-05-20T05:39:48Z</time>
      </trkpt>
      <trkpt lat="45.91444" lon="6.51084">
        <ele>2298</ele>
        <time>2021-05-20T05:39:49Z</time>
      </trkpt>
      <trkpt lat="45.91442" lon="6.51088">
        <ele>2298</ele>
        <time>2021-05-20T05:39:50Z</time>
      </trkpt>
      <trkpt lat="45.91442" lon="6.51088">
        <ele>2299</ele>
        <time>2021-05-20T05:39:51Z</time>
      </trkpt>
      <trkpt lat="45.91442" lon="6.51088">
        <ele>2299</ele>
        <time>2021-05-20T05:39:52Z</time>
      </trkpt>
      <trkpt lat="45.91442" lon="6.51088">
        <ele>2299</ele>
        <time>2021-05-20T05:39:53Z</time>
      </trkpt>
      <trkpt lat="45.91442" lon="6.51088">
        <ele>2300</ele>
        <time>2021-05-20T05:39:54Z</time>
      </trkpt>
      <trkpt lat="45.91441" lon="6.51093">
        <ele>2300</ele>
        <time>2021-05-20T05:39:55Z</time>
      </trkpt>
      <trkpt lat="45.91441" lon="6.51093">
        <ele>2300</ele>
        <time>2021-05-20T05:39:56Z</time>
      </trkpt>
      <trkpt lat="45.9144" lon="6.51093">
        <ele>2300</ele>
        <time>2021-05-20T05:39:57Z</time>
      </trkpt>
      <trkpt lat="45.9144" lon="6.51094">
        <ele>2300</ele>
        <time>2021-05-20T05:39:58Z</time>
      </trkpt>
      <trkpt lat="45.91439" lon="6.51095">
        <ele>2300</ele>
        <time>2021-05-20T05:39:59Z</time>
      </trkpt>
      <trkpt lat="45.91439" lon="6.51096">
        <ele>2301</ele>
        <time>2021-05-20T05:40:00Z</time>
      </trkpt>
      <trkpt lat="45.91439" lon="6.51097">
        <ele>2301</ele>
        <time>2021-05-20T05:40:01Z</time>
      </trkpt>
      <trkpt lat="45.91439" lon="6.51097">
        <ele>2301</ele>
        <time>2021-05-20T05:40:02Z</time>
      </trkpt>
      <trkpt lat="45.91439" lon="6.51097">
        <ele>2301</ele>
        <time>2021-05-20T05:40:03Z</time>
      </trkpt>
      <trkpt lat="45.91439" lon="6.51097">
        <ele>2301</ele>
        <time>2021-05-20T05:40:04Z</time>
      </trkpt>
      <trkpt lat="45.91437" lon="6.51101">
        <ele>2302</ele>
        <time>2021-05-20T05:40:05Z</time>
      </trkpt>
      <trkpt lat="45.91437" lon="6.51101">
        <ele>2302</ele>
        <time>2021-05-20T05:40:06Z</time>
      </trkpt>
      <trkpt lat="45.91437" lon="6.51101">
        <ele>2302</ele>
        <time>2021-05-20T05:40:07Z</time>
      </trkpt>
      <trkpt lat="45.91437" lon="6.51101">
        <ele>2302</ele>
        <time>2021-05-20T05:40:08Z</time>
      </trkpt>
      <trkpt lat="45.91437" lon="6.51101">
        <ele>2303</ele>
        <time>2021-05-20T05:40:09Z</time>
      </trkpt>
      <trkpt lat="45.91437" lon="6.51101">
        <ele>2303</ele>
        <time>2021-05-20T05:40:10Z</time>
      </trkpt>
      <trkpt lat="45.91435" lon="6.51106">
        <ele>2303</ele>
        <time>2021-05-20T05:40:11Z</time>
      </trkpt>
      <trkpt lat="45.91435" lon="6.51106">
        <ele>2303</ele>
        <time>2021-05-20T05:40:12Z</time>
      </trkpt>
      <trkpt lat="45.91435" lon="6.51106">
        <ele>2303</ele>
        <time>2021-05-20T05:40:13Z</time>
      </trkpt>
      <trkpt lat="45.91435" lon="6.51106">
        <ele>2304</ele>
        <time>2021-05-20T05:40:14Z</time>
      </trkpt>
      <trkpt lat="45.91435" lon="6.51106">
        <ele>2305</ele>
        <time>2021-05-20T05:40:15Z</time>
      </trkpt>
      <trkpt lat="45.91434" lon="6.5111">
        <ele>2305</ele>
        <time>2021-05-20T05:40:16Z</time>
      </trkpt>
      <trkpt lat="45.91434" lon="6.5111">
        <ele>2305</ele>
        <time>2021-05-20T05:40:17Z</time>
      </trkpt>
      <trkpt lat="45.91434" lon="6.5111">
        <ele>2305</ele>
        <time>2021-05-20T05:40:18Z</time>
      </trkpt>
      <trkpt lat="45.91435" lon="6.5111">
        <ele>2305</ele>
        <time>2021-05-20T05:40:19Z</time>
      </trkpt>
      <trkpt lat="45.91435" lon="6.5111">
        <ele>2305</ele>
        <time>2021-05-20T05:40:20Z</time>
      </trkpt>
      <trkpt lat="45.91436" lon="6.5111">
        <ele>2305</ele>
        <time>2021-05-20T05:40:21Z</time>
      </trkpt>
      <trkpt lat="45.91436" lon="6.5111">
        <ele>2305</ele>
        <time>2021-05-20T05:40:22Z</time>
      </trkpt>
      <trkpt lat="45.91437" lon="6.5111">
        <ele>2306</ele>
        <time>2021-05-20T05:40:23Z</time>
      </trkpt>
      <trkpt lat="45.91437" lon="6.5111">
        <ele>2306</ele>
        <time>2021-05-20T05:40:24Z</time>
      </trkpt>
      <trkpt lat="45.91438" lon="6.5111">
        <ele>2306</ele>
        <time>2021-05-20T05:40:25Z</time>
      </trkpt>
      <trkpt lat="45.91438" lon="6.5111">
        <ele>2307</ele>
        <time>2021-05-20T05:40:26Z</time>
      </trkpt>
      <trkpt lat="45.91438" lon="6.5111">
        <ele>2307</ele>
        <time>2021-05-20T05:40:27Z</time>
      </trkpt>
      <trkpt lat="45.91438" lon="6.5111">
        <ele>2307</ele>
        <time>2021-05-20T05:40:28Z</time>
      </trkpt>
      <trkpt lat="45.91441" lon="6.5111">
        <ele>2307</ele>
        <time>2021-05-20T05:40:29Z</time>
      </trkpt>
      <trkpt lat="45.91441" lon="6.5111">
        <ele>2307</ele>
        <time>2021-05-20T05:40:30Z</time>
      </trkpt>
      <trkpt lat="45.91442" lon="6.5111">
        <ele>2307</ele>
        <time>2021-05-20T05:40:31Z</time>
      </trkpt>
      <trkpt lat="45.91443" lon="6.5111">
        <ele>2308</ele>
        <time>2021-05-20T05:40:32Z</time>
      </trkpt>
      <trkpt lat="45.91444" lon="6.5111">
        <ele>2308</ele>
        <time>2021-05-20T05:40:33Z</time>
      </trkpt>
      <trkpt lat="45.91444" lon="6.5111">
        <ele>2308</ele>
        <time>2021-05-20T05:40:34Z</time>
      </trkpt>
      <trkpt lat="45.91445" lon="6.51109">
        <ele>2308</ele>
        <time>2021-05-20T05:40:35Z</time>
      </trkpt>
      <trkpt lat="45.91445" lon="6.51109">
        <ele>2308</ele>
        <time>2021-05-20T05:40:36Z</time>
      </trkpt>
      <trkpt lat="45.91445" lon="6.51109">
        <ele>2308</ele>
        <time>2021-05-20T05:40:37Z</time>
      </trkpt>
      <trkpt lat="45.91445" lon="6.51109">
        <ele>2308</ele>
        <time>2021-05-20T05:40:38Z</time>
      </trkpt>
      <trkpt lat="45.91449" lon="6.51109">
        <ele>2310</ele>
        <time>2021-05-20T05:40:39Z</time>
      </trkpt>
      <trkpt lat="45.91449" lon="6.51109">
        <ele>2310</ele>
        <time>2021-05-20T05:40:40Z</time>
      </trkpt>
      <trkpt lat="45.9145" lon="6.51108">
        <ele>2310</ele>
        <time>2021-05-20T05:40:41Z</time>
      </trkpt>
      <trkpt lat="45.91451" lon="6.51108">
        <ele>2310</ele>
        <time>2021-05-20T05:40:42Z</time>
      </trkpt>
      <trkpt lat="45.91452" lon="6.51108">
        <ele>2311</ele>
        <time>2021-05-20T05:40:43Z</time>
      </trkpt>
      <trkpt lat="45.91452" lon="6.51108">
        <ele>2311</ele>
        <time>2021-05-20T05:40:44Z</time>
      </trkpt>
      <trkpt lat="45.91453" lon="6.51108">
        <ele>2311</ele>
        <time>2021-05-20T05:40:45Z</time>
      </trkpt>
      <trkpt lat="45.91454" lon="6.51107">
        <ele>2311</ele>
        <time>2021-05-20T05:40:46Z</time>
      </trkpt>
      <trkpt lat="45.91455" lon="6.51107">
        <ele>2311</ele>
        <time>2021-05-20T05:40:47Z</time>
      </trkpt>
      <trkpt lat="45.91456" lon="6.51107">
        <ele>2312</ele>
        <time>2021-05-20T05:40:48Z</time>
      </trkpt>
      <trkpt lat="45.91457" lon="6.51107">
        <ele>2312</ele>
        <time>2021-05-20T05:40:49Z</time>
      </trkpt>
      <trkpt lat="45.91458" lon="6.51107">
        <ele>2312</ele>
        <time>2021-05-20T05:40:50Z</time>
      </trkpt>
      <trkpt lat="45.91458" lon="6.51107">
        <ele>2312</ele>
        <time>2021-05-20T05:40:51Z</time>
      </trkpt>
      <trkpt lat="45.91459" lon="6.51107">
        <ele>2312</ele>
        <time>2021-05-20T05:40:52Z</time>
      </trkpt>
      <trkpt lat="45.9146" lon="6.51107">
        <ele>2312</ele>
        <time>2021-05-20T05:40:53Z</time>
      </trkpt>
      <trkpt lat="45.91461" lon="6.51107">
        <ele>2312</ele>
        <time>2021-05-20T05:40:54Z</time>
      </trkpt>
      <trkpt lat="45.91462" lon="6.51107">
        <ele>2313</ele>
        <time>2021-05-20T05:40:55Z</time>
      </trkpt>
      <trkpt lat="45.91462" lon="6.51107">
        <ele>2313</ele>
        <time>2021-05-20T05:40:56Z</time>
      </trkpt>
      <trkpt lat="45.91462" lon="6.51107">
        <ele>2314</ele>
        <time>2021-05-20T05:40:57Z</time>
      </trkpt>
      <trkpt lat="45.91462" lon="6.51107">
        <ele>2314</ele>
        <time>2021-05-20T05:40:58Z</time>
      </trkpt>
      <trkpt lat="45.9146" lon="6.51111">
        <ele>2314</ele>
        <time>2021-05-20T05:40:59Z</time>
      </trkpt>
      <trkpt lat="45.9146" lon="6.51111">
        <ele>2315</ele>
        <time>2021-05-20T05:41:00Z</time>
      </trkpt>
      <trkpt lat="45.9146" lon="6.51111">
        <ele>2315</ele>
        <time>2021-05-20T05:41:01Z</time>
      </trkpt>
      <trkpt lat="45.9146" lon="6.51111">
        <ele>2315</ele>
        <time>2021-05-20T05:41:02Z</time>
      </trkpt>
      <trkpt lat="45.9146" lon="6.51111">
        <ele>2315</ele>
        <time>2021-05-20T05:41:03Z</time>
      </trkpt>
      <trkpt lat="45.9146" lon="6.51111">
        <ele>2315</ele>
        <time>2021-05-20T05:41:04Z</time>
      </trkpt>
      <trkpt lat="45.91458" lon="6.51116">
        <ele>2315</ele>
        <time>2021-05-20T05:41:05Z</time>
      </trkpt>
      <trkpt lat="45.91458" lon="6.51116">
        <ele>2315</ele>
        <time>2021-05-20T05:41:06Z</time>
      </trkpt>
      <trkpt lat="45.91458" lon="6.51116">
        <ele>2315</ele>
        <time>2021-05-20T05:41:07Z</time>
      </trkpt>
      <trkpt lat="45.91458" lon="6.51116">
        <ele>2316</ele>
        <time>2021-05-20T05:41:08Z</time>
      </trkpt>
      <trkpt lat="45.91458" lon="6.51116">
        <ele>2316</ele>
        <time>2021-05-20T05:41:09Z</time>
      </trkpt>
      <trkpt lat="45.91456" lon="6.5112">
        <ele>2316</ele>
        <time>2021-05-20T05:41:10Z</time>
      </trkpt>
      <trkpt lat="45.91456" lon="6.5112">
        <ele>2316</ele>
        <time>2021-05-20T05:41:11Z</time>
      </trkpt>
      <trkpt lat="45.91455" lon="6.51121">
        <ele>2316</ele>
        <time>2021-05-20T05:41:12Z</time>
      </trkpt>
      <trkpt lat="45.91455" lon="6.51122">
        <ele>2317</ele>
        <time>2021-05-20T05:41:13Z</time>
      </trkpt>
      <trkpt lat="45.91454" lon="6.51123">
        <ele>2317</ele>
        <time>2021-05-20T05:41:14Z</time>
      </trkpt>
      <trkpt lat="45.91454" lon="6.51123">
        <ele>2317</ele>
        <time>2021-05-20T05:41:15Z</time>
      </trkpt>
      <trkpt lat="45.91453" lon="6.51124">
        <ele>2318</ele>
        <time>2021-05-20T05:41:16Z</time>
      </trkpt>
      <trkpt lat="45.91453" lon="6.51124">
        <ele>2318</ele>
        <time>2021-05-20T05:41:17Z</time>
      </trkpt>
      <trkpt lat="45.91453" lon="6.51124">
        <ele>2318</ele>
        <time>2021-05-20T05:41:18Z</time>
      </trkpt>
      <trkpt lat="45.91453" lon="6.51124">
        <ele>2318</ele>
        <time>2021-05-20T05:41:19Z</time>
      </trkpt>
      <trkpt lat="45.9145" lon="6.51128">
        <ele>2318</ele>
        <time>2021-05-20T05:41:20Z</time>
      </trkpt>
      <trkpt lat="45.9145" lon="6.51128">
        <ele>2318</ele>
        <time>2021-05-20T05:41:21Z</time>
      </trkpt>
      <trkpt lat="45.9145" lon="6.51129">
        <ele>2319</ele>
        <time>2021-05-20T05:41:22Z</time>
      </trkpt>
      <trkpt lat="45.91449" lon="6.5113">
        <ele>2319</ele>
        <time>2021-05-20T05:41:23Z</time>
      </trkpt>
      <trkpt lat="45.91449" lon="6.51131">
        <ele>2319</ele>
        <time>2021-05-20T05:41:24Z</time>
      </trkpt>
      <trkpt lat="45.91449" lon="6.51132">
        <ele>2319</ele>
        <time>2021-05-20T05:41:25Z</time>
      </trkpt>
      <trkpt lat="45.91448" lon="6.51133">
        <ele>2319</ele>
        <time>2021-05-20T05:41:26Z</time>
      </trkpt>
      <trkpt lat="45.91448" lon="6.51134">
        <ele>2320</ele>
        <time>2021-05-20T05:41:27Z</time>
      </trkpt>
      <trkpt lat="45.91447" lon="6.51135">
        <ele>2320</ele>
        <time>2021-05-20T05:41:28Z</time>
      </trkpt>
      <trkpt lat="45.91447" lon="6.51135">
        <ele>2320</ele>
        <time>2021-05-20T05:41:29Z</time>
      </trkpt>
      <trkpt lat="45.91446" lon="6.51136">
        <ele>2321</ele>
        <time>2021-05-20T05:41:30Z</time>
      </trkpt>
      <trkpt lat="45.91446" lon="6.51137">
        <ele>2321</ele>
        <time>2021-05-20T05:41:31Z</time>
      </trkpt>
      <trkpt lat="45.91446" lon="6.51137">
        <ele>2321</ele>
        <time>2021-05-20T05:41:32Z</time>
      </trkpt>
      <trkpt lat="45.91446" lon="6.51137">
        <ele>2321</ele>
        <time>2021-05-20T05:41:33Z</time>
      </trkpt>
      <trkpt lat="45.91446" lon="6.51137">
        <ele>2321</ele>
        <time>2021-05-20T05:41:34Z</time>
      </trkpt>
      <trkpt lat="45.91446" lon="6.51137">
        <ele>2322</ele>
        <time>2021-05-20T05:41:35Z</time>
      </trkpt>
      <trkpt lat="45.91446" lon="6.51137">
        <ele>2322</ele>
        <time>2021-05-20T05:41:36Z</time>
      </trkpt>
      <trkpt lat="45.91446" lon="6.51137">
        <ele>2322</ele>
        <time>2021-05-20T05:41:37Z</time>
      </trkpt>
      <trkpt lat="45.91444" lon="6.51141">
        <ele>2323</ele>
        <time>2021-05-20T05:41:38Z</time>
      </trkpt>
      <trkpt lat="45.91444" lon="6.51141">
        <ele>2323</ele>
        <time>2021-05-20T05:41:39Z</time>
      </trkpt>
      <trkpt lat="45.91444" lon="6.51141">
        <ele>2323</ele>
        <time>2021-05-20T05:41:40Z</time>
      </trkpt>
      <trkpt lat="45.91444" lon="6.51141">
        <ele>2323</ele>
        <time>2021-05-20T05:41:41Z</time>
      </trkpt>
      <trkpt lat="45.91444" lon="6.51141">
        <ele>2323</ele>
        <time>2021-05-20T05:41:42Z</time>
      </trkpt>
      <trkpt lat="45.91444" lon="6.51141">
        <ele>2323</ele>
        <time>2021-05-20T05:41:43Z</time>
      </trkpt>
      <trkpt lat="45.91444" lon="6.51141">
        <ele>2323</ele>
        <time>2021-05-20T05:41:44Z</time>
      </trkpt>
      <trkpt lat="45.91444" lon="6.51141">
        <ele>2323</ele>
        <time>2021-05-20T05:41:45Z</time>
      </trkpt>
      <trkpt lat="45.91444" lon="6.51141">
        <ele>2323</ele>
        <time>2021-05-20T05:41:46Z</time>
      </trkpt>
      <trkpt lat="45.91448" lon="6.5114">
        <ele>2323</ele>
        <time>2021-05-20T05:41:47Z</time>
      </trkpt>
      <trkpt lat="45.91448" lon="6.5114">
        <ele>2323</ele>
        <time>2021-05-20T05:41:48Z</time>
      </trkpt>
      <trkpt lat="45.91449" lon="6.5114">
        <ele>2323</ele>
        <time>2021-05-20T05:41:49Z</time>
      </trkpt>
      <trkpt lat="45.91449" lon="6.5114">
        <ele>2323</ele>
        <time>2021-05-20T05:41:50Z</time>
      </trkpt>
      <trkpt lat="45.9145" lon="6.5114">
        <ele>2323</ele>
        <time>2021-05-20T05:41:51Z</time>
      </trkpt>
      <trkpt lat="45.91451" lon="6.5114">
        <ele>2323</ele>
        <time>2021-05-20T05:41:52Z</time>
      </trkpt>
      <trkpt lat="45.91452" lon="6.5114">
        <ele>2323</ele>
        <time>2021-05-20T05:41:53Z</time>
      </trkpt>
      <trkpt lat="45.91452" lon="6.5114">
        <ele>2323</ele>
        <time>2021-05-20T05:41:54Z</time>
      </trkpt>
      <trkpt lat="45.91452" lon="6.5114">
        <ele>2323</ele>
        <time>2021-05-20T05:41:55Z</time>
      </trkpt>
      <trkpt lat="45.91452" lon="6.5114">
        <ele>2323</ele>
        <time>2021-05-20T05:41:56Z</time>
      </trkpt>
      <trkpt lat="45.91452" lon="6.5114">
        <ele>2324</ele>
        <time>2021-05-20T05:41:57Z</time>
      </trkpt>
      <trkpt lat="45.91456" lon="6.5114">
        <ele>2324</ele>
        <time>2021-05-20T05:41:58Z</time>
      </trkpt>
      <trkpt lat="45.91456" lon="6.5114">
        <ele>2324</ele>
        <time>2021-05-20T05:41:59Z</time>
      </trkpt>
      <trkpt lat="45.91456" lon="6.5114">
        <ele>2324</ele>
        <time>2021-05-20T05:42:00Z</time>
      </trkpt>
      <trkpt lat="45.91457" lon="6.51139">
        <ele>2325</ele>
        <time>2021-05-20T05:42:01Z</time>
      </trkpt>
      <trkpt lat="45.91458" lon="6.51139">
        <ele>2325</ele>
        <time>2021-05-20T05:42:02Z</time>
      </trkpt>
      <trkpt lat="45.91459" lon="6.51139">
        <ele>2325</ele>
        <time>2021-05-20T05:42:03Z</time>
      </trkpt>
      <trkpt lat="45.91459" lon="6.51139">
        <ele>2325</ele>
        <time>2021-05-20T05:42:04Z</time>
      </trkpt>
      <trkpt lat="45.91459" lon="6.51139">
        <ele>2325</ele>
        <time>2021-05-20T05:42:05Z</time>
      </trkpt>
      <trkpt lat="45.91459" lon="6.51139">
        <ele>2325</ele>
        <time>2021-05-20T05:42:06Z</time>
      </trkpt>
      <trkpt lat="45.91459" lon="6.51139">
        <ele>2326</ele>
        <time>2021-05-20T05:42:07Z</time>
      </trkpt>
      <trkpt lat="45.91463" lon="6.51138">
        <ele>2326</ele>
        <time>2021-05-20T05:42:08Z</time>
      </trkpt>
      <trkpt lat="45.91463" lon="6.51138">
        <ele>2326</ele>
        <time>2021-05-20T05:42:09Z</time>
      </trkpt>
      <trkpt lat="45.91463" lon="6.51138">
        <ele>2326</ele>
        <time>2021-05-20T05:42:10Z</time>
      </trkpt>
      <trkpt lat="45.91463" lon="6.51138">
        <ele>2327</ele>
        <time>2021-05-20T05:42:11Z</time>
      </trkpt>
      <trkpt lat="45.91466" lon="6.51137">
        <ele>2328</ele>
        <time>2021-05-20T05:42:12Z</time>
      </trkpt>
      <trkpt lat="45.91466" lon="6.51137">
        <ele>2328</ele>
        <time>2021-05-20T05:42:13Z</time>
      </trkpt>
      <trkpt lat="45.91466" lon="6.51137">
        <ele>2327</ele>
        <time>2021-05-20T05:42:14Z</time>
      </trkpt>
      <trkpt lat="45.91466" lon="6.51137">
        <ele>2327</ele>
        <time>2021-05-20T05:42:15Z</time>
      </trkpt>
      <trkpt lat="45.91466" lon="6.51137">
        <ele>2328</ele>
        <time>2021-05-20T05:42:16Z</time>
      </trkpt>
      <trkpt lat="45.9147" lon="6.51136">
        <ele>2328</ele>
        <time>2021-05-20T05:42:17Z</time>
      </trkpt>
      <trkpt lat="45.9147" lon="6.51136">
        <ele>2328</ele>
        <time>2021-05-20T05:42:18Z</time>
      </trkpt>
      <trkpt lat="45.9147" lon="6.51136">
        <ele>2328</ele>
        <time>2021-05-20T05:42:19Z</time>
      </trkpt>
      <trkpt lat="45.9147" lon="6.51136">
        <ele>2328</ele>
        <time>2021-05-20T05:42:20Z</time>
      </trkpt>
      <trkpt lat="45.9147" lon="6.51136">
        <ele>2329</ele>
        <time>2021-05-20T05:42:21Z</time>
      </trkpt>
      <trkpt lat="45.91473" lon="6.51135">
        <ele>2329</ele>
        <time>2021-05-20T05:42:22Z</time>
      </trkpt>
      <trkpt lat="45.91473" lon="6.51135">
        <ele>2329</ele>
        <time>2021-05-20T05:42:23Z</time>
      </trkpt>
      <trkpt lat="45.91473" lon="6.51135">
        <ele>2330</ele>
        <time>2021-05-20T05:42:24Z</time>
      </trkpt>
      <trkpt lat="45.91473" lon="6.51135">
        <ele>2330</ele>
        <time>2021-05-20T05:42:25Z</time>
      </trkpt>
      <trkpt lat="45.91473" lon="6.51135">
        <ele>2330</ele>
        <time>2021-05-20T05:42:26Z</time>
      </trkpt>
      <trkpt lat="45.91473" lon="6.51135">
        <ele>2330</ele>
        <time>2021-05-20T05:42:27Z</time>
      </trkpt>
      <trkpt lat="45.91477" lon="6.51135">
        <ele>2330</ele>
        <time>2021-05-20T05:42:28Z</time>
      </trkpt>
      <trkpt lat="45.91477" lon="6.51135">
        <ele>2331</ele>
        <time>2021-05-20T05:42:29Z</time>
      </trkpt>
      <trkpt lat="45.91477" lon="6.51135">
        <ele>2331</ele>
        <time>2021-05-20T05:42:30Z</time>
      </trkpt>
      <trkpt lat="45.91477" lon="6.51135">
        <ele>2331</ele>
        <time>2021-05-20T05:42:31Z</time>
      </trkpt>
      <trkpt lat="45.91477" lon="6.51135">
        <ele>2331</ele>
        <time>2021-05-20T05:42:32Z</time>
      </trkpt>
      <trkpt lat="45.9148" lon="6.51134">
        <ele>2331</ele>
        <time>2021-05-20T05:42:33Z</time>
      </trkpt>
      <trkpt lat="45.9148" lon="6.51134">
        <ele>2331</ele>
        <time>2021-05-20T05:42:34Z</time>
      </trkpt>
      <trkpt lat="45.91481" lon="6.51134">
        <ele>2331</ele>
        <time>2021-05-20T05:42:35Z</time>
      </trkpt>
      <trkpt lat="45.91482" lon="6.51134">
        <ele>2332</ele>
        <time>2021-05-20T05:42:36Z</time>
      </trkpt>
      <trkpt lat="45.91483" lon="6.51133">
        <ele>2332</ele>
        <time>2021-05-20T05:42:37Z</time>
      </trkpt>
      <trkpt lat="45.91483" lon="6.51133">
        <ele>2332</ele>
        <time>2021-05-20T05:42:38Z</time>
      </trkpt>
      <trkpt lat="45.91484" lon="6.51132">
        <ele>2332</ele>
        <time>2021-05-20T05:42:39Z</time>
      </trkpt>
      <trkpt lat="45.91484" lon="6.51132">
        <ele>2332</ele>
        <time>2021-05-20T05:42:40Z</time>
      </trkpt>
      <trkpt lat="45.91484" lon="6.51132">
        <ele>2332</ele>
        <time>2021-05-20T05:42:41Z</time>
      </trkpt>
      <trkpt lat="45.91484" lon="6.51132">
        <ele>2332</ele>
        <time>2021-05-20T05:42:42Z</time>
      </trkpt>
      <trkpt lat="45.91484" lon="6.51132">
        <ele>2332</ele>
        <time>2021-05-20T05:42:43Z</time>
      </trkpt>
      <trkpt lat="45.91484" lon="6.51132">
        <ele>2333</ele>
        <time>2021-05-20T05:42:44Z</time>
      </trkpt>
      <trkpt lat="45.91484" lon="6.51132">
        <ele>2334</ele>
        <time>2021-05-20T05:42:45Z</time>
      </trkpt>
      <trkpt lat="45.91484" lon="6.51132">
        <ele>2334</ele>
        <time>2021-05-20T05:42:46Z</time>
      </trkpt>
      <trkpt lat="45.91484" lon="6.51132">
        <ele>2334</ele>
        <time>2021-05-20T05:42:47Z</time>
      </trkpt>
      <trkpt lat="45.91483" lon="6.51137">
        <ele>2334</ele>
        <time>2021-05-20T05:42:48Z</time>
      </trkpt>
      <trkpt lat="45.91483" lon="6.51137">
        <ele>2333</ele>
        <time>2021-05-20T05:42:49Z</time>
      </trkpt>
      <trkpt lat="45.91483" lon="6.51138">
        <ele>2334</ele>
        <time>2021-05-20T05:42:50Z</time>
      </trkpt>
      <trkpt lat="45.91482" lon="6.51139">
        <ele>2334</ele>
        <time>2021-05-20T05:42:51Z</time>
      </trkpt>
      <trkpt lat="45.91482" lon="6.5114">
        <ele>2334</ele>
        <time>2021-05-20T05:42:52Z</time>
      </trkpt>
      <trkpt lat="45.91482" lon="6.5114">
        <ele>2336</ele>
        <time>2021-05-20T05:42:53Z</time>
      </trkpt>
      <trkpt lat="45.91481" lon="6.51141">
        <ele>2336</ele>
        <time>2021-05-20T05:42:54Z</time>
      </trkpt>
      <trkpt lat="45.91481" lon="6.51142">
        <ele>2336</ele>
        <time>2021-05-20T05:42:55Z</time>
      </trkpt>
      <trkpt lat="45.91481" lon="6.51142">
        <ele>2336</ele>
        <time>2021-05-20T05:42:56Z</time>
      </trkpt>
      <trkpt lat="45.91481" lon="6.51142">
        <ele>2337</ele>
        <time>2021-05-20T05:42:57Z</time>
      </trkpt>
      <trkpt lat="45.91481" lon="6.51142">
        <ele>2337</ele>
        <time>2021-05-20T05:42:58Z</time>
      </trkpt>
      <trkpt lat="45.91479" lon="6.51146">
        <ele>2337</ele>
        <time>2021-05-20T05:42:59Z</time>
      </trkpt>
      <trkpt lat="45.91479" lon="6.51146">
        <ele>2337</ele>
        <time>2021-05-20T05:43:00Z</time>
      </trkpt>
      <trkpt lat="45.91478" lon="6.51147">
        <ele>2338</ele>
        <time>2021-05-20T05:43:01Z</time>
      </trkpt>
      <trkpt lat="45.91478" lon="6.51148">
        <ele>2338</ele>
        <time>2021-05-20T05:43:02Z</time>
      </trkpt>
      <trkpt lat="45.91478" lon="6.51148">
        <ele>2338</ele>
        <time>2021-05-20T05:43:03Z</time>
      </trkpt>
      <trkpt lat="45.91478" lon="6.51149">
        <ele>2338</ele>
        <time>2021-05-20T05:43:04Z</time>
      </trkpt>
      <trkpt lat="45.91478" lon="6.5115">
        <ele>2338</ele>
        <time>2021-05-20T05:43:05Z</time>
      </trkpt>
      <trkpt lat="45.91477" lon="6.51151">
        <ele>2339</ele>
        <time>2021-05-20T05:43:06Z</time>
      </trkpt>
      <trkpt lat="45.91477" lon="6.51151">
        <ele>2339</ele>
        <time>2021-05-20T05:43:07Z</time>
      </trkpt>
      <trkpt lat="45.91477" lon="6.51151">
        <ele>2339</ele>
        <time>2021-05-20T05:43:08Z</time>
      </trkpt>
      <trkpt lat="45.91477" lon="6.51151">
        <ele>2340</ele>
        <time>2021-05-20T05:43:09Z</time>
      </trkpt>
      <trkpt lat="45.91477" lon="6.51151">
        <ele>2340</ele>
        <time>2021-05-20T05:43:10Z</time>
      </trkpt>
      <trkpt lat="45.91477" lon="6.51151">
        <ele>2340</ele>
        <time>2021-05-20T05:43:11Z</time>
      </trkpt>
      <trkpt lat="45.91475" lon="6.51156">
        <ele>2340</ele>
        <time>2021-05-20T05:43:12Z</time>
      </trkpt>
      <trkpt lat="45.91475" lon="6.51156">
        <ele>2340</ele>
        <time>2021-05-20T05:43:13Z</time>
      </trkpt>
      <trkpt lat="45.91475" lon="6.51157">
        <ele>2340</ele>
        <time>2021-05-20T05:43:14Z</time>
      </trkpt>
      <trkpt lat="45.91474" lon="6.51157">
        <ele>2341</ele>
        <time>2021-05-20T05:43:15Z</time>
      </trkpt>
      <trkpt lat="45.91474" lon="6.51158">
        <ele>2341</ele>
        <time>2021-05-20T05:43:16Z</time>
      </trkpt>
      <trkpt lat="45.91474" lon="6.51159">
        <ele>2342</ele>
        <time>2021-05-20T05:43:17Z</time>
      </trkpt>
      <trkpt lat="45.91473" lon="6.5116">
        <ele>2342</ele>
        <time>2021-05-20T05:43:18Z</time>
      </trkpt>
      <trkpt lat="45.91473" lon="6.5116">
        <ele>2342</ele>
        <time>2021-05-20T05:43:19Z</time>
      </trkpt>
      <trkpt lat="45.91473" lon="6.5116">
        <ele>2342</ele>
        <time>2021-05-20T05:43:20Z</time>
      </trkpt>
      <trkpt lat="45.91473" lon="6.5116">
        <ele>2342</ele>
        <time>2021-05-20T05:43:21Z</time>
      </trkpt>
      <trkpt lat="45.91473" lon="6.5116">
        <ele>2342</ele>
        <time>2021-05-20T05:43:22Z</time>
      </trkpt>
      <trkpt lat="45.91473" lon="6.5116">
        <ele>2343</ele>
        <time>2021-05-20T05:43:23Z</time>
      </trkpt>
      <trkpt lat="45.91473" lon="6.5116">
        <ele>2343</ele>
        <time>2021-05-20T05:43:24Z</time>
      </trkpt>
      <trkpt lat="45.91471" lon="6.51165">
        <ele>2343</ele>
        <time>2021-05-20T05:43:25Z</time>
      </trkpt>
      <trkpt lat="45.91471" lon="6.51165">
        <ele>2343</ele>
        <time>2021-05-20T05:43:26Z</time>
      </trkpt>
      <trkpt lat="45.91471" lon="6.51166">
        <ele>2343</ele>
        <time>2021-05-20T05:43:27Z</time>
      </trkpt>
      <trkpt lat="45.91471" lon="6.51167">
        <ele>2343</ele>
        <time>2021-05-20T05:43:28Z</time>
      </trkpt>
      <trkpt lat="45.9147" lon="6.51168">
        <ele>2343</ele>
        <time>2021-05-20T05:43:29Z</time>
      </trkpt>
      <trkpt lat="45.9147" lon="6.51168">
        <ele>2343</ele>
        <time>2021-05-20T05:43:30Z</time>
      </trkpt>
      <trkpt lat="45.9147" lon="6.51169">
        <ele>2343</ele>
        <time>2021-05-20T05:43:31Z</time>
      </trkpt>
      <trkpt lat="45.91469" lon="6.5117">
        <ele>2344</ele>
        <time>2021-05-20T05:43:32Z</time>
      </trkpt>
      <trkpt lat="45.91469" lon="6.5117">
        <ele>2344</ele>
        <time>2021-05-20T05:43:33Z</time>
      </trkpt>
      <trkpt lat="45.91469" lon="6.5117">
        <ele>2344</ele>
        <time>2021-05-20T05:43:34Z</time>
      </trkpt>
      <trkpt lat="45.91469" lon="6.5117">
        <ele>2344</ele>
        <time>2021-05-20T05:43:35Z</time>
      </trkpt>
      <trkpt lat="45.91469" lon="6.5117">
        <ele>2344</ele>
        <time>2021-05-20T05:43:36Z</time>
      </trkpt>
      <trkpt lat="45.91469" lon="6.5117">
        <ele>2344</ele>
        <time>2021-05-20T05:43:37Z</time>
      </trkpt>
      <trkpt lat="45.91469" lon="6.5117">
        <ele>2345</ele>
        <time>2021-05-20T05:43:38Z</time>
      </trkpt>
      <trkpt lat="45.91469" lon="6.5117">
        <ele>2345</ele>
        <time>2021-05-20T05:43:39Z</time>
      </trkpt>
      <trkpt lat="45.91469" lon="6.5117">
        <ele>2345</ele>
        <time>2021-05-20T05:43:40Z</time>
      </trkpt>
      <trkpt lat="45.91469" lon="6.5117">
        <ele>2345</ele>
        <time>2021-05-20T05:43:41Z</time>
      </trkpt>
      <trkpt lat="45.91469" lon="6.5117">
        <ele>2345</ele>
        <time>2021-05-20T05:43:42Z</time>
      </trkpt>
      <trkpt lat="45.91469" lon="6.5117">
        <ele>2345</ele>
        <time>2021-05-20T05:43:43Z</time>
      </trkpt>
      <trkpt lat="45.91472" lon="6.51172">
        <ele>2345</ele>
        <time>2021-05-20T05:43:44Z</time>
      </trkpt>
      <trkpt lat="45.91472" lon="6.51172">
        <ele>2345</ele>
        <time>2021-05-20T05:43:45Z</time>
      </trkpt>
      <trkpt lat="45.91472" lon="6.51172">
        <ele>2345</ele>
        <time>2021-05-20T05:43:46Z</time>
      </trkpt>
      <trkpt lat="45.91472" lon="6.51172">
        <ele>2345</ele>
        <time>2021-05-20T05:43:47Z</time>
      </trkpt>
      <trkpt lat="45.91472" lon="6.51172">
        <ele>2346</ele>
        <time>2021-05-20T05:43:48Z</time>
      </trkpt>
      <trkpt lat="45.91475" lon="6.51172">
        <ele>2347</ele>
        <time>2021-05-20T05:43:49Z</time>
      </trkpt>
      <trkpt lat="45.91475" lon="6.51172">
        <ele>2347</ele>
        <time>2021-05-20T05:43:50Z</time>
      </trkpt>
      <trkpt lat="45.91476" lon="6.51172">
        <ele>2347</ele>
        <time>2021-05-20T05:43:51Z</time>
      </trkpt>
      <trkpt lat="45.91477" lon="6.51172">
        <ele>2347</ele>
        <time>2021-05-20T05:43:52Z</time>
      </trkpt>
      <trkpt lat="45.91477" lon="6.51171">
        <ele>2347</ele>
        <time>2021-05-20T05:43:53Z</time>
      </trkpt>
      <trkpt lat="45.91478" lon="6.51171">
        <ele>2347</ele>
        <time>2021-05-20T05:43:54Z</time>
      </trkpt>
      <trkpt lat="45.91479" lon="6.51171">
        <ele>2348</ele>
        <time>2021-05-20T05:43:55Z</time>
      </trkpt>
      <trkpt lat="45.91479" lon="6.51171">
        <ele>2348</ele>
        <time>2021-05-20T05:43:56Z</time>
      </trkpt>
      <trkpt lat="45.91479" lon="6.51171">
        <ele>2348</ele>
        <time>2021-05-20T05:43:57Z</time>
      </trkpt>
      <trkpt lat="45.91479" lon="6.51171">
        <ele>2348</ele>
        <time>2021-05-20T05:43:58Z</time>
      </trkpt>
      <trkpt lat="45.91479" lon="6.51171">
        <ele>2349</ele>
        <time>2021-05-20T05:43:59Z</time>
      </trkpt>
      <trkpt lat="45.91483" lon="6.5117">
        <ele>2349</ele>
        <time>2021-05-20T05:44:00Z</time>
      </trkpt>
      <trkpt lat="45.91483" lon="6.5117">
        <ele>2349</ele>
        <time>2021-05-20T05:44:01Z</time>
      </trkpt>
      <trkpt lat="45.91483" lon="6.5117">
        <ele>2349</ele>
        <time>2021-05-20T05:44:02Z</time>
      </trkpt>
      <trkpt lat="45.91483" lon="6.5117">
        <ele>2349</ele>
        <time>2021-05-20T05:44:03Z</time>
      </trkpt>
      <trkpt lat="45.91483" lon="6.5117">
        <ele>2350</ele>
        <time>2021-05-20T05:44:04Z</time>
      </trkpt>
      <trkpt lat="45.91486" lon="6.51169">
        <ele>2350</ele>
        <time>2021-05-20T05:44:05Z</time>
      </trkpt>
      <trkpt lat="45.91486" lon="6.51169">
        <ele>2350</ele>
        <time>2021-05-20T05:44:06Z</time>
      </trkpt>
      <trkpt lat="45.91486" lon="6.51169">
        <ele>2350</ele>
        <time>2021-05-20T05:44:07Z</time>
      </trkpt>
      <trkpt lat="45.91486" lon="6.51169">
        <ele>2350</ele>
        <time>2021-05-20T05:44:08Z</time>
      </trkpt>
      <trkpt lat="45.91486" lon="6.51169">
        <ele>2350</ele>
        <time>2021-05-20T05:44:09Z</time>
      </trkpt>
      <trkpt lat="45.91486" lon="6.51169">
        <ele>2351</ele>
        <time>2021-05-20T05:44:10Z</time>
      </trkpt>
      <trkpt lat="45.91486" lon="6.51169">
        <ele>2351</ele>
        <time>2021-05-20T05:44:11Z</time>
      </trkpt>
      <trkpt lat="45.9149" lon="6.51167">
        <ele>2351</ele>
        <time>2021-05-20T05:44:12Z</time>
      </trkpt>
      <trkpt lat="45.9149" lon="6.51167">
        <ele>2351</ele>
        <time>2021-05-20T05:44:13Z</time>
      </trkpt>
      <trkpt lat="45.9149" lon="6.51168">
        <ele>2351</ele>
        <time>2021-05-20T05:44:14Z</time>
      </trkpt>
      <trkpt lat="45.9149" lon="6.51168">
        <ele>2351</ele>
        <time>2021-05-20T05:44:15Z</time>
      </trkpt>
      <trkpt lat="45.9149" lon="6.51168">
        <ele>2351</ele>
        <time>2021-05-20T05:44:16Z</time>
      </trkpt>
      <trkpt lat="45.9149" lon="6.51168">
        <ele>2351</ele>
        <time>2021-05-20T05:44:17Z</time>
      </trkpt>
      <trkpt lat="45.9149" lon="6.51169">
        <ele>2352</ele>
        <time>2021-05-20T05:44:18Z</time>
      </trkpt>
      <trkpt lat="45.91491" lon="6.51169">
        <ele>2352</ele>
        <time>2021-05-20T05:44:19Z</time>
      </trkpt>
      <trkpt lat="45.91491" lon="6.51169">
        <ele>2352</ele>
        <time>2021-05-20T05:44:20Z</time>
      </trkpt>
      <trkpt lat="45.91491" lon="6.51169">
        <ele>2353</ele>
        <time>2021-05-20T05:44:21Z</time>
      </trkpt>
      <trkpt lat="45.91491" lon="6.5117">
        <ele>2353</ele>
        <time>2021-05-20T05:44:22Z</time>
      </trkpt>
      <trkpt lat="45.91491" lon="6.5117">
        <ele>2353</ele>
        <time>2021-05-20T05:44:23Z</time>
      </trkpt>
      <trkpt lat="45.91491" lon="6.5117">
        <ele>2353</ele>
        <time>2021-05-20T05:44:24Z</time>
      </trkpt>
      <trkpt lat="45.91491" lon="6.5117">
        <ele>2353</ele>
        <time>2021-05-20T05:44:25Z</time>
      </trkpt>
      <trkpt lat="45.91491" lon="6.51171">
        <ele>2353</ele>
        <time>2021-05-20T05:44:26Z</time>
      </trkpt>
      <trkpt lat="45.91491" lon="6.51171">
        <ele>2353</ele>
        <time>2021-05-20T05:44:27Z</time>
      </trkpt>
      <trkpt lat="45.91491" lon="6.51171">
        <ele>2353</ele>
        <time>2021-05-20T05:44:28Z</time>
      </trkpt>
      <trkpt lat="45.91491" lon="6.51172">
        <ele>2353</ele>
        <time>2021-05-20T05:44:29Z</time>
      </trkpt>
      <trkpt lat="45.91491" lon="6.51172">
        <ele>2354</ele>
        <time>2021-05-20T05:44:30Z</time>
      </trkpt>
      <trkpt lat="45.91491" lon="6.51172">
        <ele>2354</ele>
        <time>2021-05-20T05:44:31Z</time>
      </trkpt>
      <trkpt lat="45.91491" lon="6.51172">
        <ele>2354</ele>
        <time>2021-05-20T05:44:32Z</time>
      </trkpt>
      <trkpt lat="45.91491" lon="6.51172">
        <ele>2355</ele>
        <time>2021-05-20T05:44:33Z</time>
      </trkpt>
      <trkpt lat="45.9149" lon="6.51177">
        <ele>2355</ele>
        <time>2021-05-20T05:44:34Z</time>
      </trkpt>
      <trkpt lat="45.9149" lon="6.51177">
        <ele>2355</ele>
        <time>2021-05-20T05:44:35Z</time>
      </trkpt>
      <trkpt lat="45.9149" lon="6.51178">
        <ele>2355</ele>
        <time>2021-05-20T05:44:36Z</time>
      </trkpt>
      <trkpt lat="45.9149" lon="6.51178">
        <ele>2355</ele>
        <time>2021-05-20T05:44:37Z</time>
      </trkpt>
      <trkpt lat="45.9149" lon="6.51179">
        <ele>2355</ele>
        <time>2021-05-20T05:44:38Z</time>
      </trkpt>
      <trkpt lat="45.91489" lon="6.5118">
        <ele>2356</ele>
        <time>2021-05-20T05:44:39Z</time>
      </trkpt>
      <trkpt lat="45.91489" lon="6.51181">
        <ele>2356</ele>
        <time>2021-05-20T05:44:40Z</time>
      </trkpt>
      <trkpt lat="45.91489" lon="6.51182">
        <ele>2356</ele>
        <time>2021-05-20T05:44:41Z</time>
      </trkpt>
      <trkpt lat="45.91489" lon="6.51182">
        <ele>2357</ele>
        <time>2021-05-20T05:44:42Z</time>
      </trkpt>
      <trkpt lat="45.91489" lon="6.51182">
        <ele>2357</ele>
        <time>2021-05-20T05:44:43Z</time>
      </trkpt>
      <trkpt lat="45.91489" lon="6.51182">
        <ele>2357</ele>
        <time>2021-05-20T05:44:44Z</time>
      </trkpt>
      <trkpt lat="45.91489" lon="6.51182">
        <ele>2357</ele>
        <time>2021-05-20T05:44:45Z</time>
      </trkpt>
      <trkpt lat="45.91487" lon="6.51187">
        <ele>2357</ele>
        <time>2021-05-20T05:44:46Z</time>
      </trkpt>
      <trkpt lat="45.91487" lon="6.51187">
        <ele>2357</ele>
        <time>2021-05-20T05:44:47Z</time>
      </trkpt>
      <trkpt lat="45.91487" lon="6.51187">
        <ele>2358</ele>
        <time>2021-05-20T05:44:48Z</time>
      </trkpt>
      <trkpt lat="45.91487" lon="6.51187">
        <ele>2358</ele>
        <time>2021-05-20T05:44:49Z</time>
      </trkpt>
      <trkpt lat="45.91487" lon="6.51187">
        <ele>2358</ele>
        <time>2021-05-20T05:44:50Z</time>
      </trkpt>
      <trkpt lat="45.91484" lon="6.51191">
        <ele>2358</ele>
        <time>2021-05-20T05:44:51Z</time>
      </trkpt>
      <trkpt lat="45.91484" lon="6.51191">
        <ele>2358</ele>
        <time>2021-05-20T05:44:52Z</time>
      </trkpt>
      <trkpt lat="45.91484" lon="6.51191">
        <ele>2358</ele>
        <time>2021-05-20T05:44:53Z</time>
      </trkpt>
      <trkpt lat="45.91483" lon="6.51192">
        <ele>2358</ele>
        <time>2021-05-20T05:44:54Z</time>
      </trkpt>
      <trkpt lat="45.91483" lon="6.51193">
        <ele>2359</ele>
        <time>2021-05-20T05:44:55Z</time>
      </trkpt>
      <trkpt lat="45.91482" lon="6.51193">
        <ele>2359</ele>
        <time>2021-05-20T05:44:56Z</time>
      </trkpt>
      <trkpt lat="45.91482" lon="6.51194">
        <ele>2359</ele>
        <time>2021-05-20T05:44:57Z</time>
      </trkpt>
      <trkpt lat="45.91481" lon="6.51195">
        <ele>2360</ele>
        <time>2021-05-20T05:44:58Z</time>
      </trkpt>
      <trkpt lat="45.91481" lon="6.51195">
        <ele>2360</ele>
        <time>2021-05-20T05:44:59Z</time>
      </trkpt>
      <trkpt lat="45.91481" lon="6.51195">
        <ele>2360</ele>
        <time>2021-05-20T05:45:00Z</time>
      </trkpt>
      <trkpt lat="45.91481" lon="6.51195">
        <ele>2361</ele>
        <time>2021-05-20T05:45:01Z</time>
      </trkpt>
      <trkpt lat="45.91481" lon="6.51195">
        <ele>2361</ele>
        <time>2021-05-20T05:45:02Z</time>
      </trkpt>
      <trkpt lat="45.91481" lon="6.51195">
        <ele>2361</ele>
        <time>2021-05-20T05:45:03Z</time>
      </trkpt>
      <trkpt lat="45.9148" lon="6.51199">
        <ele>2361</ele>
        <time>2021-05-20T05:45:04Z</time>
      </trkpt>
      <trkpt lat="45.9148" lon="6.51199">
        <ele>2361</ele>
        <time>2021-05-20T05:45:05Z</time>
      </trkpt>
      <trkpt lat="45.91479" lon="6.512">
        <ele>2361</ele>
        <time>2021-05-20T05:45:06Z</time>
      </trkpt>
      <trkpt lat="45.91479" lon="6.512">
        <ele>2361</ele>
        <time>2021-05-20T05:45:07Z</time>
      </trkpt>
      <trkpt lat="45.91479" lon="6.51201">
        <ele>2362</ele>
        <time>2021-05-20T05:45:08Z</time>
      </trkpt>
      <trkpt lat="45.91479" lon="6.51202">
        <ele>2362</ele>
        <time>2021-05-20T05:45:09Z</time>
      </trkpt>
      <trkpt lat="45.91479" lon="6.51202">
        <ele>2364</ele>
        <time>2021-05-20T05:45:10Z</time>
      </trkpt>
      <trkpt lat="45.91479" lon="6.51203">
        <ele>2364</ele>
        <time>2021-05-20T05:45:11Z</time>
      </trkpt>
      <trkpt lat="45.91478" lon="6.51203">
        <ele>2364</ele>
        <time>2021-05-20T05:45:12Z</time>
      </trkpt>
      <trkpt lat="45.91478" lon="6.51203">
        <ele>2364</ele>
        <time>2021-05-20T05:45:13Z</time>
      </trkpt>
      <trkpt lat="45.91478" lon="6.51203">
        <ele>2364</ele>
        <time>2021-05-20T05:45:14Z</time>
      </trkpt>
      <trkpt lat="45.91478" lon="6.51203">
        <ele>2365</ele>
        <time>2021-05-20T05:45:15Z</time>
      </trkpt>
      <trkpt lat="45.91478" lon="6.51203">
        <ele>2365</ele>
        <time>2021-05-20T05:45:16Z</time>
      </trkpt>
      <trkpt lat="45.91478" lon="6.51203">
        <ele>2363</ele>
        <time>2021-05-20T05:45:17Z</time>
      </trkpt>
      <trkpt lat="45.91478" lon="6.51203">
        <ele>2365</ele>
        <time>2021-05-20T05:45:18Z</time>
      </trkpt>
      <trkpt lat="45.91478" lon="6.51203">
        <ele>2365</ele>
        <time>2021-05-20T05:45:19Z</time>
      </trkpt>
      <trkpt lat="45.91478" lon="6.51203">
        <ele>2365</ele>
        <time>2021-05-20T05:45:20Z</time>
      </trkpt>
      <trkpt lat="45.91478" lon="6.51203">
        <ele>2365</ele>
        <time>2021-05-20T05:45:21Z</time>
      </trkpt>
      <trkpt lat="45.91478" lon="6.51203">
        <ele>2365</ele>
        <time>2021-05-20T05:45:22Z</time>
      </trkpt>
      <trkpt lat="45.91478" lon="6.51203">
        <ele>2365</ele>
        <time>2021-05-20T05:45:23Z</time>
      </trkpt>
      <trkpt lat="45.91478" lon="6.51203">
        <ele>2365</ele>
        <time>2021-05-20T05:45:24Z</time>
      </trkpt>
      <trkpt lat="45.91478" lon="6.51203">
        <ele>2365</ele>
        <time>2021-05-20T05:45:25Z</time>
      </trkpt>
      <trkpt lat="45.91482" lon="6.51204">
        <ele>2365</ele>
        <time>2021-05-20T05:45:26Z</time>
      </trkpt>
      <trkpt lat="45.91482" lon="6.51204">
        <ele>2365</ele>
        <time>2021-05-20T05:45:27Z</time>
      </trkpt>
      <trkpt lat="45.91483" lon="6.51204">
        <ele>2365</ele>
        <time>2021-05-20T05:45:28Z</time>
      </trkpt>
      <trkpt lat="45.91484" lon="6.51204">
        <ele>2366</ele>
        <time>2021-05-20T05:45:29Z</time>
      </trkpt>
      <trkpt lat="45.91485" lon="6.51204">
        <ele>2367</ele>
        <time>2021-05-20T05:45:30Z</time>
      </trkpt>
      <trkpt lat="45.91485" lon="6.51204">
        <ele>2367</ele>
        <time>2021-05-20T05:45:31Z</time>
      </trkpt>
      <trkpt lat="45.91486" lon="6.51204">
        <ele>2367</ele>
        <time>2021-05-20T05:45:32Z</time>
      </trkpt>
      <trkpt lat="45.91486" lon="6.51204">
        <ele>2367</ele>
        <time>2021-05-20T05:45:33Z</time>
      </trkpt>
      <trkpt lat="45.91486" lon="6.51204">
        <ele>2367</ele>
        <time>2021-05-20T05:45:34Z</time>
      </trkpt>
      <trkpt lat="45.91486" lon="6.51204">
        <ele>2367</ele>
        <time>2021-05-20T05:45:35Z</time>
      </trkpt>
      <trkpt lat="45.9149" lon="6.51203">
        <ele>2367</ele>
        <time>2021-05-20T05:45:36Z</time>
      </trkpt>
      <trkpt lat="45.9149" lon="6.51203">
        <ele>2367</ele>
        <time>2021-05-20T05:45:37Z</time>
      </trkpt>
      <trkpt lat="45.91491" lon="6.51203">
        <ele>2367</ele>
        <time>2021-05-20T05:45:38Z</time>
      </trkpt>
      <trkpt lat="45.91491" lon="6.51203">
        <ele>2368</ele>
        <time>2021-05-20T05:45:39Z</time>
      </trkpt>
      <trkpt lat="45.91492" lon="6.51203">
        <ele>2368</ele>
        <time>2021-05-20T05:45:40Z</time>
      </trkpt>
      <trkpt lat="45.91493" lon="6.51202">
        <ele>2368</ele>
        <time>2021-05-20T05:45:41Z</time>
      </trkpt>
      <trkpt lat="45.91493" lon="6.51202">
        <ele>2368</ele>
        <time>2021-05-20T05:45:42Z</time>
      </trkpt>
      <trkpt lat="45.91494" lon="6.51202">
        <ele>2368</ele>
        <time>2021-05-20T05:45:43Z</time>
      </trkpt>
      <trkpt lat="45.91494" lon="6.51202">
        <ele>2369</ele>
        <time>2021-05-20T05:45:44Z</time>
      </trkpt>
      <trkpt lat="45.91494" lon="6.51202">
        <ele>2369</ele>
        <time>2021-05-20T05:45:45Z</time>
      </trkpt>
      <trkpt lat="45.91494" lon="6.51202">
        <ele>2369</ele>
        <time>2021-05-20T05:45:46Z</time>
      </trkpt>
      <trkpt lat="45.91494" lon="6.51202">
        <ele>2369</ele>
        <time>2021-05-20T05:45:47Z</time>
      </trkpt>
      <trkpt lat="45.91498" lon="6.51202">
        <ele>2369</ele>
        <time>2021-05-20T05:45:48Z</time>
      </trkpt>
      <trkpt lat="45.91498" lon="6.51202">
        <ele>2369</ele>
        <time>2021-05-20T05:45:49Z</time>
      </trkpt>
      <trkpt lat="45.91497" lon="6.51202">
        <ele>2369</ele>
        <time>2021-05-20T05:45:50Z</time>
      </trkpt>
      <trkpt lat="45.91497" lon="6.51203">
        <ele>2369</ele>
        <time>2021-05-20T05:45:51Z</time>
      </trkpt>
      <trkpt lat="45.91497" lon="6.51203">
        <ele>2369</ele>
        <time>2021-05-20T05:45:52Z</time>
      </trkpt>
      <trkpt lat="45.91497" lon="6.51204">
        <ele>2370</ele>
        <time>2021-05-20T05:45:53Z</time>
      </trkpt>
      <trkpt lat="45.91497" lon="6.51204">
        <ele>2370</ele>
        <time>2021-05-20T05:45:54Z</time>
      </trkpt>
      <trkpt lat="45.91496" lon="6.51205">
        <ele>2370</ele>
        <time>2021-05-20T05:45:55Z</time>
      </trkpt>
      <trkpt lat="45.91496" lon="6.51206">
        <ele>2370</ele>
        <time>2021-05-20T05:45:56Z</time>
      </trkpt>
      <trkpt lat="45.91496" lon="6.51206">
        <ele>2371</ele>
        <time>2021-05-20T05:45:57Z</time>
      </trkpt>
      <trkpt lat="45.91496" lon="6.51207">
        <ele>2371</ele>
        <time>2021-05-20T05:45:58Z</time>
      </trkpt>
      <trkpt lat="45.91495" lon="6.51208">
        <ele>2371</ele>
        <time>2021-05-20T05:45:59Z</time>
      </trkpt>
      <trkpt lat="45.91494" lon="6.51208">
        <ele>2371</ele>
        <time>2021-05-20T05:46:00Z</time>
      </trkpt>
      <trkpt lat="45.91494" lon="6.51209">
        <ele>2371</ele>
        <time>2021-05-20T05:46:01Z</time>
      </trkpt>
      <trkpt lat="45.91493" lon="6.51209">
        <ele>2371</ele>
        <time>2021-05-20T05:46:02Z</time>
      </trkpt>
      <trkpt lat="45.91492" lon="6.5121">
        <ele>2371</ele>
        <time>2021-05-20T05:46:03Z</time>
      </trkpt>
      <trkpt lat="45.91492" lon="6.5121">
        <ele>2371</ele>
        <time>2021-05-20T05:46:04Z</time>
      </trkpt>
      <trkpt lat="45.91492" lon="6.5121">
        <ele>2372</ele>
        <time>2021-05-20T05:46:05Z</time>
      </trkpt>
      <trkpt lat="45.91492" lon="6.5121">
        <ele>2372</ele>
        <time>2021-05-20T05:46:06Z</time>
      </trkpt>
      <trkpt lat="45.91492" lon="6.5121">
        <ele>2372</ele>
        <time>2021-05-20T05:46:07Z</time>
      </trkpt>
      <trkpt lat="45.91492" lon="6.5121">
        <ele>2372</ele>
        <time>2021-05-20T05:46:08Z</time>
      </trkpt>
      <trkpt lat="45.9149" lon="6.51215">
        <ele>2372</ele>
        <time>2021-05-20T05:46:09Z</time>
      </trkpt>
      <trkpt lat="45.9149" lon="6.51215">
        <ele>2372</ele>
        <time>2021-05-20T05:46:10Z</time>
      </trkpt>
      <trkpt lat="45.9149" lon="6.51215">
        <ele>2372</ele>
        <time>2021-05-20T05:46:11Z</time>
      </trkpt>
      <trkpt lat="45.9149" lon="6.51215">
        <ele>2373</ele>
        <time>2021-05-20T05:46:12Z</time>
      </trkpt>
      <trkpt lat="45.9149" lon="6.51215">
        <ele>2373</ele>
        <time>2021-05-20T05:46:13Z</time>
      </trkpt>
      <trkpt lat="45.9149" lon="6.51215">
        <ele>2374</ele>
        <time>2021-05-20T05:46:14Z</time>
      </trkpt>
      <trkpt lat="45.91489" lon="6.51219">
        <ele>2374</ele>
        <time>2021-05-20T05:46:15Z</time>
      </trkpt>
      <trkpt lat="45.91489" lon="6.51219">
        <ele>2374</ele>
        <time>2021-05-20T05:46:16Z</time>
      </trkpt>
      <trkpt lat="45.91488" lon="6.5122">
        <ele>2374</ele>
        <time>2021-05-20T05:46:17Z</time>
      </trkpt>
      <trkpt lat="45.91488" lon="6.5122">
        <ele>2374</ele>
        <time>2021-05-20T05:46:18Z</time>
      </trkpt>
      <trkpt lat="45.91487" lon="6.51221">
        <ele>2374</ele>
        <time>2021-05-20T05:46:19Z</time>
      </trkpt>
      <trkpt lat="45.91487" lon="6.51222">
        <ele>2375</ele>
        <time>2021-05-20T05:46:20Z</time>
      </trkpt>
      <trkpt lat="45.91486" lon="6.51222">
        <ele>2375</ele>
        <time>2021-05-20T05:46:21Z</time>
      </trkpt>
      <trkpt lat="45.91486" lon="6.51223">
        <ele>2375</ele>
        <time>2021-05-20T05:46:22Z</time>
      </trkpt>
      <trkpt lat="45.91486" lon="6.51223">
        <ele>2376</ele>
        <time>2021-05-20T05:46:23Z</time>
      </trkpt>
      <trkpt lat="45.91486" lon="6.51223">
        <ele>2376</ele>
        <time>2021-05-20T05:46:24Z</time>
      </trkpt>
      <trkpt lat="45.91486" lon="6.51223">
        <ele>2376</ele>
        <time>2021-05-20T05:46:25Z</time>
      </trkpt>
      <trkpt lat="45.91486" lon="6.51223">
        <ele>2376</ele>
        <time>2021-05-20T05:46:26Z</time>
      </trkpt>
      <trkpt lat="45.91486" lon="6.51223">
        <ele>2376</ele>
        <time>2021-05-20T05:46:27Z</time>
      </trkpt>
      <trkpt lat="45.91486" lon="6.51223">
        <ele>2376</ele>
        <time>2021-05-20T05:46:28Z</time>
      </trkpt>
      <trkpt lat="45.91486" lon="6.51223">
        <ele>2376</ele>
        <time>2021-05-20T05:46:29Z</time>
      </trkpt>
      <trkpt lat="45.91486" lon="6.51223">
        <ele>2376</ele>
        <time>2021-05-20T05:46:30Z</time>
      </trkpt>
      <trkpt lat="45.91486" lon="6.51223">
        <ele>2376</ele>
        <time>2021-05-20T05:46:31Z</time>
      </trkpt>
      <trkpt lat="45.91486" lon="6.51223">
        <ele>2376</ele>
        <time>2021-05-20T05:46:32Z</time>
      </trkpt>
      <trkpt lat="45.91489" lon="6.51225">
        <ele>2376</ele>
        <time>2021-05-20T05:46:33Z</time>
      </trkpt>
      <trkpt lat="45.91489" lon="6.51225">
        <ele>2376</ele>
        <time>2021-05-20T05:46:34Z</time>
      </trkpt>
      <trkpt lat="45.91489" lon="6.51225">
        <ele>2376</ele>
        <time>2021-05-20T05:46:35Z</time>
      </trkpt>
      <trkpt lat="45.91489" lon="6.51225">
        <ele>2376</ele>
        <time>2021-05-20T05:46:36Z</time>
      </trkpt>
      <trkpt lat="45.91489" lon="6.51225">
        <ele>2376</ele>
        <time>2021-05-20T05:46:37Z</time>
      </trkpt>
      <trkpt lat="45.91489" lon="6.51225">
        <ele>2377</ele>
        <time>2021-05-20T05:46:38Z</time>
      </trkpt>
      <trkpt lat="45.91493" lon="6.51224">
        <ele>2378</ele>
        <time>2021-05-20T05:46:39Z</time>
      </trkpt>
      <trkpt lat="45.91493" lon="6.51224">
        <ele>2378</ele>
        <time>2021-05-20T05:46:40Z</time>
      </trkpt>
      <trkpt lat="45.91493" lon="6.51224">
        <ele>2379</ele>
        <time>2021-05-20T05:46:41Z</time>
      </trkpt>
      <trkpt lat="45.91494" lon="6.51225">
        <ele>2379</ele>
        <time>2021-05-20T05:46:42Z</time>
      </trkpt>
      <trkpt lat="45.91494" lon="6.51225">
        <ele>2379</ele>
        <time>2021-05-20T05:46:43Z</time>
      </trkpt>
      <trkpt lat="45.91495" lon="6.51225">
        <ele>2379</ele>
        <time>2021-05-20T05:46:44Z</time>
      </trkpt>
      <trkpt lat="45.91496" lon="6.51225">
        <ele>2379</ele>
        <time>2021-05-20T05:46:45Z</time>
      </trkpt>
      <trkpt lat="45.91496" lon="6.51225">
        <ele>2379</ele>
        <time>2021-05-20T05:46:46Z</time>
      </trkpt>
      <trkpt lat="45.91496" lon="6.51225">
        <ele>2380</ele>
        <time>2021-05-20T05:46:47Z</time>
      </trkpt>
      <trkpt lat="45.91496" lon="6.51225">
        <ele>2380</ele>
        <time>2021-05-20T05:46:48Z</time>
      </trkpt>
      <trkpt lat="45.91496" lon="6.51225">
        <ele>2379</ele>
        <time>2021-05-20T05:46:49Z</time>
      </trkpt>
      <trkpt lat="45.91496" lon="6.51225">
        <ele>2379</ele>
        <time>2021-05-20T05:46:50Z</time>
      </trkpt>
      <trkpt lat="45.915" lon="6.51225">
        <ele>2380</ele>
        <time>2021-05-20T05:46:51Z</time>
      </trkpt>
      <trkpt lat="45.915" lon="6.51225">
        <ele>2380</ele>
        <time>2021-05-20T05:46:52Z</time>
      </trkpt>
      <trkpt lat="45.915" lon="6.51225">
        <ele>2381</ele>
        <time>2021-05-20T05:46:53Z</time>
      </trkpt>
      <trkpt lat="45.915" lon="6.51225">
        <ele>2381</ele>
        <time>2021-05-20T05:46:54Z</time>
      </trkpt>
      <trkpt lat="45.915" lon="6.51225">
        <ele>2381</ele>
        <time>2021-05-20T05:46:55Z</time>
      </trkpt>
      <trkpt lat="45.915" lon="6.51225">
        <ele>2381</ele>
        <time>2021-05-20T05:46:56Z</time>
      </trkpt>
      <trkpt lat="45.91504" lon="6.51224">
        <ele>2381</ele>
        <time>2021-05-20T05:46:57Z</time>
      </trkpt>
      <trkpt lat="45.91504" lon="6.51224">
        <ele>2381</ele>
        <time>2021-05-20T05:46:58Z</time>
      </trkpt>
      <trkpt lat="45.91504" lon="6.51223">
        <ele>2382</ele>
        <time>2021-05-20T05:46:59Z</time>
      </trkpt>
      <trkpt lat="45.91505" lon="6.51223">
        <ele>2382</ele>
        <time>2021-05-20T05:47:00Z</time>
      </trkpt>
      <trkpt lat="45.91506" lon="6.51223">
        <ele>2382</ele>
        <time>2021-05-20T05:47:01Z</time>
      </trkpt>
      <trkpt lat="45.91506" lon="6.51223">
        <ele>2382</ele>
        <time>2021-05-20T05:47:02Z</time>
      </trkpt>
      <trkpt lat="45.91507" lon="6.51223">
        <ele>2383</ele>
        <time>2021-05-20T05:47:03Z</time>
      </trkpt>
      <trkpt lat="45.91508" lon="6.51223">
        <ele>2383</ele>
        <time>2021-05-20T05:47:04Z</time>
      </trkpt>
      <trkpt lat="45.91508" lon="6.51223">
        <ele>2383</ele>
        <time>2021-05-20T05:47:05Z</time>
      </trkpt>
      <trkpt lat="45.91508" lon="6.51223">
        <ele>2383</ele>
        <time>2021-05-20T05:47:06Z</time>
      </trkpt>
      <trkpt lat="45.91508" lon="6.51223">
        <ele>2384</ele>
        <time>2021-05-20T05:47:07Z</time>
      </trkpt>
      <trkpt lat="45.91511" lon="6.51221">
        <ele>2384</ele>
        <time>2021-05-20T05:47:08Z</time>
      </trkpt>
      <trkpt lat="45.91511" lon="6.51221">
        <ele>2384</ele>
        <time>2021-05-20T05:47:09Z</time>
      </trkpt>
      <trkpt lat="45.91511" lon="6.51221">
        <ele>2384</ele>
        <time>2021-05-20T05:47:10Z</time>
      </trkpt>
      <trkpt lat="45.91511" lon="6.51221">
        <ele>2384</ele>
        <time>2021-05-20T05:47:11Z</time>
      </trkpt>
      <trkpt lat="45.91511" lon="6.51221">
        <ele>2384</ele>
        <time>2021-05-20T05:47:12Z</time>
      </trkpt>
      <trkpt lat="45.91511" lon="6.51221">
        <ele>2384</ele>
        <time>2021-05-20T05:47:13Z</time>
      </trkpt>
      <trkpt lat="45.91515" lon="6.51221">
        <ele>2384</ele>
        <time>2021-05-20T05:47:14Z</time>
      </trkpt>
      <trkpt lat="45.91515" lon="6.51221">
        <ele>2384</ele>
        <time>2021-05-20T05:47:15Z</time>
      </trkpt>
      <trkpt lat="45.91515" lon="6.51221">
        <ele>2385</ele>
        <time>2021-05-20T05:47:16Z</time>
      </trkpt>
      <trkpt lat="45.91515" lon="6.51221">
        <ele>2385</ele>
        <time>2021-05-20T05:47:17Z</time>
      </trkpt>
      <trkpt lat="45.91515" lon="6.51221">
        <ele>2385</ele>
        <time>2021-05-20T05:47:18Z</time>
      </trkpt>
      <trkpt lat="45.91518" lon="6.5122">
        <ele>2385</ele>
        <time>2021-05-20T05:47:19Z</time>
      </trkpt>
      <trkpt lat="45.91518" lon="6.5122">
        <ele>2385</ele>
        <time>2021-05-20T05:47:20Z</time>
      </trkpt>
      <trkpt lat="45.91519" lon="6.5122">
        <ele>2386</ele>
        <time>2021-05-20T05:47:21Z</time>
      </trkpt>
      <trkpt lat="45.9152" lon="6.5122">
        <ele>2386</ele>
        <time>2021-05-20T05:47:22Z</time>
      </trkpt>
      <trkpt lat="45.9152" lon="6.5122">
        <ele>2387</ele>
        <time>2021-05-20T05:47:23Z</time>
      </trkpt>
      <trkpt lat="45.91521" lon="6.5122">
        <ele>2387</ele>
        <time>2021-05-20T05:47:24Z</time>
      </trkpt>
      <trkpt lat="45.91522" lon="6.51219">
        <ele>2387</ele>
        <time>2021-05-20T05:47:25Z</time>
      </trkpt>
      <trkpt lat="45.91522" lon="6.51219">
        <ele>2387</ele>
        <time>2021-05-20T05:47:26Z</time>
      </trkpt>
      <trkpt lat="45.91522" lon="6.51219">
        <ele>2387</ele>
        <time>2021-05-20T05:47:27Z</time>
      </trkpt>
      <trkpt lat="45.91522" lon="6.51219">
        <ele>2387</ele>
        <time>2021-05-20T05:47:28Z</time>
      </trkpt>
      <trkpt lat="45.91522" lon="6.51219">
        <ele>2387</ele>
        <time>2021-05-20T05:47:29Z</time>
      </trkpt>
      <trkpt lat="45.91525" lon="6.51218">
        <ele>2387</ele>
        <time>2021-05-20T05:47:30Z</time>
      </trkpt>
      <trkpt lat="45.91525" lon="6.51218">
        <ele>2388</ele>
        <time>2021-05-20T05:47:31Z</time>
      </trkpt>
      <trkpt lat="45.91525" lon="6.51218">
        <ele>2388</ele>
        <time>2021-05-20T05:47:32Z</time>
      </trkpt>
      <trkpt lat="45.91525" lon="6.51218">
        <ele>2388</ele>
        <time>2021-05-20T05:47:33Z</time>
      </trkpt>
      <trkpt lat="45.91525" lon="6.51218">
        <ele>2388</ele>
        <time>2021-05-20T05:47:34Z</time>
      </trkpt>
      <trkpt lat="45.91529" lon="6.51216">
        <ele>2388</ele>
        <time>2021-05-20T05:47:35Z</time>
      </trkpt>
      <trkpt lat="45.91529" lon="6.51216">
        <ele>2389</ele>
        <time>2021-05-20T05:47:36Z</time>
      </trkpt>
      <trkpt lat="45.91529" lon="6.51216">
        <ele>2389</ele>
        <time>2021-05-20T05:47:37Z</time>
      </trkpt>
      <trkpt lat="45.91529" lon="6.51216">
        <ele>2389</ele>
        <time>2021-05-20T05:47:38Z</time>
      </trkpt>
      <trkpt lat="45.91529" lon="6.51216">
        <ele>2389</ele>
        <time>2021-05-20T05:47:39Z</time>
      </trkpt>
      <trkpt lat="45.91529" lon="6.51216">
        <ele>2389</ele>
        <time>2021-05-20T05:47:40Z</time>
      </trkpt>
      <trkpt lat="45.91529" lon="6.51216">
        <ele>2389</ele>
        <time>2021-05-20T05:47:41Z</time>
      </trkpt>
      <trkpt lat="45.91529" lon="6.51216">
        <ele>2389</ele>
        <time>2021-05-20T05:47:42Z</time>
      </trkpt>
      <trkpt lat="45.91529" lon="6.51216">
        <ele>2389</ele>
        <time>2021-05-20T05:47:43Z</time>
      </trkpt>
      <trkpt lat="45.91529" lon="6.51216">
        <ele>2389</ele>
        <time>2021-05-20T05:47:44Z</time>
      </trkpt>
      <trkpt lat="45.91529" lon="6.51216">
        <ele>2389</ele>
        <time>2021-05-20T05:47:45Z</time>
      </trkpt>
      <trkpt lat="45.91529" lon="6.51216">
        <ele>2391</ele>
        <time>2021-05-20T05:47:46Z</time>
      </trkpt>
      <trkpt lat="45.91531" lon="6.51218">
        <ele>2392</ele>
        <time>2021-05-20T05:47:47Z</time>
      </trkpt>
      <trkpt lat="45.91531" lon="6.51218">
        <ele>2392</ele>
        <time>2021-05-20T05:47:48Z</time>
      </trkpt>
      <trkpt lat="45.9153" lon="6.51219">
        <ele>2393</ele>
        <time>2021-05-20T05:47:49Z</time>
      </trkpt>
      <trkpt lat="45.9153" lon="6.5122">
        <ele>2393</ele>
        <time>2021-05-20T05:47:50Z</time>
      </trkpt>
      <trkpt lat="45.9153" lon="6.51221">
        <ele>2393</ele>
        <time>2021-05-20T05:47:51Z</time>
      </trkpt>
      <trkpt lat="45.9153" lon="6.51222">
        <ele>2393</ele>
        <time>2021-05-20T05:47:52Z</time>
      </trkpt>
      <trkpt lat="45.91529" lon="6.51223">
        <ele>2393</ele>
        <time>2021-05-20T05:47:53Z</time>
      </trkpt>
      <trkpt lat="45.91529" lon="6.51224">
        <ele>2393</ele>
        <time>2021-05-20T05:47:54Z</time>
      </trkpt>
      <trkpt lat="45.91529" lon="6.51225">
        <ele>2393</ele>
        <time>2021-05-20T05:47:55Z</time>
      </trkpt>
      <trkpt lat="45.91529" lon="6.51225">
        <ele>2394</ele>
        <time>2021-05-20T05:47:56Z</time>
      </trkpt>
      <trkpt lat="45.91528" lon="6.51226">
        <ele>2394</ele>
        <time>2021-05-20T05:47:57Z</time>
      </trkpt>
      <trkpt lat="45.91528" lon="6.51227">
        <ele>2394</ele>
        <time>2021-05-20T05:47:58Z</time>
      </trkpt>
      <trkpt lat="45.91528" lon="6.51228">
        <ele>2394</ele>
        <time>2021-05-20T05:47:59Z</time>
      </trkpt>
      <trkpt lat="45.91527" lon="6.51229">
        <ele>2395</ele>
        <time>2021-05-20T05:48:00Z</time>
      </trkpt>
      <trkpt lat="45.91527" lon="6.51229">
        <ele>2395</ele>
        <time>2021-05-20T05:48:01Z</time>
      </trkpt>
      <trkpt lat="45.91527" lon="6.51229">
        <ele>2395</ele>
        <time>2021-05-20T05:48:02Z</time>
      </trkpt>
      <trkpt lat="45.91527" lon="6.51229">
        <ele>2395</ele>
        <time>2021-05-20T05:48:03Z</time>
      </trkpt>
      <trkpt lat="45.91527" lon="6.51229">
        <ele>2395</ele>
        <time>2021-05-20T05:48:04Z</time>
      </trkpt>
      <trkpt lat="45.91525" lon="6.51233">
        <ele>2395</ele>
        <time>2021-05-20T05:48:05Z</time>
      </trkpt>
      <trkpt lat="45.91525" lon="6.51233">
        <ele>2395</ele>
        <time>2021-05-20T05:48:06Z</time>
      </trkpt>
      <trkpt lat="45.91525" lon="6.51233">
        <ele>2395</ele>
        <time>2021-05-20T05:48:07Z</time>
      </trkpt>
      <trkpt lat="45.91525" lon="6.51233">
        <ele>2395</ele>
        <time>2021-05-20T05:48:08Z</time>
      </trkpt>
      <trkpt lat="45.91525" lon="6.51233">
        <ele>2395</ele>
        <time>2021-05-20T05:48:09Z</time>
      </trkpt>
      <trkpt lat="45.91525" lon="6.51233">
        <ele>2396</ele>
        <time>2021-05-20T05:48:10Z</time>
      </trkpt>
      <trkpt lat="45.91523" lon="6.51237">
        <ele>2396</ele>
        <time>2021-05-20T05:48:11Z</time>
      </trkpt>
      <trkpt lat="45.91523" lon="6.51237">
        <ele>2396</ele>
        <time>2021-05-20T05:48:12Z</time>
      </trkpt>
      <trkpt lat="45.91523" lon="6.51237">
        <ele>2396</ele>
        <time>2021-05-20T05:48:13Z</time>
      </trkpt>
      <trkpt lat="45.91523" lon="6.51237">
        <ele>2397</ele>
        <time>2021-05-20T05:48:14Z</time>
      </trkpt>
      <trkpt lat="45.91523" lon="6.51237">
        <ele>2397</ele>
        <time>2021-05-20T05:48:15Z</time>
      </trkpt>
      <trkpt lat="45.91523" lon="6.51237">
        <ele>2397</ele>
        <time>2021-05-20T05:48:16Z</time>
      </trkpt>
      <trkpt lat="45.91521" lon="6.51242">
        <ele>2398</ele>
        <time>2021-05-20T05:48:17Z</time>
      </trkpt>
      <trkpt lat="45.91521" lon="6.51242">
        <ele>2398</ele>
        <time>2021-05-20T05:48:18Z</time>
      </trkpt>
      <trkpt lat="45.91521" lon="6.51242">
        <ele>2398</ele>
        <time>2021-05-20T05:48:19Z</time>
      </trkpt>
      <trkpt lat="45.91521" lon="6.51243">
        <ele>2398</ele>
        <time>2021-05-20T05:48:20Z</time>
      </trkpt>
      <trkpt lat="45.9152" lon="6.51244">
        <ele>2399</ele>
        <time>2021-05-20T05:48:21Z</time>
      </trkpt>
      <trkpt lat="45.9152" lon="6.51244">
        <ele>2399</ele>
        <time>2021-05-20T05:48:22Z</time>
      </trkpt>
      <trkpt lat="45.91519" lon="6.51245">
        <ele>2399</ele>
        <time>2021-05-20T05:48:23Z</time>
      </trkpt>
      <trkpt lat="45.91519" lon="6.51246">
        <ele>2399</ele>
        <time>2021-05-20T05:48:24Z</time>
      </trkpt>
      <trkpt lat="45.91519" lon="6.51246">
        <ele>2399</ele>
        <time>2021-05-20T05:48:25Z</time>
      </trkpt>
      <trkpt lat="45.91519" lon="6.51246">
        <ele>2399</ele>
        <time>2021-05-20T05:48:26Z</time>
      </trkpt>
      <trkpt lat="45.91519" lon="6.51246">
        <ele>2399</ele>
        <time>2021-05-20T05:48:27Z</time>
      </trkpt>
      <trkpt lat="45.91519" lon="6.51246">
        <ele>2399</ele>
        <time>2021-05-20T05:48:28Z</time>
      </trkpt>
      <trkpt lat="45.91516" lon="6.5125">
        <ele>2399</ele>
        <time>2021-05-20T05:48:29Z</time>
      </trkpt>
      <trkpt lat="45.91516" lon="6.5125">
        <ele>2399</ele>
        <time>2021-05-20T05:48:30Z</time>
      </trkpt>
      <trkpt lat="45.91516" lon="6.51251">
        <ele>2400</ele>
        <time>2021-05-20T05:48:31Z</time>
      </trkpt>
      <trkpt lat="45.91515" lon="6.51251">
        <ele>2400</ele>
        <time>2021-05-20T05:48:32Z</time>
      </trkpt>
      <trkpt lat="45.91515" lon="6.51252">
        <ele>2400</ele>
        <time>2021-05-20T05:48:33Z</time>
      </trkpt>
      <trkpt lat="45.91515" lon="6.51253">
        <ele>2400</ele>
        <time>2021-05-20T05:48:34Z</time>
      </trkpt>
      <trkpt lat="45.91514" lon="6.51254">
        <ele>2400</ele>
        <time>2021-05-20T05:48:35Z</time>
      </trkpt>
      <trkpt lat="45.91514" lon="6.51255">
        <ele>2400</ele>
        <time>2021-05-20T05:48:36Z</time>
      </trkpt>
      <trkpt lat="45.91514" lon="6.51255">
        <ele>2400</ele>
        <time>2021-05-20T05:48:37Z</time>
      </trkpt>
      <trkpt lat="45.91514" lon="6.51255">
        <ele>2401</ele>
        <time>2021-05-20T05:48:38Z</time>
      </trkpt>
      <trkpt lat="45.91514" lon="6.51255">
        <ele>2401</ele>
        <time>2021-05-20T05:48:39Z</time>
      </trkpt>
      <trkpt lat="45.91514" lon="6.51255">
        <ele>2401</ele>
        <time>2021-05-20T05:48:40Z</time>
      </trkpt>
      <trkpt lat="45.91512" lon="6.5126">
        <ele>2401</ele>
        <time>2021-05-20T05:48:41Z</time>
      </trkpt>
      <trkpt lat="45.91512" lon="6.5126">
        <ele>2402</ele>
        <time>2021-05-20T05:48:42Z</time>
      </trkpt>
      <trkpt lat="45.91511" lon="6.5126">
        <ele>2402</ele>
        <time>2021-05-20T05:48:43Z</time>
      </trkpt>
      <trkpt lat="45.91511" lon="6.51261">
        <ele>2402</ele>
        <time>2021-05-20T05:48:44Z</time>
      </trkpt>
      <trkpt lat="45.9151" lon="6.51262">
        <ele>2402</ele>
        <time>2021-05-20T05:48:45Z</time>
      </trkpt>
      <trkpt lat="45.9151" lon="6.51263">
        <ele>2403</ele>
        <time>2021-05-20T05:48:46Z</time>
      </trkpt>
      <trkpt lat="45.9151" lon="6.51263">
        <ele>2403</ele>
        <time>2021-05-20T05:48:47Z</time>
      </trkpt>
      <trkpt lat="45.9151" lon="6.51263">
        <ele>2403</ele>
        <time>2021-05-20T05:48:48Z</time>
      </trkpt>
      <trkpt lat="45.9151" lon="6.51263">
        <ele>2404</ele>
        <time>2021-05-20T05:48:49Z</time>
      </trkpt>
      <trkpt lat="45.9151" lon="6.51263">
        <ele>2404</ele>
        <time>2021-05-20T05:48:50Z</time>
      </trkpt>
      <trkpt lat="45.9151" lon="6.51263">
        <ele>2404</ele>
        <time>2021-05-20T05:48:51Z</time>
      </trkpt>
      <trkpt lat="45.9151" lon="6.51263">
        <ele>2404</ele>
        <time>2021-05-20T05:48:52Z</time>
      </trkpt>
      <trkpt lat="45.91507" lon="6.51267">
        <ele>2405</ele>
        <time>2021-05-20T05:48:53Z</time>
      </trkpt>
      <trkpt lat="45.91507" lon="6.51267">
        <ele>2405</ele>
        <time>2021-05-20T05:48:54Z</time>
      </trkpt>
      <trkpt lat="45.91506" lon="6.51267">
        <ele>2405</ele>
        <time>2021-05-20T05:48:55Z</time>
      </trkpt>
      <trkpt lat="45.91506" lon="6.51268">
        <ele>2405</ele>
        <time>2021-05-20T05:48:56Z</time>
      </trkpt>
      <trkpt lat="45.91506" lon="6.51269">
        <ele>2405</ele>
        <time>2021-05-20T05:48:57Z</time>
      </trkpt>
      <trkpt lat="45.91505" lon="6.51269">
        <ele>2405</ele>
        <time>2021-05-20T05:48:58Z</time>
      </trkpt>
      <trkpt lat="45.91505" lon="6.5127">
        <ele>2405</ele>
        <time>2021-05-20T05:48:59Z</time>
      </trkpt>
      <trkpt lat="45.91504" lon="6.5127">
        <ele>2405</ele>
        <time>2021-05-20T05:49:00Z</time>
      </trkpt>
      <trkpt lat="45.91504" lon="6.51271">
        <ele>2405</ele>
        <time>2021-05-20T05:49:01Z</time>
      </trkpt>
      <trkpt lat="45.91503" lon="6.51272">
        <ele>2405</ele>
        <time>2021-05-20T05:49:02Z</time>
      </trkpt>
      <trkpt lat="45.91503" lon="6.51272">
        <ele>2405</ele>
        <time>2021-05-20T05:49:03Z</time>
      </trkpt>
      <trkpt lat="45.91502" lon="6.51273">
        <ele>2405</ele>
        <time>2021-05-20T05:49:04Z</time>
      </trkpt>
      <trkpt lat="45.91502" lon="6.51274">
        <ele>2405</ele>
        <time>2021-05-20T05:49:05Z</time>
      </trkpt>
      <trkpt lat="45.91501" lon="6.51275">
        <ele>2405</ele>
        <time>2021-05-20T05:49:06Z</time>
      </trkpt>
      <trkpt lat="45.91501" lon="6.51276">
        <ele>2406</ele>
        <time>2021-05-20T05:49:07Z</time>
      </trkpt>
      <trkpt lat="45.91501" lon="6.51276">
        <ele>2406</ele>
        <time>2021-05-20T05:49:08Z</time>
      </trkpt>
      <trkpt lat="45.91501" lon="6.51276">
        <ele>2406</ele>
        <time>2021-05-20T05:49:09Z</time>
      </trkpt>
      <trkpt lat="45.91501" lon="6.51276">
        <ele>2407</ele>
        <time>2021-05-20T05:49:10Z</time>
      </trkpt>
      <trkpt lat="45.91501" lon="6.51276">
        <ele>2407</ele>
        <time>2021-05-20T05:49:11Z</time>
      </trkpt>
      <trkpt lat="45.91499" lon="6.51277">
        <ele>2408</ele>
        <time>2021-05-20T05:49:12Z</time>
      </trkpt>
      <trkpt lat="45.91499" lon="6.51277">
        <ele>2408</ele>
        <time>2021-05-20T05:49:13Z</time>
      </trkpt>
      <trkpt lat="45.91499" lon="6.51277">
        <ele>2408</ele>
        <time>2021-05-20T05:49:14Z</time>
      </trkpt>
      <trkpt lat="45.91499" lon="6.51277">
        <ele>2408</ele>
        <time>2021-05-20T05:49:15Z</time>
      </trkpt>
      <trkpt lat="45.91499" lon="6.51277">
        <ele>2408</ele>
        <time>2021-05-20T05:49:16Z</time>
      </trkpt>
      <trkpt lat="45.91499" lon="6.51277">
        <ele>2408</ele>
        <time>2021-05-20T05:49:17Z</time>
      </trkpt>
      <trkpt lat="45.91499" lon="6.51277">
        <ele>2409</ele>
        <time>2021-05-20T05:49:18Z</time>
      </trkpt>
      <trkpt lat="45.91499" lon="6.51277">
        <ele>2409</ele>
        <time>2021-05-20T05:49:19Z</time>
      </trkpt>
      <trkpt lat="45.91499" lon="6.51277">
        <ele>2409</ele>
        <time>2021-05-20T05:49:20Z</time>
      </trkpt>
      <trkpt lat="45.91499" lon="6.51277">
        <ele>2409</ele>
        <time>2021-05-20T05:49:21Z</time>
      </trkpt>
      <trkpt lat="45.91499" lon="6.51277">
        <ele>2409</ele>
        <time>2021-05-20T05:49:22Z</time>
      </trkpt>
      <trkpt lat="45.91499" lon="6.51277">
        <ele>2409</ele>
        <time>2021-05-20T05:49:23Z</time>
      </trkpt>
      <trkpt lat="45.91499" lon="6.51277">
        <ele>2409</ele>
        <time>2021-05-20T05:49:24Z</time>
      </trkpt>
      <trkpt lat="45.91499" lon="6.51277">
        <ele>2409</ele>
        <time>2021-05-20T05:49:25Z</time>
      </trkpt>
      <trkpt lat="45.91499" lon="6.51277">
        <ele>2409</ele>
        <time>2021-05-20T05:49:26Z</time>
      </trkpt>
      <trkpt lat="45.91499" lon="6.51277">
        <ele>2408</ele>
        <time>2021-05-20T05:49:27Z</time>
      </trkpt>
      <trkpt lat="45.91503" lon="6.51277">
        <ele>2409</ele>
        <time>2021-05-20T05:49:28Z</time>
      </trkpt>
      <trkpt lat="45.91503" lon="6.51277">
        <ele>2409</ele>
        <time>2021-05-20T05:49:29Z</time>
      </trkpt>
      <trkpt lat="45.91504" lon="6.51277">
        <ele>2409</ele>
        <time>2021-05-20T05:49:30Z</time>
      </trkpt>
      <trkpt lat="45.91505" lon="6.51277">
        <ele>2409</ele>
        <time>2021-05-20T05:49:31Z</time>
      </trkpt>
      <trkpt lat="45.91505" lon="6.51277">
        <ele>2409</ele>
        <time>2021-05-20T05:49:32Z</time>
      </trkpt>
      <trkpt lat="45.91506" lon="6.51277">
        <ele>2409</ele>
        <time>2021-05-20T05:49:33Z</time>
      </trkpt>
      <trkpt lat="45.91507" lon="6.51277">
        <ele>2410</ele>
        <time>2021-05-20T05:49:34Z</time>
      </trkpt>
      <trkpt lat="45.91507" lon="6.51277">
        <ele>2410</ele>
        <time>2021-05-20T05:49:35Z</time>
      </trkpt>
      <trkpt lat="45.91507" lon="6.51277">
        <ele>2410</ele>
        <time>2021-05-20T05:49:36Z</time>
      </trkpt>
      <trkpt lat="45.91507" lon="6.51277">
        <ele>2410</ele>
        <time>2021-05-20T05:49:37Z</time>
      </trkpt>
      <trkpt lat="45.91507" lon="6.51277">
        <ele>2410</ele>
        <time>2021-05-20T05:49:38Z</time>
      </trkpt>
      <trkpt lat="45.91511" lon="6.51277">
        <ele>2410</ele>
        <time>2021-05-20T05:49:39Z</time>
      </trkpt>
      <trkpt lat="45.91511" lon="6.51277">
        <ele>2410</ele>
        <time>2021-05-20T05:49:40Z</time>
      </trkpt>
      <trkpt lat="45.91511" lon="6.51276">
        <ele>2410</ele>
        <time>2021-05-20T05:49:41Z</time>
      </trkpt>
      <trkpt lat="45.91512" lon="6.51276">
        <ele>2410</ele>
        <time>2021-05-20T05:49:42Z</time>
      </trkpt>
      <trkpt lat="45.91513" lon="6.51276">
        <ele>2410</ele>
        <time>2021-05-20T05:49:43Z</time>
      </trkpt>
      <trkpt lat="45.91513" lon="6.51276">
        <ele>2410</ele>
        <time>2021-05-20T05:49:44Z</time>
      </trkpt>
      <trkpt lat="45.91514" lon="6.51276">
        <ele>2410</ele>
        <time>2021-05-20T05:49:45Z</time>
      </trkpt>
      <trkpt lat="45.91515" lon="6.51276">
        <ele>2410</ele>
        <time>2021-05-20T05:49:46Z</time>
      </trkpt>
      <trkpt lat="45.91515" lon="6.51276">
        <ele>2410</ele>
        <time>2021-05-20T05:49:47Z</time>
      </trkpt>
      <trkpt lat="45.91516" lon="6.51275">
        <ele>2411</ele>
        <time>2021-05-20T05:49:48Z</time>
      </trkpt>
      <trkpt lat="45.91517" lon="6.51275">
        <ele>2411</ele>
        <time>2021-05-20T05:49:49Z</time>
      </trkpt>
      <trkpt lat="45.91517" lon="6.51275">
        <ele>2411</ele>
        <time>2021-05-20T05:49:50Z</time>
      </trkpt>
      <trkpt lat="45.91518" lon="6.51275">
        <ele>2411</ele>
        <time>2021-05-20T05:49:51Z</time>
      </trkpt>
      <trkpt lat="45.91519" lon="6.51274">
        <ele>2411</ele>
        <time>2021-05-20T05:49:52Z</time>
      </trkpt>
      <trkpt lat="45.91519" lon="6.51274">
        <ele>2411</ele>
        <time>2021-05-20T05:49:53Z</time>
      </trkpt>
      <trkpt lat="45.91519" lon="6.51274">
        <ele>2411</ele>
        <time>2021-05-20T05:49:54Z</time>
      </trkpt>
      <trkpt lat="45.91519" lon="6.51274">
        <ele>2411</ele>
        <time>2021-05-20T05:49:55Z</time>
      </trkpt>
      <trkpt lat="45.91519" lon="6.51274">
        <ele>2411</ele>
        <time>2021-05-20T05:49:56Z</time>
      </trkpt>
      <trkpt lat="45.91523" lon="6.51273">
        <ele>2411</ele>
        <time>2021-05-20T05:49:57Z</time>
      </trkpt>
      <trkpt lat="45.91523" lon="6.51273">
        <ele>2411</ele>
        <time>2021-05-20T05:49:58Z</time>
      </trkpt>
      <trkpt lat="45.91523" lon="6.51273">
        <ele>2411</ele>
        <time>2021-05-20T05:49:59Z</time>
      </trkpt>
      <trkpt lat="45.91523" lon="6.51273">
        <ele>2412</ele>
        <time>2021-05-20T05:50:00Z</time>
      </trkpt>
      <trkpt lat="45.91523" lon="6.51273">
        <ele>2412</ele>
        <time>2021-05-20T05:50:01Z</time>
      </trkpt>
      <trkpt lat="45.91526" lon="6.51272">
        <ele>2413</ele>
        <time>2021-05-20T05:50:02Z</time>
      </trkpt>
      <trkpt lat="45.91526" lon="6.51272">
        <ele>2413</ele>
        <time>2021-05-20T05:50:03Z</time>
      </trkpt>
      <trkpt lat="45.91526" lon="6.51272">
        <ele>2413</ele>
        <time>2021-05-20T05:50:04Z</time>
      </trkpt>
      <trkpt lat="45.91526" lon="6.51272">
        <ele>2413</ele>
        <time>2021-05-20T05:50:05Z</time>
      </trkpt>
      <trkpt lat="45.91526" lon="6.51272">
        <ele>2413</ele>
        <time>2021-05-20T05:50:06Z</time>
      </trkpt>
      <trkpt lat="45.91529" lon="6.5127">
        <ele>2413</ele>
        <time>2021-05-20T05:50:07Z</time>
      </trkpt>
      <trkpt lat="45.91529" lon="6.5127">
        <ele>2413</ele>
        <time>2021-05-20T05:50:08Z</time>
      </trkpt>
      <trkpt lat="45.9153" lon="6.5127">
        <ele>2413</ele>
        <time>2021-05-20T05:50:09Z</time>
      </trkpt>
      <trkpt lat="45.91531" lon="6.51269">
        <ele>2414</ele>
        <time>2021-05-20T05:50:10Z</time>
      </trkpt>
      <trkpt lat="45.91532" lon="6.51269">
        <ele>2414</ele>
        <time>2021-05-20T05:50:11Z</time>
      </trkpt>
      <trkpt lat="45.91533" lon="6.51269">
        <ele>2414</ele>
        <time>2021-05-20T05:50:12Z</time>
      </trkpt>
      <trkpt lat="45.91533" lon="6.51269">
        <ele>2414</ele>
        <time>2021-05-20T05:50:13Z</time>
      </trkpt>
      <trkpt lat="45.91533" lon="6.51269">
        <ele>2415</ele>
        <time>2021-05-20T05:50:14Z</time>
      </trkpt>
      <trkpt lat="45.91533" lon="6.51269">
        <ele>2415</ele>
        <time>2021-05-20T05:50:15Z</time>
      </trkpt>
      <trkpt lat="45.91533" lon="6.51269">
        <ele>2415</ele>
        <time>2021-05-20T05:50:16Z</time>
      </trkpt>
      <trkpt lat="45.91537" lon="6.51267">
        <ele>2415</ele>
        <time>2021-05-20T05:50:17Z</time>
      </trkpt>
      <trkpt lat="45.91537" lon="6.51267">
        <ele>2415</ele>
        <time>2021-05-20T05:50:18Z</time>
      </trkpt>
      <trkpt lat="45.91537" lon="6.51266">
        <ele>2415</ele>
        <time>2021-05-20T05:50:19Z</time>
      </trkpt>
      <trkpt lat="45.91538" lon="6.51266">
        <ele>2415</ele>
        <time>2021-05-20T05:50:20Z</time>
      </trkpt>
      <trkpt lat="45.91538" lon="6.51266">
        <ele>2415</ele>
        <time>2021-05-20T05:50:21Z</time>
      </trkpt>
      <trkpt lat="45.91539" lon="6.51265">
        <ele>2415</ele>
        <time>2021-05-20T05:50:22Z</time>
      </trkpt>
      <trkpt lat="45.9154" lon="6.51265">
        <ele>2417</ele>
        <time>2021-05-20T05:50:23Z</time>
      </trkpt>
      <trkpt lat="45.9154" lon="6.51264">
        <ele>2417</ele>
        <time>2021-05-20T05:50:24Z</time>
      </trkpt>
      <trkpt lat="45.9154" lon="6.51264">
        <ele>2417</ele>
        <time>2021-05-20T05:50:25Z</time>
      </trkpt>
      <trkpt lat="45.9154" lon="6.51264">
        <ele>2417</ele>
        <time>2021-05-20T05:50:26Z</time>
      </trkpt>
      <trkpt lat="45.9154" lon="6.51264">
        <ele>2418</ele>
        <time>2021-05-20T05:50:27Z</time>
      </trkpt>
      <trkpt lat="45.9154" lon="6.51264">
        <ele>2418</ele>
        <time>2021-05-20T05:50:28Z</time>
      </trkpt>
      <trkpt lat="45.9154" lon="6.51264">
        <ele>2418</ele>
        <time>2021-05-20T05:50:29Z</time>
      </trkpt>
      <trkpt lat="45.91544" lon="6.51262">
        <ele>2419</ele>
        <time>2021-05-20T05:50:30Z</time>
      </trkpt>
      <trkpt lat="45.91544" lon="6.51262">
        <ele>2419</ele>
        <time>2021-05-20T05:50:31Z</time>
      </trkpt>
      <trkpt lat="45.91544" lon="6.51262">
        <ele>2419</ele>
        <time>2021-05-20T05:50:32Z</time>
      </trkpt>
      <trkpt lat="45.91545" lon="6.51261">
        <ele>2419</ele>
        <time>2021-05-20T05:50:33Z</time>
      </trkpt>
      <trkpt lat="45.91545" lon="6.51261">
        <ele>2419</ele>
        <time>2021-05-20T05:50:34Z</time>
      </trkpt>
      <trkpt lat="45.91546" lon="6.5126">
        <ele>2419</ele>
        <time>2021-05-20T05:50:35Z</time>
      </trkpt>
      <trkpt lat="45.91546" lon="6.5126">
        <ele>2419</ele>
        <time>2021-05-20T05:50:36Z</time>
      </trkpt>
      <trkpt lat="45.91547" lon="6.51259">
        <ele>2420</ele>
        <time>2021-05-20T05:50:37Z</time>
      </trkpt>
      <trkpt lat="45.91547" lon="6.51259">
        <ele>2421</ele>
        <time>2021-05-20T05:50:38Z</time>
      </trkpt>
      <trkpt lat="45.91547" lon="6.51259">
        <ele>2421</ele>
        <time>2021-05-20T05:50:39Z</time>
      </trkpt>
      <trkpt lat="45.91547" lon="6.51259">
        <ele>2421</ele>
        <time>2021-05-20T05:50:40Z</time>
      </trkpt>
      <trkpt lat="45.91547" lon="6.51259">
        <ele>2421</ele>
        <time>2021-05-20T05:50:41Z</time>
      </trkpt>
      <trkpt lat="45.91547" lon="6.51259">
        <ele>2421</ele>
        <time>2021-05-20T05:50:42Z</time>
      </trkpt>
      <trkpt lat="45.91547" lon="6.51259">
        <ele>2421</ele>
        <time>2021-05-20T05:50:43Z</time>
      </trkpt>
      <trkpt lat="45.91547" lon="6.51259">
        <ele>2421</ele>
        <time>2021-05-20T05:50:44Z</time>
      </trkpt>
      <trkpt lat="45.9155" lon="6.51257">
        <ele>2422</ele>
        <time>2021-05-20T05:50:45Z</time>
      </trkpt>
      <trkpt lat="45.9155" lon="6.51257">
        <ele>2422</ele>
        <time>2021-05-20T05:50:46Z</time>
      </trkpt>
      <trkpt lat="45.9155" lon="6.51257">
        <ele>2422</ele>
        <time>2021-05-20T05:50:47Z</time>
      </trkpt>
      <trkpt lat="45.9155" lon="6.51258">
        <ele>2422</ele>
        <time>2021-05-20T05:50:48Z</time>
      </trkpt>
      <trkpt lat="45.9155" lon="6.51258">
        <ele>2423</ele>
        <time>2021-05-20T05:50:49Z</time>
      </trkpt>
      <trkpt lat="45.91549" lon="6.51259">
        <ele>2423</ele>
        <time>2021-05-20T05:50:50Z</time>
      </trkpt>
      <trkpt lat="45.91549" lon="6.51259">
        <ele>2423</ele>
        <time>2021-05-20T05:50:51Z</time>
      </trkpt>
      <trkpt lat="45.91549" lon="6.5126">
        <ele>2423</ele>
        <time>2021-05-20T05:50:52Z</time>
      </trkpt>
      <trkpt lat="45.91549" lon="6.5126">
        <ele>2424</ele>
        <time>2021-05-20T05:50:53Z</time>
      </trkpt>
      <trkpt lat="45.91549" lon="6.51261">
        <ele>2424</ele>
        <time>2021-05-20T05:50:54Z</time>
      </trkpt>
      <trkpt lat="45.91549" lon="6.51261">
        <ele>2424</ele>
        <time>2021-05-20T05:50:55Z</time>
      </trkpt>
      <trkpt lat="45.91549" lon="6.51262">
        <ele>2424</ele>
        <time>2021-05-20T05:50:56Z</time>
      </trkpt>
      <trkpt lat="45.91549" lon="6.51262">
        <ele>2424</ele>
        <time>2021-05-20T05:50:57Z</time>
      </trkpt>
      <trkpt lat="45.91549" lon="6.51262">
        <ele>2424</ele>
        <time>2021-05-20T05:50:58Z</time>
      </trkpt>
      <trkpt lat="45.91549" lon="6.51262">
        <ele>2425</ele>
        <time>2021-05-20T05:50:59Z</time>
      </trkpt>
      <trkpt lat="45.91549" lon="6.51262">
        <ele>2425</ele>
        <time>2021-05-20T05:51:00Z</time>
      </trkpt>
      <trkpt lat="45.91549" lon="6.51262">
        <ele>2425</ele>
        <time>2021-05-20T05:51:01Z</time>
      </trkpt>
      <trkpt lat="45.91549" lon="6.51267">
        <ele>2425</ele>
        <time>2021-05-20T05:51:02Z</time>
      </trkpt>
      <trkpt lat="45.91549" lon="6.51267">
        <ele>2426</ele>
        <time>2021-05-20T05:51:03Z</time>
      </trkpt>
      <trkpt lat="45.91549" lon="6.51267">
        <ele>2426</ele>
        <time>2021-05-20T05:51:04Z</time>
      </trkpt>
      <trkpt lat="45.91549" lon="6.51267">
        <ele>2426</ele>
        <time>2021-05-20T05:51:05Z</time>
      </trkpt>
      <trkpt lat="45.91549" lon="6.51267">
        <ele>2426</ele>
        <time>2021-05-20T05:51:06Z</time>
      </trkpt>
      <trkpt lat="45.91549" lon="6.51272">
        <ele>2426</ele>
        <time>2021-05-20T05:51:07Z</time>
      </trkpt>
      <trkpt lat="45.91549" lon="6.51272">
        <ele>2426</ele>
        <time>2021-05-20T05:51:08Z</time>
      </trkpt>
      <trkpt lat="45.91549" lon="6.51272">
        <ele>2426</ele>
        <time>2021-05-20T05:51:09Z</time>
      </trkpt>
      <trkpt lat="45.91549" lon="6.51272">
        <ele>2427</ele>
        <time>2021-05-20T05:51:10Z</time>
      </trkpt>
      <trkpt lat="45.91549" lon="6.51272">
        <ele>2427</ele>
        <time>2021-05-20T05:51:11Z</time>
      </trkpt>
      <trkpt lat="45.91549" lon="6.51272">
        <ele>2427</ele>
        <time>2021-05-20T05:51:12Z</time>
      </trkpt>
      <trkpt lat="45.91549" lon="6.51277">
        <ele>2427</ele>
        <time>2021-05-20T05:51:13Z</time>
      </trkpt>
      <trkpt lat="45.91549" lon="6.51277">
        <ele>2427</ele>
        <time>2021-05-20T05:51:14Z</time>
      </trkpt>
      <trkpt lat="45.91549" lon="6.51277">
        <ele>2428</ele>
        <time>2021-05-20T05:51:15Z</time>
      </trkpt>
      <trkpt lat="45.91549" lon="6.51277">
        <ele>2428</ele>
        <time>2021-05-20T05:51:16Z</time>
      </trkpt>
      <trkpt lat="45.91549" lon="6.51277">
        <ele>2428</ele>
        <time>2021-05-20T05:51:17Z</time>
      </trkpt>
      <trkpt lat="45.91549" lon="6.51277">
        <ele>2428</ele>
        <time>2021-05-20T05:51:18Z</time>
      </trkpt>
      <trkpt lat="45.91549" lon="6.51277">
        <ele>2428</ele>
        <time>2021-05-20T05:51:19Z</time>
      </trkpt>
      <trkpt lat="45.91549" lon="6.51277">
        <ele>2428</ele>
        <time>2021-05-20T05:51:20Z</time>
      </trkpt>
      <trkpt lat="45.91549" lon="6.51277">
        <ele>2428</ele>
        <time>2021-05-20T05:51:21Z</time>
      </trkpt>
      <trkpt lat="45.91552" lon="6.51274">
        <ele>2429</ele>
        <time>2021-05-20T05:51:22Z</time>
      </trkpt>
      <trkpt lat="45.91552" lon="6.51274">
        <ele>2429</ele>
        <time>2021-05-20T05:51:23Z</time>
      </trkpt>
      <trkpt lat="45.91552" lon="6.51274">
        <ele>2429</ele>
        <time>2021-05-20T05:51:24Z</time>
      </trkpt>
      <trkpt lat="45.91553" lon="6.51273">
        <ele>2429</ele>
        <time>2021-05-20T05:51:25Z</time>
      </trkpt>
      <trkpt lat="45.91553" lon="6.51273">
        <ele>2428</ele>
        <time>2021-05-20T05:51:26Z</time>
      </trkpt>
      <trkpt lat="45.91554" lon="6.51272">
        <ele>2429</ele>
        <time>2021-05-20T05:51:27Z</time>
      </trkpt>
      <trkpt lat="45.91554" lon="6.51272">
        <ele>2429</ele>
        <time>2021-05-20T05:51:28Z</time>
      </trkpt>
      <trkpt lat="45.91555" lon="6.51271">
        <ele>2429</ele>
        <time>2021-05-20T05:51:29Z</time>
      </trkpt>
      <trkpt lat="45.91555" lon="6.51271">
        <ele>2429</ele>
        <time>2021-05-20T05:51:30Z</time>
      </trkpt>
      <trkpt lat="45.91555" lon="6.51271">
        <ele>2429</ele>
        <time>2021-05-20T05:51:31Z</time>
      </trkpt>
      <trkpt lat="45.91555" lon="6.51271">
        <ele>2429</ele>
        <time>2021-05-20T05:51:32Z</time>
      </trkpt>
      <trkpt lat="45.91555" lon="6.51271">
        <ele>2429</ele>
        <time>2021-05-20T05:51:33Z</time>
      </trkpt>
      <trkpt lat="45.91555" lon="6.51271">
        <ele>2430</ele>
        <time>2021-05-20T05:51:34Z</time>
      </trkpt>
      <trkpt lat="45.91555" lon="6.51271">
        <ele>2430</ele>
        <time>2021-05-20T05:51:35Z</time>
      </trkpt>
      <trkpt lat="45.91558" lon="6.51269">
        <ele>2431</ele>
        <time>2021-05-20T05:51:36Z</time>
      </trkpt>
      <trkpt lat="45.91558" lon="6.51269">
        <ele>2431</ele>
        <time>2021-05-20T05:51:37Z</time>
      </trkpt>
      <trkpt lat="45.91559" lon="6.51268">
        <ele>2431</ele>
        <time>2021-05-20T05:51:38Z</time>
      </trkpt>
      <trkpt lat="45.91559" lon="6.51268">
        <ele>2431</ele>
        <time>2021-05-20T05:51:39Z</time>
      </trkpt>
      <trkpt lat="45.9156" lon="6.51268">
        <ele>2431</ele>
        <time>2021-05-20T05:51:40Z</time>
      </trkpt>
      <trkpt lat="45.9156" lon="6.51267">
        <ele>2432</ele>
        <time>2021-05-20T05:51:41Z</time>
      </trkpt>
      <trkpt lat="45.91561" lon="6.51267">
        <ele>2432</ele>
        <time>2021-05-20T05:51:42Z</time>
      </trkpt>
      <trkpt lat="45.91561" lon="6.51267">
        <ele>2432</ele>
        <time>2021-05-20T05:51:43Z</time>
      </trkpt>
      <trkpt lat="45.91562" lon="6.51267">
        <ele>2432</ele>
        <time>2021-05-20T05:51:44Z</time>
      </trkpt>
      <trkpt lat="45.91562" lon="6.51267">
        <ele>2432</ele>
        <time>2021-05-20T05:51:45Z</time>
      </trkpt>
      <trkpt lat="45.91562" lon="6.51267">
        <ele>2433</ele>
        <time>2021-05-20T05:51:46Z</time>
      </trkpt>
      <trkpt lat="45.91562" lon="6.51267">
        <ele>2433</ele>
        <time>2021-05-20T05:51:47Z</time>
      </trkpt>
      <trkpt lat="45.91562" lon="6.51267">
        <ele>2433</ele>
        <time>2021-05-20T05:51:48Z</time>
      </trkpt>
      <trkpt lat="45.91562" lon="6.51267">
        <ele>2433</ele>
        <time>2021-05-20T05:51:49Z</time>
      </trkpt>
      <trkpt lat="45.91562" lon="6.51267">
        <ele>2433</ele>
        <time>2021-05-20T05:51:50Z</time>
      </trkpt>
      <trkpt lat="45.91562" lon="6.51267">
        <ele>2433</ele>
        <time>2021-05-20T05:51:51Z</time>
      </trkpt>
      <trkpt lat="45.91562" lon="6.51267">
        <ele>2433</ele>
        <time>2021-05-20T05:51:52Z</time>
      </trkpt>
      <trkpt lat="45.91565" lon="6.51266">
        <ele>2434</ele>
        <time>2021-05-20T05:51:53Z</time>
      </trkpt>
      <trkpt lat="45.91565" lon="6.51266">
        <ele>2434</ele>
        <time>2021-05-20T05:51:54Z</time>
      </trkpt>
      <trkpt lat="45.91565" lon="6.51266">
        <ele>2434</ele>
        <time>2021-05-20T05:51:55Z</time>
      </trkpt>
      <trkpt lat="45.91565" lon="6.51266">
        <ele>2434</ele>
        <time>2021-05-20T05:51:56Z</time>
      </trkpt>
      <trkpt lat="45.91565" lon="6.51266">
        <ele>2434</ele>
        <time>2021-05-20T05:51:57Z</time>
      </trkpt>
      <trkpt lat="45.91565" lon="6.51266">
        <ele>2435</ele>
        <time>2021-05-20T05:51:58Z</time>
      </trkpt>
      <trkpt lat="45.91565" lon="6.51266">
        <ele>2435</ele>
        <time>2021-05-20T05:51:59Z</time>
      </trkpt>
      <trkpt lat="45.91569" lon="6.51267">
        <ele>2435</ele>
        <time>2021-05-20T05:52:00Z</time>
      </trkpt>
      <trkpt lat="45.91569" lon="6.51267">
        <ele>2436</ele>
        <time>2021-05-20T05:52:01Z</time>
      </trkpt>
      <trkpt lat="45.91569" lon="6.51267">
        <ele>2436</ele>
        <time>2021-05-20T05:52:02Z</time>
      </trkpt>
      <trkpt lat="45.91569" lon="6.51267">
        <ele>2436</ele>
        <time>2021-05-20T05:52:03Z</time>
      </trkpt>
      <trkpt lat="45.91569" lon="6.51267">
        <ele>2436</ele>
        <time>2021-05-20T05:52:04Z</time>
      </trkpt>
      <trkpt lat="45.91569" lon="6.51267">
        <ele>2436</ele>
        <time>2021-05-20T05:52:05Z</time>
      </trkpt>
      <trkpt lat="45.91569" lon="6.51267">
        <ele>2436</ele>
        <time>2021-05-20T05:52:06Z</time>
      </trkpt>
      <trkpt lat="45.91569" lon="6.51267">
        <ele>2436</ele>
        <time>2021-05-20T05:52:07Z</time>
      </trkpt>
      <trkpt lat="45.91569" lon="6.51267">
        <ele>2436</ele>
        <time>2021-05-20T05:52:08Z</time>
      </trkpt>
      <trkpt lat="45.91569" lon="6.51267">
        <ele>2437</ele>
        <time>2021-05-20T05:52:09Z</time>
      </trkpt>
      <trkpt lat="45.91569" lon="6.51267">
        <ele>2437</ele>
        <time>2021-05-20T05:52:10Z</time>
      </trkpt>
      <trkpt lat="45.91569" lon="6.51267">
        <ele>2437</ele>
        <time>2021-05-20T05:52:11Z</time>
      </trkpt>
      <trkpt lat="45.91569" lon="6.51267">
        <ele>2437</ele>
        <time>2021-05-20T05:52:12Z</time>
      </trkpt>
      <trkpt lat="45.91569" lon="6.51267">
        <ele>2437</ele>
        <time>2021-05-20T05:52:13Z</time>
      </trkpt>
      <trkpt lat="45.91571" lon="6.51267">
        <ele>2438</ele>
        <time>2021-05-20T05:52:14Z</time>
      </trkpt>
      <trkpt lat="45.91571" lon="6.51267">
        <ele>2438</ele>
        <time>2021-05-20T05:52:15Z</time>
      </trkpt>
      <trkpt lat="45.91571" lon="6.51267">
        <ele>2438</ele>
        <time>2021-05-20T05:52:16Z</time>
      </trkpt>
      <trkpt lat="45.91571" lon="6.51267">
        <ele>2438</ele>
        <time>2021-05-20T05:52:17Z</time>
      </trkpt>
      <trkpt lat="45.91571" lon="6.51267">
        <ele>2438</ele>
        <time>2021-05-20T05:52:18Z</time>
      </trkpt>
      <trkpt lat="45.91571" lon="6.51267">
        <ele>2438</ele>
        <time>2021-05-20T05:52:19Z</time>
      </trkpt>
      <trkpt lat="45.91571" lon="6.51267">
        <ele>2439</ele>
        <time>2021-05-20T05:52:20Z</time>
      </trkpt>
      <trkpt lat="45.91571" lon="6.51267">
        <ele>2439</ele>
        <time>2021-05-20T05:52:21Z</time>
      </trkpt>
      <trkpt lat="45.91571" lon="6.51267">
        <ele>2439</ele>
        <time>2021-05-20T05:52:22Z</time>
      </trkpt>
      <trkpt lat="45.91571" lon="6.51267">
        <ele>2439</ele>
        <time>2021-05-20T05:52:23Z</time>
      </trkpt>
      <trkpt lat="45.91571" lon="6.51267">
        <ele>2439</ele>
        <time>2021-05-20T05:52:24Z</time>
      </trkpt>
      <trkpt lat="45.91571" lon="6.51267">
        <ele>2439</ele>
        <time>2021-05-20T05:52:25Z</time>
      </trkpt>
      <trkpt lat="45.91571" lon="6.51267">
        <ele>2439</ele>
        <time>2021-05-20T05:52:26Z</time>
      </trkpt>
      <trkpt lat="45.91571" lon="6.51267">
        <ele>2439</ele>
        <time>2021-05-20T05:52:27Z</time>
      </trkpt>
      <trkpt lat="45.91571" lon="6.51267">
        <ele>2439</ele>
        <time>2021-05-20T05:52:28Z</time>
      </trkpt>
      <trkpt lat="45.91571" lon="6.51267">
        <ele>2439</ele>
        <time>2021-05-20T05:52:29Z</time>
      </trkpt>
      <trkpt lat="45.91571" lon="6.51267">
        <ele>2439</ele>
        <time>2021-05-20T05:52:30Z</time>
      </trkpt>
      <trkpt lat="45.91571" lon="6.51267">
        <ele>2439</ele>
        <time>2021-05-20T05:52:31Z</time>
      </trkpt>
      <trkpt lat="45.91571" lon="6.51267">
        <ele>2439</ele>
        <time>2021-05-20T05:52:32Z</time>
      </trkpt>
      <trkpt lat="45.91571" lon="6.51267">
        <ele>2438</ele>
        <time>2021-05-20T05:52:33Z</time>
      </trkpt>
      <trkpt lat="45.91571" lon="6.51267">
        <ele>2438</ele>
        <time>2021-05-20T05:52:34Z</time>
      </trkpt>
      <trkpt lat="45.91571" lon="6.51267">
        <ele>2438</ele>
        <time>2021-05-20T05:52:35Z</time>
      </trkpt>
      <trkpt lat="45.91574" lon="6.51264">
        <ele>2438</ele>
        <time>2021-05-20T05:52:36Z</time>
      </trkpt>
      <trkpt lat="45.91574" lon="6.51264">
        <ele>2438</ele>
        <time>2021-05-20T05:52:37Z</time>
      </trkpt>
      <trkpt lat="45.91575" lon="6.51264">
        <ele>2438</ele>
        <time>2021-05-20T05:52:38Z</time>
      </trkpt>
      <trkpt lat="45.91575" lon="6.51264">
        <ele>2438</ele>
        <time>2021-05-20T05:52:39Z</time>
      </trkpt>
      <trkpt lat="45.91575" lon="6.51264">
        <ele>2438</ele>
        <time>2021-05-20T05:52:40Z</time>
      </trkpt>
      <trkpt lat="45.91575" lon="6.51264">
        <ele>2438</ele>
        <time>2021-05-20T05:52:41Z</time>
      </trkpt>
      <trkpt lat="45.91575" lon="6.51263">
        <ele>2438</ele>
        <time>2021-05-20T05:52:42Z</time>
      </trkpt>
      <trkpt lat="45.91576" lon="6.51263">
        <ele>2438</ele>
        <time>2021-05-20T05:52:43Z</time>
      </trkpt>
      <trkpt lat="45.91576" lon="6.51263">
        <ele>2438</ele>
        <time>2021-05-20T05:52:44Z</time>
      </trkpt>
      <trkpt lat="45.91576" lon="6.51263">
        <ele>2439</ele>
        <time>2021-05-20T05:52:45Z</time>
      </trkpt>
      <trkpt lat="45.91576" lon="6.51263">
        <ele>2439</ele>
        <time>2021-05-20T05:52:46Z</time>
      </trkpt>
      <trkpt lat="45.91576" lon="6.51263">
        <ele>2439</ele>
        <time>2021-05-20T05:52:47Z</time>
      </trkpt>
      <trkpt lat="45.91576" lon="6.51263">
        <ele>2439</ele>
        <time>2021-05-20T05:52:48Z</time>
      </trkpt>
      <trkpt lat="45.91577" lon="6.51263">
        <ele>2439</ele>
        <time>2021-05-20T05:52:49Z</time>
      </trkpt>
      <trkpt lat="45.91577" lon="6.51262">
        <ele>2439</ele>
        <time>2021-05-20T05:52:50Z</time>
      </trkpt>
      <trkpt lat="45.91577" lon="6.51262">
        <ele>2439</ele>
        <time>2021-05-20T05:52:51Z</time>
      </trkpt>
      <trkpt lat="45.91577" lon="6.51262">
        <ele>2439</ele>
        <time>2021-05-20T05:52:52Z</time>
      </trkpt>
      <trkpt lat="45.91577" lon="6.51262">
        <ele>2439</ele>
        <time>2021-05-20T05:52:53Z</time>
      </trkpt>
      <trkpt lat="45.91577" lon="6.51262">
        <ele>2439</ele>
        <time>2021-05-20T05:52:54Z</time>
      </trkpt>
      <trkpt lat="45.91578" lon="6.51262">
        <ele>2440</ele>
        <time>2021-05-20T05:52:55Z</time>
      </trkpt>
      <trkpt lat="45.91578" lon="6.51262">
        <ele>2440</ele>
        <time>2021-05-20T05:52:56Z</time>
      </trkpt>
      <trkpt lat="45.91578" lon="6.51262">
        <ele>2440</ele>
        <time>2021-05-20T05:52:57Z</time>
      </trkpt>
      <trkpt lat="45.91578" lon="6.51262">
        <ele>2440</ele>
        <time>2021-05-20T05:52:58Z</time>
      </trkpt>
      <trkpt lat="45.91582" lon="6.51261">
        <ele>2440</ele>
        <time>2021-05-20T05:52:59Z</time>
      </trkpt>
      <trkpt lat="45.91582" lon="6.51261">
        <ele>2441</ele>
        <time>2021-05-20T05:53:00Z</time>
      </trkpt>
      <trkpt lat="45.91582" lon="6.51261">
        <ele>2441</ele>
        <time>2021-05-20T05:53:01Z</time>
      </trkpt>
      <trkpt lat="45.91582" lon="6.51261">
        <ele>2441</ele>
        <time>2021-05-20T05:53:02Z</time>
      </trkpt>
      <trkpt lat="45.91582" lon="6.51261">
        <ele>2443</ele>
        <time>2021-05-20T05:53:03Z</time>
      </trkpt>
      <trkpt lat="45.91582" lon="6.51261">
        <ele>2443</ele>
        <time>2021-05-20T05:53:04Z</time>
      </trkpt>
      <trkpt lat="45.91585" lon="6.51262">
        <ele>2443</ele>
        <time>2021-05-20T05:53:05Z</time>
      </trkpt>
      <trkpt lat="45.91585" lon="6.51262">
        <ele>2443</ele>
        <time>2021-05-20T05:53:06Z</time>
      </trkpt>
      <trkpt lat="45.91585" lon="6.51262">
        <ele>2443</ele>
        <time>2021-05-20T05:53:07Z</time>
      </trkpt>
      <trkpt lat="45.91585" lon="6.51262">
        <ele>2444</ele>
        <time>2021-05-20T05:53:08Z</time>
      </trkpt>
      <trkpt lat="45.91585" lon="6.51262">
        <ele>2444</ele>
        <time>2021-05-20T05:53:09Z</time>
      </trkpt>
      <trkpt lat="45.91585" lon="6.51262">
        <ele>2444</ele>
        <time>2021-05-20T05:53:10Z</time>
      </trkpt>
      <trkpt lat="45.91585" lon="6.51262">
        <ele>2445</ele>
        <time>2021-05-20T05:53:11Z</time>
      </trkpt>
      <trkpt lat="45.91585" lon="6.51263">
        <ele>2445</ele>
        <time>2021-05-20T05:53:12Z</time>
      </trkpt>
      <trkpt lat="45.91585" lon="6.51263">
        <ele>2446</ele>
        <time>2021-05-20T05:53:13Z</time>
      </trkpt>
      <trkpt lat="45.91585" lon="6.51263">
        <ele>2446</ele>
        <time>2021-05-20T05:53:14Z</time>
      </trkpt>
      <trkpt lat="45.91585" lon="6.51263">
        <ele>2446</ele>
        <time>2021-05-20T05:53:15Z</time>
      </trkpt>
      <trkpt lat="45.91585" lon="6.51263">
        <ele>2446</ele>
        <time>2021-05-20T05:53:16Z</time>
      </trkpt>
      <trkpt lat="45.91585" lon="6.51263">
        <ele>2447</ele>
        <time>2021-05-20T05:53:17Z</time>
      </trkpt>
      <trkpt lat="45.91585" lon="6.51263">
        <ele>2447</ele>
        <time>2021-05-20T05:53:18Z</time>
      </trkpt>
      <trkpt lat="45.91585" lon="6.51263">
        <ele>2446</ele>
        <time>2021-05-20T05:53:19Z</time>
      </trkpt>
      <trkpt lat="45.91585" lon="6.51263">
        <ele>2446</ele>
        <time>2021-05-20T05:53:20Z</time>
      </trkpt>
      <trkpt lat="45.91585" lon="6.51263">
        <ele>2446</ele>
        <time>2021-05-20T05:53:21Z</time>
      </trkpt>
      <trkpt lat="45.91585" lon="6.51263">
        <ele>2446</ele>
        <time>2021-05-20T05:53:22Z</time>
      </trkpt>
      <trkpt lat="45.91585" lon="6.51263">
        <ele>2447</ele>
        <time>2021-05-20T05:53:23Z</time>
      </trkpt>
      <trkpt lat="45.91585" lon="6.51263">
        <ele>2447</ele>
        <time>2021-05-20T05:53:24Z</time>
      </trkpt>
      <trkpt lat="45.91585" lon="6.51263">
        <ele>2447</ele>
        <time>2021-05-20T05:53:25Z</time>
      </trkpt>
      <trkpt lat="45.91585" lon="6.51263">
        <ele>2447</ele>
        <time>2021-05-20T05:53:26Z</time>
      </trkpt>
      <trkpt lat="45.91582" lon="6.51264">
        <ele>2447</ele>
        <time>2021-05-20T05:53:27Z</time>
      </trkpt>
      <trkpt lat="45.91582" lon="6.51264">
        <ele>2447</ele>
        <time>2021-05-20T05:53:28Z</time>
      </trkpt>
      <trkpt lat="45.91582" lon="6.51264">
        <ele>2447</ele>
        <time>2021-05-20T05:53:29Z</time>
      </trkpt>
      <trkpt lat="45.91582" lon="6.51264">
        <ele>2447</ele>
        <time>2021-05-20T05:53:30Z</time>
      </trkpt>
      <trkpt lat="45.91582" lon="6.51264">
        <ele>2447</ele>
        <time>2021-05-20T05:53:31Z</time>
      </trkpt>
      <trkpt lat="45.91582" lon="6.51264">
        <ele>2447</ele>
        <time>2021-05-20T05:53:32Z</time>
      </trkpt>
      <trkpt lat="45.91582" lon="6.51264">
        <ele>2447</ele>
        <time>2021-05-20T05:53:33Z</time>
      </trkpt>
      <trkpt lat="45.91582" lon="6.51264">
        <ele>2447</ele>
        <time>2021-05-20T05:53:34Z</time>
      </trkpt>
      <trkpt lat="45.91582" lon="6.51264">
        <ele>2447</ele>
        <time>2021-05-20T05:53:35Z</time>
      </trkpt>
      <trkpt lat="45.91582" lon="6.51264">
        <ele>2447</ele>
        <time>2021-05-20T05:53:36Z</time>
      </trkpt>
      <trkpt lat="45.91582" lon="6.51264">
        <ele>2447</ele>
        <time>2021-05-20T05:53:37Z</time>
      </trkpt>
      <trkpt lat="45.91582" lon="6.51264">
        <ele>2447</ele>
        <time>2021-05-20T05:53:38Z</time>
      </trkpt>
      <trkpt lat="45.91582" lon="6.51264">
        <ele>2447</ele>
        <time>2021-05-20T05:53:39Z</time>
      </trkpt>
      <trkpt lat="45.91582" lon="6.51264">
        <ele>2447</ele>
        <time>2021-05-20T05:53:40Z</time>
      </trkpt>
      <trkpt lat="45.91582" lon="6.51264">
        <ele>2447</ele>
        <time>2021-05-20T05:53:41Z</time>
      </trkpt>
      <trkpt lat="45.91582" lon="6.51264">
        <ele>2447</ele>
        <time>2021-05-20T05:53:42Z</time>
      </trkpt>
      <trkpt lat="45.91582" lon="6.51264">
        <ele>2447</ele>
        <time>2021-05-20T05:53:43Z</time>
      </trkpt>
      <trkpt lat="45.91582" lon="6.51264">
        <ele>2447</ele>
        <time>2021-05-20T05:53:44Z</time>
      </trkpt>
      <trkpt lat="45.91582" lon="6.51264">
        <ele>2447</ele>
        <time>2021-05-20T05:53:45Z</time>
      </trkpt>
      <trkpt lat="45.91582" lon="6.51264">
        <ele>2447</ele>
        <time>2021-05-20T05:53:46Z</time>
      </trkpt>
      <trkpt lat="45.91582" lon="6.51264">
        <ele>2447</ele>
        <time>2021-05-20T05:53:47Z</time>
      </trkpt>
      <trkpt lat="45.91582" lon="6.51264">
        <ele>2447</ele>
        <time>2021-05-20T05:53:48Z</time>
      </trkpt>
      <trkpt lat="45.91582" lon="6.51264">
        <ele>2447</ele>
        <time>2021-05-20T05:53:49Z</time>
      </trkpt>
      <trkpt lat="45.91582" lon="6.51264">
        <ele>2447</ele>
        <time>2021-05-20T05:53:50Z</time>
      </trkpt>
      <trkpt lat="45.91582" lon="6.51264">
        <ele>2447</ele>
        <time>2021-05-20T05:53:51Z</time>
      </trkpt>
      <trkpt lat="45.91582" lon="6.51264">
        <ele>2447</ele>
        <time>2021-05-20T05:53:52Z</time>
      </trkpt>
      <trkpt lat="45.91582" lon="6.51264">
        <ele>2447</ele>
        <time>2021-05-20T05:53:53Z</time>
      </trkpt>
      <trkpt lat="45.91582" lon="6.51264">
        <ele>2446</ele>
        <time>2021-05-20T05:53:54Z</time>
      </trkpt>
      <trkpt lat="45.91582" lon="6.51264">
        <ele>2447</ele>
        <time>2021-05-20T05:53:55Z</time>
      </trkpt>
      <trkpt lat="45.91582" lon="6.51264">
        <ele>2447</ele>
        <time>2021-05-20T05:53:56Z</time>
      </trkpt>
      <trkpt lat="45.91585" lon="6.51263">
        <ele>2447</ele>
        <time>2021-05-20T05:53:57Z</time>
      </trkpt>
      <trkpt lat="45.91585" lon="6.51263">
        <ele>2448</ele>
        <time>2021-05-20T05:53:58Z</time>
      </trkpt>
      <trkpt lat="45.91585" lon="6.51263">
        <ele>2448</ele>
        <time>2021-05-20T05:53:59Z</time>
      </trkpt>
      <trkpt lat="45.91585" lon="6.51263">
        <ele>2448</ele>
        <time>2021-05-20T05:54:00Z</time>
      </trkpt>
      <trkpt lat="45.91585" lon="6.51263">
        <ele>2448</ele>
        <time>2021-05-20T05:54:01Z</time>
      </trkpt>
      <trkpt lat="45.91585" lon="6.51263">
        <ele>2448</ele>
        <time>2021-05-20T05:54:02Z</time>
      </trkpt>
      <trkpt lat="45.91585" lon="6.51263">
        <ele>2448</ele>
        <time>2021-05-20T05:54:03Z</time>
      </trkpt>
      <trkpt lat="45.91589" lon="6.51263">
        <ele>2448</ele>
        <time>2021-05-20T05:54:04Z</time>
      </trkpt>
      <trkpt lat="45.91589" lon="6.51263">
        <ele>2448</ele>
        <time>2021-05-20T05:54:05Z</time>
      </trkpt>
      <trkpt lat="45.91589" lon="6.51263">
        <ele>2448</ele>
        <time>2021-05-20T05:54:06Z</time>
      </trkpt>
      <trkpt lat="45.91589" lon="6.51263">
        <ele>2448</ele>
        <time>2021-05-20T05:54:07Z</time>
      </trkpt>
      <trkpt lat="45.91589" lon="6.51263">
        <ele>2447</ele>
        <time>2021-05-20T05:54:08Z</time>
      </trkpt>
      <trkpt lat="45.91589" lon="6.51263">
        <ele>2447</ele>
        <time>2021-05-20T05:54:09Z</time>
      </trkpt>
      <trkpt lat="45.91589" lon="6.51263">
        <ele>2448</ele>
        <time>2021-05-20T05:54:10Z</time>
      </trkpt>
      <trkpt lat="45.91589" lon="6.51263">
        <ele>2448</ele>
        <time>2021-05-20T05:54:11Z</time>
      </trkpt>
      <trkpt lat="45.91589" lon="6.51263">
        <ele>2448</ele>
        <time>2021-05-20T05:54:12Z</time>
      </trkpt>
      <trkpt lat="45.91589" lon="6.51263">
        <ele>2448</ele>
        <time>2021-05-20T05:54:13Z</time>
      </trkpt>
      <trkpt lat="45.91589" lon="6.51263">
        <ele>2448</ele>
        <time>2021-05-20T05:54:14Z</time>
      </trkpt>
      <trkpt lat="45.91589" lon="6.51262">
        <ele>2448</ele>
        <time>2021-05-20T05:54:15Z</time>
      </trkpt>
      <trkpt lat="45.91589" lon="6.51262">
        <ele>2448</ele>
        <time>2021-05-20T05:54:16Z</time>
      </trkpt>
      <trkpt lat="45.91589" lon="6.51262">
        <ele>2448</ele>
        <time>2021-05-20T05:54:17Z</time>
      </trkpt>
      <trkpt lat="45.91589" lon="6.51262">
        <ele>2448</ele>
        <time>2021-05-20T05:54:18Z</time>
      </trkpt>
      <trkpt lat="45.91589" lon="6.51262">
        <ele>2449</ele>
        <time>2021-05-20T05:54:19Z</time>
      </trkpt>
      <trkpt lat="45.91589" lon="6.51262">
        <ele>2450</ele>
        <time>2021-05-20T05:54:20Z</time>
      </trkpt>
      <trkpt lat="45.91589" lon="6.51262">
        <ele>2450</ele>
        <time>2021-05-20T05:54:21Z</time>
      </trkpt>
      <trkpt lat="45.91589" lon="6.51262">
        <ele>2450</ele>
        <time>2021-05-20T05:54:22Z</time>
      </trkpt>
      <trkpt lat="45.91589" lon="6.51262">
        <ele>2450</ele>
        <time>2021-05-20T05:54:23Z</time>
      </trkpt>
      <trkpt lat="45.91589" lon="6.51262">
        <ele>2450</ele>
        <time>2021-05-20T05:54:24Z</time>
      </trkpt>
      <trkpt lat="45.91588" lon="6.51262">
        <ele>2450</ele>
        <time>2021-05-20T05:54:25Z</time>
      </trkpt>
      <trkpt lat="45.91588" lon="6.51262">
        <ele>2449</ele>
        <time>2021-05-20T05:54:26Z</time>
      </trkpt>
      <trkpt lat="45.91588" lon="6.51262">
        <ele>2449</ele>
        <time>2021-05-20T05:54:27Z</time>
      </trkpt>
      <trkpt lat="45.91588" lon="6.51262">
        <ele>2449</ele>
        <time>2021-05-20T05:54:28Z</time>
      </trkpt>
      <trkpt lat="45.91588" lon="6.51262">
        <ele>2448</ele>
        <time>2021-05-20T05:54:29Z</time>
      </trkpt>
      <trkpt lat="45.91588" lon="6.51262">
        <ele>2448</ele>
        <time>2021-05-20T05:54:30Z</time>
      </trkpt>
      <trkpt lat="45.91588" lon="6.51262">
        <ele>2448</ele>
        <time>2021-05-20T05:54:31Z</time>
      </trkpt>
      <trkpt lat="45.91588" lon="6.51262">
        <ele>2448</ele>
        <time>2021-05-20T05:54:32Z</time>
      </trkpt>
      <trkpt lat="45.91588" lon="6.51262">
        <ele>2448</ele>
        <time>2021-05-20T05:54:33Z</time>
      </trkpt>
      <trkpt lat="45.91588" lon="6.51262">
        <ele>2448</ele>
        <time>2021-05-20T05:54:34Z</time>
      </trkpt>
      <trkpt lat="45.91588" lon="6.51262">
        <ele>2448</ele>
        <time>2021-05-20T05:54:35Z</time>
      </trkpt>
      <trkpt lat="45.91588" lon="6.51262">
        <ele>2448</ele>
        <time>2021-05-20T05:54:36Z</time>
      </trkpt>
      <trkpt lat="45.91588" lon="6.51262">
        <ele>2448</ele>
        <time>2021-05-20T05:54:37Z</time>
      </trkpt>
      <trkpt lat="45.91588" lon="6.51262">
        <ele>2448</ele>
        <time>2021-05-20T05:54:38Z</time>
      </trkpt>
      <trkpt lat="45.91588" lon="6.51262">
        <ele>2448</ele>
        <time>2021-05-20T05:54:39Z</time>
      </trkpt>
      <trkpt lat="45.91588" lon="6.51262">
        <ele>2448</ele>
        <time>2021-05-20T05:54:40Z</time>
      </trkpt>
      <trkpt lat="45.91588" lon="6.51261">
        <ele>2448</ele>
        <time>2021-05-20T05:54:41Z</time>
      </trkpt>
      <trkpt lat="45.91588" lon="6.51261">
        <ele>2448</ele>
        <time>2021-05-20T05:54:42Z</time>
      </trkpt>
      <trkpt lat="45.91588" lon="6.51261">
        <ele>2448</ele>
        <time>2021-05-20T05:54:43Z</time>
      </trkpt>
      <trkpt lat="45.91588" lon="6.51261">
        <ele>2448</ele>
        <time>2021-05-20T05:54:44Z</time>
      </trkpt>
      <trkpt lat="45.91588" lon="6.51261">
        <ele>2448</ele>
        <time>2021-05-20T05:54:45Z</time>
      </trkpt>
      <trkpt lat="45.91588" lon="6.51261">
        <ele>2448</ele>
        <time>2021-05-20T05:54:46Z</time>
      </trkpt>
      <trkpt lat="45.91588" lon="6.51261">
        <ele>2448</ele>
        <time>2021-05-20T05:54:47Z</time>
      </trkpt>
      <trkpt lat="45.91588" lon="6.51261">
        <ele>2448</ele>
        <time>2021-05-20T05:54:48Z</time>
      </trkpt>
      <trkpt lat="45.91588" lon="6.51261">
        <ele>2448</ele>
        <time>2021-05-20T05:54:49Z</time>
      </trkpt>
      <trkpt lat="45.91588" lon="6.51261">
        <ele>2448</ele>
        <time>2021-05-20T05:54:50Z</time>
      </trkpt>
      <trkpt lat="45.91588" lon="6.51261">
        <ele>2448</ele>
        <time>2021-05-20T05:54:51Z</time>
      </trkpt>
      <trkpt lat="45.91588" lon="6.51261">
        <ele>2448</ele>
        <time>2021-05-20T05:54:52Z</time>
      </trkpt>
      <trkpt lat="45.91588" lon="6.51261">
        <ele>2448</ele>
        <time>2021-05-20T05:54:53Z</time>
      </trkpt>
      <trkpt lat="45.91588" lon="6.51261">
        <ele>2448</ele>
        <time>2021-05-20T05:54:54Z</time>
      </trkpt>
      <trkpt lat="45.91588" lon="6.51261">
        <ele>2448</ele>
        <time>2021-05-20T05:54:55Z</time>
      </trkpt>
      <trkpt lat="45.91588" lon="6.51261">
        <ele>2448</ele>
        <time>2021-05-20T05:54:56Z</time>
      </trkpt>
      <trkpt lat="45.91588" lon="6.51261">
        <ele>2448</ele>
        <time>2021-05-20T05:54:57Z</time>
      </trkpt>
      <trkpt lat="45.91588" lon="6.51261">
        <ele>2448</ele>
        <time>2021-05-20T05:54:58Z</time>
      </trkpt>
      <trkpt lat="45.91588" lon="6.51261">
        <ele>2448</ele>
        <time>2021-05-20T05:54:59Z</time>
      </trkpt>
      <trkpt lat="45.91588" lon="6.51261">
        <ele>2448</ele>
        <time>2021-05-20T05:55:00Z</time>
      </trkpt>
      <trkpt lat="45.91587" lon="6.51261">
        <ele>2448</ele>
        <time>2021-05-20T05:55:01Z</time>
      </trkpt>
      <trkpt lat="45.91587" lon="6.51261">
        <ele>2449</ele>
        <time>2021-05-20T05:55:02Z</time>
      </trkpt>
      <trkpt lat="45.91587" lon="6.51261">
        <ele>2449</ele>
        <time>2021-05-20T05:55:03Z</time>
      </trkpt>
      <trkpt lat="45.91587" lon="6.51261">
        <ele>2449</ele>
        <time>2021-05-20T05:55:04Z</time>
      </trkpt>
      <trkpt lat="45.91587" lon="6.51261">
        <ele>2449</ele>
        <time>2021-05-20T05:55:05Z</time>
      </trkpt>
      <trkpt lat="45.91587" lon="6.51261">
        <ele>2449</ele>
        <time>2021-05-20T05:55:06Z</time>
      </trkpt>
      <trkpt lat="45.91587" lon="6.5126">
        <ele>2449</ele>
        <time>2021-05-20T05:55:07Z</time>
      </trkpt>
      <trkpt lat="45.91587" lon="6.5126">
        <ele>2449</ele>
        <time>2021-05-20T05:55:08Z</time>
      </trkpt>
      <trkpt lat="45.91587" lon="6.5126">
        <ele>2449</ele>
        <time>2021-05-20T05:55:09Z</time>
      </trkpt>
      <trkpt lat="45.91587" lon="6.5126">
        <ele>2448</ele>
        <time>2021-05-20T05:55:10Z</time>
      </trkpt>
      <trkpt lat="45.91587" lon="6.5126">
        <ele>2448</ele>
        <time>2021-05-20T05:55:11Z</time>
      </trkpt>
      <trkpt lat="45.91587" lon="6.5126">
        <ele>2448</ele>
        <time>2021-05-20T05:55:12Z</time>
      </trkpt>
      <trkpt lat="45.91587" lon="6.5126">
        <ele>2447</ele>
        <time>2021-05-20T05:55:13Z</time>
      </trkpt>
      <trkpt lat="45.91587" lon="6.5126">
        <ele>2448</ele>
        <time>2021-05-20T05:55:14Z</time>
      </trkpt>
      <trkpt lat="45.91587" lon="6.5126">
        <ele>2449</ele>
        <time>2021-05-20T05:55:15Z</time>
      </trkpt>
      <trkpt lat="45.91587" lon="6.5126">
        <ele>2449</ele>
        <time>2021-05-20T05:55:16Z</time>
      </trkpt>
      <trkpt lat="45.91587" lon="6.5126">
        <ele>2449</ele>
        <time>2021-05-20T05:55:17Z</time>
      </trkpt>
      <trkpt lat="45.91587" lon="6.5126">
        <ele>2450</ele>
        <time>2021-05-20T05:55:18Z</time>
      </trkpt>
      <trkpt lat="45.91587" lon="6.5126">
        <ele>2450</ele>
        <time>2021-05-20T05:55:19Z</time>
      </trkpt>
      <trkpt lat="45.91587" lon="6.5126">
        <ele>2450</ele>
        <time>2021-05-20T05:55:20Z</time>
      </trkpt>
      <trkpt lat="45.91587" lon="6.5126">
        <ele>2450</ele>
        <time>2021-05-20T05:55:21Z</time>
      </trkpt>
      <trkpt lat="45.91587" lon="6.5126">
        <ele>2450</ele>
        <time>2021-05-20T05:55:22Z</time>
      </trkpt>
      <trkpt lat="45.91587" lon="6.5126">
        <ele>2450</ele>
        <time>2021-05-20T05:55:23Z</time>
      </trkpt>
      <trkpt lat="45.91587" lon="6.5126">
        <ele>2449</ele>
        <time>2021-05-20T05:55:24Z</time>
      </trkpt>
      <trkpt lat="45.91587" lon="6.5126">
        <ele>2448</ele>
        <time>2021-05-20T05:55:25Z</time>
      </trkpt>
      <trkpt lat="45.91587" lon="6.5126">
        <ele>2448</ele>
        <time>2021-05-20T05:55:26Z</time>
      </trkpt>
      <trkpt lat="45.91587" lon="6.5126">
        <ele>2448</ele>
        <time>2021-05-20T05:55:27Z</time>
      </trkpt>
      <trkpt lat="45.91587" lon="6.5126">
        <ele>2448</ele>
        <time>2021-05-20T05:55:28Z</time>
      </trkpt>
      <trkpt lat="45.91587" lon="6.5126">
        <ele>2448</ele>
        <time>2021-05-20T05:55:29Z</time>
      </trkpt>
      <trkpt lat="45.91587" lon="6.5126">
        <ele>2448</ele>
        <time>2021-05-20T05:55:30Z</time>
      </trkpt>
      <trkpt lat="45.91587" lon="6.5126">
        <ele>2448</ele>
        <time>2021-05-20T05:55:31Z</time>
      </trkpt>
      <trkpt lat="45.91587" lon="6.5126">
        <ele>2448</ele>
        <time>2021-05-20T05:55:32Z</time>
      </trkpt>
      <trkpt lat="45.91587" lon="6.5126">
        <ele>2448</ele>
        <time>2021-05-20T05:55:33Z</time>
      </trkpt>
      <trkpt lat="45.91587" lon="6.51259">
        <ele>2448</ele>
        <time>2021-05-20T05:55:34Z</time>
      </trkpt>
      <trkpt lat="45.91587" lon="6.51259">
        <ele>2448</ele>
        <time>2021-05-20T05:55:35Z</time>
      </trkpt>
      <trkpt lat="45.91586" lon="6.51259">
        <ele>2448</ele>
        <time>2021-05-20T05:55:36Z</time>
      </trkpt>
      <trkpt lat="45.91586" lon="6.51259">
        <ele>2448</ele>
        <time>2021-05-20T05:55:37Z</time>
      </trkpt>
      <trkpt lat="45.91586" lon="6.51259">
        <ele>2448</ele>
        <time>2021-05-20T05:55:38Z</time>
      </trkpt>
      <trkpt lat="45.91586" lon="6.51259">
        <ele>2448</ele>
        <time>2021-05-20T05:55:39Z</time>
      </trkpt>
      <trkpt lat="45.91586" lon="6.51259">
        <ele>2448</ele>
        <time>2021-05-20T05:55:40Z</time>
      </trkpt>
      <trkpt lat="45.91586" lon="6.51259">
        <ele>2448</ele>
        <time>2021-05-20T05:55:41Z</time>
      </trkpt>
      <trkpt lat="45.91586" lon="6.51259">
        <ele>2448</ele>
        <time>2021-05-20T05:55:42Z</time>
      </trkpt>
      <trkpt lat="45.91586" lon="6.51259">
        <ele>2448</ele>
        <time>2021-05-20T05:55:43Z</time>
      </trkpt>
      <trkpt lat="45.91586" lon="6.51259">
        <ele>2448</ele>
        <time>2021-05-20T05:55:44Z</time>
      </trkpt>
      <trkpt lat="45.91586" lon="6.51259">
        <ele>2448</ele>
        <time>2021-05-20T05:55:45Z</time>
      </trkpt>
      <trkpt lat="45.91586" lon="6.51259">
        <ele>2448</ele>
        <time>2021-05-20T05:55:46Z</time>
      </trkpt>
      <trkpt lat="45.91586" lon="6.51259">
        <ele>2448</ele>
        <time>2021-05-20T05:55:47Z</time>
      </trkpt>
      <trkpt lat="45.91586" lon="6.51259">
        <ele>2448</ele>
        <time>2021-05-20T05:55:48Z</time>
      </trkpt>
      <trkpt lat="45.91586" lon="6.51259">
        <ele>2448</ele>
        <time>2021-05-20T05:55:49Z</time>
      </trkpt>
      <trkpt lat="45.91586" lon="6.51259">
        <ele>2448</ele>
        <time>2021-05-20T05:55:50Z</time>
      </trkpt>
      <trkpt lat="45.91586" lon="6.51259">
        <ele>2448</ele>
        <time>2021-05-20T05:55:51Z</time>
      </trkpt>
      <trkpt lat="45.91586" lon="6.51259">
        <ele>2448</ele>
        <time>2021-05-20T05:55:52Z</time>
      </trkpt>
      <trkpt lat="45.91586" lon="6.51259">
        <ele>2448</ele>
        <time>2021-05-20T05:55:53Z</time>
      </trkpt>
      <trkpt lat="45.91586" lon="6.51259">
        <ele>2448</ele>
        <time>2021-05-20T05:55:54Z</time>
      </trkpt>
      <trkpt lat="45.91586" lon="6.51259">
        <ele>2448</ele>
        <time>2021-05-20T05:55:55Z</time>
      </trkpt>
      <trkpt lat="45.91586" lon="6.51259">
        <ele>2448</ele>
        <time>2021-05-20T05:55:56Z</time>
      </trkpt>
      <trkpt lat="45.91586" lon="6.51259">
        <ele>2448</ele>
        <time>2021-05-20T05:55:57Z</time>
      </trkpt>
      <trkpt lat="45.91586" lon="6.51259">
        <ele>2448</ele>
        <time>2021-05-20T05:55:58Z</time>
      </trkpt>
      <trkpt lat="45.91586" lon="6.51259">
        <ele>2448</ele>
        <time>2021-05-20T05:55:59Z</time>
      </trkpt>
      <trkpt lat="45.91586" lon="6.51258">
        <ele>2448</ele>
        <time>2021-05-20T05:56:00Z</time>
      </trkpt>
      <trkpt lat="45.91586" lon="6.51258">
        <ele>2448</ele>
        <time>2021-05-20T05:56:01Z</time>
      </trkpt>
      <trkpt lat="45.91586" lon="6.51258">
        <ele>2448</ele>
        <time>2021-05-20T05:56:02Z</time>
      </trkpt>
      <trkpt lat="45.91586" lon="6.51258">
        <ele>2448</ele>
        <time>2021-05-20T05:56:03Z</time>
      </trkpt>
      <trkpt lat="45.91586" lon="6.51258">
        <ele>2448</ele>
        <time>2021-05-20T05:56:04Z</time>
      </trkpt>
      <trkpt lat="45.91586" lon="6.51258">
        <ele>2448</ele>
        <time>2021-05-20T05:56:05Z</time>
      </trkpt>
      <trkpt lat="45.91586" lon="6.51258">
        <ele>2448</ele>
        <time>2021-05-20T05:56:06Z</time>
      </trkpt>
      <trkpt lat="45.91586" lon="6.51258">
        <ele>2448</ele>
        <time>2021-05-20T05:56:07Z</time>
      </trkpt>
      <trkpt lat="45.91586" lon="6.51258">
        <ele>2448</ele>
        <time>2021-05-20T05:56:08Z</time>
      </trkpt>
      <trkpt lat="45.91586" lon="6.51258">
        <ele>2448</ele>
        <time>2021-05-20T05:56:09Z</time>
      </trkpt>
      <trkpt lat="45.91586" lon="6.51258">
        <ele>2449</ele>
        <time>2021-05-20T05:56:10Z</time>
      </trkpt>
      <trkpt lat="45.91586" lon="6.51258">
        <ele>2449</ele>
        <time>2021-05-20T05:56:11Z</time>
      </trkpt>
      <trkpt lat="45.91585" lon="6.51258">
        <ele>2448</ele>
        <time>2021-05-20T05:56:12Z</time>
      </trkpt>
      <trkpt lat="45.91585" lon="6.51258">
        <ele>2448</ele>
        <time>2021-05-20T05:56:13Z</time>
      </trkpt>
      <trkpt lat="45.91585" lon="6.51258">
        <ele>2448</ele>
        <time>2021-05-20T05:56:14Z</time>
      </trkpt>
      <trkpt lat="45.91585" lon="6.51258">
        <ele>2448</ele>
        <time>2021-05-20T05:56:15Z</time>
      </trkpt>
      <trkpt lat="45.91585" lon="6.51258">
        <ele>2448</ele>
        <time>2021-05-20T05:56:16Z</time>
      </trkpt>
      <trkpt lat="45.91585" lon="6.51258">
        <ele>2448</ele>
        <time>2021-05-20T05:56:17Z</time>
      </trkpt>
      <trkpt lat="45.91585" lon="6.51258">
        <ele>2448</ele>
        <time>2021-05-20T05:56:18Z</time>
      </trkpt>
      <trkpt lat="45.91585" lon="6.51258">
        <ele>2448</ele>
        <time>2021-05-20T05:56:19Z</time>
      </trkpt>
      <trkpt lat="45.91585" lon="6.51258">
        <ele>2448</ele>
        <time>2021-05-20T05:56:20Z</time>
      </trkpt>
      <trkpt lat="45.91585" lon="6.51258">
        <ele>2448</ele>
        <time>2021-05-20T05:56:21Z</time>
      </trkpt>
      <trkpt lat="45.91585" lon="6.51258">
        <ele>2448</ele>
        <time>2021-05-20T05:56:22Z</time>
      </trkpt>
      <trkpt lat="45.91585" lon="6.51258">
        <ele>2448</ele>
        <time>2021-05-20T05:56:23Z</time>
      </trkpt>
      <trkpt lat="45.91585" lon="6.51258">
        <ele>2448</ele>
        <time>2021-05-20T05:56:24Z</time>
      </trkpt>
      <trkpt lat="45.91585" lon="6.51258">
        <ele>2448</ele>
        <time>2021-05-20T05:56:25Z</time>
      </trkpt>
      <trkpt lat="45.91585" lon="6.51258">
        <ele>2449</ele>
        <time>2021-05-20T05:56:26Z</time>
      </trkpt>
      <trkpt lat="45.91585" lon="6.51257">
        <ele>2449</ele>
        <time>2021-05-20T05:56:27Z</time>
      </trkpt>
      <trkpt lat="45.91585" lon="6.51257">
        <ele>2449</ele>
        <time>2021-05-20T05:56:28Z</time>
      </trkpt>
      <trkpt lat="45.91585" lon="6.51257">
        <ele>2449</ele>
        <time>2021-05-20T05:56:29Z</time>
      </trkpt>
      <trkpt lat="45.91585" lon="6.51257">
        <ele>2449</ele>
        <time>2021-05-20T05:56:30Z</time>
      </trkpt>
      <trkpt lat="45.91585" lon="6.51257">
        <ele>2449</ele>
        <time>2021-05-20T05:56:31Z</time>
      </trkpt>
      <trkpt lat="45.91585" lon="6.51257">
        <ele>2449</ele>
        <time>2021-05-20T05:56:32Z</time>
      </trkpt>
      <trkpt lat="45.91585" lon="6.51257">
        <ele>2449</ele>
        <time>2021-05-20T05:56:33Z</time>
      </trkpt>
      <trkpt lat="45.91585" lon="6.51257">
        <ele>2449</ele>
        <time>2021-05-20T05:56:34Z</time>
      </trkpt>
      <trkpt lat="45.91585" lon="6.51257">
        <ele>2449</ele>
        <time>2021-05-20T05:56:35Z</time>
      </trkpt>
      <trkpt lat="45.91585" lon="6.51257">
        <ele>2449</ele>
        <time>2021-05-20T05:56:36Z</time>
      </trkpt>
      <trkpt lat="45.91585" lon="6.51257">
        <ele>2450</ele>
        <time>2021-05-20T05:56:37Z</time>
      </trkpt>
      <trkpt lat="45.91585" lon="6.51257">
        <ele>2450</ele>
        <time>2021-05-20T05:56:38Z</time>
      </trkpt>
      <trkpt lat="45.91585" lon="6.51257">
        <ele>2449</ele>
        <time>2021-05-20T05:56:39Z</time>
      </trkpt>
      <trkpt lat="45.91585" lon="6.51257">
        <ele>2449</ele>
        <time>2021-05-20T05:56:40Z</time>
      </trkpt>
      <trkpt lat="45.91585" lon="6.51257">
        <ele>2449</ele>
        <time>2021-05-20T05:56:41Z</time>
      </trkpt>
      <trkpt lat="45.91585" lon="6.51257">
        <ele>2449</ele>
        <time>2021-05-20T05:56:42Z</time>
      </trkpt>
      <trkpt lat="45.91585" lon="6.51257">
        <ele>2449</ele>
        <time>2021-05-20T05:56:43Z</time>
      </trkpt>
      <trkpt lat="45.91585" lon="6.51257">
        <ele>2449</ele>
        <time>2021-05-20T05:56:44Z</time>
      </trkpt>
      <trkpt lat="45.91585" lon="6.51257">
        <ele>2449</ele>
        <time>2021-05-20T05:56:45Z</time>
      </trkpt>
      <trkpt lat="45.91585" lon="6.51257">
        <ele>2449</ele>
        <time>2021-05-20T05:56:46Z</time>
      </trkpt>
      <trkpt lat="45.91584" lon="6.51257">
        <ele>2449</ele>
        <time>2021-05-20T05:56:47Z</time>
      </trkpt>
      <trkpt lat="45.91584" lon="6.51257">
        <ele>2449</ele>
        <time>2021-05-20T05:56:48Z</time>
      </trkpt>
      <trkpt lat="45.91584" lon="6.51257">
        <ele>2449</ele>
        <time>2021-05-20T05:56:49Z</time>
      </trkpt>
      <trkpt lat="45.91584" lon="6.51257">
        <ele>2449</ele>
        <time>2021-05-20T05:56:50Z</time>
      </trkpt>
      <trkpt lat="45.91584" lon="6.51257">
        <ele>2449</ele>
        <time>2021-05-20T05:56:51Z</time>
      </trkpt>
      <trkpt lat="45.91584" lon="6.51257">
        <ele>2449</ele>
        <time>2021-05-20T05:56:52Z</time>
      </trkpt>
      <trkpt lat="45.91584" lon="6.51256">
        <ele>2449</ele>
        <time>2021-05-20T05:56:53Z</time>
      </trkpt>
      <trkpt lat="45.91584" lon="6.51256">
        <ele>2449</ele>
        <time>2021-05-20T05:56:54Z</time>
      </trkpt>
      <trkpt lat="45.91584" lon="6.51256">
        <ele>2449</ele>
        <time>2021-05-20T05:56:55Z</time>
      </trkpt>
      <trkpt lat="45.91584" lon="6.51256">
        <ele>2449</ele>
        <time>2021-05-20T05:56:56Z</time>
      </trkpt>
      <trkpt lat="45.91584" lon="6.51256">
        <ele>2449</ele>
        <time>2021-05-20T05:56:57Z</time>
      </trkpt>
      <trkpt lat="45.91584" lon="6.51256">
        <ele>2449</ele>
        <time>2021-05-20T05:56:58Z</time>
      </trkpt>
      <trkpt lat="45.91584" lon="6.51256">
        <ele>2449</ele>
        <time>2021-05-20T05:56:59Z</time>
      </trkpt>
      <trkpt lat="45.91579" lon="6.51241">
        <ele>2446</ele>
        <time>2021-05-20T05:57:00Z</time>
      </trkpt>
      <trkpt lat="45.91576" lon="6.51229">
        <ele>2444</ele>
        <time>2021-05-20T05:57:01Z</time>
      </trkpt>
      <trkpt lat="45.91575" lon="6.51216">
        <ele>2440</ele>
        <time>2021-05-20T05:57:02Z</time>
      </trkpt>
      <trkpt lat="45.91577" lon="6.51203">
        <ele>2434</ele>
        <time>2021-05-20T05:57:03Z</time>
      </trkpt>
      <trkpt lat="45.9158" lon="6.51189">
        <ele>2429</ele>
        <time>2021-05-20T05:57:04Z</time>
      </trkpt>
      <trkpt lat="45.91579" lon="6.51174">
        <ele>2423</ele>
        <time>2021-05-20T05:57:05Z</time>
      </trkpt>
      <trkpt lat="45.91576" lon="6.51159">
        <ele>2417</ele>
        <time>2021-05-20T05:57:06Z</time>
      </trkpt>
      <trkpt lat="45.91577" lon="6.51144">
        <ele>2410</ele>
        <time>2021-05-20T05:57:07Z</time>
      </trkpt>
      <trkpt lat="45.91582" lon="6.51129">
        <ele>2404</ele>
        <time>2021-05-20T05:57:08Z</time>
      </trkpt>
      <trkpt lat="45.91583" lon="6.51114">
        <ele>2397</ele>
        <time>2021-05-20T05:57:09Z</time>
      </trkpt>
      <trkpt lat="45.91583" lon="6.51097">
        <ele>2388</ele>
        <time>2021-05-20T05:57:10Z</time>
      </trkpt>
      <trkpt lat="45.91587" lon="6.51082">
        <ele>2381</ele>
        <time>2021-05-20T05:57:11Z</time>
      </trkpt>
      <trkpt lat="45.91586" lon="6.51074">
        <ele>2381</ele>
        <time>2021-05-20T05:57:12Z</time>
      </trkpt>
      <trkpt lat="45.91586" lon="6.51065">
        <ele>2362</ele>
        <time>2021-05-20T05:57:13Z</time>
      </trkpt>
      <trkpt lat="45.91584" lon="6.51048">
        <ele>2362</ele>
        <time>2021-05-20T05:57:14Z</time>
      </trkpt>
      <trkpt lat="45.91586" lon="6.51034">
        <ele>2351</ele>
        <time>2021-05-20T05:57:15Z</time>
      </trkpt>
      <trkpt lat="45.91587" lon="6.51022">
        <ele>2341</ele>
        <time>2021-05-20T05:57:16Z</time>
      </trkpt>
      <trkpt lat="45.91581" lon="6.51009">
        <ele>2332</ele>
        <time>2021-05-20T05:57:17Z</time>
      </trkpt>
      <trkpt lat="45.91579" lon="6.50994">
        <ele>2320</ele>
        <time>2021-05-20T05:57:18Z</time>
      </trkpt>
      <trkpt lat="45.91573" lon="6.50981">
        <ele>2310</ele>
        <time>2021-05-20T05:57:19Z</time>
      </trkpt>
      <trkpt lat="45.91567" lon="6.50969">
        <ele>2303</ele>
        <time>2021-05-20T05:57:20Z</time>
      </trkpt>
      <trkpt lat="45.91567" lon="6.50955">
        <ele>2295</ele>
        <time>2021-05-20T05:57:21Z</time>
      </trkpt>
      <trkpt lat="45.91573" lon="6.50942">
        <ele>2285</ele>
        <time>2021-05-20T05:57:22Z</time>
      </trkpt>
      <trkpt lat="45.91577" lon="6.50929">
        <ele>2277</ele>
        <time>2021-05-20T05:57:23Z</time>
      </trkpt>
      <trkpt lat="45.91575" lon="6.50915">
        <ele>2271</ele>
        <time>2021-05-20T05:57:24Z</time>
      </trkpt>
      <trkpt lat="45.91566" lon="6.50903">
        <ele>2266</ele>
        <time>2021-05-20T05:57:25Z</time>
      </trkpt>
      <trkpt lat="45.9156" lon="6.50889">
        <ele>2258</ele>
        <time>2021-05-20T05:57:26Z</time>
      </trkpt>
      <trkpt lat="45.91557" lon="6.50871">
        <ele>2250</ele>
        <time>2021-05-20T05:57:27Z</time>
      </trkpt>
      <trkpt lat="45.91551" lon="6.50855">
        <ele>2244</ele>
        <time>2021-05-20T05:57:28Z</time>
      </trkpt>
      <trkpt lat="45.91546" lon="6.50838">
        <ele>2238</ele>
        <time>2021-05-20T05:57:29Z</time>
      </trkpt>
      <trkpt lat="45.91546" lon="6.50819">
        <ele>2227</ele>
        <time>2021-05-20T05:57:30Z</time>
      </trkpt>
      <trkpt lat="45.91543" lon="6.50804">
        <ele>2227</ele>
        <time>2021-05-20T05:57:31Z</time>
      </trkpt>
      <trkpt lat="45.91541" lon="6.5079">
        <ele>2213</ele>
        <time>2021-05-20T05:57:32Z</time>
      </trkpt>
      <trkpt lat="45.91536" lon="6.50761">
        <ele>2213</ele>
        <time>2021-05-20T05:57:33Z</time>
      </trkpt>
      <trkpt lat="45.91535" lon="6.50741">
        <ele>2190</ele>
        <time>2021-05-20T05:57:34Z</time>
      </trkpt>
      <trkpt lat="45.91531" lon="6.50721">
        <ele>2180</ele>
        <time>2021-05-20T05:57:35Z</time>
      </trkpt>
      <trkpt lat="45.91527" lon="6.50701">
        <ele>2178</ele>
        <time>2021-05-20T05:57:36Z</time>
      </trkpt>
      <trkpt lat="45.91527" lon="6.5068">
        <ele>2166</ele>
        <time>2021-05-20T05:57:37Z</time>
      </trkpt>
      <trkpt lat="45.91532" lon="6.5066">
        <ele>2155</ele>
        <time>2021-05-20T05:57:38Z</time>
      </trkpt>
      <trkpt lat="45.91536" lon="6.5064">
        <ele>2150</ele>
        <time>2021-05-20T05:57:39Z</time>
      </trkpt>
      <trkpt lat="45.91538" lon="6.5062">
        <ele>2146</ele>
        <time>2021-05-20T05:57:40Z</time>
      </trkpt>
      <trkpt lat="45.91544" lon="6.50602">
        <ele>2143</ele>
        <time>2021-05-20T05:57:41Z</time>
      </trkpt>
      <trkpt lat="45.91552" lon="6.50591">
        <ele>2136</ele>
        <time>2021-05-20T05:57:42Z</time>
      </trkpt>
      <trkpt lat="45.91552" lon="6.50591">
        <ele>2131</ele>
        <time>2021-05-20T05:57:43Z</time>
      </trkpt>
      <trkpt lat="45.9156" lon="6.50567">
        <ele>2128</ele>
        <time>2021-05-20T05:57:44Z</time>
      </trkpt>
      <trkpt lat="45.91559" lon="6.50561">
        <ele>2126</ele>
        <time>2021-05-20T05:57:45Z</time>
      </trkpt>
      <trkpt lat="45.91556" lon="6.50543">
        <ele>2123</ele>
        <time>2021-05-20T05:57:46Z</time>
      </trkpt>
      <trkpt lat="45.91555" lon="6.50536">
        <ele>2123</ele>
        <time>2021-05-20T05:57:47Z</time>
      </trkpt>
      <trkpt lat="45.91553" lon="6.50522">
        <ele>2115</ele>
        <time>2021-05-20T05:57:48Z</time>
      </trkpt>
      <trkpt lat="45.91553" lon="6.50509">
        <ele>2111</ele>
        <time>2021-05-20T05:57:49Z</time>
      </trkpt>
      <trkpt lat="45.91553" lon="6.50496">
        <ele>2110</ele>
        <time>2021-05-20T05:57:50Z</time>
      </trkpt>
      <trkpt lat="45.91552" lon="6.50486">
        <ele>2109</ele>
        <time>2021-05-20T05:57:51Z</time>
      </trkpt>
      <trkpt lat="45.91551" lon="6.50478">
        <ele>2109</ele>
        <time>2021-05-20T05:57:52Z</time>
      </trkpt>
      <trkpt lat="45.91551" lon="6.50478">
        <ele>2109</ele>
        <time>2021-05-20T05:57:53Z</time>
      </trkpt>
      <trkpt lat="45.91551" lon="6.50478">
        <ele>2108</ele>
        <time>2021-05-20T05:57:54Z</time>
      </trkpt>
      <trkpt lat="45.91551" lon="6.50478">
        <ele>2108</ele>
        <time>2021-05-20T05:57:55Z</time>
      </trkpt>
      <trkpt lat="45.91551" lon="6.50478">
        <ele>2108</ele>
        <time>2021-05-20T05:57:56Z</time>
      </trkpt>
      <trkpt lat="45.91551" lon="6.50478">
        <ele>2107</ele>
        <time>2021-05-20T05:57:57Z</time>
      </trkpt>
      <trkpt lat="45.91551" lon="6.50478">
        <ele>2106</ele>
        <time>2021-05-20T05:57:58Z</time>
      </trkpt>
      <trkpt lat="45.91551" lon="6.50478">
        <ele>2106</ele>
        <time>2021-05-20T05:57:59Z</time>
      </trkpt>
      <trkpt lat="45.91551" lon="6.50478">
        <ele>2106</ele>
        <time>2021-05-20T05:58:00Z</time>
      </trkpt>
      <trkpt lat="45.91551" lon="6.50478">
        <ele>2106</ele>
        <time>2021-05-20T05:58:01Z</time>
      </trkpt>
      <trkpt lat="45.91551" lon="6.50478">
        <ele>2106</ele>
        <time>2021-05-20T05:58:02Z</time>
      </trkpt>
      <trkpt lat="45.91551" lon="6.50478">
        <ele>2107</ele>
        <time>2021-05-20T05:58:03Z</time>
      </trkpt>
      <trkpt lat="45.91551" lon="6.50478">
        <ele>2107</ele>
        <time>2021-05-20T05:58:04Z</time>
      </trkpt>
      <trkpt lat="45.91551" lon="6.50478">
        <ele>2107</ele>
        <time>2021-05-20T05:58:05Z</time>
      </trkpt>
      <trkpt lat="45.91551" lon="6.50478">
        <ele>2107</ele>
        <time>2021-05-20T05:58:06Z</time>
      </trkpt>
      <trkpt lat="45.91551" lon="6.50478">
        <ele>2107</ele>
        <time>2021-05-20T05:58:07Z</time>
      </trkpt>
      <trkpt lat="45.91551" lon="6.50478">
        <ele>2107</ele>
        <time>2021-05-20T05:58:08Z</time>
      </trkpt>
      <trkpt lat="45.91551" lon="6.50478">
        <ele>2107</ele>
        <time>2021-05-20T05:58:09Z</time>
      </trkpt>
      <trkpt lat="45.91551" lon="6.50478">
        <ele>2107</ele>
        <time>2021-05-20T05:58:10Z</time>
      </trkpt>
      <trkpt lat="45.91551" lon="6.50478">
        <ele>2107</ele>
        <time>2021-05-20T05:58:11Z</time>
      </trkpt>
      <trkpt lat="45.91551" lon="6.50478">
        <ele>2107</ele>
        <time>2021-05-20T05:58:12Z</time>
      </trkpt>
      <trkpt lat="45.91551" lon="6.50478">
        <ele>2107</ele>
        <time>2021-05-20T05:58:13Z</time>
      </trkpt>
      <trkpt lat="45.91551" lon="6.50478">
        <ele>2106</ele>
        <time>2021-05-20T05:58:14Z</time>
      </trkpt>
      <trkpt lat="45.91551" lon="6.50478">
        <ele>2107</ele>
        <time>2021-05-20T05:58:15Z</time>
      </trkpt>
      <trkpt lat="45.91551" lon="6.50478">
        <ele>2107</ele>
        <time>2021-05-20T05:58:16Z</time>
      </trkpt>
      <trkpt lat="45.91551" lon="6.50478">
        <ele>2107</ele>
        <time>2021-05-20T05:58:17Z</time>
      </trkpt>
      <trkpt lat="45.91551" lon="6.50478">
        <ele>2107</ele>
        <time>2021-05-20T05:58:18Z</time>
      </trkpt>
      <trkpt lat="45.91551" lon="6.50478">
        <ele>2107</ele>
        <time>2021-05-20T05:58:19Z</time>
      </trkpt>
      <trkpt lat="45.91551" lon="6.50478">
        <ele>2107</ele>
        <time>2021-05-20T05:58:20Z</time>
      </trkpt>
      <trkpt lat="45.91551" lon="6.50478">
        <ele>2107</ele>
        <time>2021-05-20T05:58:21Z</time>
      </trkpt>
      <trkpt lat="45.91551" lon="6.50478">
        <ele>2107</ele>
        <time>2021-05-20T05:58:22Z</time>
      </trkpt>
      <trkpt lat="45.91551" lon="6.50478">
        <ele>2107</ele>
        <time>2021-05-20T05:58:23Z</time>
      </trkpt>
      <trkpt lat="45.91551" lon="6.50478">
        <ele>2107</ele>
        <time>2021-05-20T05:58:24Z</time>
      </trkpt>
      <trkpt lat="45.91551" lon="6.50478">
        <ele>2107</ele>
        <time>2021-05-20T05:58:25Z</time>
      </trkpt>
      <trkpt lat="45.91551" lon="6.50478">
        <ele>2107</ele>
        <time>2021-05-20T05:58:26Z</time>
      </trkpt>
      <trkpt lat="45.91548" lon="6.50475">
        <ele>2107</ele>
        <time>2021-05-20T05:58:27Z</time>
      </trkpt>
      <trkpt lat="45.91547" lon="6.50469">
        <ele>2107</ele>
        <time>2021-05-20T05:58:28Z</time>
      </trkpt>
      <trkpt lat="45.91545" lon="6.5046">
        <ele>2107</ele>
        <time>2021-05-20T05:58:29Z</time>
      </trkpt>
      <trkpt lat="45.91543" lon="6.50448">
        <ele>2107</ele>
        <time>2021-05-20T05:58:30Z</time>
      </trkpt>
      <trkpt lat="45.91542" lon="6.50434">
        <ele>2103</ele>
        <time>2021-05-20T05:58:31Z</time>
      </trkpt>
      <trkpt lat="45.91541" lon="6.50418">
        <ele>2100</ele>
        <time>2021-05-20T05:58:32Z</time>
      </trkpt>
      <trkpt lat="45.91541" lon="6.50401">
        <ele>2095</ele>
        <time>2021-05-20T05:58:33Z</time>
      </trkpt>
      <trkpt lat="45.91543" lon="6.50376">
        <ele>2095</ele>
        <time>2021-05-20T05:58:34Z</time>
      </trkpt>
      <trkpt lat="45.91542" lon="6.50367">
        <ele>2085</ele>
        <time>2021-05-20T05:58:35Z</time>
      </trkpt>
      <trkpt lat="45.91542" lon="6.5035">
        <ele>2085</ele>
        <time>2021-05-20T05:58:36Z</time>
      </trkpt>
      <trkpt lat="45.91541" lon="6.50333">
        <ele>2072</ele>
        <time>2021-05-20T05:58:37Z</time>
      </trkpt>
      <trkpt lat="45.91541" lon="6.50315">
        <ele>2064</ele>
        <time>2021-05-20T05:58:38Z</time>
      </trkpt>
      <trkpt lat="45.9154" lon="6.50298">
        <ele>2062</ele>
        <time>2021-05-20T05:58:39Z</time>
      </trkpt>
      <trkpt lat="45.9154" lon="6.50281">
        <ele>2058</ele>
        <time>2021-05-20T05:58:40Z</time>
      </trkpt>
      <trkpt lat="45.91539" lon="6.50264">
        <ele>2053</ele>
        <time>2021-05-20T05:58:41Z</time>
      </trkpt>
      <trkpt lat="45.91538" lon="6.50249">
        <ele>2048</ele>
        <time>2021-05-20T05:58:42Z</time>
      </trkpt>
      <trkpt lat="45.91537" lon="6.50234">
        <ele>2044</ele>
        <time>2021-05-20T05:58:43Z</time>
      </trkpt>
      <trkpt lat="45.91537" lon="6.50219">
        <ele>2040</ele>
        <time>2021-05-20T05:58:44Z</time>
      </trkpt>
      <trkpt lat="45.91537" lon="6.50203">
        <ele>2036</ele>
        <time>2021-05-20T05:58:45Z</time>
      </trkpt>
      <trkpt lat="45.91539" lon="6.50188">
        <ele>2033</ele>
        <time>2021-05-20T05:58:46Z</time>
      </trkpt>
      <trkpt lat="45.91544" lon="6.50175">
        <ele>2031</ele>
        <time>2021-05-20T05:58:47Z</time>
      </trkpt>
      <trkpt lat="45.91544" lon="6.50175">
        <ele>2028</ele>
        <time>2021-05-20T05:58:48Z</time>
      </trkpt>
      <trkpt lat="45.91562" lon="6.50151">
        <ele>2023</ele>
        <time>2021-05-20T05:58:49Z</time>
      </trkpt>
      <trkpt lat="45.91565" lon="6.50148">
        <ele>2020</ele>
        <time>2021-05-20T05:58:50Z</time>
      </trkpt>
      <trkpt lat="45.91574" lon="6.50141">
        <ele>2019</ele>
        <time>2021-05-20T05:58:51Z</time>
      </trkpt>
      <trkpt lat="45.91576" lon="6.50139">
        <ele>2018</ele>
        <time>2021-05-20T05:58:52Z</time>
      </trkpt>
      <trkpt lat="45.91584" lon="6.50132">
        <ele>2015</ele>
        <time>2021-05-20T05:58:53Z</time>
      </trkpt>
      <trkpt lat="45.91586" lon="6.50127">
        <ele>2014</ele>
        <time>2021-05-20T05:58:54Z</time>
      </trkpt>
      <trkpt lat="45.91593" lon="6.50116">
        <ele>2012</ele>
        <time>2021-05-20T05:58:55Z</time>
      </trkpt>
      <trkpt lat="45.91594" lon="6.50113">
        <ele>2009</ele>
        <time>2021-05-20T05:58:56Z</time>
      </trkpt>
      <trkpt lat="45.91598" lon="6.50109">
        <ele>2005</ele>
        <time>2021-05-20T05:58:57Z</time>
      </trkpt>
      <trkpt lat="45.91615" lon="6.50082">
        <ele>2001</ele>
        <time>2021-05-20T05:58:58Z</time>
      </trkpt>
      <trkpt lat="45.91618" lon="6.50074">
        <ele>1995</ele>
        <time>2021-05-20T05:58:59Z</time>
      </trkpt>
      <trkpt lat="45.91623" lon="6.5006">
        <ele>1987</ele>
        <time>2021-05-20T05:59:00Z</time>
      </trkpt>
      <trkpt lat="45.91623" lon="6.5006">
        <ele>1983</ele>
        <time>2021-05-20T05:59:01Z</time>
      </trkpt>
      <trkpt lat="45.91638" lon="6.50037">
        <ele>1976</ele>
        <time>2021-05-20T05:59:02Z</time>
      </trkpt>
      <trkpt lat="45.91641" lon="6.50033">
        <ele>1971</ele>
        <time>2021-05-20T05:59:03Z</time>
      </trkpt>
      <trkpt lat="45.91646" lon="6.50026">
        <ele>1966</ele>
        <time>2021-05-20T05:59:04Z</time>
      </trkpt>
      <trkpt lat="45.91646" lon="6.50026">
        <ele>1960</ele>
        <time>2021-05-20T05:59:05Z</time>
      </trkpt>
      <trkpt lat="45.91654" lon="6.50019">
        <ele>1956</ele>
        <time>2021-05-20T05:59:06Z</time>
      </trkpt>
      <trkpt lat="45.91662" lon="6.50011">
        <ele>1952</ele>
        <time>2021-05-20T05:59:07Z</time>
      </trkpt>
      <trkpt lat="45.91669" lon="6.50004">
        <ele>1952</ele>
        <time>2021-05-20T05:59:08Z</time>
      </trkpt>
      <trkpt lat="45.91681" lon="6.49994">
        <ele>1941</ele>
        <time>2021-05-20T05:59:09Z</time>
      </trkpt>
      <trkpt lat="45.9169" lon="6.49985">
        <ele>1934</ele>
        <time>2021-05-20T05:59:10Z</time>
      </trkpt>
      <trkpt lat="45.91698" lon="6.4997">
        <ele>1931</ele>
        <time>2021-05-20T05:59:11Z</time>
      </trkpt>
      <trkpt lat="45.91708" lon="6.49959">
        <ele>1928</ele>
        <time>2021-05-20T05:59:12Z</time>
      </trkpt>
      <trkpt lat="45.91717" lon="6.49947">
        <ele>1922</ele>
        <time>2021-05-20T05:59:13Z</time>
      </trkpt>
      <trkpt lat="45.91724" lon="6.49931">
        <ele>1917</ele>
        <time>2021-05-20T05:59:14Z</time>
      </trkpt>
      <trkpt lat="45.91731" lon="6.49921">
        <ele>1913</ele>
        <time>2021-05-20T05:59:15Z</time>
      </trkpt>
      <trkpt lat="45.91739" lon="6.49906">
        <ele>1907</ele>
        <time>2021-05-20T05:59:16Z</time>
      </trkpt>
      <trkpt lat="45.91744" lon="6.49886">
        <ele>1901</ele>
        <time>2021-05-20T05:59:17Z</time>
      </trkpt>
      <trkpt lat="45.91752" lon="6.49878">
        <ele>1895</ele>
        <time>2021-05-20T05:59:18Z</time>
      </trkpt>
      <trkpt lat="45.91759" lon="6.4986">
        <ele>1888</ele>
        <time>2021-05-20T05:59:19Z</time>
      </trkpt>
      <trkpt lat="45.91763" lon="6.49843">
        <ele>1882</ele>
        <time>2021-05-20T05:59:20Z</time>
      </trkpt>
      <trkpt lat="45.91767" lon="6.49829">
        <ele>1877</ele>
        <time>2021-05-20T05:59:21Z</time>
      </trkpt>
      <trkpt lat="45.91775" lon="6.49816">
        <ele>1870</ele>
        <time>2021-05-20T05:59:22Z</time>
      </trkpt>
      <trkpt lat="45.91781" lon="6.49802">
        <ele>1865</ele>
        <time>2021-05-20T05:59:23Z</time>
      </trkpt>
      <trkpt lat="45.91781" lon="6.49802">
        <ele>1860</ele>
        <time>2021-05-20T05:59:24Z</time>
      </trkpt>
      <trkpt lat="45.91789" lon="6.49785">
        <ele>1854</ele>
        <time>2021-05-20T05:59:25Z</time>
      </trkpt>
      <trkpt lat="45.91789" lon="6.49785">
        <ele>1849</ele>
        <time>2021-05-20T05:59:26Z</time>
      </trkpt>
      <trkpt lat="45.91787" lon="6.49786">
        <ele>1849</ele>
        <time>2021-05-20T05:59:27Z</time>
      </trkpt>
      <trkpt lat="45.91785" lon="6.49788">
        <ele>1845</ele>
        <time>2021-05-20T05:59:28Z</time>
      </trkpt>
      <trkpt lat="45.91783" lon="6.4979">
        <ele>1841</ele>
        <time>2021-05-20T05:59:29Z</time>
      </trkpt>
      <trkpt lat="45.91782" lon="6.49792">
        <ele>1839</ele>
        <time>2021-05-20T05:59:30Z</time>
      </trkpt>
      <trkpt lat="45.91782" lon="6.49792">
        <ele>1838</ele>
        <time>2021-05-20T05:59:31Z</time>
      </trkpt>
      <trkpt lat="45.91782" lon="6.49792">
        <ele>1837</ele>
        <time>2021-05-20T05:59:32Z</time>
      </trkpt>
      <trkpt lat="45.91782" lon="6.49792">
        <ele>1836</ele>
        <time>2021-05-20T05:59:33Z</time>
      </trkpt>
      <trkpt lat="45.91782" lon="6.49792">
        <ele>1835</ele>
        <time>2021-05-20T05:59:34Z</time>
      </trkpt>
      <trkpt lat="45.91782" lon="6.49792">
        <ele>1834</ele>
        <time>2021-05-20T05:59:35Z</time>
      </trkpt>
      <trkpt lat="45.91782" lon="6.49792">
        <ele>1833</ele>
        <time>2021-05-20T05:59:36Z</time>
      </trkpt>
      <trkpt lat="45.91782" lon="6.49792">
        <ele>1833</ele>
        <time>2021-05-20T05:59:37Z</time>
      </trkpt>
      <trkpt lat="45.91782" lon="6.49792">
        <ele>1833</ele>
        <time>2021-05-20T05:59:38Z</time>
      </trkpt>
      <trkpt lat="45.91782" lon="6.49792">
        <ele>1833</ele>
        <time>2021-05-20T05:59:39Z</time>
      </trkpt>
      <trkpt lat="45.91782" lon="6.49792">
        <ele>1833</ele>
        <time>2021-05-20T05:59:40Z</time>
      </trkpt>
      <trkpt lat="45.91782" lon="6.49792">
        <ele>1833</ele>
        <time>2021-05-20T05:59:41Z</time>
      </trkpt>
      <trkpt lat="45.91782" lon="6.49792">
        <ele>1833</ele>
        <time>2021-05-20T05:59:42Z</time>
      </trkpt>
      <trkpt lat="45.91782" lon="6.49792">
        <ele>1832</ele>
        <time>2021-05-20T05:59:43Z</time>
      </trkpt>
      <trkpt lat="45.91782" lon="6.49792">
        <ele>1832</ele>
        <time>2021-05-20T05:59:44Z</time>
      </trkpt>
      <trkpt lat="45.91782" lon="6.49792">
        <ele>1832</ele>
        <time>2021-05-20T05:59:45Z</time>
      </trkpt>
      <trkpt lat="45.91782" lon="6.49792">
        <ele>1832</ele>
        <time>2021-05-20T05:59:46Z</time>
      </trkpt>
      <trkpt lat="45.91782" lon="6.49792">
        <ele>1833</ele>
        <time>2021-05-20T05:59:47Z</time>
      </trkpt>
      <trkpt lat="45.91782" lon="6.49792">
        <ele>1833</ele>
        <time>2021-05-20T05:59:48Z</time>
      </trkpt>
      <trkpt lat="45.91782" lon="6.49792">
        <ele>1833</ele>
        <time>2021-05-20T05:59:49Z</time>
      </trkpt>
      <trkpt lat="45.91782" lon="6.49792">
        <ele>1833</ele>
        <time>2021-05-20T05:59:50Z</time>
      </trkpt>
      <trkpt lat="45.91782" lon="6.49792">
        <ele>1832</ele>
        <time>2021-05-20T05:59:51Z</time>
      </trkpt>
      <trkpt lat="45.91782" lon="6.49792">
        <ele>1832</ele>
        <time>2021-05-20T05:59:52Z</time>
      </trkpt>
      <trkpt lat="45.91782" lon="6.49792">
        <ele>1832</ele>
        <time>2021-05-20T05:59:53Z</time>
      </trkpt>
      <trkpt lat="45.91782" lon="6.49792">
        <ele>1832</ele>
        <time>2021-05-20T05:59:54Z</time>
      </trkpt>
      <trkpt lat="45.91782" lon="6.49792">
        <ele>1832</ele>
        <time>2021-05-20T05:59:55Z</time>
      </trkpt>
      <trkpt lat="45.91782" lon="6.49792">
        <ele>1832</ele>
        <time>2021-05-20T05:59:56Z</time>
      </trkpt>
      <trkpt lat="45.91782" lon="6.49792">
        <ele>1832</ele>
        <time>2021-05-20T05:59:57Z</time>
      </trkpt>
      <trkpt lat="45.91782" lon="6.49792">
        <ele>1832</ele>
        <time>2021-05-20T05:59:58Z</time>
      </trkpt>
      <trkpt lat="45.91782" lon="6.49792">
        <ele>1832</ele>
        <time>2021-05-20T05:59:59Z</time>
      </trkpt>
      <trkpt lat="45.91782" lon="6.49792">
        <ele>1832</ele>
        <time>2021-05-20T06:00:00Z</time>
      </trkpt>
      <trkpt lat="45.91782" lon="6.49792">
        <ele>1832</ele>
        <time>2021-05-20T06:00:01Z</time>
      </trkpt>
      <trkpt lat="45.91782" lon="6.49792">
        <ele>1831</ele>
        <time>2021-05-20T06:00:02Z</time>
      </trkpt>
      <trkpt lat="45.91782" lon="6.49792">
        <ele>1831</ele>
        <time>2021-05-20T06:00:03Z</time>
      </trkpt>
      <trkpt lat="45.91782" lon="6.49792">
        <ele>1831</ele>
        <time>2021-05-20T06:00:04Z</time>
      </trkpt>
      <trkpt lat="45.91782" lon="6.49792">
        <ele>1831</ele>
        <time>2021-05-20T06:00:05Z</time>
      </trkpt>
      <trkpt lat="45.91782" lon="6.49792">
        <ele>1831</ele>
        <time>2021-05-20T06:00:06Z</time>
      </trkpt>
      <trkpt lat="45.91782" lon="6.49792">
        <ele>1831</ele>
        <time>2021-05-20T06:00:07Z</time>
      </trkpt>
      <trkpt lat="45.91782" lon="6.49792">
        <ele>1831</ele>
        <time>2021-05-20T06:00:08Z</time>
      </trkpt>
      <trkpt lat="45.91782" lon="6.49792">
        <ele>1831</ele>
        <time>2021-05-20T06:00:09Z</time>
      </trkpt>
      <trkpt lat="45.91782" lon="6.49792">
        <ele>1831</ele>
        <time>2021-05-20T06:00:10Z</time>
      </trkpt>
      <trkpt lat="45.91782" lon="6.49792">
        <ele>1831</ele>
        <time>2021-05-20T06:00:11Z</time>
      </trkpt>
      <trkpt lat="45.9178" lon="6.49795">
        <ele>1831</ele>
        <time>2021-05-20T06:00:12Z</time>
      </trkpt>
      <trkpt lat="45.9178" lon="6.49795">
        <ele>1831</ele>
        <time>2021-05-20T06:00:13Z</time>
      </trkpt>
      <trkpt lat="45.91781" lon="6.49795">
        <ele>1831</ele>
        <time>2021-05-20T06:00:14Z</time>
      </trkpt>
      <trkpt lat="45.91782" lon="6.49796">
        <ele>1832</ele>
        <time>2021-05-20T06:00:15Z</time>
      </trkpt>
      <trkpt lat="45.91783" lon="6.49796">
        <ele>1833</ele>
        <time>2021-05-20T06:00:16Z</time>
      </trkpt>
      <trkpt lat="45.91783" lon="6.49797">
        <ele>1833</ele>
        <time>2021-05-20T06:00:17Z</time>
      </trkpt>
      <trkpt lat="45.91784" lon="6.49797">
        <ele>1833</ele>
        <time>2021-05-20T06:00:18Z</time>
      </trkpt>
      <trkpt lat="45.91785" lon="6.49798">
        <ele>1833</ele>
        <time>2021-05-20T06:00:19Z</time>
      </trkpt>
      <trkpt lat="45.91786" lon="6.49798">
        <ele>1833</ele>
        <time>2021-05-20T06:00:20Z</time>
      </trkpt>
      <trkpt lat="45.91787" lon="6.49799">
        <ele>1833</ele>
        <time>2021-05-20T06:00:21Z</time>
      </trkpt>
      <trkpt lat="45.91788" lon="6.49799">
        <ele>1832</ele>
        <time>2021-05-20T06:00:22Z</time>
      </trkpt>
      <trkpt lat="45.91788" lon="6.498">
        <ele>1832</ele>
        <time>2021-05-20T06:00:23Z</time>
      </trkpt>
      <trkpt lat="45.91794" lon="6.498">
        <ele>1832</ele>
        <time>2021-05-20T06:00:24Z</time>
      </trkpt>
      <trkpt lat="45.918" lon="6.49798">
        <ele>1831</ele>
        <time>2021-05-20T06:00:25Z</time>
      </trkpt>
      <trkpt lat="45.91806" lon="6.49793">
        <ele>1831</ele>
        <time>2021-05-20T06:00:26Z</time>
      </trkpt>
      <trkpt lat="45.91813" lon="6.49789">
        <ele>1825</ele>
        <time>2021-05-20T06:00:27Z</time>
      </trkpt>
      <trkpt lat="45.91819" lon="6.49784">
        <ele>1822</ele>
        <time>2021-05-20T06:00:28Z</time>
      </trkpt>
      <trkpt lat="45.91825" lon="6.49778">
        <ele>1820</ele>
        <time>2021-05-20T06:00:29Z</time>
      </trkpt>
      <trkpt lat="45.91829" lon="6.49775">
        <ele>1817</ele>
        <time>2021-05-20T06:00:30Z</time>
      </trkpt>
      <trkpt lat="45.91829" lon="6.49775">
        <ele>1814</ele>
        <time>2021-05-20T06:00:31Z</time>
      </trkpt>
      <trkpt lat="45.91831" lon="6.49772">
        <ele>1812</ele>
        <time>2021-05-20T06:00:32Z</time>
      </trkpt>
      <trkpt lat="45.91831" lon="6.49772">
        <ele>1811</ele>
        <time>2021-05-20T06:00:33Z</time>
      </trkpt>
      <trkpt lat="45.91834" lon="6.49764">
        <ele>1810</ele>
        <time>2021-05-20T06:00:34Z</time>
      </trkpt>
      <trkpt lat="45.91834" lon="6.49764">
        <ele>1810</ele>
        <time>2021-05-20T06:00:35Z</time>
      </trkpt>
      <trkpt lat="45.91834" lon="6.49758">
        <ele>1809</ele>
        <time>2021-05-20T06:00:36Z</time>
      </trkpt>
      <trkpt lat="45.91834" lon="6.49758">
        <ele>1808</ele>
        <time>2021-05-20T06:00:37Z</time>
      </trkpt>
      <trkpt lat="45.91834" lon="6.4976">
        <ele>1807</ele>
        <time>2021-05-20T06:00:38Z</time>
      </trkpt>
      <trkpt lat="45.91835" lon="6.49762">
        <ele>1807</ele>
        <time>2021-05-20T06:00:39Z</time>
      </trkpt>
      <trkpt lat="45.91835" lon="6.49764">
        <ele>1807</ele>
        <time>2021-05-20T06:00:40Z</time>
      </trkpt>
      <trkpt lat="45.91835" lon="6.49766">
        <ele>1806</ele>
        <time>2021-05-20T06:00:41Z</time>
      </trkpt>
      <trkpt lat="45.91836" lon="6.49768">
        <ele>1806</ele>
        <time>2021-05-20T06:00:42Z</time>
      </trkpt>
      <trkpt lat="45.91836" lon="6.4977">
        <ele>1806</ele>
        <time>2021-05-20T06:00:43Z</time>
      </trkpt>
      <trkpt lat="45.91836" lon="6.49772">
        <ele>1806</ele>
        <time>2021-05-20T06:00:44Z</time>
      </trkpt>
      <trkpt lat="45.91836" lon="6.49773">
        <ele>1806</ele>
        <time>2021-05-20T06:00:45Z</time>
      </trkpt>
      <trkpt lat="45.91836" lon="6.49774">
        <ele>1806</ele>
        <time>2021-05-20T06:00:46Z</time>
      </trkpt>
      <trkpt lat="45.91836" lon="6.49775">
        <ele>1806</ele>
        <time>2021-05-20T06:00:47Z</time>
      </trkpt>
      <trkpt lat="45.91836" lon="6.49776">
        <ele>1805</ele>
        <time>2021-05-20T06:00:48Z</time>
      </trkpt>
      <trkpt lat="45.91836" lon="6.49776">
        <ele>1805</ele>
        <time>2021-05-20T06:00:49Z</time>
      </trkpt>
      <trkpt lat="45.91837" lon="6.49781">
        <ele>1805</ele>
        <time>2021-05-20T06:00:50Z</time>
      </trkpt>
      <trkpt lat="45.91837" lon="6.49781">
        <ele>1805</ele>
        <time>2021-05-20T06:00:51Z</time>
      </trkpt>
      <trkpt lat="45.91848" lon="6.4978">
        <ele>1805</ele>
        <time>2021-05-20T06:00:52Z</time>
      </trkpt>
      <trkpt lat="45.91851" lon="6.49779">
        <ele>1804</ele>
        <time>2021-05-20T06:00:53Z</time>
      </trkpt>
      <trkpt lat="45.91855" lon="6.49777">
        <ele>1802</ele>
        <time>2021-05-20T06:00:54Z</time>
      </trkpt>
      <trkpt lat="45.91855" lon="6.49777">
        <ele>1799</ele>
        <time>2021-05-20T06:00:55Z</time>
      </trkpt>
      <trkpt lat="45.91858" lon="6.49776">
        <ele>1797</ele>
        <time>2021-05-20T06:00:56Z</time>
      </trkpt>
      <trkpt lat="45.91862" lon="6.49775">
        <ele>1795</ele>
        <time>2021-05-20T06:00:57Z</time>
      </trkpt>
      <trkpt lat="45.91865" lon="6.49774">
        <ele>1793</ele>
        <time>2021-05-20T06:00:58Z</time>
      </trkpt>
      <trkpt lat="45.91865" lon="6.49774">
        <ele>1792</ele>
        <time>2021-05-20T06:00:59Z</time>
      </trkpt>
      <trkpt lat="45.91866" lon="6.49774">
        <ele>1790</ele>
        <time>2021-05-20T06:01:00Z</time>
      </trkpt>
      <trkpt lat="45.91866" lon="6.49773">
        <ele>1790</ele>
        <time>2021-05-20T06:01:01Z</time>
      </trkpt>
      <trkpt lat="45.91867" lon="6.49773">
        <ele>1790</ele>
        <time>2021-05-20T06:01:02Z</time>
      </trkpt>
      <trkpt lat="45.91867" lon="6.49773">
        <ele>1790</ele>
        <time>2021-05-20T06:01:03Z</time>
      </trkpt>
      <trkpt lat="45.91867" lon="6.49773">
        <ele>1789</ele>
        <time>2021-05-20T06:01:04Z</time>
      </trkpt>
      <trkpt lat="45.91867" lon="6.49773">
        <ele>1789</ele>
        <time>2021-05-20T06:01:05Z</time>
      </trkpt>
      <trkpt lat="45.91867" lon="6.49773">
        <ele>1789</ele>
        <time>2021-05-20T06:01:06Z</time>
      </trkpt>
      <trkpt lat="45.91867" lon="6.49773">
        <ele>1789</ele>
        <time>2021-05-20T06:01:07Z</time>
      </trkpt>
      <trkpt lat="45.91867" lon="6.49773">
        <ele>1789</ele>
        <time>2021-05-20T06:01:08Z</time>
      </trkpt>
      <trkpt lat="45.91863" lon="6.49774">
        <ele>1789</ele>
        <time>2021-05-20T06:01:09Z</time>
      </trkpt>
      <trkpt lat="45.91863" lon="6.49774">
        <ele>1789</ele>
        <time>2021-05-20T06:01:10Z</time>
      </trkpt>
      <trkpt lat="45.91863" lon="6.49774">
        <ele>1789</ele>
        <time>2021-05-20T06:01:11Z</time>
      </trkpt>
      <trkpt lat="45.91863" lon="6.49774">
        <ele>1790</ele>
        <time>2021-05-20T06:01:12Z</time>
      </trkpt>
      <trkpt lat="45.91863" lon="6.49774">
        <ele>1790</ele>
        <time>2021-05-20T06:01:13Z</time>
      </trkpt>
      <trkpt lat="45.91863" lon="6.49774">
        <ele>1790</ele>
        <time>2021-05-20T06:01:14Z</time>
      </trkpt>
      <trkpt lat="45.91863" lon="6.49774">
        <ele>1790</ele>
        <time>2021-05-20T06:01:15Z</time>
      </trkpt>
      <trkpt lat="45.91863" lon="6.49774">
        <ele>1791</ele>
        <time>2021-05-20T06:01:16Z</time>
      </trkpt>
      <trkpt lat="45.91863" lon="6.49774">
        <ele>1791</ele>
        <time>2021-05-20T06:01:17Z</time>
      </trkpt>
      <trkpt lat="45.91863" lon="6.49774">
        <ele>1791</ele>
        <time>2021-05-20T06:01:18Z</time>
      </trkpt>
      <trkpt lat="45.9186" lon="6.49774">
        <ele>1791</ele>
        <time>2021-05-20T06:01:19Z</time>
      </trkpt>
      <trkpt lat="45.9186" lon="6.49774">
        <ele>1791</ele>
        <time>2021-05-20T06:01:20Z</time>
      </trkpt>
      <trkpt lat="45.9186" lon="6.49774">
        <ele>1791</ele>
        <time>2021-05-20T06:01:21Z</time>
      </trkpt>
      <trkpt lat="45.9186" lon="6.49774">
        <ele>1791</ele>
        <time>2021-05-20T06:01:22Z</time>
      </trkpt>
      <trkpt lat="45.9186" lon="6.49774">
        <ele>1792</ele>
        <time>2021-05-20T06:01:23Z</time>
      </trkpt>
      <trkpt lat="45.9186" lon="6.49774">
        <ele>1792</ele>
        <time>2021-05-20T06:01:24Z</time>
      </trkpt>
      <trkpt lat="45.9186" lon="6.49774">
        <ele>1792</ele>
        <time>2021-05-20T06:01:25Z</time>
      </trkpt>
      <trkpt lat="45.9186" lon="6.49774">
        <ele>1792</ele>
        <time>2021-05-20T06:01:26Z</time>
      </trkpt>
      <trkpt lat="45.91856" lon="6.49776">
        <ele>1792</ele>
        <time>2021-05-20T06:01:27Z</time>
      </trkpt>
      <trkpt lat="45.91856" lon="6.49776">
        <ele>1792</ele>
        <time>2021-05-20T06:01:28Z</time>
      </trkpt>
      <trkpt lat="45.91856" lon="6.49776">
        <ele>1792</ele>
        <time>2021-05-20T06:01:29Z</time>
      </trkpt>
      <trkpt lat="45.91855" lon="6.49776">
        <ele>1793</ele>
        <time>2021-05-20T06:01:30Z</time>
      </trkpt>
      <trkpt lat="45.91855" lon="6.49776">
        <ele>1793</ele>
        <time>2021-05-20T06:01:31Z</time>
      </trkpt>
      <trkpt lat="45.91854" lon="6.49776">
        <ele>1793</ele>
        <time>2021-05-20T06:01:32Z</time>
      </trkpt>
      <trkpt lat="45.91854" lon="6.49776">
        <ele>1793</ele>
        <time>2021-05-20T06:01:33Z</time>
      </trkpt>
      <trkpt lat="45.91854" lon="6.49776">
        <ele>1793</ele>
        <time>2021-05-20T06:01:34Z</time>
      </trkpt>
      <trkpt lat="45.91853" lon="6.49776">
        <ele>1794</ele>
        <time>2021-05-20T06:01:35Z</time>
      </trkpt>
      <trkpt lat="45.91853" lon="6.49776">
        <ele>1794</ele>
        <time>2021-05-20T06:01:36Z</time>
      </trkpt>
      <trkpt lat="45.91853" lon="6.49776">
        <ele>1794</ele>
        <time>2021-05-20T06:01:37Z</time>
      </trkpt>
      <trkpt lat="45.91853" lon="6.49776">
        <ele>1795</ele>
        <time>2021-05-20T06:01:38Z</time>
      </trkpt>
      <trkpt lat="45.91853" lon="6.49776">
        <ele>1795</ele>
        <time>2021-05-20T06:01:39Z</time>
      </trkpt>
      <trkpt lat="45.91853" lon="6.49776">
        <ele>1795</ele>
        <time>2021-05-20T06:01:40Z</time>
      </trkpt>
      <trkpt lat="45.91853" lon="6.49776">
        <ele>1795</ele>
        <time>2021-05-20T06:01:41Z</time>
      </trkpt>
      <trkpt lat="45.91849" lon="6.49774">
        <ele>1795</ele>
        <time>2021-05-20T06:01:42Z</time>
      </trkpt>
      <trkpt lat="45.91849" lon="6.49774">
        <ele>1795</ele>
        <time>2021-05-20T06:01:43Z</time>
      </trkpt>
      <trkpt lat="45.91849" lon="6.49774">
        <ele>1795</ele>
        <time>2021-05-20T06:01:44Z</time>
      </trkpt>
      <trkpt lat="45.91849" lon="6.49774">
        <ele>1795</ele>
        <time>2021-05-20T06:01:45Z</time>
      </trkpt>
      <trkpt lat="45.91849" lon="6.49774">
        <ele>1796</ele>
        <time>2021-05-20T06:01:46Z</time>
      </trkpt>
      <trkpt lat="45.91849" lon="6.49774">
        <ele>1796</ele>
        <time>2021-05-20T06:01:47Z</time>
      </trkpt>
      <trkpt lat="45.91849" lon="6.49774">
        <ele>1796</ele>
        <time>2021-05-20T06:01:48Z</time>
      </trkpt>
      <trkpt lat="45.91849" lon="6.49774">
        <ele>1796</ele>
        <time>2021-05-20T06:01:49Z</time>
      </trkpt>
      <trkpt lat="45.91849" lon="6.49774">
        <ele>1796</ele>
        <time>2021-05-20T06:01:50Z</time>
      </trkpt>
      <trkpt lat="45.91849" lon="6.49774">
        <ele>1797</ele>
        <time>2021-05-20T06:01:51Z</time>
      </trkpt>
      <trkpt lat="45.91849" lon="6.49774">
        <ele>1797</ele>
        <time>2021-05-20T06:01:52Z</time>
      </trkpt>
      <trkpt lat="45.91849" lon="6.49774">
        <ele>1797</ele>
        <time>2021-05-20T06:01:53Z</time>
      </trkpt>
      <trkpt lat="45.91849" lon="6.49774">
        <ele>1796</ele>
        <time>2021-05-20T06:01:54Z</time>
      </trkpt>
      <trkpt lat="45.91849" lon="6.49774">
        <ele>1796</ele>
        <time>2021-05-20T06:01:55Z</time>
      </trkpt>
      <trkpt lat="45.91849" lon="6.49774">
        <ele>1796</ele>
        <time>2021-05-20T06:01:56Z</time>
      </trkpt>
      <trkpt lat="45.91849" lon="6.49774">
        <ele>1796</ele>
        <time>2021-05-20T06:01:57Z</time>
      </trkpt>
      <trkpt lat="45.91849" lon="6.49774">
        <ele>1796</ele>
        <time>2021-05-20T06:01:58Z</time>
      </trkpt>
      <trkpt lat="45.91849" lon="6.49774">
        <ele>1796</ele>
        <time>2021-05-20T06:01:59Z</time>
      </trkpt>
      <trkpt lat="45.91847" lon="6.49777">
        <ele>1796</ele>
        <time>2021-05-20T06:02:00Z</time>
      </trkpt>
      <trkpt lat="45.91847" lon="6.49777">
        <ele>1796</ele>
        <time>2021-05-20T06:02:01Z</time>
      </trkpt>
      <trkpt lat="45.91847" lon="6.49777">
        <ele>1796</ele>
        <time>2021-05-20T06:02:02Z</time>
      </trkpt>
      <trkpt lat="45.91847" lon="6.49777">
        <ele>1796</ele>
        <time>2021-05-20T06:02:03Z</time>
      </trkpt>
      <trkpt lat="45.91847" lon="6.49777">
        <ele>1796</ele>
        <time>2021-05-20T06:02:04Z</time>
      </trkpt>
      <trkpt lat="45.91847" lon="6.49777">
        <ele>1796</ele>
        <time>2021-05-20T06:02:05Z</time>
      </trkpt>
      <trkpt lat="45.91847" lon="6.49777">
        <ele>1795</ele>
        <time>2021-05-20T06:02:06Z</time>
      </trkpt>
      <trkpt lat="45.91847" lon="6.49777">
        <ele>1795</ele>
        <time>2021-05-20T06:02:07Z</time>
      </trkpt>
      <trkpt lat="45.91847" lon="6.49777">
        <ele>1795</ele>
        <time>2021-05-20T06:02:08Z</time>
      </trkpt>
      <trkpt lat="45.91847" lon="6.49777">
        <ele>1796</ele>
        <time>2021-05-20T06:02:09Z</time>
      </trkpt>
      <trkpt lat="45.91847" lon="6.49777">
        <ele>1796</ele>
        <time>2021-05-20T06:02:10Z</time>
      </trkpt>
      <trkpt lat="45.91847" lon="6.49777">
        <ele>1796</ele>
        <time>2021-05-20T06:02:11Z</time>
      </trkpt>
      <trkpt lat="45.91845" lon="6.49782">
        <ele>1797</ele>
        <time>2021-05-20T06:02:12Z</time>
      </trkpt>
      <trkpt lat="45.91845" lon="6.49782">
        <ele>1797</ele>
        <time>2021-05-20T06:02:13Z</time>
      </trkpt>
      <trkpt lat="45.91845" lon="6.49782">
        <ele>1797</ele>
        <time>2021-05-20T06:02:14Z</time>
      </trkpt>
      <trkpt lat="45.91845" lon="6.49782">
        <ele>1797</ele>
        <time>2021-05-20T06:02:15Z</time>
      </trkpt>
      <trkpt lat="45.91845" lon="6.49782">
        <ele>1798</ele>
        <time>2021-05-20T06:02:16Z</time>
      </trkpt>
      <trkpt lat="45.91845" lon="6.49782">
        <ele>1798</ele>
        <time>2021-05-20T06:02:17Z</time>
      </trkpt>
      <trkpt lat="45.91845" lon="6.49782">
        <ele>1798</ele>
        <time>2021-05-20T06:02:18Z</time>
      </trkpt>
      <trkpt lat="45.91845" lon="6.49782">
        <ele>1797</ele>
        <time>2021-05-20T06:02:19Z</time>
      </trkpt>
      <trkpt lat="45.91845" lon="6.49782">
        <ele>1797</ele>
        <time>2021-05-20T06:02:20Z</time>
      </trkpt>
      <trkpt lat="45.91844" lon="6.49787">
        <ele>1798</ele>
        <time>2021-05-20T06:02:21Z</time>
      </trkpt>
      <trkpt lat="45.91844" lon="6.49787">
        <ele>1798</ele>
        <time>2021-05-20T06:02:22Z</time>
      </trkpt>
      <trkpt lat="45.91844" lon="6.49787">
        <ele>1799</ele>
        <time>2021-05-20T06:02:23Z</time>
      </trkpt>
      <trkpt lat="45.91844" lon="6.49787">
        <ele>1799</ele>
        <time>2021-05-20T06:02:24Z</time>
      </trkpt>
      <trkpt lat="45.91844" lon="6.49787">
        <ele>1799</ele>
        <time>2021-05-20T06:02:25Z</time>
      </trkpt>
      <trkpt lat="45.91844" lon="6.49787">
        <ele>1799</ele>
        <time>2021-05-20T06:02:26Z</time>
      </trkpt>
      <trkpt lat="45.91844" lon="6.49787">
        <ele>1799</ele>
        <time>2021-05-20T06:02:27Z</time>
      </trkpt>
      <trkpt lat="45.91844" lon="6.49787">
        <ele>1799</ele>
        <time>2021-05-20T06:02:28Z</time>
      </trkpt>
      <trkpt lat="45.91841" lon="6.4979">
        <ele>1799</ele>
        <time>2021-05-20T06:02:29Z</time>
      </trkpt>
      <trkpt lat="45.91841" lon="6.4979">
        <ele>1799</ele>
        <time>2021-05-20T06:02:30Z</time>
      </trkpt>
      <trkpt lat="45.91841" lon="6.49791">
        <ele>1799</ele>
        <time>2021-05-20T06:02:31Z</time>
      </trkpt>
      <trkpt lat="45.91841" lon="6.49791">
        <ele>1799</ele>
        <time>2021-05-20T06:02:32Z</time>
      </trkpt>
      <trkpt lat="45.91841" lon="6.49791">
        <ele>1800</ele>
        <time>2021-05-20T06:02:33Z</time>
      </trkpt>
      <trkpt lat="45.91841" lon="6.49791">
        <ele>1800</ele>
        <time>2021-05-20T06:02:34Z</time>
      </trkpt>
      <trkpt lat="45.91841" lon="6.49791">
        <ele>1800</ele>
        <time>2021-05-20T06:02:35Z</time>
      </trkpt>
      <trkpt lat="45.9184" lon="6.49792">
        <ele>1800</ele>
        <time>2021-05-20T06:02:36Z</time>
      </trkpt>
      <trkpt lat="45.9184" lon="6.49792">
        <ele>1800</ele>
        <time>2021-05-20T06:02:37Z</time>
      </trkpt>
      <trkpt lat="45.9184" lon="6.49792">
        <ele>1800</ele>
        <time>2021-05-20T06:02:38Z</time>
      </trkpt>
      <trkpt lat="45.9184" lon="6.49792">
        <ele>1800</ele>
        <time>2021-05-20T06:02:39Z</time>
      </trkpt>
      <trkpt lat="45.9184" lon="6.49792">
        <ele>1800</ele>
        <time>2021-05-20T06:02:40Z</time>
      </trkpt>
      <trkpt lat="45.9184" lon="6.49793">
        <ele>1800</ele>
        <time>2021-05-20T06:02:41Z</time>
      </trkpt>
      <trkpt lat="45.9184" lon="6.49793">
        <ele>1800</ele>
        <time>2021-05-20T06:02:42Z</time>
      </trkpt>
      <trkpt lat="45.91839" lon="6.49793">
        <ele>1800</ele>
        <time>2021-05-20T06:02:43Z</time>
      </trkpt>
      <trkpt lat="45.91839" lon="6.49793">
        <ele>1801</ele>
        <time>2021-05-20T06:02:44Z</time>
      </trkpt>
      <trkpt lat="45.91839" lon="6.49793">
        <ele>1801</ele>
        <time>2021-05-20T06:02:45Z</time>
      </trkpt>
      <trkpt lat="45.91839" lon="6.49794">
        <ele>1801</ele>
        <time>2021-05-20T06:02:46Z</time>
      </trkpt>
      <trkpt lat="45.91839" lon="6.49794">
        <ele>1802</ele>
        <time>2021-05-20T06:02:47Z</time>
      </trkpt>
      <trkpt lat="45.91839" lon="6.49794">
        <ele>1802</ele>
        <time>2021-05-20T06:02:48Z</time>
      </trkpt>
      <trkpt lat="45.91839" lon="6.49794">
        <ele>1802</ele>
        <time>2021-05-20T06:02:49Z</time>
      </trkpt>
      <trkpt lat="45.91839" lon="6.49794">
        <ele>1802</ele>
        <time>2021-05-20T06:02:50Z</time>
      </trkpt>
      <trkpt lat="45.91839" lon="6.49794">
        <ele>1803</ele>
        <time>2021-05-20T06:02:51Z</time>
      </trkpt>
      <trkpt lat="45.91839" lon="6.49794">
        <ele>1803</ele>
        <time>2021-05-20T06:02:52Z</time>
      </trkpt>
      <trkpt lat="45.91839" lon="6.49794">
        <ele>1803</ele>
        <time>2021-05-20T06:02:53Z</time>
      </trkpt>
      <trkpt lat="45.91839" lon="6.49794">
        <ele>1803</ele>
        <time>2021-05-20T06:02:54Z</time>
      </trkpt>
      <trkpt lat="45.91839" lon="6.49794">
        <ele>1803</ele>
        <time>2021-05-20T06:02:55Z</time>
      </trkpt>
      <trkpt lat="45.91839" lon="6.49794">
        <ele>1803</ele>
        <time>2021-05-20T06:02:56Z</time>
      </trkpt>
      <trkpt lat="45.91839" lon="6.49794">
        <ele>1803</ele>
        <time>2021-05-20T06:02:57Z</time>
      </trkpt>
      <trkpt lat="45.91837" lon="6.49796">
        <ele>1804</ele>
        <time>2021-05-20T06:02:58Z</time>
      </trkpt>
      <trkpt lat="45.91837" lon="6.49796">
        <ele>1804</ele>
        <time>2021-05-20T06:02:59Z</time>
      </trkpt>
      <trkpt lat="45.91837" lon="6.49796">
        <ele>1803</ele>
        <time>2021-05-20T06:03:00Z</time>
      </trkpt>
      <trkpt lat="45.91837" lon="6.49796">
        <ele>1803</ele>
        <time>2021-05-20T06:03:01Z</time>
      </trkpt>
      <trkpt lat="45.91837" lon="6.49796">
        <ele>1803</ele>
        <time>2021-05-20T06:03:02Z</time>
      </trkpt>
      <trkpt lat="45.91837" lon="6.49796">
        <ele>1803</ele>
        <time>2021-05-20T06:03:03Z</time>
      </trkpt>
      <trkpt lat="45.91837" lon="6.49796">
        <ele>1804</ele>
        <time>2021-05-20T06:03:04Z</time>
      </trkpt>
      <trkpt lat="45.91837" lon="6.49796">
        <ele>1804</ele>
        <time>2021-05-20T06:03:05Z</time>
      </trkpt>
      <trkpt lat="45.91837" lon="6.49796">
        <ele>1804</ele>
        <time>2021-05-20T06:03:06Z</time>
      </trkpt>
      <trkpt lat="45.91837" lon="6.49796">
        <ele>1804</ele>
        <time>2021-05-20T06:03:07Z</time>
      </trkpt>
      <trkpt lat="45.91837" lon="6.49796">
        <ele>1804</ele>
        <time>2021-05-20T06:03:08Z</time>
      </trkpt>
      <trkpt lat="45.91837" lon="6.49796">
        <ele>1804</ele>
        <time>2021-05-20T06:03:09Z</time>
      </trkpt>
      <trkpt lat="45.91837" lon="6.49796">
        <ele>1804</ele>
        <time>2021-05-20T06:03:10Z</time>
      </trkpt>
      <trkpt lat="45.91837" lon="6.49796">
        <ele>1804</ele>
        <time>2021-05-20T06:03:11Z</time>
      </trkpt>
      <trkpt lat="45.91837" lon="6.49796">
        <ele>1804</ele>
        <time>2021-05-20T06:03:12Z</time>
      </trkpt>
      <trkpt lat="45.91837" lon="6.49796">
        <ele>1804</ele>
        <time>2021-05-20T06:03:13Z</time>
      </trkpt>
      <trkpt lat="45.91837" lon="6.49796">
        <ele>1805</ele>
        <time>2021-05-20T06:03:14Z</time>
      </trkpt>
      <trkpt lat="45.91837" lon="6.49796">
        <ele>1805</ele>
        <time>2021-05-20T06:03:15Z</time>
      </trkpt>
      <trkpt lat="45.91834" lon="6.498">
        <ele>1805</ele>
        <time>2021-05-20T06:03:16Z</time>
      </trkpt>
      <trkpt lat="45.91834" lon="6.498">
        <ele>1806</ele>
        <time>2021-05-20T06:03:17Z</time>
      </trkpt>
      <trkpt lat="45.91834" lon="6.498">
        <ele>1806</ele>
        <time>2021-05-20T06:03:18Z</time>
      </trkpt>
      <trkpt lat="45.91834" lon="6.498">
        <ele>1806</ele>
        <time>2021-05-20T06:03:19Z</time>
      </trkpt>
      <trkpt lat="45.91834" lon="6.498">
        <ele>1806</ele>
        <time>2021-05-20T06:03:20Z</time>
      </trkpt>
      <trkpt lat="45.91834" lon="6.498">
        <ele>1806</ele>
        <time>2021-05-20T06:03:21Z</time>
      </trkpt>
      <trkpt lat="45.91834" lon="6.498">
        <ele>1806</ele>
        <time>2021-05-20T06:03:22Z</time>
      </trkpt>
      <trkpt lat="45.91834" lon="6.498">
        <ele>1806</ele>
        <time>2021-05-20T06:03:23Z</time>
      </trkpt>
      <trkpt lat="45.91834" lon="6.498">
        <ele>1806</ele>
        <time>2021-05-20T06:03:24Z</time>
      </trkpt>
      <trkpt lat="45.91832" lon="6.49795">
        <ele>1806</ele>
        <time>2021-05-20T06:03:25Z</time>
      </trkpt>
      <trkpt lat="45.91832" lon="6.49795">
        <ele>1806</ele>
        <time>2021-05-20T06:03:26Z</time>
      </trkpt>
      <trkpt lat="45.91832" lon="6.49795">
        <ele>1806</ele>
        <time>2021-05-20T06:03:27Z</time>
      </trkpt>
      <trkpt lat="45.91831" lon="6.4979">
        <ele>1806</ele>
        <time>2021-05-20T06:03:28Z</time>
      </trkpt>
      <trkpt lat="45.91831" lon="6.4979">
        <ele>1806</ele>
        <time>2021-05-20T06:03:29Z</time>
      </trkpt>
      <trkpt lat="45.91831" lon="6.4979">
        <ele>1806</ele>
        <time>2021-05-20T06:03:30Z</time>
      </trkpt>
      <trkpt lat="45.91831" lon="6.4979">
        <ele>1806</ele>
        <time>2021-05-20T06:03:31Z</time>
      </trkpt>
      <trkpt lat="45.91831" lon="6.4979">
        <ele>1806</ele>
        <time>2021-05-20T06:03:32Z</time>
      </trkpt>
      <trkpt lat="45.91831" lon="6.4979">
        <ele>1806</ele>
        <time>2021-05-20T06:03:33Z</time>
      </trkpt>
      <trkpt lat="45.91831" lon="6.4979">
        <ele>1806</ele>
        <time>2021-05-20T06:03:34Z</time>
      </trkpt>
      <trkpt lat="45.91828" lon="6.49787">
        <ele>1807</ele>
        <time>2021-05-20T06:03:35Z</time>
      </trkpt>
      <trkpt lat="45.91828" lon="6.49787">
        <ele>1807</ele>
        <time>2021-05-20T06:03:36Z</time>
      </trkpt>
      <trkpt lat="45.91828" lon="6.49787">
        <ele>1807</ele>
        <time>2021-05-20T06:03:37Z</time>
      </trkpt>
      <trkpt lat="45.91828" lon="6.49787">
        <ele>1807</ele>
        <time>2021-05-20T06:03:38Z</time>
      </trkpt>
      <trkpt lat="45.91828" lon="6.49787">
        <ele>1807</ele>
        <time>2021-05-20T06:03:39Z</time>
      </trkpt>
      <trkpt lat="45.91827" lon="6.49782">
        <ele>1807</ele>
        <time>2021-05-20T06:03:40Z</time>
      </trkpt>
      <trkpt lat="45.91827" lon="6.49782">
        <ele>1807</ele>
        <time>2021-05-20T06:03:41Z</time>
      </trkpt>
      <trkpt lat="45.91827" lon="6.4978">
        <ele>1807</ele>
        <time>2021-05-20T06:03:42Z</time>
      </trkpt>
      <trkpt lat="45.91827" lon="6.49779">
        <ele>1807</ele>
        <time>2021-05-20T06:03:43Z</time>
      </trkpt>
      <trkpt lat="45.91827" lon="6.49778">
        <ele>1807</ele>
        <time>2021-05-20T06:03:44Z</time>
      </trkpt>
      <trkpt lat="45.91826" lon="6.49776">
        <ele>1807</ele>
        <time>2021-05-20T06:03:45Z</time>
      </trkpt>
      <trkpt lat="45.91826" lon="6.49776">
        <ele>1807</ele>
        <time>2021-05-20T06:03:46Z</time>
      </trkpt>
      <trkpt lat="45.91825" lon="6.49771">
        <ele>1807</ele>
        <time>2021-05-20T06:03:47Z</time>
      </trkpt>
      <trkpt lat="45.91825" lon="6.49771">
        <ele>1807</ele>
        <time>2021-05-20T06:03:48Z</time>
      </trkpt>
      <trkpt lat="45.91824" lon="6.49766">
        <ele>1807</ele>
        <time>2021-05-20T06:03:49Z</time>
      </trkpt>
      <trkpt lat="45.91824" lon="6.49766">
        <ele>1806</ele>
        <time>2021-05-20T06:03:50Z</time>
      </trkpt>
      <trkpt lat="45.91823" lon="6.49764">
        <ele>1806</ele>
        <time>2021-05-20T06:03:51Z</time>
      </trkpt>
      <trkpt lat="45.91822" lon="6.49762">
        <ele>1806</ele>
        <time>2021-05-20T06:03:52Z</time>
      </trkpt>
      <trkpt lat="45.91821" lon="6.4976">
        <ele>1806</ele>
        <time>2021-05-20T06:03:53Z</time>
      </trkpt>
      <trkpt lat="45.9182" lon="6.49758">
        <ele>1806</ele>
        <time>2021-05-20T06:03:54Z</time>
      </trkpt>
      <trkpt lat="45.91819" lon="6.49756">
        <ele>1805</ele>
        <time>2021-05-20T06:03:55Z</time>
      </trkpt>
      <trkpt lat="45.91817" lon="6.49755">
        <ele>1805</ele>
        <time>2021-05-20T06:03:56Z</time>
      </trkpt>
      <trkpt lat="45.91816" lon="6.49753">
        <ele>1805</ele>
        <time>2021-05-20T06:03:57Z</time>
      </trkpt>
      <trkpt lat="45.91816" lon="6.49753">
        <ele>1805</ele>
        <time>2021-05-20T06:03:58Z</time>
      </trkpt>
      <trkpt lat="45.91816" lon="6.49753">
        <ele>1805</ele>
        <time>2021-05-20T06:03:59Z</time>
      </trkpt>
      <trkpt lat="45.91816" lon="6.49753">
        <ele>1805</ele>
        <time>2021-05-20T06:04:00Z</time>
      </trkpt>
      <trkpt lat="45.91816" lon="6.49753">
        <ele>1805</ele>
        <time>2021-05-20T06:04:01Z</time>
      </trkpt>
      <trkpt lat="45.91815" lon="6.49753">
        <ele>1805</ele>
        <time>2021-05-20T06:04:02Z</time>
      </trkpt>
      <trkpt lat="45.91815" lon="6.49753">
        <ele>1804</ele>
        <time>2021-05-20T06:04:03Z</time>
      </trkpt>
      <trkpt lat="45.91815" lon="6.49753">
        <ele>1804</ele>
        <time>2021-05-20T06:04:04Z</time>
      </trkpt>
      <trkpt lat="45.91815" lon="6.49753">
        <ele>1804</ele>
        <time>2021-05-20T06:04:05Z</time>
      </trkpt>
      <trkpt lat="45.91814" lon="6.49753">
        <ele>1804</ele>
        <time>2021-05-20T06:04:06Z</time>
      </trkpt>
      <trkpt lat="45.91814" lon="6.49753">
        <ele>1804</ele>
        <time>2021-05-20T06:04:07Z</time>
      </trkpt>
      <trkpt lat="45.91814" lon="6.49753">
        <ele>1805</ele>
        <time>2021-05-20T06:04:08Z</time>
      </trkpt>
      <trkpt lat="45.91814" lon="6.49753">
        <ele>1805</ele>
        <time>2021-05-20T06:04:09Z</time>
      </trkpt>
      <trkpt lat="45.91814" lon="6.49753">
        <ele>1805</ele>
        <time>2021-05-20T06:04:10Z</time>
      </trkpt>
      <trkpt lat="45.91813" lon="6.49753">
        <ele>1805</ele>
        <time>2021-05-20T06:04:11Z</time>
      </trkpt>
      <trkpt lat="45.91813" lon="6.49753">
        <ele>1805</ele>
        <time>2021-05-20T06:04:12Z</time>
      </trkpt>
      <trkpt lat="45.91813" lon="6.49753">
        <ele>1805</ele>
        <time>2021-05-20T06:04:13Z</time>
      </trkpt>
      <trkpt lat="45.91813" lon="6.49753">
        <ele>1805</ele>
        <time>2021-05-20T06:04:14Z</time>
      </trkpt>
      <trkpt lat="45.91812" lon="6.49753">
        <ele>1805</ele>
        <time>2021-05-20T06:04:15Z</time>
      </trkpt>
      <trkpt lat="45.91812" lon="6.49752">
        <ele>1805</ele>
        <time>2021-05-20T06:04:16Z</time>
      </trkpt>
      <trkpt lat="45.91811" lon="6.49752">
        <ele>1805</ele>
        <time>2021-05-20T06:04:17Z</time>
      </trkpt>
      <trkpt lat="45.9181" lon="6.49752">
        <ele>1805</ele>
        <time>2021-05-20T06:04:18Z</time>
      </trkpt>
      <trkpt lat="45.9181" lon="6.49752">
        <ele>1805</ele>
        <time>2021-05-20T06:04:19Z</time>
      </trkpt>
      <trkpt lat="45.91809" lon="6.49752">
        <ele>1805</ele>
        <time>2021-05-20T06:04:20Z</time>
      </trkpt>
      <trkpt lat="45.91809" lon="6.49752">
        <ele>1805</ele>
        <time>2021-05-20T06:04:21Z</time>
      </trkpt>
      <trkpt lat="45.91808" lon="6.49752">
        <ele>1805</ele>
        <time>2021-05-20T06:04:22Z</time>
      </trkpt>
      <trkpt lat="45.91808" lon="6.49751">
        <ele>1805</ele>
        <time>2021-05-20T06:04:23Z</time>
      </trkpt>
      <trkpt lat="45.91807" lon="6.49751">
        <ele>1805</ele>
        <time>2021-05-20T06:04:24Z</time>
      </trkpt>
      <trkpt lat="45.91807" lon="6.49751">
        <ele>1805</ele>
        <time>2021-05-20T06:04:25Z</time>
      </trkpt>
      <trkpt lat="45.91806" lon="6.49751">
        <ele>1805</ele>
        <time>2021-05-20T06:04:26Z</time>
      </trkpt>
      <trkpt lat="45.91806" lon="6.49751">
        <ele>1805</ele>
        <time>2021-05-20T06:04:27Z</time>
      </trkpt>
      <trkpt lat="45.91805" lon="6.49751">
        <ele>1805</ele>
        <time>2021-05-20T06:04:28Z</time>
      </trkpt>
      <trkpt lat="45.91805" lon="6.4975">
        <ele>1805</ele>
        <time>2021-05-20T06:04:29Z</time>
      </trkpt>
      <trkpt lat="45.91805" lon="6.4975">
        <ele>1805</ele>
        <time>2021-05-20T06:04:30Z</time>
      </trkpt>
      <trkpt lat="45.91804" lon="6.4975">
        <ele>1805</ele>
        <time>2021-05-20T06:04:31Z</time>
      </trkpt>
      <trkpt lat="45.91804" lon="6.4975">
        <ele>1805</ele>
        <time>2021-05-20T06:04:32Z</time>
      </trkpt>
      <trkpt lat="45.91803" lon="6.4975">
        <ele>1806</ele>
        <time>2021-05-20T06:04:33Z</time>
      </trkpt>
      <trkpt lat="45.91803" lon="6.49749">
        <ele>1806</ele>
        <time>2021-05-20T06:04:34Z</time>
      </trkpt>
      <trkpt lat="45.91802" lon="6.49749">
        <ele>1806</ele>
        <time>2021-05-20T06:04:35Z</time>
      </trkpt>
      <trkpt lat="45.91802" lon="6.49749">
        <ele>1806</ele>
        <time>2021-05-20T06:04:36Z</time>
      </trkpt>
      <trkpt lat="45.91801" lon="6.49749">
        <ele>1806</ele>
        <time>2021-05-20T06:04:37Z</time>
      </trkpt>
      <trkpt lat="45.91801" lon="6.49749">
        <ele>1807</ele>
        <time>2021-05-20T06:04:38Z</time>
      </trkpt>
      <trkpt lat="45.91801" lon="6.49749">
        <ele>1807</ele>
        <time>2021-05-20T06:04:39Z</time>
      </trkpt>
      <trkpt lat="45.918" lon="6.49749">
        <ele>1807</ele>
        <time>2021-05-20T06:04:40Z</time>
      </trkpt>
      <trkpt lat="45.918" lon="6.49749">
        <ele>1806</ele>
        <time>2021-05-20T06:04:41Z</time>
      </trkpt>
      <trkpt lat="45.91799" lon="6.49749">
        <ele>1806</ele>
        <time>2021-05-20T06:04:42Z</time>
      </trkpt>
      <trkpt lat="45.91799" lon="6.49749">
        <ele>1806</ele>
        <time>2021-05-20T06:04:43Z</time>
      </trkpt>
      <trkpt lat="45.91798" lon="6.49749">
        <ele>1806</ele>
        <time>2021-05-20T06:04:44Z</time>
      </trkpt>
      <trkpt lat="45.91798" lon="6.49749">
        <ele>1807</ele>
        <time>2021-05-20T06:04:45Z</time>
      </trkpt>
      <trkpt lat="45.91797" lon="6.49749">
        <ele>1807</ele>
        <time>2021-05-20T06:04:46Z</time>
      </trkpt>
      <trkpt lat="45.91797" lon="6.49748">
        <ele>1807</ele>
        <time>2021-05-20T06:04:47Z</time>
      </trkpt>
      <trkpt lat="45.91796" lon="6.49748">
        <ele>1807</ele>
        <time>2021-05-20T06:04:48Z</time>
      </trkpt>
      <trkpt lat="45.91796" lon="6.49747">
        <ele>1807</ele>
        <time>2021-05-20T06:04:49Z</time>
      </trkpt>
      <trkpt lat="45.91795" lon="6.49747">
        <ele>1807</ele>
        <time>2021-05-20T06:04:50Z</time>
      </trkpt>
      <trkpt lat="45.91795" lon="6.49746">
        <ele>1807</ele>
        <time>2021-05-20T06:04:51Z</time>
      </trkpt>
      <trkpt lat="45.91794" lon="6.49746">
        <ele>1807</ele>
        <time>2021-05-20T06:04:52Z</time>
      </trkpt>
      <trkpt lat="45.91793" lon="6.49746">
        <ele>1807</ele>
        <time>2021-05-20T06:04:53Z</time>
      </trkpt>
      <trkpt lat="45.91793" lon="6.49745">
        <ele>1808</ele>
        <time>2021-05-20T06:04:54Z</time>
      </trkpt>
      <trkpt lat="45.91792" lon="6.49745">
        <ele>1808</ele>
        <time>2021-05-20T06:04:55Z</time>
      </trkpt>
      <trkpt lat="45.91792" lon="6.49744">
        <ele>1809</ele>
        <time>2021-05-20T06:04:56Z</time>
      </trkpt>
      <trkpt lat="45.91791" lon="6.49744">
        <ele>1809</ele>
        <time>2021-05-20T06:04:57Z</time>
      </trkpt>
      <trkpt lat="45.9179" lon="6.49743">
        <ele>1809</ele>
        <time>2021-05-20T06:04:58Z</time>
      </trkpt>
      <trkpt lat="45.9179" lon="6.49743">
        <ele>1808</ele>
        <time>2021-05-20T06:04:59Z</time>
      </trkpt>
      <trkpt lat="45.91789" lon="6.49742">
        <ele>1807</ele>
        <time>2021-05-20T06:05:00Z</time>
      </trkpt>
      <trkpt lat="45.91789" lon="6.49742">
        <ele>1807</ele>
        <time>2021-05-20T06:05:01Z</time>
      </trkpt>
      <trkpt lat="45.91788" lon="6.49742">
        <ele>1807</ele>
        <time>2021-05-20T06:05:02Z</time>
      </trkpt>
      <trkpt lat="45.91788" lon="6.49741">
        <ele>1807</ele>
        <time>2021-05-20T06:05:03Z</time>
      </trkpt>
      <trkpt lat="45.91787" lon="6.49741">
        <ele>1807</ele>
        <time>2021-05-20T06:05:04Z</time>
      </trkpt>
      <trkpt lat="45.91787" lon="6.49741">
        <ele>1807</ele>
        <time>2021-05-20T06:05:05Z</time>
      </trkpt>
      <trkpt lat="45.91786" lon="6.49741">
        <ele>1807</ele>
        <time>2021-05-20T06:05:06Z</time>
      </trkpt>
      <trkpt lat="45.91786" lon="6.49741">
        <ele>1807</ele>
        <time>2021-05-20T06:05:07Z</time>
      </trkpt>
      <trkpt lat="45.91786" lon="6.4974">
        <ele>1807</ele>
        <time>2021-05-20T06:05:08Z</time>
      </trkpt>
      <trkpt lat="45.91785" lon="6.4974">
        <ele>1807</ele>
        <time>2021-05-20T06:05:09Z</time>
      </trkpt>
      <trkpt lat="45.91785" lon="6.4974">
        <ele>1807</ele>
        <time>2021-05-20T06:05:10Z</time>
      </trkpt>
      <trkpt lat="45.91784" lon="6.4974">
        <ele>1807</ele>
        <time>2021-05-20T06:05:11Z</time>
      </trkpt>
      <trkpt lat="45.91784" lon="6.4974">
        <ele>1807</ele>
        <time>2021-05-20T06:05:12Z</time>
      </trkpt>
      <trkpt lat="45.91784" lon="6.4974">
        <ele>1807</ele>
        <time>2021-05-20T06:05:13Z</time>
      </trkpt>
      <trkpt lat="45.91783" lon="6.49739">
        <ele>1807</ele>
        <time>2021-05-20T06:05:14Z</time>
      </trkpt>
      <trkpt lat="45.91783" lon="6.49739">
        <ele>1807</ele>
        <time>2021-05-20T06:05:15Z</time>
      </trkpt>
      <trkpt lat="45.91782" lon="6.49739">
        <ele>1807</ele>
        <time>2021-05-20T06:05:16Z</time>
      </trkpt>
      <trkpt lat="45.91782" lon="6.49739">
        <ele>1807</ele>
        <time>2021-05-20T06:05:17Z</time>
      </trkpt>
      <trkpt lat="45.91782" lon="6.49739">
        <ele>1807</ele>
        <time>2021-05-20T06:05:18Z</time>
      </trkpt>
      <trkpt lat="45.91781" lon="6.49739">
        <ele>1807</ele>
        <time>2021-05-20T06:05:19Z</time>
      </trkpt>
      <trkpt lat="45.91781" lon="6.49739">
        <ele>1807</ele>
        <time>2021-05-20T06:05:20Z</time>
      </trkpt>
      <trkpt lat="45.91781" lon="6.4974">
        <ele>1807</ele>
        <time>2021-05-20T06:05:21Z</time>
      </trkpt>
      <trkpt lat="45.9178" lon="6.4974">
        <ele>1807</ele>
        <time>2021-05-20T06:05:22Z</time>
      </trkpt>
      <trkpt lat="45.9178" lon="6.4974">
        <ele>1807</ele>
        <time>2021-05-20T06:05:23Z</time>
      </trkpt>
      <trkpt lat="45.9178" lon="6.4974">
        <ele>1806</ele>
        <time>2021-05-20T06:05:24Z</time>
      </trkpt>
      <trkpt lat="45.91779" lon="6.4974">
        <ele>1807</ele>
        <time>2021-05-20T06:05:25Z</time>
      </trkpt>
      <trkpt lat="45.91779" lon="6.4974">
        <ele>1807</ele>
        <time>2021-05-20T06:05:26Z</time>
      </trkpt>
      <trkpt lat="45.91779" lon="6.4974">
        <ele>1806</ele>
        <time>2021-05-20T06:05:27Z</time>
      </trkpt>
      <trkpt lat="45.91779" lon="6.4974">
        <ele>1806</ele>
        <time>2021-05-20T06:05:28Z</time>
      </trkpt>
      <trkpt lat="45.91779" lon="6.4974">
        <ele>1806</ele>
        <time>2021-05-20T06:05:29Z</time>
      </trkpt>
      <trkpt lat="45.91779" lon="6.4974">
        <ele>1806</ele>
        <time>2021-05-20T06:05:30Z</time>
      </trkpt>
      <trkpt lat="45.91779" lon="6.4974">
        <ele>1806</ele>
        <time>2021-05-20T06:05:31Z</time>
      </trkpt>
      <trkpt lat="45.91779" lon="6.4974">
        <ele>1806</ele>
        <time>2021-05-20T06:05:32Z</time>
      </trkpt>
      <trkpt lat="45.91779" lon="6.4974">
        <ele>1807</ele>
        <time>2021-05-20T06:05:33Z</time>
      </trkpt>
      <trkpt lat="45.91779" lon="6.4974">
        <ele>1807</ele>
        <time>2021-05-20T06:05:34Z</time>
      </trkpt>
      <trkpt lat="45.91775" lon="6.49742">
        <ele>1807</ele>
        <time>2021-05-20T06:05:35Z</time>
      </trkpt>
      <trkpt lat="45.91775" lon="6.49742">
        <ele>1807</ele>
        <time>2021-05-20T06:05:36Z</time>
      </trkpt>
      <trkpt lat="45.91774" lon="6.49743">
        <ele>1807</ele>
        <time>2021-05-20T06:05:37Z</time>
      </trkpt>
      <trkpt lat="45.91774" lon="6.49743">
        <ele>1807</ele>
        <time>2021-05-20T06:05:38Z</time>
      </trkpt>
      <trkpt lat="45.91774" lon="6.49743">
        <ele>1807</ele>
        <time>2021-05-20T06:05:39Z</time>
      </trkpt>
      <trkpt lat="45.91773" lon="6.49743">
        <ele>1807</ele>
        <time>2021-05-20T06:05:40Z</time>
      </trkpt>
      <trkpt lat="45.91773" lon="6.49744">
        <ele>1808</ele>
        <time>2021-05-20T06:05:41Z</time>
      </trkpt>
      <trkpt lat="45.91772" lon="6.49744">
        <ele>1808</ele>
        <time>2021-05-20T06:05:42Z</time>
      </trkpt>
      <trkpt lat="45.91772" lon="6.49744">
        <ele>1808</ele>
        <time>2021-05-20T06:05:43Z</time>
      </trkpt>
      <trkpt lat="45.91772" lon="6.49744">
        <ele>1808</ele>
        <time>2021-05-20T06:05:44Z</time>
      </trkpt>
      <trkpt lat="45.91771" lon="6.49745">
        <ele>1808</ele>
        <time>2021-05-20T06:05:45Z</time>
      </trkpt>
      <trkpt lat="45.91771" lon="6.49745">
        <ele>1808</ele>
        <time>2021-05-20T06:05:46Z</time>
      </trkpt>
      <trkpt lat="45.91771" lon="6.49745">
        <ele>1808</ele>
        <time>2021-05-20T06:05:47Z</time>
      </trkpt>
      <trkpt lat="45.9177" lon="6.49745">
        <ele>1809</ele>
        <time>2021-05-20T06:05:48Z</time>
      </trkpt>
      <trkpt lat="45.9177" lon="6.49746">
        <ele>1809</ele>
        <time>2021-05-20T06:05:49Z</time>
      </trkpt>
      <trkpt lat="45.9177" lon="6.49746">
        <ele>1809</ele>
        <time>2021-05-20T06:05:50Z</time>
      </trkpt>
      <trkpt lat="45.91769" lon="6.49746">
        <ele>1809</ele>
        <time>2021-05-20T06:05:51Z</time>
      </trkpt>
      <trkpt lat="45.91768" lon="6.49746">
        <ele>1809</ele>
        <time>2021-05-20T06:05:52Z</time>
      </trkpt>
      <trkpt lat="45.91768" lon="6.49746">
        <ele>1809</ele>
        <time>2021-05-20T06:05:53Z</time>
      </trkpt>
      <trkpt lat="45.91767" lon="6.49746">
        <ele>1809</ele>
        <time>2021-05-20T06:05:54Z</time>
      </trkpt>
      <trkpt lat="45.91766" lon="6.49746">
        <ele>1809</ele>
        <time>2021-05-20T06:05:55Z</time>
      </trkpt>
      <trkpt lat="45.91766" lon="6.49746">
        <ele>1809</ele>
        <time>2021-05-20T06:05:56Z</time>
      </trkpt>
      <trkpt lat="45.91765" lon="6.49746">
        <ele>1809</ele>
        <time>2021-05-20T06:05:57Z</time>
      </trkpt>
      <trkpt lat="45.91764" lon="6.49738">
        <ele>1809</ele>
        <time>2021-05-20T06:05:58Z</time>
      </trkpt>
      <trkpt lat="45.91763" lon="6.49729">
        <ele>1809</ele>
        <time>2021-05-20T06:05:59Z</time>
      </trkpt>
      <trkpt lat="45.91762" lon="6.49721">
        <ele>1807</ele>
        <time>2021-05-20T06:06:00Z</time>
      </trkpt>
      <trkpt lat="45.91762" lon="6.49709">
        <ele>1805</ele>
        <time>2021-05-20T06:06:01Z</time>
      </trkpt>
      <trkpt lat="45.91767" lon="6.49698">
        <ele>1801</ele>
        <time>2021-05-20T06:06:02Z</time>
      </trkpt>
      <trkpt lat="45.9177" lon="6.49684">
        <ele>1798</ele>
        <time>2021-05-20T06:06:03Z</time>
      </trkpt>
      <trkpt lat="45.91774" lon="6.49674">
        <ele>1793</ele>
        <time>2021-05-20T06:06:04Z</time>
      </trkpt>
      <trkpt lat="45.91781" lon="6.49667">
        <ele>1788</ele>
        <time>2021-05-20T06:06:05Z</time>
      </trkpt>
      <trkpt lat="45.91781" lon="6.49667">
        <ele>1788</ele>
        <time>2021-05-20T06:06:06Z</time>
      </trkpt>
      <trkpt lat="45.91797" lon="6.49659">
        <ele>1783</ele>
        <time>2021-05-20T06:06:07Z</time>
      </trkpt>
      <trkpt lat="45.91801" lon="6.49658">
        <ele>1778</ele>
        <time>2021-05-20T06:06:08Z</time>
      </trkpt>
      <trkpt lat="45.91813" lon="6.49657">
        <ele>1774</ele>
        <time>2021-05-20T06:06:09Z</time>
      </trkpt>
      <trkpt lat="45.91817" lon="6.49658">
        <ele>1772</ele>
        <time>2021-05-20T06:06:10Z</time>
      </trkpt>
      <trkpt lat="45.9183" lon="6.4966">
        <ele>1767</ele>
        <time>2021-05-20T06:06:11Z</time>
      </trkpt>
      <trkpt lat="45.91834" lon="6.49659">
        <ele>1762</ele>
        <time>2021-05-20T06:06:12Z</time>
      </trkpt>
      <trkpt lat="45.91846" lon="6.49656">
        <ele>1758</ele>
        <time>2021-05-20T06:06:13Z</time>
      </trkpt>
      <trkpt lat="45.91849" lon="6.49654">
        <ele>1755</ele>
        <time>2021-05-20T06:06:14Z</time>
      </trkpt>
      <trkpt lat="45.91859" lon="6.49649">
        <ele>1751</ele>
        <time>2021-05-20T06:06:15Z</time>
      </trkpt>
      <trkpt lat="45.91863" lon="6.49647">
        <ele>1746</ele>
        <time>2021-05-20T06:06:16Z</time>
      </trkpt>
      <trkpt lat="45.91873" lon="6.49644">
        <ele>1742</ele>
        <time>2021-05-20T06:06:17Z</time>
      </trkpt>
      <trkpt lat="45.91876" lon="6.49643">
        <ele>1737</ele>
        <time>2021-05-20T06:06:18Z</time>
      </trkpt>
      <trkpt lat="45.91886" lon="6.49639">
        <ele>1732</ele>
        <time>2021-05-20T06:06:19Z</time>
      </trkpt>
      <trkpt lat="45.91889" lon="6.49636">
        <ele>1728</ele>
        <time>2021-05-20T06:06:20Z</time>
      </trkpt>
      <trkpt lat="45.91898" lon="6.49626">
        <ele>1723</ele>
        <time>2021-05-20T06:06:21Z</time>
      </trkpt>
      <trkpt lat="45.919" lon="6.49622">
        <ele>1720</ele>
        <time>2021-05-20T06:06:22Z</time>
      </trkpt>
      <trkpt lat="45.91906" lon="6.49609">
        <ele>1716</ele>
        <time>2021-05-20T06:06:23Z</time>
      </trkpt>
      <trkpt lat="45.9191" lon="6.49606">
        <ele>1710</ele>
        <time>2021-05-20T06:06:24Z</time>
      </trkpt>
      <trkpt lat="45.9192" lon="6.49596">
        <ele>1710</ele>
        <time>2021-05-20T06:06:25Z</time>
      </trkpt>
      <trkpt lat="45.91923" lon="6.49593">
        <ele>1704</ele>
        <time>2021-05-20T06:06:26Z</time>
      </trkpt>
      <trkpt lat="45.91932" lon="6.49583">
        <ele>1698</ele>
        <time>2021-05-20T06:06:27Z</time>
      </trkpt>
      <trkpt lat="45.91935" lon="6.49579">
        <ele>1691</ele>
        <time>2021-05-20T06:06:28Z</time>
      </trkpt>
      <trkpt lat="45.91942" lon="6.49567">
        <ele>1686</ele>
        <time>2021-05-20T06:06:29Z</time>
      </trkpt>
      <trkpt lat="45.91945" lon="6.49563">
        <ele>1682</ele>
        <time>2021-05-20T06:06:30Z</time>
      </trkpt>
      <trkpt lat="45.91949" lon="6.49554">
        <ele>1676</ele>
        <time>2021-05-20T06:06:31Z</time>
      </trkpt>
      <trkpt lat="45.91952" lon="6.49546">
        <ele>1673</ele>
        <time>2021-05-20T06:06:32Z</time>
      </trkpt>
      <trkpt lat="45.91953" lon="6.49535">
        <ele>1670</ele>
        <time>2021-05-20T06:06:33Z</time>
      </trkpt>
      <trkpt lat="45.91953" lon="6.49535">
        <ele>1666</ele>
        <time>2021-05-20T06:06:34Z</time>
      </trkpt>
      <trkpt lat="45.91964" lon="6.49512">
        <ele>1663</ele>
        <time>2021-05-20T06:06:35Z</time>
      </trkpt>
      <trkpt lat="45.91968" lon="6.4951">
        <ele>1660</ele>
        <time>2021-05-20T06:06:36Z</time>
      </trkpt>
      <trkpt lat="45.91974" lon="6.49504">
        <ele>1655</ele>
        <time>2021-05-20T06:06:37Z</time>
      </trkpt>
      <trkpt lat="45.91981" lon="6.49505">
        <ele>1651</ele>
        <time>2021-05-20T06:06:38Z</time>
      </trkpt>
      <trkpt lat="45.91989" lon="6.49502">
        <ele>1647</ele>
        <time>2021-05-20T06:06:39Z</time>
      </trkpt>
      <trkpt lat="45.91989" lon="6.49502">
        <ele>1642</ele>
        <time>2021-05-20T06:06:40Z</time>
      </trkpt>
      <trkpt lat="45.92004" lon="6.49488">
        <ele>1638</ele>
        <time>2021-05-20T06:06:41Z</time>
      </trkpt>
      <trkpt lat="45.92006" lon="6.49486">
        <ele>1635</ele>
        <time>2021-05-20T06:06:42Z</time>
      </trkpt>
      <trkpt lat="45.92009" lon="6.49483">
        <ele>1630</ele>
        <time>2021-05-20T06:06:43Z</time>
      </trkpt>
      <trkpt lat="45.92021" lon="6.49468">
        <ele>1630</ele>
        <time>2021-05-20T06:06:44Z</time>
      </trkpt>
      <trkpt lat="45.92023" lon="6.49465">
        <ele>1625</ele>
        <time>2021-05-20T06:06:45Z</time>
      </trkpt>
      <trkpt lat="45.92026" lon="6.49459">
        <ele>1622</ele>
        <time>2021-05-20T06:06:46Z</time>
      </trkpt>
      <trkpt lat="45.92026" lon="6.49459">
        <ele>1618</ele>
        <time>2021-05-20T06:06:47Z</time>
      </trkpt>
      <trkpt lat="45.92028" lon="6.49457">
        <ele>1614</ele>
        <time>2021-05-20T06:06:48Z</time>
      </trkpt>
      <trkpt lat="45.9203" lon="6.49454">
        <ele>1612</ele>
        <time>2021-05-20T06:06:49Z</time>
      </trkpt>
      <trkpt lat="45.92031" lon="6.49451">
        <ele>1611</ele>
        <time>2021-05-20T06:06:50Z</time>
      </trkpt>
      <trkpt lat="45.92037" lon="6.49442">
        <ele>1609</ele>
        <time>2021-05-20T06:06:51Z</time>
      </trkpt>
      <trkpt lat="45.92042" lon="6.49434">
        <ele>1606</ele>
        <time>2021-05-20T06:06:52Z</time>
      </trkpt>
      <trkpt lat="45.92047" lon="6.49425">
        <ele>1603</ele>
        <time>2021-05-20T06:06:53Z</time>
      </trkpt>
      <trkpt lat="45.92053" lon="6.49419">
        <ele>1599</ele>
        <time>2021-05-20T06:06:54Z</time>
      </trkpt>
      <trkpt lat="45.92053" lon="6.49419">
        <ele>1596</ele>
        <time>2021-05-20T06:06:55Z</time>
      </trkpt>
      <trkpt lat="45.92062" lon="6.49426">
        <ele>1592</ele>
        <time>2021-05-20T06:06:56Z</time>
      </trkpt>
      <trkpt lat="45.92063" lon="6.49425">
        <ele>1590</ele>
        <time>2021-05-20T06:06:57Z</time>
      </trkpt>
      <trkpt lat="45.92069" lon="6.49424">
        <ele>1588</ele>
        <time>2021-05-20T06:06:58Z</time>
      </trkpt>
      <trkpt lat="45.92071" lon="6.49423">
        <ele>1585</ele>
        <time>2021-05-20T06:06:59Z</time>
      </trkpt>
      <trkpt lat="45.92075" lon="6.49423">
        <ele>1581</ele>
        <time>2021-05-20T06:07:00Z</time>
      </trkpt>
      <trkpt lat="45.92079" lon="6.49423">
        <ele>1580</ele>
        <time>2021-05-20T06:07:01Z</time>
      </trkpt>
      <trkpt lat="45.92083" lon="6.4942">
        <ele>1578</ele>
        <time>2021-05-20T06:07:02Z</time>
      </trkpt>
      <trkpt lat="45.92087" lon="6.49419">
        <ele>1576</ele>
        <time>2021-05-20T06:07:03Z</time>
      </trkpt>
      <trkpt lat="45.9209" lon="6.49416">
        <ele>1573</ele>
        <time>2021-05-20T06:07:04Z</time>
      </trkpt>
      <trkpt lat="45.92094" lon="6.49411">
        <ele>1571</ele>
        <time>2021-05-20T06:07:05Z</time>
      </trkpt>
      <trkpt lat="45.92098" lon="6.49407">
        <ele>1568</ele>
        <time>2021-05-20T06:07:06Z</time>
      </trkpt>
      <trkpt lat="45.92102" lon="6.49404">
        <ele>1565</ele>
        <time>2021-05-20T06:07:07Z</time>
      </trkpt>
      <trkpt lat="45.92107" lon="6.49402">
        <ele>1563</ele>
        <time>2021-05-20T06:07:08Z</time>
      </trkpt>
      <trkpt lat="45.9211" lon="6.49403">
        <ele>1561</ele>
        <time>2021-05-20T06:07:09Z</time>
      </trkpt>
      <trkpt lat="45.9211" lon="6.49403">
        <ele>1559</ele>
        <time>2021-05-20T06:07:10Z</time>
      </trkpt>
      <trkpt lat="45.92113" lon="6.49398">
        <ele>1558</ele>
        <time>2021-05-20T06:07:11Z</time>
      </trkpt>
      <trkpt lat="45.92113" lon="6.49398">
        <ele>1556</ele>
        <time>2021-05-20T06:07:12Z</time>
      </trkpt>
      <trkpt lat="45.92116" lon="6.49397">
        <ele>1555</ele>
        <time>2021-05-20T06:07:13Z</time>
      </trkpt>
      <trkpt lat="45.92116" lon="6.49397">
        <ele>1554</ele>
        <time>2021-05-20T06:07:14Z</time>
      </trkpt>
      <trkpt lat="45.92116" lon="6.49397">
        <ele>1553</ele>
        <time>2021-05-20T06:07:15Z</time>
      </trkpt>
      <trkpt lat="45.92116" lon="6.49397">
        <ele>1552</ele>
        <time>2021-05-20T06:07:16Z</time>
      </trkpt>
      <trkpt lat="45.92117" lon="6.49396">
        <ele>1551</ele>
        <time>2021-05-20T06:07:17Z</time>
      </trkpt>
      <trkpt lat="45.92117" lon="6.49396">
        <ele>1551</ele>
        <time>2021-05-20T06:07:18Z</time>
      </trkpt>
      <trkpt lat="45.92117" lon="6.49396">
        <ele>1551</ele>
        <time>2021-05-20T06:07:19Z</time>
      </trkpt>
      <trkpt lat="45.92117" lon="6.49396">
        <ele>1551</ele>
        <time>2021-05-20T06:07:20Z</time>
      </trkpt>
      <trkpt lat="45.92117" lon="6.49396">
        <ele>1551</ele>
        <time>2021-05-20T06:07:21Z</time>
      </trkpt>
      <trkpt lat="45.9212" lon="6.49392">
        <ele>1551</ele>
        <time>2021-05-20T06:07:22Z</time>
      </trkpt>
      <trkpt lat="45.9212" lon="6.49392">
        <ele>1551</ele>
        <time>2021-05-20T06:07:23Z</time>
      </trkpt>
      <trkpt lat="45.9212" lon="6.49392">
        <ele>1550</ele>
        <time>2021-05-20T06:07:24Z</time>
      </trkpt>
      <trkpt lat="45.9212" lon="6.49392">
        <ele>1549</ele>
        <time>2021-05-20T06:07:25Z</time>
      </trkpt>
      <trkpt lat="45.9212" lon="6.49392">
        <ele>1548</ele>
        <time>2021-05-20T06:07:26Z</time>
      </trkpt>
      <trkpt lat="45.9212" lon="6.49392">
        <ele>1548</ele>
        <time>2021-05-20T06:07:27Z</time>
      </trkpt>
      <trkpt lat="45.9212" lon="6.49392">
        <ele>1548</ele>
        <time>2021-05-20T06:07:28Z</time>
      </trkpt>
      <trkpt lat="45.92122" lon="6.4939">
        <ele>1548</ele>
        <time>2021-05-20T06:07:29Z</time>
      </trkpt>
      <trkpt lat="45.92122" lon="6.4939">
        <ele>1548</ele>
        <time>2021-05-20T06:07:30Z</time>
      </trkpt>
      <trkpt lat="45.92123" lon="6.49388">
        <ele>1548</ele>
        <time>2021-05-20T06:07:31Z</time>
      </trkpt>
      <trkpt lat="45.92124" lon="6.49386">
        <ele>1548</ele>
        <time>2021-05-20T06:07:32Z</time>
      </trkpt>
      <trkpt lat="45.92125" lon="6.49385">
        <ele>1547</ele>
        <time>2021-05-20T06:07:33Z</time>
      </trkpt>
      <trkpt lat="45.92126" lon="6.49383">
        <ele>1547</ele>
        <time>2021-05-20T06:07:34Z</time>
      </trkpt>
      <trkpt lat="45.9213" lon="6.4938">
        <ele>1546</ele>
        <time>2021-05-20T06:07:35Z</time>
      </trkpt>
      <trkpt lat="45.9213" lon="6.4938">
        <ele>1545</ele>
        <time>2021-05-20T06:07:36Z</time>
      </trkpt>
      <trkpt lat="45.92131" lon="6.49381">
        <ele>1544</ele>
        <time>2021-05-20T06:07:37Z</time>
      </trkpt>
      <trkpt lat="45.92132" lon="6.49382">
        <ele>1543</ele>
        <time>2021-05-20T06:07:38Z</time>
      </trkpt>
      <trkpt lat="45.92133" lon="6.49383">
        <ele>1542</ele>
        <time>2021-05-20T06:07:39Z</time>
      </trkpt>
      <trkpt lat="45.92133" lon="6.49383">
        <ele>1542</ele>
        <time>2021-05-20T06:07:40Z</time>
      </trkpt>
      <trkpt lat="45.92133" lon="6.49383">
        <ele>1541</ele>
        <time>2021-05-20T06:07:41Z</time>
      </trkpt>
      <trkpt lat="45.92133" lon="6.49383">
        <ele>1541</ele>
        <time>2021-05-20T06:07:42Z</time>
      </trkpt>
      <trkpt lat="45.92133" lon="6.49383">
        <ele>1541</ele>
        <time>2021-05-20T06:07:43Z</time>
      </trkpt>
      <trkpt lat="45.92132" lon="6.49387">
        <ele>1541</ele>
        <time>2021-05-20T06:07:44Z</time>
      </trkpt>
      <trkpt lat="45.92132" lon="6.49387">
        <ele>1541</ele>
        <time>2021-05-20T06:07:45Z</time>
      </trkpt>
      <trkpt lat="45.92132" lon="6.49387">
        <ele>1541</ele>
        <time>2021-05-20T06:07:46Z</time>
      </trkpt>
      <trkpt lat="45.92132" lon="6.49387">
        <ele>1541</ele>
        <time>2021-05-20T06:07:47Z</time>
      </trkpt>
      <trkpt lat="45.92132" lon="6.49386">
        <ele>1541</ele>
        <time>2021-05-20T06:07:48Z</time>
      </trkpt>
      <trkpt lat="45.92133" lon="6.49386">
        <ele>1541</ele>
        <time>2021-05-20T06:07:49Z</time>
      </trkpt>
      <trkpt lat="45.92133" lon="6.49386">
        <ele>1541</ele>
        <time>2021-05-20T06:07:50Z</time>
      </trkpt>
      <trkpt lat="45.92133" lon="6.49385">
        <ele>1541</ele>
        <time>2021-05-20T06:07:51Z</time>
      </trkpt>
      <trkpt lat="45.92133" lon="6.49385">
        <ele>1541</ele>
        <time>2021-05-20T06:07:52Z</time>
      </trkpt>
      <trkpt lat="45.92133" lon="6.49385">
        <ele>1541</ele>
        <time>2021-05-20T06:07:53Z</time>
      </trkpt>
      <trkpt lat="45.92133" lon="6.49384">
        <ele>1541</ele>
        <time>2021-05-20T06:07:54Z</time>
      </trkpt>
      <trkpt lat="45.92134" lon="6.49384">
        <ele>1541</ele>
        <time>2021-05-20T06:07:55Z</time>
      </trkpt>
      <trkpt lat="45.92134" lon="6.49384">
        <ele>1541</ele>
        <time>2021-05-20T06:07:56Z</time>
      </trkpt>
      <trkpt lat="45.92134" lon="6.49384">
        <ele>1541</ele>
        <time>2021-05-20T06:07:57Z</time>
      </trkpt>
      <trkpt lat="45.92134" lon="6.49383">
        <ele>1541</ele>
        <time>2021-05-20T06:07:58Z</time>
      </trkpt>
      <trkpt lat="45.92134" lon="6.49383">
        <ele>1541</ele>
        <time>2021-05-20T06:07:59Z</time>
      </trkpt>
      <trkpt lat="45.92135" lon="6.49383">
        <ele>1541</ele>
        <time>2021-05-20T06:08:00Z</time>
      </trkpt>
      <trkpt lat="45.92135" lon="6.49382">
        <ele>1541</ele>
        <time>2021-05-20T06:08:01Z</time>
      </trkpt>
      <trkpt lat="45.92135" lon="6.49382">
        <ele>1540</ele>
        <time>2021-05-20T06:08:02Z</time>
      </trkpt>
      <trkpt lat="45.92136" lon="6.4938">
        <ele>1539</ele>
        <time>2021-05-20T06:08:03Z</time>
      </trkpt>
      <trkpt lat="45.92137" lon="6.49379">
        <ele>1538</ele>
        <time>2021-05-20T06:08:04Z</time>
      </trkpt>
      <trkpt lat="45.92138" lon="6.49377">
        <ele>1537</ele>
        <time>2021-05-20T06:08:05Z</time>
      </trkpt>
      <trkpt lat="45.92141" lon="6.49372">
        <ele>1537</ele>
        <time>2021-05-20T06:08:06Z</time>
      </trkpt>
      <trkpt lat="45.92141" lon="6.49372">
        <ele>1536</ele>
        <time>2021-05-20T06:08:07Z</time>
      </trkpt>
      <trkpt lat="45.92144" lon="6.49368">
        <ele>1535</ele>
        <time>2021-05-20T06:08:08Z</time>
      </trkpt>
      <trkpt lat="45.92144" lon="6.49368">
        <ele>1535</ele>
        <time>2021-05-20T06:08:09Z</time>
      </trkpt>
      <trkpt lat="45.92147" lon="6.49364">
        <ele>1534</ele>
        <time>2021-05-20T06:08:10Z</time>
      </trkpt>
      <trkpt lat="45.92147" lon="6.49364">
        <ele>1533</ele>
        <time>2021-05-20T06:08:11Z</time>
      </trkpt>
      <trkpt lat="45.9215" lon="6.49358">
        <ele>1532</ele>
        <time>2021-05-20T06:08:12Z</time>
      </trkpt>
      <trkpt lat="45.9215" lon="6.49358">
        <ele>1531</ele>
        <time>2021-05-20T06:08:13Z</time>
      </trkpt>
      <trkpt lat="45.92153" lon="6.49354">
        <ele>1530</ele>
        <time>2021-05-20T06:08:14Z</time>
      </trkpt>
      <trkpt lat="45.92153" lon="6.49354">
        <ele>1530</ele>
        <time>2021-05-20T06:08:15Z</time>
      </trkpt>
      <trkpt lat="45.92154" lon="6.49354">
        <ele>1529</ele>
        <time>2021-05-20T06:08:16Z</time>
      </trkpt>
      <trkpt lat="45.92156" lon="6.49353">
        <ele>1528</ele>
        <time>2021-05-20T06:08:17Z</time>
      </trkpt>
      <trkpt lat="45.92157" lon="6.49352">
        <ele>1527</ele>
        <time>2021-05-20T06:08:18Z</time>
      </trkpt>
      <trkpt lat="45.92159" lon="6.49352">
        <ele>1527</ele>
        <time>2021-05-20T06:08:19Z</time>
      </trkpt>
      <trkpt lat="45.9216" lon="6.49352">
        <ele>1526</ele>
        <time>2021-05-20T06:08:20Z</time>
      </trkpt>
      <trkpt lat="45.92161" lon="6.49352">
        <ele>1525</ele>
        <time>2021-05-20T06:08:21Z</time>
      </trkpt>
      <trkpt lat="45.92161" lon="6.49352">
        <ele>1525</ele>
        <time>2021-05-20T06:08:22Z</time>
      </trkpt>
      <trkpt lat="45.92165" lon="6.4935">
        <ele>1525</ele>
        <time>2021-05-20T06:08:23Z</time>
      </trkpt>
      <trkpt lat="45.92165" lon="6.4935">
        <ele>1524</ele>
        <time>2021-05-20T06:08:24Z</time>
      </trkpt>
      <trkpt lat="45.92166" lon="6.49348">
        <ele>1524</ele>
        <time>2021-05-20T06:08:25Z</time>
      </trkpt>
      <trkpt lat="45.92167" lon="6.49347">
        <ele>1524</ele>
        <time>2021-05-20T06:08:26Z</time>
      </trkpt>
      <trkpt lat="45.92168" lon="6.49346">
        <ele>1523</ele>
        <time>2021-05-20T06:08:27Z</time>
      </trkpt>
      <trkpt lat="45.9217" lon="6.49342">
        <ele>1522</ele>
        <time>2021-05-20T06:08:28Z</time>
      </trkpt>
      <trkpt lat="45.9217" lon="6.49342">
        <ele>1521</ele>
        <time>2021-05-20T06:08:29Z</time>
      </trkpt>
      <trkpt lat="45.9217" lon="6.49342">
        <ele>1520</ele>
        <time>2021-05-20T06:08:30Z</time>
      </trkpt>
      <trkpt lat="45.9217" lon="6.49342">
        <ele>1520</ele>
        <time>2021-05-20T06:08:31Z</time>
      </trkpt>
      <trkpt lat="45.9217" lon="6.49342">
        <ele>1520</ele>
        <time>2021-05-20T06:08:32Z</time>
      </trkpt>
      <trkpt lat="45.92173" lon="6.49339">
        <ele>1520</ele>
        <time>2021-05-20T06:08:33Z</time>
      </trkpt>
      <trkpt lat="45.92173" lon="6.49339">
        <ele>1520</ele>
        <time>2021-05-20T06:08:34Z</time>
      </trkpt>
      <trkpt lat="45.92174" lon="6.49337">
        <ele>1519</ele>
        <time>2021-05-20T06:08:35Z</time>
      </trkpt>
      <trkpt lat="45.92175" lon="6.49335">
        <ele>1518</ele>
        <time>2021-05-20T06:08:36Z</time>
      </trkpt>
      <trkpt lat="45.92176" lon="6.49334">
        <ele>1517</ele>
        <time>2021-05-20T06:08:37Z</time>
      </trkpt>
      <trkpt lat="45.92177" lon="6.49332">
        <ele>1517</ele>
        <time>2021-05-20T06:08:38Z</time>
      </trkpt>
      <trkpt lat="45.92178" lon="6.4933">
        <ele>1517</ele>
        <time>2021-05-20T06:08:39Z</time>
      </trkpt>
      <trkpt lat="45.92179" lon="6.49329">
        <ele>1516</ele>
        <time>2021-05-20T06:08:40Z</time>
      </trkpt>
      <trkpt lat="45.9218" lon="6.49327">
        <ele>1515</ele>
        <time>2021-05-20T06:08:41Z</time>
      </trkpt>
      <trkpt lat="45.9218" lon="6.49325">
        <ele>1514</ele>
        <time>2021-05-20T06:08:42Z</time>
      </trkpt>
      <trkpt lat="45.92181" lon="6.49324">
        <ele>1513</ele>
        <time>2021-05-20T06:08:43Z</time>
      </trkpt>
      <trkpt lat="45.92181" lon="6.49324">
        <ele>1513</ele>
        <time>2021-05-20T06:08:44Z</time>
      </trkpt>
      <trkpt lat="45.92182" lon="6.49319">
        <ele>1512</ele>
        <time>2021-05-20T06:08:45Z</time>
      </trkpt>
      <trkpt lat="45.92182" lon="6.49319">
        <ele>1511</ele>
        <time>2021-05-20T06:08:46Z</time>
      </trkpt>
      <trkpt lat="45.92182" lon="6.49318">
        <ele>1511</ele>
        <time>2021-05-20T06:08:47Z</time>
      </trkpt>
      <trkpt lat="45.92182" lon="6.49316">
        <ele>1510</ele>
        <time>2021-05-20T06:08:48Z</time>
      </trkpt>
      <trkpt lat="45.92182" lon="6.49314">
        <ele>1510</ele>
        <time>2021-05-20T06:08:49Z</time>
      </trkpt>
      <trkpt lat="45.92182" lon="6.49312">
        <ele>1510</ele>
        <time>2021-05-20T06:08:50Z</time>
      </trkpt>
      <trkpt lat="45.92183" lon="6.4931">
        <ele>1509</ele>
        <time>2021-05-20T06:08:51Z</time>
      </trkpt>
      <trkpt lat="45.92183" lon="6.49308">
        <ele>1508</ele>
        <time>2021-05-20T06:08:52Z</time>
      </trkpt>
      <trkpt lat="45.92185" lon="6.49306">
        <ele>1508</ele>
        <time>2021-05-20T06:08:53Z</time>
      </trkpt>
      <trkpt lat="45.92186" lon="6.49305">
        <ele>1507</ele>
        <time>2021-05-20T06:08:54Z</time>
      </trkpt>
      <trkpt lat="45.92187" lon="6.49304">
        <ele>1507</ele>
        <time>2021-05-20T06:08:55Z</time>
      </trkpt>
      <trkpt lat="45.9219" lon="6.493">
        <ele>1506</ele>
        <time>2021-05-20T06:08:56Z</time>
      </trkpt>
      <trkpt lat="45.9219" lon="6.493">
        <ele>1506</ele>
        <time>2021-05-20T06:08:57Z</time>
      </trkpt>
      <trkpt lat="45.92191" lon="6.49298">
        <ele>1505</ele>
        <time>2021-05-20T06:08:58Z</time>
      </trkpt>
      <trkpt lat="45.92192" lon="6.49297">
        <ele>1504</ele>
        <time>2021-05-20T06:08:59Z</time>
      </trkpt>
      <trkpt lat="45.92193" lon="6.49295">
        <ele>1504</ele>
        <time>2021-05-20T06:09:00Z</time>
      </trkpt>
      <trkpt lat="45.92193" lon="6.49295">
        <ele>1504</ele>
        <time>2021-05-20T06:09:01Z</time>
      </trkpt>
      <trkpt lat="45.92193" lon="6.4929">
        <ele>1504</ele>
        <time>2021-05-20T06:09:02Z</time>
      </trkpt>
      <trkpt lat="45.92193" lon="6.4929">
        <ele>1503</ele>
        <time>2021-05-20T06:09:03Z</time>
      </trkpt>
      <trkpt lat="45.92193" lon="6.4929">
        <ele>1503</ele>
        <time>2021-05-20T06:09:04Z</time>
      </trkpt>
      <trkpt lat="45.92193" lon="6.49285">
        <ele>1502</ele>
        <time>2021-05-20T06:09:05Z</time>
      </trkpt>
      <trkpt lat="45.92193" lon="6.49285">
        <ele>1502</ele>
        <time>2021-05-20T06:09:06Z</time>
      </trkpt>
      <trkpt lat="45.92194" lon="6.49283">
        <ele>1502</ele>
        <time>2021-05-20T06:09:07Z</time>
      </trkpt>
      <trkpt lat="45.92194" lon="6.4928">
        <ele>1501</ele>
        <time>2021-05-20T06:09:08Z</time>
      </trkpt>
      <trkpt lat="45.92195" lon="6.49278">
        <ele>1500</ele>
        <time>2021-05-20T06:09:09Z</time>
      </trkpt>
      <trkpt lat="45.92195" lon="6.49276">
        <ele>1500</ele>
        <time>2021-05-20T06:09:10Z</time>
      </trkpt>
      <trkpt lat="45.92196" lon="6.49274">
        <ele>1499</ele>
        <time>2021-05-20T06:09:11Z</time>
      </trkpt>
      <trkpt lat="45.92196" lon="6.49272">
        <ele>1499</ele>
        <time>2021-05-20T06:09:12Z</time>
      </trkpt>
      <trkpt lat="45.92197" lon="6.4927">
        <ele>1498</ele>
        <time>2021-05-20T06:09:13Z</time>
      </trkpt>
      <trkpt lat="45.92197" lon="6.49267">
        <ele>1497</ele>
        <time>2021-05-20T06:09:14Z</time>
      </trkpt>
      <trkpt lat="45.92197" lon="6.49265">
        <ele>1497</ele>
        <time>2021-05-20T06:09:15Z</time>
      </trkpt>
      <trkpt lat="45.92197" lon="6.49263">
        <ele>1497</ele>
        <time>2021-05-20T06:09:16Z</time>
      </trkpt>
      <trkpt lat="45.92198" lon="6.49261">
        <ele>1497</ele>
        <time>2021-05-20T06:09:17Z</time>
      </trkpt>
      <trkpt lat="45.92198" lon="6.49259">
        <ele>1496</ele>
        <time>2021-05-20T06:09:18Z</time>
      </trkpt>
      <trkpt lat="45.92199" lon="6.49257">
        <ele>1495</ele>
        <time>2021-05-20T06:09:19Z</time>
      </trkpt>
      <trkpt lat="45.922" lon="6.49256">
        <ele>1495</ele>
        <time>2021-05-20T06:09:20Z</time>
      </trkpt>
      <trkpt lat="45.922" lon="6.49254">
        <ele>1495</ele>
        <time>2021-05-20T06:09:21Z</time>
      </trkpt>
      <trkpt lat="45.92201" lon="6.49253">
        <ele>1494</ele>
        <time>2021-05-20T06:09:22Z</time>
      </trkpt>
      <trkpt lat="45.92201" lon="6.49251">
        <ele>1494</ele>
        <time>2021-05-20T06:09:23Z</time>
      </trkpt>
      <trkpt lat="45.92201" lon="6.49249">
        <ele>1493</ele>
        <time>2021-05-20T06:09:24Z</time>
      </trkpt>
      <trkpt lat="45.92201" lon="6.49248">
        <ele>1493</ele>
        <time>2021-05-20T06:09:25Z</time>
      </trkpt>
      <trkpt lat="45.92201" lon="6.49248">
        <ele>1492</ele>
        <time>2021-05-20T06:09:26Z</time>
      </trkpt>
      <trkpt lat="45.92201" lon="6.49242">
        <ele>1492</ele>
        <time>2021-05-20T06:09:27Z</time>
      </trkpt>
      <trkpt lat="45.92201" lon="6.49242">
        <ele>1492</ele>
        <time>2021-05-20T06:09:28Z</time>
      </trkpt>
      <trkpt lat="45.92202" lon="6.4924">
        <ele>1491</ele>
        <time>2021-05-20T06:09:29Z</time>
      </trkpt>
      <trkpt lat="45.92202" lon="6.49239">
        <ele>1490</ele>
        <time>2021-05-20T06:09:30Z</time>
      </trkpt>
      <trkpt lat="45.92202" lon="6.49237">
        <ele>1490</ele>
        <time>2021-05-20T06:09:31Z</time>
      </trkpt>
      <trkpt lat="45.92203" lon="6.49235">
        <ele>1489</ele>
        <time>2021-05-20T06:09:32Z</time>
      </trkpt>
      <trkpt lat="45.92203" lon="6.49234">
        <ele>1489</ele>
        <time>2021-05-20T06:09:33Z</time>
      </trkpt>
      <trkpt lat="45.92203" lon="6.49232">
        <ele>1489</ele>
        <time>2021-05-20T06:09:34Z</time>
      </trkpt>
      <trkpt lat="45.92203" lon="6.49231">
        <ele>1489</ele>
        <time>2021-05-20T06:09:35Z</time>
      </trkpt>
      <trkpt lat="45.92203" lon="6.49229">
        <ele>1489</ele>
        <time>2021-05-20T06:09:36Z</time>
      </trkpt>
      <trkpt lat="45.92203" lon="6.49228">
        <ele>1488</ele>
        <time>2021-05-20T06:09:37Z</time>
      </trkpt>
      <trkpt lat="45.92202" lon="6.49226">
        <ele>1488</ele>
        <time>2021-05-20T06:09:38Z</time>
      </trkpt>
      <trkpt lat="45.92202" lon="6.49224">
        <ele>1488</ele>
        <time>2021-05-20T06:09:39Z</time>
      </trkpt>
      <trkpt lat="45.92202" lon="6.49224">
        <ele>1488</ele>
        <time>2021-05-20T06:09:40Z</time>
      </trkpt>
      <trkpt lat="45.92201" lon="6.4922">
        <ele>1488</ele>
        <time>2021-05-20T06:09:41Z</time>
      </trkpt>
      <trkpt lat="45.92201" lon="6.4922">
        <ele>1487</ele>
        <time>2021-05-20T06:09:42Z</time>
      </trkpt>
      <trkpt lat="45.92198" lon="6.49216">
        <ele>1486</ele>
        <time>2021-05-20T06:09:43Z</time>
      </trkpt>
      <trkpt lat="45.92198" lon="6.49216">
        <ele>1486</ele>
        <time>2021-05-20T06:09:44Z</time>
      </trkpt>
      <trkpt lat="45.92196" lon="6.4921">
        <ele>1485</ele>
        <time>2021-05-20T06:09:45Z</time>
      </trkpt>
      <trkpt lat="45.92196" lon="6.4921">
        <ele>1485</ele>
        <time>2021-05-20T06:09:46Z</time>
      </trkpt>
      <trkpt lat="45.92194" lon="6.49205">
        <ele>1485</ele>
        <time>2021-05-20T06:09:47Z</time>
      </trkpt>
      <trkpt lat="45.92194" lon="6.49205">
        <ele>1485</ele>
        <time>2021-05-20T06:09:48Z</time>
      </trkpt>
      <trkpt lat="45.92193" lon="6.492">
        <ele>1484</ele>
        <time>2021-05-20T06:09:49Z</time>
      </trkpt>
      <trkpt lat="45.92193" lon="6.492">
        <ele>1483</ele>
        <time>2021-05-20T06:09:50Z</time>
      </trkpt>
      <trkpt lat="45.92192" lon="6.49198">
        <ele>1483</ele>
        <time>2021-05-20T06:09:51Z</time>
      </trkpt>
      <trkpt lat="45.92192" lon="6.49196">
        <ele>1482</ele>
        <time>2021-05-20T06:09:52Z</time>
      </trkpt>
      <trkpt lat="45.92191" lon="6.49194">
        <ele>1482</ele>
        <time>2021-05-20T06:09:53Z</time>
      </trkpt>
      <trkpt lat="45.9219" lon="6.49191">
        <ele>1482</ele>
        <time>2021-05-20T06:09:54Z</time>
      </trkpt>
      <trkpt lat="45.9219" lon="6.49189">
        <ele>1480</ele>
        <time>2021-05-20T06:09:55Z</time>
      </trkpt>
      <trkpt lat="45.92189" lon="6.49187">
        <ele>1479</ele>
        <time>2021-05-20T06:09:56Z</time>
      </trkpt>
      <trkpt lat="45.92189" lon="6.49187">
        <ele>1479</ele>
        <time>2021-05-20T06:09:57Z</time>
      </trkpt>
      <trkpt lat="45.92188" lon="6.49181">
        <ele>1479</ele>
        <time>2021-05-20T06:09:58Z</time>
      </trkpt>
      <trkpt lat="45.92188" lon="6.49181">
        <ele>1479</ele>
        <time>2021-05-20T06:09:59Z</time>
      </trkpt>
      <trkpt lat="45.92187" lon="6.49176">
        <ele>1477</ele>
        <time>2021-05-20T06:10:00Z</time>
      </trkpt>
      <trkpt lat="45.92187" lon="6.49176">
        <ele>1477</ele>
        <time>2021-05-20T06:10:01Z</time>
      </trkpt>
      <trkpt lat="45.92187" lon="6.49174">
        <ele>1477</ele>
        <time>2021-05-20T06:10:02Z</time>
      </trkpt>
      <trkpt lat="45.92186" lon="6.49172">
        <ele>1476</ele>
        <time>2021-05-20T06:10:03Z</time>
      </trkpt>
      <trkpt lat="45.92186" lon="6.4917">
        <ele>1476</ele>
        <time>2021-05-20T06:10:04Z</time>
      </trkpt>
      <trkpt lat="45.92186" lon="6.49168">
        <ele>1476</ele>
        <time>2021-05-20T06:10:05Z</time>
      </trkpt>
      <trkpt lat="45.92185" lon="6.49166">
        <ele>1475</ele>
        <time>2021-05-20T06:10:06Z</time>
      </trkpt>
      <trkpt lat="45.92185" lon="6.49163">
        <ele>1475</ele>
        <time>2021-05-20T06:10:07Z</time>
      </trkpt>
      <trkpt lat="45.92185" lon="6.49161">
        <ele>1474</ele>
        <time>2021-05-20T06:10:08Z</time>
      </trkpt>
      <trkpt lat="45.92185" lon="6.49158">
        <ele>1473</ele>
        <time>2021-05-20T06:10:09Z</time>
      </trkpt>
      <trkpt lat="45.92185" lon="6.49155">
        <ele>1473</ele>
        <time>2021-05-20T06:10:10Z</time>
      </trkpt>
      <trkpt lat="45.92184" lon="6.49153">
        <ele>1473</ele>
        <time>2021-05-20T06:10:11Z</time>
      </trkpt>
      <trkpt lat="45.92184" lon="6.49151">
        <ele>1472</ele>
        <time>2021-05-20T06:10:12Z</time>
      </trkpt>
      <trkpt lat="45.92184" lon="6.49149">
        <ele>1472</ele>
        <time>2021-05-20T06:10:13Z</time>
      </trkpt>
      <trkpt lat="45.92184" lon="6.49147">
        <ele>1472</ele>
        <time>2021-05-20T06:10:14Z</time>
      </trkpt>
      <trkpt lat="45.92184" lon="6.49145">
        <ele>1471</ele>
        <time>2021-05-20T06:10:15Z</time>
      </trkpt>
      <trkpt lat="45.92184" lon="6.49142">
        <ele>1471</ele>
        <time>2021-05-20T06:10:16Z</time>
      </trkpt>
      <trkpt lat="45.92184" lon="6.4914">
        <ele>1471</ele>
        <time>2021-05-20T06:10:17Z</time>
      </trkpt>
      <trkpt lat="45.92184" lon="6.49138">
        <ele>1470</ele>
        <time>2021-05-20T06:10:18Z</time>
      </trkpt>
      <trkpt lat="45.92184" lon="6.49136">
        <ele>1469</ele>
        <time>2021-05-20T06:10:19Z</time>
      </trkpt>
      <trkpt lat="45.92184" lon="6.49134">
        <ele>1469</ele>
        <time>2021-05-20T06:10:20Z</time>
      </trkpt>
      <trkpt lat="45.92183" lon="6.49132">
        <ele>1469</ele>
        <time>2021-05-20T06:10:21Z</time>
      </trkpt>
      <trkpt lat="45.92183" lon="6.4913">
        <ele>1469</ele>
        <time>2021-05-20T06:10:22Z</time>
      </trkpt>
      <trkpt lat="45.92183" lon="6.49128">
        <ele>1468</ele>
        <time>2021-05-20T06:10:23Z</time>
      </trkpt>
      <trkpt lat="45.92183" lon="6.49126">
        <ele>1468</ele>
        <time>2021-05-20T06:10:24Z</time>
      </trkpt>
      <trkpt lat="45.92183" lon="6.49124">
        <ele>1467</ele>
        <time>2021-05-20T06:10:25Z</time>
      </trkpt>
      <trkpt lat="45.92184" lon="6.49118">
        <ele>1467</ele>
        <time>2021-05-20T06:10:26Z</time>
      </trkpt>
      <trkpt lat="45.92184" lon="6.49118">
        <ele>1467</ele>
        <time>2021-05-20T06:10:27Z</time>
      </trkpt>
      <trkpt lat="45.92184" lon="6.49116">
        <ele>1466</ele>
        <time>2021-05-20T06:10:28Z</time>
      </trkpt>
      <trkpt lat="45.92185" lon="6.49114">
        <ele>1465</ele>
        <time>2021-05-20T06:10:29Z</time>
      </trkpt>
      <trkpt lat="45.92185" lon="6.49112">
        <ele>1464</ele>
        <time>2021-05-20T06:10:30Z</time>
      </trkpt>
      <trkpt lat="45.92185" lon="6.4911">
        <ele>1464</ele>
        <time>2021-05-20T06:10:31Z</time>
      </trkpt>
      <trkpt lat="45.92186" lon="6.49107">
        <ele>1464</ele>
        <time>2021-05-20T06:10:32Z</time>
      </trkpt>
      <trkpt lat="45.92186" lon="6.49105">
        <ele>1464</ele>
        <time>2021-05-20T06:10:33Z</time>
      </trkpt>
      <trkpt lat="45.92185" lon="6.491">
        <ele>1464</ele>
        <time>2021-05-20T06:10:34Z</time>
      </trkpt>
      <trkpt lat="45.92185" lon="6.491">
        <ele>1463</ele>
        <time>2021-05-20T06:10:35Z</time>
      </trkpt>
      <trkpt lat="45.92186" lon="6.49098">
        <ele>1463</ele>
        <time>2021-05-20T06:10:36Z</time>
      </trkpt>
      <trkpt lat="45.92186" lon="6.49096">
        <ele>1462</ele>
        <time>2021-05-20T06:10:37Z</time>
      </trkpt>
      <trkpt lat="45.92186" lon="6.49094">
        <ele>1462</ele>
        <time>2021-05-20T06:10:38Z</time>
      </trkpt>
      <trkpt lat="45.92185" lon="6.49092">
        <ele>1462</ele>
        <time>2021-05-20T06:10:39Z</time>
      </trkpt>
      <trkpt lat="45.92185" lon="6.4909">
        <ele>1462</ele>
        <time>2021-05-20T06:10:40Z</time>
      </trkpt>
      <trkpt lat="45.92185" lon="6.49088">
        <ele>1461</ele>
        <time>2021-05-20T06:10:41Z</time>
      </trkpt>
      <trkpt lat="45.92184" lon="6.49086">
        <ele>1460</ele>
        <time>2021-05-20T06:10:42Z</time>
      </trkpt>
      <trkpt lat="45.92184" lon="6.49084">
        <ele>1460</ele>
        <time>2021-05-20T06:10:43Z</time>
      </trkpt>
      <trkpt lat="45.92183" lon="6.49082">
        <ele>1459</ele>
        <time>2021-05-20T06:10:44Z</time>
      </trkpt>
      <trkpt lat="45.92181" lon="6.49078">
        <ele>1459</ele>
        <time>2021-05-20T06:10:45Z</time>
      </trkpt>
      <trkpt lat="45.92181" lon="6.49078">
        <ele>1458</ele>
        <time>2021-05-20T06:10:46Z</time>
      </trkpt>
      <trkpt lat="45.92179" lon="6.49074">
        <ele>1457</ele>
        <time>2021-05-20T06:10:47Z</time>
      </trkpt>
      <trkpt lat="45.92179" lon="6.49074">
        <ele>1457</ele>
        <time>2021-05-20T06:10:48Z</time>
      </trkpt>
      <trkpt lat="45.92179" lon="6.49074">
        <ele>1457</ele>
        <time>2021-05-20T06:10:49Z</time>
      </trkpt>
      <trkpt lat="45.92177" lon="6.49069">
        <ele>1457</ele>
        <time>2021-05-20T06:10:50Z</time>
      </trkpt>
      <trkpt lat="45.92177" lon="6.49069">
        <ele>1457</ele>
        <time>2021-05-20T06:10:51Z</time>
      </trkpt>
      <trkpt lat="45.92176" lon="6.49063">
        <ele>1457</ele>
        <time>2021-05-20T06:10:52Z</time>
      </trkpt>
      <trkpt lat="45.92176" lon="6.49063">
        <ele>1457</ele>
        <time>2021-05-20T06:10:53Z</time>
      </trkpt>
      <trkpt lat="45.92175" lon="6.49061">
        <ele>1457</ele>
        <time>2021-05-20T06:10:54Z</time>
      </trkpt>
      <trkpt lat="45.92174" lon="6.49059">
        <ele>1456</ele>
        <time>2021-05-20T06:10:55Z</time>
      </trkpt>
      <trkpt lat="45.92174" lon="6.49057">
        <ele>1456</ele>
        <time>2021-05-20T06:10:56Z</time>
      </trkpt>
      <trkpt lat="45.92173" lon="6.49052">
        <ele>1456</ele>
        <time>2021-05-20T06:10:57Z</time>
      </trkpt>
      <trkpt lat="45.92173" lon="6.49052">
        <ele>1456</ele>
        <time>2021-05-20T06:10:58Z</time>
      </trkpt>
      <trkpt lat="45.92172" lon="6.49047">
        <ele>1455</ele>
        <time>2021-05-20T06:10:59Z</time>
      </trkpt>
      <trkpt lat="45.92172" lon="6.49047">
        <ele>1454</ele>
        <time>2021-05-20T06:11:00Z</time>
      </trkpt>
      <trkpt lat="45.92171" lon="6.49045">
        <ele>1454</ele>
        <time>2021-05-20T06:11:01Z</time>
      </trkpt>
      <trkpt lat="45.9217" lon="6.49042">
        <ele>1454</ele>
        <time>2021-05-20T06:11:02Z</time>
      </trkpt>
      <trkpt lat="45.92169" lon="6.4904">
        <ele>1453</ele>
        <time>2021-05-20T06:11:03Z</time>
      </trkpt>
      <trkpt lat="45.92168" lon="6.49036">
        <ele>1453</ele>
        <time>2021-05-20T06:11:04Z</time>
      </trkpt>
      <trkpt lat="45.92168" lon="6.49036">
        <ele>1453</ele>
        <time>2021-05-20T06:11:05Z</time>
      </trkpt>
      <trkpt lat="45.92167" lon="6.49034">
        <ele>1453</ele>
        <time>2021-05-20T06:11:06Z</time>
      </trkpt>
      <trkpt lat="45.92166" lon="6.49031">
        <ele>1452</ele>
        <time>2021-05-20T06:11:07Z</time>
      </trkpt>
      <trkpt lat="45.92166" lon="6.49029">
        <ele>1452</ele>
        <time>2021-05-20T06:11:08Z</time>
      </trkpt>
      <trkpt lat="45.92165" lon="6.49027">
        <ele>1452</ele>
        <time>2021-05-20T06:11:09Z</time>
      </trkpt>
      <trkpt lat="45.92164" lon="6.49025">
        <ele>1452</ele>
        <time>2021-05-20T06:11:10Z</time>
      </trkpt>
      <trkpt lat="45.92164" lon="6.49023">
        <ele>1452</ele>
        <time>2021-05-20T06:11:11Z</time>
      </trkpt>
      <trkpt lat="45.92164" lon="6.49023">
        <ele>1451</ele>
        <time>2021-05-20T06:11:12Z</time>
      </trkpt>
      <trkpt lat="45.92162" lon="6.49018">
        <ele>1450</ele>
        <time>2021-05-20T06:11:13Z</time>
      </trkpt>
      <trkpt lat="45.92162" lon="6.49018">
        <ele>1450</ele>
        <time>2021-05-20T06:11:14Z</time>
      </trkpt>
      <trkpt lat="45.92161" lon="6.49013">
        <ele>1450</ele>
        <time>2021-05-20T06:11:15Z</time>
      </trkpt>
      <trkpt lat="45.92161" lon="6.49013">
        <ele>1449</ele>
        <time>2021-05-20T06:11:16Z</time>
      </trkpt>
      <trkpt lat="45.9216" lon="6.4901">
        <ele>1449</ele>
        <time>2021-05-20T06:11:17Z</time>
      </trkpt>
      <trkpt lat="45.9216" lon="6.49008">
        <ele>1448</ele>
        <time>2021-05-20T06:11:18Z</time>
      </trkpt>
      <trkpt lat="45.9216" lon="6.49006">
        <ele>1447</ele>
        <time>2021-05-20T06:11:19Z</time>
      </trkpt>
      <trkpt lat="45.9216" lon="6.49004">
        <ele>1448</ele>
        <time>2021-05-20T06:11:20Z</time>
      </trkpt>
      <trkpt lat="45.92159" lon="6.49002">
        <ele>1448</ele>
        <time>2021-05-20T06:11:21Z</time>
      </trkpt>
      <trkpt lat="45.92159" lon="6.49">
        <ele>1447</ele>
        <time>2021-05-20T06:11:22Z</time>
      </trkpt>
      <trkpt lat="45.92159" lon="6.48997">
        <ele>1447</ele>
        <time>2021-05-20T06:11:23Z</time>
      </trkpt>
      <trkpt lat="45.92159" lon="6.48995">
        <ele>1447</ele>
        <time>2021-05-20T06:11:24Z</time>
      </trkpt>
      <trkpt lat="45.92159" lon="6.48992">
        <ele>1447</ele>
        <time>2021-05-20T06:11:25Z</time>
      </trkpt>
      <trkpt lat="45.92158" lon="6.4899">
        <ele>1447</ele>
        <time>2021-05-20T06:11:26Z</time>
      </trkpt>
      <trkpt lat="45.92158" lon="6.48987">
        <ele>1447</ele>
        <time>2021-05-20T06:11:27Z</time>
      </trkpt>
      <trkpt lat="45.92158" lon="6.48985">
        <ele>1446</ele>
        <time>2021-05-20T06:11:28Z</time>
      </trkpt>
      <trkpt lat="45.92158" lon="6.48983">
        <ele>1446</ele>
        <time>2021-05-20T06:11:29Z</time>
      </trkpt>
      <trkpt lat="45.92158" lon="6.4898">
        <ele>1445</ele>
        <time>2021-05-20T06:11:30Z</time>
      </trkpt>
      <trkpt lat="45.92158" lon="6.48978">
        <ele>1445</ele>
        <time>2021-05-20T06:11:31Z</time>
      </trkpt>
      <trkpt lat="45.92158" lon="6.48976">
        <ele>1445</ele>
        <time>2021-05-20T06:11:32Z</time>
      </trkpt>
      <trkpt lat="45.92158" lon="6.48973">
        <ele>1445</ele>
        <time>2021-05-20T06:11:33Z</time>
      </trkpt>
      <trkpt lat="45.92158" lon="6.48971">
        <ele>1444</ele>
        <time>2021-05-20T06:11:34Z</time>
      </trkpt>
      <trkpt lat="45.92158" lon="6.48969">
        <ele>1444</ele>
        <time>2021-05-20T06:11:35Z</time>
      </trkpt>
      <trkpt lat="45.92158" lon="6.48967">
        <ele>1444</ele>
        <time>2021-05-20T06:11:36Z</time>
      </trkpt>
      <trkpt lat="45.92158" lon="6.48964">
        <ele>1443</ele>
        <time>2021-05-20T06:11:37Z</time>
      </trkpt>
      <trkpt lat="45.92158" lon="6.48962">
        <ele>1443</ele>
        <time>2021-05-20T06:11:38Z</time>
      </trkpt>
      <trkpt lat="45.92159" lon="6.4896">
        <ele>1443</ele>
        <time>2021-05-20T06:11:39Z</time>
      </trkpt>
      <trkpt lat="45.92159" lon="6.48958">
        <ele>1443</ele>
        <time>2021-05-20T06:11:40Z</time>
      </trkpt>
      <trkpt lat="45.92159" lon="6.48953">
        <ele>1442</ele>
        <time>2021-05-20T06:11:41Z</time>
      </trkpt>
      <trkpt lat="45.92159" lon="6.48953">
        <ele>1442</ele>
        <time>2021-05-20T06:11:42Z</time>
      </trkpt>
      <trkpt lat="45.92159" lon="6.4895">
        <ele>1442</ele>
        <time>2021-05-20T06:11:43Z</time>
      </trkpt>
      <trkpt lat="45.92159" lon="6.48948">
        <ele>1442</ele>
        <time>2021-05-20T06:11:44Z</time>
      </trkpt>
      <trkpt lat="45.92159" lon="6.48945">
        <ele>1441</ele>
        <time>2021-05-20T06:11:45Z</time>
      </trkpt>
      <trkpt lat="45.92159" lon="6.48943">
        <ele>1441</ele>
        <time>2021-05-20T06:11:46Z</time>
      </trkpt>
      <trkpt lat="45.92158" lon="6.48941">
        <ele>1441</ele>
        <time>2021-05-20T06:11:47Z</time>
      </trkpt>
      <trkpt lat="45.92158" lon="6.48939">
        <ele>1441</ele>
        <time>2021-05-20T06:11:48Z</time>
      </trkpt>
      <trkpt lat="45.92158" lon="6.48937">
        <ele>1441</ele>
        <time>2021-05-20T06:11:49Z</time>
      </trkpt>
      <trkpt lat="45.92158" lon="6.48935">
        <ele>1441</ele>
        <time>2021-05-20T06:11:50Z</time>
      </trkpt>
      <trkpt lat="45.92158" lon="6.48933">
        <ele>1441</ele>
        <time>2021-05-20T06:11:51Z</time>
      </trkpt>
      <trkpt lat="45.92158" lon="6.4893">
        <ele>1441</ele>
        <time>2021-05-20T06:11:52Z</time>
      </trkpt>
      <trkpt lat="45.92157" lon="6.48928">
        <ele>1441</ele>
        <time>2021-05-20T06:11:53Z</time>
      </trkpt>
      <trkpt lat="45.92157" lon="6.48925">
        <ele>1441</ele>
        <time>2021-05-20T06:11:54Z</time>
      </trkpt>
      <trkpt lat="45.92157" lon="6.48923">
        <ele>1441</ele>
        <time>2021-05-20T06:11:55Z</time>
      </trkpt>
      <trkpt lat="45.92157" lon="6.48921">
        <ele>1441</ele>
        <time>2021-05-20T06:11:56Z</time>
      </trkpt>
      <trkpt lat="45.92157" lon="6.48918">
        <ele>1440</ele>
        <time>2021-05-20T06:11:57Z</time>
      </trkpt>
      <trkpt lat="45.92157" lon="6.48916">
        <ele>1440</ele>
        <time>2021-05-20T06:11:58Z</time>
      </trkpt>
      <trkpt lat="45.92157" lon="6.48914">
        <ele>1439</ele>
        <time>2021-05-20T06:11:59Z</time>
      </trkpt>
      <trkpt lat="45.92157" lon="6.48911">
        <ele>1439</ele>
        <time>2021-05-20T06:12:00Z</time>
      </trkpt>
      <trkpt lat="45.92157" lon="6.48909">
        <ele>1439</ele>
        <time>2021-05-20T06:12:01Z</time>
      </trkpt>
      <trkpt lat="45.92157" lon="6.48907">
        <ele>1439</ele>
        <time>2021-05-20T06:12:02Z</time>
      </trkpt>
      <trkpt lat="45.92158" lon="6.48904">
        <ele>1439</ele>
        <time>2021-05-20T06:12:03Z</time>
      </trkpt>
      <trkpt lat="45.92158" lon="6.48902">
        <ele>1439</ele>
        <time>2021-05-20T06:12:04Z</time>
      </trkpt>
      <trkpt lat="45.92158" lon="6.489">
        <ele>1438</ele>
        <time>2021-05-20T06:12:05Z</time>
      </trkpt>
      <trkpt lat="45.92158" lon="6.48898">
        <ele>1438</ele>
        <time>2021-05-20T06:12:06Z</time>
      </trkpt>
      <trkpt lat="45.92158" lon="6.48896">
        <ele>1438</ele>
        <time>2021-05-20T06:12:07Z</time>
      </trkpt>
      <trkpt lat="45.92157" lon="6.48894">
        <ele>1437</ele>
        <time>2021-05-20T06:12:08Z</time>
      </trkpt>
      <trkpt lat="45.92157" lon="6.48892">
        <ele>1437</ele>
        <time>2021-05-20T06:12:09Z</time>
      </trkpt>
      <trkpt lat="45.92157" lon="6.48889">
        <ele>1437</ele>
        <time>2021-05-20T06:12:10Z</time>
      </trkpt>
      <trkpt lat="45.92157" lon="6.48887">
        <ele>1437</ele>
        <time>2021-05-20T06:12:11Z</time>
      </trkpt>
      <trkpt lat="45.92157" lon="6.48885">
        <ele>1437</ele>
        <time>2021-05-20T06:12:12Z</time>
      </trkpt>
      <trkpt lat="45.92158" lon="6.48883">
        <ele>1437</ele>
        <time>2021-05-20T06:12:13Z</time>
      </trkpt>
      <trkpt lat="45.92158" lon="6.48881">
        <ele>1437</ele>
        <time>2021-05-20T06:12:14Z</time>
      </trkpt>
      <trkpt lat="45.92159" lon="6.48878">
        <ele>1437</ele>
        <time>2021-05-20T06:12:15Z</time>
      </trkpt>
      <trkpt lat="45.92159" lon="6.48876">
        <ele>1437</ele>
        <time>2021-05-20T06:12:16Z</time>
      </trkpt>
      <trkpt lat="45.92159" lon="6.48874">
        <ele>1436</ele>
        <time>2021-05-20T06:12:17Z</time>
      </trkpt>
      <trkpt lat="45.9216" lon="6.48872">
        <ele>1436</ele>
        <time>2021-05-20T06:12:18Z</time>
      </trkpt>
      <trkpt lat="45.9216" lon="6.4887">
        <ele>1436</ele>
        <time>2021-05-20T06:12:19Z</time>
      </trkpt>
      <trkpt lat="45.9216" lon="6.48868">
        <ele>1436</ele>
        <time>2021-05-20T06:12:20Z</time>
      </trkpt>
      <trkpt lat="45.92159" lon="6.48866">
        <ele>1436</ele>
        <time>2021-05-20T06:12:21Z</time>
      </trkpt>
      <trkpt lat="45.9216" lon="6.48863">
        <ele>1436</ele>
        <time>2021-05-20T06:12:22Z</time>
      </trkpt>
      <trkpt lat="45.9216" lon="6.48861">
        <ele>1436</ele>
        <time>2021-05-20T06:12:23Z</time>
      </trkpt>
      <trkpt lat="45.92161" lon="6.48859">
        <ele>1436</ele>
        <time>2021-05-20T06:12:24Z</time>
      </trkpt>
      <trkpt lat="45.92162" lon="6.48856">
        <ele>1436</ele>
        <time>2021-05-20T06:12:25Z</time>
      </trkpt>
      <trkpt lat="45.92162" lon="6.48854">
        <ele>1436</ele>
        <time>2021-05-20T06:12:26Z</time>
      </trkpt>
      <trkpt lat="45.92163" lon="6.48852">
        <ele>1436</ele>
        <time>2021-05-20T06:12:27Z</time>
      </trkpt>
      <trkpt lat="45.92164" lon="6.4885">
        <ele>1436</ele>
        <time>2021-05-20T06:12:28Z</time>
      </trkpt>
      <trkpt lat="45.92164" lon="6.48848">
        <ele>1436</ele>
        <time>2021-05-20T06:12:29Z</time>
      </trkpt>
      <trkpt lat="45.92165" lon="6.48846">
        <ele>1436</ele>
        <time>2021-05-20T06:12:30Z</time>
      </trkpt>
      <trkpt lat="45.92166" lon="6.48844">
        <ele>1436</ele>
        <time>2021-05-20T06:12:31Z</time>
      </trkpt>
      <trkpt lat="45.92166" lon="6.48842">
        <ele>1436</ele>
        <time>2021-05-20T06:12:32Z</time>
      </trkpt>
      <trkpt lat="45.92167" lon="6.4884">
        <ele>1436</ele>
        <time>2021-05-20T06:12:33Z</time>
      </trkpt>
      <trkpt lat="45.92168" lon="6.48839">
        <ele>1436</ele>
        <time>2021-05-20T06:12:34Z</time>
      </trkpt>
      <trkpt lat="45.92169" lon="6.48837">
        <ele>1437</ele>
        <time>2021-05-20T06:12:35Z</time>
      </trkpt>
      <trkpt lat="45.9217" lon="6.48836">
        <ele>1437</ele>
        <time>2021-05-20T06:12:36Z</time>
      </trkpt>
      <trkpt lat="45.92171" lon="6.48834">
        <ele>1437</ele>
        <time>2021-05-20T06:12:37Z</time>
      </trkpt>
      <trkpt lat="45.92172" lon="6.48832">
        <ele>1438</ele>
        <time>2021-05-20T06:12:38Z</time>
      </trkpt>
      <trkpt lat="45.92173" lon="6.48831">
        <ele>1438</ele>
        <time>2021-05-20T06:12:39Z</time>
      </trkpt>
      <trkpt lat="45.92174" lon="6.48829">
        <ele>1438</ele>
        <time>2021-05-20T06:12:40Z</time>
      </trkpt>
      <trkpt lat="45.92175" lon="6.48827">
        <ele>1438</ele>
        <time>2021-05-20T06:12:41Z</time>
      </trkpt>
      <trkpt lat="45.92176" lon="6.48826">
        <ele>1439</ele>
        <time>2021-05-20T06:12:42Z</time>
      </trkpt>
      <trkpt lat="45.92176" lon="6.48824">
        <ele>1439</ele>
        <time>2021-05-20T06:12:43Z</time>
      </trkpt>
      <trkpt lat="45.92177" lon="6.48822">
        <ele>1439</ele>
        <time>2021-05-20T06:12:44Z</time>
      </trkpt>
      <trkpt lat="45.92177" lon="6.4882">
        <ele>1439</ele>
        <time>2021-05-20T06:12:45Z</time>
      </trkpt>
      <trkpt lat="45.92177" lon="6.4882">
        <ele>1439</ele>
        <time>2021-05-20T06:12:46Z</time>
      </trkpt>
      <trkpt lat="45.92178" lon="6.48815">
        <ele>1439</ele>
        <time>2021-05-20T06:12:47Z</time>
      </trkpt>
      <trkpt lat="45.92178" lon="6.48815">
        <ele>1440</ele>
        <time>2021-05-20T06:12:48Z</time>
      </trkpt>
      <trkpt lat="45.92178" lon="6.48815">
        <ele>1440</ele>
        <time>2021-05-20T06:12:49Z</time>
      </trkpt>
      <trkpt lat="45.92179" lon="6.4881">
        <ele>1440</ele>
        <time>2021-05-20T06:12:50Z</time>
      </trkpt>
      <trkpt lat="45.92179" lon="6.4881">
        <ele>1440</ele>
        <time>2021-05-20T06:12:51Z</time>
      </trkpt>
      <trkpt lat="45.92179" lon="6.48808">
        <ele>1440</ele>
        <time>2021-05-20T06:12:52Z</time>
      </trkpt>
      <trkpt lat="45.92179" lon="6.48806">
        <ele>1441</ele>
        <time>2021-05-20T06:12:53Z</time>
      </trkpt>
      <trkpt lat="45.92178" lon="6.48804">
        <ele>1441</ele>
        <time>2021-05-20T06:12:54Z</time>
      </trkpt>
      <trkpt lat="45.92178" lon="6.48802">
        <ele>1441</ele>
        <time>2021-05-20T06:12:55Z</time>
      </trkpt>
      <trkpt lat="45.92178" lon="6.488">
        <ele>1441</ele>
        <time>2021-05-20T06:12:56Z</time>
      </trkpt>
      <trkpt lat="45.92177" lon="6.48798">
        <ele>1441</ele>
        <time>2021-05-20T06:12:57Z</time>
      </trkpt>
      <trkpt lat="45.92177" lon="6.48796">
        <ele>1441</ele>
        <time>2021-05-20T06:12:58Z</time>
      </trkpt>
      <trkpt lat="45.92177" lon="6.48794">
        <ele>1441</ele>
        <time>2021-05-20T06:12:59Z</time>
      </trkpt>
      <trkpt lat="45.92177" lon="6.48792">
        <ele>1441</ele>
        <time>2021-05-20T06:13:00Z</time>
      </trkpt>
      <trkpt lat="45.92176" lon="6.48789">
        <ele>1441</ele>
        <time>2021-05-20T06:13:01Z</time>
      </trkpt>
      <trkpt lat="45.92176" lon="6.48787">
        <ele>1441</ele>
        <time>2021-05-20T06:13:02Z</time>
      </trkpt>
      <trkpt lat="45.92176" lon="6.48785">
        <ele>1441</ele>
        <time>2021-05-20T06:13:03Z</time>
      </trkpt>
      <trkpt lat="45.92175" lon="6.48783">
        <ele>1441</ele>
        <time>2021-05-20T06:13:04Z</time>
      </trkpt>
      <trkpt lat="45.92175" lon="6.48781">
        <ele>1441</ele>
        <time>2021-05-20T06:13:05Z</time>
      </trkpt>
      <trkpt lat="45.92175" lon="6.48779">
        <ele>1441</ele>
        <time>2021-05-20T06:13:06Z</time>
      </trkpt>
      <trkpt lat="45.92174" lon="6.48777">
        <ele>1441</ele>
        <time>2021-05-20T06:13:07Z</time>
      </trkpt>
      <trkpt lat="45.92173" lon="6.48775">
        <ele>1442</ele>
        <time>2021-05-20T06:13:08Z</time>
      </trkpt>
      <trkpt lat="45.92172" lon="6.48773">
        <ele>1442</ele>
        <time>2021-05-20T06:13:09Z</time>
      </trkpt>
      <trkpt lat="45.92172" lon="6.48771">
        <ele>1441</ele>
        <time>2021-05-20T06:13:10Z</time>
      </trkpt>
      <trkpt lat="45.92171" lon="6.48769">
        <ele>1441</ele>
        <time>2021-05-20T06:13:11Z</time>
      </trkpt>
      <trkpt lat="45.92171" lon="6.48767">
        <ele>1441</ele>
        <time>2021-05-20T06:13:12Z</time>
      </trkpt>
      <trkpt lat="45.9217" lon="6.48765">
        <ele>1442</ele>
        <time>2021-05-20T06:13:13Z</time>
      </trkpt>
      <trkpt lat="45.9217" lon="6.48763">
        <ele>1442</ele>
        <time>2021-05-20T06:13:14Z</time>
      </trkpt>
      <trkpt lat="45.92169" lon="6.48761">
        <ele>1442</ele>
        <time>2021-05-20T06:13:15Z</time>
      </trkpt>
      <trkpt lat="45.92168" lon="6.48759">
        <ele>1442</ele>
        <time>2021-05-20T06:13:16Z</time>
      </trkpt>
      <trkpt lat="45.92168" lon="6.48757">
        <ele>1442</ele>
        <time>2021-05-20T06:13:17Z</time>
      </trkpt>
      <trkpt lat="45.92167" lon="6.48755">
        <ele>1442</ele>
        <time>2021-05-20T06:13:18Z</time>
      </trkpt>
      <trkpt lat="45.92167" lon="6.48753">
        <ele>1442</ele>
        <time>2021-05-20T06:13:19Z</time>
      </trkpt>
      <trkpt lat="45.92166" lon="6.48751">
        <ele>1442</ele>
        <time>2021-05-20T06:13:20Z</time>
      </trkpt>
      <trkpt lat="45.92166" lon="6.4875">
        <ele>1443</ele>
        <time>2021-05-20T06:13:21Z</time>
      </trkpt>
      <trkpt lat="45.92165" lon="6.48748">
        <ele>1443</ele>
        <time>2021-05-20T06:13:22Z</time>
      </trkpt>
      <trkpt lat="45.92165" lon="6.48746">
        <ele>1443</ele>
        <time>2021-05-20T06:13:23Z</time>
      </trkpt>
      <trkpt lat="45.92164" lon="6.48744">
        <ele>1444</ele>
        <time>2021-05-20T06:13:24Z</time>
      </trkpt>
      <trkpt lat="45.92164" lon="6.48744">
        <ele>1444</ele>
        <time>2021-05-20T06:13:25Z</time>
      </trkpt>
      <trkpt lat="45.92162" lon="6.48739">
        <ele>1444</ele>
        <time>2021-05-20T06:13:26Z</time>
      </trkpt>
      <trkpt lat="45.92162" lon="6.48739">
        <ele>1444</ele>
        <time>2021-05-20T06:13:27Z</time>
      </trkpt>
      <trkpt lat="45.92162" lon="6.48737">
        <ele>1444</ele>
        <time>2021-05-20T06:13:28Z</time>
      </trkpt>
      <trkpt lat="45.92162" lon="6.48735">
        <ele>1444</ele>
        <time>2021-05-20T06:13:29Z</time>
      </trkpt>
      <trkpt lat="45.92161" lon="6.48733">
        <ele>1444</ele>
        <time>2021-05-20T06:13:30Z</time>
      </trkpt>
      <trkpt lat="45.92161" lon="6.48731">
        <ele>1444</ele>
        <time>2021-05-20T06:13:31Z</time>
      </trkpt>
      <trkpt lat="45.9216" lon="6.48729">
        <ele>1444</ele>
        <time>2021-05-20T06:13:32Z</time>
      </trkpt>
      <trkpt lat="45.9216" lon="6.48727">
        <ele>1445</ele>
        <time>2021-05-20T06:13:33Z</time>
      </trkpt>
      <trkpt lat="45.9216" lon="6.48727">
        <ele>1445</ele>
        <time>2021-05-20T06:13:34Z</time>
      </trkpt>
      <trkpt lat="45.92158" lon="6.48722">
        <ele>1445</ele>
        <time>2021-05-20T06:13:35Z</time>
      </trkpt>
      <trkpt lat="45.92158" lon="6.48722">
        <ele>1445</ele>
        <time>2021-05-20T06:13:36Z</time>
      </trkpt>
      <trkpt lat="45.92157" lon="6.4872">
        <ele>1445</ele>
        <time>2021-05-20T06:13:37Z</time>
      </trkpt>
      <trkpt lat="45.92157" lon="6.48718">
        <ele>1445</ele>
        <time>2021-05-20T06:13:38Z</time>
      </trkpt>
      <trkpt lat="45.92156" lon="6.48716">
        <ele>1445</ele>
        <time>2021-05-20T06:13:39Z</time>
      </trkpt>
      <trkpt lat="45.92155" lon="6.48714">
        <ele>1445</ele>
        <time>2021-05-20T06:13:40Z</time>
      </trkpt>
      <trkpt lat="45.92155" lon="6.48712">
        <ele>1445</ele>
        <time>2021-05-20T06:13:41Z</time>
      </trkpt>
      <trkpt lat="45.92154" lon="6.48711">
        <ele>1445</ele>
        <time>2021-05-20T06:13:42Z</time>
      </trkpt>
      <trkpt lat="45.92153" lon="6.48709">
        <ele>1446</ele>
        <time>2021-05-20T06:13:43Z</time>
      </trkpt>
      <trkpt lat="45.92152" lon="6.48707">
        <ele>1446</ele>
        <time>2021-05-20T06:13:44Z</time>
      </trkpt>
      <trkpt lat="45.92151" lon="6.48705">
        <ele>1446</ele>
        <time>2021-05-20T06:13:45Z</time>
      </trkpt>
      <trkpt lat="45.92151" lon="6.48705">
        <ele>1446</ele>
        <time>2021-05-20T06:13:46Z</time>
      </trkpt>
      <trkpt lat="45.92148" lon="6.487">
        <ele>1447</ele>
        <time>2021-05-20T06:13:47Z</time>
      </trkpt>
      <trkpt lat="45.92148" lon="6.487">
        <ele>1447</ele>
        <time>2021-05-20T06:13:48Z</time>
      </trkpt>
      <trkpt lat="45.92147" lon="6.48699">
        <ele>1447</ele>
        <time>2021-05-20T06:13:49Z</time>
      </trkpt>
      <trkpt lat="45.92146" lon="6.48698">
        <ele>1447</ele>
        <time>2021-05-20T06:13:50Z</time>
      </trkpt>
      <trkpt lat="45.92144" lon="6.48697">
        <ele>1447</ele>
        <time>2021-05-20T06:13:51Z</time>
      </trkpt>
      <trkpt lat="45.92144" lon="6.48697">
        <ele>1447</ele>
        <time>2021-05-20T06:13:52Z</time>
      </trkpt>
      <trkpt lat="45.92141" lon="6.48694">
        <ele>1447</ele>
        <time>2021-05-20T06:13:53Z</time>
      </trkpt>
      <trkpt lat="45.92141" lon="6.48694">
        <ele>1447</ele>
        <time>2021-05-20T06:13:54Z</time>
      </trkpt>
      <trkpt lat="45.92139" lon="6.48693">
        <ele>1447</ele>
        <time>2021-05-20T06:13:55Z</time>
      </trkpt>
      <trkpt lat="45.92138" lon="6.48691">
        <ele>1447</ele>
        <time>2021-05-20T06:13:56Z</time>
      </trkpt>
      <trkpt lat="45.92137" lon="6.4869">
        <ele>1447</ele>
        <time>2021-05-20T06:13:57Z</time>
      </trkpt>
      <trkpt lat="45.92137" lon="6.4869">
        <ele>1448</ele>
        <time>2021-05-20T06:13:58Z</time>
      </trkpt>
      <trkpt lat="45.92133" lon="6.48687">
        <ele>1448</ele>
        <time>2021-05-20T06:13:59Z</time>
      </trkpt>
      <trkpt lat="45.92133" lon="6.48687">
        <ele>1447</ele>
        <time>2021-05-20T06:14:00Z</time>
      </trkpt>
      <trkpt lat="45.92132" lon="6.48685">
        <ele>1447</ele>
        <time>2021-05-20T06:14:01Z</time>
      </trkpt>
      <trkpt lat="45.92132" lon="6.48683">
        <ele>1447</ele>
        <time>2021-05-20T06:14:02Z</time>
      </trkpt>
      <trkpt lat="45.92131" lon="6.48681">
        <ele>1447</ele>
        <time>2021-05-20T06:14:03Z</time>
      </trkpt>
      <trkpt lat="45.9213" lon="6.48679">
        <ele>1447</ele>
        <time>2021-05-20T06:14:04Z</time>
      </trkpt>
      <trkpt lat="45.92129" lon="6.48677">
        <ele>1447</ele>
        <time>2021-05-20T06:14:05Z</time>
      </trkpt>
      <trkpt lat="45.92128" lon="6.48675">
        <ele>1447</ele>
        <time>2021-05-20T06:14:06Z</time>
      </trkpt>
      <trkpt lat="45.92127" lon="6.48673">
        <ele>1448</ele>
        <time>2021-05-20T06:14:07Z</time>
      </trkpt>
      <trkpt lat="45.92126" lon="6.48671">
        <ele>1448</ele>
        <time>2021-05-20T06:14:08Z</time>
      </trkpt>
      <trkpt lat="45.92125" lon="6.48669">
        <ele>1448</ele>
        <time>2021-05-20T06:14:09Z</time>
      </trkpt>
      <trkpt lat="45.92124" lon="6.48668">
        <ele>1448</ele>
        <time>2021-05-20T06:14:10Z</time>
      </trkpt>
      <trkpt lat="45.92123" lon="6.48666">
        <ele>1448</ele>
        <time>2021-05-20T06:14:11Z</time>
      </trkpt>
      <trkpt lat="45.92122" lon="6.48664">
        <ele>1448</ele>
        <time>2021-05-20T06:14:12Z</time>
      </trkpt>
      <trkpt lat="45.92122" lon="6.48662">
        <ele>1448</ele>
        <time>2021-05-20T06:14:13Z</time>
      </trkpt>
      <trkpt lat="45.92121" lon="6.4866">
        <ele>1448</ele>
        <time>2021-05-20T06:14:14Z</time>
      </trkpt>
      <trkpt lat="45.9212" lon="6.48658">
        <ele>1448</ele>
        <time>2021-05-20T06:14:15Z</time>
      </trkpt>
      <trkpt lat="45.9212" lon="6.48656">
        <ele>1448</ele>
        <time>2021-05-20T06:14:16Z</time>
      </trkpt>
      <trkpt lat="45.92119" lon="6.48654">
        <ele>1448</ele>
        <time>2021-05-20T06:14:17Z</time>
      </trkpt>
      <trkpt lat="45.92119" lon="6.48652">
        <ele>1448</ele>
        <time>2021-05-20T06:14:18Z</time>
      </trkpt>
      <trkpt lat="45.92119" lon="6.4865">
        <ele>1449</ele>
        <time>2021-05-20T06:14:19Z</time>
      </trkpt>
      <trkpt lat="45.92119" lon="6.48648">
        <ele>1449</ele>
        <time>2021-05-20T06:14:20Z</time>
      </trkpt>
      <trkpt lat="45.92119" lon="6.48646">
        <ele>1449</ele>
        <time>2021-05-20T06:14:21Z</time>
      </trkpt>
      <trkpt lat="45.92119" lon="6.48644">
        <ele>1449</ele>
        <time>2021-05-20T06:14:22Z</time>
      </trkpt>
      <trkpt lat="45.9212" lon="6.48641">
        <ele>1449</ele>
        <time>2021-05-20T06:14:23Z</time>
      </trkpt>
      <trkpt lat="45.9212" lon="6.48639">
        <ele>1449</ele>
        <time>2021-05-20T06:14:24Z</time>
      </trkpt>
      <trkpt lat="45.92121" lon="6.48637">
        <ele>1449</ele>
        <time>2021-05-20T06:14:25Z</time>
      </trkpt>
      <trkpt lat="45.92121" lon="6.48634">
        <ele>1449</ele>
        <time>2021-05-20T06:14:26Z</time>
      </trkpt>
      <trkpt lat="45.92122" lon="6.48632">
        <ele>1449</ele>
        <time>2021-05-20T06:14:27Z</time>
      </trkpt>
      <trkpt lat="45.92123" lon="6.4863">
        <ele>1449</ele>
        <time>2021-05-20T06:14:28Z</time>
      </trkpt>
      <trkpt lat="45.92123" lon="6.48628">
        <ele>1449</ele>
        <time>2021-05-20T06:14:29Z</time>
      </trkpt>
      <trkpt lat="45.92124" lon="6.48626">
        <ele>1449</ele>
        <time>2021-05-20T06:14:30Z</time>
      </trkpt>
      <trkpt lat="45.92125" lon="6.48624">
        <ele>1449</ele>
        <time>2021-05-20T06:14:31Z</time>
      </trkpt>
      <trkpt lat="45.92125" lon="6.48621">
        <ele>1449</ele>
        <time>2021-05-20T06:14:32Z</time>
      </trkpt>
      <trkpt lat="45.92126" lon="6.48619">
        <ele>1449</ele>
        <time>2021-05-20T06:14:33Z</time>
      </trkpt>
      <trkpt lat="45.92127" lon="6.48617">
        <ele>1449</ele>
        <time>2021-05-20T06:14:34Z</time>
      </trkpt>
      <trkpt lat="45.92128" lon="6.48615">
        <ele>1449</ele>
        <time>2021-05-20T06:14:35Z</time>
      </trkpt>
      <trkpt lat="45.92128" lon="6.48613">
        <ele>1449</ele>
        <time>2021-05-20T06:14:36Z</time>
      </trkpt>
      <trkpt lat="45.92129" lon="6.48611">
        <ele>1449</ele>
        <time>2021-05-20T06:14:37Z</time>
      </trkpt>
      <trkpt lat="45.9213" lon="6.48609">
        <ele>1449</ele>
        <time>2021-05-20T06:14:38Z</time>
      </trkpt>
      <trkpt lat="45.92131" lon="6.48607">
        <ele>1449</ele>
        <time>2021-05-20T06:14:39Z</time>
      </trkpt>
      <trkpt lat="45.92132" lon="6.48605">
        <ele>1449</ele>
        <time>2021-05-20T06:14:40Z</time>
      </trkpt>
      <trkpt lat="45.92133" lon="6.48603">
        <ele>1449</ele>
        <time>2021-05-20T06:14:41Z</time>
      </trkpt>
      <trkpt lat="45.92133" lon="6.48601">
        <ele>1449</ele>
        <time>2021-05-20T06:14:42Z</time>
      </trkpt>
      <trkpt lat="45.92134" lon="6.48599">
        <ele>1450</ele>
        <time>2021-05-20T06:14:43Z</time>
      </trkpt>
      <trkpt lat="45.92135" lon="6.48597">
        <ele>1450</ele>
        <time>2021-05-20T06:14:44Z</time>
      </trkpt>
      <trkpt lat="45.92135" lon="6.48595">
        <ele>1450</ele>
        <time>2021-05-20T06:14:45Z</time>
      </trkpt>
      <trkpt lat="45.92136" lon="6.48593">
        <ele>1450</ele>
        <time>2021-05-20T06:14:46Z</time>
      </trkpt>
      <trkpt lat="45.92137" lon="6.48591">
        <ele>1450</ele>
        <time>2021-05-20T06:14:47Z</time>
      </trkpt>
      <trkpt lat="45.92138" lon="6.48589">
        <ele>1450</ele>
        <time>2021-05-20T06:14:48Z</time>
      </trkpt>
      <trkpt lat="45.92138" lon="6.48587">
        <ele>1449</ele>
        <time>2021-05-20T06:14:49Z</time>
      </trkpt>
      <trkpt lat="45.92138" lon="6.48584">
        <ele>1449</ele>
        <time>2021-05-20T06:14:50Z</time>
      </trkpt>
      <trkpt lat="45.92139" lon="6.48582">
        <ele>1449</ele>
        <time>2021-05-20T06:14:51Z</time>
      </trkpt>
      <trkpt lat="45.92139" lon="6.48582">
        <ele>1449</ele>
        <time>2021-05-20T06:14:52Z</time>
      </trkpt>
      <trkpt lat="45.92139" lon="6.48582">
        <ele>1449</ele>
        <time>2021-05-20T06:14:53Z</time>
      </trkpt>
      <trkpt lat="45.92139" lon="6.48582">
        <ele>1449</ele>
        <time>2021-05-20T06:14:54Z</time>
      </trkpt>
      <trkpt lat="45.92139" lon="6.48582">
        <ele>1449</ele>
        <time>2021-05-20T06:14:55Z</time>
      </trkpt>
      <trkpt lat="45.92139" lon="6.48582">
        <ele>1449</ele>
        <time>2021-05-20T06:14:56Z</time>
      </trkpt>
      <trkpt lat="45.9214" lon="6.48577">
        <ele>1449</ele>
        <time>2021-05-20T06:14:57Z</time>
      </trkpt>
      <trkpt lat="45.9214" lon="6.48577">
        <ele>1449</ele>
        <time>2021-05-20T06:14:58Z</time>
      </trkpt>
      <trkpt lat="45.9214" lon="6.48575">
        <ele>1449</ele>
        <time>2021-05-20T06:14:59Z</time>
      </trkpt>
      <trkpt lat="45.92141" lon="6.48573">
        <ele>1449</ele>
        <time>2021-05-20T06:15:00Z</time>
      </trkpt>
      <trkpt lat="45.92141" lon="6.48571">
        <ele>1449</ele>
        <time>2021-05-20T06:15:01Z</time>
      </trkpt>
      <trkpt lat="45.92142" lon="6.48569">
        <ele>1449</ele>
        <time>2021-05-20T06:15:02Z</time>
      </trkpt>
      <trkpt lat="45.92143" lon="6.48567">
        <ele>1449</ele>
        <time>2021-05-20T06:15:03Z</time>
      </trkpt>
      <trkpt lat="45.92144" lon="6.48565">
        <ele>1449</ele>
        <time>2021-05-20T06:15:04Z</time>
      </trkpt>
      <trkpt lat="45.92144" lon="6.48563">
        <ele>1449</ele>
        <time>2021-05-20T06:15:05Z</time>
      </trkpt>
      <trkpt lat="45.92145" lon="6.4856">
        <ele>1449</ele>
        <time>2021-05-20T06:15:06Z</time>
      </trkpt>
      <trkpt lat="45.92145" lon="6.48558">
        <ele>1449</ele>
        <time>2021-05-20T06:15:07Z</time>
      </trkpt>
      <trkpt lat="45.92145" lon="6.48556">
        <ele>1449</ele>
        <time>2021-05-20T06:15:08Z</time>
      </trkpt>
      <trkpt lat="45.92145" lon="6.48553">
        <ele>1449</ele>
        <time>2021-05-20T06:15:09Z</time>
      </trkpt>
      <trkpt lat="45.92145" lon="6.48551">
        <ele>1449</ele>
        <time>2021-05-20T06:15:10Z</time>
      </trkpt>
      <trkpt lat="45.92145" lon="6.48549">
        <ele>1448</ele>
        <time>2021-05-20T06:15:11Z</time>
      </trkpt>
      <trkpt lat="45.92145" lon="6.48546">
        <ele>1448</ele>
        <time>2021-05-20T06:15:12Z</time>
      </trkpt>
      <trkpt lat="45.92145" lon="6.48544">
        <ele>1448</ele>
        <time>2021-05-20T06:15:13Z</time>
      </trkpt>
      <trkpt lat="45.92145" lon="6.48541">
        <ele>1448</ele>
        <time>2021-05-20T06:15:14Z</time>
      </trkpt>
      <trkpt lat="45.92145" lon="6.48539">
        <ele>1448</ele>
        <time>2021-05-20T06:15:15Z</time>
      </trkpt>
      <trkpt lat="45.92145" lon="6.48536">
        <ele>1448</ele>
        <time>2021-05-20T06:15:16Z</time>
      </trkpt>
      <trkpt lat="45.92145" lon="6.48534">
        <ele>1448</ele>
        <time>2021-05-20T06:15:17Z</time>
      </trkpt>
      <trkpt lat="45.92146" lon="6.48531">
        <ele>1447</ele>
        <time>2021-05-20T06:15:18Z</time>
      </trkpt>
      <trkpt lat="45.92146" lon="6.48529">
        <ele>1446</ele>
        <time>2021-05-20T06:15:19Z</time>
      </trkpt>
      <trkpt lat="45.92146" lon="6.48526">
        <ele>1446</ele>
        <time>2021-05-20T06:15:20Z</time>
      </trkpt>
      <trkpt lat="45.92147" lon="6.48524">
        <ele>1446</ele>
        <time>2021-05-20T06:15:21Z</time>
      </trkpt>
      <trkpt lat="45.92147" lon="6.48522">
        <ele>1446</ele>
        <time>2021-05-20T06:15:22Z</time>
      </trkpt>
      <trkpt lat="45.92147" lon="6.48519">
        <ele>1446</ele>
        <time>2021-05-20T06:15:23Z</time>
      </trkpt>
      <trkpt lat="45.92148" lon="6.48517">
        <ele>1446</ele>
        <time>2021-05-20T06:15:24Z</time>
      </trkpt>
      <trkpt lat="45.92149" lon="6.48515">
        <ele>1446</ele>
        <time>2021-05-20T06:15:25Z</time>
      </trkpt>
      <trkpt lat="45.9215" lon="6.48513">
        <ele>1446</ele>
        <time>2021-05-20T06:15:26Z</time>
      </trkpt>
      <trkpt lat="45.9215" lon="6.48511">
        <ele>1446</ele>
        <time>2021-05-20T06:15:27Z</time>
      </trkpt>
      <trkpt lat="45.92151" lon="6.48509">
        <ele>1446</ele>
        <time>2021-05-20T06:15:28Z</time>
      </trkpt>
      <trkpt lat="45.92153" lon="6.48508">
        <ele>1446</ele>
        <time>2021-05-20T06:15:29Z</time>
      </trkpt>
      <trkpt lat="45.92154" lon="6.48506">
        <ele>1446</ele>
        <time>2021-05-20T06:15:30Z</time>
      </trkpt>
      <trkpt lat="45.92155" lon="6.48504">
        <ele>1446</ele>
        <time>2021-05-20T06:15:31Z</time>
      </trkpt>
      <trkpt lat="45.92156" lon="6.48503">
        <ele>1446</ele>
        <time>2021-05-20T06:15:32Z</time>
      </trkpt>
      <trkpt lat="45.92157" lon="6.48501">
        <ele>1445</ele>
        <time>2021-05-20T06:15:33Z</time>
      </trkpt>
      <trkpt lat="45.92158" lon="6.48499">
        <ele>1445</ele>
        <time>2021-05-20T06:15:34Z</time>
      </trkpt>
      <trkpt lat="45.92161" lon="6.48495">
        <ele>1445</ele>
        <time>2021-05-20T06:15:35Z</time>
      </trkpt>
      <trkpt lat="45.92161" lon="6.48495">
        <ele>1445</ele>
        <time>2021-05-20T06:15:36Z</time>
      </trkpt>
      <trkpt lat="45.92162" lon="6.48493">
        <ele>1444</ele>
        <time>2021-05-20T06:15:37Z</time>
      </trkpt>
      <trkpt lat="45.92163" lon="6.48492">
        <ele>1443</ele>
        <time>2021-05-20T06:15:38Z</time>
      </trkpt>
      <trkpt lat="45.92164" lon="6.4849">
        <ele>1443</ele>
        <time>2021-05-20T06:15:39Z</time>
      </trkpt>
      <trkpt lat="45.92164" lon="6.4849">
        <ele>1443</ele>
        <time>2021-05-20T06:15:40Z</time>
      </trkpt>
      <trkpt lat="45.92167" lon="6.48485">
        <ele>1443</ele>
        <time>2021-05-20T06:15:41Z</time>
      </trkpt>
      <trkpt lat="45.92167" lon="6.48485">
        <ele>1443</ele>
        <time>2021-05-20T06:15:42Z</time>
      </trkpt>
      <trkpt lat="45.92168" lon="6.48483">
        <ele>1443</ele>
        <time>2021-05-20T06:15:43Z</time>
      </trkpt>
      <trkpt lat="45.92169" lon="6.48481">
        <ele>1442</ele>
        <time>2021-05-20T06:15:44Z</time>
      </trkpt>
      <trkpt lat="45.9217" lon="6.48479">
        <ele>1442</ele>
        <time>2021-05-20T06:15:45Z</time>
      </trkpt>
      <trkpt lat="45.92173" lon="6.48476">
        <ele>1442</ele>
        <time>2021-05-20T06:15:46Z</time>
      </trkpt>
      <trkpt lat="45.92173" lon="6.48476">
        <ele>1442</ele>
        <time>2021-05-20T06:15:47Z</time>
      </trkpt>
      <trkpt lat="45.92176" lon="6.48473">
        <ele>1442</ele>
        <time>2021-05-20T06:15:48Z</time>
      </trkpt>
      <trkpt lat="45.92176" lon="6.48473">
        <ele>1442</ele>
        <time>2021-05-20T06:15:49Z</time>
      </trkpt>
      <trkpt lat="45.92178" lon="6.48469">
        <ele>1441</ele>
        <time>2021-05-20T06:15:50Z</time>
      </trkpt>
      <trkpt lat="45.92178" lon="6.48469">
        <ele>1441</ele>
        <time>2021-05-20T06:15:51Z</time>
      </trkpt>
      <trkpt lat="45.92179" lon="6.48468">
        <ele>1441</ele>
        <time>2021-05-20T06:15:52Z</time>
      </trkpt>
      <trkpt lat="45.92181" lon="6.48466">
        <ele>1441</ele>
        <time>2021-05-20T06:15:53Z</time>
      </trkpt>
      <trkpt lat="45.92182" lon="6.48465">
        <ele>1441</ele>
        <time>2021-05-20T06:15:54Z</time>
      </trkpt>
      <trkpt lat="45.92183" lon="6.48463">
        <ele>1441</ele>
        <time>2021-05-20T06:15:55Z</time>
      </trkpt>
      <trkpt lat="45.92184" lon="6.48462">
        <ele>1441</ele>
        <time>2021-05-20T06:15:56Z</time>
      </trkpt>
      <trkpt lat="45.92185" lon="6.4846">
        <ele>1441</ele>
        <time>2021-05-20T06:15:57Z</time>
      </trkpt>
      <trkpt lat="45.92186" lon="6.48459">
        <ele>1441</ele>
        <time>2021-05-20T06:15:58Z</time>
      </trkpt>
      <trkpt lat="45.92187" lon="6.48458">
        <ele>1441</ele>
        <time>2021-05-20T06:15:59Z</time>
      </trkpt>
      <trkpt lat="45.92189" lon="6.48456">
        <ele>1441</ele>
        <time>2021-05-20T06:16:00Z</time>
      </trkpt>
      <trkpt lat="45.9219" lon="6.48455">
        <ele>1441</ele>
        <time>2021-05-20T06:16:01Z</time>
      </trkpt>
      <trkpt lat="45.92191" lon="6.48453">
        <ele>1440</ele>
        <time>2021-05-20T06:16:02Z</time>
      </trkpt>
      <trkpt lat="45.92193" lon="6.48452">
        <ele>1440</ele>
        <time>2021-05-20T06:16:03Z</time>
      </trkpt>
      <trkpt lat="45.92196" lon="6.48449">
        <ele>1440</ele>
        <time>2021-05-20T06:16:04Z</time>
      </trkpt>
      <trkpt lat="45.92196" lon="6.48449">
        <ele>1439</ele>
        <time>2021-05-20T06:16:05Z</time>
      </trkpt>
      <trkpt lat="45.92198" lon="6.48445">
        <ele>1439</ele>
        <time>2021-05-20T06:16:06Z</time>
      </trkpt>
      <trkpt lat="45.92198" lon="6.48445">
        <ele>1439</ele>
        <time>2021-05-20T06:16:07Z</time>
      </trkpt>
      <trkpt lat="45.92201" lon="6.48441">
        <ele>1438</ele>
        <time>2021-05-20T06:16:08Z</time>
      </trkpt>
      <trkpt lat="45.92201" lon="6.48441">
        <ele>1438</ele>
        <time>2021-05-20T06:16:09Z</time>
      </trkpt>
      <trkpt lat="45.92203" lon="6.4844">
        <ele>1438</ele>
        <time>2021-05-20T06:16:10Z</time>
      </trkpt>
      <trkpt lat="45.92204" lon="6.48438">
        <ele>1437</ele>
        <time>2021-05-20T06:16:11Z</time>
      </trkpt>
      <trkpt lat="45.92205" lon="6.48437">
        <ele>1436</ele>
        <time>2021-05-20T06:16:12Z</time>
      </trkpt>
      <trkpt lat="45.92206" lon="6.48435">
        <ele>1436</ele>
        <time>2021-05-20T06:16:13Z</time>
      </trkpt>
      <trkpt lat="45.92208" lon="6.48434">
        <ele>1436</ele>
        <time>2021-05-20T06:16:14Z</time>
      </trkpt>
      <trkpt lat="45.92209" lon="6.48432">
        <ele>1436</ele>
        <time>2021-05-20T06:16:15Z</time>
      </trkpt>
      <trkpt lat="45.9221" lon="6.48432">
        <ele>1436</ele>
        <time>2021-05-20T06:16:16Z</time>
      </trkpt>
      <trkpt lat="45.92212" lon="6.48431">
        <ele>1435</ele>
        <time>2021-05-20T06:16:17Z</time>
      </trkpt>
      <trkpt lat="45.92213" lon="6.4843">
        <ele>1435</ele>
        <time>2021-05-20T06:16:18Z</time>
      </trkpt>
      <trkpt lat="45.92215" lon="6.48429">
        <ele>1435</ele>
        <time>2021-05-20T06:16:19Z</time>
      </trkpt>
      <trkpt lat="45.92216" lon="6.48427">
        <ele>1435</ele>
        <time>2021-05-20T06:16:20Z</time>
      </trkpt>
      <trkpt lat="45.92217" lon="6.48426">
        <ele>1434</ele>
        <time>2021-05-20T06:16:21Z</time>
      </trkpt>
      <trkpt lat="45.92219" lon="6.48425">
        <ele>1434</ele>
        <time>2021-05-20T06:16:22Z</time>
      </trkpt>
      <trkpt lat="45.9222" lon="6.48424">
        <ele>1434</ele>
        <time>2021-05-20T06:16:23Z</time>
      </trkpt>
      <trkpt lat="45.92221" lon="6.48423">
        <ele>1434</ele>
        <time>2021-05-20T06:16:24Z</time>
      </trkpt>
      <trkpt lat="45.92221" lon="6.48423">
        <ele>1433</ele>
        <time>2021-05-20T06:16:25Z</time>
      </trkpt>
      <trkpt lat="45.92225" lon="6.4842">
        <ele>1433</ele>
        <time>2021-05-20T06:16:26Z</time>
      </trkpt>
      <trkpt lat="45.92225" lon="6.4842">
        <ele>1433</ele>
        <time>2021-05-20T06:16:27Z</time>
      </trkpt>
      <trkpt lat="45.92226" lon="6.48418">
        <ele>1432</ele>
        <time>2021-05-20T06:16:28Z</time>
      </trkpt>
      <trkpt lat="45.92227" lon="6.48417">
        <ele>1432</ele>
        <time>2021-05-20T06:16:29Z</time>
      </trkpt>
      <trkpt lat="45.92228" lon="6.48416">
        <ele>1432</ele>
        <time>2021-05-20T06:16:30Z</time>
      </trkpt>
      <trkpt lat="45.92229" lon="6.48415">
        <ele>1432</ele>
        <time>2021-05-20T06:16:31Z</time>
      </trkpt>
      <trkpt lat="45.92231" lon="6.48413">
        <ele>1431</ele>
        <time>2021-05-20T06:16:32Z</time>
      </trkpt>
      <trkpt lat="45.92232" lon="6.48412">
        <ele>1431</ele>
        <time>2021-05-20T06:16:33Z</time>
      </trkpt>
      <trkpt lat="45.92233" lon="6.48411">
        <ele>1431</ele>
        <time>2021-05-20T06:16:34Z</time>
      </trkpt>
      <trkpt lat="45.92234" lon="6.48411">
        <ele>1431</ele>
        <time>2021-05-20T06:16:35Z</time>
      </trkpt>
      <trkpt lat="45.92236" lon="6.4841">
        <ele>1431</ele>
        <time>2021-05-20T06:16:36Z</time>
      </trkpt>
      <trkpt lat="45.92237" lon="6.4841">
        <ele>1431</ele>
        <time>2021-05-20T06:16:37Z</time>
      </trkpt>
      <trkpt lat="45.92239" lon="6.4841">
        <ele>1431</ele>
        <time>2021-05-20T06:16:38Z</time>
      </trkpt>
      <trkpt lat="45.9224" lon="6.48411">
        <ele>1431</ele>
        <time>2021-05-20T06:16:39Z</time>
      </trkpt>
      <trkpt lat="45.9224" lon="6.48411">
        <ele>1431</ele>
        <time>2021-05-20T06:16:40Z</time>
      </trkpt>
      <trkpt lat="45.9224" lon="6.48411">
        <ele>1431</ele>
        <time>2021-05-20T06:16:41Z</time>
      </trkpt>
      <trkpt lat="45.92242" lon="6.48411">
        <ele>1431</ele>
        <time>2021-05-20T06:16:42Z</time>
      </trkpt>
    </trkseg>
  </trk>
</gpx>